<?xml version='1.0' encoding='UTF-8'?><gpx version="1.1" creator="JPX - https://github.com/jenetics/jpx" xmlns="http://www.topografix.com/GPX/1/1"><trk><trkseg><trkpt lat="44.918612" lon="8.2722682"><ele>138.71428571428572</ele><time>2026-03-29T12:34:21.004Z</time></trkpt><trkpt lat="44.9185476" lon="8.2723121"><ele>137.42857142857144</ele><time>2026-03-29T12:34:24.056Z</time></trkpt><trkpt lat="44.9184919" lon="8.2723614"><ele>136.14285714285714</ele><time>2026-03-29T12:34:26.008Z</time></trkpt><trkpt lat="44.9184369" lon="8.2724177"><ele>134.85714285714286</ele><time>2026-03-29T12:34:29.002Z</time></trkpt><trkpt lat="44.9184717" lon="8.272502"><ele>133.57142857142858</ele><time>2026-03-29T12:34:56.933Z</time></trkpt><trkpt lat="44.9184799" lon="8.27261"><ele>132.28571428571428</ele><time>2026-03-29T12:35:00.007Z</time></trkpt><trkpt lat="44.9184736" lon="8.2727284"><ele>131.0</ele><time>2026-03-29T12:35:02.003Z</time></trkpt><trkpt lat="44.9184577" lon="8.2728331"><ele>131.0</ele><time>2026-03-29T12:35:04.004Z</time></trkpt><trkpt lat="44.9184797" lon="8.2729198"><ele>131.0</ele><time>2026-03-29T12:35:06.872Z</time></trkpt><trkpt lat="44.9185668" lon="8.2728884"><ele>131.0</ele><time>2026-03-29T12:35:09.004Z</time></trkpt><trkpt lat="44.9188516" lon="8.2728466"><ele>131.0</ele><time>2026-03-29T12:35:12.006Z</time></trkpt><trkpt lat="44.9189661" lon="8.2728174"><ele>131.0</ele><time>2026-03-29T12:35:13.004Z</time></trkpt><trkpt lat="44.9190723" lon="8.272788"><ele>131.0</ele><time>2026-03-29T12:35:14.009Z</time></trkpt><trkpt lat="44.919185" lon="8.2727674"><ele>131.0</ele><time>2026-03-29T12:35:15.011Z</time></trkpt><trkpt lat="44.9193048" lon="8.2727559"><ele>131.0</ele><time>2026-03-29T12:35:16.003Z</time></trkpt><trkpt lat="44.9194199" lon="8.2727394"><ele>131.25</ele><time>2026-03-29T12:35:17.004Z</time></trkpt><trkpt lat="44.9195375" lon="8.2727339"><ele>131.5</ele><time>2026-03-29T12:35:18.007Z</time></trkpt><trkpt lat="44.9196555" lon="8.2727378"><ele>131.75</ele><time>2026-03-29T12:35:19.003Z</time></trkpt><trkpt lat="44.9197757" lon="8.2727424"><ele>132.0</ele><time>2026-03-29T12:35:20.005Z</time></trkpt><trkpt lat="44.9198916" lon="8.2727414"><ele>132.0</ele><time>2026-03-29T12:35:21.014Z</time></trkpt><trkpt lat="44.9200033" lon="8.2727384"><ele>132.0</ele><time>2026-03-29T12:35:22.003Z</time></trkpt><trkpt lat="44.9201136" lon="8.2727327"><ele>132.0</ele><time>2026-03-29T12:35:23.003Z</time></trkpt><trkpt lat="44.9202173" lon="8.272724"><ele>132.0</ele><time>2026-03-29T12:35:24.002Z</time></trkpt><trkpt lat="44.9203232" lon="8.272719"><ele>132.0</ele><time>2026-03-29T12:35:25.005Z</time></trkpt><trkpt lat="44.9204306" lon="8.2727076"><ele>131.25</ele><time>2026-03-29T12:35:26Z</time></trkpt><trkpt lat="44.9205417" lon="8.2726791"><ele>130.5</ele><time>2026-03-29T12:35:27.003Z</time></trkpt><trkpt lat="44.920651" lon="8.2726419"><ele>129.75</ele><time>2026-03-29T12:35:28.009Z</time></trkpt><trkpt lat="44.9207618" lon="8.2726059"><ele>129.0</ele><time>2026-03-29T12:35:29.006Z</time></trkpt><trkpt lat="44.9208718" lon="8.2725668"><ele>128.5</ele><time>2026-03-29T12:35:30.007Z</time></trkpt><trkpt lat="44.9209839" lon="8.2725219"><ele>128.0</ele><time>2026-03-29T12:35:31.007Z</time></trkpt><trkpt lat="44.921105" lon="8.2724745"><ele>127.5</ele><time>2026-03-29T12:35:32.005Z</time></trkpt><trkpt lat="44.9212325" lon="8.2724335"><ele>127.0</ele><time>2026-03-29T12:35:33.01Z</time></trkpt><trkpt lat="44.921372" lon="8.2723891"><ele>127.0</ele><time>2026-03-29T12:35:34.005Z</time></trkpt><trkpt lat="44.9215185" lon="8.2723388"><ele>127.0</ele><time>2026-03-29T12:35:35.004Z</time></trkpt><trkpt lat="44.9216609" lon="8.2722908"><ele>127.0</ele><time>2026-03-29T12:35:36.007Z</time></trkpt><trkpt lat="44.9218004" lon="8.2722447"><ele>127.0</ele><time>2026-03-29T12:35:37.003Z</time></trkpt><trkpt lat="44.9219409" lon="8.2722012"><ele>129.25</ele><time>2026-03-29T12:35:38.008Z</time></trkpt><trkpt lat="44.9220806" lon="8.2721676"><ele>131.5</ele><time>2026-03-29T12:35:39.008Z</time></trkpt><trkpt lat="44.9222224" lon="8.2721375"><ele>133.75</ele><time>2026-03-29T12:35:40.008Z</time></trkpt><trkpt lat="44.922364" lon="8.2721"><ele>136.0</ele><time>2026-03-29T12:35:41.005Z</time></trkpt><trkpt lat="44.9225032" lon="8.2720667"><ele>135.0</ele><time>2026-03-29T12:35:42.001Z</time></trkpt><trkpt lat="44.9226406" lon="8.2720309"><ele>134.0</ele><time>2026-03-29T12:35:43.003Z</time></trkpt><trkpt lat="44.9227763" lon="8.2719921"><ele>133.0</ele><time>2026-03-29T12:35:44.006Z</time></trkpt><trkpt lat="44.9229152" lon="8.2719503"><ele>132.0</ele><time>2026-03-29T12:35:45.009Z</time></trkpt><trkpt lat="44.9230548" lon="8.2719086"><ele>132.0</ele><time>2026-03-29T12:35:46.002Z</time></trkpt><trkpt lat="44.9231946" lon="8.2718622"><ele>132.0</ele><time>2026-03-29T12:35:47.007Z</time></trkpt><trkpt lat="44.923336" lon="8.2718178"><ele>132.0</ele><time>2026-03-29T12:35:48.007Z</time></trkpt><trkpt lat="44.9234754" lon="8.2717732"><ele>132.0</ele><time>2026-03-29T12:35:49.01Z</time></trkpt><trkpt lat="44.9236199" lon="8.2717235"><ele>131.25</ele><time>2026-03-29T12:35:50.003Z</time></trkpt><trkpt lat="44.9237565" lon="8.2716795"><ele>130.5</ele><time>2026-03-29T12:35:51.003Z</time></trkpt><trkpt lat="44.9238821" lon="8.2716466"><ele>129.75</ele><time>2026-03-29T12:35:52.013Z</time></trkpt><trkpt lat="44.9240061" lon="8.2716251"><ele>129.0</ele><time>2026-03-29T12:35:53.006Z</time></trkpt><trkpt lat="44.9241345" lon="8.2716351"><ele>129.5</ele><time>2026-03-29T12:35:54.01Z</time></trkpt><trkpt lat="44.924265" lon="8.2716628"><ele>130.0</ele><time>2026-03-29T12:35:55.007Z</time></trkpt><trkpt lat="44.9243988" lon="8.2717175"><ele>130.5</ele><time>2026-03-29T12:35:56.008Z</time></trkpt><trkpt lat="44.9245323" lon="8.2717794"><ele>131.0</ele><time>2026-03-29T12:35:57.008Z</time></trkpt><trkpt lat="44.9246684" lon="8.2718408"><ele>131.0</ele><time>2026-03-29T12:35:58.007Z</time></trkpt><trkpt lat="44.924806" lon="8.271896"><ele>131.0</ele><time>2026-03-29T12:35:59.003Z</time></trkpt><trkpt lat="44.9249378" lon="8.2719478"><ele>131.0</ele><time>2026-03-29T12:36:00.009Z</time></trkpt><trkpt lat="44.9250598" lon="8.271999"><ele>131.0</ele><time>2026-03-29T12:36:01.011Z</time></trkpt><trkpt lat="44.9251655" lon="8.2720467"><ele>131.16666666666666</ele><time>2026-03-29T12:36:02.008Z</time></trkpt><trkpt lat="44.9252598" lon="8.2720868"><ele>131.33333333333331</ele><time>2026-03-29T12:36:03.007Z</time></trkpt><trkpt lat="44.925345" lon="8.2721201"><ele>131.5</ele><time>2026-03-29T12:36:04.002Z</time></trkpt><trkpt lat="44.9254139" lon="8.2721497"><ele>131.66666666666666</ele><time>2026-03-29T12:36:05.005Z</time></trkpt><trkpt lat="44.9254937" lon="8.2722575"><ele>131.83333333333334</ele><time>2026-03-29T12:36:07.007Z</time></trkpt><trkpt lat="44.9255058" lon="8.2723522"><ele>132.0</ele><time>2026-03-29T12:36:08.001Z</time></trkpt><trkpt lat="44.9255107" lon="8.2724639"><ele>132.0</ele><time>2026-03-29T12:36:09.012Z</time></trkpt><trkpt lat="44.9255024" lon="8.2726021"><ele>132.0</ele><time>2026-03-29T12:36:10.006Z</time></trkpt><trkpt lat="44.9254912" lon="8.2727525"><ele>132.0</ele><time>2026-03-29T12:36:11.001Z</time></trkpt><trkpt lat="44.92548" lon="8.2728911"><ele>132.0</ele><time>2026-03-29T12:36:12.003Z</time></trkpt><trkpt lat="44.9254706" lon="8.2730102"><ele>132.0</ele><time>2026-03-29T12:36:13.004Z</time></trkpt><trkpt lat="44.9254613" lon="8.2731128"><ele>131.6</ele><time>2026-03-29T12:36:14.002Z</time></trkpt><trkpt lat="44.9254438" lon="8.2732536"><ele>131.2</ele><time>2026-03-29T12:36:16.003Z</time></trkpt><trkpt lat="44.9254448" lon="8.2733507"><ele>130.8</ele><time>2026-03-29T12:36:18.006Z</time></trkpt><trkpt lat="44.9254965" lon="8.2734279"><ele>130.4</ele><time>2026-03-29T12:36:20.009Z</time></trkpt><trkpt lat="44.9255882" lon="8.2735106"><ele>130.0</ele><time>2026-03-29T12:36:22.009Z</time></trkpt><trkpt lat="44.9257361" lon="8.2735766"><ele>130.0</ele><time>2026-03-29T12:36:24.005Z</time></trkpt><trkpt lat="44.9258499" lon="8.2736102"><ele>130.0</ele><time>2026-03-29T12:36:25.007Z</time></trkpt><trkpt lat="44.9260208" lon="8.2736512"><ele>130.0</ele><time>2026-03-29T12:36:26.008Z</time></trkpt><trkpt lat="44.926152" lon="8.273695"><ele>130.0</ele><time>2026-03-29T12:36:27.004Z</time></trkpt><trkpt lat="44.9262931" lon="8.2737374"><ele>130.0</ele><time>2026-03-29T12:36:28.007Z</time></trkpt><trkpt lat="44.9264363" lon="8.2737689"><ele>130.0</ele><time>2026-03-29T12:36:29.008Z</time></trkpt><trkpt lat="44.9265736" lon="8.2738082"><ele>130.0</ele><time>2026-03-29T12:36:30.008Z</time></trkpt><trkpt lat="44.9267151" lon="8.2738501"><ele>130.0</ele><time>2026-03-29T12:36:31.003Z</time></trkpt><trkpt lat="44.9268619" lon="8.2738852"><ele>131.0</ele><time>2026-03-29T12:36:32.001Z</time></trkpt><trkpt lat="44.9270113" lon="8.2739149"><ele>132.0</ele><time>2026-03-29T12:36:33.003Z</time></trkpt><trkpt lat="44.9271599" lon="8.2739351"><ele>133.0</ele><time>2026-03-29T12:36:34.003Z</time></trkpt><trkpt lat="44.927316" lon="8.2739647"><ele>135.0</ele><time>2026-03-29T12:36:35.004Z</time></trkpt><trkpt lat="44.9274757" lon="8.273984"><ele>137.0</ele><time>2026-03-29T12:36:36.003Z</time></trkpt><trkpt lat="44.92763" lon="8.2739962"><ele>139.0</ele><time>2026-03-29T12:36:37.004Z</time></trkpt><trkpt lat="44.9277867" lon="8.2740067"><ele>139.0</ele><time>2026-03-29T12:36:38.004Z</time></trkpt><trkpt lat="44.9279483" lon="8.2740217"><ele>139.0</ele><time>2026-03-29T12:36:39.007Z</time></trkpt><trkpt lat="44.9280933" lon="8.274065"><ele>139.0</ele><time>2026-03-29T12:36:40.005Z</time></trkpt><trkpt lat="44.9282367" lon="8.2741267"><ele>139.0</ele><time>2026-03-29T12:36:41.005Z</time></trkpt><trkpt lat="44.92838" lon="8.2741917"><ele>139.0</ele><time>2026-03-29T12:36:42.009Z</time></trkpt><trkpt lat="44.928515" lon="8.2742733"><ele>139.0</ele><time>2026-03-29T12:36:43.005Z</time></trkpt><trkpt lat="44.9286567" lon="8.2743583"><ele>137.25</ele><time>2026-03-29T12:36:44.01Z</time></trkpt><trkpt lat="44.9288" lon="8.2744467"><ele>135.5</ele><time>2026-03-29T12:36:45.01Z</time></trkpt><trkpt lat="44.9289367" lon="8.2745267"><ele>133.75</ele><time>2026-03-29T12:36:46.005Z</time></trkpt><trkpt lat="44.9290683" lon="8.2745983"><ele>132.0</ele><time>2026-03-29T12:36:47.004Z</time></trkpt><trkpt lat="44.9291967" lon="8.2746583"><ele>132.25</ele><time>2026-03-29T12:36:48.001Z</time></trkpt><trkpt lat="44.92933" lon="8.2746967"><ele>132.5</ele><time>2026-03-29T12:36:49.003Z</time></trkpt><trkpt lat="44.9294683" lon="8.274705"><ele>132.75</ele><time>2026-03-29T12:36:50.009Z</time></trkpt><trkpt lat="44.929605" lon="8.2746917"><ele>133.0</ele><time>2026-03-29T12:36:51.002Z</time></trkpt><trkpt lat="44.9297417" lon="8.274655"><ele>133.0</ele><time>2026-03-29T12:36:52.002Z</time></trkpt><trkpt lat="44.9298567" lon="8.27462"><ele>133.0</ele><time>2026-03-29T12:36:53.002Z</time></trkpt><trkpt lat="44.9299683" lon="8.274585"><ele>133.0</ele><time>2026-03-29T12:36:54.004Z</time></trkpt><trkpt lat="44.93008" lon="8.2745567"><ele>133.0</ele><time>2026-03-29T12:36:55.002Z</time></trkpt><trkpt lat="44.9302" lon="8.274545"><ele>133.0</ele><time>2026-03-29T12:36:56.006Z</time></trkpt><trkpt lat="44.9303367" lon="8.2745483"><ele>133.0</ele><time>2026-03-29T12:36:57.014Z</time></trkpt><trkpt lat="44.9304917" lon="8.2745583"><ele>133.0</ele><time>2026-03-29T12:36:58.008Z</time></trkpt><trkpt lat="44.930645" lon="8.27458"><ele>133.0</ele><time>2026-03-29T12:36:59.002Z</time></trkpt><trkpt lat="44.9308033" lon="8.2746083"><ele>132.66666666666669</ele><time>2026-03-29T12:37:00.004Z</time></trkpt><trkpt lat="44.9309733" lon="8.2746317"><ele>132.33333333333334</ele><time>2026-03-29T12:37:01.004Z</time></trkpt><trkpt lat="44.9311467" lon="8.2746483"><ele>132.0</ele><time>2026-03-29T12:37:02.002Z</time></trkpt><trkpt lat="44.931315" lon="8.274645"><ele>132.0</ele><time>2026-03-29T12:37:03.004Z</time></trkpt><trkpt lat="44.9314867" lon="8.2746317"><ele>132.0</ele><time>2026-03-29T12:37:04.005Z</time></trkpt><trkpt lat="44.931645" lon="8.2746067"><ele>132.0</ele><time>2026-03-29T12:37:05.005Z</time></trkpt><trkpt lat="44.9317983" lon="8.27458"><ele>132.75</ele><time>2026-03-29T12:37:06.005Z</time></trkpt><trkpt lat="44.9319383" lon="8.2745833"><ele>133.5</ele><time>2026-03-29T12:37:07.007Z</time></trkpt><trkpt lat="44.932085" lon="8.274615"><ele>134.25</ele><time>2026-03-29T12:37:08.004Z</time></trkpt><trkpt lat="44.9322267" lon="8.2746733"><ele>135.0</ele><time>2026-03-29T12:37:09.006Z</time></trkpt><trkpt lat="44.9323733" lon="8.2747433"><ele>136.0</ele><time>2026-03-29T12:37:10.002Z</time></trkpt><trkpt lat="44.9325267" lon="8.2748167"><ele>137.0</ele><time>2026-03-29T12:37:11.007Z</time></trkpt><trkpt lat="44.93269" lon="8.2748967"><ele>138.0</ele><time>2026-03-29T12:37:12.001Z</time></trkpt><trkpt lat="44.9328533" lon="8.2749767"><ele>138.0</ele><time>2026-03-29T12:37:13.009Z</time></trkpt><trkpt lat="44.9330217" lon="8.2750567"><ele>138.0</ele><time>2026-03-29T12:37:14.003Z</time></trkpt><trkpt lat="44.93319" lon="8.2751383"><ele>138.0</ele><time>2026-03-29T12:37:15Z</time></trkpt><trkpt lat="44.9333567" lon="8.27523"><ele>138.66666666666666</ele><time>2026-03-29T12:37:16.005Z</time></trkpt><trkpt lat="44.93352" lon="8.275335"><ele>139.33333333333331</ele><time>2026-03-29T12:37:17.007Z</time></trkpt><trkpt lat="44.93366" lon="8.2754733"><ele>140.0</ele><time>2026-03-29T12:37:18.003Z</time></trkpt><trkpt lat="44.9337833" lon="8.2756467"><ele>140.0</ele><time>2026-03-29T12:37:19.005Z</time></trkpt><trkpt lat="44.9338717" lon="8.2758567"><ele>140.0</ele><time>2026-03-29T12:37:20.004Z</time></trkpt><trkpt lat="44.93396" lon="8.2760767"><ele>140.0</ele><time>2026-03-29T12:37:21.005Z</time></trkpt><trkpt lat="44.9340417" lon="8.2762983"><ele>138.33333333333331</ele><time>2026-03-29T12:37:22.005Z</time></trkpt><trkpt lat="44.93413" lon="8.276515"><ele>136.66666666666666</ele><time>2026-03-29T12:37:23.005Z</time></trkpt><trkpt lat="44.9342383" lon="8.2767117"><ele>135.0</ele><time>2026-03-29T12:37:24.002Z</time></trkpt><trkpt lat="44.9343417" lon="8.2769167"><ele>135.0</ele><time>2026-03-29T12:37:25.004Z</time></trkpt><trkpt lat="44.93449" lon="8.2770933"><ele>135.0</ele><time>2026-03-29T12:37:26.004Z</time></trkpt><trkpt lat="44.93464" lon="8.2772717"><ele>135.0</ele><time>2026-03-29T12:37:27.005Z</time></trkpt><trkpt lat="44.9347817" lon="8.2774517"><ele>135.66666666666666</ele><time>2026-03-29T12:37:28.005Z</time></trkpt><trkpt lat="44.9349417" lon="8.2776217"><ele>136.33333333333331</ele><time>2026-03-29T12:37:29.005Z</time></trkpt><trkpt lat="44.935105" lon="8.277785"><ele>137.0</ele><time>2026-03-29T12:37:30.009Z</time></trkpt><trkpt lat="44.9352617" lon="8.277935"><ele>137.0</ele><time>2026-03-29T12:37:31.008Z</time></trkpt><trkpt lat="44.93543" lon="8.2780783"><ele>137.0</ele><time>2026-03-29T12:37:32.006Z</time></trkpt><trkpt lat="44.935595" lon="8.2782117"><ele>137.0</ele><time>2026-03-29T12:37:33.007Z</time></trkpt><trkpt lat="44.9357667" lon="8.2783283"><ele>138.33333333333331</ele><time>2026-03-29T12:37:34.006Z</time></trkpt><trkpt lat="44.935935" lon="8.2784417"><ele>139.66666666666666</ele><time>2026-03-29T12:37:35.005Z</time></trkpt><trkpt lat="44.936095" lon="8.2785633"><ele>141.0</ele><time>2026-03-29T12:37:36.002Z</time></trkpt><trkpt lat="44.936245" lon="8.2786967"><ele>141.0</ele><time>2026-03-29T12:37:37.009Z</time></trkpt><trkpt lat="44.936385" lon="8.2788533"><ele>141.0</ele><time>2026-03-29T12:37:38.007Z</time></trkpt><trkpt lat="44.93651" lon="8.2790283"><ele>141.0</ele><time>2026-03-29T12:37:39.005Z</time></trkpt><trkpt lat="44.936635" lon="8.2791967"><ele>140.0</ele><time>2026-03-29T12:37:40.003Z</time></trkpt><trkpt lat="44.9367633" lon="8.2793533"><ele>139.0</ele><time>2026-03-29T12:37:41.004Z</time></trkpt><trkpt lat="44.9369033" lon="8.2794933"><ele>138.0</ele><time>2026-03-29T12:37:42.01Z</time></trkpt><trkpt lat="44.9370567" lon="8.2796217"><ele>138.0</ele><time>2026-03-29T12:37:43.008Z</time></trkpt><trkpt lat="44.937215" lon="8.2797433"><ele>138.0</ele><time>2026-03-29T12:37:44.001Z</time></trkpt><trkpt lat="44.937375" lon="8.2798667"><ele>138.0</ele><time>2026-03-29T12:37:45.002Z</time></trkpt><trkpt lat="44.9375367" lon="8.279995"><ele>139.0</ele><time>2026-03-29T12:37:46.001Z</time></trkpt><trkpt lat="44.9377033" lon="8.280115"><ele>140.0</ele><time>2026-03-29T12:37:47.001Z</time></trkpt><trkpt lat="44.937865" lon="8.28022"><ele>141.0</ele><time>2026-03-29T12:37:48.008Z</time></trkpt><trkpt lat="44.9380333" lon="8.2803117"><ele>141.0</ele><time>2026-03-29T12:37:49.007Z</time></trkpt><trkpt lat="44.9382083" lon="8.2803967"><ele>141.0</ele><time>2026-03-29T12:37:50.004Z</time></trkpt><trkpt lat="44.9383833" lon="8.280475"><ele>141.0</ele><time>2026-03-29T12:37:51.007Z</time></trkpt><trkpt lat="44.93856" lon="8.2805333"><ele>141.0</ele><time>2026-03-29T12:37:52.005Z</time></trkpt><trkpt lat="44.9387433" lon="8.28057"><ele>141.0</ele><time>2026-03-29T12:37:53.005Z</time></trkpt><trkpt lat="44.9389267" lon="8.2805933"><ele>141.0</ele><time>2026-03-29T12:37:54.005Z</time></trkpt><trkpt lat="44.9391083" lon="8.2806117"><ele>141.66666666666666</ele><time>2026-03-29T12:37:55.008Z</time></trkpt><trkpt lat="44.9392867" lon="8.2806383"><ele>142.33333333333331</ele><time>2026-03-29T12:37:56.003Z</time></trkpt><trkpt lat="44.9394633" lon="8.280685"><ele>143.0</ele><time>2026-03-29T12:37:57.01Z</time></trkpt><trkpt lat="44.9396367" lon="8.2807483"><ele>143.0</ele><time>2026-03-29T12:37:58.008Z</time></trkpt><trkpt lat="44.93981" lon="8.2808117"><ele>143.0</ele><time>2026-03-29T12:37:59.003Z</time></trkpt><trkpt lat="44.9399883" lon="8.280885"><ele>143.0</ele><time>2026-03-29T12:38:00.01Z</time></trkpt><trkpt lat="44.940165" lon="8.28096"><ele>143.0</ele><time>2026-03-29T12:38:01.007Z</time></trkpt><trkpt lat="44.94034" lon="8.2810333"><ele>143.0</ele><time>2026-03-29T12:38:02.006Z</time></trkpt><trkpt lat="44.940515" lon="8.281105"><ele>143.0</ele><time>2026-03-29T12:38:03.006Z</time></trkpt><trkpt lat="44.9406917" lon="8.281165"><ele>143.0</ele><time>2026-03-29T12:38:04.003Z</time></trkpt><trkpt lat="44.94087" lon="8.281215"><ele>143.0</ele><time>2026-03-29T12:38:05.01Z</time></trkpt><trkpt lat="44.9410533" lon="8.281255"><ele>143.0</ele><time>2026-03-29T12:38:06.002Z</time></trkpt><trkpt lat="44.9412367" lon="8.2812833"><ele>142.66666666666666</ele><time>2026-03-29T12:38:07.003Z</time></trkpt><trkpt lat="44.9414217" lon="8.2813183"><ele>142.33333333333334</ele><time>2026-03-29T12:38:08.008Z</time></trkpt><trkpt lat="44.941605" lon="8.2813483"><ele>142.0</ele><time>2026-03-29T12:38:09.004Z</time></trkpt><trkpt lat="44.9417883" lon="8.281375"><ele>142.0</ele><time>2026-03-29T12:38:10.006Z</time></trkpt><trkpt lat="44.94198" lon="8.281405"><ele>142.0</ele><time>2026-03-29T12:38:11.006Z</time></trkpt><trkpt lat="44.9421683" lon="8.2814417"><ele>142.0</ele><time>2026-03-29T12:38:12.009Z</time></trkpt><trkpt lat="44.9423533" lon="8.2814717"><ele>143.0</ele><time>2026-03-29T12:38:13.007Z</time></trkpt><trkpt lat="44.9425417" lon="8.281505"><ele>144.0</ele><time>2026-03-29T12:38:14.009Z</time></trkpt><trkpt lat="44.9427233" lon="8.2815533"><ele>145.0</ele><time>2026-03-29T12:38:15.009Z</time></trkpt><trkpt lat="44.9429083" lon="8.28163"><ele>145.0</ele><time>2026-03-29T12:38:16.005Z</time></trkpt><trkpt lat="44.9430917" lon="8.2817217"><ele>145.0</ele><time>2026-03-29T12:38:17.01Z</time></trkpt><trkpt lat="44.9432717" lon="8.28182"><ele>145.0</ele><time>2026-03-29T12:38:18.002Z</time></trkpt><trkpt lat="44.9434533" lon="8.28192"><ele>145.0</ele><time>2026-03-29T12:38:19.007Z</time></trkpt><trkpt lat="44.943635" lon="8.2820133"><ele>145.0</ele><time>2026-03-29T12:38:20.007Z</time></trkpt><trkpt lat="44.9438133" lon="8.28211"><ele>145.0</ele><time>2026-03-29T12:38:21.009Z</time></trkpt><trkpt lat="44.9439867" lon="8.2821983"><ele>145.66666666666669</ele><time>2026-03-29T12:38:22.01Z</time></trkpt><trkpt lat="44.9441583" lon="8.2822817"><ele>146.33333333333334</ele><time>2026-03-29T12:38:23.005Z</time></trkpt><trkpt lat="44.94433" lon="8.2823467"><ele>147.0</ele><time>2026-03-29T12:38:24.009Z</time></trkpt><trkpt lat="44.9445117" lon="8.2823817"><ele>147.0</ele><time>2026-03-29T12:38:25.004Z</time></trkpt><trkpt lat="44.9446967" lon="8.2823967"><ele>147.0</ele><time>2026-03-29T12:38:26.003Z</time></trkpt><trkpt lat="44.9448733" lon="8.282405"><ele>147.0</ele><time>2026-03-29T12:38:27.002Z</time></trkpt><trkpt lat="44.945035" lon="8.2824317"><ele>147.0</ele><time>2026-03-29T12:38:28.005Z</time></trkpt><trkpt lat="44.945185" lon="8.282485"><ele>147.0</ele><time>2026-03-29T12:38:29.004Z</time></trkpt><trkpt lat="44.94531" lon="8.282585"><ele>147.0</ele><time>2026-03-29T12:38:30.006Z</time></trkpt><trkpt lat="44.9454283" lon="8.2827233"><ele>147.0</ele><time>2026-03-29T12:38:31.004Z</time></trkpt><trkpt lat="44.94554" lon="8.2828767"><ele>147.0</ele><time>2026-03-29T12:38:32.01Z</time></trkpt><trkpt lat="44.9456617" lon="8.2830167"><ele>147.0</ele><time>2026-03-29T12:38:33.015Z</time></trkpt><trkpt lat="44.94579" lon="8.28313"><ele>148.0</ele><time>2026-03-29T12:38:34.007Z</time></trkpt><trkpt lat="44.94593" lon="8.2832017"><ele>149.0</ele><time>2026-03-29T12:38:35.005Z</time></trkpt><trkpt lat="44.946085" lon="8.2832233"><ele>150.0</ele><time>2026-03-29T12:38:36.007Z</time></trkpt><trkpt lat="44.946235" lon="8.2832"><ele>150.0</ele><time>2026-03-29T12:38:37.006Z</time></trkpt><trkpt lat="44.9463883" lon="8.2831167"><ele>150.0</ele><time>2026-03-29T12:38:38.004Z</time></trkpt><trkpt lat="44.94654" lon="8.2830083"><ele>150.0</ele><time>2026-03-29T12:38:39.007Z</time></trkpt><trkpt lat="44.9466967" lon="8.2828883"><ele>151.66666666666666</ele><time>2026-03-29T12:38:40.004Z</time></trkpt><trkpt lat="44.94686" lon="8.282765"><ele>153.33333333333331</ele><time>2026-03-29T12:38:41.009Z</time></trkpt><trkpt lat="44.9470283" lon="8.2826383"><ele>155.0</ele><time>2026-03-29T12:38:42.009Z</time></trkpt><trkpt lat="44.947205" lon="8.2825083"><ele>155.0</ele><time>2026-03-29T12:38:43.004Z</time></trkpt><trkpt lat="44.9473867" lon="8.2823783"><ele>155.0</ele><time>2026-03-29T12:38:44.009Z</time></trkpt><trkpt lat="44.947575" lon="8.2822433"><ele>155.0</ele><time>2026-03-29T12:38:45.01Z</time></trkpt><trkpt lat="44.9477667" lon="8.282105"><ele>152.66666666666666</ele><time>2026-03-29T12:38:46.011Z</time></trkpt><trkpt lat="44.947965" lon="8.2819683"><ele>150.33333333333334</ele><time>2026-03-29T12:38:47.008Z</time></trkpt><trkpt lat="44.9481667" lon="8.281825"><ele>148.0</ele><time>2026-03-29T12:38:48.005Z</time></trkpt><trkpt lat="44.9483667" lon="8.2816783"><ele>148.0</ele><time>2026-03-29T12:38:49.005Z</time></trkpt><trkpt lat="44.9485633" lon="8.281535"><ele>148.0</ele><time>2026-03-29T12:38:50.004Z</time></trkpt><trkpt lat="44.9487583" lon="8.28139"><ele>148.0</ele><time>2026-03-29T12:38:51.004Z</time></trkpt><trkpt lat="44.9489467" lon="8.2812483"><ele>148.0</ele><time>2026-03-29T12:38:52.005Z</time></trkpt><trkpt lat="44.9491317" lon="8.2811083"><ele>148.0</ele><time>2026-03-29T12:38:53.004Z</time></trkpt><trkpt lat="44.9493133" lon="8.280975"><ele>148.0</ele><time>2026-03-29T12:38:54.007Z</time></trkpt><trkpt lat="44.94949" lon="8.28085"><ele>149.0</ele><time>2026-03-29T12:38:55.006Z</time></trkpt><trkpt lat="44.94966" lon="8.280745"><ele>150.0</ele><time>2026-03-29T12:38:56.012Z</time></trkpt><trkpt lat="44.949815" lon="8.280675"><ele>151.0</ele><time>2026-03-29T12:38:57.017Z</time></trkpt><trkpt lat="44.949965" lon="8.2806383"><ele>152.0</ele><time>2026-03-29T12:38:58.003Z</time></trkpt><trkpt lat="44.9501067" lon="8.2806233"><ele>153.0</ele><time>2026-03-29T12:38:59.004Z</time></trkpt><trkpt lat="44.9502467" lon="8.28063"><ele>154.0</ele><time>2026-03-29T12:39:00.008Z</time></trkpt><trkpt lat="44.95038" lon="8.28064"><ele>155.0</ele><time>2026-03-29T12:39:01.018Z</time></trkpt><trkpt lat="44.950495" lon="8.280655"><ele>155.0</ele><time>2026-03-29T12:39:02.006Z</time></trkpt><trkpt lat="44.9505867" lon="8.28067"><ele>155.0</ele><time>2026-03-29T12:39:03.008Z</time></trkpt><trkpt lat="44.95066" lon="8.2806717"><ele>155.0</ele><time>2026-03-29T12:39:04.006Z</time></trkpt><trkpt lat="44.950755" lon="8.2805733"><ele>155.0</ele><time>2026-03-29T12:39:06.002Z</time></trkpt><trkpt lat="44.9507667" lon="8.2804817"><ele>155.0</ele><time>2026-03-29T12:39:07.008Z</time></trkpt><trkpt lat="44.9507667" lon="8.2803717"><ele>155.0</ele><time>2026-03-29T12:39:08.002Z</time></trkpt><trkpt lat="44.9507533" lon="8.2802217"><ele>154.0</ele><time>2026-03-29T12:39:09.013Z</time></trkpt><trkpt lat="44.9507483" lon="8.280055"><ele>153.0</ele><time>2026-03-29T12:39:10.005Z</time></trkpt><trkpt lat="44.950765" lon="8.2798583"><ele>152.0</ele><time>2026-03-29T12:39:11.003Z</time></trkpt><trkpt lat="44.9508033" lon="8.2796417"><ele>151.0</ele><time>2026-03-29T12:39:12.001Z</time></trkpt><trkpt lat="44.9508467" lon="8.2794033"><ele>151.66666666666669</ele><time>2026-03-29T12:39:13.004Z</time></trkpt><trkpt lat="44.9508967" lon="8.279155"><ele>152.33333333333334</ele><time>2026-03-29T12:39:14.006Z</time></trkpt><trkpt lat="44.9509483" lon="8.2788967"><ele>153.0</ele><time>2026-03-29T12:39:15.005Z</time></trkpt><trkpt lat="44.9510033" lon="8.27862"><ele>154.33333333333334</ele><time>2026-03-29T12:39:16.004Z</time></trkpt><trkpt lat="44.95106" lon="8.2783267"><ele>155.66666666666669</ele><time>2026-03-29T12:39:17.005Z</time></trkpt><trkpt lat="44.9511183" lon="8.2780267"><ele>157.0</ele><time>2026-03-29T12:39:18.008Z</time></trkpt><trkpt lat="44.9511767" lon="8.2777267"><ele>157.0</ele><time>2026-03-29T12:39:19.009Z</time></trkpt><trkpt lat="44.9512417" lon="8.2774267"><ele>157.0</ele><time>2026-03-29T12:39:20.003Z</time></trkpt><trkpt lat="44.9513067" lon="8.2771183"><ele>157.0</ele><time>2026-03-29T12:39:21.011Z</time></trkpt><trkpt lat="44.9513783" lon="8.2768183"><ele>157.0</ele><time>2026-03-29T12:39:22.006Z</time></trkpt><trkpt lat="44.9514533" lon="8.2765267"><ele>157.0</ele><time>2026-03-29T12:39:23.006Z</time></trkpt><trkpt lat="44.9515283" lon="8.2762383"><ele>158.0</ele><time>2026-03-29T12:39:24.011Z</time></trkpt><trkpt lat="44.9516067" lon="8.275955"><ele>159.0</ele><time>2026-03-29T12:39:25.007Z</time></trkpt><trkpt lat="44.9516917" lon="8.2756767"><ele>160.0</ele><time>2026-03-29T12:39:26Z</time></trkpt><trkpt lat="44.9517817" lon="8.2754033"><ele>160.0</ele><time>2026-03-29T12:39:27.007Z</time></trkpt><trkpt lat="44.9518783" lon="8.27514"><ele>160.0</ele><time>2026-03-29T12:39:28.003Z</time></trkpt><trkpt lat="44.9519783" lon="8.2748833"><ele>160.0</ele><time>2026-03-29T12:39:29.007Z</time></trkpt><trkpt lat="44.95208" lon="8.274625"><ele>159.66666666666669</ele><time>2026-03-29T12:39:30.008Z</time></trkpt><trkpt lat="44.9521833" lon="8.274365"><ele>159.33333333333334</ele><time>2026-03-29T12:39:31.007Z</time></trkpt><trkpt lat="44.95229" lon="8.2741117"><ele>159.0</ele><time>2026-03-29T12:39:32.002Z</time></trkpt><trkpt lat="44.952395" lon="8.2738617"><ele>157.33333333333334</ele><time>2026-03-29T12:39:33.005Z</time></trkpt><trkpt lat="44.9525" lon="8.2736167"><ele>155.66666666666669</ele><time>2026-03-29T12:39:34.008Z</time></trkpt><trkpt lat="44.9526017" lon="8.2733733"><ele>154.0</ele><time>2026-03-29T12:39:35.004Z</time></trkpt><trkpt lat="44.9527067" lon="8.2731283"><ele>156.33333333333334</ele><time>2026-03-29T12:39:36.004Z</time></trkpt><trkpt lat="44.9528083" lon="8.2728883"><ele>158.66666666666666</ele><time>2026-03-29T12:39:37.003Z</time></trkpt><trkpt lat="44.9529133" lon="8.2726517"><ele>161.0</ele><time>2026-03-29T12:39:38.007Z</time></trkpt><trkpt lat="44.9530167" lon="8.2724133"><ele>159.66666666666666</ele><time>2026-03-29T12:39:39.006Z</time></trkpt><trkpt lat="44.95312" lon="8.27218"><ele>158.33333333333334</ele><time>2026-03-29T12:39:40.007Z</time></trkpt><trkpt lat="44.953225" lon="8.271945"><ele>157.0</ele><time>2026-03-29T12:39:41.004Z</time></trkpt><trkpt lat="44.953335" lon="8.2717083"><ele>159.66666666666669</ele><time>2026-03-29T12:39:42.006Z</time></trkpt><trkpt lat="44.953445" lon="8.271475"><ele>162.33333333333334</ele><time>2026-03-29T12:39:43.009Z</time></trkpt><trkpt lat="44.9535583" lon="8.271235"><ele>165.0</ele><time>2026-03-29T12:39:44.006Z</time></trkpt><trkpt lat="44.9536817" lon="8.2709983"><ele>165.0</ele><time>2026-03-29T12:39:45.007Z</time></trkpt><trkpt lat="44.9537967" lon="8.2707583"><ele>165.0</ele><time>2026-03-29T12:39:46.003Z</time></trkpt><trkpt lat="44.953915" lon="8.2705167"><ele>165.0</ele><time>2026-03-29T12:39:47.007Z</time></trkpt><trkpt lat="44.9540383" lon="8.270275"><ele>165.66666666666666</ele><time>2026-03-29T12:39:48.006Z</time></trkpt><trkpt lat="44.95415" lon="8.2700383"><ele>166.33333333333331</ele><time>2026-03-29T12:39:49.006Z</time></trkpt><trkpt lat="44.9542617" lon="8.2698133"><ele>167.0</ele><time>2026-03-29T12:39:50.009Z</time></trkpt><trkpt lat="44.9543683" lon="8.2695967"><ele>164.0</ele><time>2026-03-29T12:39:51.006Z</time></trkpt><trkpt lat="44.954455" lon="8.2693733"><ele>161.0</ele><time>2026-03-29T12:39:52.006Z</time></trkpt><trkpt lat="44.95452" lon="8.2691433"><ele>158.0</ele><time>2026-03-29T12:39:53.011Z</time></trkpt><trkpt lat="44.9545533" lon="8.2689017"><ele>158.0</ele><time>2026-03-29T12:39:54.003Z</time></trkpt><trkpt lat="44.9545583" lon="8.2686533"><ele>158.0</ele><time>2026-03-29T12:39:55.005Z</time></trkpt><trkpt lat="44.95454" lon="8.2684017"><ele>158.0</ele><time>2026-03-29T12:39:56.01Z</time></trkpt><trkpt lat="44.9544933" lon="8.2681533"><ele>159.66666666666666</ele><time>2026-03-29T12:39:57.002Z</time></trkpt><trkpt lat="44.9544217" lon="8.26791"><ele>161.33333333333334</ele><time>2026-03-29T12:39:58.007Z</time></trkpt><trkpt lat="44.9543283" lon="8.2676717"><ele>163.0</ele><time>2026-03-29T12:39:59.002Z</time></trkpt><trkpt lat="44.954225" lon="8.2674267"><ele>163.0</ele><time>2026-03-29T12:40:00.01Z</time></trkpt><trkpt lat="44.9541183" lon="8.2671767"><ele>163.0</ele><time>2026-03-29T12:40:01.001Z</time></trkpt><trkpt lat="44.9540117" lon="8.2669167"><ele>163.0</ele><time>2026-03-29T12:40:02.005Z</time></trkpt><trkpt lat="44.953905" lon="8.2666483"><ele>167.5</ele><time>2026-03-29T12:40:03.009Z</time></trkpt><trkpt lat="44.95379" lon="8.266375"><ele>172.0</ele><time>2026-03-29T12:40:04.006Z</time></trkpt><trkpt lat="44.9536683" lon="8.2661017"><ele>172.0</ele><time>2026-03-29T12:40:05.005Z</time></trkpt><trkpt lat="44.953545" lon="8.2658233"><ele>172.0</ele><time>2026-03-29T12:40:06.008Z</time></trkpt><trkpt lat="44.9534333" lon="8.2655517"><ele>169.66666666666669</ele><time>2026-03-29T12:40:07.005Z</time></trkpt><trkpt lat="44.95333" lon="8.2652867"><ele>167.33333333333334</ele><time>2026-03-29T12:40:08.004Z</time></trkpt><trkpt lat="44.9532267" lon="8.2650333"><ele>165.0</ele><time>2026-03-29T12:40:09.007Z</time></trkpt><trkpt lat="44.95314" lon="8.2647667"><ele>165.0</ele><time>2026-03-29T12:40:10.004Z</time></trkpt><trkpt lat="44.9531" lon="8.2644917"><ele>165.0</ele><time>2026-03-29T12:40:11.008Z</time></trkpt><trkpt lat="44.9530933" lon="8.2642167"><ele>165.0</ele><time>2026-03-29T12:40:12.003Z</time></trkpt><trkpt lat="44.9530983" lon="8.2639417"><ele>165.33333333333334</ele><time>2026-03-29T12:40:13.004Z</time></trkpt><trkpt lat="44.9531017" lon="8.26366"><ele>165.66666666666669</ele><time>2026-03-29T12:40:14Z</time></trkpt><trkpt lat="44.9531033" lon="8.26337"><ele>166.0</ele><time>2026-03-29T12:40:15.003Z</time></trkpt><trkpt lat="44.95311" lon="8.2630717"><ele>166.0</ele><time>2026-03-29T12:40:16.003Z</time></trkpt><trkpt lat="44.9531167" lon="8.2627683"><ele>166.0</ele><time>2026-03-29T12:40:17.001Z</time></trkpt><trkpt lat="44.9531217" lon="8.2624567"><ele>166.0</ele><time>2026-03-29T12:40:18.003Z</time></trkpt><trkpt lat="44.9531283" lon="8.2621433"><ele>167.0</ele><time>2026-03-29T12:40:19.004Z</time></trkpt><trkpt lat="44.95313" lon="8.2618283"><ele>168.0</ele><time>2026-03-29T12:40:20.006Z</time></trkpt><trkpt lat="44.9531333" lon="8.2615117"><ele>169.0</ele><time>2026-03-29T12:40:21.004Z</time></trkpt><trkpt lat="44.9531367" lon="8.2611933"><ele>171.33333333333334</ele><time>2026-03-29T12:40:22.005Z</time></trkpt><trkpt lat="44.95314" lon="8.2608767"><ele>173.66666666666666</ele><time>2026-03-29T12:40:23.004Z</time></trkpt><trkpt lat="44.9531467" lon="8.26056"><ele>176.0</ele><time>2026-03-29T12:40:24.002Z</time></trkpt><trkpt lat="44.9531533" lon="8.2602467"><ele>178.0</ele><time>2026-03-29T12:40:25.007Z</time></trkpt><trkpt lat="44.9531617" lon="8.2599317"><ele>180.0</ele><time>2026-03-29T12:40:26.007Z</time></trkpt><trkpt lat="44.95317" lon="8.2596233"><ele>182.0</ele><time>2026-03-29T12:40:27.018Z</time></trkpt><trkpt lat="44.953175" lon="8.2593367"><ele>182.66666666666666</ele><time>2026-03-29T12:40:28.004Z</time></trkpt><trkpt lat="44.9531783" lon="8.2590733"><ele>183.33333333333334</ele><time>2026-03-29T12:40:29.005Z</time></trkpt><trkpt lat="44.9531833" lon="8.2588283"><ele>184.0</ele><time>2026-03-29T12:40:30.007Z</time></trkpt><trkpt lat="44.9531917" lon="8.2585967"><ele>184.25</ele><time>2026-03-29T12:40:31.008Z</time></trkpt><trkpt lat="44.953205" lon="8.2583717"><ele>184.5</ele><time>2026-03-29T12:40:32.004Z</time></trkpt><trkpt lat="44.9532283" lon="8.2581717"><ele>184.75</ele><time>2026-03-29T12:40:33.005Z</time></trkpt><trkpt lat="44.953265" lon="8.2579867"><ele>185.0</ele><time>2026-03-29T12:40:34.004Z</time></trkpt><trkpt lat="44.9533267" lon="8.2578233"><ele>186.5</ele><time>2026-03-29T12:40:35.005Z</time></trkpt><trkpt lat="44.9534033" lon="8.2576783"><ele>188.0</ele><time>2026-03-29T12:40:36.008Z</time></trkpt><trkpt lat="44.9535" lon="8.2575567"><ele>189.5</ele><time>2026-03-29T12:40:37.007Z</time></trkpt><trkpt lat="44.953615" lon="8.25745"><ele>191.0</ele><time>2026-03-29T12:40:38.009Z</time></trkpt><trkpt lat="44.953735" lon="8.257355"><ele>193.25</ele><time>2026-03-29T12:40:39.009Z</time></trkpt><trkpt lat="44.953865" lon="8.257275"><ele>195.5</ele><time>2026-03-29T12:40:40.004Z</time></trkpt><trkpt lat="44.953995" lon="8.2572033"><ele>197.75</ele><time>2026-03-29T12:40:41.006Z</time></trkpt><trkpt lat="44.9541217" lon="8.257135"><ele>200.0</ele><time>2026-03-29T12:40:42.001Z</time></trkpt><trkpt lat="44.95424" lon="8.2570833"><ele>200.2</ele><time>2026-03-29T12:40:43.004Z</time></trkpt><trkpt lat="44.954345" lon="8.2570133"><ele>200.4</ele><time>2026-03-29T12:40:44.006Z</time></trkpt><trkpt lat="44.9544367" lon="8.25693"><ele>200.60000000000002</ele><time>2026-03-29T12:40:45.004Z</time></trkpt><trkpt lat="44.954515" lon="8.256835"><ele>200.8</ele><time>2026-03-29T12:40:46.001Z</time></trkpt><trkpt lat="44.954575" lon="8.2567333"><ele>201.0</ele><time>2026-03-29T12:40:47.005Z</time></trkpt><trkpt lat="44.9546167" lon="8.2566467"><ele>201.0</ele><time>2026-03-29T12:40:48.009Z</time></trkpt><trkpt lat="44.95467" lon="8.2565167"><ele>201.0</ele><time>2026-03-29T12:40:50.003Z</time></trkpt><trkpt lat="44.9547283" lon="8.2564617"><ele>201.0</ele><time>2026-03-29T12:40:52.005Z</time></trkpt><trkpt lat="44.9548433" lon="8.2564967"><ele>201.0</ele><time>2026-03-29T12:40:54.008Z</time></trkpt><trkpt lat="44.9549467" lon="8.2565783"><ele>201.0</ele><time>2026-03-29T12:40:55.006Z</time></trkpt><trkpt lat="44.955085" lon="8.2567083"><ele>202.0</ele><time>2026-03-29T12:40:56.007Z</time></trkpt><trkpt lat="44.9552117" lon="8.2567833"><ele>203.0</ele><time>2026-03-29T12:40:57.009Z</time></trkpt><trkpt lat="44.9553467" lon="8.2568817"><ele>204.0</ele><time>2026-03-29T12:40:58.004Z</time></trkpt><trkpt lat="44.9554833" lon="8.2569733"><ele>205.0</ele><time>2026-03-29T12:40:59.006Z</time></trkpt><trkpt lat="44.9556333" lon="8.25706"><ele>205.0</ele><time>2026-03-29T12:41:00.011Z</time></trkpt><trkpt lat="44.9557683" lon="8.2571433"><ele>205.0</ele><time>2026-03-29T12:41:01.007Z</time></trkpt><trkpt lat="44.955905" lon="8.2572117"><ele>205.0</ele><time>2026-03-29T12:41:02.004Z</time></trkpt><trkpt lat="44.9560367" lon="8.257305"><ele>205.0</ele><time>2026-03-29T12:41:03.003Z</time></trkpt><trkpt lat="44.9561717" lon="8.2573733"><ele>208.25</ele><time>2026-03-29T12:41:04Z</time></trkpt><trkpt lat="44.956295" lon="8.257445"><ele>211.5</ele><time>2026-03-29T12:41:05.003Z</time></trkpt><trkpt lat="44.956405" lon="8.25754"><ele>214.75</ele><time>2026-03-29T12:41:06.012Z</time></trkpt><trkpt lat="44.9565133" lon="8.2576483"><ele>218.0</ele><time>2026-03-29T12:41:07.002Z</time></trkpt><trkpt lat="44.9566183" lon="8.2577417"><ele>218.4</ele><time>2026-03-29T12:41:08.003Z</time></trkpt><trkpt lat="44.9567283" lon="8.2578233"><ele>218.8</ele><time>2026-03-29T12:41:09.004Z</time></trkpt><trkpt lat="44.9568433" lon="8.25789"><ele>219.2</ele><time>2026-03-29T12:41:10.002Z</time></trkpt><trkpt lat="44.956935" lon="8.2579433"><ele>219.6</ele><time>2026-03-29T12:41:11.004Z</time></trkpt><trkpt lat="44.9570333" lon="8.2579767"><ele>220.0</ele><time>2026-03-29T12:41:12.007Z</time></trkpt><trkpt lat="44.9571267" lon="8.2580183"><ele>219.99999999999997</ele><time>2026-03-29T12:41:13.005Z</time></trkpt><trkpt lat="44.9572217" lon="8.2580517"><ele>220.0</ele><time>2026-03-29T12:41:14.01Z</time></trkpt><trkpt lat="44.9573083" lon="8.2580917"><ele>220.0</ele><time>2026-03-29T12:41:15.005Z</time></trkpt><trkpt lat="44.9573983" lon="8.2581133"><ele>220.0</ele><time>2026-03-29T12:41:16.003Z</time></trkpt><trkpt lat="44.9574867" lon="8.25814"><ele>219.99999999999997</ele><time>2026-03-29T12:41:17.007Z</time></trkpt><trkpt lat="44.957565" lon="8.2581483"><ele>220.0</ele><time>2026-03-29T12:41:18.005Z</time></trkpt><trkpt lat="44.9576767" lon="8.2581367"><ele>220.2</ele><time>2026-03-29T12:41:20.003Z</time></trkpt><trkpt lat="44.9577733" lon="8.25812"><ele>220.4</ele><time>2026-03-29T12:41:22Z</time></trkpt><trkpt lat="44.9578583" lon="8.25805"><ele>220.60000000000002</ele><time>2026-03-29T12:41:24.002Z</time></trkpt><trkpt lat="44.95793" lon="8.25794"><ele>220.8</ele><time>2026-03-29T12:41:26.003Z</time></trkpt><trkpt lat="44.9580083" lon="8.2578567"><ele>221.0</ele><time>2026-03-29T12:41:28.002Z</time></trkpt><trkpt lat="44.958055" lon="8.2577933"><ele>221.33333333333334</ele><time>2026-03-29T12:41:30.003Z</time></trkpt><trkpt lat="44.9579867" lon="8.2577933"><ele>221.66666666666669</ele><time>2026-03-29T12:41:38.008Z</time></trkpt><trkpt lat="44.9579117" lon="8.2578617"><ele>222.0</ele><time>2026-03-29T12:41:41.007Z</time></trkpt><trkpt lat="44.9578417" lon="8.257915"><ele>222.33333333333331</ele><time>2026-03-29T12:41:44Z</time></trkpt><trkpt lat="44.9577483" lon="8.257845"><ele>222.66666666666666</ele><time>2026-03-29T12:42:27.006Z</time></trkpt><trkpt lat="44.9576733" lon="8.2579067"><ele>223.0</ele><time>2026-03-29T12:42:29.006Z</time></trkpt><trkpt lat="44.9575833" lon="8.2579717"><ele>222.25</ele><time>2026-03-29T12:42:31.012Z</time></trkpt><trkpt lat="44.9574683" lon="8.2579967"><ele>221.5</ele><time>2026-03-29T12:42:33.003Z</time></trkpt><trkpt lat="44.95734" lon="8.25799"><ele>220.75</ele><time>2026-03-29T12:42:35.001Z</time></trkpt><trkpt lat="44.9572283" lon="8.2579317"><ele>220.0</ele><time>2026-03-29T12:42:36.002Z</time></trkpt><trkpt lat="44.957125" lon="8.2578933"><ele>220.0</ele><time>2026-03-29T12:42:37.012Z</time></trkpt><trkpt lat="44.9570217" lon="8.2578417"><ele>220.0</ele><time>2026-03-29T12:42:38.003Z</time></trkpt><trkpt lat="44.9569133" lon="8.2577933"><ele>220.0</ele><time>2026-03-29T12:42:39.007Z</time></trkpt><trkpt lat="44.9568083" lon="8.2577567"><ele>220.0</ele><time>2026-03-29T12:42:40.004Z</time></trkpt><trkpt lat="44.9567017" lon="8.2577"><ele>220.0</ele><time>2026-03-29T12:42:41.006Z</time></trkpt><trkpt lat="44.9566" lon="8.2576567"><ele>219.6</ele><time>2026-03-29T12:42:42.005Z</time></trkpt><trkpt lat="44.9565033" lon="8.257625"><ele>219.2</ele><time>2026-03-29T12:42:43.004Z</time></trkpt><trkpt lat="44.9564067" lon="8.257565"><ele>218.8</ele><time>2026-03-29T12:42:44.006Z</time></trkpt><trkpt lat="44.9563033" lon="8.2575183"><ele>218.4</ele><time>2026-03-29T12:42:45.004Z</time></trkpt><trkpt lat="44.956205" lon="8.2574683"><ele>218.0</ele><time>2026-03-29T12:42:46.01Z</time></trkpt><trkpt lat="44.9560967" lon="8.25741"><ele>218.0</ele><time>2026-03-29T12:42:47.001Z</time></trkpt><trkpt lat="44.955985" lon="8.257355"><ele>218.0</ele><time>2026-03-29T12:42:48.002Z</time></trkpt><trkpt lat="44.9558717" lon="8.2573317"><ele>218.0</ele><time>2026-03-29T12:42:49.003Z</time></trkpt><trkpt lat="44.955775" lon="8.2572683"><ele>218.0</ele><time>2026-03-29T12:42:50.003Z</time></trkpt><trkpt lat="44.955675" lon="8.2572133"><ele>218.0</ele><time>2026-03-29T12:42:51.006Z</time></trkpt><trkpt lat="44.9555717" lon="8.2571567"><ele>215.4</ele><time>2026-03-29T12:42:52.002Z</time></trkpt><trkpt lat="44.9554767" lon="8.257095"><ele>212.8</ele><time>2026-03-29T12:42:53.002Z</time></trkpt><trkpt lat="44.9553883" lon="8.2570267"><ele>210.2</ele><time>2026-03-29T12:42:54.006Z</time></trkpt><trkpt lat="44.9553033" lon="8.2569633"><ele>207.6</ele><time>2026-03-29T12:42:55.01Z</time></trkpt><trkpt lat="44.9552267" lon="8.25689"><ele>205.0</ele><time>2026-03-29T12:42:56.002Z</time></trkpt><trkpt lat="44.95513" lon="8.2568233"><ele>205.0</ele><time>2026-03-29T12:42:57.004Z</time></trkpt><trkpt lat="44.9550467" lon="8.2567633"><ele>205.0</ele><time>2026-03-29T12:42:58.005Z</time></trkpt><trkpt lat="44.9549567" lon="8.2566867"><ele>205.0</ele><time>2026-03-29T12:42:59.004Z</time></trkpt><trkpt lat="44.9548683" lon="8.256635"><ele>205.0</ele><time>2026-03-29T12:43:00.008Z</time></trkpt><trkpt lat="44.95479" lon="8.2565933"><ele>205.0</ele><time>2026-03-29T12:43:01.003Z</time></trkpt><trkpt lat="44.9547183" lon="8.2565733"><ele>204.0</ele><time>2026-03-29T12:43:02.002Z</time></trkpt><trkpt lat="44.9546117" lon="8.2565117"><ele>203.0</ele><time>2026-03-29T12:43:04.004Z</time></trkpt><trkpt lat="44.9545367" lon="8.2564267"><ele>202.0</ele><time>2026-03-29T12:43:06.005Z</time></trkpt><trkpt lat="44.9545417" lon="8.2562167"><ele>201.0</ele><time>2026-03-29T12:43:09.005Z</time></trkpt><trkpt lat="44.9545733" lon="8.256085"><ele>199.25</ele><time>2026-03-29T12:43:10Z</time></trkpt><trkpt lat="44.9546133" lon="8.25595"><ele>197.5</ele><time>2026-03-29T12:43:11.011Z</time></trkpt><trkpt lat="44.9546417" lon="8.255795"><ele>195.75</ele><time>2026-03-29T12:43:12.003Z</time></trkpt><trkpt lat="44.9546717" lon="8.2556167"><ele>194.0</ele><time>2026-03-29T12:43:13.004Z</time></trkpt><trkpt lat="44.9547067" lon="8.255435"><ele>192.0</ele><time>2026-03-29T12:43:14.007Z</time></trkpt><trkpt lat="44.9547433" lon="8.2552533"><ele>190.0</ele><time>2026-03-29T12:43:15.005Z</time></trkpt><trkpt lat="44.954775" lon="8.2550633"><ele>188.0</ele><time>2026-03-29T12:43:16.002Z</time></trkpt><trkpt lat="44.9548033" lon="8.25487"><ele>186.0</ele><time>2026-03-29T12:43:17Z</time></trkpt><trkpt lat="44.9548383" lon="8.25468"><ele>186.0</ele><time>2026-03-29T12:43:18.002Z</time></trkpt><trkpt lat="44.95488" lon="8.2544967"><ele>186.0</ele><time>2026-03-29T12:43:19.002Z</time></trkpt><trkpt lat="44.9549167" lon="8.2543167"><ele>186.0</ele><time>2026-03-29T12:43:20.005Z</time></trkpt><trkpt lat="44.954955" lon="8.2541383"><ele>186.0</ele><time>2026-03-29T12:43:21.004Z</time></trkpt><trkpt lat="44.9549833" lon="8.25396"><ele>186.25</ele><time>2026-03-29T12:43:22.013Z</time></trkpt><trkpt lat="44.9550117" lon="8.2537783"><ele>186.5</ele><time>2026-03-29T12:43:23.003Z</time></trkpt><trkpt lat="44.9550317" lon="8.2535967"><ele>186.75</ele><time>2026-03-29T12:43:24.003Z</time></trkpt><trkpt lat="44.955045" lon="8.253405"><ele>187.0</ele><time>2026-03-29T12:43:25.003Z</time></trkpt><trkpt lat="44.9550483" lon="8.25321"><ele>185.5</ele><time>2026-03-29T12:43:26.008Z</time></trkpt><trkpt lat="44.9550467" lon="8.25301"><ele>184.0</ele><time>2026-03-29T12:43:27.008Z</time></trkpt><trkpt lat="44.9550317" lon="8.2528117"><ele>182.5</ele><time>2026-03-29T12:43:28.009Z</time></trkpt><trkpt lat="44.9550067" lon="8.25261"><ele>181.0</ele><time>2026-03-29T12:43:29.003Z</time></trkpt><trkpt lat="44.9549867" lon="8.2524033"><ele>176.66666666666669</ele><time>2026-03-29T12:43:30.006Z</time></trkpt><trkpt lat="44.9549717" lon="8.2521933"><ele>172.33333333333334</ele><time>2026-03-29T12:43:31.008Z</time></trkpt><trkpt lat="44.9549717" lon="8.2519683"><ele>168.0</ele><time>2026-03-29T12:43:32.008Z</time></trkpt><trkpt lat="44.9549933" lon="8.2517433"><ele>168.0</ele><time>2026-03-29T12:43:33.004Z</time></trkpt><trkpt lat="44.955015" lon="8.2515167"><ele>168.0</ele><time>2026-03-29T12:43:34.006Z</time></trkpt><trkpt lat="44.9550233" lon="8.2512933"><ele>168.0</ele><time>2026-03-29T12:43:35.005Z</time></trkpt><trkpt lat="44.95504" lon="8.2510667"><ele>169.33333333333334</ele><time>2026-03-29T12:43:36.011Z</time></trkpt><trkpt lat="44.9550517" lon="8.250845"><ele>170.66666666666669</ele><time>2026-03-29T12:43:37.012Z</time></trkpt><trkpt lat="44.9550633" lon="8.25062"><ele>172.0</ele><time>2026-03-29T12:43:38.001Z</time></trkpt><trkpt lat="44.9550733" lon="8.25038"><ele>172.0</ele><time>2026-03-29T12:43:39.007Z</time></trkpt><trkpt lat="44.95508" lon="8.2501567"><ele>172.0</ele><time>2026-03-29T12:43:40.004Z</time></trkpt><trkpt lat="44.9550967" lon="8.2499283"><ele>172.0</ele><time>2026-03-29T12:43:41.013Z</time></trkpt><trkpt lat="44.955115" lon="8.249705"><ele>168.66666666666669</ele><time>2026-03-29T12:43:42.004Z</time></trkpt><trkpt lat="44.9551367" lon="8.2494783"><ele>165.33333333333334</ele><time>2026-03-29T12:43:43.007Z</time></trkpt><trkpt lat="44.9551567" lon="8.2492533"><ele>162.0</ele><time>2026-03-29T12:43:44.006Z</time></trkpt><trkpt lat="44.95518" lon="8.24903"><ele>160.33333333333334</ele><time>2026-03-29T12:43:45.004Z</time></trkpt><trkpt lat="44.9552017" lon="8.2488117"><ele>158.66666666666669</ele><time>2026-03-29T12:43:46.006Z</time></trkpt><trkpt lat="44.9552233" lon="8.2485983"><ele>157.0</ele><time>2026-03-29T12:43:47.007Z</time></trkpt><trkpt lat="44.955245" lon="8.2483783"><ele>157.0</ele><time>2026-03-29T12:43:48.015Z</time></trkpt><trkpt lat="44.955265" lon="8.2481483"><ele>157.0</ele><time>2026-03-29T12:43:49.003Z</time></trkpt><trkpt lat="44.9552833" lon="8.2479183"><ele>157.0</ele><time>2026-03-29T12:43:50.008Z</time></trkpt><trkpt lat="44.9553" lon="8.24769"><ele>156.33333333333334</ele><time>2026-03-29T12:43:51.005Z</time></trkpt><trkpt lat="44.955315" lon="8.2474683"><ele>155.66666666666666</ele><time>2026-03-29T12:43:52.005Z</time></trkpt><trkpt lat="44.9553317" lon="8.2472517"><ele>155.0</ele><time>2026-03-29T12:43:53.006Z</time></trkpt><trkpt lat="44.9553517" lon="8.247035"><ele>155.0</ele><time>2026-03-29T12:43:54.007Z</time></trkpt><trkpt lat="44.95537" lon="8.24682"><ele>155.0</ele><time>2026-03-29T12:43:55.003Z</time></trkpt><trkpt lat="44.9553883" lon="8.2466033"><ele>155.0</ele><time>2026-03-29T12:43:56.008Z</time></trkpt><trkpt lat="44.955405" lon="8.246385"><ele>155.66666666666666</ele><time>2026-03-29T12:43:57.006Z</time></trkpt><trkpt lat="44.9554283" lon="8.24617"><ele>156.33333333333334</ele><time>2026-03-29T12:43:58.005Z</time></trkpt><trkpt lat="44.9554483" lon="8.2459567"><ele>157.0</ele><time>2026-03-29T12:43:59.005Z</time></trkpt><trkpt lat="44.95547" lon="8.2457417"><ele>156.25</ele><time>2026-03-29T12:44:00.01Z</time></trkpt><trkpt lat="44.9554933" lon="8.2455317"><ele>155.5</ele><time>2026-03-29T12:44:01.006Z</time></trkpt><trkpt lat="44.9555133" lon="8.2453217"><ele>154.75</ele><time>2026-03-29T12:44:02.001Z</time></trkpt><trkpt lat="44.9555317" lon="8.2451133"><ele>154.0</ele><time>2026-03-29T12:44:03.01Z</time></trkpt><trkpt lat="44.9555483" lon="8.2449067"><ele>153.33333333333334</ele><time>2026-03-29T12:44:04.002Z</time></trkpt><trkpt lat="44.9555633" lon="8.24469"><ele>152.66666666666666</ele><time>2026-03-29T12:44:05.005Z</time></trkpt><trkpt lat="44.9555833" lon="8.2444717"><ele>152.0</ele><time>2026-03-29T12:44:06.005Z</time></trkpt><trkpt lat="44.9556083" lon="8.2442533"><ele>152.0</ele><time>2026-03-29T12:44:07.003Z</time></trkpt><trkpt lat="44.955645" lon="8.2440333"><ele>152.0</ele><time>2026-03-29T12:44:08.007Z</time></trkpt><trkpt lat="44.9557017" lon="8.24382"><ele>152.0</ele><time>2026-03-29T12:44:09.005Z</time></trkpt><trkpt lat="44.9557767" lon="8.24361"><ele>152.0</ele><time>2026-03-29T12:44:10.002Z</time></trkpt><trkpt lat="44.9558633" lon="8.2433967"><ele>152.0</ele><time>2026-03-29T12:44:11.006Z</time></trkpt><trkpt lat="44.9559483" lon="8.24317"><ele>152.0</ele><time>2026-03-29T12:44:12.002Z</time></trkpt><trkpt lat="44.95604" lon="8.242945"><ele>151.33333333333331</ele><time>2026-03-29T12:44:13.003Z</time></trkpt><trkpt lat="44.9561317" lon="8.2427217"><ele>150.66666666666666</ele><time>2026-03-29T12:44:14.005Z</time></trkpt><trkpt lat="44.9562217" lon="8.2425"><ele>150.0</ele><time>2026-03-29T12:44:15.002Z</time></trkpt><trkpt lat="44.95631" lon="8.2422767"><ele>150.0</ele><time>2026-03-29T12:44:16.006Z</time></trkpt><trkpt lat="44.9564" lon="8.2420533"><ele>150.0</ele><time>2026-03-29T12:44:17.005Z</time></trkpt><trkpt lat="44.9564883" lon="8.24183"><ele>150.0</ele><time>2026-03-29T12:44:18.003Z</time></trkpt><trkpt lat="44.9565783" lon="8.2416083"><ele>150.0</ele><time>2026-03-29T12:44:19.002Z</time></trkpt><trkpt lat="44.9566683" lon="8.2413883"><ele>150.0</ele><time>2026-03-29T12:44:20.004Z</time></trkpt><trkpt lat="44.9567567" lon="8.24117"><ele>150.0</ele><time>2026-03-29T12:44:21.008Z</time></trkpt><trkpt lat="44.9568417" lon="8.240955"><ele>150.0</ele><time>2026-03-29T12:44:22.007Z</time></trkpt><trkpt lat="44.9569283" lon="8.2407417"><ele>150.0</ele><time>2026-03-29T12:44:23.008Z</time></trkpt><trkpt lat="44.9570133" lon="8.2405317"><ele>150.0</ele><time>2026-03-29T12:44:24.006Z</time></trkpt><trkpt lat="44.9570983" lon="8.240325"><ele>148.66666666666666</ele><time>2026-03-29T12:44:25.002Z</time></trkpt><trkpt lat="44.9571833" lon="8.2401183"><ele>147.33333333333331</ele><time>2026-03-29T12:44:26.005Z</time></trkpt><trkpt lat="44.9572667" lon="8.2399117"><ele>146.0</ele><time>2026-03-29T12:44:27.009Z</time></trkpt><trkpt lat="44.95735" lon="8.2397083"><ele>146.0</ele><time>2026-03-29T12:44:28.006Z</time></trkpt><trkpt lat="44.9574317" lon="8.2395033"><ele>146.0</ele><time>2026-03-29T12:44:29.004Z</time></trkpt><trkpt lat="44.9575133" lon="8.2392917"><ele>146.0</ele><time>2026-03-29T12:44:30.004Z</time></trkpt><trkpt lat="44.9576" lon="8.239085"><ele>148.66666666666666</ele><time>2026-03-29T12:44:31.006Z</time></trkpt><trkpt lat="44.9576833" lon="8.2388783"><ele>151.33333333333334</ele><time>2026-03-29T12:44:32.005Z</time></trkpt><trkpt lat="44.957765" lon="8.238675"><ele>154.0</ele><time>2026-03-29T12:44:33Z</time></trkpt><trkpt lat="44.9578467" lon="8.2384717"><ele>154.0</ele><time>2026-03-29T12:44:34.001Z</time></trkpt><trkpt lat="44.957925" lon="8.2382667"><ele>154.0</ele><time>2026-03-29T12:44:35.001Z</time></trkpt><trkpt lat="44.9580083" lon="8.2380617"><ele>154.0</ele><time>2026-03-29T12:44:36.005Z</time></trkpt><trkpt lat="44.9580917" lon="8.2378533"><ele>152.0</ele><time>2026-03-29T12:44:37.005Z</time></trkpt><trkpt lat="44.9581717" lon="8.23764"><ele>150.0</ele><time>2026-03-29T12:44:38.003Z</time></trkpt><trkpt lat="44.9582433" lon="8.2374217"><ele>148.0</ele><time>2026-03-29T12:44:39.008Z</time></trkpt><trkpt lat="44.9583083" lon="8.2371967"><ele>146.66666666666669</ele><time>2026-03-29T12:44:40.003Z</time></trkpt><trkpt lat="44.9583667" lon="8.23697"><ele>145.33333333333334</ele><time>2026-03-29T12:44:41.002Z</time></trkpt><trkpt lat="44.958425" lon="8.23673"><ele>144.0</ele><time>2026-03-29T12:44:42.006Z</time></trkpt><trkpt lat="44.9584833" lon="8.23648"><ele>146.66666666666666</ele><time>2026-03-29T12:44:43.004Z</time></trkpt><trkpt lat="44.95854" lon="8.2362283"><ele>149.33333333333331</ele><time>2026-03-29T12:44:44.006Z</time></trkpt><trkpt lat="44.958595" lon="8.2359717"><ele>152.0</ele><time>2026-03-29T12:44:45.004Z</time></trkpt><trkpt lat="44.95864" lon="8.2357117"><ele>151.33333333333331</ele><time>2026-03-29T12:44:46.004Z</time></trkpt><trkpt lat="44.9586717" lon="8.2354467"><ele>150.66666666666666</ele><time>2026-03-29T12:44:47.005Z</time></trkpt><trkpt lat="44.9586883" lon="8.2351817"><ele>150.0</ele><time>2026-03-29T12:44:48.008Z</time></trkpt><trkpt lat="44.9587017" lon="8.23492"><ele>149.33333333333334</ele><time>2026-03-29T12:44:49.006Z</time></trkpt><trkpt lat="44.9587117" lon="8.2346633"><ele>148.66666666666669</ele><time>2026-03-29T12:44:50.006Z</time></trkpt><trkpt lat="44.958725" lon="8.234415"><ele>148.0</ele><time>2026-03-29T12:44:51.005Z</time></trkpt><trkpt lat="44.9587417" lon="8.2341717"><ele>146.66666666666669</ele><time>2026-03-29T12:44:52.009Z</time></trkpt><trkpt lat="44.9587583" lon="8.233935"><ele>145.33333333333334</ele><time>2026-03-29T12:44:53.003Z</time></trkpt><trkpt lat="44.9587733" lon="8.2337"><ele>144.0</ele><time>2026-03-29T12:44:54.004Z</time></trkpt><trkpt lat="44.9587883" lon="8.233475"><ele>144.0</ele><time>2026-03-29T12:44:55.007Z</time></trkpt><trkpt lat="44.9588" lon="8.23325"><ele>144.0</ele><time>2026-03-29T12:44:56.005Z</time></trkpt><trkpt lat="44.9588033" lon="8.2330367"><ele>144.0</ele><time>2026-03-29T12:44:57.004Z</time></trkpt><trkpt lat="44.9588017" lon="8.2328433"><ele>144.0</ele><time>2026-03-29T12:44:58.005Z</time></trkpt><trkpt lat="44.9588033" lon="8.232675"><ele>143.0</ele><time>2026-03-29T12:44:59.007Z</time></trkpt><trkpt lat="44.958805" lon="8.2325383"><ele>142.0</ele><time>2026-03-29T12:45:00.011Z</time></trkpt><trkpt lat="44.9588067" lon="8.2324283"><ele>141.0</ele><time>2026-03-29T12:45:01.008Z</time></trkpt><trkpt lat="44.958815" lon="8.2323333"><ele>140.0</ele><time>2026-03-29T12:45:02.006Z</time></trkpt><trkpt lat="44.9588983" lon="8.2322683"><ele>139.0</ele><time>2026-03-29T12:45:04.004Z</time></trkpt><trkpt lat="44.9590717" lon="8.2323267"><ele>139.0</ele><time>2026-03-29T12:45:06.006Z</time></trkpt><trkpt lat="44.9591983" lon="8.2323917"><ele>139.0</ele><time>2026-03-29T12:45:07.004Z</time></trkpt><trkpt lat="44.9593317" lon="8.232455"><ele>139.0</ele><time>2026-03-29T12:45:08.004Z</time></trkpt><trkpt lat="44.959465" lon="8.2325133"><ele>139.0</ele><time>2026-03-29T12:45:09.007Z</time></trkpt><trkpt lat="44.959605" lon="8.2325817"><ele>138.66666666666669</ele><time>2026-03-29T12:45:10.008Z</time></trkpt><trkpt lat="44.959745" lon="8.232645"><ele>138.33333333333334</ele><time>2026-03-29T12:45:11.005Z</time></trkpt><trkpt lat="44.9598917" lon="8.2327083"><ele>138.0</ele><time>2026-03-29T12:45:12.004Z</time></trkpt><trkpt lat="44.9600433" lon="8.232775"><ele>137.0</ele><time>2026-03-29T12:45:13.01Z</time></trkpt><trkpt lat="44.9601933" lon="8.232845"><ele>136.0</ele><time>2026-03-29T12:45:14.006Z</time></trkpt><trkpt lat="44.9603533" lon="8.2329167"><ele>135.0</ele><time>2026-03-29T12:45:15.007Z</time></trkpt><trkpt lat="44.9605133" lon="8.2329883"><ele>135.0</ele><time>2026-03-29T12:45:16.003Z</time></trkpt><trkpt lat="44.9606567" lon="8.2330483"><ele>135.0</ele><time>2026-03-29T12:45:17.004Z</time></trkpt><trkpt lat="44.9607967" lon="8.2331117"><ele>135.0</ele><time>2026-03-29T12:45:18.001Z</time></trkpt><trkpt lat="44.9609283" lon="8.2331833"><ele>135.0</ele><time>2026-03-29T12:45:19.001Z</time></trkpt><trkpt lat="44.9610533" lon="8.2332633"><ele>137.25</ele><time>2026-03-29T12:45:20.002Z</time></trkpt><trkpt lat="44.96117" lon="8.233355"><ele>139.5</ele><time>2026-03-29T12:45:21.004Z</time></trkpt><trkpt lat="44.96128" lon="8.233475"><ele>141.75</ele><time>2026-03-29T12:45:22.003Z</time></trkpt><trkpt lat="44.96137" lon="8.233595"><ele>144.0</ele><time>2026-03-29T12:45:23.002Z</time></trkpt><trkpt lat="44.961465" lon="8.2337233"><ele>144.0</ele><time>2026-03-29T12:45:24.004Z</time></trkpt><trkpt lat="44.9615683" lon="8.2338483"><ele>144.0</ele><time>2026-03-29T12:45:25.001Z</time></trkpt><trkpt lat="44.961685" lon="8.2339833"><ele>144.0</ele><time>2026-03-29T12:45:26.013Z</time></trkpt><trkpt lat="44.961815" lon="8.2341033"><ele>144.0</ele><time>2026-03-29T12:45:27.002Z</time></trkpt><trkpt lat="44.9619467" lon="8.234205"><ele>146.66666666666666</ele><time>2026-03-29T12:45:28.003Z</time></trkpt><trkpt lat="44.9620817" lon="8.2343067"><ele>149.33333333333331</ele><time>2026-03-29T12:45:29.006Z</time></trkpt><trkpt lat="44.962215" lon="8.234405"><ele>152.0</ele><time>2026-03-29T12:45:30.002Z</time></trkpt><trkpt lat="44.9623517" lon="8.2345083"><ele>152.0</ele><time>2026-03-29T12:45:31.005Z</time></trkpt><trkpt lat="44.9624883" lon="8.23462"><ele>152.0</ele><time>2026-03-29T12:45:32.001Z</time></trkpt><trkpt lat="44.962625" lon="8.23473"><ele>152.0</ele><time>2026-03-29T12:45:33.001Z</time></trkpt><trkpt lat="44.9627717" lon="8.2348433"><ele>150.33333333333331</ele><time>2026-03-29T12:45:34.003Z</time></trkpt><trkpt lat="44.9629217" lon="8.2349667"><ele>148.66666666666666</ele><time>2026-03-29T12:45:35Z</time></trkpt><trkpt lat="44.9630683" lon="8.23508"><ele>147.0</ele><time>2026-03-29T12:45:36.004Z</time></trkpt><trkpt lat="44.963215" lon="8.2351967"><ele>147.0</ele><time>2026-03-29T12:45:37.006Z</time></trkpt><trkpt lat="44.96336" lon="8.2353133"><ele>147.0</ele><time>2026-03-29T12:45:38.007Z</time></trkpt><trkpt lat="44.9635" lon="8.235425"><ele>147.0</ele><time>2026-03-29T12:45:39.005Z</time></trkpt><trkpt lat="44.9636367" lon="8.2355367"><ele>147.33333333333334</ele><time>2026-03-29T12:45:40.004Z</time></trkpt><trkpt lat="44.9637733" lon="8.235645"><ele>147.66666666666669</ele><time>2026-03-29T12:45:41.003Z</time></trkpt><trkpt lat="44.9639067" lon="8.2357467"><ele>148.0</ele><time>2026-03-29T12:45:42Z</time></trkpt><trkpt lat="44.9640417" lon="8.2358317"><ele>148.0</ele><time>2026-03-29T12:45:43.003Z</time></trkpt><trkpt lat="44.9641833" lon="8.2359"><ele>148.0</ele><time>2026-03-29T12:45:44Z</time></trkpt><trkpt lat="44.9643283" lon="8.235955"><ele>148.0</ele><time>2026-03-29T12:45:45.007Z</time></trkpt><trkpt lat="44.9644767" lon="8.2360083"><ele>144.66666666666669</ele><time>2026-03-29T12:45:46.006Z</time></trkpt><trkpt lat="44.96462" lon="8.2360917"><ele>141.33333333333334</ele><time>2026-03-29T12:45:47.005Z</time></trkpt><trkpt lat="44.96475" lon="8.2362"><ele>138.0</ele><time>2026-03-29T12:45:48.005Z</time></trkpt><trkpt lat="44.96488" lon="8.23632"><ele>138.0</ele><time>2026-03-29T12:45:49.008Z</time></trkpt><trkpt lat="44.9650217" lon="8.23643"><ele>138.0</ele><time>2026-03-29T12:45:50.004Z</time></trkpt><trkpt lat="44.96517" lon="8.2365267"><ele>138.0</ele><time>2026-03-29T12:45:51.007Z</time></trkpt><trkpt lat="44.9653217" lon="8.2366133"><ele>137.0</ele><time>2026-03-29T12:45:52.008Z</time></trkpt><trkpt lat="44.9654767" lon="8.2366983"><ele>136.0</ele><time>2026-03-29T12:45:53.002Z</time></trkpt><trkpt lat="44.9656233" lon="8.2367783"><ele>135.0</ele><time>2026-03-29T12:45:54.004Z</time></trkpt><trkpt lat="44.9657633" lon="8.2368367"><ele>135.0</ele><time>2026-03-29T12:45:55.01Z</time></trkpt><trkpt lat="44.965895" lon="8.2368967"><ele>135.0</ele><time>2026-03-29T12:45:56.009Z</time></trkpt><trkpt lat="44.9660067" lon="8.236945"><ele>135.0</ele><time>2026-03-29T12:45:57.005Z</time></trkpt><trkpt lat="44.9660967" lon="8.2369867"><ele>135.0</ele><time>2026-03-29T12:45:58.01Z</time></trkpt><trkpt lat="44.9661733" lon="8.23702"><ele>135.0</ele><time>2026-03-29T12:45:59.004Z</time></trkpt><trkpt lat="44.9662517" lon="8.237045"><ele>135.0</ele><time>2026-03-29T12:46:00.013Z</time></trkpt><trkpt lat="44.966345" lon="8.2370533"><ele>135.0</ele><time>2026-03-29T12:46:01.007Z</time></trkpt><trkpt lat="44.9664433" lon="8.2370583"><ele>135.0</ele><time>2026-03-29T12:46:02.002Z</time></trkpt><trkpt lat="44.96659" lon="8.2370517"><ele>135.0</ele><time>2026-03-29T12:46:03.006Z</time></trkpt><trkpt lat="44.9667317" lon="8.2370417"><ele>135.0</ele><time>2026-03-29T12:46:04.006Z</time></trkpt><trkpt lat="44.9668733" lon="8.23702"><ele>135.0</ele><time>2026-03-29T12:46:05.004Z</time></trkpt><trkpt lat="44.967025" lon="8.236985"><ele>135.0</ele><time>2026-03-29T12:46:06.003Z</time></trkpt><trkpt lat="44.9671633" lon="8.2369467"><ele>135.0</ele><time>2026-03-29T12:46:07.008Z</time></trkpt><trkpt lat="44.9673083" lon="8.2369167"><ele>135.0</ele><time>2026-03-29T12:46:08.011Z</time></trkpt><trkpt lat="44.9674483" lon="8.2368983"><ele>135.0</ele><time>2026-03-29T12:46:09.005Z</time></trkpt><trkpt lat="44.9675917" lon="8.2368883"><ele>135.0</ele><time>2026-03-29T12:46:10.005Z</time></trkpt><trkpt lat="44.9677533" lon="8.2369017"><ele>135.0</ele><time>2026-03-29T12:46:11.008Z</time></trkpt><trkpt lat="44.967905" lon="8.2369317"><ele>134.33333333333334</ele><time>2026-03-29T12:46:12.003Z</time></trkpt><trkpt lat="44.9680633" lon="8.236965"><ele>133.66666666666669</ele><time>2026-03-29T12:46:13.011Z</time></trkpt><trkpt lat="44.968225" lon="8.2369833"><ele>133.0</ele><time>2026-03-29T12:46:14.006Z</time></trkpt><trkpt lat="44.96839" lon="8.2369783"><ele>133.0</ele><time>2026-03-29T12:46:15.007Z</time></trkpt><trkpt lat="44.9685583" lon="8.23698"><ele>133.0</ele><time>2026-03-29T12:46:16.008Z</time></trkpt><trkpt lat="44.968715" lon="8.2369833"><ele>133.0</ele><time>2026-03-29T12:46:17.007Z</time></trkpt><trkpt lat="44.9688733" lon="8.2369983"><ele>133.0</ele><time>2026-03-29T12:46:18.007Z</time></trkpt><trkpt lat="44.9690383" lon="8.2370183"><ele>133.0</ele><time>2026-03-29T12:46:19.007Z</time></trkpt><trkpt lat="44.9692" lon="8.2370467"><ele>133.0</ele><time>2026-03-29T12:46:20.006Z</time></trkpt><trkpt lat="44.9693733" lon="8.237095"><ele>134.66666666666669</ele><time>2026-03-29T12:46:21.009Z</time></trkpt><trkpt lat="44.96954" lon="8.2371467"><ele>136.33333333333334</ele><time>2026-03-29T12:46:22Z</time></trkpt><trkpt lat="44.96971" lon="8.237205"><ele>138.0</ele><time>2026-03-29T12:46:23.007Z</time></trkpt><trkpt lat="44.96987" lon="8.2372617"><ele>140.0</ele><time>2026-03-29T12:46:24.004Z</time></trkpt><trkpt lat="44.970035" lon="8.23733"><ele>142.0</ele><time>2026-03-29T12:46:25.004Z</time></trkpt><trkpt lat="44.9701933" lon="8.2373967"><ele>144.0</ele><time>2026-03-29T12:46:26.004Z</time></trkpt><trkpt lat="44.9703483" lon="8.23747"><ele>144.0</ele><time>2026-03-29T12:46:27.001Z</time></trkpt><trkpt lat="44.9705033" lon="8.2375483"><ele>144.0</ele><time>2026-03-29T12:46:28.004Z</time></trkpt><trkpt lat="44.9706567" lon="8.2376283"><ele>144.0</ele><time>2026-03-29T12:46:29.007Z</time></trkpt><trkpt lat="44.9707967" lon="8.2377"><ele>145.0</ele><time>2026-03-29T12:46:30.01Z</time></trkpt><trkpt lat="44.9709367" lon="8.23777"><ele>146.0</ele><time>2026-03-29T12:46:31.006Z</time></trkpt><trkpt lat="44.971085" lon="8.2378333"><ele>147.0</ele><time>2026-03-29T12:46:32.006Z</time></trkpt><trkpt lat="44.9712417" lon="8.237895"><ele>147.0</ele><time>2026-03-29T12:46:33.007Z</time></trkpt><trkpt lat="44.9714033" lon="8.2379367"><ele>147.0</ele><time>2026-03-29T12:46:34.007Z</time></trkpt><trkpt lat="44.971555" lon="8.2379783"><ele>147.0</ele><time>2026-03-29T12:46:35.002Z</time></trkpt><trkpt lat="44.9717033" lon="8.2380083"><ele>147.25</ele><time>2026-03-29T12:46:36.005Z</time></trkpt><trkpt lat="44.9718433" lon="8.23804"><ele>147.5</ele><time>2026-03-29T12:46:37.004Z</time></trkpt><trkpt lat="44.9719833" lon="8.2380567"><ele>147.75</ele><time>2026-03-29T12:46:38Z</time></trkpt><trkpt lat="44.9721317" lon="8.238055"><ele>148.0</ele><time>2026-03-29T12:46:39.007Z</time></trkpt><trkpt lat="44.9722833" lon="8.238045"><ele>148.0</ele><time>2026-03-29T12:46:40.003Z</time></trkpt><trkpt lat="44.97243" lon="8.238005"><ele>148.0</ele><time>2026-03-29T12:46:41.002Z</time></trkpt><trkpt lat="44.9725767" lon="8.2379633"><ele>148.0</ele><time>2026-03-29T12:46:42.007Z</time></trkpt><trkpt lat="44.9727217" lon="8.2379133"><ele>148.0</ele><time>2026-03-29T12:46:43.003Z</time></trkpt><trkpt lat="44.9728617" lon="8.2378717"><ele>147.75</ele><time>2026-03-29T12:46:44.001Z</time></trkpt><trkpt lat="44.9729983" lon="8.2378317"><ele>147.5</ele><time>2026-03-29T12:46:45.002Z</time></trkpt><trkpt lat="44.973125" lon="8.2378"><ele>147.25</ele><time>2026-03-29T12:46:46.003Z</time></trkpt><trkpt lat="44.9732517" lon="8.2377783"><ele>147.0</ele><time>2026-03-29T12:46:47.003Z</time></trkpt><trkpt lat="44.9733733" lon="8.23776"><ele>147.0</ele><time>2026-03-29T12:46:48.002Z</time></trkpt><trkpt lat="44.97349" lon="8.2377517"><ele>147.0</ele><time>2026-03-29T12:46:49.005Z</time></trkpt><trkpt lat="44.9736" lon="8.2377517"><ele>147.0</ele><time>2026-03-29T12:46:50.002Z</time></trkpt><trkpt lat="44.9737067" lon="8.2377667"><ele>147.0</ele><time>2026-03-29T12:46:51.009Z</time></trkpt><trkpt lat="44.9738117" lon="8.2378017"><ele>147.0</ele><time>2026-03-29T12:46:52.005Z</time></trkpt><trkpt lat="44.9739233" lon="8.2378417"><ele>147.0</ele><time>2026-03-29T12:46:53.005Z</time></trkpt><trkpt lat="44.9740317" lon="8.2379183"><ele>147.0</ele><time>2026-03-29T12:46:54.004Z</time></trkpt><trkpt lat="44.974145" lon="8.2380167"><ele>147.0</ele><time>2026-03-29T12:46:55.009Z</time></trkpt><trkpt lat="44.97427" lon="8.2381267"><ele>147.0</ele><time>2026-03-29T12:46:56.002Z</time></trkpt><trkpt lat="44.9744117" lon="8.2382167"><ele>149.0</ele><time>2026-03-29T12:46:57.008Z</time></trkpt><trkpt lat="44.9745667" lon="8.2382817"><ele>151.0</ele><time>2026-03-29T12:46:58.005Z</time></trkpt><trkpt lat="44.9747133" lon="8.238355"><ele>153.0</ele><time>2026-03-29T12:46:59.002Z</time></trkpt><trkpt lat="44.974855" lon="8.2384267"><ele>153.0</ele><time>2026-03-29T12:47:00.01Z</time></trkpt><trkpt lat="44.9750033" lon="8.2384667"><ele>153.0</ele><time>2026-03-29T12:47:01.007Z</time></trkpt><trkpt lat="44.975145" lon="8.2384683"><ele>153.0</ele><time>2026-03-29T12:47:02.003Z</time></trkpt><trkpt lat="44.9752917" lon="8.2384617"><ele>153.0</ele><time>2026-03-29T12:47:03.007Z</time></trkpt><trkpt lat="44.9754383" lon="8.2384683"><ele>154.5</ele><time>2026-03-29T12:47:04.009Z</time></trkpt><trkpt lat="44.9755783" lon="8.2384833"><ele>156.0</ele><time>2026-03-29T12:47:05.007Z</time></trkpt><trkpt lat="44.975715" lon="8.2384967"><ele>157.5</ele><time>2026-03-29T12:47:06.01Z</time></trkpt><trkpt lat="44.9758517" lon="8.2385217"><ele>159.0</ele><time>2026-03-29T12:47:07.007Z</time></trkpt><trkpt lat="44.9759883" lon="8.2385383"><ele>159.75</ele><time>2026-03-29T12:47:08.007Z</time></trkpt><trkpt lat="44.976125" lon="8.2385617"><ele>160.5</ele><time>2026-03-29T12:47:09.007Z</time></trkpt><trkpt lat="44.9762667" lon="8.2385833"><ele>161.25</ele><time>2026-03-29T12:47:10.006Z</time></trkpt><trkpt lat="44.9764033" lon="8.2386017"><ele>162.0</ele><time>2026-03-29T12:47:11.003Z</time></trkpt><trkpt lat="44.9765317" lon="8.2386183"><ele>162.0</ele><time>2026-03-29T12:47:12.006Z</time></trkpt><trkpt lat="44.9766583" lon="8.2386417"><ele>162.0</ele><time>2026-03-29T12:47:13.001Z</time></trkpt><trkpt lat="44.9767867" lon="8.2386633"><ele>162.0</ele><time>2026-03-29T12:47:14.001Z</time></trkpt><trkpt lat="44.976915" lon="8.2386833"><ele>162.0</ele><time>2026-03-29T12:47:15.004Z</time></trkpt><trkpt lat="44.977045" lon="8.2387017"><ele>162.0</ele><time>2026-03-29T12:47:16.008Z</time></trkpt><trkpt lat="44.9771767" lon="8.23872"><ele>162.0</ele><time>2026-03-29T12:47:17.005Z</time></trkpt><trkpt lat="44.977305" lon="8.2387433"><ele>162.0</ele><time>2026-03-29T12:47:18.003Z</time></trkpt><trkpt lat="44.9774317" lon="8.238765"><ele>162.0</ele><time>2026-03-29T12:47:19.003Z</time></trkpt><trkpt lat="44.97755" lon="8.23884"><ele>161.5</ele><time>2026-03-29T12:47:20.007Z</time></trkpt><trkpt lat="44.9776717" lon="8.2389"><ele>161.0</ele><time>2026-03-29T12:47:21.007Z</time></trkpt><trkpt lat="44.9778033" lon="8.238945"><ele>160.5</ele><time>2026-03-29T12:47:22.011Z</time></trkpt><trkpt lat="44.9779367" lon="8.23899"><ele>160.0</ele><time>2026-03-29T12:47:23.002Z</time></trkpt><trkpt lat="44.9780683" lon="8.23904"><ele>161.75</ele><time>2026-03-29T12:47:24.006Z</time></trkpt><trkpt lat="44.978205" lon="8.2390883"><ele>163.5</ele><time>2026-03-29T12:47:25.002Z</time></trkpt><trkpt lat="44.978345" lon="8.239135"><ele>165.25</ele><time>2026-03-29T12:47:26.008Z</time></trkpt><trkpt lat="44.9784883" lon="8.2391833"><ele>167.0</ele><time>2026-03-29T12:47:27.003Z</time></trkpt><trkpt lat="44.978635" lon="8.2392317"><ele>167.0</ele><time>2026-03-29T12:47:28.004Z</time></trkpt><trkpt lat="44.978785" lon="8.2392867"><ele>167.0</ele><time>2026-03-29T12:47:29.005Z</time></trkpt><trkpt lat="44.978935" lon="8.239345"><ele>167.0</ele><time>2026-03-29T12:47:30.008Z</time></trkpt><trkpt lat="44.9790833" lon="8.2394017"><ele>166.0</ele><time>2026-03-29T12:47:31.003Z</time></trkpt><trkpt lat="44.97923" lon="8.2394617"><ele>165.0</ele><time>2026-03-29T12:47:32.005Z</time></trkpt><trkpt lat="44.979375" lon="8.2395183"><ele>164.0</ele><time>2026-03-29T12:47:33.005Z</time></trkpt><trkpt lat="44.9795183" lon="8.2395617"><ele>164.0</ele><time>2026-03-29T12:47:34.004Z</time></trkpt><trkpt lat="44.9796733" lon="8.2396"><ele>164.0</ele><time>2026-03-29T12:47:35.004Z</time></trkpt><trkpt lat="44.9798267" lon="8.2396333"><ele>164.0</ele><time>2026-03-29T12:47:36.002Z</time></trkpt><trkpt lat="44.9799767" lon="8.2396717"><ele>165.33333333333331</ele><time>2026-03-29T12:47:37.006Z</time></trkpt><trkpt lat="44.98013" lon="8.2397317"><ele>166.66666666666666</ele><time>2026-03-29T12:47:38.005Z</time></trkpt><trkpt lat="44.980265" lon="8.2397883"><ele>168.0</ele><time>2026-03-29T12:47:39.003Z</time></trkpt><trkpt lat="44.98041" lon="8.2398467"><ele>169.5</ele><time>2026-03-29T12:47:40.009Z</time></trkpt><trkpt lat="44.9805517" lon="8.239895"><ele>171.0</ele><time>2026-03-29T12:47:41.005Z</time></trkpt><trkpt lat="44.9806983" lon="8.2399417"><ele>172.5</ele><time>2026-03-29T12:47:42.006Z</time></trkpt><trkpt lat="44.9808467" lon="8.2399883"><ele>174.0</ele><time>2026-03-29T12:47:43.006Z</time></trkpt><trkpt lat="44.9809967" lon="8.2400333"><ele>177.0</ele><time>2026-03-29T12:47:44.002Z</time></trkpt><trkpt lat="44.9811517" lon="8.2400717"><ele>180.0</ele><time>2026-03-29T12:47:45.004Z</time></trkpt><trkpt lat="44.9813" lon="8.2401133"><ele>183.0</ele><time>2026-03-29T12:47:46.013Z</time></trkpt><trkpt lat="44.981445" lon="8.2401417"><ele>183.0</ele><time>2026-03-29T12:47:47.004Z</time></trkpt><trkpt lat="44.98159" lon="8.2401417"><ele>183.0</ele><time>2026-03-29T12:47:48.009Z</time></trkpt><trkpt lat="44.9817317" lon="8.2401333"><ele>183.0</ele><time>2026-03-29T12:47:49.003Z</time></trkpt><trkpt lat="44.9818717" lon="8.2401217"><ele>183.0</ele><time>2026-03-29T12:47:50.013Z</time></trkpt><trkpt lat="44.9820117" lon="8.2400983"><ele>183.75</ele><time>2026-03-29T12:47:51Z</time></trkpt><trkpt lat="44.9821433" lon="8.2400733"><ele>184.5</ele><time>2026-03-29T12:47:52.004Z</time></trkpt><trkpt lat="44.982275" lon="8.2400533"><ele>185.25</ele><time>2026-03-29T12:47:53.006Z</time></trkpt><trkpt lat="44.9824167" lon="8.2400567"><ele>186.0</ele><time>2026-03-29T12:47:54.003Z</time></trkpt><trkpt lat="44.9825567" lon="8.24007"><ele>187.5</ele><time>2026-03-29T12:47:55.002Z</time></trkpt><trkpt lat="44.982695" lon="8.24009"><ele>189.0</ele><time>2026-03-29T12:47:56.004Z</time></trkpt><trkpt lat="44.9828333" lon="8.24011"><ele>190.5</ele><time>2026-03-29T12:47:57.005Z</time></trkpt><trkpt lat="44.9829733" lon="8.2401167"><ele>192.0</ele><time>2026-03-29T12:47:58.003Z</time></trkpt><trkpt lat="44.98311" lon="8.2401333"><ele>192.0</ele><time>2026-03-29T12:47:59.005Z</time></trkpt><trkpt lat="44.98324" lon="8.240145"><ele>192.0</ele><time>2026-03-29T12:48:00.009Z</time></trkpt><trkpt lat="44.9833567" lon="8.24017"><ele>192.0</ele><time>2026-03-29T12:48:01.006Z</time></trkpt><trkpt lat="44.98348" lon="8.24022"><ele>192.0</ele><time>2026-03-29T12:48:02.007Z</time></trkpt><trkpt lat="44.983605" lon="8.2402867"><ele>192.75</ele><time>2026-03-29T12:48:03.003Z</time></trkpt><trkpt lat="44.983735" lon="8.24037"><ele>193.5</ele><time>2026-03-29T12:48:04.007Z</time></trkpt><trkpt lat="44.9838667" lon="8.2404617"><ele>194.25</ele><time>2026-03-29T12:48:05.005Z</time></trkpt><trkpt lat="44.9839933" lon="8.2405733"><ele>195.0</ele><time>2026-03-29T12:48:06.006Z</time></trkpt><trkpt lat="44.9841167" lon="8.2406667"><ele>197.0</ele><time>2026-03-29T12:48:07.009Z</time></trkpt><trkpt lat="44.9842483" lon="8.24074"><ele>199.0</ele><time>2026-03-29T12:48:08.003Z</time></trkpt><trkpt lat="44.9843833" lon="8.2407867"><ele>201.0</ele><time>2026-03-29T12:48:09.006Z</time></trkpt><trkpt lat="44.984525" lon="8.2408133"><ele>203.0</ele><time>2026-03-29T12:48:10.006Z</time></trkpt><trkpt lat="44.98467" lon="8.2408233"><ele>203.0</ele><time>2026-03-29T12:48:11.009Z</time></trkpt><trkpt lat="44.9848133" lon="8.2408467"><ele>203.0</ele><time>2026-03-29T12:48:12.008Z</time></trkpt><trkpt lat="44.984955" lon="8.240865"><ele>203.0</ele><time>2026-03-29T12:48:13.003Z</time></trkpt><trkpt lat="44.9850967" lon="8.2408967"><ele>203.0</ele><time>2026-03-29T12:48:14.001Z</time></trkpt><trkpt lat="44.9852367" lon="8.2409233"><ele>202.25</ele><time>2026-03-29T12:48:15.003Z</time></trkpt><trkpt lat="44.985375" lon="8.2409533"><ele>201.5</ele><time>2026-03-29T12:48:16.011Z</time></trkpt><trkpt lat="44.9855083" lon="8.2409817"><ele>200.75</ele><time>2026-03-29T12:48:17.003Z</time></trkpt><trkpt lat="44.9856367" lon="8.24102"><ele>200.0</ele><time>2026-03-29T12:48:18.006Z</time></trkpt><trkpt lat="44.9857633" lon="8.2410717"><ele>198.25</ele><time>2026-03-29T12:48:19.004Z</time></trkpt><trkpt lat="44.9858867" lon="8.24113"><ele>196.5</ele><time>2026-03-29T12:48:20.006Z</time></trkpt><trkpt lat="44.9860083" lon="8.2411933"><ele>194.75</ele><time>2026-03-29T12:48:21.009Z</time></trkpt><trkpt lat="44.9861267" lon="8.2412667"><ele>193.0</ele><time>2026-03-29T12:48:22.006Z</time></trkpt><trkpt lat="44.9862367" lon="8.2413433"><ele>193.0</ele><time>2026-03-29T12:48:23.002Z</time></trkpt><trkpt lat="44.9863433" lon="8.2414217"><ele>193.0</ele><time>2026-03-29T12:48:24.01Z</time></trkpt><trkpt lat="44.98645" lon="8.2414933"><ele>193.0</ele><time>2026-03-29T12:48:25.01Z</time></trkpt><trkpt lat="44.9865567" lon="8.2415717"><ele>193.0</ele><time>2026-03-29T12:48:26.007Z</time></trkpt><trkpt lat="44.986665" lon="8.2416417"><ele>196.25</ele><time>2026-03-29T12:48:27.011Z</time></trkpt><trkpt lat="44.98678" lon="8.241705"><ele>199.5</ele><time>2026-03-29T12:48:28.006Z</time></trkpt><trkpt lat="44.986905" lon="8.2417567"><ele>202.75</ele><time>2026-03-29T12:48:29.009Z</time></trkpt><trkpt lat="44.9870367" lon="8.2417767"><ele>206.0</ele><time>2026-03-29T12:48:30.005Z</time></trkpt><trkpt lat="44.9871683" lon="8.2417833"><ele>206.0</ele><time>2026-03-29T12:48:31.005Z</time></trkpt><trkpt lat="44.9873017" lon="8.2417933"><ele>206.0</ele><time>2026-03-29T12:48:32Z</time></trkpt><trkpt lat="44.9874317" lon="8.2417917"><ele>206.0</ele><time>2026-03-29T12:48:33.01Z</time></trkpt><trkpt lat="44.9875617" lon="8.2417967"><ele>206.0</ele><time>2026-03-29T12:48:34.007Z</time></trkpt><trkpt lat="44.9876917" lon="8.24181"><ele>206.60000000000002</ele><time>2026-03-29T12:48:35.006Z</time></trkpt><trkpt lat="44.9878133" lon="8.2418233"><ele>207.2</ele><time>2026-03-29T12:48:36.008Z</time></trkpt><trkpt lat="44.9879267" lon="8.24185"><ele>207.8</ele><time>2026-03-29T12:48:37.006Z</time></trkpt><trkpt lat="44.9880267" lon="8.241885"><ele>208.39999999999998</ele><time>2026-03-29T12:48:38.006Z</time></trkpt><trkpt lat="44.9881167" lon="8.2419267"><ele>209.0</ele><time>2026-03-29T12:48:39.005Z</time></trkpt><trkpt lat="44.9882033" lon="8.24199"><ele>209.0</ele><time>2026-03-29T12:48:40.007Z</time></trkpt><trkpt lat="44.9882833" lon="8.2420667"><ele>209.0</ele><time>2026-03-29T12:48:41.008Z</time></trkpt><trkpt lat="44.9883633" lon="8.2421583"><ele>209.0</ele><time>2026-03-29T12:48:42.006Z</time></trkpt><trkpt lat="44.9884433" lon="8.2422583"><ele>209.0</ele><time>2026-03-29T12:48:43.002Z</time></trkpt><trkpt lat="44.9885233" lon="8.242375"><ele>209.0</ele><time>2026-03-29T12:48:44.004Z</time></trkpt><trkpt lat="44.9885933" lon="8.2424917"><ele>208.25</ele><time>2026-03-29T12:48:45.006Z</time></trkpt><trkpt lat="44.98866" lon="8.24262"><ele>207.5</ele><time>2026-03-29T12:48:46.008Z</time></trkpt><trkpt lat="44.98873" lon="8.2427533"><ele>206.75</ele><time>2026-03-29T12:48:47.003Z</time></trkpt><trkpt lat="44.9888" lon="8.2428867"><ele>206.0</ele><time>2026-03-29T12:48:48.007Z</time></trkpt><trkpt lat="44.9888667" lon="8.24302"><ele>207.25</ele><time>2026-03-29T12:48:49.005Z</time></trkpt><trkpt lat="44.988935" lon="8.2431517"><ele>208.5</ele><time>2026-03-29T12:48:50.005Z</time></trkpt><trkpt lat="44.989005" lon="8.2432817"><ele>209.75</ele><time>2026-03-29T12:48:51.007Z</time></trkpt><trkpt lat="44.98908" lon="8.24341"><ele>211.0</ele><time>2026-03-29T12:48:52.006Z</time></trkpt><trkpt lat="44.9891567" lon="8.2435417"><ele>211.0</ele><time>2026-03-29T12:48:53.004Z</time></trkpt><trkpt lat="44.989235" lon="8.24367"><ele>211.0</ele><time>2026-03-29T12:48:54.007Z</time></trkpt><trkpt lat="44.9893217" lon="8.2437967"><ele>211.0</ele><time>2026-03-29T12:48:55.006Z</time></trkpt><trkpt lat="44.9894117" lon="8.2439167"><ele>211.0</ele><time>2026-03-29T12:48:56.004Z</time></trkpt><trkpt lat="44.989505" lon="8.244025"><ele>211.0</ele><time>2026-03-29T12:48:57.009Z</time></trkpt><trkpt lat="44.9896017" lon="8.2441117"><ele>211.0</ele><time>2026-03-29T12:48:58.008Z</time></trkpt><trkpt lat="44.9897017" lon="8.24419"><ele>211.0</ele><time>2026-03-29T12:48:59.006Z</time></trkpt><trkpt lat="44.9898" lon="8.244255"><ele>211.0</ele><time>2026-03-29T12:49:00.007Z</time></trkpt><trkpt lat="44.9898983" lon="8.24431"><ele>211.0</ele><time>2026-03-29T12:49:01.003Z</time></trkpt><trkpt lat="44.989995" lon="8.2443533"><ele>211.20000000000002</ele><time>2026-03-29T12:49:02.003Z</time></trkpt><trkpt lat="44.9900917" lon="8.24439"><ele>211.4</ele><time>2026-03-29T12:49:03.007Z</time></trkpt><trkpt lat="44.9901867" lon="8.2444217"><ele>211.6</ele><time>2026-03-29T12:49:04.007Z</time></trkpt><trkpt lat="44.9902767" lon="8.24445"><ele>211.8</ele><time>2026-03-29T12:49:05.01Z</time></trkpt><trkpt lat="44.99036" lon="8.2444767"><ele>212.0</ele><time>2026-03-29T12:49:06.004Z</time></trkpt><trkpt lat="44.9904333" lon="8.2445017"><ele>212.0</ele><time>2026-03-29T12:49:07.007Z</time></trkpt><trkpt lat="44.9905" lon="8.2445217"><ele>212.0</ele><time>2026-03-29T12:49:08.004Z</time></trkpt><trkpt lat="44.9905683" lon="8.244535"><ele>212.0</ele><time>2026-03-29T12:49:09.006Z</time></trkpt><trkpt lat="44.99064" lon="8.2445433"><ele>212.0</ele><time>2026-03-29T12:49:10.004Z</time></trkpt><trkpt lat="44.99071" lon="8.2445467"><ele>212.0</ele><time>2026-03-29T12:49:11.005Z</time></trkpt><trkpt lat="44.9907783" lon="8.2445467"><ele>212.0</ele><time>2026-03-29T12:49:12.009Z</time></trkpt><trkpt lat="44.9908533" lon="8.2445433"><ele>212.0</ele><time>2026-03-29T12:49:13.015Z</time></trkpt><trkpt lat="44.9909283" lon="8.244545"><ele>213.0</ele><time>2026-03-29T12:49:14.004Z</time></trkpt><trkpt lat="44.9910117" lon="8.2445383"><ele>214.0</ele><time>2026-03-29T12:49:15.008Z</time></trkpt><trkpt lat="44.9911017" lon="8.2445233"><ele>215.0</ele><time>2026-03-29T12:49:16.004Z</time></trkpt><trkpt lat="44.991195" lon="8.2444933"><ele>216.0</ele><time>2026-03-29T12:49:17.007Z</time></trkpt><trkpt lat="44.9912883" lon="8.2444583"><ele>217.0</ele><time>2026-03-29T12:49:18.004Z</time></trkpt><trkpt lat="44.991375" lon="8.24441"><ele>217.0</ele><time>2026-03-29T12:49:19.009Z</time></trkpt><trkpt lat="44.991465" lon="8.24436"><ele>217.0</ele><time>2026-03-29T12:49:20.003Z</time></trkpt><trkpt lat="44.9915583" lon="8.2443133"><ele>217.0</ele><time>2026-03-29T12:49:21.005Z</time></trkpt><trkpt lat="44.99165" lon="8.2442783"><ele>217.0</ele><time>2026-03-29T12:49:22.002Z</time></trkpt><trkpt lat="44.9917517" lon="8.24427"><ele>217.0</ele><time>2026-03-29T12:49:23.004Z</time></trkpt><trkpt lat="44.9918567" lon="8.244295"><ele>218.75</ele><time>2026-03-29T12:49:24.003Z</time></trkpt><trkpt lat="44.9919583" lon="8.2443383"><ele>220.5</ele><time>2026-03-29T12:49:25.006Z</time></trkpt><trkpt lat="44.99206" lon="8.2444"><ele>222.25</ele><time>2026-03-29T12:49:26.005Z</time></trkpt><trkpt lat="44.992165" lon="8.2444683"><ele>224.0</ele><time>2026-03-29T12:49:27.004Z</time></trkpt><trkpt lat="44.992275" lon="8.2445417"><ele>224.0</ele><time>2026-03-29T12:49:28.004Z</time></trkpt><trkpt lat="44.9923867" lon="8.2446133"><ele>224.0</ele><time>2026-03-29T12:49:29.002Z</time></trkpt><trkpt lat="44.9925017" lon="8.2446883"><ele>224.0</ele><time>2026-03-29T12:49:30.005Z</time></trkpt><trkpt lat="44.9926117" lon="8.2447617"><ele>224.0</ele><time>2026-03-29T12:49:31.007Z</time></trkpt><trkpt lat="44.99272" lon="8.244835"><ele>222.25</ele><time>2026-03-29T12:49:32.005Z</time></trkpt><trkpt lat="44.992825" lon="8.2449083"><ele>220.5</ele><time>2026-03-29T12:49:33.005Z</time></trkpt><trkpt lat="44.9929267" lon="8.2449933"><ele>218.75</ele><time>2026-03-29T12:49:34.01Z</time></trkpt><trkpt lat="44.9930183" lon="8.2450983"><ele>217.0</ele><time>2026-03-29T12:49:35.004Z</time></trkpt><trkpt lat="44.993105" lon="8.24522"><ele>217.0</ele><time>2026-03-29T12:49:36.006Z</time></trkpt><trkpt lat="44.99319" lon="8.2453517"><ele>217.0</ele><time>2026-03-29T12:49:37.006Z</time></trkpt><trkpt lat="44.993275" lon="8.2454917"><ele>217.0</ele><time>2026-03-29T12:49:38.005Z</time></trkpt><trkpt lat="44.9933667" lon="8.2456333"><ele>217.0</ele><time>2026-03-29T12:49:39.007Z</time></trkpt><trkpt lat="44.9934583" lon="8.2457717"><ele>216.5</ele><time>2026-03-29T12:49:40.004Z</time></trkpt><trkpt lat="44.9935483" lon="8.2459133"><ele>216.0</ele><time>2026-03-29T12:49:41.007Z</time></trkpt><trkpt lat="44.9936317" lon="8.2460617"><ele>215.5</ele><time>2026-03-29T12:49:42.002Z</time></trkpt><trkpt lat="44.993705" lon="8.2462133"><ele>215.0</ele><time>2026-03-29T12:49:43.004Z</time></trkpt><trkpt lat="44.9937667" lon="8.2463733"><ele>216.5</ele><time>2026-03-29T12:49:44.007Z</time></trkpt><trkpt lat="44.9938267" lon="8.246535"><ele>218.0</ele><time>2026-03-29T12:49:45.004Z</time></trkpt><trkpt lat="44.99388" lon="8.2466917"><ele>219.5</ele><time>2026-03-29T12:49:46.006Z</time></trkpt><trkpt lat="44.9939383" lon="8.24685"><ele>221.0</ele><time>2026-03-29T12:49:47.002Z</time></trkpt><trkpt lat="44.993995" lon="8.2470117"><ele>221.0</ele><time>2026-03-29T12:49:48.004Z</time></trkpt><trkpt lat="44.9940483" lon="8.2471783"><ele>221.0</ele><time>2026-03-29T12:49:49.004Z</time></trkpt><trkpt lat="44.9940933" lon="8.2473433"><ele>221.0</ele><time>2026-03-29T12:49:50.004Z</time></trkpt><trkpt lat="44.994135" lon="8.2475133"><ele>221.0</ele><time>2026-03-29T12:49:51.01Z</time></trkpt><trkpt lat="44.9941683" lon="8.2476867"><ele>218.75</ele><time>2026-03-29T12:49:52.002Z</time></trkpt><trkpt lat="44.9941967" lon="8.24786"><ele>216.5</ele><time>2026-03-29T12:49:53.003Z</time></trkpt><trkpt lat="44.9942167" lon="8.248035"><ele>214.25</ele><time>2026-03-29T12:49:54.003Z</time></trkpt><trkpt lat="44.9942367" lon="8.2482133"><ele>212.0</ele><time>2026-03-29T12:49:55.005Z</time></trkpt><trkpt lat="44.9942583" lon="8.2483817"><ele>211.8</ele><time>2026-03-29T12:49:56.004Z</time></trkpt><trkpt lat="44.99428" lon="8.2485383"><ele>211.6</ele><time>2026-03-29T12:49:57.008Z</time></trkpt><trkpt lat="44.994315" lon="8.2486767"><ele>211.4</ele><time>2026-03-29T12:49:58.008Z</time></trkpt><trkpt lat="44.9943667" lon="8.248805"><ele>211.20000000000002</ele><time>2026-03-29T12:49:59.004Z</time></trkpt><trkpt lat="44.9944333" lon="8.2489267"><ele>211.0</ele><time>2026-03-29T12:50:00.011Z</time></trkpt><trkpt lat="44.9945117" lon="8.24905"><ele>210.8</ele><time>2026-03-29T12:50:01.004Z</time></trkpt><trkpt lat="44.9945883" lon="8.2491767"><ele>210.60000000000002</ele><time>2026-03-29T12:50:02.005Z</time></trkpt><trkpt lat="44.994655" lon="8.249305"><ele>210.4</ele><time>2026-03-29T12:50:03.006Z</time></trkpt><trkpt lat="44.9947067" lon="8.2494317"><ele>210.2</ele><time>2026-03-29T12:50:04.005Z</time></trkpt><trkpt lat="44.99475" lon="8.2495483"><ele>210.0</ele><time>2026-03-29T12:50:05.007Z</time></trkpt><trkpt lat="44.9947867" lon="8.2496567"><ele>210.0</ele><time>2026-03-29T12:50:06.004Z</time></trkpt><trkpt lat="44.99483" lon="8.2497533"><ele>210.0</ele><time>2026-03-29T12:50:07.004Z</time></trkpt><trkpt lat="44.9948717" lon="8.249845"><ele>210.0</ele><time>2026-03-29T12:50:08.006Z</time></trkpt><trkpt lat="44.9949167" lon="8.2499383"><ele>210.0</ele><time>2026-03-29T12:50:09.007Z</time></trkpt><trkpt lat="44.99497" lon="8.2500517"><ele>210.0</ele><time>2026-03-29T12:50:10.009Z</time></trkpt><trkpt lat="44.9950233" lon="8.2501783"><ele>210.0</ele><time>2026-03-29T12:50:11.01Z</time></trkpt><trkpt lat="44.9950733" lon="8.2503167"><ele>209.0</ele><time>2026-03-29T12:50:12.005Z</time></trkpt><trkpt lat="44.995125" lon="8.25045"><ele>208.0</ele><time>2026-03-29T12:50:13.002Z</time></trkpt><trkpt lat="44.9951917" lon="8.2505717"><ele>207.0</ele><time>2026-03-29T12:50:14.002Z</time></trkpt><trkpt lat="44.99527" lon="8.2506867"><ele>206.0</ele><time>2026-03-29T12:50:15.007Z</time></trkpt><trkpt lat="44.99536" lon="8.2508033"><ele>206.0</ele><time>2026-03-29T12:50:16.005Z</time></trkpt><trkpt lat="44.9954617" lon="8.25092"><ele>206.0</ele><time>2026-03-29T12:50:17.004Z</time></trkpt><trkpt lat="44.9955683" lon="8.2510367"><ele>206.0</ele><time>2026-03-29T12:50:18.003Z</time></trkpt><trkpt lat="44.9956817" lon="8.2511433"><ele>206.0</ele><time>2026-03-29T12:50:19.006Z</time></trkpt><trkpt lat="44.9957817" lon="8.251255"><ele>204.25</ele><time>2026-03-29T12:50:20.004Z</time></trkpt><trkpt lat="44.9958817" lon="8.2513717"><ele>202.5</ele><time>2026-03-29T12:50:21.006Z</time></trkpt><trkpt lat="44.9959833" lon="8.25149"><ele>200.75</ele><time>2026-03-29T12:50:22.005Z</time></trkpt><trkpt lat="44.9960817" lon="8.2516017"><ele>199.0</ele><time>2026-03-29T12:50:23.005Z</time></trkpt><trkpt lat="44.996175" lon="8.2517167"><ele>199.0</ele><time>2026-03-29T12:50:24.005Z</time></trkpt><trkpt lat="44.9962583" lon="8.2518333"><ele>199.0</ele><time>2026-03-29T12:50:25.006Z</time></trkpt><trkpt lat="44.9963217" lon="8.2519583"><ele>199.0</ele><time>2026-03-29T12:50:26.006Z</time></trkpt><trkpt lat="44.99637" lon="8.252095"><ele>199.0</ele><time>2026-03-29T12:50:27.007Z</time></trkpt><trkpt lat="44.996415" lon="8.2522333"><ele>199.0</ele><time>2026-03-29T12:50:28.003Z</time></trkpt><trkpt lat="44.9964567" lon="8.2523683"><ele>199.79999999999998</ele><time>2026-03-29T12:50:29.008Z</time></trkpt><trkpt lat="44.9964967" lon="8.2525"><ele>200.6</ele><time>2026-03-29T12:50:30.005Z</time></trkpt><trkpt lat="44.9965467" lon="8.2526217"><ele>201.4</ele><time>2026-03-29T12:50:31.004Z</time></trkpt><trkpt lat="44.9966133" lon="8.2527317"><ele>202.2</ele><time>2026-03-29T12:50:32.003Z</time></trkpt><trkpt lat="44.9966983" lon="8.2528217"><ele>203.0</ele><time>2026-03-29T12:50:33.007Z</time></trkpt><trkpt lat="44.99681" lon="8.252885"><ele>203.0</ele><time>2026-03-29T12:50:34.004Z</time></trkpt><trkpt lat="44.9969367" lon="8.2529333"><ele>203.0</ele><time>2026-03-29T12:50:35.005Z</time></trkpt><trkpt lat="44.9970717" lon="8.2529733"><ele>203.0</ele><time>2026-03-29T12:50:36.01Z</time></trkpt><trkpt lat="44.9972083" lon="8.25301"><ele>203.0</ele><time>2026-03-29T12:50:37.006Z</time></trkpt><trkpt lat="44.9973483" lon="8.25305"><ele>203.0</ele><time>2026-03-29T12:50:38.007Z</time></trkpt><trkpt lat="44.9974933" lon="8.253095"><ele>203.0</ele><time>2026-03-29T12:50:39.009Z</time></trkpt><trkpt lat="44.9976433" lon="8.25314"><ele>203.0</ele><time>2026-03-29T12:50:40.008Z</time></trkpt><trkpt lat="44.9977917" lon="8.2531833"><ele>205.66666666666669</ele><time>2026-03-29T12:50:41.013Z</time></trkpt><trkpt lat="44.99794" lon="8.2532383"><ele>208.33333333333331</ele><time>2026-03-29T12:50:42.005Z</time></trkpt><trkpt lat="44.9980833" lon="8.253295"><ele>211.0</ele><time>2026-03-29T12:50:43.013Z</time></trkpt><trkpt lat="44.9982283" lon="8.25335"><ele>212.0</ele><time>2026-03-29T12:50:44.006Z</time></trkpt><trkpt lat="44.9983717" lon="8.2534"><ele>213.0</ele><time>2026-03-29T12:50:45.006Z</time></trkpt><trkpt lat="44.9985133" lon="8.2534467"><ele>214.0</ele><time>2026-03-29T12:50:46.01Z</time></trkpt><trkpt lat="44.9986567" lon="8.2534917"><ele>215.0</ele><time>2026-03-29T12:50:47.004Z</time></trkpt><trkpt lat="44.9987983" lon="8.25353"><ele>215.0</ele><time>2026-03-29T12:50:48.007Z</time></trkpt><trkpt lat="44.9989383" lon="8.253565"><ele>215.0</ele><time>2026-03-29T12:50:49.007Z</time></trkpt><trkpt lat="44.99908" lon="8.2536"><ele>215.0</ele><time>2026-03-29T12:50:50.002Z</time></trkpt><trkpt lat="44.99922" lon="8.25363"><ele>215.0</ele><time>2026-03-29T12:50:51.005Z</time></trkpt><trkpt lat="44.9993583" lon="8.2536617"><ele>216.0</ele><time>2026-03-29T12:50:52.006Z</time></trkpt><trkpt lat="44.999495" lon="8.2536933"><ele>217.0</ele><time>2026-03-29T12:50:53.004Z</time></trkpt><trkpt lat="44.999635" lon="8.25373"><ele>218.0</ele><time>2026-03-29T12:50:54.006Z</time></trkpt><trkpt lat="44.9997617" lon="8.2537717"><ele>219.0</ele><time>2026-03-29T12:50:55.006Z</time></trkpt><trkpt lat="44.9998817" lon="8.253845"><ele>219.0</ele><time>2026-03-29T12:50:56.006Z</time></trkpt><trkpt lat="45.0000017" lon="8.2539133"><ele>219.0</ele><time>2026-03-29T12:50:57.008Z</time></trkpt><trkpt lat="45.0001183" lon="8.2539867"><ele>219.0</ele><time>2026-03-29T12:50:58.003Z</time></trkpt><trkpt lat="45.0002283" lon="8.2540617"><ele>219.0</ele><time>2026-03-29T12:50:59.008Z</time></trkpt><trkpt lat="45.000325" lon="8.2541467"><ele>219.5</ele><time>2026-03-29T12:51:00.008Z</time></trkpt><trkpt lat="45.000415" lon="8.2542483"><ele>220.0</ele><time>2026-03-29T12:51:01.002Z</time></trkpt><trkpt lat="45.0005067" lon="8.25435"><ele>220.5</ele><time>2026-03-29T12:51:02.005Z</time></trkpt><trkpt lat="45.0006017" lon="8.2544567"><ele>221.0</ele><time>2026-03-29T12:51:03.006Z</time></trkpt><trkpt lat="45.0006983" lon="8.254565"><ele>221.0</ele><time>2026-03-29T12:51:04.008Z</time></trkpt><trkpt lat="45.000795" lon="8.2546767"><ele>221.0</ele><time>2026-03-29T12:51:05.007Z</time></trkpt><trkpt lat="45.0008883" lon="8.2547917"><ele>221.0</ele><time>2026-03-29T12:51:06.016Z</time></trkpt><trkpt lat="45.0009817" lon="8.2549133"><ele>221.0</ele><time>2026-03-29T12:51:07.008Z</time></trkpt><trkpt lat="45.001075" lon="8.2550433"><ele>222.75</ele><time>2026-03-29T12:51:08.007Z</time></trkpt><trkpt lat="45.0011717" lon="8.2551733"><ele>224.5</ele><time>2026-03-29T12:51:09.008Z</time></trkpt><trkpt lat="45.00127" lon="8.2553017"><ele>226.25</ele><time>2026-03-29T12:51:10.013Z</time></trkpt><trkpt lat="45.0013733" lon="8.255435"><ele>228.0</ele><time>2026-03-29T12:51:11.007Z</time></trkpt><trkpt lat="45.0014817" lon="8.2555717"><ele>228.5</ele><time>2026-03-29T12:51:12.006Z</time></trkpt><trkpt lat="45.0015933" lon="8.2557083"><ele>229.0</ele><time>2026-03-29T12:51:13.007Z</time></trkpt><trkpt lat="45.0017067" lon="8.2558467"><ele>229.5</ele><time>2026-03-29T12:51:14.005Z</time></trkpt><trkpt lat="45.0018183" lon="8.2559833"><ele>230.0</ele><time>2026-03-29T12:51:15.004Z</time></trkpt><trkpt lat="45.0019333" lon="8.2561167"><ele>230.75</ele><time>2026-03-29T12:51:16.002Z</time></trkpt><trkpt lat="45.0020467" lon="8.2562483"><ele>231.5</ele><time>2026-03-29T12:51:17.007Z</time></trkpt><trkpt lat="45.0021533" lon="8.2563717"><ele>232.25</ele><time>2026-03-29T12:51:18.003Z</time></trkpt><trkpt lat="45.0022567" lon="8.25649"><ele>233.0</ele><time>2026-03-29T12:51:19.006Z</time></trkpt><trkpt lat="45.0023583" lon="8.256595"><ele>234.25</ele><time>2026-03-29T12:51:20.007Z</time></trkpt><trkpt lat="45.0024667" lon="8.256695"><ele>235.5</ele><time>2026-03-29T12:51:21.002Z</time></trkpt><trkpt lat="45.0025833" lon="8.2567867"><ele>236.75</ele><time>2026-03-29T12:51:22.007Z</time></trkpt><trkpt lat="45.0027083" lon="8.2568733"><ele>238.0</ele><time>2026-03-29T12:51:23.006Z</time></trkpt><trkpt lat="45.00283" lon="8.256955"><ele>239.0</ele><time>2026-03-29T12:51:24.008Z</time></trkpt><trkpt lat="45.0029417" lon="8.2570283"><ele>240.0</ele><time>2026-03-29T12:51:25.008Z</time></trkpt><trkpt lat="45.003035" lon="8.2571117"><ele>241.0</ele><time>2026-03-29T12:51:26.004Z</time></trkpt><trkpt lat="45.00312" lon="8.2571933"><ele>242.0</ele><time>2026-03-29T12:51:27.005Z</time></trkpt><trkpt lat="45.003205" lon="8.25727"><ele>243.0</ele><time>2026-03-29T12:51:28.011Z</time></trkpt><trkpt lat="45.00329" lon="8.2573483"><ele>244.0</ele><time>2026-03-29T12:51:29.005Z</time></trkpt><trkpt lat="45.0033667" lon="8.2574217"><ele>245.0</ele><time>2026-03-29T12:51:30.012Z</time></trkpt><trkpt lat="45.0034367" lon="8.2574767"><ele>246.0</ele><time>2026-03-29T12:51:31.007Z</time></trkpt><trkpt lat="45.0035117" lon="8.2575133"><ele>247.0</ele><time>2026-03-29T12:51:32.007Z</time></trkpt><trkpt lat="45.0035833" lon="8.25754"><ele>248.0</ele><time>2026-03-29T12:51:33.007Z</time></trkpt><trkpt lat="45.0036483" lon="8.257545"><ele>249.0</ele><time>2026-03-29T12:51:34.002Z</time></trkpt><trkpt lat="45.0037083" lon="8.2575883"><ele>249.0</ele><time>2026-03-29T12:51:37.002Z</time></trkpt><trkpt lat="45.003775" lon="8.2576017"><ele>249.0</ele><time>2026-03-29T12:51:40.005Z</time></trkpt><trkpt lat="45.003885" lon="8.2575417"><ele>249.0</ele><time>2026-03-29T12:51:42.004Z</time></trkpt><trkpt lat="45.0039567" lon="8.2575217"><ele>249.0</ele><time>2026-03-29T12:51:43.009Z</time></trkpt><trkpt lat="45.004035" lon="8.2575017"><ele>249.0</ele><time>2026-03-29T12:51:44.006Z</time></trkpt><trkpt lat="45.00412" lon="8.2574917"><ele>249.0</ele><time>2026-03-29T12:51:45.006Z</time></trkpt><trkpt lat="45.0042167" lon="8.25748"><ele>248.2</ele><time>2026-03-29T12:51:46.005Z</time></trkpt><trkpt lat="45.0043183" lon="8.257485"><ele>247.39999999999998</ele><time>2026-03-29T12:51:47.008Z</time></trkpt><trkpt lat="45.0044167" lon="8.2575083"><ele>246.6</ele><time>2026-03-29T12:51:48.011Z</time></trkpt><trkpt lat="45.00451" lon="8.257525"><ele>245.8</ele><time>2026-03-29T12:51:49.006Z</time></trkpt><trkpt lat="45.004605" lon="8.257545"><ele>245.0</ele><time>2026-03-29T12:51:50.008Z</time></trkpt><trkpt lat="45.00471" lon="8.257595"><ele>245.0</ele><time>2026-03-29T12:51:51.006Z</time></trkpt><trkpt lat="45.0048033" lon="8.2576033"><ele>245.0</ele><time>2026-03-29T12:51:52.004Z</time></trkpt><trkpt lat="45.0048967" lon="8.2576017"><ele>245.0</ele><time>2026-03-29T12:51:53.005Z</time></trkpt><trkpt lat="45.0049933" lon="8.2576183"><ele>245.0</ele><time>2026-03-29T12:51:54.01Z</time></trkpt><trkpt lat="45.005085" lon="8.2576283"><ele>245.0</ele><time>2026-03-29T12:51:55.002Z</time></trkpt><trkpt lat="45.005185" lon="8.2576433"><ele>244.4</ele><time>2026-03-29T12:51:56.005Z</time></trkpt><trkpt lat="45.0052983" lon="8.25768"><ele>243.8</ele><time>2026-03-29T12:51:57.003Z</time></trkpt><trkpt lat="45.0053933" lon="8.257705"><ele>243.2</ele><time>2026-03-29T12:51:58.002Z</time></trkpt><trkpt lat="45.0054867" lon="8.2577367"><ele>242.6</ele><time>2026-03-29T12:51:59.002Z</time></trkpt><trkpt lat="45.0055717" lon="8.2577617"><ele>242.0</ele><time>2026-03-29T12:52:00.008Z</time></trkpt><trkpt lat="45.00565" lon="8.257795"><ele>242.00000000000003</ele><time>2026-03-29T12:52:01.006Z</time></trkpt><trkpt lat="45.0057167" lon="8.2578183"><ele>242.0</ele><time>2026-03-29T12:52:02.003Z</time></trkpt><trkpt lat="45.0058283" lon="8.2578133"><ele>242.0</ele><time>2026-03-29T12:52:04.005Z</time></trkpt><trkpt lat="45.0059483" lon="8.257795"><ele>242.0</ele><time>2026-03-29T12:52:06.003Z</time></trkpt><trkpt lat="45.0060133" lon="8.2577617"><ele>242.00000000000003</ele><time>2026-03-29T12:52:07.002Z</time></trkpt><trkpt lat="45.0060783" lon="8.2577217"><ele>242.0</ele><time>2026-03-29T12:52:08.004Z</time></trkpt><trkpt lat="45.00614" lon="8.2576833"><ele>241.66666666666669</ele><time>2026-03-29T12:52:09.008Z</time></trkpt><trkpt lat="45.0062033" lon="8.2576383"><ele>241.33333333333334</ele><time>2026-03-29T12:52:10.007Z</time></trkpt><trkpt lat="45.006265" lon="8.2575867"><ele>241.0</ele><time>2026-03-29T12:52:11.007Z</time></trkpt><trkpt lat="45.0063217" lon="8.2575317"><ele>240.66666666666669</ele><time>2026-03-29T12:52:12.008Z</time></trkpt><trkpt lat="45.0063683" lon="8.2574683"><ele>240.33333333333334</ele><time>2026-03-29T12:52:13.01Z</time></trkpt><trkpt lat="45.006445" lon="8.25733"><ele>240.0</ele><time>2026-03-29T12:52:15.006Z</time></trkpt><trkpt lat="45.0064933" lon="8.2572033"><ele>240.0</ele><time>2026-03-29T12:52:17.007Z</time></trkpt><trkpt lat="45.0065433" lon="8.2570633"><ele>240.0</ele><time>2026-03-29T12:52:19.002Z</time></trkpt><trkpt lat="45.006585" lon="8.2568967"><ele>240.0</ele><time>2026-03-29T12:52:21.008Z</time></trkpt><trkpt lat="45.0066033" lon="8.25681"><ele>240.0</ele><time>2026-03-29T12:52:22.006Z</time></trkpt><trkpt lat="45.0066283" lon="8.2567233"><ele>240.0</ele><time>2026-03-29T12:52:23.003Z</time></trkpt><trkpt lat="45.0066783" lon="8.2565917"><ele>240.8</ele><time>2026-03-29T12:52:25.006Z</time></trkpt><trkpt lat="45.0067117" lon="8.2564567"><ele>241.6</ele><time>2026-03-29T12:52:27.008Z</time></trkpt><trkpt lat="45.0067567" lon="8.25635"><ele>242.39999999999998</ele><time>2026-03-29T12:52:29Z</time></trkpt><trkpt lat="45.0068367" lon="8.256265"><ele>243.2</ele><time>2026-03-29T12:52:31.002Z</time></trkpt><trkpt lat="45.006925" lon="8.2561583"><ele>244.0</ele><time>2026-03-29T12:52:33.006Z</time></trkpt><trkpt lat="45.0069717" lon="8.2560983"><ele>244.0</ele><time>2026-03-29T12:52:34.005Z</time></trkpt><trkpt lat="45.007085" lon="8.255995"><ele>244.0</ele><time>2026-03-29T12:52:36.005Z</time></trkpt><trkpt lat="45.0071433" lon="8.2559533"><ele>244.0</ele><time>2026-03-29T12:52:37.006Z</time></trkpt><trkpt lat="45.0072417" lon="8.2559467"><ele>244.0</ele><time>2026-03-29T12:52:39.004Z</time></trkpt><trkpt lat="45.0074083" lon="8.255985"><ele>243.99999999999997</ele><time>2026-03-29T12:52:41.002Z</time></trkpt><trkpt lat="45.00749" lon="8.2559717"><ele>244.0</ele><time>2026-03-29T12:52:42.011Z</time></trkpt><trkpt lat="45.007585" lon="8.2560167"><ele>244.0</ele><time>2026-03-29T12:52:44.004Z</time></trkpt><trkpt lat="45.0076233" lon="8.2560883"><ele>244.0</ele><time>2026-03-29T12:52:46.004Z</time></trkpt><trkpt lat="45.0076767" lon="8.2561433"><ele>243.99999999999997</ele><time>2026-03-29T12:52:48.002Z</time></trkpt><trkpt lat="45.0076717" lon="8.256255"><ele>244.0</ele><time>2026-03-29T12:52:50.004Z</time></trkpt><trkpt lat="45.0075917" lon="8.2563233"><ele>245.66666666666666</ele><time>2026-03-29T12:56:00.3Z</time></trkpt><trkpt lat="45.0076717" lon="8.2563833"><ele>247.33333333333331</ele><time>2026-03-29T13:01:27.01Z</time></trkpt><trkpt lat="45.0077633" lon="8.2564283"><ele>249.0</ele><time>2026-03-29T13:01:29.006Z</time></trkpt><trkpt lat="45.0078567" lon="8.2564933"><ele>250.66666666666669</ele><time>2026-03-29T13:01:31.007Z</time></trkpt><trkpt lat="45.007935" lon="8.2565233"><ele>252.33333333333334</ele><time>2026-03-29T13:01:33.008Z</time></trkpt><trkpt lat="45.0080067" lon="8.25654"><ele>254.0</ele><time>2026-03-29T13:01:36.007Z</time></trkpt><trkpt lat="45.008" lon="8.25643"><ele>254.0</ele><time>2026-03-29T13:01:40.006Z</time></trkpt><trkpt lat="45.00795" lon="8.2563467"><ele>254.0</ele><time>2026-03-29T13:01:42.005Z</time></trkpt><trkpt lat="45.0079233" lon="8.25625"><ele>254.0</ele><time>2026-03-29T13:01:44.002Z</time></trkpt><trkpt lat="45.007945" lon="8.2561633"><ele>254.0</ele><time>2026-03-29T13:01:46.007Z</time></trkpt><trkpt lat="45.0079967" lon="8.2560983"><ele>254.0</ele><time>2026-03-29T13:01:48.011Z</time></trkpt><trkpt lat="45.00806" lon="8.2560583"><ele>254.0</ele><time>2026-03-29T13:01:50.004Z</time></trkpt><trkpt lat="45.0081367" lon="8.2560283"><ele>254.0</ele><time>2026-03-29T13:01:52.005Z</time></trkpt><trkpt lat="45.0082267" lon="8.2560017"><ele>254.00000000000003</ele><time>2026-03-29T13:01:54.008Z</time></trkpt><trkpt lat="45.0083167" lon="8.2559733"><ele>254.0</ele><time>2026-03-29T13:01:56.006Z</time></trkpt><trkpt lat="45.008415" lon="8.2559617"><ele>254.0</ele><time>2026-03-29T13:01:58.005Z</time></trkpt><trkpt lat="45.00852" lon="8.255965"><ele>254.0</ele><time>2026-03-29T13:02:00.005Z</time></trkpt><trkpt lat="45.0085833" lon="8.25597"><ele>254.00000000000003</ele><time>2026-03-29T13:02:01.003Z</time></trkpt><trkpt lat="45.0086467" lon="8.2559633"><ele>254.0</ele><time>2026-03-29T13:02:02.007Z</time></trkpt><trkpt lat="45.0087683" lon="8.2559383"><ele>253.50000000000003</ele><time>2026-03-29T13:02:04.006Z</time></trkpt><trkpt lat="45.0088917" lon="8.25591"><ele>253.0</ele><time>2026-03-29T13:02:06.004Z</time></trkpt><trkpt lat="45.0089633" lon="8.2559"><ele>252.5</ele><time>2026-03-29T13:02:07.006Z</time></trkpt><trkpt lat="45.0090517" lon="8.2559067"><ele>252.0</ele><time>2026-03-29T13:02:08.005Z</time></trkpt><trkpt lat="45.0091217" lon="8.2558983"><ele>251.50000000000003</ele><time>2026-03-29T13:02:09.009Z</time></trkpt><trkpt lat="45.0091883" lon="8.2558967"><ele>251.0</ele><time>2026-03-29T13:02:10.006Z</time></trkpt><trkpt lat="45.0092517" lon="8.2559033"><ele>251.00000000000003</ele><time>2026-03-29T13:02:11.004Z</time></trkpt><trkpt lat="45.0093167" lon="8.2559033"><ele>251.0</ele><time>2026-03-29T13:02:12.007Z</time></trkpt><trkpt lat="45.0093783" lon="8.25594"><ele>251.0</ele><time>2026-03-29T13:02:14.001Z</time></trkpt><trkpt lat="45.00944" lon="8.255905"><ele>251.0</ele><time>2026-03-29T13:02:16.002Z</time></trkpt><trkpt lat="45.00952" lon="8.2558583"><ele>251.00000000000003</ele><time>2026-03-29T13:02:18.003Z</time></trkpt><trkpt lat="45.0095783" lon="8.2557667"><ele>251.0</ele><time>2026-03-29T13:02:20.001Z</time></trkpt><trkpt lat="45.009605" lon="8.2555867"><ele>249.83333333333334</ele><time>2026-03-29T13:02:22.005Z</time></trkpt><trkpt lat="45.009595" lon="8.2554633"><ele>248.66666666666669</ele><time>2026-03-29T13:02:23.004Z</time></trkpt><trkpt lat="45.0096" lon="8.2553583"><ele>247.5</ele><time>2026-03-29T13:02:24.004Z</time></trkpt><trkpt lat="45.0096067" lon="8.2552483"><ele>246.33333333333331</ele><time>2026-03-29T13:02:25.004Z</time></trkpt><trkpt lat="45.0096267" lon="8.25513"><ele>245.16666666666666</ele><time>2026-03-29T13:02:26.005Z</time></trkpt><trkpt lat="45.0096433" lon="8.255005"><ele>244.0</ele><time>2026-03-29T13:02:27.006Z</time></trkpt><trkpt lat="45.0096533" lon="8.2548783"><ele>242.0</ele><time>2026-03-29T13:02:28.004Z</time></trkpt><trkpt lat="45.0096667" lon="8.2547483"><ele>239.99999999999997</ele><time>2026-03-29T13:02:29.004Z</time></trkpt><trkpt lat="45.0096917" lon="8.25462"><ele>237.99999999999997</ele><time>2026-03-29T13:02:30.004Z</time></trkpt><trkpt lat="45.00972" lon="8.2544883"><ele>236.0</ele><time>2026-03-29T13:02:31.007Z</time></trkpt><trkpt lat="45.00975" lon="8.25435"><ele>234.0</ele><time>2026-03-29T13:02:32.006Z</time></trkpt><trkpt lat="45.009775" lon="8.254215"><ele>234.0</ele><time>2026-03-29T13:02:33.008Z</time></trkpt><trkpt lat="45.0097767" lon="8.25408"><ele>233.99999999999997</ele><time>2026-03-29T13:02:34.003Z</time></trkpt><trkpt lat="45.0097583" lon="8.2539367"><ele>233.99999999999997</ele><time>2026-03-29T13:02:35.004Z</time></trkpt><trkpt lat="45.0097217" lon="8.25379"><ele>234.0</ele><time>2026-03-29T13:02:36.003Z</time></trkpt><trkpt lat="45.00969" lon="8.2536333"><ele>234.0</ele><time>2026-03-29T13:02:37.005Z</time></trkpt><trkpt lat="45.0096717" lon="8.2534667"><ele>233.25</ele><time>2026-03-29T13:02:38.004Z</time></trkpt><trkpt lat="45.0096417" lon="8.2533"><ele>232.5</ele><time>2026-03-29T13:02:39.009Z</time></trkpt><trkpt lat="45.00962" lon="8.2531267"><ele>231.75</ele><time>2026-03-29T13:02:40.008Z</time></trkpt><trkpt lat="45.0096033" lon="8.25295"><ele>231.0</ele><time>2026-03-29T13:02:41.006Z</time></trkpt><trkpt lat="45.0095867" lon="8.2527717"><ele>230.25</ele><time>2026-03-29T13:02:42.004Z</time></trkpt><trkpt lat="45.0095633" lon="8.252595"><ele>229.5</ele><time>2026-03-29T13:02:43.006Z</time></trkpt><trkpt lat="45.009545" lon="8.2524217"><ele>228.75</ele><time>2026-03-29T13:02:44.007Z</time></trkpt><trkpt lat="45.0095233" lon="8.25225"><ele>228.0</ele><time>2026-03-29T13:02:45.003Z</time></trkpt><trkpt lat="45.0095017" lon="8.2520783"><ele>227.25</ele><time>2026-03-29T13:02:46.005Z</time></trkpt><trkpt lat="45.00947" lon="8.2519017"><ele>226.5</ele><time>2026-03-29T13:02:47.004Z</time></trkpt><trkpt lat="45.009435" lon="8.2517333"><ele>225.75</ele><time>2026-03-29T13:02:48.005Z</time></trkpt><trkpt lat="45.0093967" lon="8.251565"><ele>225.0</ele><time>2026-03-29T13:02:49.005Z</time></trkpt><trkpt lat="45.0093633" lon="8.2513867"><ele>224.75</ele><time>2026-03-29T13:02:50.004Z</time></trkpt><trkpt lat="45.0093267" lon="8.2512083"><ele>224.5</ele><time>2026-03-29T13:02:51.006Z</time></trkpt><trkpt lat="45.0092917" lon="8.25103"><ele>224.25</ele><time>2026-03-29T13:02:52.004Z</time></trkpt><trkpt lat="45.009255" lon="8.2508517"><ele>224.0</ele><time>2026-03-29T13:02:53.006Z</time></trkpt><trkpt lat="45.00922" lon="8.250665"><ele>224.25</ele><time>2026-03-29T13:02:54.004Z</time></trkpt><trkpt lat="45.00918" lon="8.2504817"><ele>224.5</ele><time>2026-03-29T13:02:55.005Z</time></trkpt><trkpt lat="45.0091333" lon="8.2503"><ele>224.75</ele><time>2026-03-29T13:02:56.003Z</time></trkpt><trkpt lat="45.009085" lon="8.25012"><ele>225.0</ele><time>2026-03-29T13:02:57.005Z</time></trkpt><trkpt lat="45.009035" lon="8.249945"><ele>220.75</ele><time>2026-03-29T13:02:58.005Z</time></trkpt><trkpt lat="45.008985" lon="8.2497767"><ele>216.5</ele><time>2026-03-29T13:02:59.004Z</time></trkpt><trkpt lat="45.0089367" lon="8.2496"><ele>212.25</ele><time>2026-03-29T13:03:00.005Z</time></trkpt><trkpt lat="45.008885" lon="8.2494217"><ele>208.0</ele><time>2026-03-29T13:03:01.006Z</time></trkpt><trkpt lat="45.0088317" lon="8.2492417"><ele>208.0</ele><time>2026-03-29T13:03:02.004Z</time></trkpt><trkpt lat="45.008775" lon="8.24906"><ele>208.0</ele><time>2026-03-29T13:03:03.002Z</time></trkpt><trkpt lat="45.0087183" lon="8.2488767"><ele>208.0</ele><time>2026-03-29T13:03:04.002Z</time></trkpt><trkpt lat="45.0086583" lon="8.2486917"><ele>208.0</ele><time>2026-03-29T13:03:05.004Z</time></trkpt><trkpt lat="45.008595" lon="8.2485083"><ele>208.5</ele><time>2026-03-29T13:03:06.005Z</time></trkpt><trkpt lat="45.008525" lon="8.248335"><ele>209.0</ele><time>2026-03-29T13:03:07.004Z</time></trkpt><trkpt lat="45.0084533" lon="8.2481633"><ele>209.5</ele><time>2026-03-29T13:03:08.005Z</time></trkpt><trkpt lat="45.0083767" lon="8.247995"><ele>210.0</ele><time>2026-03-29T13:03:08.998Z</time></trkpt><trkpt lat="45.0082917" lon="8.247835"><ele>209.5</ele><time>2026-03-29T13:03:10.003Z</time></trkpt><trkpt lat="45.0082083" lon="8.24768"><ele>209.0</ele><time>2026-03-29T13:03:11.004Z</time></trkpt><trkpt lat="45.008115" lon="8.2475333"><ele>208.5</ele><time>2026-03-29T13:03:12.007Z</time></trkpt><trkpt lat="45.008015" lon="8.24739"><ele>208.0</ele><time>2026-03-29T13:03:13.004Z</time></trkpt><trkpt lat="45.0079033" lon="8.2472417"><ele>208.0</ele><time>2026-03-29T13:03:14.002Z</time></trkpt><trkpt lat="45.00779" lon="8.247105"><ele>208.0</ele><time>2026-03-29T13:03:15.003Z</time></trkpt><trkpt lat="45.0076783" lon="8.2469733"><ele>208.0</ele><time>2026-03-29T13:03:16.001Z</time></trkpt><trkpt lat="45.007565" lon="8.2468483"><ele>208.0</ele><time>2026-03-29T13:03:17.004Z</time></trkpt><trkpt lat="45.007445" lon="8.24673"><ele>207.25</ele><time>2026-03-29T13:03:18.002Z</time></trkpt><trkpt lat="45.0073233" lon="8.246615"><ele>206.5</ele><time>2026-03-29T13:03:19.005Z</time></trkpt><trkpt lat="45.0072033" lon="8.2465083"><ele>205.75</ele><time>2026-03-29T13:03:20.005Z</time></trkpt><trkpt lat="45.0070833" lon="8.2464083"><ele>205.0</ele><time>2026-03-29T13:03:21.006Z</time></trkpt><trkpt lat="45.0069583" lon="8.2463133"><ele>205.0</ele><time>2026-03-29T13:03:22.003Z</time></trkpt><trkpt lat="45.006825" lon="8.2462233"><ele>205.0</ele><time>2026-03-29T13:03:23.004Z</time></trkpt><trkpt lat="45.0066733" lon="8.2461483"><ele>205.0</ele><time>2026-03-29T13:03:24.006Z</time></trkpt><trkpt lat="45.0065283" lon="8.2460983"><ele>203.0</ele><time>2026-03-29T13:03:25.003Z</time></trkpt><trkpt lat="45.00637" lon="8.246075"><ele>201.0</ele><time>2026-03-29T13:03:26.013Z</time></trkpt><trkpt lat="45.0062083" lon="8.24607"><ele>199.0</ele><time>2026-03-29T13:03:27.002Z</time></trkpt><trkpt lat="45.006045" lon="8.24608"><ele>199.0</ele><time>2026-03-29T13:03:28.003Z</time></trkpt><trkpt lat="45.0058867" lon="8.246095"><ele>199.0</ele><time>2026-03-29T13:03:29.004Z</time></trkpt><trkpt lat="45.0057267" lon="8.24611"><ele>199.0</ele><time>2026-03-29T13:03:30.003Z</time></trkpt><trkpt lat="45.005565" lon="8.2461233"><ele>196.66666666666666</ele><time>2026-03-29T13:03:31.003Z</time></trkpt><trkpt lat="45.0054033" lon="8.2461317"><ele>194.33333333333331</ele><time>2026-03-29T13:03:32.005Z</time></trkpt><trkpt lat="45.00524" lon="8.246145"><ele>192.0</ele><time>2026-03-29T13:03:33.005Z</time></trkpt><trkpt lat="45.0050783" lon="8.2461533"><ele>191.0</ele><time>2026-03-29T13:03:34.004Z</time></trkpt><trkpt lat="45.0049183" lon="8.2461617"><ele>190.0</ele><time>2026-03-29T13:03:35.003Z</time></trkpt><trkpt lat="45.0047567" lon="8.24617"><ele>189.0</ele><time>2026-03-29T13:03:36.005Z</time></trkpt><trkpt lat="45.0045917" lon="8.24618"><ele>189.0</ele><time>2026-03-29T13:03:37.006Z</time></trkpt><trkpt lat="45.00443" lon="8.24619"><ele>189.0</ele><time>2026-03-29T13:03:38.002Z</time></trkpt><trkpt lat="45.004265" lon="8.2461983"><ele>189.0</ele><time>2026-03-29T13:03:39.007Z</time></trkpt><trkpt lat="45.0041017" lon="8.246205"><ele>187.33333333333334</ele><time>2026-03-29T13:03:40.007Z</time></trkpt><trkpt lat="45.0039383" lon="8.2462117"><ele>185.66666666666669</ele><time>2026-03-29T13:03:41.005Z</time></trkpt><trkpt lat="45.0037717" lon="8.2462183"><ele>184.0</ele><time>2026-03-29T13:03:42.005Z</time></trkpt><trkpt lat="45.0036067" lon="8.2462283"><ele>184.0</ele><time>2026-03-29T13:03:43.003Z</time></trkpt><trkpt lat="45.0034383" lon="8.2462383"><ele>184.0</ele><time>2026-03-29T13:03:44.006Z</time></trkpt><trkpt lat="45.0032717" lon="8.246245"><ele>184.0</ele><time>2026-03-29T13:03:45.006Z</time></trkpt><trkpt lat="45.0031017" lon="8.246245"><ele>179.66666666666669</ele><time>2026-03-29T13:03:46.001Z</time></trkpt><trkpt lat="45.002935" lon="8.2462333"><ele>175.33333333333334</ele><time>2026-03-29T13:03:47.002Z</time></trkpt><trkpt lat="45.0027717" lon="8.2462133"><ele>171.0</ele><time>2026-03-29T13:03:48.004Z</time></trkpt><trkpt lat="45.0026133" lon="8.246185"><ele>170.0</ele><time>2026-03-29T13:03:49.009Z</time></trkpt><trkpt lat="45.0024483" lon="8.2461483"><ele>169.0</ele><time>2026-03-29T13:03:50.004Z</time></trkpt><trkpt lat="45.00229" lon="8.2460967"><ele>168.0</ele><time>2026-03-29T13:03:51.007Z</time></trkpt><trkpt lat="45.002135" lon="8.2460383"><ele>168.0</ele><time>2026-03-29T13:03:52.003Z</time></trkpt><trkpt lat="45.0019867" lon="8.2459717"><ele>168.0</ele><time>2026-03-29T13:03:53.005Z</time></trkpt><trkpt lat="45.0018467" lon="8.24589"><ele>168.0</ele><time>2026-03-29T13:03:54.005Z</time></trkpt><trkpt lat="45.0017117" lon="8.2458033"><ele>167.33333333333334</ele><time>2026-03-29T13:03:55.004Z</time></trkpt><trkpt lat="45.0015817" lon="8.24571"><ele>166.66666666666669</ele><time>2026-03-29T13:03:56.004Z</time></trkpt><trkpt lat="45.001445" lon="8.2456017"><ele>166.0</ele><time>2026-03-29T13:03:57.006Z</time></trkpt><trkpt lat="45.0013117" lon="8.2454917"><ele>165.66666666666669</ele><time>2026-03-29T13:03:58.003Z</time></trkpt><trkpt lat="45.0011833" lon="8.2453783"><ele>165.33333333333334</ele><time>2026-03-29T13:03:59.009Z</time></trkpt><trkpt lat="45.001055" lon="8.2452583"><ele>165.0</ele><time>2026-03-29T13:04:00.006Z</time></trkpt><trkpt lat="45.0009317" lon="8.2451233"><ele>164.33333333333334</ele><time>2026-03-29T13:04:01.009Z</time></trkpt><trkpt lat="45.000805" lon="8.24498"><ele>163.66666666666669</ele><time>2026-03-29T13:04:02.002Z</time></trkpt><trkpt lat="45.0006767" lon="8.244835"><ele>163.0</ele><time>2026-03-29T13:04:03.005Z</time></trkpt><trkpt lat="45.000555" lon="8.2446833"><ele>163.0</ele><time>2026-03-29T13:04:04.008Z</time></trkpt><trkpt lat="45.0004383" lon="8.24453"><ele>163.0</ele><time>2026-03-29T13:04:05.003Z</time></trkpt><trkpt lat="45.0003267" lon="8.24437"><ele>163.0</ele><time>2026-03-29T13:04:06.005Z</time></trkpt><trkpt lat="45.00021" lon="8.24421"><ele>163.0</ele><time>2026-03-29T13:04:07.009Z</time></trkpt><trkpt lat="45.0000983" lon="8.244045"><ele>163.0</ele><time>2026-03-29T13:04:08.005Z</time></trkpt><trkpt lat="44.9999883" lon="8.2438783"><ele>163.0</ele><time>2026-03-29T13:04:09.004Z</time></trkpt><trkpt lat="44.9998833" lon="8.2437117"><ele>163.33333333333334</ele><time>2026-03-29T13:04:10.005Z</time></trkpt><trkpt lat="44.9997833" lon="8.2435317"><ele>163.66666666666666</ele><time>2026-03-29T13:04:11.009Z</time></trkpt><trkpt lat="44.99969" lon="8.2433433"><ele>164.0</ele><time>2026-03-29T13:04:12.007Z</time></trkpt><trkpt lat="44.999605" lon="8.243145"><ele>164.66666666666666</ele><time>2026-03-29T13:04:13.01Z</time></trkpt><trkpt lat="44.9995167" lon="8.2429483"><ele>165.33333333333334</ele><time>2026-03-29T13:04:14.004Z</time></trkpt><trkpt lat="44.9994333" lon="8.2427517"><ele>166.0</ele><time>2026-03-29T13:04:15.003Z</time></trkpt><trkpt lat="44.9993533" lon="8.2425483"><ele>166.0</ele><time>2026-03-29T13:04:16.009Z</time></trkpt><trkpt lat="44.9992667" lon="8.24235"><ele>166.0</ele><time>2026-03-29T13:04:17.004Z</time></trkpt><trkpt lat="44.9991817" lon="8.24215"><ele>166.0</ele><time>2026-03-29T13:04:18.006Z</time></trkpt><trkpt lat="44.9990983" lon="8.241955"><ele>164.0</ele><time>2026-03-29T13:04:19.009Z</time></trkpt><trkpt lat="44.999015" lon="8.2417567"><ele>162.0</ele><time>2026-03-29T13:04:20.006Z</time></trkpt><trkpt lat="44.99893" lon="8.24156"><ele>160.0</ele><time>2026-03-29T13:04:21.002Z</time></trkpt><trkpt lat="44.9988467" lon="8.2413617"><ele>158.66666666666669</ele><time>2026-03-29T13:04:22.006Z</time></trkpt><trkpt lat="44.9987617" lon="8.241165"><ele>157.33333333333334</ele><time>2026-03-29T13:04:23.003Z</time></trkpt><trkpt lat="44.9986767" lon="8.2409633"><ele>156.0</ele><time>2026-03-29T13:04:24.003Z</time></trkpt><trkpt lat="44.9985983" lon="8.2407517"><ele>156.33333333333334</ele><time>2026-03-29T13:04:25.005Z</time></trkpt><trkpt lat="44.9985133" lon="8.2405533"><ele>156.66666666666669</ele><time>2026-03-29T13:04:26.005Z</time></trkpt><trkpt lat="44.9984333" lon="8.2403467"><ele>157.0</ele><time>2026-03-29T13:04:27.005Z</time></trkpt><trkpt lat="44.9983517" lon="8.2401367"><ele>156.33333333333334</ele><time>2026-03-29T13:04:28.003Z</time></trkpt><trkpt lat="44.9982633" lon="8.239935"><ele>155.66666666666666</ele><time>2026-03-29T13:04:29.005Z</time></trkpt><trkpt lat="44.9981733" lon="8.239735"><ele>155.0</ele><time>2026-03-29T13:04:30.004Z</time></trkpt><trkpt lat="44.9980867" lon="8.2395317"><ele>155.0</ele><time>2026-03-29T13:04:31.004Z</time></trkpt><trkpt lat="44.998" lon="8.23933"><ele>155.0</ele><time>2026-03-29T13:04:32.009Z</time></trkpt><trkpt lat="44.997915" lon="8.23913"><ele>155.0</ele><time>2026-03-29T13:04:33.002Z</time></trkpt><trkpt lat="44.99782" lon="8.2389317"><ele>155.33333333333331</ele><time>2026-03-29T13:04:34.004Z</time></trkpt><trkpt lat="44.9977333" lon="8.2387283"><ele>155.66666666666666</ele><time>2026-03-29T13:04:35.002Z</time></trkpt><trkpt lat="44.9976467" lon="8.2385217"><ele>156.0</ele><time>2026-03-29T13:04:36.01Z</time></trkpt><trkpt lat="44.9975633" lon="8.2383167"><ele>154.66666666666666</ele><time>2026-03-29T13:04:37.004Z</time></trkpt><trkpt lat="44.99748" lon="8.23811"><ele>153.33333333333331</ele><time>2026-03-29T13:04:38.004Z</time></trkpt><trkpt lat="44.9973967" lon="8.2379083"><ele>152.0</ele><time>2026-03-29T13:04:39.004Z</time></trkpt><trkpt lat="44.99731" lon="8.23771"><ele>152.0</ele><time>2026-03-29T13:04:40.004Z</time></trkpt><trkpt lat="44.9972267" lon="8.2375133"><ele>152.0</ele><time>2026-03-29T13:04:41.007Z</time></trkpt><trkpt lat="44.9971433" lon="8.2373133"><ele>152.0</ele><time>2026-03-29T13:04:42.003Z</time></trkpt><trkpt lat="44.9970633" lon="8.23712"><ele>152.0</ele><time>2026-03-29T13:04:43.005Z</time></trkpt><trkpt lat="44.9969733" lon="8.23693"><ele>152.0</ele><time>2026-03-29T13:04:44.003Z</time></trkpt><trkpt lat="44.9968833" lon="8.23674"><ele>152.0</ele><time>2026-03-29T13:04:45.006Z</time></trkpt><trkpt lat="44.9967967" lon="8.2365467"><ele>152.0</ele><time>2026-03-29T13:04:46.005Z</time></trkpt><trkpt lat="44.996715" lon="8.2363483"><ele>152.0</ele><time>2026-03-29T13:04:47.001Z</time></trkpt><trkpt lat="44.9966317" lon="8.2361433"><ele>152.0</ele><time>2026-03-29T13:04:48.005Z</time></trkpt><trkpt lat="44.9965533" lon="8.235935"><ele>152.0</ele><time>2026-03-29T13:04:49.003Z</time></trkpt><trkpt lat="44.9964683" lon="8.2357233"><ele>152.0</ele><time>2026-03-29T13:04:50.006Z</time></trkpt><trkpt lat="44.9963783" lon="8.2355117"><ele>152.0</ele><time>2026-03-29T13:04:51.005Z</time></trkpt><trkpt lat="44.99629" lon="8.2352983"><ele>151.66666666666666</ele><time>2026-03-29T13:04:52.007Z</time></trkpt><trkpt lat="44.9962033" lon="8.2350817"><ele>151.33333333333334</ele><time>2026-03-29T13:04:53.005Z</time></trkpt><trkpt lat="44.9961133" lon="8.2348683"><ele>151.0</ele><time>2026-03-29T13:04:54.005Z</time></trkpt><trkpt lat="44.9960233" lon="8.234655"><ele>151.0</ele><time>2026-03-29T13:04:55.012Z</time></trkpt><trkpt lat="44.9959367" lon="8.2344383"><ele>151.0</ele><time>2026-03-29T13:04:56.008Z</time></trkpt><trkpt lat="44.9958533" lon="8.234225"><ele>151.0</ele><time>2026-03-29T13:04:57.003Z</time></trkpt><trkpt lat="44.9957667" lon="8.2340167"><ele>151.0</ele><time>2026-03-29T13:04:58.005Z</time></trkpt><trkpt lat="44.9956817" lon="8.2338067"><ele>151.0</ele><time>2026-03-29T13:04:59.002Z</time></trkpt><trkpt lat="44.9955933" lon="8.2336017"><ele>151.0</ele><time>2026-03-29T13:05:00.009Z</time></trkpt><trkpt lat="44.9955" lon="8.2334017"><ele>151.0</ele><time>2026-03-29T13:05:01.004Z</time></trkpt><trkpt lat="44.9954033" lon="8.2332083"><ele>151.0</ele><time>2026-03-29T13:05:02.004Z</time></trkpt><trkpt lat="44.9953033" lon="8.233015"><ele>151.0</ele><time>2026-03-29T13:05:03.007Z</time></trkpt><trkpt lat="44.9952017" lon="8.2328317"><ele>150.66666666666669</ele><time>2026-03-29T13:05:04.003Z</time></trkpt><trkpt lat="44.9950933" lon="8.232655"><ele>150.33333333333334</ele><time>2026-03-29T13:05:05.005Z</time></trkpt><trkpt lat="44.9949817" lon="8.232485"><ele>150.0</ele><time>2026-03-29T13:05:06.004Z</time></trkpt><trkpt lat="44.9948683" lon="8.232315"><ele>149.66666666666666</ele><time>2026-03-29T13:05:07.005Z</time></trkpt><trkpt lat="44.9947467" lon="8.2321417"><ele>149.33333333333331</ele><time>2026-03-29T13:05:08.006Z</time></trkpt><trkpt lat="44.99462" lon="8.2319683"><ele>149.0</ele><time>2026-03-29T13:05:09.004Z</time></trkpt><trkpt lat="44.99449" lon="8.231795"><ele>149.0</ele><time>2026-03-29T13:05:10.007Z</time></trkpt><trkpt lat="44.9943617" lon="8.23162"><ele>149.0</ele><time>2026-03-29T13:05:11.006Z</time></trkpt><trkpt lat="44.9942383" lon="8.2314483"><ele>149.0</ele><time>2026-03-29T13:05:12.004Z</time></trkpt><trkpt lat="44.99411" lon="8.23128"><ele>148.66666666666666</ele><time>2026-03-29T13:05:13.007Z</time></trkpt><trkpt lat="44.993985" lon="8.2311083"><ele>148.33333333333334</ele><time>2026-03-29T13:05:14.003Z</time></trkpt><trkpt lat="44.9938583" lon="8.2309417"><ele>148.0</ele><time>2026-03-29T13:05:15.005Z</time></trkpt><trkpt lat="44.993735" lon="8.2307783"><ele>147.66666666666669</ele><time>2026-03-29T13:05:16.004Z</time></trkpt><trkpt lat="44.9936117" lon="8.2306217"><ele>147.33333333333334</ele><time>2026-03-29T13:05:17.006Z</time></trkpt><trkpt lat="44.9934883" lon="8.2304633"><ele>147.0</ele><time>2026-03-29T13:05:18.006Z</time></trkpt><trkpt lat="44.9933683" lon="8.2303067"><ele>147.33333333333334</ele><time>2026-03-29T13:05:19.003Z</time></trkpt><trkpt lat="44.9932517" lon="8.2301467"><ele>147.66666666666669</ele><time>2026-03-29T13:05:20.004Z</time></trkpt><trkpt lat="44.9931283" lon="8.2299867"><ele>148.0</ele><time>2026-03-29T13:05:21.004Z</time></trkpt><trkpt lat="44.9930067" lon="8.2298283"><ele>147.33333333333334</ele><time>2026-03-29T13:05:22.004Z</time></trkpt><trkpt lat="44.9928833" lon="8.2296683"><ele>146.66666666666666</ele><time>2026-03-29T13:05:23.003Z</time></trkpt><trkpt lat="44.9927583" lon="8.2295083"><ele>146.0</ele><time>2026-03-29T13:05:24.003Z</time></trkpt><trkpt lat="44.99262" lon="8.229345"><ele>146.33333333333331</ele><time>2026-03-29T13:05:25.006Z</time></trkpt><trkpt lat="44.9924933" lon="8.229185"><ele>146.66666666666666</ele><time>2026-03-29T13:05:26.006Z</time></trkpt><trkpt lat="44.9923683" lon="8.2290233"><ele>147.0</ele><time>2026-03-29T13:05:27.003Z</time></trkpt><trkpt lat="44.9922433" lon="8.2288633"><ele>146.33333333333334</ele><time>2026-03-29T13:05:28.003Z</time></trkpt><trkpt lat="44.9921183" lon="8.228705"><ele>145.66666666666669</ele><time>2026-03-29T13:05:29.005Z</time></trkpt><trkpt lat="44.99199" lon="8.22855"><ele>145.0</ele><time>2026-03-29T13:05:30.003Z</time></trkpt><trkpt lat="44.9918683" lon="8.2283967"><ele>145.0</ele><time>2026-03-29T13:05:31.005Z</time></trkpt><trkpt lat="44.99174" lon="8.2282417"><ele>145.0</ele><time>2026-03-29T13:05:32.002Z</time></trkpt><trkpt lat="44.991615" lon="8.2280867"><ele>145.0</ele><time>2026-03-29T13:05:33.007Z</time></trkpt><trkpt lat="44.99149" lon="8.2279367"><ele>144.33333333333334</ele><time>2026-03-29T13:05:34.005Z</time></trkpt><trkpt lat="44.9913717" lon="8.2277883"><ele>143.66666666666666</ele><time>2026-03-29T13:05:35.008Z</time></trkpt><trkpt lat="44.991255" lon="8.2276417"><ele>143.0</ele><time>2026-03-29T13:05:36.006Z</time></trkpt><trkpt lat="44.9911317" lon="8.2274967"><ele>143.0</ele><time>2026-03-29T13:05:37.006Z</time></trkpt><trkpt lat="44.9910117" lon="8.2273467"><ele>143.0</ele><time>2026-03-29T13:05:38.002Z</time></trkpt><trkpt lat="44.9908933" lon="8.2272"><ele>143.0</ele><time>2026-03-29T13:05:39.005Z</time></trkpt><trkpt lat="44.9907767" lon="8.22706"><ele>143.0</ele><time>2026-03-29T13:05:40.002Z</time></trkpt><trkpt lat="44.9906617" lon="8.2269167"><ele>143.0</ele><time>2026-03-29T13:05:41.006Z</time></trkpt><trkpt lat="44.9905483" lon="8.2267717"><ele>143.0</ele><time>2026-03-29T13:05:42.004Z</time></trkpt><trkpt lat="44.9904367" lon="8.226625"><ele>143.0</ele><time>2026-03-29T13:05:43.002Z</time></trkpt><trkpt lat="44.99032" lon="8.22648"><ele>143.0</ele><time>2026-03-29T13:05:44.003Z</time></trkpt><trkpt lat="44.9902067" lon="8.226335"><ele>143.0</ele><time>2026-03-29T13:05:45.005Z</time></trkpt><trkpt lat="44.990095" lon="8.2261917"><ele>142.5</ele><time>2026-03-29T13:05:46.005Z</time></trkpt><trkpt lat="44.9899867" lon="8.2260483"><ele>142.0</ele><time>2026-03-29T13:05:47.003Z</time></trkpt><trkpt lat="44.9898767" lon="8.225905"><ele>141.5</ele><time>2026-03-29T13:05:48Z</time></trkpt><trkpt lat="44.9897683" lon="8.225765"><ele>141.0</ele><time>2026-03-29T13:05:49.003Z</time></trkpt><trkpt lat="44.98966" lon="8.2256267"><ele>141.0</ele><time>2026-03-29T13:05:50.003Z</time></trkpt><trkpt lat="44.9895567" lon="8.2254917"><ele>141.0</ele><time>2026-03-29T13:05:51.009Z</time></trkpt><trkpt lat="44.9894533" lon="8.2253567"><ele>141.0</ele><time>2026-03-29T13:05:52.003Z</time></trkpt><trkpt lat="44.9893483" lon="8.2252233"><ele>141.0</ele><time>2026-03-29T13:05:53.006Z</time></trkpt><trkpt lat="44.9892433" lon="8.22509"><ele>140.5</ele><time>2026-03-29T13:05:54.005Z</time></trkpt><trkpt lat="44.98914" lon="8.224955"><ele>140.0</ele><time>2026-03-29T13:05:55.005Z</time></trkpt><trkpt lat="44.989035" lon="8.2248217"><ele>139.5</ele><time>2026-03-29T13:05:56.002Z</time></trkpt><trkpt lat="44.9889267" lon="8.22469"><ele>139.0</ele><time>2026-03-29T13:05:57.01Z</time></trkpt><trkpt lat="44.9888217" lon="8.224565"><ele>139.0</ele><time>2026-03-29T13:05:58.002Z</time></trkpt><trkpt lat="44.9887133" lon="8.22445"><ele>139.0</ele><time>2026-03-29T13:05:59.006Z</time></trkpt><trkpt lat="44.9886033" lon="8.2243483"><ele>139.0</ele><time>2026-03-29T13:06:00.006Z</time></trkpt><trkpt lat="44.988485" lon="8.2242583"><ele>139.0</ele><time>2026-03-29T13:06:01.006Z</time></trkpt><trkpt lat="44.9883617" lon="8.224175"><ele>139.0</ele><time>2026-03-29T13:06:02.008Z</time></trkpt><trkpt lat="44.9882433" lon="8.2240967"><ele>139.0</ele><time>2026-03-29T13:06:03.002Z</time></trkpt><trkpt lat="44.9881167" lon="8.2240383"><ele>139.0</ele><time>2026-03-29T13:06:04.003Z</time></trkpt><trkpt lat="44.9879867" lon="8.2239983"><ele>139.0</ele><time>2026-03-29T13:06:05.008Z</time></trkpt><trkpt lat="44.9878483" lon="8.223975"><ele>139.0</ele><time>2026-03-29T13:06:06.002Z</time></trkpt><trkpt lat="44.98771" lon="8.2239667"><ele>139.0</ele><time>2026-03-29T13:06:07.003Z</time></trkpt><trkpt lat="44.98757" lon="8.2239683"><ele>139.0</ele><time>2026-03-29T13:06:08.003Z</time></trkpt><trkpt lat="44.9874317" lon="8.22398"><ele>139.0</ele><time>2026-03-29T13:06:09.005Z</time></trkpt><trkpt lat="44.9872933" lon="8.2240017"><ele>139.5</ele><time>2026-03-29T13:06:10.004Z</time></trkpt><trkpt lat="44.98716" lon="8.22404"><ele>140.0</ele><time>2026-03-29T13:06:11.003Z</time></trkpt><trkpt lat="44.9870317" lon="8.2240867"><ele>140.5</ele><time>2026-03-29T13:06:12.005Z</time></trkpt><trkpt lat="44.9869033" lon="8.2241367"><ele>141.0</ele><time>2026-03-29T13:06:13.006Z</time></trkpt><trkpt lat="44.9867717" lon="8.224185"><ele>141.0</ele><time>2026-03-29T13:06:14.001Z</time></trkpt><trkpt lat="44.98664" lon="8.2242283"><ele>141.0</ele><time>2026-03-29T13:06:15.005Z</time></trkpt><trkpt lat="44.9865133" lon="8.2242717"><ele>141.0</ele><time>2026-03-29T13:06:16.003Z</time></trkpt><trkpt lat="44.9863867" lon="8.2243183"><ele>141.0</ele><time>2026-03-29T13:06:17.005Z</time></trkpt><trkpt lat="44.98626" lon="8.2243633"><ele>141.0</ele><time>2026-03-29T13:06:18.007Z</time></trkpt><trkpt lat="44.9861333" lon="8.2243967"><ele>141.0</ele><time>2026-03-29T13:06:19.004Z</time></trkpt><trkpt lat="44.9860083" lon="8.2244417"><ele>141.0</ele><time>2026-03-29T13:06:20.002Z</time></trkpt><trkpt lat="44.9858817" lon="8.224485"><ele>141.0</ele><time>2026-03-29T13:06:21.011Z</time></trkpt><trkpt lat="44.9857533" lon="8.2245283"><ele>140.5</ele><time>2026-03-29T13:06:22.007Z</time></trkpt><trkpt lat="44.98562" lon="8.2245767"><ele>140.0</ele><time>2026-03-29T13:06:23.004Z</time></trkpt><trkpt lat="44.9854867" lon="8.224615"><ele>139.5</ele><time>2026-03-29T13:06:24.009Z</time></trkpt><trkpt lat="44.9853533" lon="8.2246617"><ele>139.0</ele><time>2026-03-29T13:06:25.005Z</time></trkpt><trkpt lat="44.985215" lon="8.22471"><ele>139.0</ele><time>2026-03-29T13:06:26.003Z</time></trkpt><trkpt lat="44.985075" lon="8.224755"><ele>139.0</ele><time>2026-03-29T13:06:27.002Z</time></trkpt><trkpt lat="44.9849317" lon="8.2248033"><ele>139.0</ele><time>2026-03-29T13:06:28.005Z</time></trkpt><trkpt lat="44.9847917" lon="8.2248517"><ele>139.0</ele><time>2026-03-29T13:06:29.003Z</time></trkpt><trkpt lat="44.9846483" lon="8.2249017"><ele>138.5</ele><time>2026-03-29T13:06:30.004Z</time></trkpt><trkpt lat="44.98451" lon="8.2249517"><ele>138.0</ele><time>2026-03-29T13:06:31.002Z</time></trkpt><trkpt lat="44.9843767" lon="8.224995"><ele>137.5</ele><time>2026-03-29T13:06:32.004Z</time></trkpt><trkpt lat="44.984245" lon="8.2250383"><ele>137.0</ele><time>2026-03-29T13:06:33.003Z</time></trkpt><trkpt lat="44.9841117" lon="8.2250867"><ele>137.0</ele><time>2026-03-29T13:06:34.007Z</time></trkpt><trkpt lat="44.9839783" lon="8.225135"><ele>137.0</ele><time>2026-03-29T13:06:35.002Z</time></trkpt><trkpt lat="44.983845" lon="8.2251833"><ele>137.0</ele><time>2026-03-29T13:06:36.002Z</time></trkpt><trkpt lat="44.9837117" lon="8.2252283"><ele>137.0</ele><time>2026-03-29T13:06:37.002Z</time></trkpt><trkpt lat="44.9835783" lon="8.22527"><ele>137.0</ele><time>2026-03-29T13:06:38.008Z</time></trkpt><trkpt lat="44.98344" lon="8.2253133"><ele>137.0</ele><time>2026-03-29T13:06:39.007Z</time></trkpt><trkpt lat="44.9833033" lon="8.22536"><ele>137.0</ele><time>2026-03-29T13:06:40.003Z</time></trkpt><trkpt lat="44.9831683" lon="8.2254067"><ele>137.0</ele><time>2026-03-29T13:06:41.009Z</time></trkpt><trkpt lat="44.9830283" lon="8.2254467"><ele>137.25</ele><time>2026-03-29T13:06:42.007Z</time></trkpt><trkpt lat="44.98289" lon="8.2254883"><ele>137.5</ele><time>2026-03-29T13:06:43.004Z</time></trkpt><trkpt lat="44.98275" lon="8.2255317"><ele>137.75</ele><time>2026-03-29T13:06:44.001Z</time></trkpt><trkpt lat="44.9826083" lon="8.2255767"><ele>138.0</ele><time>2026-03-29T13:06:45.006Z</time></trkpt><trkpt lat="44.9824617" lon="8.2256267"><ele>138.0</ele><time>2026-03-29T13:06:46.005Z</time></trkpt><trkpt lat="44.9823167" lon="8.2256783"><ele>138.0</ele><time>2026-03-29T13:06:47.004Z</time></trkpt><trkpt lat="44.98217" lon="8.22573"><ele>138.0</ele><time>2026-03-29T13:06:48.011Z</time></trkpt><trkpt lat="44.982025" lon="8.2257817"><ele>138.0</ele><time>2026-03-29T13:06:49.007Z</time></trkpt><trkpt lat="44.98188" lon="8.2258333"><ele>138.0</ele><time>2026-03-29T13:06:50.003Z</time></trkpt><trkpt lat="44.981735" lon="8.2258833"><ele>138.0</ele><time>2026-03-29T13:06:51.005Z</time></trkpt><trkpt lat="44.9815883" lon="8.2259317"><ele>138.0</ele><time>2026-03-29T13:06:52.005Z</time></trkpt><trkpt lat="44.98145" lon="8.2259783"><ele>138.0</ele><time>2026-03-29T13:06:53.003Z</time></trkpt><trkpt lat="44.9813233" lon="8.22602"><ele>138.0</ele><time>2026-03-29T13:06:54.003Z</time></trkpt><trkpt lat="44.9811917" lon="8.2260583"><ele>138.0</ele><time>2026-03-29T13:06:55.013Z</time></trkpt><trkpt lat="44.9810567" lon="8.226105"><ele>138.0</ele><time>2026-03-29T13:06:56.003Z</time></trkpt><trkpt lat="44.9809183" lon="8.2261533"><ele>137.5</ele><time>2026-03-29T13:06:57.003Z</time></trkpt><trkpt lat="44.9807783" lon="8.2262"><ele>137.0</ele><time>2026-03-29T13:06:58.004Z</time></trkpt><trkpt lat="44.9806383" lon="8.226245"><ele>136.5</ele><time>2026-03-29T13:06:59.005Z</time></trkpt><trkpt lat="44.9804967" lon="8.2262883"><ele>136.0</ele><time>2026-03-29T13:07:00.009Z</time></trkpt><trkpt lat="44.9803583" lon="8.226335"><ele>136.0</ele><time>2026-03-29T13:07:01.005Z</time></trkpt><trkpt lat="44.98022" lon="8.2263817"><ele>136.0</ele><time>2026-03-29T13:07:02.006Z</time></trkpt><trkpt lat="44.9800833" lon="8.22643"><ele>136.0</ele><time>2026-03-29T13:07:03.005Z</time></trkpt><trkpt lat="44.9799433" lon="8.226475"><ele>136.0</ele><time>2026-03-29T13:07:04.005Z</time></trkpt><trkpt lat="44.9798067" lon="8.2265217"><ele>136.5</ele><time>2026-03-29T13:07:05.004Z</time></trkpt><trkpt lat="44.9796733" lon="8.2265667"><ele>137.0</ele><time>2026-03-29T13:07:06.006Z</time></trkpt><trkpt lat="44.9795383" lon="8.22661"><ele>137.5</ele><time>2026-03-29T13:07:07.004Z</time></trkpt><trkpt lat="44.9794083" lon="8.2266517"><ele>138.0</ele><time>2026-03-29T13:07:08.005Z</time></trkpt><trkpt lat="44.9792767" lon="8.2266917"><ele>138.0</ele><time>2026-03-29T13:07:09.008Z</time></trkpt><trkpt lat="44.9791417" lon="8.226735"><ele>138.0</ele><time>2026-03-29T13:07:10.006Z</time></trkpt><trkpt lat="44.9790117" lon="8.2267833"><ele>138.0</ele><time>2026-03-29T13:07:11.008Z</time></trkpt><trkpt lat="44.97888" lon="8.226835"><ele>138.0</ele><time>2026-03-29T13:07:12.007Z</time></trkpt><trkpt lat="44.9787467" lon="8.2268833"><ele>138.0</ele><time>2026-03-29T13:07:13.004Z</time></trkpt><trkpt lat="44.978615" lon="8.22693"><ele>138.0</ele><time>2026-03-29T13:07:14.006Z</time></trkpt><trkpt lat="44.9784817" lon="8.2269733"><ele>138.0</ele><time>2026-03-29T13:07:15.01Z</time></trkpt><trkpt lat="44.97835" lon="8.2270183"><ele>138.0</ele><time>2026-03-29T13:07:16.004Z</time></trkpt><trkpt lat="44.978225" lon="8.2270633"><ele>137.5</ele><time>2026-03-29T13:07:17.007Z</time></trkpt><trkpt lat="44.9780933" lon="8.227105"><ele>137.0</ele><time>2026-03-29T13:07:18.007Z</time></trkpt><trkpt lat="44.9779583" lon="8.2271533"><ele>136.5</ele><time>2026-03-29T13:07:19.007Z</time></trkpt><trkpt lat="44.9778217" lon="8.2272"><ele>136.0</ele><time>2026-03-29T13:07:20.004Z</time></trkpt><trkpt lat="44.9776883" lon="8.2272483"><ele>136.0</ele><time>2026-03-29T13:07:21.006Z</time></trkpt><trkpt lat="44.977555" lon="8.227295"><ele>136.0</ele><time>2026-03-29T13:07:22.003Z</time></trkpt><trkpt lat="44.9774233" lon="8.2273417"><ele>136.0</ele><time>2026-03-29T13:07:23.004Z</time></trkpt><trkpt lat="44.9772917" lon="8.2273867"><ele>136.0</ele><time>2026-03-29T13:07:24.008Z</time></trkpt><trkpt lat="44.977145" lon="8.2274333"><ele>135.66666666666669</ele><time>2026-03-29T13:07:25.008Z</time></trkpt><trkpt lat="44.977" lon="8.2274767"><ele>135.33333333333334</ele><time>2026-03-29T13:07:26.005Z</time></trkpt><trkpt lat="44.9768517" lon="8.227525"><ele>135.0</ele><time>2026-03-29T13:07:27.012Z</time></trkpt><trkpt lat="44.9767" lon="8.22757"><ele>135.66666666666666</ele><time>2026-03-29T13:07:28.003Z</time></trkpt><trkpt lat="44.9765517" lon="8.2276133"><ele>136.33333333333331</ele><time>2026-03-29T13:07:29.002Z</time></trkpt><trkpt lat="44.9764" lon="8.2276683"><ele>137.0</ele><time>2026-03-29T13:07:30.007Z</time></trkpt><trkpt lat="44.9762417" lon="8.2277233"><ele>137.0</ele><time>2026-03-29T13:07:31.006Z</time></trkpt><trkpt lat="44.9760817" lon="8.227775"><ele>137.0</ele><time>2026-03-29T13:07:32.003Z</time></trkpt><trkpt lat="44.9759217" lon="8.2278283"><ele>137.0</ele><time>2026-03-29T13:07:32.999Z</time></trkpt><trkpt lat="44.9757667" lon="8.22788"><ele>136.66666666666666</ele><time>2026-03-29T13:07:34.012Z</time></trkpt><trkpt lat="44.9756117" lon="8.2279267"><ele>136.33333333333334</ele><time>2026-03-29T13:07:35.008Z</time></trkpt><trkpt lat="44.9754617" lon="8.2279733"><ele>136.0</ele><time>2026-03-29T13:07:36.003Z</time></trkpt><trkpt lat="44.97531" lon="8.2280233"><ele>136.0</ele><time>2026-03-29T13:07:37.014Z</time></trkpt><trkpt lat="44.9751583" lon="8.2280783"><ele>136.0</ele><time>2026-03-29T13:07:38.004Z</time></trkpt><trkpt lat="44.9750083" lon="8.2281317"><ele>136.0</ele><time>2026-03-29T13:07:39.005Z</time></trkpt><trkpt lat="44.97486" lon="8.2281817"><ele>136.0</ele><time>2026-03-29T13:07:40.007Z</time></trkpt><trkpt lat="44.9747167" lon="8.2282333"><ele>136.0</ele><time>2026-03-29T13:07:41.006Z</time></trkpt><trkpt lat="44.9745733" lon="8.2282833"><ele>136.0</ele><time>2026-03-29T13:07:42Z</time></trkpt><trkpt lat="44.9744267" lon="8.2283283"><ele>136.0</ele><time>2026-03-29T13:07:43.002Z</time></trkpt><trkpt lat="44.9742817" lon="8.2283767"><ele>135.75</ele><time>2026-03-29T13:07:44.006Z</time></trkpt><trkpt lat="44.97414" lon="8.228425"><ele>135.5</ele><time>2026-03-29T13:07:45.006Z</time></trkpt><trkpt lat="44.9739967" lon="8.2284733"><ele>135.25</ele><time>2026-03-29T13:07:46.006Z</time></trkpt><trkpt lat="44.9738467" lon="8.22852"><ele>135.0</ele><time>2026-03-29T13:07:47.005Z</time></trkpt><trkpt lat="44.9736933" lon="8.2285717"><ele>135.0</ele><time>2026-03-29T13:07:48.007Z</time></trkpt><trkpt lat="44.9735333" lon="8.2286083"><ele>135.0</ele><time>2026-03-29T13:07:49.007Z</time></trkpt><trkpt lat="44.97337" lon="8.2286283"><ele>135.0</ele><time>2026-03-29T13:07:50.008Z</time></trkpt><trkpt lat="44.973205" lon="8.2286317"><ele>136.0</ele><time>2026-03-29T13:07:51.003Z</time></trkpt><trkpt lat="44.9730383" lon="8.228615"><ele>137.0</ele><time>2026-03-29T13:07:52.005Z</time></trkpt><trkpt lat="44.9728717" lon="8.2285817"><ele>138.0</ele><time>2026-03-29T13:07:53.004Z</time></trkpt><trkpt lat="44.972705" lon="8.2285383"><ele>138.0</ele><time>2026-03-29T13:07:54.008Z</time></trkpt><trkpt lat="44.972535" lon="8.22849"><ele>138.0</ele><time>2026-03-29T13:07:55.006Z</time></trkpt><trkpt lat="44.9723633" lon="8.2284317"><ele>138.0</ele><time>2026-03-29T13:07:56.007Z</time></trkpt><trkpt lat="44.9721983" lon="8.228375"><ele>138.0</ele><time>2026-03-29T13:07:57.004Z</time></trkpt><trkpt lat="44.97203" lon="8.2283183"><ele>138.0</ele><time>2026-03-29T13:07:58.002Z</time></trkpt><trkpt lat="44.9718617" lon="8.2282617"><ele>138.0</ele><time>2026-03-29T13:07:59.007Z</time></trkpt><trkpt lat="44.9716983" lon="8.2282067"><ele>137.33333333333334</ele><time>2026-03-29T13:08:00.005Z</time></trkpt><trkpt lat="44.971535" lon="8.228155"><ele>136.66666666666669</ele><time>2026-03-29T13:08:01.004Z</time></trkpt><trkpt lat="44.9713683" lon="8.2281083"><ele>136.0</ele><time>2026-03-29T13:08:02.007Z</time></trkpt><trkpt lat="44.9711983" lon="8.2280583"><ele>136.0</ele><time>2026-03-29T13:08:03.004Z</time></trkpt><trkpt lat="44.9710317" lon="8.2280067"><ele>136.0</ele><time>2026-03-29T13:08:04.001Z</time></trkpt><trkpt lat="44.9708733" lon="8.22795"><ele>136.0</ele><time>2026-03-29T13:08:05.007Z</time></trkpt><trkpt lat="44.970715" lon="8.2278967"><ele>135.66666666666669</ele><time>2026-03-29T13:08:06.002Z</time></trkpt><trkpt lat="44.9705533" lon="8.2278467"><ele>135.33333333333334</ele><time>2026-03-29T13:08:07.005Z</time></trkpt><trkpt lat="44.9703983" lon="8.2277983"><ele>135.0</ele><time>2026-03-29T13:08:08.006Z</time></trkpt><trkpt lat="44.9702417" lon="8.22775"><ele>135.0</ele><time>2026-03-29T13:08:09.005Z</time></trkpt><trkpt lat="44.9700883" lon="8.2276983"><ele>135.0</ele><time>2026-03-29T13:08:10.008Z</time></trkpt><trkpt lat="44.9699333" lon="8.2276467"><ele>135.0</ele><time>2026-03-29T13:08:11.004Z</time></trkpt><trkpt lat="44.9697783" lon="8.2275967"><ele>135.0</ele><time>2026-03-29T13:08:12.003Z</time></trkpt><trkpt lat="44.9696217" lon="8.227545"><ele>135.0</ele><time>2026-03-29T13:08:13.006Z</time></trkpt><trkpt lat="44.969465" lon="8.2274917"><ele>135.0</ele><time>2026-03-29T13:08:14.006Z</time></trkpt><trkpt lat="44.96931" lon="8.2274383"><ele>134.66666666666666</ele><time>2026-03-29T13:08:15.003Z</time></trkpt><trkpt lat="44.96916" lon="8.227385"><ele>134.33333333333331</ele><time>2026-03-29T13:08:16.006Z</time></trkpt><trkpt lat="44.96901" lon="8.2273367"><ele>134.0</ele><time>2026-03-29T13:08:17.003Z</time></trkpt><trkpt lat="44.9688617" lon="8.2272883"><ele>134.0</ele><time>2026-03-29T13:08:18.003Z</time></trkpt><trkpt lat="44.9687133" lon="8.22724"><ele>134.0</ele><time>2026-03-29T13:08:19.008Z</time></trkpt><trkpt lat="44.968565" lon="8.2271883"><ele>134.0</ele><time>2026-03-29T13:08:20.007Z</time></trkpt><trkpt lat="44.9684183" lon="8.22714"><ele>134.66666666666666</ele><time>2026-03-29T13:08:21.004Z</time></trkpt><trkpt lat="44.968265" lon="8.2270917"><ele>135.33333333333334</ele><time>2026-03-29T13:08:22.003Z</time></trkpt><trkpt lat="44.9681133" lon="8.227045"><ele>136.0</ele><time>2026-03-29T13:08:23.007Z</time></trkpt><trkpt lat="44.9679583" lon="8.2269883"><ele>136.0</ele><time>2026-03-29T13:08:24.004Z</time></trkpt><trkpt lat="44.9677983" lon="8.22693"><ele>136.0</ele><time>2026-03-29T13:08:25.004Z</time></trkpt><trkpt lat="44.9676267" lon="8.2268683"><ele>136.0</ele><time>2026-03-29T13:08:26.003Z</time></trkpt><trkpt lat="44.9674483" lon="8.22681"><ele>135.0</ele><time>2026-03-29T13:08:27.008Z</time></trkpt><trkpt lat="44.96727" lon="8.2267517"><ele>134.0</ele><time>2026-03-29T13:08:28.001Z</time></trkpt><trkpt lat="44.9670933" lon="8.22669"><ele>133.0</ele><time>2026-03-29T13:08:29.007Z</time></trkpt><trkpt lat="44.966925" lon="8.22663"><ele>133.0</ele><time>2026-03-29T13:08:30.005Z</time></trkpt><trkpt lat="44.9667583" lon="8.2265733"><ele>133.0</ele><time>2026-03-29T13:08:31.005Z</time></trkpt><trkpt lat="44.9665917" lon="8.2265183"><ele>133.0</ele><time>2026-03-29T13:08:32.003Z</time></trkpt><trkpt lat="44.9664283" lon="8.2264617"><ele>133.0</ele><time>2026-03-29T13:08:33.01Z</time></trkpt><trkpt lat="44.9662733" lon="8.2264083"><ele>133.0</ele><time>2026-03-29T13:08:34.004Z</time></trkpt><trkpt lat="44.966115" lon="8.2263633"><ele>133.0</ele><time>2026-03-29T13:08:35.005Z</time></trkpt><trkpt lat="44.965955" lon="8.2263233"><ele>131.66666666666669</ele><time>2026-03-29T13:08:36.005Z</time></trkpt><trkpt lat="44.9657983" lon="8.22628"><ele>130.33333333333334</ele><time>2026-03-29T13:08:37.007Z</time></trkpt><trkpt lat="44.9656467" lon="8.2262333"><ele>129.0</ele><time>2026-03-29T13:08:38.005Z</time></trkpt><trkpt lat="44.9654983" lon="8.2261833"><ele>129.0</ele><time>2026-03-29T13:08:39.008Z</time></trkpt><trkpt lat="44.96535" lon="8.2261383"><ele>129.0</ele><time>2026-03-29T13:08:40.007Z</time></trkpt><trkpt lat="44.9652083" lon="8.22609"><ele>129.0</ele><time>2026-03-29T13:08:41.007Z</time></trkpt><trkpt lat="44.965065" lon="8.226045"><ele>129.0</ele><time>2026-03-29T13:08:42.008Z</time></trkpt><trkpt lat="44.9649217" lon="8.226"><ele>129.75</ele><time>2026-03-29T13:08:43.004Z</time></trkpt><trkpt lat="44.9647783" lon="8.225955"><ele>130.5</ele><time>2026-03-29T13:08:44.006Z</time></trkpt><trkpt lat="44.9646367" lon="8.2259083"><ele>131.25</ele><time>2026-03-29T13:08:45.003Z</time></trkpt><trkpt lat="44.9644983" lon="8.2258633"><ele>132.0</ele><time>2026-03-29T13:08:46.005Z</time></trkpt><trkpt lat="44.9643667" lon="8.22582"><ele>132.0</ele><time>2026-03-29T13:08:47.004Z</time></trkpt><trkpt lat="44.9642383" lon="8.22578"><ele>132.0</ele><time>2026-03-29T13:08:48.002Z</time></trkpt><trkpt lat="44.9641083" lon="8.22574"><ele>132.0</ele><time>2026-03-29T13:08:49.004Z</time></trkpt><trkpt lat="44.963975" lon="8.2257017"><ele>132.0</ele><time>2026-03-29T13:08:50.004Z</time></trkpt><trkpt lat="44.9638417" lon="8.2256633"><ele>132.75</ele><time>2026-03-29T13:08:51.008Z</time></trkpt><trkpt lat="44.96371" lon="8.2256217"><ele>133.5</ele><time>2026-03-29T13:08:52.002Z</time></trkpt><trkpt lat="44.96358" lon="8.2255817"><ele>134.25</ele><time>2026-03-29T13:08:53.007Z</time></trkpt><trkpt lat="44.96345" lon="8.22554"><ele>135.0</ele><time>2026-03-29T13:08:54.004Z</time></trkpt><trkpt lat="44.96332" lon="8.2254967"><ele>135.0</ele><time>2026-03-29T13:08:55.005Z</time></trkpt><trkpt lat="44.9631883" lon="8.2254517"><ele>135.0</ele><time>2026-03-29T13:08:56.006Z</time></trkpt><trkpt lat="44.96306" lon="8.2254067"><ele>135.0</ele><time>2026-03-29T13:08:57.003Z</time></trkpt><trkpt lat="44.9629317" lon="8.225365"><ele>135.0</ele><time>2026-03-29T13:08:57.999Z</time></trkpt><trkpt lat="44.9628" lon="8.2253217"><ele>135.0</ele><time>2026-03-29T13:08:59.007Z</time></trkpt><trkpt lat="44.9626717" lon="8.22528"><ele>135.0</ele><time>2026-03-29T13:09:00.006Z</time></trkpt><trkpt lat="44.9625417" lon="8.2252367"><ele>135.0</ele><time>2026-03-29T13:09:01.008Z</time></trkpt><trkpt lat="44.9624083" lon="8.2251933"><ele>135.0</ele><time>2026-03-29T13:09:02.002Z</time></trkpt><trkpt lat="44.9622783" lon="8.2251467"><ele>134.75</ele><time>2026-03-29T13:09:03.013Z</time></trkpt><trkpt lat="44.9621483" lon="8.2251033"><ele>134.5</ele><time>2026-03-29T13:09:04.007Z</time></trkpt><trkpt lat="44.9620167" lon="8.2250633"><ele>134.25</ele><time>2026-03-29T13:09:05.003Z</time></trkpt><trkpt lat="44.961885" lon="8.2250217"><ele>134.0</ele><time>2026-03-29T13:09:06.004Z</time></trkpt><trkpt lat="44.961755" lon="8.2249817"><ele>134.25</ele><time>2026-03-29T13:09:07.008Z</time></trkpt><trkpt lat="44.9616183" lon="8.2249417"><ele>134.5</ele><time>2026-03-29T13:09:08.003Z</time></trkpt><trkpt lat="44.96148" lon="8.2249"><ele>134.75</ele><time>2026-03-29T13:09:09.005Z</time></trkpt><trkpt lat="44.961345" lon="8.224855"><ele>135.0</ele><time>2026-03-29T13:09:10.004Z</time></trkpt><trkpt lat="44.96121" lon="8.2248167"><ele>135.0</ele><time>2026-03-29T13:09:11.003Z</time></trkpt><trkpt lat="44.9610733" lon="8.224775"><ele>135.0</ele><time>2026-03-29T13:09:12.008Z</time></trkpt><trkpt lat="44.960935" lon="8.2247333"><ele>135.0</ele><time>2026-03-29T13:09:13.007Z</time></trkpt><trkpt lat="44.9607983" lon="8.2246883"><ele>135.0</ele><time>2026-03-29T13:09:14.002Z</time></trkpt><trkpt lat="44.9606617" lon="8.22464"><ele>135.0</ele><time>2026-03-29T13:09:15.008Z</time></trkpt><trkpt lat="44.9605233" lon="8.2245867"><ele>135.0</ele><time>2026-03-29T13:09:16.007Z</time></trkpt><trkpt lat="44.9603883" lon="8.2245317"><ele>135.0</ele><time>2026-03-29T13:09:17.007Z</time></trkpt><trkpt lat="44.9602533" lon="8.22448"><ele>135.0</ele><time>2026-03-29T13:09:18.008Z</time></trkpt><trkpt lat="44.9601183" lon="8.2244367"><ele>134.5</ele><time>2026-03-29T13:09:19.006Z</time></trkpt><trkpt lat="44.9599833" lon="8.224395"><ele>134.0</ele><time>2026-03-29T13:09:20.006Z</time></trkpt><trkpt lat="44.9598483" lon="8.2243483"><ele>133.5</ele><time>2026-03-29T13:09:21.004Z</time></trkpt><trkpt lat="44.9597167" lon="8.2243083"><ele>133.0</ele><time>2026-03-29T13:09:22.005Z</time></trkpt><trkpt lat="44.959585" lon="8.22427"><ele>133.0</ele><time>2026-03-29T13:09:23.004Z</time></trkpt><trkpt lat="44.9594567" lon="8.22423"><ele>133.0</ele><time>2026-03-29T13:09:24.008Z</time></trkpt><trkpt lat="44.9593333" lon="8.2241917"><ele>133.0</ele><time>2026-03-29T13:09:25.004Z</time></trkpt><trkpt lat="44.9592067" lon="8.2241517"><ele>133.0</ele><time>2026-03-29T13:09:26.007Z</time></trkpt><trkpt lat="44.9590817" lon="8.2241117"><ele>132.75</ele><time>2026-03-29T13:09:27.009Z</time></trkpt><trkpt lat="44.9589567" lon="8.2240783"><ele>132.5</ele><time>2026-03-29T13:09:28.004Z</time></trkpt><trkpt lat="44.9588333" lon="8.2240483"><ele>132.25</ele><time>2026-03-29T13:09:29.003Z</time></trkpt><trkpt lat="44.9587117" lon="8.2240133"><ele>132.0</ele><time>2026-03-29T13:09:30.007Z</time></trkpt><trkpt lat="44.9585933" lon="8.223975"><ele>133.0</ele><time>2026-03-29T13:09:31.006Z</time></trkpt><trkpt lat="44.9584717" lon="8.2239367"><ele>134.0</ele><time>2026-03-29T13:09:32.004Z</time></trkpt><trkpt lat="44.95835" lon="8.2238983"><ele>135.0</ele><time>2026-03-29T13:09:33.005Z</time></trkpt><trkpt lat="44.95823" lon="8.22386"><ele>136.0</ele><time>2026-03-29T13:09:34.004Z</time></trkpt><trkpt lat="44.9581133" lon="8.2238267"><ele>136.25</ele><time>2026-03-29T13:09:35.004Z</time></trkpt><trkpt lat="44.9579983" lon="8.2237883"><ele>136.5</ele><time>2026-03-29T13:09:36.007Z</time></trkpt><trkpt lat="44.957885" lon="8.2237517"><ele>136.75</ele><time>2026-03-29T13:09:37.006Z</time></trkpt><trkpt lat="44.9577683" lon="8.2237217"><ele>137.0</ele><time>2026-03-29T13:09:38.005Z</time></trkpt><trkpt lat="44.95765" lon="8.223695"><ele>137.0</ele><time>2026-03-29T13:09:39.002Z</time></trkpt><trkpt lat="44.95754" lon="8.2236583"><ele>137.0</ele><time>2026-03-29T13:09:40.004Z</time></trkpt><trkpt lat="44.9574333" lon="8.22361"><ele>137.0</ele><time>2026-03-29T13:09:41.007Z</time></trkpt><trkpt lat="44.9573217" lon="8.2235767"><ele>137.0</ele><time>2026-03-29T13:09:42.008Z</time></trkpt><trkpt lat="44.9572117" lon="8.2235417"><ele>137.0</ele><time>2026-03-29T13:09:43.004Z</time></trkpt><trkpt lat="44.9571017" lon="8.223505"><ele>137.0</ele><time>2026-03-29T13:09:44.007Z</time></trkpt><trkpt lat="44.9569933" lon="8.22347"><ele>137.0</ele><time>2026-03-29T13:09:45.005Z</time></trkpt><trkpt lat="44.956885" lon="8.2234417"><ele>137.0</ele><time>2026-03-29T13:09:46Z</time></trkpt><trkpt lat="44.9567783" lon="8.2234"><ele>137.0</ele><time>2026-03-29T13:09:47.002Z</time></trkpt><trkpt lat="44.956665" lon="8.2233717"><ele>136.25</ele><time>2026-03-29T13:09:48.006Z</time></trkpt><trkpt lat="44.9565567" lon="8.223335"><ele>135.5</ele><time>2026-03-29T13:09:49.006Z</time></trkpt><trkpt lat="44.9564417" lon="8.2232983"><ele>134.75</ele><time>2026-03-29T13:09:50.002Z</time></trkpt><trkpt lat="44.9563217" lon="8.2232533"><ele>134.0</ele><time>2026-03-29T13:09:51.005Z</time></trkpt><trkpt lat="44.9562" lon="8.22321"><ele>134.0</ele><time>2026-03-29T13:09:52.005Z</time></trkpt><trkpt lat="44.9560783" lon="8.2231633"><ele>134.0</ele><time>2026-03-29T13:09:53.004Z</time></trkpt><trkpt lat="44.955955" lon="8.2231267"><ele>134.0</ele><time>2026-03-29T13:09:54.005Z</time></trkpt><trkpt lat="44.9558317" lon="8.2230967"><ele>134.0</ele><time>2026-03-29T13:09:55.005Z</time></trkpt><trkpt lat="44.955705" lon="8.2230667"><ele>133.5</ele><time>2026-03-29T13:09:56.003Z</time></trkpt><trkpt lat="44.955585" lon="8.2230417"><ele>133.0</ele><time>2026-03-29T13:09:57.007Z</time></trkpt><trkpt lat="44.9554617" lon="8.2230233"><ele>132.5</ele><time>2026-03-29T13:09:58.003Z</time></trkpt><trkpt lat="44.9553383" lon="8.22301"><ele>132.0</ele><time>2026-03-29T13:09:59.003Z</time></trkpt><trkpt lat="44.955215" lon="8.223"><ele>132.0</ele><time>2026-03-29T13:10:00.001Z</time></trkpt><trkpt lat="44.95509" lon="8.2230017"><ele>132.0</ele><time>2026-03-29T13:10:01.008Z</time></trkpt><trkpt lat="44.9549633" lon="8.2230033"><ele>132.0</ele><time>2026-03-29T13:10:02.005Z</time></trkpt><trkpt lat="44.9548417" lon="8.2230067"><ele>132.0</ele><time>2026-03-29T13:10:03.006Z</time></trkpt><trkpt lat="44.9547183" lon="8.2230133"><ele>131.75</ele><time>2026-03-29T13:10:04.005Z</time></trkpt><trkpt lat="44.954595" lon="8.2230233"><ele>131.5</ele><time>2026-03-29T13:10:05.007Z</time></trkpt><trkpt lat="44.9544683" lon="8.2230317"><ele>131.25</ele><time>2026-03-29T13:10:06.003Z</time></trkpt><trkpt lat="44.9543433" lon="8.2230467"><ele>131.0</ele><time>2026-03-29T13:10:07.007Z</time></trkpt><trkpt lat="44.9542117" lon="8.22306"><ele>130.75</ele><time>2026-03-29T13:10:08.006Z</time></trkpt><trkpt lat="44.9540783" lon="8.22307"><ele>130.5</ele><time>2026-03-29T13:10:09.006Z</time></trkpt><trkpt lat="44.95394" lon="8.2230833"><ele>130.25</ele><time>2026-03-29T13:10:10.01Z</time></trkpt><trkpt lat="44.9538033" lon="8.2230983"><ele>130.0</ele><time>2026-03-29T13:10:11.003Z</time></trkpt><trkpt lat="44.95367" lon="8.2231233"><ele>130.0</ele><time>2026-03-29T13:10:12.008Z</time></trkpt><trkpt lat="44.9535267" lon="8.2231483"><ele>130.0</ele><time>2026-03-29T13:10:13.003Z</time></trkpt><trkpt lat="44.95339" lon="8.2231667"><ele>130.0</ele><time>2026-03-29T13:10:14.006Z</time></trkpt><trkpt lat="44.9532517" lon="8.2231817"><ele>130.0</ele><time>2026-03-29T13:10:15.005Z</time></trkpt><trkpt lat="44.9531167" lon="8.223195"><ele>129.75</ele><time>2026-03-29T13:10:16.007Z</time></trkpt><trkpt lat="44.9529917" lon="8.2232083"><ele>129.5</ele><time>2026-03-29T13:10:17.003Z</time></trkpt><trkpt lat="44.952875" lon="8.2232233"><ele>129.25</ele><time>2026-03-29T13:10:18.004Z</time></trkpt><trkpt lat="44.952755" lon="8.2232317"><ele>129.0</ele><time>2026-03-29T13:10:19.003Z</time></trkpt><trkpt lat="44.9526183" lon="8.2232483"><ele>128.66666666666666</ele><time>2026-03-29T13:10:20.004Z</time></trkpt><trkpt lat="44.9524667" lon="8.2232683"><ele>128.33333333333331</ele><time>2026-03-29T13:10:21.008Z</time></trkpt><trkpt lat="44.9523033" lon="8.223275"><ele>128.0</ele><time>2026-03-29T13:10:22.005Z</time></trkpt><trkpt lat="44.9521417" lon="8.2232883"><ele>128.0</ele><time>2026-03-29T13:10:23.004Z</time></trkpt><trkpt lat="44.9519883" lon="8.2233033"><ele>128.0</ele><time>2026-03-29T13:10:24.006Z</time></trkpt><trkpt lat="44.95184" lon="8.2233217"><ele>128.0</ele><time>2026-03-29T13:10:25.006Z</time></trkpt><trkpt lat="44.9516917" lon="8.2233267"><ele>128.25</ele><time>2026-03-29T13:10:26.006Z</time></trkpt><trkpt lat="44.9515517" lon="8.22334"><ele>128.5</ele><time>2026-03-29T13:10:27.011Z</time></trkpt><trkpt lat="44.9514167" lon="8.2233567"><ele>128.75</ele><time>2026-03-29T13:10:28.006Z</time></trkpt><trkpt lat="44.951275" lon="8.2233733"><ele>129.0</ele><time>2026-03-29T13:10:29.007Z</time></trkpt><trkpt lat="44.9511367" lon="8.2233867"><ele>129.0</ele><time>2026-03-29T13:10:30.002Z</time></trkpt><trkpt lat="44.950995" lon="8.2234017"><ele>129.0</ele><time>2026-03-29T13:10:31.005Z</time></trkpt><trkpt lat="44.9508483" lon="8.223415"><ele>129.0</ele><time>2026-03-29T13:10:32.005Z</time></trkpt><trkpt lat="44.9506983" lon="8.2234333"><ele>129.0</ele><time>2026-03-29T13:10:33.007Z</time></trkpt><trkpt lat="44.9505483" lon="8.22345"><ele>129.0</ele><time>2026-03-29T13:10:34.006Z</time></trkpt><trkpt lat="44.9503967" lon="8.22347"><ele>129.0</ele><time>2026-03-29T13:10:35.003Z</time></trkpt><trkpt lat="44.9502417" lon="8.223485"><ele>129.0</ele><time>2026-03-29T13:10:36.003Z</time></trkpt><trkpt lat="44.9500883" lon="8.2235"><ele>129.0</ele><time>2026-03-29T13:10:37.003Z</time></trkpt><trkpt lat="44.9499317" lon="8.22352"><ele>129.0</ele><time>2026-03-29T13:10:38.007Z</time></trkpt><trkpt lat="44.94978" lon="8.2235317"><ele>129.0</ele><time>2026-03-29T13:10:39.003Z</time></trkpt><trkpt lat="44.9496217" lon="8.2235467"><ele>129.0</ele><time>2026-03-29T13:10:40.007Z</time></trkpt><trkpt lat="44.9494733" lon="8.2235583"><ele>129.0</ele><time>2026-03-29T13:10:41.002Z</time></trkpt><trkpt lat="44.949325" lon="8.2235683"><ele>129.0</ele><time>2026-03-29T13:10:42.003Z</time></trkpt><trkpt lat="44.9491767" lon="8.22358"><ele>129.0</ele><time>2026-03-29T13:10:43.007Z</time></trkpt><trkpt lat="44.94903" lon="8.2235933"><ele>128.75</ele><time>2026-03-29T13:10:44.003Z</time></trkpt><trkpt lat="44.9488833" lon="8.2236083"><ele>128.5</ele><time>2026-03-29T13:10:45.004Z</time></trkpt><trkpt lat="44.9487383" lon="8.2236233"><ele>128.25</ele><time>2026-03-29T13:10:46.006Z</time></trkpt><trkpt lat="44.9485967" lon="8.2236383"><ele>128.0</ele><time>2026-03-29T13:10:47.003Z</time></trkpt><trkpt lat="44.9484533" lon="8.2236517"><ele>127.5</ele><time>2026-03-29T13:10:48.006Z</time></trkpt><trkpt lat="44.94831" lon="8.2236633"><ele>127.0</ele><time>2026-03-29T13:10:49.005Z</time></trkpt><trkpt lat="44.948165" lon="8.2236767"><ele>126.5</ele><time>2026-03-29T13:10:50.005Z</time></trkpt><trkpt lat="44.9480167" lon="8.2236883"><ele>126.0</ele><time>2026-03-29T13:10:51.007Z</time></trkpt><trkpt lat="44.947865" lon="8.2236983"><ele>126.0</ele><time>2026-03-29T13:10:52.007Z</time></trkpt><trkpt lat="44.947705" lon="8.22371"><ele>126.0</ele><time>2026-03-29T13:10:53.004Z</time></trkpt><trkpt lat="44.94754" lon="8.22372"><ele>126.0</ele><time>2026-03-29T13:10:54.004Z</time></trkpt><trkpt lat="44.9473733" lon="8.2237317"><ele>127.0</ele><time>2026-03-29T13:10:55.005Z</time></trkpt><trkpt lat="44.9472083" lon="8.223745"><ele>128.0</ele><time>2026-03-29T13:10:56.004Z</time></trkpt><trkpt lat="44.9470483" lon="8.22376"><ele>129.0</ele><time>2026-03-29T13:10:57.005Z</time></trkpt><trkpt lat="44.9468983" lon="8.2237767"><ele>129.0</ele><time>2026-03-29T13:10:58.006Z</time></trkpt><trkpt lat="44.9467567" lon="8.2237933"><ele>129.0</ele><time>2026-03-29T13:10:59.005Z</time></trkpt><trkpt lat="44.9466233" lon="8.2238067"><ele>129.0</ele><time>2026-03-29T13:11:00.009Z</time></trkpt><trkpt lat="44.946495" lon="8.22382"><ele>129.0</ele><time>2026-03-29T13:11:01.006Z</time></trkpt><trkpt lat="44.9463667" lon="8.2238283"><ele>128.8</ele><time>2026-03-29T13:11:02.01Z</time></trkpt><trkpt lat="44.9462483" lon="8.2238317"><ele>128.60000000000002</ele><time>2026-03-29T13:11:03.003Z</time></trkpt><trkpt lat="44.9461433" lon="8.2238267"><ele>128.4</ele><time>2026-03-29T13:11:04.001Z</time></trkpt><trkpt lat="44.9460533" lon="8.22381"><ele>128.20000000000002</ele><time>2026-03-29T13:11:05.004Z</time></trkpt><trkpt lat="44.9459717" lon="8.22378"><ele>128.0</ele><time>2026-03-29T13:11:06.004Z</time></trkpt><trkpt lat="44.9459" lon="8.2237333"><ele>128.0</ele><time>2026-03-29T13:11:07.006Z</time></trkpt><trkpt lat="44.9458833" lon="8.2236083"><ele>128.0</ele><time>2026-03-29T13:11:08.005Z</time></trkpt><trkpt lat="44.9458583" lon="8.2234967"><ele>128.0</ele><time>2026-03-29T13:11:09.005Z</time></trkpt><trkpt lat="44.945865" lon="8.223365"><ele>128.0</ele><time>2026-03-29T13:11:10.009Z</time></trkpt><trkpt lat="44.9458967" lon="8.2232033"><ele>128.0</ele><time>2026-03-29T13:11:11.003Z</time></trkpt><trkpt lat="44.9459517" lon="8.223"><ele>128.33333333333331</ele><time>2026-03-29T13:11:12.009Z</time></trkpt><trkpt lat="44.9460083" lon="8.22278"><ele>128.66666666666666</ele><time>2026-03-29T13:11:13.006Z</time></trkpt><trkpt lat="44.946055" lon="8.222545"><ele>129.0</ele><time>2026-03-29T13:11:14.002Z</time></trkpt><trkpt lat="44.9460983" lon="8.2223033"><ele>129.0</ele><time>2026-03-29T13:11:15.007Z</time></trkpt><trkpt lat="44.9461417" lon="8.2220633"><ele>129.0</ele><time>2026-03-29T13:11:16.006Z</time></trkpt><trkpt lat="44.94619" lon="8.2218167"><ele>129.0</ele><time>2026-03-29T13:11:17.005Z</time></trkpt><trkpt lat="44.9462383" lon="8.2215583"><ele>129.33333333333334</ele><time>2026-03-29T13:11:18.006Z</time></trkpt><trkpt lat="44.946285" lon="8.2212933"><ele>129.66666666666669</ele><time>2026-03-29T13:11:19.004Z</time></trkpt><trkpt lat="44.946335" lon="8.2210283"><ele>130.0</ele><time>2026-03-29T13:11:20.005Z</time></trkpt><trkpt lat="44.946385" lon="8.22075"><ele>130.0</ele><time>2026-03-29T13:11:21.008Z</time></trkpt><trkpt lat="44.9464417" lon="8.22046"><ele>130.0</ele><time>2026-03-29T13:11:22.004Z</time></trkpt><trkpt lat="44.9465" lon="8.22016"><ele>130.0</ele><time>2026-03-29T13:11:23.003Z</time></trkpt><trkpt lat="44.9465583" lon="8.2198633"><ele>130.0</ele><time>2026-03-29T13:11:24.007Z</time></trkpt><trkpt lat="44.946615" lon="8.219575"><ele>130.0</ele><time>2026-03-29T13:11:25.002Z</time></trkpt><trkpt lat="44.9466683" lon="8.2192967"><ele>130.0</ele><time>2026-03-29T13:11:26.005Z</time></trkpt><trkpt lat="44.9467183" lon="8.2190233"><ele>129.33333333333334</ele><time>2026-03-29T13:11:27.004Z</time></trkpt><trkpt lat="44.9467667" lon="8.218755"><ele>128.66666666666666</ele><time>2026-03-29T13:11:28.003Z</time></trkpt><trkpt lat="44.94682" lon="8.2184933"><ele>128.0</ele><time>2026-03-29T13:11:29.004Z</time></trkpt><trkpt lat="44.9468717" lon="8.21823"><ele>129.33333333333331</ele><time>2026-03-29T13:11:30.002Z</time></trkpt><trkpt lat="44.9469233" lon="8.2179683"><ele>130.66666666666666</ele><time>2026-03-29T13:11:31.003Z</time></trkpt><trkpt lat="44.9469733" lon="8.2177033"><ele>132.0</ele><time>2026-03-29T13:11:32.003Z</time></trkpt><trkpt lat="44.9470217" lon="8.2174383"><ele>131.66666666666666</ele><time>2026-03-29T13:11:33.005Z</time></trkpt><trkpt lat="44.947075" lon="8.2171733"><ele>131.33333333333331</ele><time>2026-03-29T13:11:34.008Z</time></trkpt><trkpt lat="44.9471267" lon="8.21691"><ele>131.0</ele><time>2026-03-29T13:11:35.006Z</time></trkpt><trkpt lat="44.947175" lon="8.2166467"><ele>131.66666666666666</ele><time>2026-03-29T13:11:36.004Z</time></trkpt><trkpt lat="44.947225" lon="8.216385"><ele>132.33333333333334</ele><time>2026-03-29T13:11:37.005Z</time></trkpt><trkpt lat="44.947275" lon="8.2161217"><ele>133.0</ele><time>2026-03-29T13:11:38.002Z</time></trkpt><trkpt lat="44.9473217" lon="8.2158583"><ele>133.33333333333334</ele><time>2026-03-29T13:11:39.01Z</time></trkpt><trkpt lat="44.94737" lon="8.2155933"><ele>133.66666666666666</ele><time>2026-03-29T13:11:40.005Z</time></trkpt><trkpt lat="44.9474183" lon="8.2153317"><ele>134.0</ele><time>2026-03-29T13:11:41.005Z</time></trkpt><trkpt lat="44.947465" lon="8.215075"><ele>134.0</ele><time>2026-03-29T13:11:42.009Z</time></trkpt><trkpt lat="44.947515" lon="8.2148217"><ele>134.0</ele><time>2026-03-29T13:11:43.005Z</time></trkpt><trkpt lat="44.9475633" lon="8.214575"><ele>134.0</ele><time>2026-03-29T13:11:44.004Z</time></trkpt><trkpt lat="44.9476183" lon="8.2143267"><ele>137.0</ele><time>2026-03-29T13:11:45.004Z</time></trkpt><trkpt lat="44.9476783" lon="8.2140833"><ele>140.0</ele><time>2026-03-29T13:11:46.003Z</time></trkpt><trkpt lat="44.9477417" lon="8.2138467"><ele>143.0</ele><time>2026-03-29T13:11:47.006Z</time></trkpt><trkpt lat="44.947815" lon="8.2136183"><ele>143.0</ele><time>2026-03-29T13:11:48.003Z</time></trkpt><trkpt lat="44.947895" lon="8.2133917"><ele>143.0</ele><time>2026-03-29T13:11:49.005Z</time></trkpt><trkpt lat="44.947975" lon="8.21317"><ele>143.0</ele><time>2026-03-29T13:11:50.002Z</time></trkpt><trkpt lat="44.9480633" lon="8.2129517"><ele>143.33333333333331</ele><time>2026-03-29T13:11:51.003Z</time></trkpt><trkpt lat="44.9481567" lon="8.2127417"><ele>143.66666666666666</ele><time>2026-03-29T13:11:52.005Z</time></trkpt><trkpt lat="44.9482517" lon="8.2125367"><ele>144.0</ele><time>2026-03-29T13:11:53.003Z</time></trkpt><trkpt lat="44.94835" lon="8.21234"><ele>143.33333333333334</ele><time>2026-03-29T13:11:54.004Z</time></trkpt><trkpt lat="44.9484483" lon="8.2121467"><ele>142.66666666666669</ele><time>2026-03-29T13:11:55.004Z</time></trkpt><trkpt lat="44.9485467" lon="8.2119567"><ele>142.0</ele><time>2026-03-29T13:11:56.004Z</time></trkpt><trkpt lat="44.9486383" lon="8.2117733"><ele>142.0</ele><time>2026-03-29T13:11:57.008Z</time></trkpt><trkpt lat="44.9487333" lon="8.2115917"><ele>142.0</ele><time>2026-03-29T13:11:58.002Z</time></trkpt><trkpt lat="44.94883" lon="8.21141"><ele>142.0</ele><time>2026-03-29T13:11:59.004Z</time></trkpt><trkpt lat="44.94893" lon="8.2112333"><ele>142.33333333333334</ele><time>2026-03-29T13:12:00.007Z</time></trkpt><trkpt lat="44.94903" lon="8.211065"><ele>142.66666666666666</ele><time>2026-03-29T13:12:01.004Z</time></trkpt><trkpt lat="44.9491267" lon="8.2109033"><ele>143.0</ele><time>2026-03-29T13:12:02.003Z</time></trkpt><trkpt lat="44.94923" lon="8.2107567"><ele>142.0</ele><time>2026-03-29T13:12:03.005Z</time></trkpt><trkpt lat="44.9493383" lon="8.2106183"><ele>141.0</ele><time>2026-03-29T13:12:04.006Z</time></trkpt><trkpt lat="44.949445" lon="8.2104867"><ele>140.0</ele><time>2026-03-29T13:12:05.007Z</time></trkpt><trkpt lat="44.9495533" lon="8.2103583"><ele>139.0</ele><time>2026-03-29T13:12:06.006Z</time></trkpt><trkpt lat="44.9496683" lon="8.2102333"><ele>139.0</ele><time>2026-03-29T13:12:07.003Z</time></trkpt><trkpt lat="44.9497883" lon="8.2101167"><ele>139.0</ele><time>2026-03-29T13:12:08.01Z</time></trkpt><trkpt lat="44.94991" lon="8.2099983"><ele>139.0</ele><time>2026-03-29T13:12:09.005Z</time></trkpt><trkpt lat="44.950035" lon="8.2098883"><ele>139.0</ele><time>2026-03-29T13:12:10.003Z</time></trkpt><trkpt lat="44.9501583" lon="8.2097817"><ele>139.25</ele><time>2026-03-29T13:12:11.003Z</time></trkpt><trkpt lat="44.9502817" lon="8.20968"><ele>139.5</ele><time>2026-03-29T13:12:12.006Z</time></trkpt><trkpt lat="44.95041" lon="8.2095817"><ele>139.75</ele><time>2026-03-29T13:12:13.006Z</time></trkpt><trkpt lat="44.9505433" lon="8.20949"><ele>140.0</ele><time>2026-03-29T13:12:14.001Z</time></trkpt><trkpt lat="44.9506717" lon="8.2093917"><ele>140.0</ele><time>2026-03-29T13:12:15.002Z</time></trkpt><trkpt lat="44.950795" lon="8.2092833"><ele>140.0</ele><time>2026-03-29T13:12:16.005Z</time></trkpt><trkpt lat="44.9509167" lon="8.2091667"><ele>140.0</ele><time>2026-03-29T13:12:17.006Z</time></trkpt><trkpt lat="44.9510333" lon="8.2090467"><ele>140.0</ele><time>2026-03-29T13:12:18.008Z</time></trkpt><trkpt lat="44.9511467" lon="8.2089117"><ele>139.66666666666666</ele><time>2026-03-29T13:12:19.009Z</time></trkpt><trkpt lat="44.951235" lon="8.208865"><ele>139.33333333333334</ele><time>2026-03-29T13:12:20.112Z</time></trkpt><trkpt lat="44.9513117" lon="8.20851"><ele>139.0</ele><time>2026-03-29T13:12:21.245Z</time></trkpt><trkpt lat="44.9514517" lon="8.208305"><ele>138.66666666666669</ele><time>2026-03-29T13:12:22.505Z</time></trkpt><trkpt lat="44.95158" lon="8.2081533"><ele>138.33333333333334</ele><time>2026-03-29T13:12:23.505Z</time></trkpt><trkpt lat="44.9516817" lon="8.2079717"><ele>138.0</ele><time>2026-03-29T13:12:24.503Z</time></trkpt><trkpt lat="44.9518467" lon="8.2076917"><ele>138.33333333333334</ele><time>2026-03-29T13:12:26.008Z</time></trkpt><trkpt lat="44.95196" lon="8.207505"><ele>138.66666666666669</ele><time>2026-03-29T13:12:27.004Z</time></trkpt><trkpt lat="44.95207" lon="8.2073167"><ele>139.0</ele><time>2026-03-29T13:12:28.004Z</time></trkpt><trkpt lat="44.95218" lon="8.2071267"><ele>139.0</ele><time>2026-03-29T13:12:29.001Z</time></trkpt><trkpt lat="44.9522883" lon="8.20694"><ele>139.0</ele><time>2026-03-29T13:12:30.006Z</time></trkpt><trkpt lat="44.9524017" lon="8.2067517"><ele>139.0</ele><time>2026-03-29T13:12:31.005Z</time></trkpt><trkpt lat="44.9525167" lon="8.20657"><ele>139.0</ele><time>2026-03-29T13:12:32.005Z</time></trkpt><trkpt lat="44.952635" lon="8.2064"><ele>139.0</ele><time>2026-03-29T13:12:33.003Z</time></trkpt><trkpt lat="44.9527617" lon="8.20624"><ele>139.0</ele><time>2026-03-29T13:12:34.004Z</time></trkpt><trkpt lat="44.9528933" lon="8.20609"><ele>139.0</ele><time>2026-03-29T13:12:35.005Z</time></trkpt><trkpt lat="44.9530267" lon="8.2059433"><ele>139.0</ele><time>2026-03-29T13:12:36.001Z</time></trkpt><trkpt lat="44.9531633" lon="8.2058"><ele>139.0</ele><time>2026-03-29T13:12:37.005Z</time></trkpt><trkpt lat="44.9532983" lon="8.2056517"><ele>139.0</ele><time>2026-03-29T13:12:38.005Z</time></trkpt><trkpt lat="44.9534333" lon="8.2055017"><ele>139.0</ele><time>2026-03-29T13:12:39.006Z</time></trkpt><trkpt lat="44.9535683" lon="8.2053533"><ele>139.0</ele><time>2026-03-29T13:12:40.008Z</time></trkpt><trkpt lat="44.9537033" lon="8.2052017"><ele>139.0</ele><time>2026-03-29T13:12:41.004Z</time></trkpt><trkpt lat="44.9538383" lon="8.2050483"><ele>139.0</ele><time>2026-03-29T13:12:42.006Z</time></trkpt><trkpt lat="44.9539733" lon="8.2048967"><ele>139.0</ele><time>2026-03-29T13:12:43.005Z</time></trkpt><trkpt lat="44.9541067" lon="8.2047467"><ele>139.66666666666669</ele><time>2026-03-29T13:12:44.003Z</time></trkpt><trkpt lat="44.9542417" lon="8.2045933"><ele>140.33333333333334</ele><time>2026-03-29T13:12:45.002Z</time></trkpt><trkpt lat="44.9543767" lon="8.2044383"><ele>141.0</ele><time>2026-03-29T13:12:46.003Z</time></trkpt><trkpt lat="44.954505" lon="8.204275"><ele>141.0</ele><time>2026-03-29T13:12:47.008Z</time></trkpt><trkpt lat="44.954625" lon="8.2040933"><ele>141.0</ele><time>2026-03-29T13:12:48.005Z</time></trkpt><trkpt lat="44.9547383" lon="8.2038983"><ele>141.0</ele><time>2026-03-29T13:12:49.009Z</time></trkpt><trkpt lat="44.95485" lon="8.2036917"><ele>141.33333333333334</ele><time>2026-03-29T13:12:50.006Z</time></trkpt><trkpt lat="44.9549633" lon="8.203485"><ele>141.66666666666669</ele><time>2026-03-29T13:12:51.007Z</time></trkpt><trkpt lat="44.9550767" lon="8.2032817"><ele>142.0</ele><time>2026-03-29T13:12:52.004Z</time></trkpt><trkpt lat="44.9551933" lon="8.2030867"><ele>142.66666666666669</ele><time>2026-03-29T13:12:53.005Z</time></trkpt><trkpt lat="44.95532" lon="8.2028983"><ele>143.33333333333334</ele><time>2026-03-29T13:12:54.003Z</time></trkpt><trkpt lat="44.95545" lon="8.2027117"><ele>144.0</ele><time>2026-03-29T13:12:55.004Z</time></trkpt><trkpt lat="44.9555867" lon="8.2025317"><ele>144.0</ele><time>2026-03-29T13:12:56.005Z</time></trkpt><trkpt lat="44.9557217" lon="8.202355"><ele>144.0</ele><time>2026-03-29T13:12:57.004Z</time></trkpt><trkpt lat="44.955855" lon="8.20217"><ele>144.0</ele><time>2026-03-29T13:12:58.007Z</time></trkpt><trkpt lat="44.9559833" lon="8.2019833"><ele>144.0</ele><time>2026-03-29T13:12:59.006Z</time></trkpt><trkpt lat="44.9561117" lon="8.2018017"><ele>144.0</ele><time>2026-03-29T13:13:00.008Z</time></trkpt><trkpt lat="44.9562383" lon="8.2016217"><ele>144.0</ele><time>2026-03-29T13:13:01.004Z</time></trkpt><trkpt lat="44.95636" lon="8.201445"><ele>144.0</ele><time>2026-03-29T13:13:02.004Z</time></trkpt><trkpt lat="44.9564817" lon="8.20127"><ele>144.0</ele><time>2026-03-29T13:13:03.005Z</time></trkpt><trkpt lat="44.9566033" lon="8.2010983"><ele>144.0</ele><time>2026-03-29T13:13:04.005Z</time></trkpt><trkpt lat="44.9567233" lon="8.20093"><ele>145.0</ele><time>2026-03-29T13:13:05.003Z</time></trkpt><trkpt lat="44.9568483" lon="8.2007733"><ele>146.0</ele><time>2026-03-29T13:13:06.011Z</time></trkpt><trkpt lat="44.9569817" lon="8.200625"><ele>147.0</ele><time>2026-03-29T13:13:07.004Z</time></trkpt><trkpt lat="44.95712" lon="8.2004867"><ele>146.33333333333334</ele><time>2026-03-29T13:13:08.003Z</time></trkpt><trkpt lat="44.95726" lon="8.2003467"><ele>145.66666666666669</ele><time>2026-03-29T13:13:09.007Z</time></trkpt><trkpt lat="44.957405" lon="8.20021"><ele>145.0</ele><time>2026-03-29T13:13:10.004Z</time></trkpt><trkpt lat="44.9575433" lon="8.2000617"><ele>145.0</ele><time>2026-03-29T13:13:11.006Z</time></trkpt><trkpt lat="44.9576833" lon="8.19991"><ele>145.0</ele><time>2026-03-29T13:13:12.003Z</time></trkpt><trkpt lat="44.957815" lon="8.1997517"><ele>145.0</ele><time>2026-03-29T13:13:13.01Z</time></trkpt><trkpt lat="44.957945" lon="8.1995917"><ele>143.66666666666669</ele><time>2026-03-29T13:13:14.003Z</time></trkpt><trkpt lat="44.9580717" lon="8.1994283"><ele>142.33333333333334</ele><time>2026-03-29T13:13:15.004Z</time></trkpt><trkpt lat="44.958195" lon="8.1992633"><ele>141.0</ele><time>2026-03-29T13:13:16.003Z</time></trkpt><trkpt lat="44.9583183" lon="8.1991"><ele>142.0</ele><time>2026-03-29T13:13:17.006Z</time></trkpt><trkpt lat="44.9584433" lon="8.1989333"><ele>143.0</ele><time>2026-03-29T13:13:18.003Z</time></trkpt><trkpt lat="44.9585683" lon="8.1987667"><ele>144.0</ele><time>2026-03-29T13:13:19.003Z</time></trkpt><trkpt lat="44.9586967" lon="8.198605"><ele>144.0</ele><time>2026-03-29T13:13:20.002Z</time></trkpt><trkpt lat="44.95883" lon="8.1984517"><ele>144.0</ele><time>2026-03-29T13:13:21.003Z</time></trkpt><trkpt lat="44.9589683" lon="8.19831"><ele>144.0</ele><time>2026-03-29T13:13:22.006Z</time></trkpt><trkpt lat="44.95911" lon="8.1981817"><ele>144.66666666666666</ele><time>2026-03-29T13:13:23.002Z</time></trkpt><trkpt lat="44.95925" lon="8.1980617"><ele>145.33333333333331</ele><time>2026-03-29T13:13:24.002Z</time></trkpt><trkpt lat="44.95939" lon="8.19795"><ele>146.0</ele><time>2026-03-29T13:13:25.004Z</time></trkpt><trkpt lat="44.959525" lon="8.1978467"><ele>146.0</ele><time>2026-03-29T13:13:26.005Z</time></trkpt><trkpt lat="44.95966" lon="8.1977533"><ele>146.0</ele><time>2026-03-29T13:13:27.006Z</time></trkpt><trkpt lat="44.959795" lon="8.1976667"><ele>146.0</ele><time>2026-03-29T13:13:28.003Z</time></trkpt><trkpt lat="44.9599283" lon="8.1975833"><ele>146.0</ele><time>2026-03-29T13:13:29.004Z</time></trkpt><trkpt lat="44.9600633" lon="8.1975017"><ele>146.0</ele><time>2026-03-29T13:13:30.013Z</time></trkpt><trkpt lat="44.9601983" lon="8.197425"><ele>146.0</ele><time>2026-03-29T13:13:31.004Z</time></trkpt><trkpt lat="44.96033" lon="8.1973467"><ele>146.0</ele><time>2026-03-29T13:13:32.005Z</time></trkpt><trkpt lat="44.9604617" lon="8.1972717"><ele>146.0</ele><time>2026-03-29T13:13:33.004Z</time></trkpt><trkpt lat="44.9605917" lon="8.197195"><ele>146.0</ele><time>2026-03-29T13:13:34.012Z</time></trkpt><trkpt lat="44.9607217" lon="8.1971133"><ele>146.0</ele><time>2026-03-29T13:13:35.005Z</time></trkpt><trkpt lat="44.9608467" lon="8.1970183"><ele>146.0</ele><time>2026-03-29T13:13:36.003Z</time></trkpt><trkpt lat="44.96097" lon="8.196915"><ele>146.0</ele><time>2026-03-29T13:13:37.007Z</time></trkpt><trkpt lat="44.9610933" lon="8.196805"><ele>146.5</ele><time>2026-03-29T13:13:38.005Z</time></trkpt><trkpt lat="44.9612167" lon="8.1966933"><ele>147.0</ele><time>2026-03-29T13:13:39.009Z</time></trkpt><trkpt lat="44.9613333" lon="8.1965833"><ele>147.5</ele><time>2026-03-29T13:13:40.005Z</time></trkpt><trkpt lat="44.96145" lon="8.19647"><ele>148.0</ele><time>2026-03-29T13:13:41.002Z</time></trkpt><trkpt lat="44.961565" lon="8.196355"><ele>148.0</ele><time>2026-03-29T13:13:42.005Z</time></trkpt><trkpt lat="44.961675" lon="8.1962367"><ele>148.0</ele><time>2026-03-29T13:13:43.007Z</time></trkpt><trkpt lat="44.961785" lon="8.196115"><ele>148.0</ele><time>2026-03-29T13:13:44.003Z</time></trkpt><trkpt lat="44.96189" lon="8.1959867"><ele>148.0</ele><time>2026-03-29T13:13:45.005Z</time></trkpt><trkpt lat="44.9619917" lon="8.1958517"><ele>148.25</ele><time>2026-03-29T13:13:46.003Z</time></trkpt><trkpt lat="44.9620917" lon="8.1957167"><ele>148.5</ele><time>2026-03-29T13:13:47.005Z</time></trkpt><trkpt lat="44.96219" lon="8.1955767"><ele>148.75</ele><time>2026-03-29T13:13:48.004Z</time></trkpt><trkpt lat="44.96229" lon="8.19545"><ele>149.0</ele><time>2026-03-29T13:13:49.004Z</time></trkpt><trkpt lat="44.9623917" lon="8.1953233"><ele>149.0</ele><time>2026-03-29T13:13:50.005Z</time></trkpt><trkpt lat="44.9624933" lon="8.1951933"><ele>149.0</ele><time>2026-03-29T13:13:51.004Z</time></trkpt><trkpt lat="44.962595" lon="8.1950667"><ele>149.0</ele><time>2026-03-29T13:13:52.003Z</time></trkpt><trkpt lat="44.9626983" lon="8.1949433"><ele>149.0</ele><time>2026-03-29T13:13:53.003Z</time></trkpt><trkpt lat="44.9628" lon="8.19482"><ele>149.75</ele><time>2026-03-29T13:13:54.006Z</time></trkpt><trkpt lat="44.9629017" lon="8.1946967"><ele>150.5</ele><time>2026-03-29T13:13:55.004Z</time></trkpt><trkpt lat="44.9630017" lon="8.1945783"><ele>151.25</ele><time>2026-03-29T13:13:56.001Z</time></trkpt><trkpt lat="44.9631017" lon="8.1944617"><ele>152.0</ele><time>2026-03-29T13:13:57.006Z</time></trkpt><trkpt lat="44.9631967" lon="8.19435"><ele>152.0</ele><time>2026-03-29T13:13:58.003Z</time></trkpt><trkpt lat="44.9632883" lon="8.194235"><ele>152.0</ele><time>2026-03-29T13:13:59.003Z</time></trkpt><trkpt lat="44.96338" lon="8.1941167"><ele>152.0</ele><time>2026-03-29T13:14:00.007Z</time></trkpt><trkpt lat="44.9634733" lon="8.194"><ele>152.0</ele><time>2026-03-29T13:14:01.003Z</time></trkpt><trkpt lat="44.9635633" lon="8.1938883"><ele>151.5</ele><time>2026-03-29T13:14:02.002Z</time></trkpt><trkpt lat="44.963655" lon="8.193785"><ele>151.0</ele><time>2026-03-29T13:14:03.007Z</time></trkpt><trkpt lat="44.9637433" lon="8.1936817"><ele>150.5</ele><time>2026-03-29T13:14:04.003Z</time></trkpt><trkpt lat="44.9638333" lon="8.1935767"><ele>150.0</ele><time>2026-03-29T13:14:05.002Z</time></trkpt><trkpt lat="44.9639167" lon="8.19347"><ele>150.0</ele><time>2026-03-29T13:14:06.008Z</time></trkpt><trkpt lat="44.964" lon="8.1933667"><ele>150.0</ele><time>2026-03-29T13:14:07.005Z</time></trkpt><trkpt lat="44.964085" lon="8.1932633"><ele>150.0</ele><time>2026-03-29T13:14:08.004Z</time></trkpt><trkpt lat="44.9641717" lon="8.1931617"><ele>150.0</ele><time>2026-03-29T13:14:09.008Z</time></trkpt><trkpt lat="44.964255" lon="8.1930583"><ele>150.0</ele><time>2026-03-29T13:14:10.003Z</time></trkpt><trkpt lat="44.9643367" lon="8.192955"><ele>150.2</ele><time>2026-03-29T13:14:11.005Z</time></trkpt><trkpt lat="44.9644183" lon="8.1928583"><ele>150.4</ele><time>2026-03-29T13:14:12.005Z</time></trkpt><trkpt lat="44.9645033" lon="8.1927583"><ele>150.6</ele><time>2026-03-29T13:14:13.007Z</time></trkpt><trkpt lat="44.9645867" lon="8.1926567"><ele>150.8</ele><time>2026-03-29T13:14:14.003Z</time></trkpt><trkpt lat="44.964675" lon="8.19255"><ele>151.0</ele><time>2026-03-29T13:14:15.01Z</time></trkpt><trkpt lat="44.9647633" lon="8.1924383"><ele>151.0</ele><time>2026-03-29T13:14:16.002Z</time></trkpt><trkpt lat="44.9648517" lon="8.192325"><ele>151.0</ele><time>2026-03-29T13:14:17.008Z</time></trkpt><trkpt lat="44.964945" lon="8.1922117"><ele>151.0</ele><time>2026-03-29T13:14:18Z</time></trkpt><trkpt lat="44.9650417" lon="8.1920967"><ele>151.0</ele><time>2026-03-29T13:14:19.008Z</time></trkpt><trkpt lat="44.9651367" lon="8.19198"><ele>151.75</ele><time>2026-03-29T13:14:20.008Z</time></trkpt><trkpt lat="44.9652317" lon="8.191865"><ele>152.5</ele><time>2026-03-29T13:14:21.004Z</time></trkpt><trkpt lat="44.9653217" lon="8.1917583"><ele>153.25</ele><time>2026-03-29T13:14:22.005Z</time></trkpt><trkpt lat="44.96541" lon="8.1916433"><ele>154.0</ele><time>2026-03-29T13:14:23.001Z</time></trkpt><trkpt lat="44.9654933" lon="8.1915383"><ele>154.2</ele><time>2026-03-29T13:14:24.003Z</time></trkpt><trkpt lat="44.9655783" lon="8.1914367"><ele>154.4</ele><time>2026-03-29T13:14:25.004Z</time></trkpt><trkpt lat="44.9656667" lon="8.1913317"><ele>154.6</ele><time>2026-03-29T13:14:26.004Z</time></trkpt><trkpt lat="44.965755" lon="8.191235"><ele>154.8</ele><time>2026-03-29T13:14:27.005Z</time></trkpt><trkpt lat="44.9658433" lon="8.1911417"><ele>155.0</ele><time>2026-03-29T13:14:28.008Z</time></trkpt><trkpt lat="44.9659283" lon="8.19106"><ele>155.0</ele><time>2026-03-29T13:14:29Z</time></trkpt><trkpt lat="44.96601" lon="8.1909817"><ele>155.0</ele><time>2026-03-29T13:14:30.004Z</time></trkpt><trkpt lat="44.966085" lon="8.1909117"><ele>155.0</ele><time>2026-03-29T13:14:31.003Z</time></trkpt><trkpt lat="44.966155" lon="8.1908417"><ele>155.0</ele><time>2026-03-29T13:14:32.004Z</time></trkpt><trkpt lat="44.9662283" lon="8.19078"><ele>155.0</ele><time>2026-03-29T13:14:33.009Z</time></trkpt><trkpt lat="44.9662933" lon="8.19073"><ele>155.0</ele><time>2026-03-29T13:14:34.005Z</time></trkpt><trkpt lat="44.9664" lon="8.1906567"><ele>154.6</ele><time>2026-03-29T13:14:36.002Z</time></trkpt><trkpt lat="44.96649" lon="8.190585"><ele>154.2</ele><time>2026-03-29T13:14:38.002Z</time></trkpt><trkpt lat="44.9665467" lon="8.1904317"><ele>153.8</ele><time>2026-03-29T13:14:40.005Z</time></trkpt><trkpt lat="44.9665683" lon="8.1903383"><ele>153.4</ele><time>2026-03-29T13:14:40.999Z</time></trkpt><trkpt lat="44.966595" lon="8.1902367"><ele>153.0</ele><time>2026-03-29T13:14:41.999Z</time></trkpt><trkpt lat="44.96662" lon="8.1901217"><ele>153.0</ele><time>2026-03-29T13:14:43.009Z</time></trkpt><trkpt lat="44.9666483" lon="8.1899817"><ele>153.0</ele><time>2026-03-29T13:14:44.008Z</time></trkpt><trkpt lat="44.9666717" lon="8.1898433"><ele>153.0</ele><time>2026-03-29T13:14:45.007Z</time></trkpt><trkpt lat="44.9667" lon="8.1897017"><ele>153.0</ele><time>2026-03-29T13:14:46.004Z</time></trkpt><trkpt lat="44.9667383" lon="8.1895583"><ele>153.0</ele><time>2026-03-29T13:14:47.003Z</time></trkpt><trkpt lat="44.96679" lon="8.1894167"><ele>153.0</ele><time>2026-03-29T13:14:48.005Z</time></trkpt><trkpt lat="44.9668633" lon="8.1892783"><ele>153.0</ele><time>2026-03-29T13:14:49.004Z</time></trkpt><trkpt lat="44.96696" lon="8.1891533"><ele>153.0</ele><time>2026-03-29T13:14:50.006Z</time></trkpt><trkpt lat="44.9670617" lon="8.1890383"><ele>153.0</ele><time>2026-03-29T13:14:51.005Z</time></trkpt><trkpt lat="44.9671717" lon="8.1889383"><ele>153.0</ele><time>2026-03-29T13:14:52.003Z</time></trkpt><trkpt lat="44.9672883" lon="8.1888567"><ele>153.0</ele><time>2026-03-29T13:14:53.002Z</time></trkpt><trkpt lat="44.9674083" lon="8.18878"><ele>153.0</ele><time>2026-03-29T13:14:54.008Z</time></trkpt><trkpt lat="44.9675233" lon="8.188715"><ele>153.0</ele><time>2026-03-29T13:14:55.006Z</time></trkpt><trkpt lat="44.9676367" lon="8.1886633"><ele>154.75</ele><time>2026-03-29T13:14:56.002Z</time></trkpt><trkpt lat="44.96775" lon="8.18862"><ele>156.5</ele><time>2026-03-29T13:14:57.008Z</time></trkpt><trkpt lat="44.96786" lon="8.188585"><ele>158.25</ele><time>2026-03-29T13:14:58.005Z</time></trkpt><trkpt lat="44.9679683" lon="8.1885533"><ele>160.0</ele><time>2026-03-29T13:14:59.005Z</time></trkpt><trkpt lat="44.9680817" lon="8.1885217"><ele>160.0</ele><time>2026-03-29T13:15:00.012Z</time></trkpt><trkpt lat="44.9681917" lon="8.188495"><ele>160.0</ele><time>2026-03-29T13:15:01.009Z</time></trkpt><trkpt lat="44.9682983" lon="8.1884567"><ele>160.0</ele><time>2026-03-29T13:15:02.004Z</time></trkpt><trkpt lat="44.968415" lon="8.1884067"><ele>160.0</ele><time>2026-03-29T13:15:03.005Z</time></trkpt><trkpt lat="44.96852" lon="8.1883367"><ele>161.25</ele><time>2026-03-29T13:15:04.006Z</time></trkpt><trkpt lat="44.9686217" lon="8.1882467"><ele>162.5</ele><time>2026-03-29T13:15:05Z</time></trkpt><trkpt lat="44.9687167" lon="8.1881317"><ele>163.75</ele><time>2026-03-29T13:15:06.008Z</time></trkpt><trkpt lat="44.9688067" lon="8.1880083"><ele>165.0</ele><time>2026-03-29T13:15:07.004Z</time></trkpt><trkpt lat="44.96889" lon="8.1878817"><ele>165.0</ele><time>2026-03-29T13:15:08.004Z</time></trkpt><trkpt lat="44.9689633" lon="8.18774"><ele>165.0</ele><time>2026-03-29T13:15:09.001Z</time></trkpt><trkpt lat="44.9690317" lon="8.1875817"><ele>165.0</ele><time>2026-03-29T13:15:10.004Z</time></trkpt><trkpt lat="44.96909" lon="8.1873883"><ele>165.0</ele><time>2026-03-29T13:15:11.004Z</time></trkpt><trkpt lat="44.9691383" lon="8.187155"><ele>164.0</ele><time>2026-03-29T13:15:12.003Z</time></trkpt><trkpt lat="44.9691867" lon="8.1869067"><ele>163.0</ele><time>2026-03-29T13:15:13.004Z</time></trkpt><trkpt lat="44.969235" lon="8.186655"><ele>162.0</ele><time>2026-03-29T13:15:14.002Z</time></trkpt><trkpt lat="44.9692833" lon="8.1863983"><ele>162.0</ele><time>2026-03-29T13:15:15.001Z</time></trkpt><trkpt lat="44.9693333" lon="8.1861383"><ele>162.0</ele><time>2026-03-29T13:15:16.005Z</time></trkpt><trkpt lat="44.9693867" lon="8.1858783"><ele>162.0</ele><time>2026-03-29T13:15:17.005Z</time></trkpt><trkpt lat="44.9694433" lon="8.1856167"><ele>160.66666666666666</ele><time>2026-03-29T13:15:18.003Z</time></trkpt><trkpt lat="44.9695033" lon="8.1853567"><ele>159.33333333333331</ele><time>2026-03-29T13:15:19.001Z</time></trkpt><trkpt lat="44.9695667" lon="8.1851017"><ele>158.0</ele><time>2026-03-29T13:15:20.008Z</time></trkpt><trkpt lat="44.969635" lon="8.18485"><ele>157.33333333333331</ele><time>2026-03-29T13:15:21.006Z</time></trkpt><trkpt lat="44.969705" lon="8.1846"><ele>156.66666666666666</ele><time>2026-03-29T13:15:22.007Z</time></trkpt><trkpt lat="44.9697783" lon="8.18435"><ele>156.0</ele><time>2026-03-29T13:15:23.005Z</time></trkpt><trkpt lat="44.96985" lon="8.184105"><ele>155.33333333333334</ele><time>2026-03-29T13:15:24.003Z</time></trkpt><trkpt lat="44.9699267" lon="8.183865"><ele>154.66666666666669</ele><time>2026-03-29T13:15:25.006Z</time></trkpt><trkpt lat="44.97" lon="8.1836317"><ele>154.0</ele><time>2026-03-29T13:15:26.004Z</time></trkpt><trkpt lat="44.970075" lon="8.1834067"><ele>156.33333333333334</ele><time>2026-03-29T13:15:26.999Z</time></trkpt><trkpt lat="44.97016" lon="8.183185"><ele>158.66666666666666</ele><time>2026-03-29T13:15:28.002Z</time></trkpt><trkpt lat="44.9702517" lon="8.1829683"><ele>161.0</ele><time>2026-03-29T13:15:29.002Z</time></trkpt><trkpt lat="44.9703583" lon="8.182745"><ele>161.0</ele><time>2026-03-29T13:15:30.008Z</time></trkpt><trkpt lat="44.970475" lon="8.1825383"><ele>161.0</ele><time>2026-03-29T13:15:31.003Z</time></trkpt><trkpt lat="44.9705933" lon="8.182335"><ele>161.0</ele><time>2026-03-29T13:15:32.005Z</time></trkpt><trkpt lat="44.9707067" lon="8.1821317"><ele>161.33333333333331</ele><time>2026-03-29T13:15:33.005Z</time></trkpt><trkpt lat="44.9708133" lon="8.181925"><ele>161.66666666666666</ele><time>2026-03-29T13:15:34.004Z</time></trkpt><trkpt lat="44.9709117" lon="8.1817117"><ele>162.0</ele><time>2026-03-29T13:15:35.004Z</time></trkpt><trkpt lat="44.971005" lon="8.1814967"><ele>162.0</ele><time>2026-03-29T13:15:36.005Z</time></trkpt><trkpt lat="44.97109" lon="8.1812783"><ele>162.0</ele><time>2026-03-29T13:15:37.003Z</time></trkpt><trkpt lat="44.9711667" lon="8.1810567"><ele>162.0</ele><time>2026-03-29T13:15:38.003Z</time></trkpt><trkpt lat="44.9712367" lon="8.1808333"><ele>162.66666666666666</ele><time>2026-03-29T13:15:39.005Z</time></trkpt><trkpt lat="44.9712967" lon="8.1806067"><ele>163.33333333333331</ele><time>2026-03-29T13:15:40.003Z</time></trkpt><trkpt lat="44.97135" lon="8.18039"><ele>164.0</ele><time>2026-03-29T13:15:41.005Z</time></trkpt><trkpt lat="44.9714017" lon="8.180175"><ele>164.0</ele><time>2026-03-29T13:15:42.006Z</time></trkpt><trkpt lat="44.971465" lon="8.1799617"><ele>164.0</ele><time>2026-03-29T13:15:43.003Z</time></trkpt><trkpt lat="44.9715367" lon="8.1797567"><ele>164.0</ele><time>2026-03-29T13:15:44.003Z</time></trkpt><trkpt lat="44.9716217" lon="8.17956"><ele>164.66666666666666</ele><time>2026-03-29T13:15:45.004Z</time></trkpt><trkpt lat="44.9717117" lon="8.179365"><ele>165.33333333333334</ele><time>2026-03-29T13:15:46.008Z</time></trkpt><trkpt lat="44.9718133" lon="8.17917"><ele>166.0</ele><time>2026-03-29T13:15:47.004Z</time></trkpt><trkpt lat="44.9719167" lon="8.1789733"><ele>166.0</ele><time>2026-03-29T13:15:48.004Z</time></trkpt><trkpt lat="44.97202" lon="8.1787767"><ele>166.0</ele><time>2026-03-29T13:15:49.001Z</time></trkpt><trkpt lat="44.9721183" lon="8.178565"><ele>166.0</ele><time>2026-03-29T13:15:50.005Z</time></trkpt><trkpt lat="44.97221" lon="8.1783517"><ele>164.33333333333334</ele><time>2026-03-29T13:15:51.002Z</time></trkpt><trkpt lat="44.9722967" lon="8.1781317"><ele>162.66666666666666</ele><time>2026-03-29T13:15:52.009Z</time></trkpt><trkpt lat="44.9723767" lon="8.17791"><ele>161.0</ele><time>2026-03-29T13:15:53.004Z</time></trkpt><trkpt lat="44.9724433" lon="8.1776767"><ele>161.0</ele><time>2026-03-29T13:15:54.004Z</time></trkpt><trkpt lat="44.972495" lon="8.1774317"><ele>161.0</ele><time>2026-03-29T13:15:55.004Z</time></trkpt><trkpt lat="44.9725283" lon="8.1771733"><ele>161.0</ele><time>2026-03-29T13:15:56.004Z</time></trkpt><trkpt lat="44.972555" lon="8.1769083"><ele>161.66666666666666</ele><time>2026-03-29T13:15:57.005Z</time></trkpt><trkpt lat="44.9725817" lon="8.1766433"><ele>162.33333333333334</ele><time>2026-03-29T13:15:58.004Z</time></trkpt><trkpt lat="44.97261" lon="8.17638"><ele>163.0</ele><time>2026-03-29T13:15:59.004Z</time></trkpt><trkpt lat="44.9726417" lon="8.1761167"><ele>163.0</ele><time>2026-03-29T13:16:00.007Z</time></trkpt><trkpt lat="44.9726733" lon="8.1758583"><ele>163.0</ele><time>2026-03-29T13:16:01.004Z</time></trkpt><trkpt lat="44.972705" lon="8.175605"><ele>163.0</ele><time>2026-03-29T13:16:02.003Z</time></trkpt><trkpt lat="44.9727383" lon="8.175355"><ele>162.0</ele><time>2026-03-29T13:16:03.005Z</time></trkpt><trkpt lat="44.9727733" lon="8.17511"><ele>161.0</ele><time>2026-03-29T13:16:04.005Z</time></trkpt><trkpt lat="44.97281" lon="8.17487"><ele>160.0</ele><time>2026-03-29T13:16:05.002Z</time></trkpt><trkpt lat="44.97285" lon="8.1746283"><ele>160.0</ele><time>2026-03-29T13:16:06.001Z</time></trkpt><trkpt lat="44.9728967" lon="8.1744"><ele>160.0</ele><time>2026-03-29T13:16:07.005Z</time></trkpt><trkpt lat="44.972945" lon="8.1741717"><ele>160.0</ele><time>2026-03-29T13:16:08.003Z</time></trkpt><trkpt lat="44.9730033" lon="8.1739433"><ele>161.0</ele><time>2026-03-29T13:16:09.003Z</time></trkpt><trkpt lat="44.9730583" lon="8.1737167"><ele>162.0</ele><time>2026-03-29T13:16:10.005Z</time></trkpt><trkpt lat="44.9731033" lon="8.1734933"><ele>163.0</ele><time>2026-03-29T13:16:11.003Z</time></trkpt><trkpt lat="44.9731433" lon="8.1732817"><ele>164.25</ele><time>2026-03-29T13:16:12Z</time></trkpt><trkpt lat="44.9731733" lon="8.1730783"><ele>165.5</ele><time>2026-03-29T13:16:13.005Z</time></trkpt><trkpt lat="44.9731967" lon="8.1728867"><ele>166.75</ele><time>2026-03-29T13:16:14.002Z</time></trkpt><trkpt lat="44.9732083" lon="8.1727"><ele>168.0</ele><time>2026-03-29T13:16:15.002Z</time></trkpt><trkpt lat="44.973215" lon="8.1725183"><ele>168.75</ele><time>2026-03-29T13:16:16.006Z</time></trkpt><trkpt lat="44.97322" lon="8.1723417"><ele>169.5</ele><time>2026-03-29T13:16:17.004Z</time></trkpt><trkpt lat="44.97323" lon="8.1721717"><ele>170.25</ele><time>2026-03-29T13:16:18.006Z</time></trkpt><trkpt lat="44.9732417" lon="8.1720017"><ele>171.0</ele><time>2026-03-29T13:16:19.004Z</time></trkpt><trkpt lat="44.9732633" lon="8.171845"><ele>171.0</ele><time>2026-03-29T13:16:20.002Z</time></trkpt><trkpt lat="44.9732933" lon="8.1716917"><ele>171.0</ele><time>2026-03-29T13:16:21.005Z</time></trkpt><trkpt lat="44.97334" lon="8.1715467"><ele>171.0</ele><time>2026-03-29T13:16:22.004Z</time></trkpt><trkpt lat="44.9734017" lon="8.171405"><ele>171.0</ele><time>2026-03-29T13:16:23.009Z</time></trkpt><trkpt lat="44.973465" lon="8.1712783"><ele>171.75</ele><time>2026-03-29T13:16:24.005Z</time></trkpt><trkpt lat="44.973535" lon="8.1711583"><ele>172.5</ele><time>2026-03-29T13:16:25.004Z</time></trkpt><trkpt lat="44.9735983" lon="8.1710317"><ele>173.25</ele><time>2026-03-29T13:16:26.007Z</time></trkpt><trkpt lat="44.9736683" lon="8.1709017"><ele>174.0</ele><time>2026-03-29T13:16:27.006Z</time></trkpt><trkpt lat="44.9737383" lon="8.1707533"><ele>173.5</ele><time>2026-03-29T13:16:28.005Z</time></trkpt><trkpt lat="44.9737983" lon="8.1705883"><ele>173.0</ele><time>2026-03-29T13:16:29.003Z</time></trkpt><trkpt lat="44.97384" lon="8.1704083"><ele>172.5</ele><time>2026-03-29T13:16:30.003Z</time></trkpt><trkpt lat="44.97388" lon="8.1702233"><ele>172.0</ele><time>2026-03-29T13:16:31.003Z</time></trkpt><trkpt lat="44.97393" lon="8.17004"><ele>171.0</ele><time>2026-03-29T13:16:32.003Z</time></trkpt><trkpt lat="44.97399" lon="8.1698583"><ele>170.0</ele><time>2026-03-29T13:16:33.013Z</time></trkpt><trkpt lat="44.9740633" lon="8.1696917"><ele>169.0</ele><time>2026-03-29T13:16:34Z</time></trkpt><trkpt lat="44.9741433" lon="8.16953"><ele>168.0</ele><time>2026-03-29T13:16:35.001Z</time></trkpt><trkpt lat="44.974245" lon="8.1693783"><ele>168.5</ele><time>2026-03-29T13:16:36.003Z</time></trkpt><trkpt lat="44.97434" lon="8.169225"><ele>169.0</ele><time>2026-03-29T13:16:37.003Z</time></trkpt><trkpt lat="44.97443" lon="8.169065"><ele>169.5</ele><time>2026-03-29T13:16:38.006Z</time></trkpt><trkpt lat="44.9745033" lon="8.168895"><ele>170.0</ele><time>2026-03-29T13:16:39.003Z</time></trkpt><trkpt lat="44.9745967" lon="8.16874"><ele>170.0</ele><time>2026-03-29T13:16:40.008Z</time></trkpt><trkpt lat="44.9746917" lon="8.1685933"><ele>170.0</ele><time>2026-03-29T13:16:41.003Z</time></trkpt><trkpt lat="44.9747983" lon="8.1684583"><ele>170.0</ele><time>2026-03-29T13:16:42.004Z</time></trkpt><trkpt lat="44.9749217" lon="8.168345"><ele>170.0</ele><time>2026-03-29T13:16:43.004Z</time></trkpt><trkpt lat="44.975055" lon="8.16824"><ele>170.0</ele><time>2026-03-29T13:16:44.003Z</time></trkpt><trkpt lat="44.9751883" lon="8.168145"><ele>170.0</ele><time>2026-03-29T13:16:45.003Z</time></trkpt><trkpt lat="44.97532" lon="8.16805"><ele>170.0</ele><time>2026-03-29T13:16:46.002Z</time></trkpt><trkpt lat="44.9754467" lon="8.16795"><ele>170.0</ele><time>2026-03-29T13:16:47.003Z</time></trkpt><trkpt lat="44.975565" lon="8.1678367"><ele>170.0</ele><time>2026-03-29T13:16:48.006Z</time></trkpt><trkpt lat="44.975675" lon="8.167715"><ele>170.0</ele><time>2026-03-29T13:16:49.004Z</time></trkpt><trkpt lat="44.97578" lon="8.1675833"><ele>170.0</ele><time>2026-03-29T13:16:50.005Z</time></trkpt><trkpt lat="44.9758867" lon="8.1674517"><ele>170.0</ele><time>2026-03-29T13:16:51.006Z</time></trkpt><trkpt lat="44.9759883" lon="8.1673267"><ele>171.25</ele><time>2026-03-29T13:16:52.006Z</time></trkpt><trkpt lat="44.9760983" lon="8.1672133"><ele>172.5</ele><time>2026-03-29T13:16:53.006Z</time></trkpt><trkpt lat="44.976215" lon="8.1671"><ele>173.75</ele><time>2026-03-29T13:16:54.004Z</time></trkpt><trkpt lat="44.9763317" lon="8.1669817"><ele>175.0</ele><time>2026-03-29T13:16:55.004Z</time></trkpt><trkpt lat="44.9764517" lon="8.16686"><ele>175.0</ele><time>2026-03-29T13:16:56.004Z</time></trkpt><trkpt lat="44.9765683" lon="8.166745"><ele>175.0</ele><time>2026-03-29T13:16:57.004Z</time></trkpt><trkpt lat="44.9766817" lon="8.1666267"><ele>175.0</ele><time>2026-03-29T13:16:58.004Z</time></trkpt><trkpt lat="44.9767933" lon="8.1665117"><ele>175.0</ele><time>2026-03-29T13:16:59.008Z</time></trkpt><trkpt lat="44.9769167" lon="8.1664183"><ele>173.5</ele><time>2026-03-29T13:17:00.009Z</time></trkpt><trkpt lat="44.9770467" lon="8.166335"><ele>172.0</ele><time>2026-03-29T13:17:01.001Z</time></trkpt><trkpt lat="44.9771767" lon="8.1662667"><ele>170.5</ele><time>2026-03-29T13:17:02.001Z</time></trkpt><trkpt lat="44.977295" lon="8.1662017"><ele>169.0</ele><time>2026-03-29T13:17:03.003Z</time></trkpt><trkpt lat="44.9774117" lon="8.166135"><ele>170.5</ele><time>2026-03-29T13:17:04.005Z</time></trkpt><trkpt lat="44.9775367" lon="8.1660633"><ele>172.0</ele><time>2026-03-29T13:17:05.004Z</time></trkpt><trkpt lat="44.9776583" lon="8.1659733"><ele>173.5</ele><time>2026-03-29T13:17:06Z</time></trkpt><trkpt lat="44.97779" lon="8.165875"><ele>175.0</ele><time>2026-03-29T13:17:07.004Z</time></trkpt><trkpt lat="44.9778983" lon="8.165745"><ele>174.5</ele><time>2026-03-29T13:17:08.004Z</time></trkpt><trkpt lat="44.977995" lon="8.1656067"><ele>174.0</ele><time>2026-03-29T13:17:09.008Z</time></trkpt><trkpt lat="44.978085" lon="8.1654683"><ele>173.5</ele><time>2026-03-29T13:17:10.007Z</time></trkpt><trkpt lat="44.9781783" lon="8.1653367"><ele>173.0</ele><time>2026-03-29T13:17:11.006Z</time></trkpt><trkpt lat="44.978275" lon="8.165205"><ele>173.5</ele><time>2026-03-29T13:17:12.006Z</time></trkpt><trkpt lat="44.97837" lon="8.1650917"><ele>174.0</ele><time>2026-03-29T13:17:13.006Z</time></trkpt><trkpt lat="44.9784683" lon="8.164985"><ele>174.5</ele><time>2026-03-29T13:17:14.002Z</time></trkpt><trkpt lat="44.9785667" lon="8.1648867"><ele>175.0</ele><time>2026-03-29T13:17:15.005Z</time></trkpt><trkpt lat="44.9786667" lon="8.1647933"><ele>175.0</ele><time>2026-03-29T13:17:16.005Z</time></trkpt><trkpt lat="44.978765" lon="8.1647033"><ele>175.0</ele><time>2026-03-29T13:17:16.999Z</time></trkpt><trkpt lat="44.9788583" lon="8.1646183"><ele>175.0</ele><time>2026-03-29T13:17:18Z</time></trkpt><trkpt lat="44.9789467" lon="8.1645283"><ele>175.0</ele><time>2026-03-29T13:17:19.01Z</time></trkpt><trkpt lat="44.979025" lon="8.1644383"><ele>175.0</ele><time>2026-03-29T13:17:20.01Z</time></trkpt><trkpt lat="44.9791017" lon="8.164345"><ele>175.0</ele><time>2026-03-29T13:17:21.015Z</time></trkpt><trkpt lat="44.9791717" lon="8.1642433"><ele>175.0</ele><time>2026-03-29T13:17:22.006Z</time></trkpt><trkpt lat="44.9792367" lon="8.1641483"><ele>175.0</ele><time>2026-03-29T13:17:23.006Z</time></trkpt><trkpt lat="44.9792967" lon="8.1640383"><ele>175.0</ele><time>2026-03-29T13:17:24.008Z</time></trkpt><trkpt lat="44.9793583" lon="8.1639283"><ele>175.0</ele><time>2026-03-29T13:17:25.004Z</time></trkpt><trkpt lat="44.9794167" lon="8.1638167"><ele>176.4</ele><time>2026-03-29T13:17:26.007Z</time></trkpt><trkpt lat="44.97947" lon="8.1637033"><ele>177.8</ele><time>2026-03-29T13:17:27.003Z</time></trkpt><trkpt lat="44.9795217" lon="8.1635983"><ele>179.2</ele><time>2026-03-29T13:17:28.003Z</time></trkpt><trkpt lat="44.9795783" lon="8.1634917"><ele>180.6</ele><time>2026-03-29T13:17:29.003Z</time></trkpt><trkpt lat="44.9796483" lon="8.1633917"><ele>182.0</ele><time>2026-03-29T13:17:30.007Z</time></trkpt><trkpt lat="44.97972" lon="8.1632783"><ele>182.0</ele><time>2026-03-29T13:17:31.009Z</time></trkpt><trkpt lat="44.9798" lon="8.1631567"><ele>182.0</ele><time>2026-03-29T13:17:32.003Z</time></trkpt><trkpt lat="44.9798883" lon="8.163025"><ele>182.0</ele><time>2026-03-29T13:17:33.005Z</time></trkpt><trkpt lat="44.9799783" lon="8.1628883"><ele>182.0</ele><time>2026-03-29T13:17:34.006Z</time></trkpt><trkpt lat="44.9800733" lon="8.1627483"><ele>182.0</ele><time>2026-03-29T13:17:35.004Z</time></trkpt><trkpt lat="44.9801717" lon="8.1626133"><ele>182.0</ele><time>2026-03-29T13:17:36.007Z</time></trkpt><trkpt lat="44.9802667" lon="8.16248"><ele>182.0</ele><time>2026-03-29T13:17:37.004Z</time></trkpt><trkpt lat="44.9803683" lon="8.1623483"><ele>182.0</ele><time>2026-03-29T13:17:38.006Z</time></trkpt><trkpt lat="44.9804733" lon="8.16222"><ele>180.75</ele><time>2026-03-29T13:17:39.007Z</time></trkpt><trkpt lat="44.98058" lon="8.1620917"><ele>179.5</ele><time>2026-03-29T13:17:40.003Z</time></trkpt><trkpt lat="44.98068" lon="8.161955"><ele>178.25</ele><time>2026-03-29T13:17:41.005Z</time></trkpt><trkpt lat="44.98078" lon="8.1618133"><ele>177.0</ele><time>2026-03-29T13:17:42.001Z</time></trkpt><trkpt lat="44.9808817" lon="8.1616617"><ele>180.33333333333334</ele><time>2026-03-29T13:17:43Z</time></trkpt><trkpt lat="44.9809833" lon="8.1614983"><ele>183.66666666666669</ele><time>2026-03-29T13:17:44.003Z</time></trkpt><trkpt lat="44.9810883" lon="8.16133"><ele>187.0</ele><time>2026-03-29T13:17:45.008Z</time></trkpt><trkpt lat="44.981195" lon="8.1611583"><ele>187.0</ele><time>2026-03-29T13:17:46.012Z</time></trkpt><trkpt lat="44.9813" lon="8.16098"><ele>187.0</ele><time>2026-03-29T13:17:47.003Z</time></trkpt><trkpt lat="44.9814033" lon="8.1607983"><ele>187.0</ele><time>2026-03-29T13:17:48.003Z</time></trkpt><trkpt lat="44.9815033" lon="8.1606217"><ele>187.66666666666669</ele><time>2026-03-29T13:17:49.005Z</time></trkpt><trkpt lat="44.9816067" lon="8.160445"><ele>188.33333333333334</ele><time>2026-03-29T13:17:50.003Z</time></trkpt><trkpt lat="44.9817133" lon="8.1602733"><ele>189.0</ele><time>2026-03-29T13:17:51.008Z</time></trkpt><trkpt lat="44.9818217" lon="8.1600917"><ele>189.0</ele><time>2026-03-29T13:17:52.005Z</time></trkpt><trkpt lat="44.9819317" lon="8.1599133"><ele>189.0</ele><time>2026-03-29T13:17:53.002Z</time></trkpt><trkpt lat="44.9820417" lon="8.1597367"><ele>189.0</ele><time>2026-03-29T13:17:54.005Z</time></trkpt><trkpt lat="44.9821483" lon="8.1595567"><ele>188.0</ele><time>2026-03-29T13:17:55.006Z</time></trkpt><trkpt lat="44.9822517" lon="8.1593733"><ele>187.0</ele><time>2026-03-29T13:17:56.007Z</time></trkpt><trkpt lat="44.982345" lon="8.1591933"><ele>186.0</ele><time>2026-03-29T13:17:57.006Z</time></trkpt><trkpt lat="44.9824317" lon="8.1590133"><ele>186.75</ele><time>2026-03-29T13:17:58.006Z</time></trkpt><trkpt lat="44.9825183" lon="8.1588433"><ele>187.5</ele><time>2026-03-29T13:17:59.007Z</time></trkpt><trkpt lat="44.9826067" lon="8.158685"><ele>188.25</ele><time>2026-03-29T13:18:00.009Z</time></trkpt><trkpt lat="44.9827" lon="8.158535"><ele>189.0</ele><time>2026-03-29T13:18:01.005Z</time></trkpt><trkpt lat="44.9828" lon="8.1583967"><ele>189.0</ele><time>2026-03-29T13:18:02.002Z</time></trkpt><trkpt lat="44.9829083" lon="8.1582633"><ele>189.0</ele><time>2026-03-29T13:18:03.005Z</time></trkpt><trkpt lat="44.9830233" lon="8.1581283"><ele>189.0</ele><time>2026-03-29T13:18:04.002Z</time></trkpt><trkpt lat="44.9831417" lon="8.1579983"><ele>189.0</ele><time>2026-03-29T13:18:05.01Z</time></trkpt><trkpt lat="44.98326" lon="8.1578667"><ele>188.66666666666666</ele><time>2026-03-29T13:18:06.002Z</time></trkpt><trkpt lat="44.9833867" lon="8.15774"><ele>188.33333333333331</ele><time>2026-03-29T13:18:07.007Z</time></trkpt><trkpt lat="44.9835233" lon="8.15763"><ele>188.0</ele><time>2026-03-29T13:18:08.006Z</time></trkpt><trkpt lat="44.9836717" lon="8.1575283"><ele>188.0</ele><time>2026-03-29T13:18:09.003Z</time></trkpt><trkpt lat="44.98382" lon="8.1574233"><ele>188.0</ele><time>2026-03-29T13:18:10.006Z</time></trkpt><trkpt lat="44.9839717" lon="8.1573283"><ele>188.0</ele><time>2026-03-29T13:18:11.004Z</time></trkpt><trkpt lat="44.984125" lon="8.1572283"><ele>187.66666666666666</ele><time>2026-03-29T13:18:12.006Z</time></trkpt><trkpt lat="44.9842817" lon="8.15712"><ele>187.33333333333334</ele><time>2026-03-29T13:18:13.006Z</time></trkpt><trkpt lat="44.98444" lon="8.1570067"><ele>187.0</ele><time>2026-03-29T13:18:14.006Z</time></trkpt><trkpt lat="44.9845983" lon="8.1568833"><ele>187.0</ele><time>2026-03-29T13:18:15.005Z</time></trkpt><trkpt lat="44.984755" lon="8.156755"><ele>187.0</ele><time>2026-03-29T13:18:16.004Z</time></trkpt><trkpt lat="44.9849133" lon="8.15663"><ele>187.0</ele><time>2026-03-29T13:18:17.003Z</time></trkpt><trkpt lat="44.985075" lon="8.1565083"><ele>187.66666666666669</ele><time>2026-03-29T13:18:18.006Z</time></trkpt><trkpt lat="44.98524" lon="8.15639"><ele>188.33333333333334</ele><time>2026-03-29T13:18:19.005Z</time></trkpt><trkpt lat="44.9854033" lon="8.15627"><ele>189.0</ele><time>2026-03-29T13:18:20Z</time></trkpt><trkpt lat="44.985565" lon="8.1561433"><ele>189.0</ele><time>2026-03-29T13:18:21.007Z</time></trkpt><trkpt lat="44.9857217" lon="8.1560117"><ele>189.0</ele><time>2026-03-29T13:18:22.003Z</time></trkpt><trkpt lat="44.9858783" lon="8.15588"><ele>189.0</ele><time>2026-03-29T13:18:23.009Z</time></trkpt><trkpt lat="44.9860333" lon="8.155755"><ele>189.33333333333334</ele><time>2026-03-29T13:18:24.006Z</time></trkpt><trkpt lat="44.9861783" lon="8.15563"><ele>189.66666666666669</ele><time>2026-03-29T13:18:25.005Z</time></trkpt><trkpt lat="44.9863183" lon="8.155505"><ele>190.0</ele><time>2026-03-29T13:18:26.004Z</time></trkpt><trkpt lat="44.9864533" lon="8.155375"><ele>190.0</ele><time>2026-03-29T13:18:27.007Z</time></trkpt><trkpt lat="44.986585" lon="8.1552467"><ele>190.0</ele><time>2026-03-29T13:18:28.01Z</time></trkpt><trkpt lat="44.9867167" lon="8.1551183"><ele>190.0</ele><time>2026-03-29T13:18:29.006Z</time></trkpt><trkpt lat="44.9868433" lon="8.1549933"><ele>189.33333333333334</ele><time>2026-03-29T13:18:30.011Z</time></trkpt><trkpt lat="44.9869717" lon="8.1548667"><ele>188.66666666666666</ele><time>2026-03-29T13:18:31.007Z</time></trkpt><trkpt lat="44.9871017" lon="8.1547483"><ele>188.0</ele><time>2026-03-29T13:18:32.003Z</time></trkpt><trkpt lat="44.9872283" lon="8.1546317"><ele>188.0</ele><time>2026-03-29T13:18:33.005Z</time></trkpt><trkpt lat="44.98735" lon="8.15451"><ele>188.0</ele><time>2026-03-29T13:18:34.003Z</time></trkpt><trkpt lat="44.9874667" lon="8.1543833"><ele>188.0</ele><time>2026-03-29T13:18:35.003Z</time></trkpt><trkpt lat="44.98758" lon="8.1542517"><ele>188.0</ele><time>2026-03-29T13:18:36.013Z</time></trkpt><trkpt lat="44.9876883" lon="8.1541217"><ele>189.25</ele><time>2026-03-29T13:18:37.003Z</time></trkpt><trkpt lat="44.9877967" lon="8.1539967"><ele>190.5</ele><time>2026-03-29T13:18:38.004Z</time></trkpt><trkpt lat="44.9878967" lon="8.1538783"><ele>191.75</ele><time>2026-03-29T13:18:39.01Z</time></trkpt><trkpt lat="44.987995" lon="8.1537683"><ele>193.0</ele><time>2026-03-29T13:18:40.008Z</time></trkpt><trkpt lat="44.988085" lon="8.1536733"><ele>192.99999999999997</ele><time>2026-03-29T13:18:41.007Z</time></trkpt><trkpt lat="44.9881617" lon="8.1535883"><ele>193.0</ele><time>2026-03-29T13:18:42.006Z</time></trkpt><trkpt lat="44.98823" lon="8.1535167"><ele>193.0</ele><time>2026-03-29T13:18:43.007Z</time></trkpt><trkpt lat="44.98829" lon="8.1534467"><ele>193.0</ele><time>2026-03-29T13:18:44.002Z</time></trkpt><trkpt lat="44.9883367" lon="8.1533683"><ele>192.99999999999997</ele><time>2026-03-29T13:18:45.006Z</time></trkpt><trkpt lat="44.9883233" lon="8.15326"><ele>193.0</ele><time>2026-03-29T13:18:46.006Z</time></trkpt><trkpt lat="44.988305" lon="8.1531433"><ele>192.4</ele><time>2026-03-29T13:18:47.004Z</time></trkpt><trkpt lat="44.9882833" lon="8.153025"><ele>191.8</ele><time>2026-03-29T13:18:48.005Z</time></trkpt><trkpt lat="44.98826" lon="8.15289"><ele>191.2</ele><time>2026-03-29T13:18:49.005Z</time></trkpt><trkpt lat="44.9882567" lon="8.15274"><ele>190.6</ele><time>2026-03-29T13:18:50Z</time></trkpt><trkpt lat="44.988275" lon="8.15258"><ele>190.0</ele><time>2026-03-29T13:18:51.007Z</time></trkpt><trkpt lat="44.98832" lon="8.1524167"><ele>189.75</ele><time>2026-03-29T13:18:52.002Z</time></trkpt><trkpt lat="44.9883867" lon="8.1522417"><ele>189.5</ele><time>2026-03-29T13:18:53.002Z</time></trkpt><trkpt lat="44.98846" lon="8.1520533"><ele>189.25</ele><time>2026-03-29T13:18:54.002Z</time></trkpt><trkpt lat="44.9885367" lon="8.1518683"><ele>189.0</ele><time>2026-03-29T13:18:55.009Z</time></trkpt><trkpt lat="44.98862" lon="8.1516817"><ele>190.0</ele><time>2026-03-29T13:18:56.005Z</time></trkpt><trkpt lat="44.9887017" lon="8.151495"><ele>191.0</ele><time>2026-03-29T13:18:57.003Z</time></trkpt><trkpt lat="44.98878" lon="8.1513033"><ele>192.0</ele><time>2026-03-29T13:18:58.007Z</time></trkpt><trkpt lat="44.9888417" lon="8.1511017"><ele>192.0</ele><time>2026-03-29T13:18:59.004Z</time></trkpt><trkpt lat="44.9888933" lon="8.1508817"><ele>192.0</ele><time>2026-03-29T13:19:00.011Z</time></trkpt><trkpt lat="44.9889317" lon="8.150645"><ele>192.0</ele><time>2026-03-29T13:19:01.004Z</time></trkpt><trkpt lat="44.988965" lon="8.1504"><ele>192.66666666666669</ele><time>2026-03-29T13:19:02.003Z</time></trkpt><trkpt lat="44.9889967" lon="8.1501367"><ele>193.33333333333334</ele><time>2026-03-29T13:19:03.007Z</time></trkpt><trkpt lat="44.9890267" lon="8.1498533"><ele>194.0</ele><time>2026-03-29T13:19:04.005Z</time></trkpt><trkpt lat="44.9890617" lon="8.1495517"><ele>195.66666666666669</ele><time>2026-03-29T13:19:05.007Z</time></trkpt><trkpt lat="44.9890983" lon="8.1492483"><ele>197.33333333333331</ele><time>2026-03-29T13:19:06.004Z</time></trkpt><trkpt lat="44.9891383" lon="8.1489483"><ele>199.0</ele><time>2026-03-29T13:19:07.005Z</time></trkpt><trkpt lat="44.9891783" lon="8.1486383"><ele>201.5</ele><time>2026-03-29T13:19:08.006Z</time></trkpt><trkpt lat="44.9892233" lon="8.1483117"><ele>204.0</ele><time>2026-03-29T13:19:09.005Z</time></trkpt><trkpt lat="44.989265" lon="8.147965"><ele>204.0</ele><time>2026-03-29T13:19:10.008Z</time></trkpt><trkpt lat="44.989305" lon="8.1476183"><ele>204.0</ele><time>2026-03-29T13:19:11.003Z</time></trkpt><trkpt lat="44.9893417" lon="8.1472883"><ele>205.0</ele><time>2026-03-29T13:19:12.007Z</time></trkpt><trkpt lat="44.9893717" lon="8.1469733"><ele>206.0</ele><time>2026-03-29T13:19:13.004Z</time></trkpt><trkpt lat="44.9894033" lon="8.146675"><ele>207.0</ele><time>2026-03-29T13:19:14.005Z</time></trkpt><trkpt lat="44.9894383" lon="8.1463933"><ele>207.66666666666669</ele><time>2026-03-29T13:19:15.009Z</time></trkpt><trkpt lat="44.9894683" lon="8.146115"><ele>208.33333333333334</ele><time>2026-03-29T13:19:16.004Z</time></trkpt><trkpt lat="44.9894933" lon="8.1458433"><ele>209.0</ele><time>2026-03-29T13:19:17.003Z</time></trkpt><trkpt lat="44.9895217" lon="8.1455783"><ele>210.33333333333334</ele><time>2026-03-29T13:19:18.005Z</time></trkpt><trkpt lat="44.98955" lon="8.14533"><ele>211.66666666666669</ele><time>2026-03-29T13:19:19.007Z</time></trkpt><trkpt lat="44.9895767" lon="8.1450917"><ele>213.0</ele><time>2026-03-29T13:19:20.006Z</time></trkpt><trkpt lat="44.9896017" lon="8.1448583"><ele>214.0</ele><time>2026-03-29T13:19:21.002Z</time></trkpt><trkpt lat="44.9896317" lon="8.1446283"><ele>215.0</ele><time>2026-03-29T13:19:22.005Z</time></trkpt><trkpt lat="44.9896733" lon="8.14441"><ele>216.0</ele><time>2026-03-29T13:19:23.002Z</time></trkpt><trkpt lat="44.9897283" lon="8.144205"><ele>216.33333333333331</ele><time>2026-03-29T13:19:24.005Z</time></trkpt><trkpt lat="44.9897933" lon="8.143995"><ele>216.66666666666666</ele><time>2026-03-29T13:19:25.004Z</time></trkpt><trkpt lat="44.989865" lon="8.1437867"><ele>217.0</ele><time>2026-03-29T13:19:26.006Z</time></trkpt><trkpt lat="44.9899383" lon="8.14358"><ele>220.0</ele><time>2026-03-29T13:19:27.005Z</time></trkpt><trkpt lat="44.99001" lon="8.14337"><ele>223.0</ele><time>2026-03-29T13:19:28.008Z</time></trkpt><trkpt lat="44.990085" lon="8.1431617"><ele>226.0</ele><time>2026-03-29T13:19:29.007Z</time></trkpt><trkpt lat="44.9901567" lon="8.14295"><ele>226.0</ele><time>2026-03-29T13:19:30.003Z</time></trkpt><trkpt lat="44.9902317" lon="8.1427433"><ele>226.0</ele><time>2026-03-29T13:19:31.007Z</time></trkpt><trkpt lat="44.9903033" lon="8.1425367"><ele>226.0</ele><time>2026-03-29T13:19:32.008Z</time></trkpt><trkpt lat="44.990375" lon="8.1423317"><ele>225.33333333333331</ele><time>2026-03-29T13:19:33.003Z</time></trkpt><trkpt lat="44.9904517" lon="8.1421267"><ele>224.66666666666669</ele><time>2026-03-29T13:19:34.004Z</time></trkpt><trkpt lat="44.9905267" lon="8.1419217"><ele>224.0</ele><time>2026-03-29T13:19:35.004Z</time></trkpt><trkpt lat="44.9906033" lon="8.1417183"><ele>224.33333333333334</ele><time>2026-03-29T13:19:36.009Z</time></trkpt><trkpt lat="44.9906783" lon="8.1415117"><ele>224.66666666666669</ele><time>2026-03-29T13:19:37.007Z</time></trkpt><trkpt lat="44.9907517" lon="8.1413033"><ele>225.0</ele><time>2026-03-29T13:19:38.003Z</time></trkpt><trkpt lat="44.9908267" lon="8.1410933"><ele>229.0</ele><time>2026-03-29T13:19:39.002Z</time></trkpt><trkpt lat="44.9908983" lon="8.1408817"><ele>233.0</ele><time>2026-03-29T13:19:40.003Z</time></trkpt><trkpt lat="44.9909683" lon="8.1406683"><ele>237.0</ele><time>2026-03-29T13:19:41.002Z</time></trkpt><trkpt lat="44.99104" lon="8.1404567"><ele>237.0</ele><time>2026-03-29T13:19:42.004Z</time></trkpt><trkpt lat="44.9911133" lon="8.1402467"><ele>237.0</ele><time>2026-03-29T13:19:43.005Z</time></trkpt><trkpt lat="44.9911867" lon="8.1400417"><ele>237.0</ele><time>2026-03-29T13:19:44.002Z</time></trkpt><trkpt lat="44.99126" lon="8.1398383"><ele>236.66666666666669</ele><time>2026-03-29T13:19:45.002Z</time></trkpt><trkpt lat="44.9913317" lon="8.1396383"><ele>236.33333333333334</ele><time>2026-03-29T13:19:46.003Z</time></trkpt><trkpt lat="44.9914" lon="8.139445"><ele>236.0</ele><time>2026-03-29T13:19:47.005Z</time></trkpt><trkpt lat="44.9914683" lon="8.1392583"><ele>236.0</ele><time>2026-03-29T13:19:48.004Z</time></trkpt><trkpt lat="44.9915367" lon="8.1390717"><ele>236.0</ele><time>2026-03-29T13:19:49.006Z</time></trkpt><trkpt lat="44.9916067" lon="8.1388867"><ele>236.0</ele><time>2026-03-29T13:19:50.005Z</time></trkpt><trkpt lat="44.9916683" lon="8.1387"><ele>236.0</ele><time>2026-03-29T13:19:51.002Z</time></trkpt><trkpt lat="44.9917267" lon="8.138515"><ele>238.5</ele><time>2026-03-29T13:19:52.005Z</time></trkpt><trkpt lat="44.991785" lon="8.1383283"><ele>241.0</ele><time>2026-03-29T13:19:53.009Z</time></trkpt><trkpt lat="44.9918433" lon="8.138145"><ele>243.5</ele><time>2026-03-29T13:19:54.007Z</time></trkpt><trkpt lat="44.9919017" lon="8.1379667"><ele>246.0</ele><time>2026-03-29T13:19:55.007Z</time></trkpt><trkpt lat="44.99196" lon="8.1377967"><ele>247.25</ele><time>2026-03-29T13:19:56.006Z</time></trkpt><trkpt lat="44.9920233" lon="8.1376367"><ele>248.5</ele><time>2026-03-29T13:19:57.011Z</time></trkpt><trkpt lat="44.9920933" lon="8.1374917"><ele>249.75</ele><time>2026-03-29T13:19:58.008Z</time></trkpt><trkpt lat="44.99217" lon="8.1373633"><ele>251.0</ele><time>2026-03-29T13:19:59.005Z</time></trkpt><trkpt lat="44.9922517" lon="8.1372567"><ele>252.4</ele><time>2026-03-29T13:20:00.01Z</time></trkpt><trkpt lat="44.9923283" lon="8.1371533"><ele>253.8</ele><time>2026-03-29T13:20:01.006Z</time></trkpt><trkpt lat="44.992405" lon="8.1370467"><ele>255.20000000000002</ele><time>2026-03-29T13:20:02.002Z</time></trkpt><trkpt lat="44.9924833" lon="8.13694"><ele>256.6</ele><time>2026-03-29T13:20:03.002Z</time></trkpt><trkpt lat="44.9925583" lon="8.136835"><ele>258.0</ele><time>2026-03-29T13:20:04.004Z</time></trkpt><trkpt lat="44.9926267" lon="8.1367333"><ele>258.8333333333333</ele><time>2026-03-29T13:20:05.003Z</time></trkpt><trkpt lat="44.99269" lon="8.1366383"><ele>259.6666666666667</ele><time>2026-03-29T13:20:06.005Z</time></trkpt><trkpt lat="44.992745" lon="8.1365567"><ele>260.5</ele><time>2026-03-29T13:20:07.004Z</time></trkpt><trkpt lat="44.9927967" lon="8.1364833"><ele>261.33333333333337</ele><time>2026-03-29T13:20:08.009Z</time></trkpt><trkpt lat="44.992845" lon="8.1364167"><ele>262.1666666666667</ele><time>2026-03-29T13:20:09.003Z</time></trkpt><trkpt lat="44.992925" lon="8.136335"><ele>263.0</ele><time>2026-03-29T13:20:11.004Z</time></trkpt><trkpt lat="44.9929817" lon="8.1362767"><ele>263.6</ele><time>2026-03-29T13:20:14.006Z</time></trkpt><trkpt lat="44.9929533" lon="8.1361733"><ele>264.20000000000005</ele><time>2026-03-29T13:20:17.006Z</time></trkpt><trkpt lat="44.9928867" lon="8.1361167"><ele>264.8</ele><time>2026-03-29T13:20:19.007Z</time></trkpt><trkpt lat="44.9927733" lon="8.1360467"><ele>265.40000000000003</ele><time>2026-03-29T13:20:21.006Z</time></trkpt><trkpt lat="44.9926917" lon="8.1360067"><ele>266.0</ele><time>2026-03-29T13:20:22.007Z</time></trkpt><trkpt lat="44.9926017" lon="8.1359667"><ele>266.0</ele><time>2026-03-29T13:20:23.009Z</time></trkpt><trkpt lat="44.9925067" lon="8.1359317"><ele>266.0</ele><time>2026-03-29T13:20:24.003Z</time></trkpt><trkpt lat="44.9924033" lon="8.1359"><ele>266.0</ele><time>2026-03-29T13:20:25.005Z</time></trkpt><trkpt lat="44.992285" lon="8.13589"><ele>266.0</ele><time>2026-03-29T13:20:26.006Z</time></trkpt><trkpt lat="44.9921667" lon="8.1358833"><ele>266.0</ele><time>2026-03-29T13:20:27.001Z</time></trkpt><trkpt lat="44.9920533" lon="8.1358833"><ele>263.40000000000003</ele><time>2026-03-29T13:20:28.003Z</time></trkpt><trkpt lat="44.991945" lon="8.1358817"><ele>260.8</ele><time>2026-03-29T13:20:29.003Z</time></trkpt><trkpt lat="44.991835" lon="8.1358717"><ele>258.20000000000005</ele><time>2026-03-29T13:20:30.005Z</time></trkpt><trkpt lat="44.9917233" lon="8.1358433"><ele>255.60000000000002</ele><time>2026-03-29T13:20:31.001Z</time></trkpt><trkpt lat="44.9916183" lon="8.1357867"><ele>253.0</ele><time>2026-03-29T13:20:32.005Z</time></trkpt><trkpt lat="44.9915233" lon="8.1357017"><ele>246.75</ele><time>2026-03-29T13:20:33.005Z</time></trkpt><trkpt lat="44.9914283" lon="8.1356033"><ele>240.5</ele><time>2026-03-29T13:20:34.007Z</time></trkpt><trkpt lat="44.991335" lon="8.1355033"><ele>234.25</ele><time>2026-03-29T13:20:35.004Z</time></trkpt><trkpt lat="44.991235" lon="8.13541"><ele>228.0</ele><time>2026-03-29T13:20:36.005Z</time></trkpt><trkpt lat="44.99114" lon="8.135305"><ele>228.0</ele><time>2026-03-29T13:20:37.005Z</time></trkpt><trkpt lat="44.9910433" lon="8.1351917"><ele>228.0</ele><time>2026-03-29T13:20:38.002Z</time></trkpt><trkpt lat="44.9909567" lon="8.1350633"><ele>228.0</ele><time>2026-03-29T13:20:39.005Z</time></trkpt><trkpt lat="44.99088" lon="8.1349183"><ele>228.0</ele><time>2026-03-29T13:20:40.004Z</time></trkpt><trkpt lat="44.99082" lon="8.1347617"><ele>226.25</ele><time>2026-03-29T13:20:41.001Z</time></trkpt><trkpt lat="44.99076" lon="8.1346017"><ele>224.5</ele><time>2026-03-29T13:20:42.002Z</time></trkpt><trkpt lat="44.9906867" lon="8.1344483"><ele>222.75</ele><time>2026-03-29T13:20:43Z</time></trkpt><trkpt lat="44.99061" lon="8.1342917"><ele>221.0</ele><time>2026-03-29T13:20:44Z</time></trkpt><trkpt lat="44.9905283" lon="8.1341317"><ele>217.75</ele><time>2026-03-29T13:20:45.009Z</time></trkpt><trkpt lat="44.9904467" lon="8.133965"><ele>214.5</ele><time>2026-03-29T13:20:46.001Z</time></trkpt><trkpt lat="44.9903617" lon="8.133795"><ele>211.25</ele><time>2026-03-29T13:20:47.002Z</time></trkpt><trkpt lat="44.990275" lon="8.1336317"><ele>208.0</ele><time>2026-03-29T13:20:48Z</time></trkpt><trkpt lat="44.9901867" lon="8.1334667"><ele>208.0</ele><time>2026-03-29T13:20:49.002Z</time></trkpt><trkpt lat="44.9900917" lon="8.1333083"><ele>208.0</ele><time>2026-03-29T13:20:50.001Z</time></trkpt><trkpt lat="44.99" lon="8.13315"><ele>208.0</ele><time>2026-03-29T13:20:51.004Z</time></trkpt><trkpt lat="44.98991" lon="8.1329883"><ele>208.0</ele><time>2026-03-29T13:20:52.003Z</time></trkpt><trkpt lat="44.98982" lon="8.13283"><ele>209.0</ele><time>2026-03-29T13:20:52.999Z</time></trkpt><trkpt lat="44.9897383" lon="8.1326767"><ele>210.0</ele><time>2026-03-29T13:20:54.004Z</time></trkpt><trkpt lat="44.9896717" lon="8.1325267"><ele>211.0</ele><time>2026-03-29T13:20:55.001Z</time></trkpt><trkpt lat="44.9896267" lon="8.1323733"><ele>212.0</ele><time>2026-03-29T13:20:56.001Z</time></trkpt><trkpt lat="44.9895933" lon="8.132215"><ele>209.75</ele><time>2026-03-29T13:20:57.005Z</time></trkpt><trkpt lat="44.98959" lon="8.132045"><ele>207.5</ele><time>2026-03-29T13:20:58.005Z</time></trkpt><trkpt lat="44.9896067" lon="8.1318633"><ele>205.25</ele><time>2026-03-29T13:20:59.004Z</time></trkpt><trkpt lat="44.989635" lon="8.1316767"><ele>203.0</ele><time>2026-03-29T13:21:00.011Z</time></trkpt><trkpt lat="44.9896733" lon="8.131485"><ele>199.66666666666669</ele><time>2026-03-29T13:21:01.005Z</time></trkpt><trkpt lat="44.9897183" lon="8.1312883"><ele>196.33333333333331</ele><time>2026-03-29T13:21:02.007Z</time></trkpt><trkpt lat="44.9897717" lon="8.1310867"><ele>193.0</ele><time>2026-03-29T13:21:03.005Z</time></trkpt><trkpt lat="44.9898233" lon="8.130875"><ele>190.33333333333331</ele><time>2026-03-29T13:21:04.005Z</time></trkpt><trkpt lat="44.9898783" lon="8.1306633"><ele>187.66666666666666</ele><time>2026-03-29T13:21:05.002Z</time></trkpt><trkpt lat="44.9899317" lon="8.1304517"><ele>185.0</ele><time>2026-03-29T13:21:06.008Z</time></trkpt><trkpt lat="44.989985" lon="8.13024"><ele>185.0</ele><time>2026-03-29T13:21:07.001Z</time></trkpt><trkpt lat="44.9900383" lon="8.13003"><ele>185.0</ele><time>2026-03-29T13:21:08.003Z</time></trkpt><trkpt lat="44.9900917" lon="8.12982"><ele>185.0</ele><time>2026-03-29T13:21:09.009Z</time></trkpt><trkpt lat="44.990145" lon="8.1296117"><ele>183.0</ele><time>2026-03-29T13:21:10.003Z</time></trkpt><trkpt lat="44.9901967" lon="8.1294033"><ele>181.0</ele><time>2026-03-29T13:21:11.006Z</time></trkpt><trkpt lat="44.9902483" lon="8.1292"><ele>179.0</ele><time>2026-03-29T13:21:12.004Z</time></trkpt><trkpt lat="44.990295" lon="8.129005"><ele>178.25</ele><time>2026-03-29T13:21:13.005Z</time></trkpt><trkpt lat="44.9903383" lon="8.1288167"><ele>177.5</ele><time>2026-03-29T13:21:14.006Z</time></trkpt><trkpt lat="44.990365" lon="8.1286217"><ele>176.75</ele><time>2026-03-29T13:21:15.005Z</time></trkpt><trkpt lat="44.99036" lon="8.1284233"><ele>176.0</ele><time>2026-03-29T13:21:16.008Z</time></trkpt><trkpt lat="44.990325" lon="8.128235"><ele>175.75</ele><time>2026-03-29T13:21:17.008Z</time></trkpt><trkpt lat="44.9902583" lon="8.1280533"><ele>175.5</ele><time>2026-03-29T13:21:18.004Z</time></trkpt><trkpt lat="44.990175" lon="8.12788"><ele>175.25</ele><time>2026-03-29T13:21:19.004Z</time></trkpt><trkpt lat="44.99009" lon="8.1277117"><ele>175.0</ele><time>2026-03-29T13:21:20.003Z</time></trkpt><trkpt lat="44.99001" lon="8.12755"><ele>175.0</ele><time>2026-03-29T13:21:21.006Z</time></trkpt><trkpt lat="44.98993" lon="8.127395"><ele>175.0</ele><time>2026-03-29T13:21:22.006Z</time></trkpt><trkpt lat="44.9898533" lon="8.1272433"><ele>175.0</ele><time>2026-03-29T13:21:23.007Z</time></trkpt><trkpt lat="44.9897817" lon="8.1271033"><ele>175.0</ele><time>2026-03-29T13:21:24.001Z</time></trkpt><trkpt lat="44.9897183" lon="8.1269717"><ele>175.0</ele><time>2026-03-29T13:21:25.009Z</time></trkpt><trkpt lat="44.9896583" lon="8.1268467"><ele>175.0</ele><time>2026-03-29T13:21:26.006Z</time></trkpt><trkpt lat="44.989595" lon="8.1267317"><ele>175.0</ele><time>2026-03-29T13:21:27.006Z</time></trkpt><trkpt lat="44.989535" lon="8.12662"><ele>175.0</ele><time>2026-03-29T13:21:28.007Z</time></trkpt><trkpt lat="44.98948" lon="8.12651"><ele>175.0</ele><time>2026-03-29T13:21:29.002Z</time></trkpt><trkpt lat="44.9894233" lon="8.1264067"><ele>175.0</ele><time>2026-03-29T13:21:30.001Z</time></trkpt><trkpt lat="44.989375" lon="8.1263017"><ele>175.0</ele><time>2026-03-29T13:21:31.004Z</time></trkpt><trkpt lat="44.989335" lon="8.1262067"><ele>175.0</ele><time>2026-03-29T13:21:32.003Z</time></trkpt><trkpt lat="44.9893017" lon="8.1261133"><ele>175.0</ele><time>2026-03-29T13:21:33.001Z</time></trkpt><trkpt lat="44.9892767" lon="8.12601"><ele>175.0</ele><time>2026-03-29T13:21:34.002Z</time></trkpt><trkpt lat="44.98926" lon="8.1258983"><ele>175.0</ele><time>2026-03-29T13:21:35.001Z</time></trkpt><trkpt lat="44.9892767" lon="8.125765"><ele>175.0</ele><time>2026-03-29T13:21:36.007Z</time></trkpt><trkpt lat="44.9893083" lon="8.12561"><ele>175.0</ele><time>2026-03-29T13:21:37.003Z</time></trkpt><trkpt lat="44.98935" lon="8.1254467"><ele>175.0</ele><time>2026-03-29T13:21:38.004Z</time></trkpt><trkpt lat="44.98939" lon="8.1252717"><ele>175.0</ele><time>2026-03-29T13:21:39.009Z</time></trkpt><trkpt lat="44.989425" lon="8.1250733"><ele>175.66666666666669</ele><time>2026-03-29T13:21:40.008Z</time></trkpt><trkpt lat="44.98946" lon="8.1248367"><ele>176.33333333333334</ele><time>2026-03-29T13:21:41.006Z</time></trkpt><trkpt lat="44.9895" lon="8.1245667"><ele>177.0</ele><time>2026-03-29T13:21:42.008Z</time></trkpt><trkpt lat="44.9895267" lon="8.1242783"><ele>176.66666666666666</ele><time>2026-03-29T13:21:43.005Z</time></trkpt><trkpt lat="44.9895467" lon="8.123985"><ele>176.33333333333331</ele><time>2026-03-29T13:21:44.014Z</time></trkpt><trkpt lat="44.989565" lon="8.123695"><ele>176.0</ele><time>2026-03-29T13:21:45.008Z</time></trkpt><trkpt lat="44.9895967" lon="8.1234267"><ele>177.66666666666666</ele><time>2026-03-29T13:21:46.01Z</time></trkpt><trkpt lat="44.98965" lon="8.123165"><ele>179.33333333333334</ele><time>2026-03-29T13:21:47.005Z</time></trkpt><trkpt lat="44.98972" lon="8.12292"><ele>181.0</ele><time>2026-03-29T13:21:48Z</time></trkpt><trkpt lat="44.9898133" lon="8.122695"><ele>181.0</ele><time>2026-03-29T13:21:49.004Z</time></trkpt><trkpt lat="44.9899267" lon="8.12249"><ele>181.0</ele><time>2026-03-29T13:21:50.001Z</time></trkpt><trkpt lat="44.99006" lon="8.1222983"><ele>181.0</ele><time>2026-03-29T13:21:51.006Z</time></trkpt><trkpt lat="44.9902033" lon="8.1221117"><ele>181.66666666666669</ele><time>2026-03-29T13:21:52.007Z</time></trkpt><trkpt lat="44.9903467" lon="8.12192"><ele>182.33333333333334</ele><time>2026-03-29T13:21:53.001Z</time></trkpt><trkpt lat="44.9904917" lon="8.121725"><ele>183.0</ele><time>2026-03-29T13:21:54.005Z</time></trkpt><trkpt lat="44.990635" lon="8.121535"><ele>183.0</ele><time>2026-03-29T13:21:55.006Z</time></trkpt><trkpt lat="44.990775" lon="8.1213483"><ele>183.0</ele><time>2026-03-29T13:21:56.004Z</time></trkpt><trkpt lat="44.9909117" lon="8.1211617"><ele>183.0</ele><time>2026-03-29T13:21:57.003Z</time></trkpt><trkpt lat="44.9910483" lon="8.1209717"><ele>182.66666666666666</ele><time>2026-03-29T13:21:58.002Z</time></trkpt><trkpt lat="44.9911867" lon="8.120785"><ele>182.33333333333331</ele><time>2026-03-29T13:21:59.007Z</time></trkpt><trkpt lat="44.9913217" lon="8.120595"><ele>182.0</ele><time>2026-03-29T13:22:00.007Z</time></trkpt><trkpt lat="44.9914583" lon="8.1204133"><ele>182.0</ele><time>2026-03-29T13:22:01.008Z</time></trkpt><trkpt lat="44.991595" lon="8.12023"><ele>182.0</ele><time>2026-03-29T13:22:02.004Z</time></trkpt><trkpt lat="44.99173" lon="8.1200483"><ele>182.0</ele><time>2026-03-29T13:22:03.007Z</time></trkpt><trkpt lat="44.991865" lon="8.1198667"><ele>182.0</ele><time>2026-03-29T13:22:04.002Z</time></trkpt><trkpt lat="44.9919967" lon="8.1196817"><ele>182.0</ele><time>2026-03-29T13:22:05.008Z</time></trkpt><trkpt lat="44.9921267" lon="8.1194967"><ele>182.0</ele><time>2026-03-29T13:22:06.007Z</time></trkpt><trkpt lat="44.9922583" lon="8.11931"><ele>182.0</ele><time>2026-03-29T13:22:07.003Z</time></trkpt><trkpt lat="44.9923883" lon="8.1191267"><ele>182.0</ele><time>2026-03-29T13:22:08.008Z</time></trkpt><trkpt lat="44.9925217" lon="8.11894"><ele>182.0</ele><time>2026-03-29T13:22:09.004Z</time></trkpt><trkpt lat="44.992655" lon="8.118755"><ele>182.0</ele><time>2026-03-29T13:22:10.003Z</time></trkpt><trkpt lat="44.9927917" lon="8.1185717"><ele>182.0</ele><time>2026-03-29T13:22:11.006Z</time></trkpt><trkpt lat="44.99293" lon="8.11839"><ele>182.0</ele><time>2026-03-29T13:22:12.004Z</time></trkpt><trkpt lat="44.9930683" lon="8.1182067"><ele>181.66666666666666</ele><time>2026-03-29T13:22:13.002Z</time></trkpt><trkpt lat="44.9932017" lon="8.1180267"><ele>181.33333333333334</ele><time>2026-03-29T13:22:14.005Z</time></trkpt><trkpt lat="44.9933333" lon="8.1178483"><ele>181.0</ele><time>2026-03-29T13:22:15.005Z</time></trkpt><trkpt lat="44.993465" lon="8.11767"><ele>182.66666666666669</ele><time>2026-03-29T13:22:16.009Z</time></trkpt><trkpt lat="44.9935917" lon="8.117495"><ele>184.33333333333334</ele><time>2026-03-29T13:22:17.004Z</time></trkpt><trkpt lat="44.9937183" lon="8.1173217"><ele>186.0</ele><time>2026-03-29T13:22:17.999Z</time></trkpt><trkpt lat="44.9938383" lon="8.1171483"><ele>186.0</ele><time>2026-03-29T13:22:18.998Z</time></trkpt><trkpt lat="44.9939583" lon="8.11698"><ele>186.0</ele><time>2026-03-29T13:22:20.007Z</time></trkpt><trkpt lat="44.99408" lon="8.1168117"><ele>186.0</ele><time>2026-03-29T13:22:21.005Z</time></trkpt><trkpt lat="44.994205" lon="8.116645"><ele>185.66666666666666</ele><time>2026-03-29T13:22:22.004Z</time></trkpt><trkpt lat="44.9943233" lon="8.1164783"><ele>185.33333333333331</ele><time>2026-03-29T13:22:23.001Z</time></trkpt><trkpt lat="44.9944367" lon="8.1163117"><ele>185.0</ele><time>2026-03-29T13:22:24.002Z</time></trkpt><trkpt lat="44.9945533" lon="8.11615"><ele>185.0</ele><time>2026-03-29T13:22:25.003Z</time></trkpt><trkpt lat="44.9946667" lon="8.1159867"><ele>185.0</ele><time>2026-03-29T13:22:26.004Z</time></trkpt><trkpt lat="44.994775" lon="8.1158283"><ele>185.0</ele><time>2026-03-29T13:22:27.01Z</time></trkpt><trkpt lat="44.994885" lon="8.1156717"><ele>184.66666666666666</ele><time>2026-03-29T13:22:28.006Z</time></trkpt><trkpt lat="44.9949917" lon="8.1155167"><ele>184.33333333333334</ele><time>2026-03-29T13:22:29.006Z</time></trkpt><trkpt lat="44.9951017" lon="8.1153583"><ele>184.0</ele><time>2026-03-29T13:22:30.005Z</time></trkpt><trkpt lat="44.9952117" lon="8.1151983"><ele>184.0</ele><time>2026-03-29T13:22:31.003Z</time></trkpt><trkpt lat="44.995325" lon="8.1150367"><ele>184.0</ele><time>2026-03-29T13:22:32.008Z</time></trkpt><trkpt lat="44.9954433" lon="8.1148767"><ele>184.0</ele><time>2026-03-29T13:22:33.008Z</time></trkpt><trkpt lat="44.99556" lon="8.11472"><ele>184.0</ele><time>2026-03-29T13:22:34.004Z</time></trkpt><trkpt lat="44.9956783" lon="8.1145633"><ele>184.0</ele><time>2026-03-29T13:22:35.003Z</time></trkpt><trkpt lat="44.9957983" lon="8.1144067"><ele>184.0</ele><time>2026-03-29T13:22:36.003Z</time></trkpt><trkpt lat="44.995915" lon="8.1142467"><ele>184.33333333333334</ele><time>2026-03-29T13:22:37.008Z</time></trkpt><trkpt lat="44.9960283" lon="8.1140883"><ele>184.66666666666666</ele><time>2026-03-29T13:22:38.007Z</time></trkpt><trkpt lat="44.9961417" lon="8.11393"><ele>185.0</ele><time>2026-03-29T13:22:39.004Z</time></trkpt><trkpt lat="44.9962533" lon="8.1137717"><ele>185.0</ele><time>2026-03-29T13:22:40.009Z</time></trkpt><trkpt lat="44.9963683" lon="8.113615"><ele>185.0</ele><time>2026-03-29T13:22:41.003Z</time></trkpt><trkpt lat="44.9964833" lon="8.1134533"><ele>185.0</ele><time>2026-03-29T13:22:42.007Z</time></trkpt><trkpt lat="44.996595" lon="8.1132933"><ele>185.33333333333331</ele><time>2026-03-29T13:22:43.005Z</time></trkpt><trkpt lat="44.9967117" lon="8.113135"><ele>185.66666666666666</ele><time>2026-03-29T13:22:44.001Z</time></trkpt><trkpt lat="44.9968217" lon="8.1129767"><ele>186.0</ele><time>2026-03-29T13:22:45.005Z</time></trkpt><trkpt lat="44.9969333" lon="8.112825"><ele>186.0</ele><time>2026-03-29T13:22:46.004Z</time></trkpt><trkpt lat="44.9970433" lon="8.1126767"><ele>186.0</ele><time>2026-03-29T13:22:47.007Z</time></trkpt><trkpt lat="44.99715" lon="8.1125333"><ele>186.0</ele><time>2026-03-29T13:22:48.004Z</time></trkpt><trkpt lat="44.9972633" lon="8.1123917"><ele>186.0</ele><time>2026-03-29T13:22:49.007Z</time></trkpt><trkpt lat="44.997375" lon="8.1122533"><ele>186.0</ele><time>2026-03-29T13:22:50.001Z</time></trkpt><trkpt lat="44.997485" lon="8.1121117"><ele>186.0</ele><time>2026-03-29T13:22:51.005Z</time></trkpt><trkpt lat="44.9975867" lon="8.1119667"><ele>186.0</ele><time>2026-03-29T13:22:52.006Z</time></trkpt><trkpt lat="44.9976883" lon="8.1118217"><ele>186.25</ele><time>2026-03-29T13:22:53.006Z</time></trkpt><trkpt lat="44.997785" lon="8.1116783"><ele>186.5</ele><time>2026-03-29T13:22:54.012Z</time></trkpt><trkpt lat="44.997885" lon="8.1115383"><ele>186.75</ele><time>2026-03-29T13:22:55.008Z</time></trkpt><trkpt lat="44.997985" lon="8.1114"><ele>187.0</ele><time>2026-03-29T13:22:56.003Z</time></trkpt><trkpt lat="44.9980867" lon="8.1112633"><ele>187.0</ele><time>2026-03-29T13:22:57.007Z</time></trkpt><trkpt lat="44.9981933" lon="8.111125"><ele>187.0</ele><time>2026-03-29T13:22:58.001Z</time></trkpt><trkpt lat="44.9983017" lon="8.110985"><ele>187.0</ele><time>2026-03-29T13:22:59.001Z</time></trkpt><trkpt lat="44.9984033" lon="8.110845"><ele>187.0</ele><time>2026-03-29T13:23:00.008Z</time></trkpt><trkpt lat="44.9985067" lon="8.1107067"><ele>187.0</ele><time>2026-03-29T13:23:01.001Z</time></trkpt><trkpt lat="44.99861" lon="8.1105667"><ele>187.0</ele><time>2026-03-29T13:23:02.007Z</time></trkpt><trkpt lat="44.99871" lon="8.11043"><ele>187.0</ele><time>2026-03-29T13:23:03.003Z</time></trkpt><trkpt lat="44.9988117" lon="8.1102917"><ele>187.0</ele><time>2026-03-29T13:23:04Z</time></trkpt><trkpt lat="44.9989117" lon="8.11015"><ele>187.0</ele><time>2026-03-29T13:23:05.003Z</time></trkpt><trkpt lat="44.9990083" lon="8.1100083"><ele>187.0</ele><time>2026-03-29T13:23:06.003Z</time></trkpt><trkpt lat="44.9991133" lon="8.1098683"><ele>187.0</ele><time>2026-03-29T13:23:07.005Z</time></trkpt><trkpt lat="44.9992167" lon="8.1097283"><ele>187.0</ele><time>2026-03-29T13:23:08.004Z</time></trkpt><trkpt lat="44.9993217" lon="8.1095867"><ele>187.5</ele><time>2026-03-29T13:23:09.004Z</time></trkpt><trkpt lat="44.9994267" lon="8.109445"><ele>188.0</ele><time>2026-03-29T13:23:10.004Z</time></trkpt><trkpt lat="44.99953" lon="8.1093017"><ele>188.5</ele><time>2026-03-29T13:23:11.003Z</time></trkpt><trkpt lat="44.99963" lon="8.1091533"><ele>189.0</ele><time>2026-03-29T13:23:12.002Z</time></trkpt><trkpt lat="44.9997283" lon="8.1089967"><ele>189.33333333333334</ele><time>2026-03-29T13:23:13.007Z</time></trkpt><trkpt lat="44.9998183" lon="8.1088283"><ele>189.66666666666669</ele><time>2026-03-29T13:23:14.002Z</time></trkpt><trkpt lat="44.9999033" lon="8.1086483"><ele>190.0</ele><time>2026-03-29T13:23:15.003Z</time></trkpt><trkpt lat="44.9999783" lon="8.10846"><ele>190.0</ele><time>2026-03-29T13:23:16.007Z</time></trkpt><trkpt lat="45.0000483" lon="8.1082617"><ele>190.0</ele><time>2026-03-29T13:23:17.01Z</time></trkpt><trkpt lat="45.0001117" lon="8.1080533"><ele>190.0</ele><time>2026-03-29T13:23:18.011Z</time></trkpt><trkpt lat="45.0001717" lon="8.1078383"><ele>190.66666666666669</ele><time>2026-03-29T13:23:19.005Z</time></trkpt><trkpt lat="45.00023" lon="8.1076233"><ele>191.33333333333334</ele><time>2026-03-29T13:23:20.006Z</time></trkpt><trkpt lat="45.00029" lon="8.107405"><ele>192.0</ele><time>2026-03-29T13:23:21.002Z</time></trkpt><trkpt lat="45.0003483" lon="8.107185"><ele>192.33333333333331</ele><time>2026-03-29T13:23:22.004Z</time></trkpt><trkpt lat="45.00041" lon="8.1069617"><ele>192.66666666666666</ele><time>2026-03-29T13:23:23.002Z</time></trkpt><trkpt lat="45.0004733" lon="8.1067383"><ele>193.0</ele><time>2026-03-29T13:23:24.002Z</time></trkpt><trkpt lat="45.000535" lon="8.1065167"><ele>192.0</ele><time>2026-03-29T13:23:25.002Z</time></trkpt><trkpt lat="45.0005983" lon="8.1062967"><ele>191.0</ele><time>2026-03-29T13:23:26Z</time></trkpt><trkpt lat="45.0006683" lon="8.1060767"><ele>190.0</ele><time>2026-03-29T13:23:27.007Z</time></trkpt><trkpt lat="45.000745" lon="8.1058617"><ele>189.33333333333334</ele><time>2026-03-29T13:23:28.002Z</time></trkpt><trkpt lat="45.0008283" lon="8.105655"><ele>188.66666666666666</ele><time>2026-03-29T13:23:29.003Z</time></trkpt><trkpt lat="45.00092" lon="8.1054583"><ele>188.0</ele><time>2026-03-29T13:23:30.006Z</time></trkpt><trkpt lat="45.0010183" lon="8.1052733"><ele>189.33333333333331</ele><time>2026-03-29T13:23:31.005Z</time></trkpt><trkpt lat="45.0011267" lon="8.10509"><ele>190.66666666666666</ele><time>2026-03-29T13:23:32.004Z</time></trkpt><trkpt lat="45.00124" lon="8.1049167"><ele>192.0</ele><time>2026-03-29T13:23:33.004Z</time></trkpt><trkpt lat="45.0013583" lon="8.104745"><ele>192.0</ele><time>2026-03-29T13:23:34.005Z</time></trkpt><trkpt lat="45.0014817" lon="8.1045767"><ele>192.0</ele><time>2026-03-29T13:23:35.003Z</time></trkpt><trkpt lat="45.0016067" lon="8.1044117"><ele>192.0</ele><time>2026-03-29T13:23:36.003Z</time></trkpt><trkpt lat="45.0017317" lon="8.10424"><ele>191.66666666666666</ele><time>2026-03-29T13:23:37.009Z</time></trkpt><trkpt lat="45.0018583" lon="8.1040667"><ele>191.33333333333331</ele><time>2026-03-29T13:23:38.002Z</time></trkpt><trkpt lat="45.0019867" lon="8.1038917"><ele>191.0</ele><time>2026-03-29T13:23:39.009Z</time></trkpt><trkpt lat="45.0021133" lon="8.1037167"><ele>191.0</ele><time>2026-03-29T13:23:40.004Z</time></trkpt><trkpt lat="45.0022417" lon="8.1035417"><ele>191.0</ele><time>2026-03-29T13:23:41.003Z</time></trkpt><trkpt lat="45.00237" lon="8.1033683"><ele>191.0</ele><time>2026-03-29T13:23:42.004Z</time></trkpt><trkpt lat="45.002495" lon="8.1031967"><ele>191.66666666666666</ele><time>2026-03-29T13:23:43.006Z</time></trkpt><trkpt lat="45.00262" lon="8.10302"><ele>192.33333333333331</ele><time>2026-03-29T13:23:44.007Z</time></trkpt><trkpt lat="45.0027433" lon="8.1028467"><ele>193.0</ele><time>2026-03-29T13:23:45.007Z</time></trkpt><trkpt lat="45.00287" lon="8.1026717"><ele>193.0</ele><time>2026-03-29T13:23:46.003Z</time></trkpt><trkpt lat="45.0029967" lon="8.1024983"><ele>193.0</ele><time>2026-03-29T13:23:47.004Z</time></trkpt><trkpt lat="45.0031267" lon="8.1023233"><ele>193.0</ele><time>2026-03-29T13:23:48.002Z</time></trkpt><trkpt lat="45.0032567" lon="8.1021483"><ele>192.66666666666666</ele><time>2026-03-29T13:23:49.004Z</time></trkpt><trkpt lat="45.0033833" lon="8.1019683"><ele>192.33333333333331</ele><time>2026-03-29T13:23:50.007Z</time></trkpt><trkpt lat="45.0035117" lon="8.10179"><ele>192.0</ele><time>2026-03-29T13:23:51.002Z</time></trkpt><trkpt lat="45.0036417" lon="8.1016083"><ele>193.33333333333331</ele><time>2026-03-29T13:23:52.003Z</time></trkpt><trkpt lat="45.0037733" lon="8.10143"><ele>194.66666666666666</ele><time>2026-03-29T13:23:53.005Z</time></trkpt><trkpt lat="45.003905" lon="8.10125"><ele>196.0</ele><time>2026-03-29T13:23:54.005Z</time></trkpt><trkpt lat="45.0040383" lon="8.1010717"><ele>196.66666666666666</ele><time>2026-03-29T13:23:55.005Z</time></trkpt><trkpt lat="45.00417" lon="8.1008917"><ele>197.33333333333331</ele><time>2026-03-29T13:23:56.004Z</time></trkpt><trkpt lat="45.0043033" lon="8.1007117"><ele>198.0</ele><time>2026-03-29T13:23:57.007Z</time></trkpt><trkpt lat="45.0044367" lon="8.10053"><ele>198.66666666666669</ele><time>2026-03-29T13:23:58.006Z</time></trkpt><trkpt lat="45.0045683" lon="8.10035"><ele>199.33333333333334</ele><time>2026-03-29T13:23:59.002Z</time></trkpt><trkpt lat="45.0047" lon="8.1001683"><ele>200.0</ele><time>2026-03-29T13:24:00.009Z</time></trkpt><trkpt lat="45.0048333" lon="8.099985"><ele>200.33333333333334</ele><time>2026-03-29T13:24:01.004Z</time></trkpt><trkpt lat="45.0049683" lon="8.0998033"><ele>200.66666666666669</ele><time>2026-03-29T13:24:02.006Z</time></trkpt><trkpt lat="45.0051033" lon="8.0996183"><ele>201.0</ele><time>2026-03-29T13:24:03.005Z</time></trkpt><trkpt lat="45.0052367" lon="8.0994333"><ele>200.33333333333331</ele><time>2026-03-29T13:24:04.005Z</time></trkpt><trkpt lat="45.00537" lon="8.0992533"><ele>199.66666666666666</ele><time>2026-03-29T13:24:05.008Z</time></trkpt><trkpt lat="45.0055067" lon="8.0990667"><ele>199.0</ele><time>2026-03-29T13:24:06.005Z</time></trkpt><trkpt lat="45.005645" lon="8.098885"><ele>199.0</ele><time>2026-03-29T13:24:07.006Z</time></trkpt><trkpt lat="45.00578" lon="8.0987017"><ele>199.0</ele><time>2026-03-29T13:24:08.004Z</time></trkpt><trkpt lat="45.005915" lon="8.0985183"><ele>199.0</ele><time>2026-03-29T13:24:09.005Z</time></trkpt><trkpt lat="45.00605" lon="8.098335"><ele>201.0</ele><time>2026-03-29T13:24:10.003Z</time></trkpt><trkpt lat="45.0061817" lon="8.0981467"><ele>203.0</ele><time>2026-03-29T13:24:11.003Z</time></trkpt><trkpt lat="45.006315" lon="8.0979583"><ele>205.0</ele><time>2026-03-29T13:24:12.007Z</time></trkpt><trkpt lat="45.00645" lon="8.097775"><ele>205.0</ele><time>2026-03-29T13:24:13.002Z</time></trkpt><trkpt lat="45.0065833" lon="8.097595"><ele>205.0</ele><time>2026-03-29T13:24:14.003Z</time></trkpt><trkpt lat="45.0067167" lon="8.0974167"><ele>205.0</ele><time>2026-03-29T13:24:15.004Z</time></trkpt><trkpt lat="45.00685" lon="8.0972333"><ele>204.33333333333331</ele><time>2026-03-29T13:24:16.004Z</time></trkpt><trkpt lat="45.00698" lon="8.097055"><ele>203.66666666666669</ele><time>2026-03-29T13:24:17.006Z</time></trkpt><trkpt lat="45.0071083" lon="8.0968717"><ele>203.0</ele><time>2026-03-29T13:24:18.005Z</time></trkpt><trkpt lat="45.007235" lon="8.0966917"><ele>204.66666666666669</ele><time>2026-03-29T13:24:19.004Z</time></trkpt><trkpt lat="45.0073617" lon="8.096515"><ele>206.33333333333331</ele><time>2026-03-29T13:24:20.003Z</time></trkpt><trkpt lat="45.0074833" lon="8.0963317"><ele>208.0</ele><time>2026-03-29T13:24:21.005Z</time></trkpt><trkpt lat="45.007595" lon="8.0961317"><ele>208.66666666666666</ele><time>2026-03-29T13:24:22.005Z</time></trkpt><trkpt lat="45.0076983" lon="8.09592"><ele>209.33333333333331</ele><time>2026-03-29T13:24:23.003Z</time></trkpt><trkpt lat="45.0077883" lon="8.0956883"><ele>210.0</ele><time>2026-03-29T13:24:24.003Z</time></trkpt><trkpt lat="45.0078617" lon="8.0954433"><ele>212.0</ele><time>2026-03-29T13:24:25.005Z</time></trkpt><trkpt lat="45.0079233" lon="8.0951883"><ele>214.0</ele><time>2026-03-29T13:24:26.006Z</time></trkpt><trkpt lat="45.00797" lon="8.0949267"><ele>216.0</ele><time>2026-03-29T13:24:27.005Z</time></trkpt><trkpt lat="45.008005" lon="8.0946567"><ele>219.0</ele><time>2026-03-29T13:24:28.008Z</time></trkpt><trkpt lat="45.0080367" lon="8.094385"><ele>222.0</ele><time>2026-03-29T13:24:29.006Z</time></trkpt><trkpt lat="45.00807" lon="8.0941167"><ele>225.0</ele><time>2026-03-29T13:24:30.005Z</time></trkpt><trkpt lat="45.0081033" lon="8.09385"><ele>225.0</ele><time>2026-03-29T13:24:31.002Z</time></trkpt><trkpt lat="45.0081383" lon="8.0935833"><ele>225.0</ele><time>2026-03-29T13:24:32.009Z</time></trkpt><trkpt lat="45.0081683" lon="8.0933183"><ele>225.0</ele><time>2026-03-29T13:24:33.005Z</time></trkpt><trkpt lat="45.0082033" lon="8.093055"><ele>227.33333333333331</ele><time>2026-03-29T13:24:34.003Z</time></trkpt><trkpt lat="45.0082333" lon="8.092795"><ele>229.66666666666666</ele><time>2026-03-29T13:24:35.006Z</time></trkpt><trkpt lat="45.00826" lon="8.0925367"><ele>232.0</ele><time>2026-03-29T13:24:36.005Z</time></trkpt><trkpt lat="45.00827" lon="8.0922833"><ele>232.33333333333331</ele><time>2026-03-29T13:24:37.006Z</time></trkpt><trkpt lat="45.0082567" lon="8.09203"><ele>232.66666666666669</ele><time>2026-03-29T13:24:38.005Z</time></trkpt><trkpt lat="45.0082283" lon="8.0917867"><ele>233.0</ele><time>2026-03-29T13:24:39.004Z</time></trkpt><trkpt lat="45.0082017" lon="8.09155"><ele>232.0</ele><time>2026-03-29T13:24:40.002Z</time></trkpt><trkpt lat="45.0081917" lon="8.0913167"><ele>231.0</ele><time>2026-03-29T13:24:41.005Z</time></trkpt><trkpt lat="45.0082067" lon="8.0910817"><ele>230.0</ele><time>2026-03-29T13:24:42.004Z</time></trkpt><trkpt lat="45.0082467" lon="8.0908533"><ele>231.0</ele><time>2026-03-29T13:24:43.003Z</time></trkpt><trkpt lat="45.0083033" lon="8.0906383"><ele>232.0</ele><time>2026-03-29T13:24:44.006Z</time></trkpt><trkpt lat="45.0083867" lon="8.0904367"><ele>233.0</ele><time>2026-03-29T13:24:45.005Z</time></trkpt><trkpt lat="45.0084867" lon="8.0902517"><ele>234.0</ele><time>2026-03-29T13:24:46.008Z</time></trkpt><trkpt lat="45.0086033" lon="8.090085"><ele>235.0</ele><time>2026-03-29T13:24:47.003Z</time></trkpt><trkpt lat="45.0087233" lon="8.089925"><ele>236.0</ele><time>2026-03-29T13:24:48.005Z</time></trkpt><trkpt lat="45.008845" lon="8.0897717"><ele>236.0</ele><time>2026-03-29T13:24:49.004Z</time></trkpt><trkpt lat="45.0089667" lon="8.0896183"><ele>236.0</ele><time>2026-03-29T13:24:50.005Z</time></trkpt><trkpt lat="45.0090867" lon="8.0894617"><ele>236.0</ele><time>2026-03-29T13:24:51.006Z</time></trkpt><trkpt lat="45.0092083" lon="8.089305"><ele>236.66666666666669</ele><time>2026-03-29T13:24:52.009Z</time></trkpt><trkpt lat="45.00933" lon="8.0891467"><ele>237.33333333333331</ele><time>2026-03-29T13:24:53.007Z</time></trkpt><trkpt lat="45.0094517" lon="8.0889933"><ele>238.0</ele><time>2026-03-29T13:24:54.007Z</time></trkpt><trkpt lat="45.009575" lon="8.0888417"><ele>238.0</ele><time>2026-03-29T13:24:55.006Z</time></trkpt><trkpt lat="45.0096967" lon="8.0886933"><ele>238.0</ele><time>2026-03-29T13:24:56.005Z</time></trkpt><trkpt lat="45.0098283" lon="8.0885617"><ele>238.0</ele><time>2026-03-29T13:24:57.005Z</time></trkpt><trkpt lat="45.0099667" lon="8.0884567"><ele>235.66666666666666</ele><time>2026-03-29T13:24:58.003Z</time></trkpt><trkpt lat="45.010115" lon="8.088375"><ele>233.33333333333331</ele><time>2026-03-29T13:24:59.007Z</time></trkpt><trkpt lat="45.0102683" lon="8.088315"><ele>231.0</ele><time>2026-03-29T13:25:00.013Z</time></trkpt><trkpt lat="45.0104233" lon="8.0882633"><ele>235.0</ele><time>2026-03-29T13:25:01.005Z</time></trkpt><trkpt lat="45.010575" lon="8.0882217"><ele>239.0</ele><time>2026-03-29T13:25:02.005Z</time></trkpt><trkpt lat="45.010725" lon="8.088185"><ele>243.0</ele><time>2026-03-29T13:25:03.007Z</time></trkpt><trkpt lat="45.010875" lon="8.08815"><ele>243.66666666666669</ele><time>2026-03-29T13:25:04.003Z</time></trkpt><trkpt lat="45.011025" lon="8.0881117"><ele>244.33333333333334</ele><time>2026-03-29T13:25:05.003Z</time></trkpt><trkpt lat="45.0111733" lon="8.0880717"><ele>245.0</ele><time>2026-03-29T13:25:06.007Z</time></trkpt><trkpt lat="45.0113217" lon="8.0880333"><ele>245.0</ele><time>2026-03-29T13:25:07.005Z</time></trkpt><trkpt lat="45.0114683" lon="8.0879917"><ele>245.0</ele><time>2026-03-29T13:25:08.005Z</time></trkpt><trkpt lat="45.011615" lon="8.0879533"><ele>245.0</ele><time>2026-03-29T13:25:09.007Z</time></trkpt><trkpt lat="45.0117617" lon="8.08792"><ele>245.0</ele><time>2026-03-29T13:25:10.006Z</time></trkpt><trkpt lat="45.011905" lon="8.0878867"><ele>245.0</ele><time>2026-03-29T13:25:11.005Z</time></trkpt><trkpt lat="45.0120433" lon="8.0878517"><ele>245.0</ele><time>2026-03-29T13:25:12.005Z</time></trkpt><trkpt lat="45.0121767" lon="8.0878167"><ele>245.0</ele><time>2026-03-29T13:25:13.006Z</time></trkpt><trkpt lat="45.0123117" lon="8.08778"><ele>245.0</ele><time>2026-03-29T13:25:14.008Z</time></trkpt><trkpt lat="45.0124417" lon="8.087745"><ele>244.25</ele><time>2026-03-29T13:25:15.004Z</time></trkpt><trkpt lat="45.0125833" lon="8.087715"><ele>243.5</ele><time>2026-03-29T13:25:16.004Z</time></trkpt><trkpt lat="45.0127183" lon="8.087685"><ele>242.75</ele><time>2026-03-29T13:25:17.009Z</time></trkpt><trkpt lat="45.0128467" lon="8.087655"><ele>242.0</ele><time>2026-03-29T13:25:18.001Z</time></trkpt><trkpt lat="45.0129717" lon="8.0876233"><ele>242.0</ele><time>2026-03-29T13:25:19.003Z</time></trkpt><trkpt lat="45.0130983" lon="8.0875867"><ele>242.0</ele><time>2026-03-29T13:25:20.002Z</time></trkpt><trkpt lat="45.0132233" lon="8.0875517"><ele>242.0</ele><time>2026-03-29T13:25:21.011Z</time></trkpt><trkpt lat="45.01335" lon="8.087525"><ele>242.0</ele><time>2026-03-29T13:25:22.004Z</time></trkpt><trkpt lat="45.0134683" lon="8.0875233"><ele>242.5</ele><time>2026-03-29T13:25:23.004Z</time></trkpt><trkpt lat="45.0135867" lon="8.08754"><ele>243.0</ele><time>2026-03-29T13:25:24.003Z</time></trkpt><trkpt lat="45.0137067" lon="8.087595"><ele>243.5</ele><time>2026-03-29T13:25:25.006Z</time></trkpt><trkpt lat="45.0138083" lon="8.0876883"><ele>244.0</ele><time>2026-03-29T13:25:26.003Z</time></trkpt><trkpt lat="45.0139017" lon="8.0878"><ele>244.0</ele><time>2026-03-29T13:25:27.004Z</time></trkpt><trkpt lat="45.013995" lon="8.087915"><ele>243.99999999999997</ele><time>2026-03-29T13:25:28.01Z</time></trkpt><trkpt lat="45.0140883" lon="8.0880117"><ele>243.99999999999997</ele><time>2026-03-29T13:25:29.004Z</time></trkpt><trkpt lat="45.0141783" lon="8.0880833"><ele>244.0</ele><time>2026-03-29T13:25:30.007Z</time></trkpt><trkpt lat="45.0142817" lon="8.0881083"><ele>244.0</ele><time>2026-03-29T13:25:31.004Z</time></trkpt><trkpt lat="45.01439" lon="8.088085"><ele>244.79999999999998</ele><time>2026-03-29T13:25:32.011Z</time></trkpt><trkpt lat="45.0144883" lon="8.08801"><ele>245.59999999999997</ele><time>2026-03-29T13:25:33.007Z</time></trkpt><trkpt lat="45.0145667" lon="8.0879017"><ele>246.4</ele><time>2026-03-29T13:25:34.006Z</time></trkpt><trkpt lat="45.0146117" lon="8.08777"><ele>247.2</ele><time>2026-03-29T13:25:35.006Z</time></trkpt><trkpt lat="45.014615" lon="8.087615"><ele>248.0</ele><time>2026-03-29T13:25:36.005Z</time></trkpt><trkpt lat="45.0145867" lon="8.087465"><ele>249.0</ele><time>2026-03-29T13:25:37.005Z</time></trkpt><trkpt lat="45.014525" lon="8.0873317"><ele>250.0</ele><time>2026-03-29T13:25:38Z</time></trkpt><trkpt lat="45.014435" lon="8.08721"><ele>251.0</ele><time>2026-03-29T13:25:39.007Z</time></trkpt><trkpt lat="45.0143267" lon="8.0870933"><ele>252.0</ele><time>2026-03-29T13:25:40.002Z</time></trkpt><trkpt lat="45.014205" lon="8.086975"><ele>252.0</ele><time>2026-03-29T13:25:41.005Z</time></trkpt><trkpt lat="45.0140833" lon="8.0868483"><ele>252.0</ele><time>2026-03-29T13:25:42.003Z</time></trkpt><trkpt lat="45.01396" lon="8.086715"><ele>252.0</ele><time>2026-03-29T13:25:43.007Z</time></trkpt><trkpt lat="45.0138417" lon="8.0865783"><ele>254.0</ele><time>2026-03-29T13:25:44.009Z</time></trkpt><trkpt lat="45.0137233" lon="8.086445"><ele>256.0</ele><time>2026-03-29T13:25:45.004Z</time></trkpt><trkpt lat="45.0136033" lon="8.0863183"><ele>258.0</ele><time>2026-03-29T13:25:46.004Z</time></trkpt><trkpt lat="45.01349" lon="8.0861967"><ele>260.0</ele><time>2026-03-29T13:25:47.008Z</time></trkpt><trkpt lat="45.0133733" lon="8.08609"><ele>261.5</ele><time>2026-03-29T13:25:48.004Z</time></trkpt><trkpt lat="45.01325" lon="8.0860233"><ele>263.0</ele><time>2026-03-29T13:25:49.004Z</time></trkpt><trkpt lat="45.0131317" lon="8.08601"><ele>264.5</ele><time>2026-03-29T13:25:50.008Z</time></trkpt><trkpt lat="45.0130117" lon="8.08606"><ele>266.0</ele><time>2026-03-29T13:25:51.009Z</time></trkpt><trkpt lat="45.0128967" lon="8.0861483"><ele>266.0</ele><time>2026-03-29T13:25:52.008Z</time></trkpt><trkpt lat="45.012785" lon="8.08625"><ele>266.0</ele><time>2026-03-29T13:25:53.004Z</time></trkpt><trkpt lat="45.0126633" lon="8.0863317"><ele>266.0</ele><time>2026-03-29T13:25:54.005Z</time></trkpt><trkpt lat="45.0125333" lon="8.086385"><ele>266.0</ele><time>2026-03-29T13:25:55.007Z</time></trkpt><trkpt lat="45.01239" lon="8.0864067"><ele>265.6666666666667</ele><time>2026-03-29T13:25:56.006Z</time></trkpt><trkpt lat="45.012245" lon="8.0863767"><ele>265.3333333333333</ele><time>2026-03-29T13:25:57.006Z</time></trkpt><trkpt lat="45.0120933" lon="8.0863183"><ele>265.0</ele><time>2026-03-29T13:25:58.006Z</time></trkpt><trkpt lat="45.0119383" lon="8.0862433"><ele>265.0</ele><time>2026-03-29T13:25:59.002Z</time></trkpt><trkpt lat="45.0117883" lon="8.08617"><ele>265.0</ele><time>2026-03-29T13:26:00.012Z</time></trkpt><trkpt lat="45.01163" lon="8.086105"><ele>265.0</ele><time>2026-03-29T13:26:01.007Z</time></trkpt><trkpt lat="45.0114683" lon="8.086055"><ele>265.3333333333333</ele><time>2026-03-29T13:26:02.005Z</time></trkpt><trkpt lat="45.0113" lon="8.0860433"><ele>265.6666666666667</ele><time>2026-03-29T13:26:03.003Z</time></trkpt><trkpt lat="45.0111267" lon="8.0860433"><ele>266.0</ele><time>2026-03-29T13:26:04.003Z</time></trkpt><trkpt lat="45.01095" lon="8.0860583"><ele>268.33333333333337</ele><time>2026-03-29T13:26:05.003Z</time></trkpt><trkpt lat="45.0107733" lon="8.08608"><ele>270.6666666666667</ele><time>2026-03-29T13:26:06.007Z</time></trkpt><trkpt lat="45.0106" lon="8.0860967"><ele>273.0</ele><time>2026-03-29T13:26:07.006Z</time></trkpt><trkpt lat="45.0104367" lon="8.0861133"><ele>273.0</ele><time>2026-03-29T13:26:08.004Z</time></trkpt><trkpt lat="45.0102817" lon="8.0861267"><ele>273.0</ele><time>2026-03-29T13:26:09.008Z</time></trkpt><trkpt lat="45.0101283" lon="8.08614"><ele>273.0</ele><time>2026-03-29T13:26:10.001Z</time></trkpt><trkpt lat="45.009985" lon="8.0861467"><ele>275.25</ele><time>2026-03-29T13:26:11.003Z</time></trkpt><trkpt lat="45.0098517" lon="8.0861333"><ele>277.5</ele><time>2026-03-29T13:26:12.007Z</time></trkpt><trkpt lat="45.00973" lon="8.0860817"><ele>279.75</ele><time>2026-03-29T13:26:13.007Z</time></trkpt><trkpt lat="45.0096233" lon="8.0859817"><ele>282.0</ele><time>2026-03-29T13:26:14.009Z</time></trkpt><trkpt lat="45.0095367" lon="8.0858533"><ele>279.25</ele><time>2026-03-29T13:26:15.006Z</time></trkpt><trkpt lat="45.0094867" lon="8.0856817"><ele>276.5</ele><time>2026-03-29T13:26:16.008Z</time></trkpt><trkpt lat="45.0094467" lon="8.0855033"><ele>273.75</ele><time>2026-03-29T13:26:17.008Z</time></trkpt><trkpt lat="45.0094217" lon="8.0853183"><ele>271.0</ele><time>2026-03-29T13:26:18.003Z</time></trkpt><trkpt lat="45.009435" lon="8.0851167"><ele>265.0</ele><time>2026-03-29T13:26:19.005Z</time></trkpt><trkpt lat="45.0094733" lon="8.0849117"><ele>259.0</ele><time>2026-03-29T13:26:20.005Z</time></trkpt><trkpt lat="45.0095233" lon="8.0847067"><ele>253.0</ele><time>2026-03-29T13:26:21.006Z</time></trkpt><trkpt lat="45.00959" lon="8.0844967"><ele>253.0</ele><time>2026-03-29T13:26:22.001Z</time></trkpt><trkpt lat="45.009675" lon="8.084285"><ele>253.0</ele><time>2026-03-29T13:26:23.002Z</time></trkpt><trkpt lat="45.0097633" lon="8.0840833"><ele>253.0</ele><time>2026-03-29T13:26:24.008Z</time></trkpt><trkpt lat="45.0098583" lon="8.083895"><ele>254.66666666666666</ele><time>2026-03-29T13:26:25.005Z</time></trkpt><trkpt lat="45.0099767" lon="8.0837317"><ele>256.3333333333333</ele><time>2026-03-29T13:26:26.005Z</time></trkpt><trkpt lat="45.0100933" lon="8.0835733"><ele>258.0</ele><time>2026-03-29T13:26:27.002Z</time></trkpt><trkpt lat="45.0102217" lon="8.0834283"><ele>258.0</ele><time>2026-03-29T13:26:28Z</time></trkpt><trkpt lat="45.010345" lon="8.083275"><ele>258.0</ele><time>2026-03-29T13:26:29.006Z</time></trkpt><trkpt lat="45.0104633" lon="8.08311"><ele>258.0</ele><time>2026-03-29T13:26:30.004Z</time></trkpt><trkpt lat="45.0105783" lon="8.0829267"><ele>254.33333333333331</ele><time>2026-03-29T13:26:31.004Z</time></trkpt><trkpt lat="45.010685" lon="8.08273"><ele>250.66666666666666</ele><time>2026-03-29T13:26:32.004Z</time></trkpt><trkpt lat="45.0107917" lon="8.08254"><ele>247.0</ele><time>2026-03-29T13:26:33.006Z</time></trkpt><trkpt lat="45.0108983" lon="8.082355"><ele>246.66666666666666</ele><time>2026-03-29T13:26:34.005Z</time></trkpt><trkpt lat="45.0110133" lon="8.082185"><ele>246.33333333333331</ele><time>2026-03-29T13:26:35.003Z</time></trkpt><trkpt lat="45.0111417" lon="8.0820383"><ele>246.0</ele><time>2026-03-29T13:26:36.006Z</time></trkpt><trkpt lat="45.0112867" lon="8.0819117"><ele>246.0</ele><time>2026-03-29T13:26:37.007Z</time></trkpt><trkpt lat="45.0114117" lon="8.0817683"><ele>246.0</ele><time>2026-03-29T13:26:38.006Z</time></trkpt><trkpt lat="45.0115283" lon="8.0816117"><ele>246.0</ele><time>2026-03-29T13:26:39.006Z</time></trkpt><trkpt lat="45.0116517" lon="8.0814817"><ele>243.0</ele><time>2026-03-29T13:26:40.004Z</time></trkpt><trkpt lat="45.0117883" lon="8.0813867"><ele>240.0</ele><time>2026-03-29T13:26:41.007Z</time></trkpt><trkpt lat="45.0119183" lon="8.0813267"><ele>237.0</ele><time>2026-03-29T13:26:42.003Z</time></trkpt><trkpt lat="45.0120383" lon="8.0813117"><ele>234.0</ele><time>2026-03-29T13:26:43.011Z</time></trkpt><trkpt lat="45.01215" lon="8.081355"><ele>234.0</ele><time>2026-03-29T13:26:44.004Z</time></trkpt><trkpt lat="45.0122533" lon="8.0814583"><ele>234.0</ele><time>2026-03-29T13:26:45.007Z</time></trkpt><trkpt lat="45.012355" lon="8.0816133"><ele>234.0</ele><time>2026-03-29T13:26:46.007Z</time></trkpt><trkpt lat="45.0124367" lon="8.08178"><ele>234.0</ele><time>2026-03-29T13:26:47.002Z</time></trkpt><trkpt lat="45.0125117" lon="8.0819533"><ele>237.75</ele><time>2026-03-29T13:26:48.005Z</time></trkpt><trkpt lat="45.0125883" lon="8.0821233"><ele>241.5</ele><time>2026-03-29T13:26:49.005Z</time></trkpt><trkpt lat="45.0126733" lon="8.082285"><ele>245.25</ele><time>2026-03-29T13:26:50.002Z</time></trkpt><trkpt lat="45.0127683" lon="8.0824267"><ele>249.0</ele><time>2026-03-29T13:26:51.007Z</time></trkpt><trkpt lat="45.0128733" lon="8.0825333"><ele>250.75</ele><time>2026-03-29T13:26:52.005Z</time></trkpt><trkpt lat="45.0129883" lon="8.082585"><ele>252.5</ele><time>2026-03-29T13:26:53.004Z</time></trkpt><trkpt lat="45.0131017" lon="8.082585"><ele>254.25</ele><time>2026-03-29T13:26:54.003Z</time></trkpt><trkpt lat="45.01322" lon="8.08253"><ele>256.0</ele><time>2026-03-29T13:26:55.009Z</time></trkpt><trkpt lat="45.01333" lon="8.0824267"><ele>251.0</ele><time>2026-03-29T13:26:56.005Z</time></trkpt><trkpt lat="45.0134417" lon="8.0822917"><ele>246.0</ele><time>2026-03-29T13:26:57.005Z</time></trkpt><trkpt lat="45.0135583" lon="8.0821517"><ele>241.0</ele><time>2026-03-29T13:26:58.005Z</time></trkpt><trkpt lat="45.0136833" lon="8.0820233"><ele>241.0</ele><time>2026-03-29T13:26:59.008Z</time></trkpt><trkpt lat="45.0138133" lon="8.0819"><ele>241.0</ele><time>2026-03-29T13:27:00.008Z</time></trkpt><trkpt lat="45.0139467" lon="8.0817933"><ele>241.0</ele><time>2026-03-29T13:27:01.005Z</time></trkpt><trkpt lat="45.014085" lon="8.0816983"><ele>240.75</ele><time>2026-03-29T13:27:02.007Z</time></trkpt><trkpt lat="45.0142267" lon="8.081625"><ele>240.5</ele><time>2026-03-29T13:27:03.006Z</time></trkpt><trkpt lat="45.0143683" lon="8.08157"><ele>240.25</ele><time>2026-03-29T13:27:04.008Z</time></trkpt><trkpt lat="45.014515" lon="8.0815267"><ele>240.0</ele><time>2026-03-29T13:27:05.005Z</time></trkpt><trkpt lat="45.0146633" lon="8.0815"><ele>237.75</ele><time>2026-03-29T13:27:06.004Z</time></trkpt><trkpt lat="45.0148133" lon="8.08149"><ele>235.5</ele><time>2026-03-29T13:27:07.016Z</time></trkpt><trkpt lat="45.01496" lon="8.0815"><ele>233.25</ele><time>2026-03-29T13:27:08.004Z</time></trkpt><trkpt lat="45.0151017" lon="8.0815283"><ele>231.0</ele><time>2026-03-29T13:27:09.008Z</time></trkpt><trkpt lat="45.0152333" lon="8.0815617"><ele>231.0</ele><time>2026-03-29T13:27:10.004Z</time></trkpt><trkpt lat="45.015355" lon="8.08158"><ele>231.0</ele><time>2026-03-29T13:27:11.012Z</time></trkpt><trkpt lat="45.015475" lon="8.0815667"><ele>231.0</ele><time>2026-03-29T13:27:12.004Z</time></trkpt><trkpt lat="45.0155817" lon="8.081515"><ele>231.0</ele><time>2026-03-29T13:27:13.005Z</time></trkpt><trkpt lat="45.0156617" lon="8.0814017"><ele>231.0</ele><time>2026-03-29T13:27:14.003Z</time></trkpt><trkpt lat="45.0156967" lon="8.0812483"><ele>231.0</ele><time>2026-03-29T13:27:15.007Z</time></trkpt><trkpt lat="45.0157033" lon="8.0810583"><ele>231.0</ele><time>2026-03-29T13:27:16.004Z</time></trkpt><trkpt lat="45.0156833" lon="8.080845"><ele>231.0</ele><time>2026-03-29T13:27:17.001Z</time></trkpt><trkpt lat="45.0156533" lon="8.0806233"><ele>229.66666666666669</ele><time>2026-03-29T13:27:18.003Z</time></trkpt><trkpt lat="45.0156133" lon="8.0803817"><ele>228.33333333333334</ele><time>2026-03-29T13:27:19.007Z</time></trkpt><trkpt lat="45.01556" lon="8.08015"><ele>227.0</ele><time>2026-03-29T13:27:20.007Z</time></trkpt><trkpt lat="45.0155" lon="8.0799183"><ele>227.0</ele><time>2026-03-29T13:27:21.005Z</time></trkpt><trkpt lat="45.0154317" lon="8.0796883"><ele>227.0</ele><time>2026-03-29T13:27:22.009Z</time></trkpt><trkpt lat="45.0153667" lon="8.0794583"><ele>227.0</ele><time>2026-03-29T13:27:23.003Z</time></trkpt><trkpt lat="45.0153017" lon="8.079235"><ele>227.66666666666669</ele><time>2026-03-29T13:27:24.004Z</time></trkpt><trkpt lat="45.0152367" lon="8.0790217"><ele>228.33333333333331</ele><time>2026-03-29T13:27:25.004Z</time></trkpt><trkpt lat="45.0151733" lon="8.07881"><ele>229.0</ele><time>2026-03-29T13:27:26.004Z</time></trkpt><trkpt lat="45.0151083" lon="8.0786033"><ele>229.0</ele><time>2026-03-29T13:27:27.008Z</time></trkpt><trkpt lat="45.0150433" lon="8.078395"><ele>229.0</ele><time>2026-03-29T13:27:28.008Z</time></trkpt><trkpt lat="45.0149833" lon="8.0781883"><ele>229.0</ele><time>2026-03-29T13:27:29.007Z</time></trkpt><trkpt lat="45.0149333" lon="8.077975"><ele>223.66666666666666</ele><time>2026-03-29T13:27:30.007Z</time></trkpt><trkpt lat="45.0148917" lon="8.0777533"><ele>218.33333333333331</ele><time>2026-03-29T13:27:31.007Z</time></trkpt><trkpt lat="45.0148617" lon="8.0775267"><ele>213.0</ele><time>2026-03-29T13:27:32.008Z</time></trkpt><trkpt lat="45.01484" lon="8.0772967"><ele>212.0</ele><time>2026-03-29T13:27:33.01Z</time></trkpt><trkpt lat="45.0148433" lon="8.0770683"><ele>211.0</ele><time>2026-03-29T13:27:34.004Z</time></trkpt><trkpt lat="45.0148733" lon="8.0768567"><ele>210.0</ele><time>2026-03-29T13:27:35.002Z</time></trkpt><trkpt lat="45.0149283" lon="8.0766583"><ele>212.33333333333331</ele><time>2026-03-29T13:27:36.005Z</time></trkpt><trkpt lat="45.0150017" lon="8.076475"><ele>214.66666666666666</ele><time>2026-03-29T13:27:37.003Z</time></trkpt><trkpt lat="45.0150983" lon="8.0763"><ele>217.0</ele><time>2026-03-29T13:27:38.007Z</time></trkpt><trkpt lat="45.0152" lon="8.076125"><ele>217.0</ele><time>2026-03-29T13:27:39.013Z</time></trkpt><trkpt lat="45.01531" lon="8.0759483"><ele>217.0</ele><time>2026-03-29T13:27:40.005Z</time></trkpt><trkpt lat="45.0154217" lon="8.07577"><ele>217.0</ele><time>2026-03-29T13:27:41.006Z</time></trkpt><trkpt lat="45.0155333" lon="8.0755883"><ele>218.0</ele><time>2026-03-29T13:27:42.004Z</time></trkpt><trkpt lat="45.015645" lon="8.0754067"><ele>219.0</ele><time>2026-03-29T13:27:43.004Z</time></trkpt><trkpt lat="45.015755" lon="8.0752233"><ele>220.0</ele><time>2026-03-29T13:27:44.007Z</time></trkpt><trkpt lat="45.0158733" lon="8.0750433"><ele>217.33333333333331</ele><time>2026-03-29T13:27:45.006Z</time></trkpt><trkpt lat="45.0159933" lon="8.0748633"><ele>214.66666666666669</ele><time>2026-03-29T13:27:46.005Z</time></trkpt><trkpt lat="45.0161067" lon="8.0746783"><ele>212.0</ele><time>2026-03-29T13:27:47.004Z</time></trkpt><trkpt lat="45.016215" lon="8.0744933"><ele>212.0</ele><time>2026-03-29T13:27:48.012Z</time></trkpt><trkpt lat="45.0163217" lon="8.074305"><ele>212.0</ele><time>2026-03-29T13:27:49.006Z</time></trkpt><trkpt lat="45.016435" lon="8.0741167"><ele>212.0</ele><time>2026-03-29T13:27:50.004Z</time></trkpt><trkpt lat="45.0165233" lon="8.0739133"><ele>210.66666666666669</ele><time>2026-03-29T13:27:51.006Z</time></trkpt><trkpt lat="45.0165917" lon="8.0737017"><ele>209.33333333333331</ele><time>2026-03-29T13:27:52.005Z</time></trkpt><trkpt lat="45.01664" lon="8.0734817"><ele>208.0</ele><time>2026-03-29T13:27:53.006Z</time></trkpt><trkpt lat="45.0166633" lon="8.0732533"><ele>208.0</ele><time>2026-03-29T13:27:54.008Z</time></trkpt><trkpt lat="45.0166683" lon="8.073015"><ele>208.0</ele><time>2026-03-29T13:27:55.005Z</time></trkpt><trkpt lat="45.0166567" lon="8.0727717"><ele>208.0</ele><time>2026-03-29T13:27:56.008Z</time></trkpt><trkpt lat="45.0166333" lon="8.0725183"><ele>206.33333333333331</ele><time>2026-03-29T13:27:57.008Z</time></trkpt><trkpt lat="45.01661" lon="8.0722667"><ele>204.66666666666669</ele><time>2026-03-29T13:27:58.004Z</time></trkpt><trkpt lat="45.0165867" lon="8.0720083"><ele>203.0</ele><time>2026-03-29T13:27:59.005Z</time></trkpt><trkpt lat="45.0165667" lon="8.0717483"><ele>202.33333333333334</ele><time>2026-03-29T13:28:00.013Z</time></trkpt><trkpt lat="45.0165417" lon="8.07149"><ele>201.66666666666669</ele><time>2026-03-29T13:28:01.007Z</time></trkpt><trkpt lat="45.0165183" lon="8.0712267"><ele>201.0</ele><time>2026-03-29T13:28:02.006Z</time></trkpt><trkpt lat="45.016495" lon="8.0709683"><ele>201.0</ele><time>2026-03-29T13:28:03.008Z</time></trkpt><trkpt lat="45.0164717" lon="8.0707133"><ele>201.0</ele><time>2026-03-29T13:28:04.006Z</time></trkpt><trkpt lat="45.0164517" lon="8.070455"><ele>201.0</ele><time>2026-03-29T13:28:05.005Z</time></trkpt><trkpt lat="45.0164283" lon="8.070205"><ele>201.0</ele><time>2026-03-29T13:28:06.008Z</time></trkpt><trkpt lat="45.016405" lon="8.0699583"><ele>201.0</ele><time>2026-03-29T13:28:07.006Z</time></trkpt><trkpt lat="45.0163817" lon="8.0697083"><ele>201.0</ele><time>2026-03-29T13:28:08.008Z</time></trkpt><trkpt lat="45.0163617" lon="8.0694667"><ele>201.33333333333331</ele><time>2026-03-29T13:28:09.01Z</time></trkpt><trkpt lat="45.01634" lon="8.0692283"><ele>201.66666666666666</ele><time>2026-03-29T13:28:10.004Z</time></trkpt><trkpt lat="45.01632" lon="8.0689867"><ele>202.0</ele><time>2026-03-29T13:28:11.007Z</time></trkpt><trkpt lat="45.016305" lon="8.0687483"><ele>201.33333333333331</ele><time>2026-03-29T13:28:12.007Z</time></trkpt><trkpt lat="45.0163017" lon="8.068515"><ele>200.66666666666669</ele><time>2026-03-29T13:28:13.008Z</time></trkpt><trkpt lat="45.0163133" lon="8.0682783"><ele>200.0</ele><time>2026-03-29T13:28:14.004Z</time></trkpt><trkpt lat="45.01634" lon="8.0680433"><ele>200.0</ele><time>2026-03-29T13:28:15.008Z</time></trkpt><trkpt lat="45.016375" lon="8.0678117"><ele>200.0</ele><time>2026-03-29T13:28:16.005Z</time></trkpt><trkpt lat="45.01642" lon="8.0675833"><ele>200.0</ele><time>2026-03-29T13:28:17.007Z</time></trkpt><trkpt lat="45.0164767" lon="8.06736"><ele>199.66666666666669</ele><time>2026-03-29T13:28:18.003Z</time></trkpt><trkpt lat="45.0165467" lon="8.067145"><ele>199.33333333333331</ele><time>2026-03-29T13:28:19.006Z</time></trkpt><trkpt lat="45.016625" lon="8.0669383"><ele>199.0</ele><time>2026-03-29T13:28:20.007Z</time></trkpt><trkpt lat="45.0167183" lon="8.0667433"><ele>198.0</ele><time>2026-03-29T13:28:21.009Z</time></trkpt><trkpt lat="45.0168217" lon="8.0665633"><ele>197.0</ele><time>2026-03-29T13:28:22.004Z</time></trkpt><trkpt lat="45.01694" lon="8.0664"><ele>196.0</ele><time>2026-03-29T13:28:23.003Z</time></trkpt><trkpt lat="45.0170617" lon="8.0662533"><ele>196.0</ele><time>2026-03-29T13:28:24.007Z</time></trkpt><trkpt lat="45.0171933" lon="8.0661283"><ele>196.0</ele><time>2026-03-29T13:28:25.001Z</time></trkpt><trkpt lat="45.0173267" lon="8.0660183"><ele>196.0</ele><time>2026-03-29T13:28:26.002Z</time></trkpt><trkpt lat="45.017465" lon="8.0659283"><ele>196.0</ele><time>2026-03-29T13:28:27.007Z</time></trkpt><trkpt lat="45.0176083" lon="8.06585"><ele>196.0</ele><time>2026-03-29T13:28:28.004Z</time></trkpt><trkpt lat="45.017755" lon="8.06579"><ele>196.0</ele><time>2026-03-29T13:28:29.003Z</time></trkpt><trkpt lat="45.0179083" lon="8.065735"><ele>196.0</ele><time>2026-03-29T13:28:30.004Z</time></trkpt><trkpt lat="45.018065" lon="8.065695"><ele>196.0</ele><time>2026-03-29T13:28:31.009Z</time></trkpt><trkpt lat="45.018225" lon="8.0656717"><ele>196.0</ele><time>2026-03-29T13:28:32.006Z</time></trkpt><trkpt lat="45.0183917" lon="8.0656667"><ele>197.66666666666666</ele><time>2026-03-29T13:28:33.004Z</time></trkpt><trkpt lat="45.0185583" lon="8.0656833"><ele>199.33333333333331</ele><time>2026-03-29T13:28:34.009Z</time></trkpt><trkpt lat="45.0187233" lon="8.0657167"><ele>201.0</ele><time>2026-03-29T13:28:35.006Z</time></trkpt><trkpt lat="45.01889" lon="8.0657667"><ele>200.33333333333331</ele><time>2026-03-29T13:28:36.01Z</time></trkpt><trkpt lat="45.0190483" lon="8.0658383"><ele>199.66666666666666</ele><time>2026-03-29T13:28:37.005Z</time></trkpt><trkpt lat="45.0192033" lon="8.06593"><ele>199.0</ele><time>2026-03-29T13:28:38.006Z</time></trkpt><trkpt lat="45.0193433" lon="8.066035"><ele>198.5</ele><time>2026-03-29T13:28:39.006Z</time></trkpt><trkpt lat="45.0194667" lon="8.0661417"><ele>198.0</ele><time>2026-03-29T13:28:40.008Z</time></trkpt><trkpt lat="45.0195833" lon="8.06625"><ele>197.5</ele><time>2026-03-29T13:28:41.003Z</time></trkpt><trkpt lat="45.0196933" lon="8.066355"><ele>197.0</ele><time>2026-03-29T13:28:42.006Z</time></trkpt><trkpt lat="45.0198" lon="8.0664533"><ele>197.0</ele><time>2026-03-29T13:28:43.006Z</time></trkpt><trkpt lat="45.0199017" lon="8.0665467"><ele>197.0</ele><time>2026-03-29T13:28:44.013Z</time></trkpt><trkpt lat="45.0200067" lon="8.0666417"><ele>197.0</ele><time>2026-03-29T13:28:45.01Z</time></trkpt><trkpt lat="45.0201183" lon="8.0667333"><ele>197.0</ele><time>2026-03-29T13:28:46.007Z</time></trkpt><trkpt lat="45.0202417" lon="8.0668283"><ele>198.25</ele><time>2026-03-29T13:28:47.001Z</time></trkpt><trkpt lat="45.0203633" lon="8.0669333"><ele>199.5</ele><time>2026-03-29T13:28:48.003Z</time></trkpt><trkpt lat="45.02049" lon="8.0670417"><ele>200.75</ele><time>2026-03-29T13:28:49.007Z</time></trkpt><trkpt lat="45.0206183" lon="8.06715"><ele>202.0</ele><time>2026-03-29T13:28:50.004Z</time></trkpt><trkpt lat="45.02075" lon="8.0672567"><ele>201.66666666666666</ele><time>2026-03-29T13:28:51.006Z</time></trkpt><trkpt lat="45.0208917" lon="8.06735"><ele>201.33333333333331</ele><time>2026-03-29T13:28:52.005Z</time></trkpt><trkpt lat="45.021035" lon="8.067435"><ele>201.0</ele><time>2026-03-29T13:28:53.006Z</time></trkpt><trkpt lat="45.0211967" lon="8.0674967"><ele>201.33333333333331</ele><time>2026-03-29T13:28:54.006Z</time></trkpt><trkpt lat="45.0213533" lon="8.06756"><ele>201.66666666666666</ele><time>2026-03-29T13:28:55.007Z</time></trkpt><trkpt lat="45.0215117" lon="8.0676233"><ele>202.0</ele><time>2026-03-29T13:28:56.006Z</time></trkpt><trkpt lat="45.0216717" lon="8.0676767"><ele>202.0</ele><time>2026-03-29T13:28:57.015Z</time></trkpt><trkpt lat="45.0218383" lon="8.06772"><ele>202.0</ele><time>2026-03-29T13:28:58.006Z</time></trkpt><trkpt lat="45.0220017" lon="8.0677567"><ele>202.0</ele><time>2026-03-29T13:28:59.003Z</time></trkpt><trkpt lat="45.0221667" lon="8.067785"><ele>202.0</ele><time>2026-03-29T13:29:00.005Z</time></trkpt><trkpt lat="45.0223317" lon="8.0678033"><ele>202.0</ele><time>2026-03-29T13:29:01.008Z</time></trkpt><trkpt lat="45.0224967" lon="8.0678117"><ele>202.0</ele><time>2026-03-29T13:29:02.006Z</time></trkpt><trkpt lat="45.022665" lon="8.067805"><ele>202.66666666666666</ele><time>2026-03-29T13:29:03.002Z</time></trkpt><trkpt lat="45.022825" lon="8.067785"><ele>203.33333333333331</ele><time>2026-03-29T13:29:04.005Z</time></trkpt><trkpt lat="45.0229833" lon="8.0677583"><ele>204.0</ele><time>2026-03-29T13:29:05.007Z</time></trkpt><trkpt lat="45.0231467" lon="8.0677233"><ele>204.0</ele><time>2026-03-29T13:29:06.007Z</time></trkpt><trkpt lat="45.0233133" lon="8.06769"><ele>204.0</ele><time>2026-03-29T13:29:07.008Z</time></trkpt><trkpt lat="45.0234767" lon="8.0676417"><ele>204.0</ele><time>2026-03-29T13:29:08.005Z</time></trkpt><trkpt lat="45.0236333" lon="8.067585"><ele>204.33333333333331</ele><time>2026-03-29T13:29:09.005Z</time></trkpt><trkpt lat="45.023795" lon="8.0675217"><ele>204.66666666666666</ele><time>2026-03-29T13:29:10.003Z</time></trkpt><trkpt lat="45.023955" lon="8.06745"><ele>205.0</ele><time>2026-03-29T13:29:11.006Z</time></trkpt><trkpt lat="45.024115" lon="8.0673733"><ele>206.66666666666666</ele><time>2026-03-29T13:29:12.006Z</time></trkpt><trkpt lat="45.0242733" lon="8.0672917"><ele>208.33333333333331</ele><time>2026-03-29T13:29:13.008Z</time></trkpt><trkpt lat="45.0244417" lon="8.0672083"><ele>210.0</ele><time>2026-03-29T13:29:14.003Z</time></trkpt><trkpt lat="45.024605" lon="8.0671133"><ele>210.0</ele><time>2026-03-29T13:29:15.004Z</time></trkpt><trkpt lat="45.024755" lon="8.067005"><ele>210.0</ele><time>2026-03-29T13:29:16.003Z</time></trkpt><trkpt lat="45.0249117" lon="8.06689"><ele>210.0</ele><time>2026-03-29T13:29:17.002Z</time></trkpt><trkpt lat="45.02506" lon="8.066765"><ele>209.0</ele><time>2026-03-29T13:29:18.003Z</time></trkpt><trkpt lat="45.025205" lon="8.0666283"><ele>208.0</ele><time>2026-03-29T13:29:19.005Z</time></trkpt><trkpt lat="45.0253417" lon="8.0664817"><ele>207.0</ele><time>2026-03-29T13:29:20.008Z</time></trkpt><trkpt lat="45.0254783" lon="8.0663283"><ele>206.0</ele><time>2026-03-29T13:29:21.005Z</time></trkpt><trkpt lat="45.02561" lon="8.0661583"><ele>205.0</ele><time>2026-03-29T13:29:22.011Z</time></trkpt><trkpt lat="45.025725" lon="8.0659717"><ele>204.0</ele><time>2026-03-29T13:29:23.006Z</time></trkpt><trkpt lat="45.0258417" lon="8.065785"><ele>203.33333333333331</ele><time>2026-03-29T13:29:24.005Z</time></trkpt><trkpt lat="45.0259583" lon="8.0655933"><ele>202.66666666666666</ele><time>2026-03-29T13:29:25.004Z</time></trkpt><trkpt lat="45.0260733" lon="8.0653967"><ele>202.0</ele><time>2026-03-29T13:29:26.006Z</time></trkpt><trkpt lat="45.0261817" lon="8.065195"><ele>202.0</ele><time>2026-03-29T13:29:27.004Z</time></trkpt><trkpt lat="45.0262917" lon="8.0649933"><ele>202.0</ele><time>2026-03-29T13:29:28.005Z</time></trkpt><trkpt lat="45.0263967" lon="8.0647917"><ele>202.0</ele><time>2026-03-29T13:29:29.003Z</time></trkpt><trkpt lat="45.0265033" lon="8.0645917"><ele>203.0</ele><time>2026-03-29T13:29:30.009Z</time></trkpt><trkpt lat="45.026605" lon="8.0643883"><ele>204.0</ele><time>2026-03-29T13:29:31.006Z</time></trkpt><trkpt lat="45.0267083" lon="8.0641817"><ele>205.0</ele><time>2026-03-29T13:29:32.004Z</time></trkpt><trkpt lat="45.0268117" lon="8.0639767"><ele>207.66666666666666</ele><time>2026-03-29T13:29:33.003Z</time></trkpt><trkpt lat="45.0269133" lon="8.0637733"><ele>210.33333333333331</ele><time>2026-03-29T13:29:34.003Z</time></trkpt><trkpt lat="45.0270167" lon="8.0635667"><ele>213.0</ele><time>2026-03-29T13:29:35.004Z</time></trkpt><trkpt lat="45.0271217" lon="8.0633583"><ele>213.33333333333331</ele><time>2026-03-29T13:29:36.009Z</time></trkpt><trkpt lat="45.02723" lon="8.063145"><ele>213.66666666666666</ele><time>2026-03-29T13:29:37.008Z</time></trkpt><trkpt lat="45.0273367" lon="8.0629333"><ele>214.0</ele><time>2026-03-29T13:29:38.006Z</time></trkpt><trkpt lat="45.0274467" lon="8.0627183"><ele>212.33333333333331</ele><time>2026-03-29T13:29:39.007Z</time></trkpt><trkpt lat="45.0275583" lon="8.0625033"><ele>210.66666666666669</ele><time>2026-03-29T13:29:40.007Z</time></trkpt><trkpt lat="45.0276667" lon="8.0622867"><ele>209.0</ele><time>2026-03-29T13:29:41.007Z</time></trkpt><trkpt lat="45.0277733" lon="8.0620717"><ele>209.0</ele><time>2026-03-29T13:29:42.01Z</time></trkpt><trkpt lat="45.02788" lon="8.061855"><ele>209.0</ele><time>2026-03-29T13:29:43.011Z</time></trkpt><trkpt lat="45.0279917" lon="8.061635"><ele>209.0</ele><time>2026-03-29T13:29:44.005Z</time></trkpt><trkpt lat="45.0280967" lon="8.0614117"><ele>208.0</ele><time>2026-03-29T13:29:45.007Z</time></trkpt><trkpt lat="45.0282017" lon="8.06119"><ele>207.0</ele><time>2026-03-29T13:29:46.002Z</time></trkpt><trkpt lat="45.0283067" lon="8.0609667"><ele>206.0</ele><time>2026-03-29T13:29:47.005Z</time></trkpt><trkpt lat="45.02841" lon="8.0607467"><ele>206.0</ele><time>2026-03-29T13:29:48.004Z</time></trkpt><trkpt lat="45.02852" lon="8.06053"><ele>206.0</ele><time>2026-03-29T13:29:49.007Z</time></trkpt><trkpt lat="45.0286317" lon="8.0603133"><ele>206.0</ele><time>2026-03-29T13:29:50.004Z</time></trkpt><trkpt lat="45.02874" lon="8.0600983"><ele>208.66666666666669</ele><time>2026-03-29T13:29:51.003Z</time></trkpt><trkpt lat="45.028855" lon="8.0598833"><ele>211.33333333333331</ele><time>2026-03-29T13:29:52.004Z</time></trkpt><trkpt lat="45.02896" lon="8.0596733"><ele>214.0</ele><time>2026-03-29T13:29:53.005Z</time></trkpt><trkpt lat="45.0290683" lon="8.059465"><ele>214.0</ele><time>2026-03-29T13:29:54.006Z</time></trkpt><trkpt lat="45.029175" lon="8.05926"><ele>214.0</ele><time>2026-03-29T13:29:55.004Z</time></trkpt><trkpt lat="45.02928" lon="8.059055"><ele>214.0</ele><time>2026-03-29T13:29:56.005Z</time></trkpt><trkpt lat="45.0293783" lon="8.058855"><ele>219.66666666666666</ele><time>2026-03-29T13:29:57.006Z</time></trkpt><trkpt lat="45.02948" lon="8.058655"><ele>225.33333333333331</ele><time>2026-03-29T13:29:58.005Z</time></trkpt><trkpt lat="45.0295817" lon="8.0584567"><ele>231.0</ele><time>2026-03-29T13:29:59.002Z</time></trkpt><trkpt lat="45.0296817" lon="8.0582567"><ele>233.33333333333331</ele><time>2026-03-29T13:30:00.007Z</time></trkpt><trkpt lat="45.029785" lon="8.0580567"><ele>235.66666666666666</ele><time>2026-03-29T13:30:01.005Z</time></trkpt><trkpt lat="45.0298917" lon="8.0578567"><ele>238.0</ele><time>2026-03-29T13:30:02.003Z</time></trkpt><trkpt lat="45.0299967" lon="8.0576517"><ele>237.33333333333331</ele><time>2026-03-29T13:30:03.005Z</time></trkpt><trkpt lat="45.0301" lon="8.0574467"><ele>236.66666666666669</ele><time>2026-03-29T13:30:04.006Z</time></trkpt><trkpt lat="45.030205" lon="8.0572367"><ele>236.0</ele><time>2026-03-29T13:30:05.003Z</time></trkpt><trkpt lat="45.0303183" lon="8.057015"><ele>236.0</ele><time>2026-03-29T13:30:06.007Z</time></trkpt><trkpt lat="45.0304417" lon="8.056775"><ele>236.0</ele><time>2026-03-29T13:30:07.007Z</time></trkpt><trkpt lat="45.03057" lon="8.0565183"><ele>236.0</ele><time>2026-03-29T13:30:08.007Z</time></trkpt><trkpt lat="45.0307017" lon="8.0562517"><ele>233.0</ele><time>2026-03-29T13:30:09.003Z</time></trkpt><trkpt lat="45.0308383" lon="8.0559833"><ele>230.0</ele><time>2026-03-29T13:30:10.005Z</time></trkpt><trkpt lat="45.0309767" lon="8.0557183"><ele>230.0</ele><time>2026-03-29T13:30:11.007Z</time></trkpt><trkpt lat="45.0311117" lon="8.055455"><ele>230.0</ele><time>2026-03-29T13:30:12.004Z</time></trkpt><trkpt lat="45.0312467" lon="8.0551933"><ele>233.0</ele><time>2026-03-29T13:30:13.005Z</time></trkpt><trkpt lat="45.0313767" lon="8.0549383"><ele>236.0</ele><time>2026-03-29T13:30:14.005Z</time></trkpt><trkpt lat="45.0315033" lon="8.0546883"><ele>239.0</ele><time>2026-03-29T13:30:15.007Z</time></trkpt><trkpt lat="45.03163" lon="8.0544467"><ele>233.66666666666669</ele><time>2026-03-29T13:30:16.009Z</time></trkpt><trkpt lat="45.0317517" lon="8.054215"><ele>228.33333333333331</ele><time>2026-03-29T13:30:17.003Z</time></trkpt><trkpt lat="45.0318733" lon="8.0539867"><ele>223.0</ele><time>2026-03-29T13:30:18.004Z</time></trkpt><trkpt lat="45.0319967" lon="8.0537583"><ele>223.0</ele><time>2026-03-29T13:30:19.008Z</time></trkpt><trkpt lat="45.0321233" lon="8.05354"><ele>223.0</ele><time>2026-03-29T13:30:20.003Z</time></trkpt><trkpt lat="45.0322617" lon="8.0533317"><ele>223.0</ele><time>2026-03-29T13:30:21.003Z</time></trkpt><trkpt lat="45.0324167" lon="8.05314"><ele>224.33333333333331</ele><time>2026-03-29T13:30:22.005Z</time></trkpt><trkpt lat="45.0325817" lon="8.05296"><ele>225.66666666666669</ele><time>2026-03-29T13:30:23.005Z</time></trkpt><trkpt lat="45.0327583" lon="8.0528017"><ele>227.0</ele><time>2026-03-29T13:30:24.003Z</time></trkpt><trkpt lat="45.0329417" lon="8.05266"><ele>227.0</ele><time>2026-03-29T13:30:25.012Z</time></trkpt><trkpt lat="45.0331383" lon="8.052535"><ele>227.0</ele><time>2026-03-29T13:30:26.009Z</time></trkpt><trkpt lat="45.0333383" lon="8.05243"><ele>227.0</ele><time>2026-03-29T13:30:27.004Z</time></trkpt><trkpt lat="45.0335417" lon="8.0523317"><ele>227.0</ele><time>2026-03-29T13:30:28.01Z</time></trkpt><trkpt lat="45.0337533" lon="8.0522417"><ele>227.0</ele><time>2026-03-29T13:30:29.003Z</time></trkpt><trkpt lat="45.0339517" lon="8.05215"><ele>227.0</ele><time>2026-03-29T13:30:30.007Z</time></trkpt><trkpt lat="45.034155" lon="8.0520633"><ele>227.0</ele><time>2026-03-29T13:30:31.008Z</time></trkpt><trkpt lat="45.0343517" lon="8.05198"><ele>227.0</ele><time>2026-03-29T13:30:32.003Z</time></trkpt><trkpt lat="45.0345517" lon="8.051895"><ele>227.0</ele><time>2026-03-29T13:30:33.006Z</time></trkpt><trkpt lat="45.034755" lon="8.0518133"><ele>227.0</ele><time>2026-03-29T13:30:34.002Z</time></trkpt><trkpt lat="45.0349483" lon="8.05173"><ele>227.0</ele><time>2026-03-29T13:30:35.011Z</time></trkpt><trkpt lat="45.0351417" lon="8.0516533"><ele>227.0</ele><time>2026-03-29T13:30:36.004Z</time></trkpt><trkpt lat="45.035335" lon="8.0515717"><ele>229.66666666666669</ele><time>2026-03-29T13:30:37.003Z</time></trkpt><trkpt lat="45.0355383" lon="8.0515017"><ele>232.33333333333331</ele><time>2026-03-29T13:30:38.005Z</time></trkpt><trkpt lat="45.0357283" lon="8.0514283"><ele>235.0</ele><time>2026-03-29T13:30:39.004Z</time></trkpt><trkpt lat="45.0359133" lon="8.05135"><ele>236.0</ele><time>2026-03-29T13:30:40.012Z</time></trkpt><trkpt lat="45.0360933" lon="8.0512717"><ele>237.0</ele><time>2026-03-29T13:30:41.004Z</time></trkpt><trkpt lat="45.0362733" lon="8.0512"><ele>238.0</ele><time>2026-03-29T13:30:42.005Z</time></trkpt><trkpt lat="45.0364433" lon="8.0511233"><ele>238.0</ele><time>2026-03-29T13:30:43.008Z</time></trkpt><trkpt lat="45.0366117" lon="8.051055"><ele>238.0</ele><time>2026-03-29T13:30:44.006Z</time></trkpt><trkpt lat="45.03678" lon="8.0509883"><ele>238.0</ele><time>2026-03-29T13:30:45.003Z</time></trkpt><trkpt lat="45.0369467" lon="8.0509283"><ele>238.66666666666666</ele><time>2026-03-29T13:30:46.005Z</time></trkpt><trkpt lat="45.0371017" lon="8.050875"><ele>239.33333333333331</ele><time>2026-03-29T13:30:47.01Z</time></trkpt><trkpt lat="45.037245" lon="8.050825"><ele>240.0</ele><time>2026-03-29T13:30:48.005Z</time></trkpt><trkpt lat="45.0373867" lon="8.05079"><ele>239.75</ele><time>2026-03-29T13:30:49.008Z</time></trkpt><trkpt lat="45.0375267" lon="8.0507667"><ele>239.5</ele><time>2026-03-29T13:30:50.004Z</time></trkpt><trkpt lat="45.037665" lon="8.0507583"><ele>239.25</ele><time>2026-03-29T13:30:51.003Z</time></trkpt><trkpt lat="45.0378017" lon="8.05076"><ele>239.0</ele><time>2026-03-29T13:30:52.003Z</time></trkpt><trkpt lat="45.03793" lon="8.0507767"><ele>240.25</ele><time>2026-03-29T13:30:53.008Z</time></trkpt><trkpt lat="45.0380533" lon="8.0508033"><ele>241.5</ele><time>2026-03-29T13:30:54.002Z</time></trkpt><trkpt lat="45.0381817" lon="8.0508417"><ele>242.75</ele><time>2026-03-29T13:30:55.005Z</time></trkpt><trkpt lat="45.0383067" lon="8.05088"><ele>244.0</ele><time>2026-03-29T13:30:56.007Z</time></trkpt><trkpt lat="45.03843" lon="8.0509283"><ele>244.0</ele><time>2026-03-29T13:30:57.003Z</time></trkpt><trkpt lat="45.0385267" lon="8.0509867"><ele>244.0</ele><time>2026-03-29T13:30:58.009Z</time></trkpt><trkpt lat="45.0386467" lon="8.0510317"><ele>244.0</ele><time>2026-03-29T13:30:59.003Z</time></trkpt><trkpt lat="45.0387533" lon="8.051055"><ele>244.0</ele><time>2026-03-29T13:31:00.004Z</time></trkpt><trkpt lat="45.0388717" lon="8.0510733"><ele>244.0</ele><time>2026-03-29T13:31:01.013Z</time></trkpt><trkpt lat="45.0389933" lon="8.05108"><ele>244.0</ele><time>2026-03-29T13:31:02.005Z</time></trkpt><trkpt lat="45.0391133" lon="8.05108"><ele>244.0</ele><time>2026-03-29T13:31:03.003Z</time></trkpt><trkpt lat="45.0392267" lon="8.0510617"><ele>244.0</ele><time>2026-03-29T13:31:04.007Z</time></trkpt><trkpt lat="45.03934" lon="8.0510217"><ele>244.75</ele><time>2026-03-29T13:31:05.004Z</time></trkpt><trkpt lat="45.0394617" lon="8.0510067"><ele>245.5</ele><time>2026-03-29T13:31:06.006Z</time></trkpt><trkpt lat="45.03958" lon="8.0509783"><ele>246.25</ele><time>2026-03-29T13:31:07.006Z</time></trkpt><trkpt lat="45.03969" lon="8.05092"><ele>247.0</ele><time>2026-03-29T13:31:08.006Z</time></trkpt><trkpt lat="45.0398083" lon="8.050855"><ele>248.5</ele><time>2026-03-29T13:31:09.012Z</time></trkpt><trkpt lat="45.0399283" lon="8.0507833"><ele>250.0</ele><time>2026-03-29T13:31:10.007Z</time></trkpt><trkpt lat="45.0400417" lon="8.0506967"><ele>251.5</ele><time>2026-03-29T13:31:11.009Z</time></trkpt><trkpt lat="45.0401517" lon="8.0506067"><ele>253.0</ele><time>2026-03-29T13:31:12.005Z</time></trkpt><trkpt lat="45.0402667" lon="8.05051"><ele>253.0</ele><time>2026-03-29T13:31:13.004Z</time></trkpt><trkpt lat="45.0403783" lon="8.0504117"><ele>253.0</ele><time>2026-03-29T13:31:14.009Z</time></trkpt><trkpt lat="45.040485" lon="8.0502983"><ele>253.0</ele><time>2026-03-29T13:31:15.006Z</time></trkpt><trkpt lat="45.0405983" lon="8.0501783"><ele>253.0</ele><time>2026-03-29T13:31:16.006Z</time></trkpt><trkpt lat="45.0407083" lon="8.050055"><ele>257.0</ele><time>2026-03-29T13:31:17.005Z</time></trkpt><trkpt lat="45.0408" lon="8.0499383"><ele>261.0</ele><time>2026-03-29T13:31:18.002Z</time></trkpt><trkpt lat="45.0408917" lon="8.0498183"><ele>265.0</ele><time>2026-03-29T13:31:19.006Z</time></trkpt><trkpt lat="45.0409933" lon="8.049705"><ele>269.0</ele><time>2026-03-29T13:31:20.002Z</time></trkpt><trkpt lat="45.0410933" lon="8.0495883"><ele>269.0</ele><time>2026-03-29T13:31:21.01Z</time></trkpt><trkpt lat="45.041195" lon="8.0494783"><ele>269.0</ele><time>2026-03-29T13:31:22.005Z</time></trkpt><trkpt lat="45.041305" lon="8.0493733"><ele>269.0</ele><time>2026-03-29T13:31:23.003Z</time></trkpt><trkpt lat="45.0414033" lon="8.0492733"><ele>269.0</ele><time>2026-03-29T13:31:24.006Z</time></trkpt><trkpt lat="45.04151" lon="8.0491633"><ele>268.25</ele><time>2026-03-29T13:31:25.007Z</time></trkpt><trkpt lat="45.0416133" lon="8.0490567"><ele>267.5</ele><time>2026-03-29T13:31:26.005Z</time></trkpt><trkpt lat="45.04175" lon="8.0489717"><ele>266.75</ele><time>2026-03-29T13:31:27.008Z</time></trkpt><trkpt lat="45.0418983" lon="8.048885"><ele>266.0</ele><time>2026-03-29T13:31:28.003Z</time></trkpt><trkpt lat="45.0420067" lon="8.0487767"><ele>266.0</ele><time>2026-03-29T13:31:29.005Z</time></trkpt><trkpt lat="45.0421133" lon="8.0486633"><ele>266.0</ele><time>2026-03-29T13:31:30.008Z</time></trkpt><trkpt lat="45.0422233" lon="8.0485433"><ele>266.0</ele><time>2026-03-29T13:31:31.007Z</time></trkpt><trkpt lat="45.0423367" lon="8.0484233"><ele>266.0</ele><time>2026-03-29T13:31:32.003Z</time></trkpt><trkpt lat="45.0424467" lon="8.0483"><ele>261.75</ele><time>2026-03-29T13:31:33.006Z</time></trkpt><trkpt lat="45.0425517" lon="8.04817"><ele>257.5</ele><time>2026-03-29T13:31:34.003Z</time></trkpt><trkpt lat="45.0426567" lon="8.048035"><ele>253.25</ele><time>2026-03-29T13:31:35.004Z</time></trkpt><trkpt lat="45.042765" lon="8.0479"><ele>249.0</ele><time>2026-03-29T13:31:36.011Z</time></trkpt><trkpt lat="45.0428683" lon="8.04776"><ele>249.0</ele><time>2026-03-29T13:31:37.007Z</time></trkpt><trkpt lat="45.0429433" lon="8.0476033"><ele>249.0</ele><time>2026-03-29T13:31:38.004Z</time></trkpt><trkpt lat="45.0430333" lon="8.04745"><ele>249.0</ele><time>2026-03-29T13:31:39.005Z</time></trkpt><trkpt lat="45.0431117" lon="8.047295"><ele>249.0</ele><time>2026-03-29T13:31:40.003Z</time></trkpt><trkpt lat="45.0431817" lon="8.0471383"><ele>249.25</ele><time>2026-03-29T13:31:41.004Z</time></trkpt><trkpt lat="45.043235" lon="8.0469767"><ele>249.5</ele><time>2026-03-29T13:31:42.004Z</time></trkpt><trkpt lat="45.0432883" lon="8.0468183"><ele>249.75</ele><time>2026-03-29T13:31:43.006Z</time></trkpt><trkpt lat="45.0433367" lon="8.046655"><ele>250.0</ele><time>2026-03-29T13:31:44.006Z</time></trkpt><trkpt lat="45.0433783" lon="8.046485"><ele>248.25</ele><time>2026-03-29T13:31:45.005Z</time></trkpt><trkpt lat="45.0434183" lon="8.0463167"><ele>246.5</ele><time>2026-03-29T13:31:46.004Z</time></trkpt><trkpt lat="45.0434533" lon="8.0461383"><ele>244.75</ele><time>2026-03-29T13:31:47.002Z</time></trkpt><trkpt lat="45.0434867" lon="8.0459583"><ele>243.0</ele><time>2026-03-29T13:31:48.004Z</time></trkpt><trkpt lat="45.043515" lon="8.0457717"><ele>242.75</ele><time>2026-03-29T13:31:49.005Z</time></trkpt><trkpt lat="45.0435367" lon="8.045585"><ele>242.5</ele><time>2026-03-29T13:31:50.004Z</time></trkpt><trkpt lat="45.043555" lon="8.045405"><ele>242.25</ele><time>2026-03-29T13:31:51.005Z</time></trkpt><trkpt lat="45.043575" lon="8.0452317"><ele>242.0</ele><time>2026-03-29T13:31:52.01Z</time></trkpt><trkpt lat="45.0435967" lon="8.0450617"><ele>241.2</ele><time>2026-03-29T13:31:53.005Z</time></trkpt><trkpt lat="45.0436183" lon="8.0448967"><ele>240.39999999999998</ele><time>2026-03-29T13:31:54.007Z</time></trkpt><trkpt lat="45.0436383" lon="8.0447383"><ele>239.60000000000002</ele><time>2026-03-29T13:31:55.007Z</time></trkpt><trkpt lat="45.0436567" lon="8.044585"><ele>238.8</ele><time>2026-03-29T13:31:56.005Z</time></trkpt><trkpt lat="45.043675" lon="8.0444383"><ele>238.0</ele><time>2026-03-29T13:31:57.01Z</time></trkpt><trkpt lat="45.04369" lon="8.0442983"><ele>237.99999999999997</ele><time>2026-03-29T13:31:58.006Z</time></trkpt><trkpt lat="45.0437067" lon="8.0441617"><ele>238.0</ele><time>2026-03-29T13:31:59.01Z</time></trkpt><trkpt lat="45.0437217" lon="8.0440433"><ele>238.0</ele><time>2026-03-29T13:32:00.012Z</time></trkpt><trkpt lat="45.0437333" lon="8.043945"><ele>238.0</ele><time>2026-03-29T13:32:01.008Z</time></trkpt><trkpt lat="45.0437417" lon="8.043795"><ele>237.99999999999997</ele><time>2026-03-29T13:32:03.001Z</time></trkpt><trkpt lat="45.0437767" lon="8.0436967"><ele>238.0</ele><time>2026-03-29T13:32:05.008Z</time></trkpt><trkpt lat="45.0438533" lon="8.0436633"><ele>237.16666666666666</ele><time>2026-03-29T13:32:07.007Z</time></trkpt><trkpt lat="45.0439633" lon="8.04371"><ele>236.33333333333331</ele><time>2026-03-29T13:32:09.003Z</time></trkpt><trkpt lat="45.04402" lon="8.04375"><ele>235.5</ele><time>2026-03-29T13:32:10.007Z</time></trkpt><trkpt lat="45.0440783" lon="8.0438017"><ele>234.66666666666669</ele><time>2026-03-29T13:32:11.005Z</time></trkpt><trkpt lat="45.0441383" lon="8.04387"><ele>233.83333333333334</ele><time>2026-03-29T13:32:12.004Z</time></trkpt><trkpt lat="45.0441967" lon="8.04394"><ele>233.0</ele><time>2026-03-29T13:32:13.005Z</time></trkpt><trkpt lat="45.044255" lon="8.0440217"><ele>234.60000000000002</ele><time>2026-03-29T13:32:14.007Z</time></trkpt><trkpt lat="45.04431" lon="8.0441133"><ele>236.20000000000002</ele><time>2026-03-29T13:32:15.007Z</time></trkpt><trkpt lat="45.0443667" lon="8.04422"><ele>237.8</ele><time>2026-03-29T13:32:16.004Z</time></trkpt><trkpt lat="45.0444183" lon="8.0443383"><ele>239.4</ele><time>2026-03-29T13:32:17.005Z</time></trkpt><trkpt lat="45.04447" lon="8.0444667"><ele>241.0</ele><time>2026-03-29T13:32:18.006Z</time></trkpt><trkpt lat="45.0445217" lon="8.0445833"><ele>241.0</ele><time>2026-03-29T13:32:19.007Z</time></trkpt><trkpt lat="45.0445683" lon="8.0447067"><ele>241.00000000000003</ele><time>2026-03-29T13:32:20.01Z</time></trkpt><trkpt lat="45.04462" lon="8.04483"><ele>241.00000000000003</ele><time>2026-03-29T13:32:21.008Z</time></trkpt><trkpt lat="45.0446683" lon="8.044955"><ele>241.0</ele><time>2026-03-29T13:32:22.004Z</time></trkpt><trkpt lat="45.0447183" lon="8.0450883"><ele>241.0</ele><time>2026-03-29T13:32:23.006Z</time></trkpt><trkpt lat="45.0447667" lon="8.0452233"><ele>241.20000000000002</ele><time>2026-03-29T13:32:24.006Z</time></trkpt><trkpt lat="45.0448167" lon="8.04536"><ele>241.40000000000003</ele><time>2026-03-29T13:32:25.006Z</time></trkpt><trkpt lat="45.044865" lon="8.0455017"><ele>241.6</ele><time>2026-03-29T13:32:26.007Z</time></trkpt><trkpt lat="45.0449183" lon="8.0456433"><ele>241.8</ele><time>2026-03-29T13:32:27.004Z</time></trkpt><trkpt lat="45.04497" lon="8.0457817"><ele>242.0</ele><time>2026-03-29T13:32:28.008Z</time></trkpt><trkpt lat="45.0450233" lon="8.0459217"><ele>243.25</ele><time>2026-03-29T13:32:29.008Z</time></trkpt><trkpt lat="45.0450783" lon="8.0460583"><ele>244.5</ele><time>2026-03-29T13:32:30.003Z</time></trkpt><trkpt lat="45.045135" lon="8.0461933"><ele>245.75</ele><time>2026-03-29T13:32:31.01Z</time></trkpt><trkpt lat="45.0451983" lon="8.0463233"><ele>247.0</ele><time>2026-03-29T13:32:32.002Z</time></trkpt><trkpt lat="45.045275" lon="8.04645"><ele>247.0</ele><time>2026-03-29T13:32:33.005Z</time></trkpt><trkpt lat="45.0453583" lon="8.046565"><ele>247.0</ele><time>2026-03-29T13:32:34.002Z</time></trkpt><trkpt lat="45.04545" lon="8.0466617"><ele>247.0</ele><time>2026-03-29T13:32:35.006Z</time></trkpt><trkpt lat="45.0455433" lon="8.0467333"><ele>247.0</ele><time>2026-03-29T13:32:36.004Z</time></trkpt><trkpt lat="45.04564" lon="8.0467833"><ele>247.0</ele><time>2026-03-29T13:32:37.006Z</time></trkpt><trkpt lat="45.0457433" lon="8.0468033"><ele>247.39999999999998</ele><time>2026-03-29T13:32:38.003Z</time></trkpt><trkpt lat="45.0458483" lon="8.0468"><ele>247.79999999999998</ele><time>2026-03-29T13:32:39.006Z</time></trkpt><trkpt lat="45.0459583" lon="8.04678"><ele>248.2</ele><time>2026-03-29T13:32:40.006Z</time></trkpt><trkpt lat="45.0460617" lon="8.0467583"><ele>248.6</ele><time>2026-03-29T13:32:41.008Z</time></trkpt><trkpt lat="45.04617" lon="8.0467467"><ele>249.0</ele><time>2026-03-29T13:32:42.007Z</time></trkpt><trkpt lat="45.046275" lon="8.0467633"><ele>249.0</ele><time>2026-03-29T13:32:43.008Z</time></trkpt><trkpt lat="45.0463867" lon="8.0467933"><ele>249.0</ele><time>2026-03-29T13:32:44.003Z</time></trkpt><trkpt lat="45.0464967" lon="8.04684"><ele>249.0</ele><time>2026-03-29T13:32:45.007Z</time></trkpt><trkpt lat="45.0466" lon="8.0469067"><ele>249.0</ele><time>2026-03-29T13:32:46.008Z</time></trkpt><trkpt lat="45.0467033" lon="8.04698"><ele>249.79999999999998</ele><time>2026-03-29T13:32:47.009Z</time></trkpt><trkpt lat="45.0467983" lon="8.047075"><ele>250.59999999999997</ele><time>2026-03-29T13:32:48.004Z</time></trkpt><trkpt lat="45.0468917" lon="8.0471733"><ele>251.4</ele><time>2026-03-29T13:32:49.005Z</time></trkpt><trkpt lat="45.0469717" lon="8.0472767"><ele>252.2</ele><time>2026-03-29T13:32:50.005Z</time></trkpt><trkpt lat="45.0470433" lon="8.04738"><ele>253.0</ele><time>2026-03-29T13:32:51.005Z</time></trkpt><trkpt lat="45.0471183" lon="8.0474783"><ele>255.2</ele><time>2026-03-29T13:32:52.005Z</time></trkpt><trkpt lat="45.0471967" lon="8.0475733"><ele>257.4</ele><time>2026-03-29T13:32:53.003Z</time></trkpt><trkpt lat="45.0472683" lon="8.0476817"><ele>259.59999999999997</ele><time>2026-03-29T13:32:54.009Z</time></trkpt><trkpt lat="45.0473333" lon="8.0478083"><ele>261.8</ele><time>2026-03-29T13:32:55.007Z</time></trkpt><trkpt lat="45.047395" lon="8.047945"><ele>264.0</ele><time>2026-03-29T13:32:56.005Z</time></trkpt><trkpt lat="45.0474467" lon="8.0480783"><ele>263.2</ele><time>2026-03-29T13:32:57.007Z</time></trkpt><trkpt lat="45.0474917" lon="8.048215"><ele>262.4</ele><time>2026-03-29T13:32:58.009Z</time></trkpt><trkpt lat="45.047535" lon="8.0483483"><ele>261.6</ele><time>2026-03-29T13:32:59.001Z</time></trkpt><trkpt lat="45.047575" lon="8.04848"><ele>260.8</ele><time>2026-03-29T13:33:00.009Z</time></trkpt><trkpt lat="45.0476133" lon="8.0486033"><ele>260.0</ele><time>2026-03-29T13:33:01.005Z</time></trkpt><trkpt lat="45.0476533" lon="8.0487267"><ele>262.0</ele><time>2026-03-29T13:33:02.007Z</time></trkpt><trkpt lat="45.047695" lon="8.0488467"><ele>264.0</ele><time>2026-03-29T13:33:03.008Z</time></trkpt><trkpt lat="45.0477383" lon="8.0489517"><ele>266.0</ele><time>2026-03-29T13:33:04.008Z</time></trkpt><trkpt lat="45.0477883" lon="8.0490433"><ele>268.0</ele><time>2026-03-29T13:33:05.004Z</time></trkpt><trkpt lat="45.0478483" lon="8.0491183"><ele>270.0</ele><time>2026-03-29T13:33:06.003Z</time></trkpt><trkpt lat="45.0479417" lon="8.0491183"><ele>272.0</ele><time>2026-03-29T13:33:07.006Z</time></trkpt><trkpt lat="45.0480217" lon="8.0490917"><ele>272.0</ele><time>2026-03-29T13:33:08.002Z</time></trkpt><trkpt lat="45.0480933" lon="8.04902"><ele>272.0</ele><time>2026-03-29T13:33:09.004Z</time></trkpt><trkpt lat="45.0481533" lon="8.0489383"><ele>272.0</ele><time>2026-03-29T13:33:10.005Z</time></trkpt><trkpt lat="45.048205" lon="8.0488433"><ele>272.0</ele><time>2026-03-29T13:33:11.005Z</time></trkpt><trkpt lat="45.0482483" lon="8.0487317"><ele>272.0</ele><time>2026-03-29T13:33:12.004Z</time></trkpt><trkpt lat="45.0482933" lon="8.0486283"><ele>272.0</ele><time>2026-03-29T13:33:13.003Z</time></trkpt><trkpt lat="45.048335" lon="8.0485267"><ele>272.0</ele><time>2026-03-29T13:33:14.004Z</time></trkpt><trkpt lat="45.0483783" lon="8.04843"><ele>272.0</ele><time>2026-03-29T13:33:15.006Z</time></trkpt><trkpt lat="45.0484283" lon="8.04834"><ele>272.0</ele><time>2026-03-29T13:33:16.01Z</time></trkpt><trkpt lat="45.0484833" lon="8.0482633"><ele>272.0</ele><time>2026-03-29T13:33:17.003Z</time></trkpt><trkpt lat="45.0485433" lon="8.0482"><ele>272.0</ele><time>2026-03-29T13:33:18.009Z</time></trkpt><trkpt lat="45.04862" lon="8.0481533"><ele>272.0</ele><time>2026-03-29T13:33:19.008Z</time></trkpt><trkpt lat="45.0487117" lon="8.0481817"><ele>273.6</ele><time>2026-03-29T13:33:20.005Z</time></trkpt><trkpt lat="45.0488083" lon="8.04821"><ele>275.2</ele><time>2026-03-29T13:33:21.006Z</time></trkpt><trkpt lat="45.048905" lon="8.048235"><ele>276.8</ele><time>2026-03-29T13:33:22.013Z</time></trkpt><trkpt lat="45.0490033" lon="8.0482617"><ele>278.4</ele><time>2026-03-29T13:33:23.003Z</time></trkpt><trkpt lat="45.0490967" lon="8.04829"><ele>280.0</ele><time>2026-03-29T13:33:24.007Z</time></trkpt><trkpt lat="45.0491917" lon="8.0483167"><ele>280.0</ele><time>2026-03-29T13:33:25.004Z</time></trkpt><trkpt lat="45.049285" lon="8.0483417"><ele>280.0</ele><time>2026-03-29T13:33:26.004Z</time></trkpt><trkpt lat="45.0493767" lon="8.0483667"><ele>280.0</ele><time>2026-03-29T13:33:27.005Z</time></trkpt><trkpt lat="45.0494667" lon="8.0483917"><ele>280.0</ele><time>2026-03-29T13:33:28.005Z</time></trkpt><trkpt lat="45.0495517" lon="8.0484133"><ele>280.0</ele><time>2026-03-29T13:33:29.007Z</time></trkpt><trkpt lat="45.0496367" lon="8.0484383"><ele>280.0</ele><time>2026-03-29T13:33:30.007Z</time></trkpt><trkpt lat="45.0497217" lon="8.0484683"><ele>280.0</ele><time>2026-03-29T13:33:31.012Z</time></trkpt><trkpt lat="45.049805" lon="8.0485083"><ele>280.0</ele><time>2026-03-29T13:33:32.008Z</time></trkpt><trkpt lat="45.0498833" lon="8.04857"><ele>280.0</ele><time>2026-03-29T13:33:33.009Z</time></trkpt><trkpt lat="45.04996" lon="8.04864"><ele>280.0</ele><time>2026-03-29T13:33:34.004Z</time></trkpt><trkpt lat="45.05003" lon="8.0487233"><ele>280.0</ele><time>2026-03-29T13:33:35.005Z</time></trkpt><trkpt lat="45.050095" lon="8.0488117"><ele>280.3333333333333</ele><time>2026-03-29T13:33:36.005Z</time></trkpt><trkpt lat="45.0501583" lon="8.0489"><ele>280.66666666666663</ele><time>2026-03-29T13:33:37.006Z</time></trkpt><trkpt lat="45.0502183" lon="8.04898"><ele>281.0</ele><time>2026-03-29T13:33:38.009Z</time></trkpt><trkpt lat="45.0502767" lon="8.0490567"><ele>281.3333333333333</ele><time>2026-03-29T13:33:39.006Z</time></trkpt><trkpt lat="45.0503367" lon="8.04914"><ele>281.6666666666667</ele><time>2026-03-29T13:33:40.003Z</time></trkpt><trkpt lat="45.0503967" lon="8.0492183"><ele>282.0</ele><time>2026-03-29T13:33:41.01Z</time></trkpt><trkpt lat="45.0504583" lon="8.0492883"><ele>284.0</ele><time>2026-03-29T13:33:42.002Z</time></trkpt><trkpt lat="45.0505167" lon="8.049355"><ele>286.0</ele><time>2026-03-29T13:33:43.009Z</time></trkpt><trkpt lat="45.0505733" lon="8.0494133"><ele>288.0</ele><time>2026-03-29T13:33:44.007Z</time></trkpt><trkpt lat="45.0506317" lon="8.0494617"><ele>290.0</ele><time>2026-03-29T13:33:45.008Z</time></trkpt><trkpt lat="45.0507367" lon="8.0495133"><ele>292.0</ele><time>2026-03-29T13:33:47.007Z</time></trkpt><trkpt lat="45.05084" lon="8.049545"><ele>294.0</ele><time>2026-03-29T13:33:49.007Z</time></trkpt><trkpt lat="45.0509133" lon="8.0495617"><ele>294.2</ele><time>2026-03-29T13:33:50.013Z</time></trkpt><trkpt lat="45.0510017" lon="8.0495633"><ele>294.4</ele><time>2026-03-29T13:33:51.007Z</time></trkpt><trkpt lat="45.0510983" lon="8.0495533"><ele>294.6</ele><time>2026-03-29T13:33:52.004Z</time></trkpt><trkpt lat="45.05119" lon="8.049525"><ele>294.8</ele><time>2026-03-29T13:33:53.009Z</time></trkpt><trkpt lat="45.0512867" lon="8.049475"><ele>295.0</ele><time>2026-03-29T13:33:54.007Z</time></trkpt><trkpt lat="45.0513833" lon="8.0494083"><ele>295.0</ele><time>2026-03-29T13:33:55.011Z</time></trkpt><trkpt lat="45.0514717" lon="8.0493433"><ele>295.0</ele><time>2026-03-29T13:33:56.008Z</time></trkpt><trkpt lat="45.0515567" lon="8.0492917"><ele>295.0</ele><time>2026-03-29T13:33:57.003Z</time></trkpt><trkpt lat="45.0516333" lon="8.0492367"><ele>295.0</ele><time>2026-03-29T13:33:58.001Z</time></trkpt><trkpt lat="45.0517117" lon="8.049185"><ele>295.0</ele><time>2026-03-29T13:33:59.004Z</time></trkpt><trkpt lat="45.051795" lon="8.0491483"><ele>294.8333333333333</ele><time>2026-03-29T13:34:00.013Z</time></trkpt><trkpt lat="45.051875" lon="8.0491017"><ele>294.66666666666663</ele><time>2026-03-29T13:34:01.002Z</time></trkpt><trkpt lat="45.051965" lon="8.0490783"><ele>294.5</ele><time>2026-03-29T13:34:02.002Z</time></trkpt><trkpt lat="45.0520417" lon="8.049045"><ele>294.3333333333333</ele><time>2026-03-29T13:34:03.005Z</time></trkpt><trkpt lat="45.0521283" lon="8.0490067"><ele>294.1666666666667</ele><time>2026-03-29T13:34:04.006Z</time></trkpt><trkpt lat="45.0522" lon="8.048935"><ele>294.0</ele><time>2026-03-29T13:34:05.009Z</time></trkpt><trkpt lat="45.0522633" lon="8.0488583"><ele>294.0</ele><time>2026-03-29T13:34:06.005Z</time></trkpt><trkpt lat="45.052335" lon="8.0488067"><ele>294.0</ele><time>2026-03-29T13:34:07.005Z</time></trkpt><trkpt lat="45.0524067" lon="8.04875"><ele>294.0</ele><time>2026-03-29T13:34:08.006Z</time></trkpt><trkpt lat="45.0524867" lon="8.0486983"><ele>294.0</ele><time>2026-03-29T13:34:09.009Z</time></trkpt><trkpt lat="45.0525617" lon="8.048655"><ele>294.0</ele><time>2026-03-29T13:34:10.009Z</time></trkpt><trkpt lat="45.052635" lon="8.048615"><ele>294.0</ele><time>2026-03-29T13:34:11.009Z</time></trkpt><trkpt lat="45.0527067" lon="8.04858"><ele>296.3333333333333</ele><time>2026-03-29T13:34:12.008Z</time></trkpt><trkpt lat="45.0527717" lon="8.048545"><ele>298.6666666666667</ele><time>2026-03-29T13:34:13.006Z</time></trkpt><trkpt lat="45.0528367" lon="8.0485217"><ele>301.0</ele><time>2026-03-29T13:34:14.013Z</time></trkpt><trkpt lat="45.0528983" lon="8.0485017"><ele>303.33333333333337</ele><time>2026-03-29T13:34:15.011Z</time></trkpt><trkpt lat="45.052995" lon="8.0485117"><ele>305.6666666666667</ele><time>2026-03-29T13:34:17.009Z</time></trkpt><trkpt lat="45.0530567" lon="8.048545"><ele>308.0</ele><time>2026-03-29T13:34:19.003Z</time></trkpt><trkpt lat="45.0531267" lon="8.04862"><ele>308.0</ele><time>2026-03-29T13:34:21.004Z</time></trkpt><trkpt lat="45.0532067" lon="8.0487133"><ele>308.0</ele><time>2026-03-29T13:34:23.007Z</time></trkpt><trkpt lat="45.0533133" lon="8.04884"><ele>308.0</ele><time>2026-03-29T13:34:25.003Z</time></trkpt><trkpt lat="45.0533817" lon="8.048915"><ele>308.0</ele><time>2026-03-29T13:34:26.007Z</time></trkpt><trkpt lat="45.0534617" lon="8.0489733"><ele>308.0</ele><time>2026-03-29T13:34:27.006Z</time></trkpt><trkpt lat="45.0535383" lon="8.04905"><ele>307.8</ele><time>2026-03-29T13:34:28.004Z</time></trkpt><trkpt lat="45.0536117" lon="8.0491333"><ele>307.6</ele><time>2026-03-29T13:34:29.003Z</time></trkpt><trkpt lat="45.053685" lon="8.0492317"><ele>307.4</ele><time>2026-03-29T13:34:30.005Z</time></trkpt><trkpt lat="45.0537633" lon="8.0493183"><ele>307.2</ele><time>2026-03-29T13:34:31.007Z</time></trkpt><trkpt lat="45.0538533" lon="8.0494067"><ele>307.0</ele><time>2026-03-29T13:34:32.004Z</time></trkpt><trkpt lat="45.053935" lon="8.0494967"><ele>307.0</ele><time>2026-03-29T13:34:33.006Z</time></trkpt><trkpt lat="45.0540083" lon="8.0495983"><ele>307.0</ele><time>2026-03-29T13:34:34.006Z</time></trkpt><trkpt lat="45.05408" lon="8.0496867"><ele>307.0</ele><time>2026-03-29T13:34:35.012Z</time></trkpt><trkpt lat="45.05415" lon="8.0497867"><ele>307.0</ele><time>2026-03-29T13:34:36.004Z</time></trkpt><trkpt lat="45.054215" lon="8.0498733"><ele>307.0</ele><time>2026-03-29T13:34:37.007Z</time></trkpt><trkpt lat="45.0542717" lon="8.0499667"><ele>306.5</ele><time>2026-03-29T13:34:38.006Z</time></trkpt><trkpt lat="45.0543133" lon="8.0500783"><ele>306.0</ele><time>2026-03-29T13:34:39.007Z</time></trkpt><trkpt lat="45.054335" lon="8.0502067"><ele>305.5</ele><time>2026-03-29T13:34:40.006Z</time></trkpt><trkpt lat="45.0543367" lon="8.050325"><ele>305.0</ele><time>2026-03-29T13:34:41.009Z</time></trkpt><trkpt lat="45.0543317" lon="8.0504417"><ele>304.5</ele><time>2026-03-29T13:34:42.008Z</time></trkpt><trkpt lat="45.05433" lon="8.0505633"><ele>304.0</ele><time>2026-03-29T13:34:43.006Z</time></trkpt><trkpt lat="45.0543217" lon="8.0506783"><ele>303.16666666666663</ele><time>2026-03-29T13:34:44.01Z</time></trkpt><trkpt lat="45.05431" lon="8.050795"><ele>302.3333333333333</ele><time>2026-03-29T13:34:45.01Z</time></trkpt><trkpt lat="45.0543" lon="8.05091"><ele>301.5</ele><time>2026-03-29T13:34:46.009Z</time></trkpt><trkpt lat="45.0542983" lon="8.0510217"><ele>300.6666666666667</ele><time>2026-03-29T13:34:47.009Z</time></trkpt><trkpt lat="45.0543017" lon="8.0511233"><ele>299.83333333333337</ele><time>2026-03-29T13:34:48.006Z</time></trkpt><trkpt lat="45.0543067" lon="8.0512133"><ele>299.0</ele><time>2026-03-29T13:34:49.007Z</time></trkpt><trkpt lat="45.0543317" lon="8.0513583"><ele>299.0</ele><time>2026-03-29T13:34:51.011Z</time></trkpt><trkpt lat="45.0543883" lon="8.05143"><ele>299.0</ele><time>2026-03-29T13:34:53.005Z</time></trkpt><trkpt lat="45.054465" lon="8.0514417"><ele>299.0</ele><time>2026-03-29T13:34:55.009Z</time></trkpt><trkpt lat="45.0545317" lon="8.0514183"><ele>299.0</ele><time>2026-03-29T13:34:57.005Z</time></trkpt><trkpt lat="45.0545717" lon="8.0513417"><ele>299.0</ele><time>2026-03-29T13:34:59.007Z</time></trkpt><trkpt lat="45.05457" lon="8.0512383"><ele>299.0</ele><time>2026-03-29T13:35:01.004Z</time></trkpt><trkpt lat="45.0545433" lon="8.0511267"><ele>299.0</ele><time>2026-03-29T13:35:04.005Z</time></trkpt><trkpt lat="45.0544817" lon="8.051095"><ele>299.0</ele><time>2026-03-29T13:35:06.007Z</time></trkpt><trkpt lat="45.0544133" lon="8.0510933"><ele>299.0</ele><time>2026-03-29T13:35:08.011Z</time></trkpt><trkpt lat="45.054345" lon="8.051055"><ele>299.0</ele><time>2026-03-29T13:35:11.001Z</time></trkpt><trkpt lat="45.0543267" lon="8.0509533"><ele>299.0</ele><time>2026-03-29T13:35:13Z</time></trkpt><trkpt lat="45.0543317" lon="8.0508167"><ele>299.0</ele><time>2026-03-29T13:35:15.005Z</time></trkpt><trkpt lat="45.054355" lon="8.050655"><ele>299.0</ele><time>2026-03-29T13:35:17.005Z</time></trkpt><trkpt lat="45.0543733" lon="8.0504717"><ele>300.0</ele><time>2026-03-29T13:35:19.007Z</time></trkpt><trkpt lat="45.0543533" lon="8.050295"><ele>301.0</ele><time>2026-03-29T13:35:21.007Z</time></trkpt><trkpt lat="45.0543333" lon="8.050205"><ele>302.0</ele><time>2026-03-29T13:35:22.003Z</time></trkpt><trkpt lat="45.0543133" lon="8.050115"><ele>303.0</ele><time>2026-03-29T13:35:23.007Z</time></trkpt><trkpt lat="45.0542767" lon="8.0499533"><ele>304.0</ele><time>2026-03-29T13:35:25.006Z</time></trkpt><trkpt lat="45.0542467" lon="8.0498167"><ele>304.59999999999997</ele><time>2026-03-29T13:35:27.006Z</time></trkpt><trkpt lat="45.0542" lon="8.0496983"><ele>305.2</ele><time>2026-03-29T13:35:29.004Z</time></trkpt><trkpt lat="45.05411" lon="8.0495733"><ele>305.79999999999995</ele><time>2026-03-29T13:35:31.005Z</time></trkpt><trkpt lat="45.0540567" lon="8.0495017"><ele>306.4</ele><time>2026-03-29T13:35:32.003Z</time></trkpt><trkpt lat="45.054" lon="8.0494233"><ele>307.0</ele><time>2026-03-29T13:35:33.005Z</time></trkpt><trkpt lat="45.0539417" lon="8.04935"><ele>307.0</ele><time>2026-03-29T13:35:34Z</time></trkpt><trkpt lat="45.053885" lon="8.0492833"><ele>307.0</ele><time>2026-03-29T13:35:35.004Z</time></trkpt><trkpt lat="45.053815" lon="8.0492333"><ele>307.0</ele><time>2026-03-29T13:35:36.004Z</time></trkpt><trkpt lat="45.0537467" lon="8.0491867"><ele>307.0</ele><time>2026-03-29T13:35:37.006Z</time></trkpt><trkpt lat="45.0536917" lon="8.0491283"><ele>307.0</ele><time>2026-03-29T13:35:38.01Z</time></trkpt><trkpt lat="45.053625" lon="8.0490817"><ele>307.0</ele><time>2026-03-29T13:35:39.006Z</time></trkpt><trkpt lat="45.0535517" lon="8.049035"><ele>307.1428571428571</ele><time>2026-03-29T13:35:40.008Z</time></trkpt><trkpt lat="45.0534867" lon="8.04899"><ele>307.2857142857143</ele><time>2026-03-29T13:35:41.005Z</time></trkpt><trkpt lat="45.0534317" lon="8.0489317"><ele>307.42857142857144</ele><time>2026-03-29T13:35:42.008Z</time></trkpt><trkpt lat="45.05338" lon="8.0488683"><ele>307.57142857142856</ele><time>2026-03-29T13:35:43.007Z</time></trkpt><trkpt lat="45.0533233" lon="8.0488117"><ele>307.7142857142857</ele><time>2026-03-29T13:35:44.009Z</time></trkpt><trkpt lat="45.0532683" lon="8.0487667"><ele>307.85714285714283</ele><time>2026-03-29T13:35:45.003Z</time></trkpt><trkpt lat="45.0532183" lon="8.048705"><ele>308.0</ele><time>2026-03-29T13:35:46.014Z</time></trkpt><trkpt lat="45.0531333" lon="8.0486133"><ele>308.0</ele><time>2026-03-29T13:35:48.008Z</time></trkpt><trkpt lat="45.0530717" lon="8.04854"><ele>308.0</ele><time>2026-03-29T13:35:50.002Z</time></trkpt><trkpt lat="45.05305" lon="8.0484417"><ele>308.0</ele><time>2026-03-29T13:35:52.008Z</time></trkpt><trkpt lat="45.0530667" lon="8.0483483"><ele>308.0</ele><time>2026-03-29T13:35:56.002Z</time></trkpt><trkpt lat="45.05316" lon="8.0482517"><ele>308.0</ele><time>2026-03-29T13:35:58.008Z</time></trkpt><trkpt lat="45.0532383" lon="8.0481883"><ele>308.0</ele><time>2026-03-29T13:35:59.005Z</time></trkpt><trkpt lat="45.053295" lon="8.0481267"><ele>307.83333333333337</ele><time>2026-03-29T13:36:00.011Z</time></trkpt><trkpt lat="45.05339" lon="8.048045"><ele>307.6666666666667</ele><time>2026-03-29T13:36:02.004Z</time></trkpt><trkpt lat="45.0534483" lon="8.0479983"><ele>307.5</ele><time>2026-03-29T13:36:03.006Z</time></trkpt><trkpt lat="45.0534967" lon="8.0479333"><ele>307.3333333333333</ele><time>2026-03-29T13:36:04.005Z</time></trkpt><trkpt lat="45.0535567" lon="8.0478633"><ele>307.16666666666663</ele><time>2026-03-29T13:36:05.003Z</time></trkpt><trkpt lat="45.0536333" lon="8.047805"><ele>307.0</ele><time>2026-03-29T13:36:06.005Z</time></trkpt><trkpt lat="45.0537067" lon="8.0477417"><ele>307.0</ele><time>2026-03-29T13:36:07.009Z</time></trkpt><trkpt lat="45.0537883" lon="8.0476817"><ele>307.0</ele><time>2026-03-29T13:36:08.002Z</time></trkpt><trkpt lat="45.0538733" lon="8.0476283"><ele>307.0</ele><time>2026-03-29T13:36:09.007Z</time></trkpt><trkpt lat="45.0539633" lon="8.0475933"><ele>307.0</ele><time>2026-03-29T13:36:10.005Z</time></trkpt><trkpt lat="45.0540517" lon="8.047575"><ele>307.0</ele><time>2026-03-29T13:36:11.003Z</time></trkpt><trkpt lat="45.0541467" lon="8.0475717"><ele>308.2</ele><time>2026-03-29T13:36:12.002Z</time></trkpt><trkpt lat="45.05424" lon="8.047595"><ele>309.4</ele><time>2026-03-29T13:36:13.005Z</time></trkpt><trkpt lat="45.054335" lon="8.0476367"><ele>310.6</ele><time>2026-03-29T13:36:14.006Z</time></trkpt><trkpt lat="45.054445" lon="8.0476817"><ele>311.8</ele><time>2026-03-29T13:36:15.003Z</time></trkpt><trkpt lat="45.0545583" lon="8.0477317"><ele>313.0</ele><time>2026-03-29T13:36:16.004Z</time></trkpt><trkpt lat="45.0546767" lon="8.0477817"><ele>313.0</ele><time>2026-03-29T13:36:17.005Z</time></trkpt><trkpt lat="45.0547783" lon="8.0478283"><ele>313.0</ele><time>2026-03-29T13:36:18Z</time></trkpt><trkpt lat="45.0548767" lon="8.04787"><ele>313.0</ele><time>2026-03-29T13:36:19.002Z</time></trkpt><trkpt lat="45.0549867" lon="8.0479217"><ele>313.0</ele><time>2026-03-29T13:36:20.004Z</time></trkpt><trkpt lat="45.0550833" lon="8.0479767"><ele>313.0</ele><time>2026-03-29T13:36:21.007Z</time></trkpt><trkpt lat="45.05517" lon="8.04802"><ele>313.0</ele><time>2026-03-29T13:36:22.006Z</time></trkpt><trkpt lat="45.0552517" lon="8.048055"><ele>313.0</ele><time>2026-03-29T13:36:23.001Z</time></trkpt><trkpt lat="45.055335" lon="8.0480717"><ele>313.0</ele><time>2026-03-29T13:36:24.012Z</time></trkpt><trkpt lat="45.055415" lon="8.048075"><ele>313.0</ele><time>2026-03-29T13:36:25.005Z</time></trkpt><trkpt lat="45.0554917" lon="8.0480517"><ele>313.0</ele><time>2026-03-29T13:36:26.005Z</time></trkpt><trkpt lat="45.0555667" lon="8.0480017"><ele>313.0</ele><time>2026-03-29T13:36:27.011Z</time></trkpt><trkpt lat="45.0556317" lon="8.04786"><ele>313.0</ele><time>2026-03-29T13:36:28.005Z</time></trkpt><trkpt lat="45.0557" lon="8.04775"><ele>313.0</ele><time>2026-03-29T13:36:29.008Z</time></trkpt><trkpt lat="45.0557733" lon="8.047645"><ele>313.0</ele><time>2026-03-29T13:36:30.003Z</time></trkpt><trkpt lat="45.0558517" lon="8.0475467"><ele>313.0</ele><time>2026-03-29T13:36:31.006Z</time></trkpt><trkpt lat="45.0559317" lon="8.0474633"><ele>313.0</ele><time>2026-03-29T13:36:32.005Z</time></trkpt><trkpt lat="45.0560183" lon="8.0474133"><ele>311.66666666666663</ele><time>2026-03-29T13:36:33.007Z</time></trkpt><trkpt lat="45.0561017" lon="8.047375"><ele>310.3333333333333</ele><time>2026-03-29T13:36:34.008Z</time></trkpt><trkpt lat="45.0561767" lon="8.0473333"><ele>309.0</ele><time>2026-03-29T13:36:35.004Z</time></trkpt><trkpt lat="45.0562517" lon="8.0472867"><ele>307.6666666666667</ele><time>2026-03-29T13:36:36.003Z</time></trkpt><trkpt lat="45.0563267" lon="8.047255"><ele>306.33333333333337</ele><time>2026-03-29T13:36:37.004Z</time></trkpt><trkpt lat="45.0564067" lon="8.0472433"><ele>305.0</ele><time>2026-03-29T13:36:38.007Z</time></trkpt><trkpt lat="45.0564883" lon="8.0472367"><ele>305.0</ele><time>2026-03-29T13:36:39.004Z</time></trkpt><trkpt lat="45.0565767" lon="8.04723"><ele>305.0</ele><time>2026-03-29T13:36:40.005Z</time></trkpt><trkpt lat="45.05667" lon="8.0472117"><ele>305.0</ele><time>2026-03-29T13:36:41.003Z</time></trkpt><trkpt lat="45.05677" lon="8.0472017"><ele>305.0</ele><time>2026-03-29T13:36:42.003Z</time></trkpt><trkpt lat="45.05688" lon="8.0471867"><ele>305.0</ele><time>2026-03-29T13:36:43.004Z</time></trkpt><trkpt lat="45.057" lon="8.04716"><ele>307.5</ele><time>2026-03-29T13:36:44.004Z</time></trkpt><trkpt lat="45.05712" lon="8.0471033"><ele>310.0</ele><time>2026-03-29T13:36:45.01Z</time></trkpt><trkpt lat="45.0572417" lon="8.047035"><ele>312.5</ele><time>2026-03-29T13:36:46.004Z</time></trkpt><trkpt lat="45.0573633" lon="8.0469483"><ele>315.0</ele><time>2026-03-29T13:36:47.003Z</time></trkpt><trkpt lat="45.0574783" lon="8.0468383"><ele>315.0</ele><time>2026-03-29T13:36:48.004Z</time></trkpt><trkpt lat="45.0575883" lon="8.046705"><ele>315.0</ele><time>2026-03-29T13:36:49.002Z</time></trkpt><trkpt lat="45.0576933" lon="8.0465583"><ele>315.0</ele><time>2026-03-29T13:36:50.008Z</time></trkpt><trkpt lat="45.057795" lon="8.0463967"><ele>315.0</ele><time>2026-03-29T13:36:51.002Z</time></trkpt><trkpt lat="45.0579017" lon="8.04623"><ele>315.0</ele><time>2026-03-29T13:36:52.009Z</time></trkpt><trkpt lat="45.0580117" lon="8.0460717"><ele>315.0</ele><time>2026-03-29T13:36:53.006Z</time></trkpt><trkpt lat="45.0581417" lon="8.0459267"><ele>315.0</ele><time>2026-03-29T13:36:54.006Z</time></trkpt><trkpt lat="45.0582733" lon="8.045795"><ele>308.0</ele><time>2026-03-29T13:36:55.004Z</time></trkpt><trkpt lat="45.0584183" lon="8.0456767"><ele>301.0</ele><time>2026-03-29T13:36:55.998Z</time></trkpt><trkpt lat="45.05857" lon="8.0455667"><ele>294.0</ele><time>2026-03-29T13:36:57.001Z</time></trkpt><trkpt lat="45.05872" lon="8.0454733"><ele>294.0</ele><time>2026-03-29T13:36:58.011Z</time></trkpt><trkpt lat="45.0588667" lon="8.04539"><ele>294.0</ele><time>2026-03-29T13:36:59.003Z</time></trkpt><trkpt lat="45.05901" lon="8.0453033"><ele>294.0</ele><time>2026-03-29T13:37:00.012Z</time></trkpt><trkpt lat="45.05916" lon="8.04522"><ele>295.6666666666667</ele><time>2026-03-29T13:37:01.003Z</time></trkpt><trkpt lat="45.0593117" lon="8.0451383"><ele>297.33333333333337</ele><time>2026-03-29T13:37:02.008Z</time></trkpt><trkpt lat="45.059465" lon="8.045065"><ele>299.0</ele><time>2026-03-29T13:37:03.004Z</time></trkpt><trkpt lat="45.0596217" lon="8.0449917"><ele>298.0</ele><time>2026-03-29T13:37:04.005Z</time></trkpt><trkpt lat="45.0597767" lon="8.0449167"><ele>297.0</ele><time>2026-03-29T13:37:05.003Z</time></trkpt><trkpt lat="45.0599367" lon="8.0448383"><ele>296.0</ele><time>2026-03-29T13:37:06.003Z</time></trkpt><trkpt lat="45.0601033" lon="8.0447717"><ele>296.0</ele><time>2026-03-29T13:37:07.007Z</time></trkpt><trkpt lat="45.0602767" lon="8.0447117"><ele>296.0</ele><time>2026-03-29T13:37:08.006Z</time></trkpt><trkpt lat="45.0604583" lon="8.0446767"><ele>296.0</ele><time>2026-03-29T13:37:09.004Z</time></trkpt><trkpt lat="45.0606417" lon="8.0446567"><ele>294.0</ele><time>2026-03-29T13:37:10.008Z</time></trkpt><trkpt lat="45.060825" lon="8.04464"><ele>292.0</ele><time>2026-03-29T13:37:11.008Z</time></trkpt><trkpt lat="45.06101" lon="8.0446267"><ele>290.0</ele><time>2026-03-29T13:37:12.008Z</time></trkpt><trkpt lat="45.0611933" lon="8.04462"><ele>290.0</ele><time>2026-03-29T13:37:13.011Z</time></trkpt><trkpt lat="45.0613733" lon="8.0446117"><ele>290.0</ele><time>2026-03-29T13:37:14.008Z</time></trkpt><trkpt lat="45.06155" lon="8.0445967"><ele>290.0</ele><time>2026-03-29T13:37:15.005Z</time></trkpt><trkpt lat="45.0617217" lon="8.04458"><ele>292.0</ele><time>2026-03-29T13:37:16.01Z</time></trkpt><trkpt lat="45.0618883" lon="8.0445783"><ele>294.0</ele><time>2026-03-29T13:37:17.006Z</time></trkpt><trkpt lat="45.0620483" lon="8.0445933"><ele>296.0</ele><time>2026-03-29T13:37:18.007Z</time></trkpt><trkpt lat="45.0622067" lon="8.044605"><ele>296.0</ele><time>2026-03-29T13:37:19.011Z</time></trkpt><trkpt lat="45.062365" lon="8.0446083"><ele>296.0</ele><time>2026-03-29T13:37:20.005Z</time></trkpt><trkpt lat="45.062525" lon="8.0446033"><ele>296.0</ele><time>2026-03-29T13:37:21.007Z</time></trkpt><trkpt lat="45.0626833" lon="8.0445833"><ele>297.6666666666667</ele><time>2026-03-29T13:37:22.003Z</time></trkpt><trkpt lat="45.06284" lon="8.04455"><ele>299.3333333333333</ele><time>2026-03-29T13:37:23.009Z</time></trkpt><trkpt lat="45.062995" lon="8.04449"><ele>301.0</ele><time>2026-03-29T13:37:24.012Z</time></trkpt><trkpt lat="45.06315" lon="8.0444067"><ele>301.0</ele><time>2026-03-29T13:37:25.009Z</time></trkpt><trkpt lat="45.063305" lon="8.0443133"><ele>301.0</ele><time>2026-03-29T13:37:26.013Z</time></trkpt><trkpt lat="45.063465" lon="8.044235"><ele>301.0</ele><time>2026-03-29T13:37:27.007Z</time></trkpt><trkpt lat="45.0636317" lon="8.0441883"><ele>301.0</ele><time>2026-03-29T13:37:28.008Z</time></trkpt><trkpt lat="45.063805" lon="8.0441683"><ele>301.0</ele><time>2026-03-29T13:37:29.008Z</time></trkpt><trkpt lat="45.0639933" lon="8.044145"><ele>301.0</ele><time>2026-03-29T13:37:30.009Z</time></trkpt><trkpt lat="45.0641917" lon="8.0441083"><ele>298.0</ele><time>2026-03-29T13:37:31.007Z</time></trkpt><trkpt lat="45.064405" lon="8.0440567"><ele>295.0</ele><time>2026-03-29T13:37:32.008Z</time></trkpt><trkpt lat="45.064635" lon="8.04399"><ele>295.0</ele><time>2026-03-29T13:37:33.011Z</time></trkpt><trkpt lat="45.064875" lon="8.0439233"><ele>295.0</ele><time>2026-03-29T13:37:34.005Z</time></trkpt><trkpt lat="45.065105" lon="8.04386"><ele>297.66666666666663</ele><time>2026-03-29T13:37:35.004Z</time></trkpt><trkpt lat="45.065315" lon="8.0437933"><ele>300.3333333333333</ele><time>2026-03-29T13:37:36.003Z</time></trkpt><trkpt lat="45.065495" lon="8.04371"><ele>303.0</ele><time>2026-03-29T13:37:37.006Z</time></trkpt><trkpt lat="45.0656567" lon="8.0436167"><ele>306.0</ele><time>2026-03-29T13:37:38.009Z</time></trkpt><trkpt lat="45.0657983" lon="8.0435167"><ele>309.0</ele><time>2026-03-29T13:37:39.007Z</time></trkpt><trkpt lat="45.0659267" lon="8.0434133"><ele>312.0</ele><time>2026-03-29T13:37:40.007Z</time></trkpt><trkpt lat="45.0660483" lon="8.04332"><ele>315.0</ele><time>2026-03-29T13:37:41.004Z</time></trkpt><trkpt lat="45.0661633" lon="8.043235"><ele>315.0</ele><time>2026-03-29T13:37:42.005Z</time></trkpt><trkpt lat="45.0662733" lon="8.043165"><ele>315.0</ele><time>2026-03-29T13:37:43.008Z</time></trkpt><trkpt lat="45.0663733" lon="8.04311"><ele>315.0</ele><time>2026-03-29T13:37:44.005Z</time></trkpt><trkpt lat="45.066475" lon="8.04307"><ele>315.0</ele><time>2026-03-29T13:37:45.006Z</time></trkpt><trkpt lat="45.0665783" lon="8.0430433"><ele>315.0</ele><time>2026-03-29T13:37:46.012Z</time></trkpt><trkpt lat="45.0666817" lon="8.0430317"><ele>316.4</ele><time>2026-03-29T13:37:47.006Z</time></trkpt><trkpt lat="45.0667817" lon="8.0430317"><ele>317.8</ele><time>2026-03-29T13:37:48.006Z</time></trkpt><trkpt lat="45.0668867" lon="8.0430317"><ele>319.20000000000005</ele><time>2026-03-29T13:37:49.004Z</time></trkpt><trkpt lat="45.0669983" lon="8.043035"><ele>320.6</ele><time>2026-03-29T13:37:50.002Z</time></trkpt><trkpt lat="45.0671167" lon="8.0430467"><ele>322.0</ele><time>2026-03-29T13:37:51.01Z</time></trkpt><trkpt lat="45.067245" lon="8.0430717"><ele>322.0</ele><time>2026-03-29T13:37:52.004Z</time></trkpt><trkpt lat="45.0673767" lon="8.0431133"><ele>322.0</ele><time>2026-03-29T13:37:53.007Z</time></trkpt><trkpt lat="45.06751" lon="8.043165"><ele>322.0</ele><time>2026-03-29T13:37:54.002Z</time></trkpt><trkpt lat="45.067645" lon="8.04322"><ele>322.0</ele><time>2026-03-29T13:37:55.005Z</time></trkpt><trkpt lat="45.06778" lon="8.0432767"><ele>322.25</ele><time>2026-03-29T13:37:56.004Z</time></trkpt><trkpt lat="45.067915" lon="8.0433383"><ele>322.5</ele><time>2026-03-29T13:37:57.003Z</time></trkpt><trkpt lat="45.0680483" lon="8.0434033"><ele>322.75</ele><time>2026-03-29T13:37:58.005Z</time></trkpt><trkpt lat="45.06818" lon="8.0434733"><ele>323.0</ele><time>2026-03-29T13:37:59.003Z</time></trkpt><trkpt lat="45.068305" lon="8.043555"><ele>323.0</ele><time>2026-03-29T13:38:00.011Z</time></trkpt><trkpt lat="45.06843" lon="8.0436367"><ele>323.0</ele><time>2026-03-29T13:38:01.003Z</time></trkpt><trkpt lat="45.068555" lon="8.043715"><ele>323.0</ele><time>2026-03-29T13:38:02.004Z</time></trkpt><trkpt lat="45.0686767" lon="8.04379"><ele>323.0</ele><time>2026-03-29T13:38:03.005Z</time></trkpt><trkpt lat="45.0687917" lon="8.04386"><ele>323.0</ele><time>2026-03-29T13:38:04.008Z</time></trkpt><trkpt lat="45.0689067" lon="8.043925"><ele>323.0</ele><time>2026-03-29T13:38:05.006Z</time></trkpt><trkpt lat="45.069025" lon="8.0439883"><ele>323.0</ele><time>2026-03-29T13:38:06.006Z</time></trkpt><trkpt lat="45.069145" lon="8.0440533"><ele>323.0</ele><time>2026-03-29T13:38:07.007Z</time></trkpt><trkpt lat="45.06926" lon="8.044115"><ele>325.4</ele><time>2026-03-29T13:38:08.011Z</time></trkpt><trkpt lat="45.069365" lon="8.04417"><ele>327.79999999999995</ele><time>2026-03-29T13:38:09.004Z</time></trkpt><trkpt lat="45.06947" lon="8.04421"><ele>330.2</ele><time>2026-03-29T13:38:10.007Z</time></trkpt><trkpt lat="45.069575" lon="8.0442283"><ele>332.6</ele><time>2026-03-29T13:38:11.004Z</time></trkpt><trkpt lat="45.0696833" lon="8.0442333"><ele>335.0</ele><time>2026-03-29T13:38:12.006Z</time></trkpt><trkpt lat="45.0697967" lon="8.0442267"><ele>335.0</ele><time>2026-03-29T13:38:13.005Z</time></trkpt><trkpt lat="45.06991" lon="8.04423"><ele>335.0</ele><time>2026-03-29T13:38:14.004Z</time></trkpt><trkpt lat="45.0700233" lon="8.0442417"><ele>335.0</ele><time>2026-03-29T13:38:15.008Z</time></trkpt><trkpt lat="45.0701417" lon="8.0442633"><ele>335.0</ele><time>2026-03-29T13:38:16.007Z</time></trkpt><trkpt lat="45.0702517" lon="8.044305"><ele>336.8</ele><time>2026-03-29T13:38:17.009Z</time></trkpt><trkpt lat="45.070365" lon="8.04436"><ele>338.6</ele><time>2026-03-29T13:38:18.008Z</time></trkpt><trkpt lat="45.0704683" lon="8.044425"><ele>340.4</ele><time>2026-03-29T13:38:19.01Z</time></trkpt><trkpt lat="45.0705633" lon="8.0444967"><ele>342.2</ele><time>2026-03-29T13:38:20.01Z</time></trkpt><trkpt lat="45.070655" lon="8.044565"><ele>344.0</ele><time>2026-03-29T13:38:21.007Z</time></trkpt><trkpt lat="45.070755" lon="8.0446283"><ele>345.5</ele><time>2026-03-29T13:38:22.007Z</time></trkpt><trkpt lat="45.070865" lon="8.0446783"><ele>347.0</ele><time>2026-03-29T13:38:23.005Z</time></trkpt><trkpt lat="45.0709817" lon="8.04472"><ele>348.5</ele><time>2026-03-29T13:38:24.008Z</time></trkpt><trkpt lat="45.0711067" lon="8.04474"><ele>350.0</ele><time>2026-03-29T13:38:25.011Z</time></trkpt><trkpt lat="45.0712383" lon="8.0447417"><ele>350.0</ele><time>2026-03-29T13:38:26.008Z</time></trkpt><trkpt lat="45.071365" lon="8.0447383"><ele>350.0</ele><time>2026-03-29T13:38:27.009Z</time></trkpt><trkpt lat="45.0714933" lon="8.044725"><ele>350.0</ele><time>2026-03-29T13:38:28.008Z</time></trkpt><trkpt lat="45.0716133" lon="8.0447133"><ele>350.0</ele><time>2026-03-29T13:38:29.006Z</time></trkpt><trkpt lat="45.0717317" lon="8.0446983"><ele>350.0</ele><time>2026-03-29T13:38:30.012Z</time></trkpt><trkpt lat="45.071845" lon="8.0446817"><ele>350.0</ele><time>2026-03-29T13:38:31.008Z</time></trkpt><trkpt lat="45.07195" lon="8.0446617"><ele>350.0</ele><time>2026-03-29T13:38:32.008Z</time></trkpt><trkpt lat="45.07205" lon="8.04463"><ele>350.0</ele><time>2026-03-29T13:38:33.006Z</time></trkpt><trkpt lat="45.0721683" lon="8.04457"><ele>350.0</ele><time>2026-03-29T13:38:34.005Z</time></trkpt><trkpt lat="45.072265" lon="8.0444733"><ele>350.0</ele><time>2026-03-29T13:38:35.007Z</time></trkpt><trkpt lat="45.07236" lon="8.044345"><ele>350.0</ele><time>2026-03-29T13:38:36.008Z</time></trkpt><trkpt lat="45.072455" lon="8.044215"><ele>350.0</ele><time>2026-03-29T13:38:37.005Z</time></trkpt><trkpt lat="45.072545" lon="8.0440733"><ele>350.0</ele><time>2026-03-29T13:38:38.007Z</time></trkpt><trkpt lat="45.0726333" lon="8.0439383"><ele>345.5</ele><time>2026-03-29T13:38:39.007Z</time></trkpt><trkpt lat="45.0727267" lon="8.0438217"><ele>341.0</ele><time>2026-03-29T13:38:40.007Z</time></trkpt><trkpt lat="45.07284" lon="8.0437317"><ele>336.5</ele><time>2026-03-29T13:38:41.007Z</time></trkpt><trkpt lat="45.07297" lon="8.0436633"><ele>332.0</ele><time>2026-03-29T13:38:42.006Z</time></trkpt><trkpt lat="45.0731083" lon="8.0436183"><ele>332.0</ele><time>2026-03-29T13:38:43.007Z</time></trkpt><trkpt lat="45.07326" lon="8.0435933"><ele>332.0</ele><time>2026-03-29T13:38:44.006Z</time></trkpt><trkpt lat="45.07342" lon="8.0435917"><ele>332.0</ele><time>2026-03-29T13:38:45.015Z</time></trkpt><trkpt lat="45.0735767" lon="8.0435967"><ele>329.0</ele><time>2026-03-29T13:38:46.011Z</time></trkpt><trkpt lat="45.07373" lon="8.04361"><ele>326.0</ele><time>2026-03-29T13:38:47.006Z</time></trkpt><trkpt lat="45.0738883" lon="8.0436233"><ele>323.0</ele><time>2026-03-29T13:38:48.01Z</time></trkpt><trkpt lat="45.07405" lon="8.04363"><ele>323.0</ele><time>2026-03-29T13:38:49.011Z</time></trkpt><trkpt lat="45.0742067" lon="8.043635"><ele>323.0</ele><time>2026-03-29T13:38:50.01Z</time></trkpt><trkpt lat="45.074365" lon="8.0436433"><ele>323.0</ele><time>2026-03-29T13:38:51.003Z</time></trkpt><trkpt lat="45.074515" lon="8.04366"><ele>323.0</ele><time>2026-03-29T13:38:52.008Z</time></trkpt><trkpt lat="45.0746717" lon="8.043675"><ele>323.0</ele><time>2026-03-29T13:38:53.006Z</time></trkpt><trkpt lat="45.0748317" lon="8.043695"><ele>323.0</ele><time>2026-03-29T13:38:54.011Z</time></trkpt><trkpt lat="45.0749917" lon="8.0437283"><ele>323.0</ele><time>2026-03-29T13:38:55.008Z</time></trkpt><trkpt lat="45.0751517" lon="8.0437633"><ele>323.0</ele><time>2026-03-29T13:38:56.008Z</time></trkpt><trkpt lat="45.0753067" lon="8.0437967"><ele>323.0</ele><time>2026-03-29T13:38:57.011Z</time></trkpt><trkpt lat="45.0754617" lon="8.04383"><ele>323.0</ele><time>2026-03-29T13:38:58.001Z</time></trkpt><trkpt lat="45.0756167" lon="8.0438567"><ele>323.0</ele><time>2026-03-29T13:38:59.01Z</time></trkpt><trkpt lat="45.0757733" lon="8.0438733"><ele>323.0</ele><time>2026-03-29T13:39:00.007Z</time></trkpt><trkpt lat="45.0759333" lon="8.0438817"><ele>321.0</ele><time>2026-03-29T13:39:01.003Z</time></trkpt><trkpt lat="45.0760917" lon="8.0438933"><ele>319.0</ele><time>2026-03-29T13:39:02.001Z</time></trkpt><trkpt lat="45.0762467" lon="8.043905"><ele>317.0</ele><time>2026-03-29T13:39:03.005Z</time></trkpt><trkpt lat="45.0763883" lon="8.0439217"><ele>317.0</ele><time>2026-03-29T13:39:04.006Z</time></trkpt><trkpt lat="45.076525" lon="8.0439417"><ele>317.0</ele><time>2026-03-29T13:39:05.005Z</time></trkpt><trkpt lat="45.0766617" lon="8.043965"><ele>317.0</ele><time>2026-03-29T13:39:06.006Z</time></trkpt><trkpt lat="45.0768" lon="8.0439917"><ele>317.0</ele><time>2026-03-29T13:39:07.006Z</time></trkpt><trkpt lat="45.07693" lon="8.0440267"><ele>317.25</ele><time>2026-03-29T13:39:08.004Z</time></trkpt><trkpt lat="45.0770533" lon="8.0440633"><ele>317.5</ele><time>2026-03-29T13:39:09.005Z</time></trkpt><trkpt lat="45.0771683" lon="8.0440967"><ele>317.75</ele><time>2026-03-29T13:39:10.01Z</time></trkpt><trkpt lat="45.0772817" lon="8.0441217"><ele>318.0</ele><time>2026-03-29T13:39:11.007Z</time></trkpt><trkpt lat="45.0773967" lon="8.04414"><ele>321.5</ele><time>2026-03-29T13:39:12.009Z</time></trkpt><trkpt lat="45.077515" lon="8.04416"><ele>325.0</ele><time>2026-03-29T13:39:13.015Z</time></trkpt><trkpt lat="45.0776483" lon="8.0441817"><ele>328.5</ele><time>2026-03-29T13:39:14.007Z</time></trkpt><trkpt lat="45.0777983" lon="8.0442017"><ele>332.0</ele><time>2026-03-29T13:39:15.005Z</time></trkpt><trkpt lat="45.0779583" lon="8.0442183"><ele>332.0</ele><time>2026-03-29T13:39:16.008Z</time></trkpt><trkpt lat="45.0781083" lon="8.0442233"><ele>332.0</ele><time>2026-03-29T13:39:17.007Z</time></trkpt><trkpt lat="45.0782467" lon="8.0442067"><ele>332.0</ele><time>2026-03-29T13:39:18.005Z</time></trkpt><trkpt lat="45.0783767" lon="8.0441733"><ele>332.0</ele><time>2026-03-29T13:39:19.002Z</time></trkpt><trkpt lat="45.0785083" lon="8.0441283"><ele>330.5</ele><time>2026-03-29T13:39:20.009Z</time></trkpt><trkpt lat="45.0786483" lon="8.0440733"><ele>329.0</ele><time>2026-03-29T13:39:21.007Z</time></trkpt><trkpt lat="45.07879" lon="8.0440167"><ele>327.5</ele><time>2026-03-29T13:39:22.008Z</time></trkpt><trkpt lat="45.0789367" lon="8.0439583"><ele>326.0</ele><time>2026-03-29T13:39:23.003Z</time></trkpt><trkpt lat="45.07908" lon="8.0439017"><ele>327.25</ele><time>2026-03-29T13:39:24.005Z</time></trkpt><trkpt lat="45.079225" lon="8.0438433"><ele>328.5</ele><time>2026-03-29T13:39:25.006Z</time></trkpt><trkpt lat="45.0793683" lon="8.043785"><ele>329.75</ele><time>2026-03-29T13:39:26.008Z</time></trkpt><trkpt lat="45.07951" lon="8.0437267"><ele>331.0</ele><time>2026-03-29T13:39:27.006Z</time></trkpt><trkpt lat="45.0796467" lon="8.043655"><ele>331.0</ele><time>2026-03-29T13:39:28.01Z</time></trkpt><trkpt lat="45.07978" lon="8.0435933"><ele>331.0</ele><time>2026-03-29T13:39:29.001Z</time></trkpt><trkpt lat="45.079915" lon="8.0435283"><ele>331.0</ele><time>2026-03-29T13:39:30.004Z</time></trkpt><trkpt lat="45.0800467" lon="8.043445"><ele>331.0</ele><time>2026-03-29T13:39:31.005Z</time></trkpt><trkpt lat="45.0801783" lon="8.0433483"><ele>331.0</ele><time>2026-03-29T13:39:32.003Z</time></trkpt><trkpt lat="45.08031" lon="8.043225"><ele>331.0</ele><time>2026-03-29T13:39:33.01Z</time></trkpt><trkpt lat="45.08044" lon="8.0430717"><ele>331.0</ele><time>2026-03-29T13:39:34.002Z</time></trkpt><trkpt lat="45.080565" lon="8.042915"><ele>331.0</ele><time>2026-03-29T13:39:35.002Z</time></trkpt><trkpt lat="45.0806817" lon="8.0427517"><ele>331.0</ele><time>2026-03-29T13:39:36.006Z</time></trkpt><trkpt lat="45.0807917" lon="8.0426133"><ele>331.0</ele><time>2026-03-29T13:39:37.007Z</time></trkpt><trkpt lat="45.0808967" lon="8.042505"><ele>331.0</ele><time>2026-03-29T13:39:38.004Z</time></trkpt><trkpt lat="45.0809983" lon="8.0424283"><ele>334.25</ele><time>2026-03-29T13:39:39.004Z</time></trkpt><trkpt lat="45.0811" lon="8.042365"><ele>337.5</ele><time>2026-03-29T13:39:40.006Z</time></trkpt><trkpt lat="45.081215" lon="8.0423033"><ele>340.75</ele><time>2026-03-29T13:39:41.003Z</time></trkpt><trkpt lat="45.0813333" lon="8.0422467"><ele>344.0</ele><time>2026-03-29T13:39:42.008Z</time></trkpt><trkpt lat="45.0814433" lon="8.0422"><ele>344.0</ele><time>2026-03-29T13:39:43.004Z</time></trkpt><trkpt lat="45.0815583" lon="8.0421617"><ele>344.0</ele><time>2026-03-29T13:39:44.006Z</time></trkpt><trkpt lat="45.081675" lon="8.042125"><ele>344.0</ele><time>2026-03-29T13:39:45.006Z</time></trkpt><trkpt lat="45.0817933" lon="8.0420783"><ele>344.0</ele><time>2026-03-29T13:39:46.005Z</time></trkpt><trkpt lat="45.0819083" lon="8.042015"><ele>349.0</ele><time>2026-03-29T13:39:47.002Z</time></trkpt><trkpt lat="45.0820267" lon="8.0419367"><ele>354.0</ele><time>2026-03-29T13:39:48.003Z</time></trkpt><trkpt lat="45.082145" lon="8.0418433"><ele>359.0</ele><time>2026-03-29T13:39:49.006Z</time></trkpt><trkpt lat="45.0822567" lon="8.0417533"><ele>364.0</ele><time>2026-03-29T13:39:50.006Z</time></trkpt><trkpt lat="45.0823667" lon="8.0416617"><ele>365.25</ele><time>2026-03-29T13:39:51.004Z</time></trkpt><trkpt lat="45.0824733" lon="8.0415767"><ele>366.5</ele><time>2026-03-29T13:39:52.004Z</time></trkpt><trkpt lat="45.082575" lon="8.0414967"><ele>367.75</ele><time>2026-03-29T13:39:53.003Z</time></trkpt><trkpt lat="45.08267" lon="8.0414083"><ele>369.0</ele><time>2026-03-29T13:39:54.008Z</time></trkpt><trkpt lat="45.08277" lon="8.0413233"><ele>369.0</ele><time>2026-03-29T13:39:55.007Z</time></trkpt><trkpt lat="45.0828633" lon="8.0412417"><ele>369.0</ele><time>2026-03-29T13:39:56.003Z</time></trkpt><trkpt lat="45.0829617" lon="8.0411617"><ele>369.0</ele><time>2026-03-29T13:39:57.004Z</time></trkpt><trkpt lat="45.083065" lon="8.0410867"><ele>369.0</ele><time>2026-03-29T13:39:58.003Z</time></trkpt><trkpt lat="45.083155" lon="8.0410117"><ele>369.0</ele><time>2026-03-29T13:39:59.002Z</time></trkpt><trkpt lat="45.0832433" lon="8.040955"><ele>373.1666666666667</ele><time>2026-03-29T13:40:00.008Z</time></trkpt><trkpt lat="45.0833283" lon="8.0408983"><ele>377.33333333333337</ele><time>2026-03-29T13:40:01.007Z</time></trkpt><trkpt lat="45.0834067" lon="8.0408517"><ele>381.5</ele><time>2026-03-29T13:40:02.004Z</time></trkpt><trkpt lat="45.08349" lon="8.0408133"><ele>385.6666666666667</ele><time>2026-03-29T13:40:03.008Z</time></trkpt><trkpt lat="45.08356" lon="8.0407717"><ele>389.83333333333337</ele><time>2026-03-29T13:40:04.004Z</time></trkpt><trkpt lat="45.0836283" lon="8.040725"><ele>394.0</ele><time>2026-03-29T13:40:05.006Z</time></trkpt><trkpt lat="45.083695" lon="8.040675"><ele>394.0</ele><time>2026-03-29T13:40:06.003Z</time></trkpt><trkpt lat="45.08376" lon="8.0406267"><ele>394.0</ele><time>2026-03-29T13:40:07.006Z</time></trkpt><trkpt lat="45.083835" lon="8.0405783"><ele>394.0</ele><time>2026-03-29T13:40:08.006Z</time></trkpt><trkpt lat="45.083935" lon="8.040485"><ele>394.0</ele><time>2026-03-29T13:40:10.007Z</time></trkpt><trkpt lat="45.0840483" lon="8.040435"><ele>394.0</ele><time>2026-03-29T13:40:12.008Z</time></trkpt><trkpt lat="45.0841133" lon="8.0404283"><ele>398.33333333333337</ele><time>2026-03-29T13:40:13.01Z</time></trkpt><trkpt lat="45.0842533" lon="8.0404517"><ele>402.6666666666667</ele><time>2026-03-29T13:40:15.012Z</time></trkpt><trkpt lat="45.0843167" lon="8.040475"><ele>407.0</ele><time>2026-03-29T13:40:16.01Z</time></trkpt><trkpt lat="45.0843883" lon="8.0404817"><ele>411.33333333333337</ele><time>2026-03-29T13:40:17.003Z</time></trkpt><trkpt lat="45.0844617" lon="8.0404917"><ele>415.6666666666667</ele><time>2026-03-29T13:40:18.009Z</time></trkpt><trkpt lat="45.0845367" lon="8.0405117"><ele>420.0</ele><time>2026-03-29T13:40:19.011Z</time></trkpt><trkpt lat="45.08461" lon="8.04052"><ele>420.0</ele><time>2026-03-29T13:40:20.004Z</time></trkpt><trkpt lat="45.0846717" lon="8.0405483"><ele>420.0</ele><time>2026-03-29T13:40:21.006Z</time></trkpt><trkpt lat="45.0847417" lon="8.0405217"><ele>420.0</ele><time>2026-03-29T13:40:22.012Z</time></trkpt><trkpt lat="45.0848617" lon="8.040475"><ele>420.0</ele><time>2026-03-29T13:40:24.004Z</time></trkpt><trkpt lat="45.0849267" lon="8.0404217"><ele>420.0</ele><time>2026-03-29T13:40:25Z</time></trkpt><trkpt lat="45.0849867" lon="8.0403767"><ele>420.0</ele><time>2026-03-29T13:40:26.004Z</time></trkpt><trkpt lat="45.085045" lon="8.04033"><ele>421.6</ele><time>2026-03-29T13:40:27.002Z</time></trkpt><trkpt lat="45.08515" lon="8.0402483"><ele>423.2</ele><time>2026-03-29T13:40:29.005Z</time></trkpt><trkpt lat="45.08521" lon="8.0402133"><ele>424.79999999999995</ele><time>2026-03-29T13:40:30.004Z</time></trkpt><trkpt lat="45.0853167" lon="8.0401517"><ele>426.4</ele><time>2026-03-29T13:40:32.006Z</time></trkpt><trkpt lat="45.0853833" lon="8.040115"><ele>428.0</ele><time>2026-03-29T13:40:34.002Z</time></trkpt><trkpt lat="45.08547" lon="8.0401533"><ele>427.99999999999994</ele><time>2026-03-29T13:40:37.003Z</time></trkpt><trkpt lat="45.0855017" lon="8.0402583"><ele>428.0</ele><time>2026-03-29T13:40:40.006Z</time></trkpt><trkpt lat="45.085515" lon="8.0403583"><ele>428.0</ele><time>2026-03-29T13:40:42.007Z</time></trkpt><trkpt lat="45.08558" lon="8.0405"><ele>428.0</ele><time>2026-03-29T13:40:44.005Z</time></trkpt><trkpt lat="45.0856267" lon="8.0405783"><ele>427.99999999999994</ele><time>2026-03-29T13:40:45.008Z</time></trkpt><trkpt lat="45.085695" lon="8.0406467"><ele>428.0</ele><time>2026-03-29T13:40:46.007Z</time></trkpt><trkpt lat="45.0857583" lon="8.0407333"><ele>427.99999999999994</ele><time>2026-03-29T13:40:47.005Z</time></trkpt><trkpt lat="45.085825" lon="8.040825"><ele>428.0</ele><time>2026-03-29T13:40:48.004Z</time></trkpt><trkpt lat="45.0858833" lon="8.040925"><ele>428.0</ele><time>2026-03-29T13:40:49.004Z</time></trkpt><trkpt lat="45.0859333" lon="8.041025"><ele>428.0</ele><time>2026-03-29T13:40:50.004Z</time></trkpt><trkpt lat="45.0859733" lon="8.0411283"><ele>427.99999999999994</ele><time>2026-03-29T13:40:51.005Z</time></trkpt><trkpt lat="45.0860083" lon="8.04123"><ele>428.0</ele><time>2026-03-29T13:40:52.005Z</time></trkpt><trkpt lat="45.08604" lon="8.04134"><ele>427.99999999999994</ele><time>2026-03-29T13:40:53.006Z</time></trkpt><trkpt lat="45.086075" lon="8.0414417"><ele>428.0</ele><time>2026-03-29T13:40:54Z</time></trkpt><trkpt lat="45.0861183" lon="8.04152"><ele>428.0</ele><time>2026-03-29T13:40:55.007Z</time></trkpt><trkpt lat="45.0861467" lon="8.0416133"><ele>428.0</ele><time>2026-03-29T13:40:56.004Z</time></trkpt><trkpt lat="45.086165" lon="8.0417217"><ele>427.99999999999994</ele><time>2026-03-29T13:40:57.007Z</time></trkpt><trkpt lat="45.086175" lon="8.04183"><ele>428.0</ele><time>2026-03-29T13:40:58.004Z</time></trkpt><trkpt lat="45.086175" lon="8.0419517"><ele>425.79999999999995</ele><time>2026-03-29T13:40:59.007Z</time></trkpt><trkpt lat="45.0861717" lon="8.0420883"><ele>423.59999999999997</ele><time>2026-03-29T13:41:00.01Z</time></trkpt><trkpt lat="45.08615" lon="8.0422233"><ele>421.4</ele><time>2026-03-29T13:41:01.011Z</time></trkpt><trkpt lat="45.08614" lon="8.04235"><ele>419.20000000000005</ele><time>2026-03-29T13:41:02.007Z</time></trkpt><trkpt lat="45.0861167" lon="8.0424783"><ele>417.0</ele><time>2026-03-29T13:41:03.004Z</time></trkpt><trkpt lat="45.086085" lon="8.0426083"><ele>416.1666666666667</ele><time>2026-03-29T13:41:04.003Z</time></trkpt><trkpt lat="45.086045" lon="8.042735"><ele>415.33333333333337</ele><time>2026-03-29T13:41:05.005Z</time></trkpt><trkpt lat="45.08602" lon="8.0428517"><ele>414.5</ele><time>2026-03-29T13:41:06.003Z</time></trkpt><trkpt lat="45.0859733" lon="8.0429617"><ele>413.6666666666667</ele><time>2026-03-29T13:41:07.001Z</time></trkpt><trkpt lat="45.085935" lon="8.043065"><ele>412.83333333333337</ele><time>2026-03-29T13:41:08.009Z</time></trkpt><trkpt lat="45.0858883" lon="8.0431567"><ele>412.0</ele><time>2026-03-29T13:41:09.007Z</time></trkpt><trkpt lat="45.0858383" lon="8.0432467"><ele>412.00000000000006</ele><time>2026-03-29T13:41:10.008Z</time></trkpt><trkpt lat="45.0857967" lon="8.04333"><ele>412.0</ele><time>2026-03-29T13:41:11.006Z</time></trkpt><trkpt lat="45.0857583" lon="8.0434017"><ele>412.0</ele><time>2026-03-29T13:41:12.006Z</time></trkpt><trkpt lat="45.0856917" lon="8.043515"><ele>412.0</ele><time>2026-03-29T13:41:14.013Z</time></trkpt><trkpt lat="45.0856117" lon="8.0436167"><ele>412.00000000000006</ele><time>2026-03-29T13:41:16.007Z</time></trkpt><trkpt lat="45.085565" lon="8.0436883"><ele>412.0</ele><time>2026-03-29T13:41:17.006Z</time></trkpt><trkpt lat="45.0855317" lon="8.0437817"><ele>409.20000000000005</ele><time>2026-03-29T13:41:18.007Z</time></trkpt><trkpt lat="45.085515" lon="8.0438933"><ele>406.4</ele><time>2026-03-29T13:41:19.008Z</time></trkpt><trkpt lat="45.0854967" lon="8.0440017"><ele>403.6</ele><time>2026-03-29T13:41:20.007Z</time></trkpt><trkpt lat="45.08543" lon="8.0440867"><ele>400.79999999999995</ele><time>2026-03-29T13:41:21.004Z</time></trkpt><trkpt lat="45.0853583" lon="8.0441783"><ele>398.0</ele><time>2026-03-29T13:41:22.011Z</time></trkpt><trkpt lat="45.0852433" lon="8.0442517"><ele>398.0</ele><time>2026-03-29T13:41:23.007Z</time></trkpt><trkpt lat="45.0851517" lon="8.0443283"><ele>398.0</ele><time>2026-03-29T13:41:24.006Z</time></trkpt><trkpt lat="45.0850667" lon="8.04441"><ele>398.0</ele><time>2026-03-29T13:41:25.005Z</time></trkpt><trkpt lat="45.0849917" lon="8.0445033"><ele>398.0</ele><time>2026-03-29T13:41:26.008Z</time></trkpt><trkpt lat="45.0849417" lon="8.044615"><ele>398.0</ele><time>2026-03-29T13:41:27.01Z</time></trkpt><trkpt lat="45.0849133" lon="8.04474"><ele>394.59999999999997</ele><time>2026-03-29T13:41:28.01Z</time></trkpt><trkpt lat="45.0848867" lon="8.0448683"><ele>391.2</ele><time>2026-03-29T13:41:29.003Z</time></trkpt><trkpt lat="45.08487" lon="8.0450117"><ele>387.8</ele><time>2026-03-29T13:41:30.01Z</time></trkpt><trkpt lat="45.084845" lon="8.04516"><ele>384.4</ele><time>2026-03-29T13:41:31.012Z</time></trkpt><trkpt lat="45.0848233" lon="8.045315"><ele>381.0</ele><time>2026-03-29T13:41:32.011Z</time></trkpt><trkpt lat="45.0848033" lon="8.0454783"><ele>381.0</ele><time>2026-03-29T13:41:33.008Z</time></trkpt><trkpt lat="45.0847867" lon="8.0456467"><ele>381.0</ele><time>2026-03-29T13:41:34.005Z</time></trkpt><trkpt lat="45.08477" lon="8.0458117"><ele>381.0</ele><time>2026-03-29T13:41:35.005Z</time></trkpt><trkpt lat="45.0847533" lon="8.0459717"><ele>381.0</ele><time>2026-03-29T13:41:36.006Z</time></trkpt><trkpt lat="45.0847383" lon="8.046135"><ele>381.25</ele><time>2026-03-29T13:41:37.006Z</time></trkpt><trkpt lat="45.0847183" lon="8.0462983"><ele>381.5</ele><time>2026-03-29T13:41:38.005Z</time></trkpt><trkpt lat="45.0846933" lon="8.0464667"><ele>381.75</ele><time>2026-03-29T13:41:39.009Z</time></trkpt><trkpt lat="45.0846683" lon="8.0466383"><ele>382.0</ele><time>2026-03-29T13:41:40.006Z</time></trkpt><trkpt lat="45.0846467" lon="8.04681"><ele>382.0</ele><time>2026-03-29T13:41:41.005Z</time></trkpt><trkpt lat="45.0846317" lon="8.0469783"><ele>382.0</ele><time>2026-03-29T13:41:42.003Z</time></trkpt><trkpt lat="45.0846233" lon="8.0471483"><ele>382.0</ele><time>2026-03-29T13:41:43.003Z</time></trkpt><trkpt lat="45.0846183" lon="8.0473167"><ele>382.0</ele><time>2026-03-29T13:41:44.011Z</time></trkpt><trkpt lat="45.0846167" lon="8.04748"><ele>382.5</ele><time>2026-03-29T13:41:45.004Z</time></trkpt><trkpt lat="45.0846283" lon="8.0476433"><ele>383.0</ele><time>2026-03-29T13:41:46.004Z</time></trkpt><trkpt lat="45.0846483" lon="8.0478017"><ele>383.5</ele><time>2026-03-29T13:41:47.003Z</time></trkpt><trkpt lat="45.084675" lon="8.04796"><ele>384.0</ele><time>2026-03-29T13:41:48.006Z</time></trkpt><trkpt lat="45.084705" lon="8.04812"><ele>384.0</ele><time>2026-03-29T13:41:49.006Z</time></trkpt><trkpt lat="45.0847417" lon="8.0482767"><ele>384.0</ele><time>2026-03-29T13:41:50.006Z</time></trkpt><trkpt lat="45.0847833" lon="8.0484367"><ele>384.0</ele><time>2026-03-29T13:41:51.005Z</time></trkpt><trkpt lat="45.0848317" lon="8.0485933"><ele>384.0</ele><time>2026-03-29T13:41:52.009Z</time></trkpt><trkpt lat="45.0848817" lon="8.0487467"><ele>384.0</ele><time>2026-03-29T13:41:53.004Z</time></trkpt><trkpt lat="45.0849383" lon="8.048885"><ele>384.0</ele><time>2026-03-29T13:41:54.002Z</time></trkpt><trkpt lat="45.0849867" lon="8.0490033"><ele>384.0</ele><time>2026-03-29T13:41:55.002Z</time></trkpt><trkpt lat="45.0850167" lon="8.049105"><ele>384.0</ele><time>2026-03-29T13:41:56.004Z</time></trkpt><trkpt lat="45.085035" lon="8.0492017"><ele>384.0</ele><time>2026-03-29T13:41:57.006Z</time></trkpt><trkpt lat="45.0850167" lon="8.0493467"><ele>381.0</ele><time>2026-03-29T13:41:59.005Z</time></trkpt><trkpt lat="45.0849233" lon="8.0493133"><ele>378.0</ele><time>2026-03-29T13:42:00.011Z</time></trkpt><trkpt lat="45.08481" lon="8.0492267"><ele>375.0</ele><time>2026-03-29T13:42:02.004Z</time></trkpt><trkpt lat="45.0847467" lon="8.0491217"><ele>372.0</ele><time>2026-03-29T13:42:03.004Z</time></trkpt><trkpt lat="45.0846867" lon="8.04896"><ele>372.0</ele><time>2026-03-29T13:42:04.004Z</time></trkpt><trkpt lat="45.0846267" lon="8.0487883"><ele>372.0</ele><time>2026-03-29T13:42:05.006Z</time></trkpt><trkpt lat="45.0845733" lon="8.04864"><ele>372.0</ele><time>2026-03-29T13:42:06.006Z</time></trkpt><trkpt lat="45.084525" lon="8.0485333"><ele>372.0</ele><time>2026-03-29T13:42:07.008Z</time></trkpt><trkpt lat="45.0844683" lon="8.048455"><ele>372.0</ele><time>2026-03-29T13:42:08.005Z</time></trkpt><trkpt lat="45.084405" lon="8.0484433"><ele>372.0</ele><time>2026-03-29T13:42:09.013Z</time></trkpt><trkpt lat="45.0843383" lon="8.0484533"><ele>372.0</ele><time>2026-03-29T13:42:10.003Z</time></trkpt><trkpt lat="45.084315" lon="8.0486183"><ele>372.0</ele><time>2026-03-29T13:42:12.004Z</time></trkpt><trkpt lat="45.0843333" lon="8.0487217"><ele>372.0</ele><time>2026-03-29T13:42:13.007Z</time></trkpt><trkpt lat="45.0843633" lon="8.04884"><ele>372.0</ele><time>2026-03-29T13:42:14.009Z</time></trkpt><trkpt lat="45.08441" lon="8.0489733"><ele>368.0</ele><time>2026-03-29T13:42:15.011Z</time></trkpt><trkpt lat="45.0844583" lon="8.0491283"><ele>364.0</ele><time>2026-03-29T13:42:16.005Z</time></trkpt><trkpt lat="45.0844983" lon="8.049285"><ele>360.0</ele><time>2026-03-29T13:42:17.012Z</time></trkpt><trkpt lat="45.084525" lon="8.049445"><ele>356.0</ele><time>2026-03-29T13:42:18.004Z</time></trkpt><trkpt lat="45.0845483" lon="8.049615"><ele>356.0</ele><time>2026-03-29T13:42:19.004Z</time></trkpt><trkpt lat="45.0845717" lon="8.0497917"><ele>356.0</ele><time>2026-03-29T13:42:20.005Z</time></trkpt><trkpt lat="45.0845867" lon="8.0499767"><ele>356.0</ele><time>2026-03-29T13:42:21.003Z</time></trkpt><trkpt lat="45.0845883" lon="8.0501683"><ele>356.0</ele><time>2026-03-29T13:42:22.005Z</time></trkpt><trkpt lat="45.08457" lon="8.0503633"><ele>354.25</ele><time>2026-03-29T13:42:23.005Z</time></trkpt><trkpt lat="45.084545" lon="8.050555"><ele>352.5</ele><time>2026-03-29T13:42:24.005Z</time></trkpt><trkpt lat="45.084515" lon="8.0507417"><ele>350.75</ele><time>2026-03-29T13:42:25.004Z</time></trkpt><trkpt lat="45.0844833" lon="8.0509267"><ele>349.0</ele><time>2026-03-29T13:42:26.006Z</time></trkpt><trkpt lat="45.0844617" lon="8.051115"><ele>348.25</ele><time>2026-03-29T13:42:27.007Z</time></trkpt><trkpt lat="45.0844467" lon="8.05131"><ele>347.5</ele><time>2026-03-29T13:42:28.013Z</time></trkpt><trkpt lat="45.0844517" lon="8.0515067"><ele>346.75</ele><time>2026-03-29T13:42:29.004Z</time></trkpt><trkpt lat="45.0844617" lon="8.0517017"><ele>346.0</ele><time>2026-03-29T13:42:30.007Z</time></trkpt><trkpt lat="45.0844683" lon="8.051895"><ele>346.0</ele><time>2026-03-29T13:42:31.009Z</time></trkpt><trkpt lat="45.08447" lon="8.0520867"><ele>346.0</ele><time>2026-03-29T13:42:32.008Z</time></trkpt><trkpt lat="45.0844583" lon="8.0522733"><ele>346.0</ele><time>2026-03-29T13:42:33.009Z</time></trkpt><trkpt lat="45.0844217" lon="8.05246"><ele>346.0</ele><time>2026-03-29T13:42:34.006Z</time></trkpt><trkpt lat="45.0843733" lon="8.0526467"><ele>346.66666666666663</ele><time>2026-03-29T13:42:35.004Z</time></trkpt><trkpt lat="45.0843217" lon="8.0528417"><ele>347.3333333333333</ele><time>2026-03-29T13:42:36.006Z</time></trkpt><trkpt lat="45.0842517" lon="8.0530367"><ele>348.0</ele><time>2026-03-29T13:42:37.008Z</time></trkpt><trkpt lat="45.08419" lon="8.0532383"><ele>346.0</ele><time>2026-03-29T13:42:38.009Z</time></trkpt><trkpt lat="45.0841217" lon="8.0534417"><ele>344.0</ele><time>2026-03-29T13:42:39.008Z</time></trkpt><trkpt lat="45.0840467" lon="8.05365"><ele>342.0</ele><time>2026-03-29T13:42:40.007Z</time></trkpt><trkpt lat="45.0839717" lon="8.0538583"><ele>339.6666666666667</ele><time>2026-03-29T13:42:41.004Z</time></trkpt><trkpt lat="45.0839033" lon="8.0540583"><ele>337.33333333333337</ele><time>2026-03-29T13:42:42.007Z</time></trkpt><trkpt lat="45.08384" lon="8.05425"><ele>335.0</ele><time>2026-03-29T13:42:43.001Z</time></trkpt><trkpt lat="45.0837983" lon="8.054445"><ele>335.0</ele><time>2026-03-29T13:42:44.006Z</time></trkpt><trkpt lat="45.0837667" lon="8.054645"><ele>335.0</ele><time>2026-03-29T13:42:45.008Z</time></trkpt><trkpt lat="45.0837583" lon="8.0548467"><ele>335.0</ele><time>2026-03-29T13:42:46.005Z</time></trkpt><trkpt lat="45.0837533" lon="8.0550467"><ele>335.0</ele><time>2026-03-29T13:42:47.007Z</time></trkpt><trkpt lat="45.08375" lon="8.0552517"><ele>335.5</ele><time>2026-03-29T13:42:48.005Z</time></trkpt><trkpt lat="45.083735" lon="8.0554483"><ele>336.0</ele><time>2026-03-29T13:42:49.008Z</time></trkpt><trkpt lat="45.083715" lon="8.0556417"><ele>336.5</ele><time>2026-03-29T13:42:50.005Z</time></trkpt><trkpt lat="45.083685" lon="8.0558283"><ele>337.0</ele><time>2026-03-29T13:42:51.005Z</time></trkpt><trkpt lat="45.0836333" lon="8.0560117"><ele>337.0</ele><time>2026-03-29T13:42:52.005Z</time></trkpt><trkpt lat="45.0835667" lon="8.0561933"><ele>337.0</ele><time>2026-03-29T13:42:53.008Z</time></trkpt><trkpt lat="45.0834883" lon="8.05637"><ele>337.0</ele><time>2026-03-29T13:42:54.008Z</time></trkpt><trkpt lat="45.083405" lon="8.05655"><ele>337.0</ele><time>2026-03-29T13:42:55.011Z</time></trkpt><trkpt lat="45.08332" lon="8.0567317"><ele>332.0</ele><time>2026-03-29T13:42:56.007Z</time></trkpt><trkpt lat="45.0832383" lon="8.056915"><ele>327.0</ele><time>2026-03-29T13:42:57.004Z</time></trkpt><trkpt lat="45.08316" lon="8.057095"><ele>322.0</ele><time>2026-03-29T13:42:58.003Z</time></trkpt><trkpt lat="45.0830933" lon="8.0572867"><ele>322.3333333333333</ele><time>2026-03-29T13:42:59.013Z</time></trkpt><trkpt lat="45.083035" lon="8.0574917"><ele>322.6666666666667</ele><time>2026-03-29T13:43:00.004Z</time></trkpt><trkpt lat="45.082985" lon="8.0577067"><ele>323.0</ele><time>2026-03-29T13:43:01.001Z</time></trkpt><trkpt lat="45.0829367" lon="8.0579283"><ele>323.0</ele><time>2026-03-29T13:43:02.004Z</time></trkpt><trkpt lat="45.0828933" lon="8.058155"><ele>323.0</ele><time>2026-03-29T13:43:03.005Z</time></trkpt><trkpt lat="45.0828483" lon="8.0583817"><ele>323.0</ele><time>2026-03-29T13:43:04.004Z</time></trkpt><trkpt lat="45.0828083" lon="8.05861"><ele>322.33333333333337</ele><time>2026-03-29T13:43:05.004Z</time></trkpt><trkpt lat="45.082775" lon="8.0588383"><ele>321.6666666666667</ele><time>2026-03-29T13:43:06.004Z</time></trkpt><trkpt lat="45.08275" lon="8.0590667"><ele>321.0</ele><time>2026-03-29T13:43:07.01Z</time></trkpt><trkpt lat="45.08272" lon="8.0592933"><ele>319.3333333333333</ele><time>2026-03-29T13:43:08.008Z</time></trkpt><trkpt lat="45.0826783" lon="8.0595083"><ele>317.66666666666663</ele><time>2026-03-29T13:43:09.011Z</time></trkpt><trkpt lat="45.0826233" lon="8.05971"><ele>316.0</ele><time>2026-03-29T13:43:10.005Z</time></trkpt><trkpt lat="45.08256" lon="8.0598917"><ele>316.25</ele><time>2026-03-29T13:43:11.007Z</time></trkpt><trkpt lat="45.0825" lon="8.0600533"><ele>316.5</ele><time>2026-03-29T13:43:12.005Z</time></trkpt><trkpt lat="45.0824383" lon="8.0601983"><ele>316.75</ele><time>2026-03-29T13:43:13.009Z</time></trkpt><trkpt lat="45.0823833" lon="8.0603383"><ele>317.0</ele><time>2026-03-29T13:43:14.005Z</time></trkpt><trkpt lat="45.0823283" lon="8.060475"><ele>315.2</ele><time>2026-03-29T13:43:15.012Z</time></trkpt><trkpt lat="45.082275" lon="8.0606117"><ele>313.4</ele><time>2026-03-29T13:43:16.006Z</time></trkpt><trkpt lat="45.0822217" lon="8.0607467"><ele>311.6</ele><time>2026-03-29T13:43:17.005Z</time></trkpt><trkpt lat="45.0821717" lon="8.0608833"><ele>309.8</ele><time>2026-03-29T13:43:18.008Z</time></trkpt><trkpt lat="45.0821217" lon="8.061025"><ele>308.0</ele><time>2026-03-29T13:43:19.006Z</time></trkpt><trkpt lat="45.0820817" lon="8.06117"><ele>308.0</ele><time>2026-03-29T13:43:20.006Z</time></trkpt><trkpt lat="45.082045" lon="8.0613183"><ele>308.0</ele><time>2026-03-29T13:43:21.01Z</time></trkpt><trkpt lat="45.0820067" lon="8.06147"><ele>308.0</ele><time>2026-03-29T13:43:22.007Z</time></trkpt><trkpt lat="45.0819733" lon="8.0616217"><ele>308.0</ele><time>2026-03-29T13:43:23.002Z</time></trkpt><trkpt lat="45.0819367" lon="8.0617733"><ele>309.0</ele><time>2026-03-29T13:43:24.003Z</time></trkpt><trkpt lat="45.0818967" lon="8.061925"><ele>310.0</ele><time>2026-03-29T13:43:25.007Z</time></trkpt><trkpt lat="45.08186" lon="8.06208"><ele>311.0</ele><time>2026-03-29T13:43:26.009Z</time></trkpt><trkpt lat="45.0818217" lon="8.0622333"><ele>312.0</ele><time>2026-03-29T13:43:27.009Z</time></trkpt><trkpt lat="45.0817883" lon="8.0623867"><ele>311.25</ele><time>2026-03-29T13:43:28.005Z</time></trkpt><trkpt lat="45.0817567" lon="8.0625433"><ele>310.5</ele><time>2026-03-29T13:43:29.009Z</time></trkpt><trkpt lat="45.0817283" lon="8.0626983"><ele>309.75</ele><time>2026-03-29T13:43:30.005Z</time></trkpt><trkpt lat="45.0816933" lon="8.0628517"><ele>309.0</ele><time>2026-03-29T13:43:31.007Z</time></trkpt><trkpt lat="45.0816583" lon="8.0630067"><ele>309.0</ele><time>2026-03-29T13:43:32.003Z</time></trkpt><trkpt lat="45.0816217" lon="8.0631617"><ele>309.0</ele><time>2026-03-29T13:43:33.008Z</time></trkpt><trkpt lat="45.0815867" lon="8.063315"><ele>309.0</ele><time>2026-03-29T13:43:34.005Z</time></trkpt><trkpt lat="45.08155" lon="8.0634683"><ele>309.0</ele><time>2026-03-29T13:43:35.005Z</time></trkpt><trkpt lat="45.0815183" lon="8.0636233"><ele>308.2</ele><time>2026-03-29T13:43:36.009Z</time></trkpt><trkpt lat="45.08149" lon="8.0637783"><ele>307.4</ele><time>2026-03-29T13:43:37.008Z</time></trkpt><trkpt lat="45.08146" lon="8.0639317"><ele>306.6</ele><time>2026-03-29T13:43:38.005Z</time></trkpt><trkpt lat="45.0814233" lon="8.0640783"><ele>305.8</ele><time>2026-03-29T13:43:39.01Z</time></trkpt><trkpt lat="45.0813833" lon="8.0642267"><ele>305.0</ele><time>2026-03-29T13:43:40.004Z</time></trkpt><trkpt lat="45.0813417" lon="8.064375"><ele>305.0</ele><time>2026-03-29T13:43:41.008Z</time></trkpt><trkpt lat="45.0813033" lon="8.0645283"><ele>305.0</ele><time>2026-03-29T13:43:42.005Z</time></trkpt><trkpt lat="45.0812633" lon="8.0646783"><ele>305.0</ele><time>2026-03-29T13:43:43.009Z</time></trkpt><trkpt lat="45.08122" lon="8.0648283"><ele>305.0</ele><time>2026-03-29T13:43:44.008Z</time></trkpt><trkpt lat="45.0811833" lon="8.0649767"><ele>305.5</ele><time>2026-03-29T13:43:45.007Z</time></trkpt><trkpt lat="45.0811417" lon="8.0651233"><ele>306.0</ele><time>2026-03-29T13:43:46.006Z</time></trkpt><trkpt lat="45.0810933" lon="8.0652617"><ele>306.5</ele><time>2026-03-29T13:43:47.007Z</time></trkpt><trkpt lat="45.0810417" lon="8.0654"><ele>307.0</ele><time>2026-03-29T13:43:48.009Z</time></trkpt><trkpt lat="45.080975" lon="8.06554"><ele>307.0</ele><time>2026-03-29T13:43:49.01Z</time></trkpt><trkpt lat="45.0809067" lon="8.06568"><ele>307.0</ele><time>2026-03-29T13:43:50.008Z</time></trkpt><trkpt lat="45.0808333" lon="8.0658183"><ele>307.0</ele><time>2026-03-29T13:43:51.01Z</time></trkpt><trkpt lat="45.0807617" lon="8.0659533"><ele>307.0</ele><time>2026-03-29T13:43:52.004Z</time></trkpt><trkpt lat="45.0806867" lon="8.066085"><ele>305.5</ele><time>2026-03-29T13:43:53.007Z</time></trkpt><trkpt lat="45.0806167" lon="8.0662217"><ele>304.0</ele><time>2026-03-29T13:43:54.008Z</time></trkpt><trkpt lat="45.0805333" lon="8.06635"><ele>302.5</ele><time>2026-03-29T13:43:55.008Z</time></trkpt><trkpt lat="45.08045" lon="8.0664817"><ele>301.0</ele><time>2026-03-29T13:43:56.009Z</time></trkpt><trkpt lat="45.0803783" lon="8.0666133"><ele>298.75</ele><time>2026-03-29T13:43:57.009Z</time></trkpt><trkpt lat="45.0803067" lon="8.0667467"><ele>296.5</ele><time>2026-03-29T13:43:58.009Z</time></trkpt><trkpt lat="45.0802267" lon="8.0668817"><ele>294.25</ele><time>2026-03-29T13:43:59.009Z</time></trkpt><trkpt lat="45.0801467" lon="8.0670167"><ele>292.0</ele><time>2026-03-29T13:44:00.011Z</time></trkpt><trkpt lat="45.0800667" lon="8.0671483"><ele>292.0</ele><time>2026-03-29T13:44:01.007Z</time></trkpt><trkpt lat="45.0799883" lon="8.0672783"><ele>292.0</ele><time>2026-03-29T13:44:02.001Z</time></trkpt><trkpt lat="45.0799083" lon="8.0674067"><ele>292.0</ele><time>2026-03-29T13:44:03.007Z</time></trkpt><trkpt lat="45.0798283" lon="8.0675317"><ele>292.0</ele><time>2026-03-29T13:44:04.003Z</time></trkpt><trkpt lat="45.0797467" lon="8.0676567"><ele>290.0</ele><time>2026-03-29T13:44:05.007Z</time></trkpt><trkpt lat="45.0796617" lon="8.067775"><ele>288.0</ele><time>2026-03-29T13:44:06.006Z</time></trkpt><trkpt lat="45.0795717" lon="8.06789"><ele>286.0</ele><time>2026-03-29T13:44:07.009Z</time></trkpt><trkpt lat="45.079485" lon="8.067995"><ele>284.0</ele><time>2026-03-29T13:44:08.004Z</time></trkpt><trkpt lat="45.0794117" lon="8.068085"><ele>284.0</ele><time>2026-03-29T13:44:09.004Z</time></trkpt><trkpt lat="45.0793583" lon="8.068175"><ele>284.0</ele><time>2026-03-29T13:44:10.007Z</time></trkpt><trkpt lat="45.07933" lon="8.0682717"><ele>284.0</ele><time>2026-03-29T13:44:11.003Z</time></trkpt><trkpt lat="45.0793383" lon="8.06844"><ele>284.0</ele><time>2026-03-29T13:44:13.005Z</time></trkpt><trkpt lat="45.07949" lon="8.0684333"><ele>284.0</ele><time>2026-03-29T13:44:15.006Z</time></trkpt><trkpt lat="45.0795767" lon="8.0683883"><ele>284.0</ele><time>2026-03-29T13:44:16.007Z</time></trkpt><trkpt lat="45.0796767" lon="8.0683233"><ele>284.0</ele><time>2026-03-29T13:44:17.007Z</time></trkpt><trkpt lat="45.07979" lon="8.0682617"><ele>284.0</ele><time>2026-03-29T13:44:18.005Z</time></trkpt><trkpt lat="45.0799" lon="8.0682133"><ele>284.0</ele><time>2026-03-29T13:44:19.005Z</time></trkpt><trkpt lat="45.0800167" lon="8.0681717"><ele>283.75</ele><time>2026-03-29T13:44:20.003Z</time></trkpt><trkpt lat="45.0801367" lon="8.068125"><ele>283.5</ele><time>2026-03-29T13:44:21.007Z</time></trkpt><trkpt lat="45.08025" lon="8.0680767"><ele>283.25</ele><time>2026-03-29T13:44:22.005Z</time></trkpt><trkpt lat="45.08036" lon="8.0680367"><ele>283.0</ele><time>2026-03-29T13:44:23.003Z</time></trkpt><trkpt lat="45.0804733" lon="8.068015"><ele>283.0</ele><time>2026-03-29T13:44:24.004Z</time></trkpt><trkpt lat="45.08058" lon="8.068025"><ele>283.0</ele><time>2026-03-29T13:44:25.007Z</time></trkpt><trkpt lat="45.0806833" lon="8.0680783"><ele>283.0</ele><time>2026-03-29T13:44:26.005Z</time></trkpt><trkpt lat="45.08078" lon="8.06815"><ele>283.0</ele><time>2026-03-29T13:44:27.007Z</time></trkpt><trkpt lat="45.0808817" lon="8.0682267"><ele>283.0</ele><time>2026-03-29T13:44:28.001Z</time></trkpt><trkpt lat="45.0809883" lon="8.0682967"><ele>278.75</ele><time>2026-03-29T13:44:29.005Z</time></trkpt><trkpt lat="45.0810967" lon="8.06836"><ele>274.5</ele><time>2026-03-29T13:44:30.008Z</time></trkpt><trkpt lat="45.0812067" lon="8.06841"><ele>270.25</ele><time>2026-03-29T13:44:31.002Z</time></trkpt><trkpt lat="45.0813217" lon="8.068445"><ele>266.0</ele><time>2026-03-29T13:44:32.003Z</time></trkpt><trkpt lat="45.081435" lon="8.0684533"><ele>266.0</ele><time>2026-03-29T13:44:33.002Z</time></trkpt><trkpt lat="45.081555" lon="8.0684283"><ele>266.0</ele><time>2026-03-29T13:44:34.003Z</time></trkpt><trkpt lat="45.0816617" lon="8.0683767"><ele>266.0</ele><time>2026-03-29T13:44:35.009Z</time></trkpt><trkpt lat="45.0817617" lon="8.068295"><ele>266.0</ele><time>2026-03-29T13:44:36.004Z</time></trkpt><trkpt lat="45.0818633" lon="8.0682233"><ele>266.40000000000003</ele><time>2026-03-29T13:44:37.005Z</time></trkpt><trkpt lat="45.0819633" lon="8.0681933"><ele>266.8</ele><time>2026-03-29T13:44:38.008Z</time></trkpt><trkpt lat="45.0820717" lon="8.068205"><ele>267.20000000000005</ele><time>2026-03-29T13:44:39.006Z</time></trkpt><trkpt lat="45.08217" lon="8.0682583"><ele>267.6</ele><time>2026-03-29T13:44:40.008Z</time></trkpt><trkpt lat="45.0822617" lon="8.0683617"><ele>268.0</ele><time>2026-03-29T13:44:41.004Z</time></trkpt><trkpt lat="45.0823417" lon="8.06848"><ele>265.5</ele><time>2026-03-29T13:44:42.01Z</time></trkpt><trkpt lat="45.08243" lon="8.0685883"><ele>263.0</ele><time>2026-03-29T13:44:43.002Z</time></trkpt><trkpt lat="45.0825333" lon="8.0686717"><ele>260.5</ele><time>2026-03-29T13:44:44.001Z</time></trkpt><trkpt lat="45.082645" lon="8.0687117"><ele>258.0</ele><time>2026-03-29T13:44:45.005Z</time></trkpt><trkpt lat="45.0827633" lon="8.0687183"><ele>257.0</ele><time>2026-03-29T13:44:46.007Z</time></trkpt><trkpt lat="45.0828833" lon="8.06871"><ele>256.0</ele><time>2026-03-29T13:44:47.01Z</time></trkpt><trkpt lat="45.083005" lon="8.0686867"><ele>255.0</ele><time>2026-03-29T13:44:48.005Z</time></trkpt><trkpt lat="45.0831267" lon="8.0686567"><ele>254.0</ele><time>2026-03-29T13:44:49.004Z</time></trkpt><trkpt lat="45.0832483" lon="8.0686117"><ele>253.5</ele><time>2026-03-29T13:44:50.005Z</time></trkpt><trkpt lat="45.083365" lon="8.06853"><ele>253.0</ele><time>2026-03-29T13:44:51.005Z</time></trkpt><trkpt lat="45.083475" lon="8.0684167"><ele>252.5</ele><time>2026-03-29T13:44:52Z</time></trkpt><trkpt lat="45.0835767" lon="8.06829"><ele>252.0</ele><time>2026-03-29T13:44:53.001Z</time></trkpt><trkpt lat="45.0836767" lon="8.0681667"><ele>252.0</ele><time>2026-03-29T13:44:54.01Z</time></trkpt><trkpt lat="45.0837867" lon="8.0680617"><ele>252.0</ele><time>2026-03-29T13:44:55.002Z</time></trkpt><trkpt lat="45.0838967" lon="8.0679767"><ele>252.0</ele><time>2026-03-29T13:44:56.006Z</time></trkpt><trkpt lat="45.0840033" lon="8.0679017"><ele>252.0</ele><time>2026-03-29T13:44:57.003Z</time></trkpt><trkpt lat="45.0841117" lon="8.067835"><ele>249.25</ele><time>2026-03-29T13:44:58.002Z</time></trkpt><trkpt lat="45.0842183" lon="8.067805"><ele>246.5</ele><time>2026-03-29T13:44:59.006Z</time></trkpt><trkpt lat="45.08433" lon="8.06781"><ele>243.75</ele><time>2026-03-29T13:45:00.008Z</time></trkpt><trkpt lat="45.0844433" lon="8.06784"><ele>241.0</ele><time>2026-03-29T13:45:01.003Z</time></trkpt><trkpt lat="45.08456" lon="8.067895"><ele>241.0</ele><time>2026-03-29T13:45:02.004Z</time></trkpt><trkpt lat="45.0846717" lon="8.0679683"><ele>241.0</ele><time>2026-03-29T13:45:03.008Z</time></trkpt><trkpt lat="45.0847867" lon="8.0680533"><ele>241.0</ele><time>2026-03-29T13:45:04.002Z</time></trkpt><trkpt lat="45.0849117" lon="8.0681317"><ele>241.0</ele><time>2026-03-29T13:45:05.006Z</time></trkpt><trkpt lat="45.085025" lon="8.0682183"><ele>238.0</ele><time>2026-03-29T13:45:06.007Z</time></trkpt><trkpt lat="45.0851283" lon="8.0683083"><ele>235.0</ele><time>2026-03-29T13:45:07.006Z</time></trkpt><trkpt lat="45.0852283" lon="8.0684067"><ele>232.0</ele><time>2026-03-29T13:45:08.007Z</time></trkpt><trkpt lat="45.085335" lon="8.068505"><ele>229.0</ele><time>2026-03-29T13:45:09.002Z</time></trkpt><trkpt lat="45.0854217" lon="8.0686233"><ele>229.0</ele><time>2026-03-29T13:45:10.005Z</time></trkpt><trkpt lat="45.0854967" lon="8.0687417"><ele>229.0</ele><time>2026-03-29T13:45:11.004Z</time></trkpt><trkpt lat="45.08556" lon="8.0688717"><ele>229.0</ele><time>2026-03-29T13:45:12.005Z</time></trkpt><trkpt lat="45.0856067" lon="8.0690183"><ele>229.0</ele><time>2026-03-29T13:45:13.007Z</time></trkpt><trkpt lat="45.0856467" lon="8.0691783"><ele>228.75</ele><time>2026-03-29T13:45:14Z</time></trkpt><trkpt lat="45.0856867" lon="8.0693367"><ele>228.5</ele><time>2026-03-29T13:45:15.001Z</time></trkpt><trkpt lat="45.0857433" lon="8.0694783"><ele>228.25</ele><time>2026-03-29T13:45:16.009Z</time></trkpt><trkpt lat="45.0858183" lon="8.0696017"><ele>228.0</ele><time>2026-03-29T13:45:17.001Z</time></trkpt><trkpt lat="45.0859017" lon="8.0697033"><ele>229.0</ele><time>2026-03-29T13:45:18.007Z</time></trkpt><trkpt lat="45.0859917" lon="8.06979"><ele>230.0</ele><time>2026-03-29T13:45:19.006Z</time></trkpt><trkpt lat="45.0860883" lon="8.0698617"><ele>231.0</ele><time>2026-03-29T13:45:20.004Z</time></trkpt><trkpt lat="45.0861833" lon="8.0699167"><ele>232.0</ele><time>2026-03-29T13:45:21.003Z</time></trkpt><trkpt lat="45.0862817" lon="8.069965"><ele>233.0</ele><time>2026-03-29T13:45:22.006Z</time></trkpt><trkpt lat="45.0863817" lon="8.070005"><ele>233.60000000000002</ele><time>2026-03-29T13:45:23.003Z</time></trkpt><trkpt lat="45.0864767" lon="8.0700483"><ele>234.20000000000002</ele><time>2026-03-29T13:45:24.017Z</time></trkpt><trkpt lat="45.0865683" lon="8.0700967"><ele>234.8</ele><time>2026-03-29T13:45:25.006Z</time></trkpt><trkpt lat="45.0866617" lon="8.0701533"><ele>235.4</ele><time>2026-03-29T13:45:26.001Z</time></trkpt><trkpt lat="45.086755" lon="8.070225"><ele>236.0</ele><time>2026-03-29T13:45:27.006Z</time></trkpt><trkpt lat="45.0868517" lon="8.07031"><ele>238.5</ele><time>2026-03-29T13:45:28.006Z</time></trkpt><trkpt lat="45.08695" lon="8.07041"><ele>241.0</ele><time>2026-03-29T13:45:29.006Z</time></trkpt><trkpt lat="45.0870433" lon="8.0705267"><ele>243.5</ele><time>2026-03-29T13:45:30.005Z</time></trkpt><trkpt lat="45.0871417" lon="8.0706467"><ele>246.0</ele><time>2026-03-29T13:45:31.005Z</time></trkpt><trkpt lat="45.0872383" lon="8.070765"><ele>245.5</ele><time>2026-03-29T13:45:32.003Z</time></trkpt><trkpt lat="45.08732" lon="8.0708967"><ele>245.0</ele><time>2026-03-29T13:45:33.007Z</time></trkpt><trkpt lat="45.0873883" lon="8.0710483"><ele>244.5</ele><time>2026-03-29T13:45:34.005Z</time></trkpt><trkpt lat="45.0874417" lon="8.0712083"><ele>244.0</ele><time>2026-03-29T13:45:35.006Z</time></trkpt><trkpt lat="45.087485" lon="8.0713783"><ele>246.75</ele><time>2026-03-29T13:45:36.005Z</time></trkpt><trkpt lat="45.0875283" lon="8.0715467"><ele>249.5</ele><time>2026-03-29T13:45:37.004Z</time></trkpt><trkpt lat="45.0875833" lon="8.07169"><ele>252.25</ele><time>2026-03-29T13:45:38.006Z</time></trkpt><trkpt lat="45.0876683" lon="8.0717967"><ele>255.0</ele><time>2026-03-29T13:45:39.002Z</time></trkpt><trkpt lat="45.087775" lon="8.07187"><ele>255.0</ele><time>2026-03-29T13:45:40.001Z</time></trkpt><trkpt lat="45.0878867" lon="8.07193"><ele>255.0</ele><time>2026-03-29T13:45:41.003Z</time></trkpt><trkpt lat="45.08799" lon="8.072"><ele>255.0</ele><time>2026-03-29T13:45:42.003Z</time></trkpt><trkpt lat="45.0880767" lon="8.0721033"><ele>255.0</ele><time>2026-03-29T13:45:43.004Z</time></trkpt><trkpt lat="45.0881383" lon="8.07224"><ele>255.0</ele><time>2026-03-29T13:45:44.004Z</time></trkpt><trkpt lat="45.0881883" lon="8.072395"><ele>255.0</ele><time>2026-03-29T13:45:45.009Z</time></trkpt><trkpt lat="45.0882333" lon="8.0725617"><ele>255.0</ele><time>2026-03-29T13:45:46.006Z</time></trkpt><trkpt lat="45.0882567" lon="8.07275"><ele>255.0</ele><time>2026-03-29T13:45:47.008Z</time></trkpt><trkpt lat="45.0882517" lon="8.0729433"><ele>255.0</ele><time>2026-03-29T13:45:48.005Z</time></trkpt><trkpt lat="45.088225" lon="8.0731317"><ele>255.0</ele><time>2026-03-29T13:45:49.007Z</time></trkpt><trkpt lat="45.0881883" lon="8.07331"><ele>255.0</ele><time>2026-03-29T13:45:50.008Z</time></trkpt><trkpt lat="45.0881617" lon="8.0734667"><ele>255.0</ele><time>2026-03-29T13:45:51.008Z</time></trkpt><trkpt lat="45.08815" lon="8.073605"><ele>256.0</ele><time>2026-03-29T13:45:52.008Z</time></trkpt><trkpt lat="45.0881583" lon="8.07374"><ele>257.0</ele><time>2026-03-29T13:45:53.005Z</time></trkpt><trkpt lat="45.0881967" lon="8.073855"><ele>258.0</ele><time>2026-03-29T13:45:54.008Z</time></trkpt><trkpt lat="45.0882517" lon="8.073965"><ele>259.0</ele><time>2026-03-29T13:45:55.005Z</time></trkpt><trkpt lat="45.08835" lon="8.0740383"><ele>260.0</ele><time>2026-03-29T13:45:56.004Z</time></trkpt><trkpt lat="45.08848" lon="8.074095"><ele>263.75</ele><time>2026-03-29T13:45:57.006Z</time></trkpt><trkpt lat="45.0886183" lon="8.074155"><ele>267.5</ele><time>2026-03-29T13:45:58.007Z</time></trkpt><trkpt lat="45.0887583" lon="8.07423"><ele>271.25</ele><time>2026-03-29T13:45:59.008Z</time></trkpt><trkpt lat="45.0888817" lon="8.074335"><ele>275.0</ele><time>2026-03-29T13:46:00.008Z</time></trkpt><trkpt lat="45.0889967" lon="8.0744633"><ele>278.33333333333337</ele><time>2026-03-29T13:46:01.003Z</time></trkpt><trkpt lat="45.0890967" lon="8.0746167"><ele>281.6666666666667</ele><time>2026-03-29T13:46:02.002Z</time></trkpt><trkpt lat="45.0891917" lon="8.0747917"><ele>285.0</ele><time>2026-03-29T13:46:03.004Z</time></trkpt><trkpt lat="45.0892817" lon="8.074975"><ele>285.75</ele><time>2026-03-29T13:46:04.002Z</time></trkpt><trkpt lat="45.0893583" lon="8.07516"><ele>286.5</ele><time>2026-03-29T13:46:05.005Z</time></trkpt><trkpt lat="45.08942" lon="8.0753383"><ele>287.25</ele><time>2026-03-29T13:46:06.007Z</time></trkpt><trkpt lat="45.0894633" lon="8.0755117"><ele>288.0</ele><time>2026-03-29T13:46:07Z</time></trkpt><trkpt lat="45.089495" lon="8.0756817"><ele>290.0</ele><time>2026-03-29T13:46:08.004Z</time></trkpt><trkpt lat="45.089505" lon="8.0758633"><ele>292.0</ele><time>2026-03-29T13:46:09.005Z</time></trkpt><trkpt lat="45.0895117" lon="8.0760483"><ele>294.0</ele><time>2026-03-29T13:46:10.001Z</time></trkpt><trkpt lat="45.0895183" lon="8.076225"><ele>296.0</ele><time>2026-03-29T13:46:11.006Z</time></trkpt><trkpt lat="45.0895267" lon="8.0764"><ele>296.0</ele><time>2026-03-29T13:46:12.004Z</time></trkpt><trkpt lat="45.089525" lon="8.07657"><ele>296.0</ele><time>2026-03-29T13:46:13.01Z</time></trkpt><trkpt lat="45.0895133" lon="8.07673"><ele>296.0</ele><time>2026-03-29T13:46:14.007Z</time></trkpt><trkpt lat="45.08949" lon="8.0768783"><ele>296.0</ele><time>2026-03-29T13:46:15.004Z</time></trkpt><trkpt lat="45.0894467" lon="8.0770033"><ele>296.0</ele><time>2026-03-29T13:46:16.005Z</time></trkpt><trkpt lat="45.0893883" lon="8.0771033"><ele>297.0</ele><time>2026-03-29T13:46:17.003Z</time></trkpt><trkpt lat="45.089325" lon="8.0771867"><ele>298.0</ele><time>2026-03-29T13:46:18.004Z</time></trkpt><trkpt lat="45.0892467" lon="8.0772567"><ele>299.0</ele><time>2026-03-29T13:46:19.007Z</time></trkpt><trkpt lat="45.0891533" lon="8.077325"><ele>300.0</ele><time>2026-03-29T13:46:20.005Z</time></trkpt><trkpt lat="45.0890433" lon="8.0773867"><ele>301.0</ele><time>2026-03-29T13:46:21.003Z</time></trkpt><trkpt lat="45.0889333" lon="8.0774633"><ele>303.25</ele><time>2026-03-29T13:46:22.005Z</time></trkpt><trkpt lat="45.0888333" lon="8.0775617"><ele>305.5</ele><time>2026-03-29T13:46:23.005Z</time></trkpt><trkpt lat="45.0887383" lon="8.0776733"><ele>307.75</ele><time>2026-03-29T13:46:24.008Z</time></trkpt><trkpt lat="45.0886533" lon="8.077795"><ele>310.0</ele><time>2026-03-29T13:46:25.005Z</time></trkpt><trkpt lat="45.0885833" lon="8.0779183"><ele>310.0</ele><time>2026-03-29T13:46:26.003Z</time></trkpt><trkpt lat="45.088495" lon="8.078035"><ele>310.0</ele><time>2026-03-29T13:46:27.005Z</time></trkpt><trkpt lat="45.0884267" lon="8.07816"><ele>310.0</ele><time>2026-03-29T13:46:28.004Z</time></trkpt><trkpt lat="45.08837" lon="8.078305"><ele>310.0</ele><time>2026-03-29T13:46:29.005Z</time></trkpt><trkpt lat="45.0883167" lon="8.0784617"><ele>309.25</ele><time>2026-03-29T13:46:30.006Z</time></trkpt><trkpt lat="45.0882717" lon="8.0786217"><ele>308.5</ele><time>2026-03-29T13:46:31.006Z</time></trkpt><trkpt lat="45.0882283" lon="8.07879"><ele>307.75</ele><time>2026-03-29T13:46:32.004Z</time></trkpt><trkpt lat="45.0881883" lon="8.0789717"><ele>307.0</ele><time>2026-03-29T13:46:33.005Z</time></trkpt><trkpt lat="45.0881633" lon="8.07916"><ele>308.5</ele><time>2026-03-29T13:46:34.004Z</time></trkpt><trkpt lat="45.08815" lon="8.07936"><ele>310.0</ele><time>2026-03-29T13:46:35.003Z</time></trkpt><trkpt lat="45.08814" lon="8.0795567"><ele>311.5</ele><time>2026-03-29T13:46:36.008Z</time></trkpt><trkpt lat="45.0881283" lon="8.079745"><ele>313.0</ele><time>2026-03-29T13:46:37.007Z</time></trkpt><trkpt lat="45.0881167" lon="8.0799267"><ele>315.5</ele><time>2026-03-29T13:46:38.005Z</time></trkpt><trkpt lat="45.0881033" lon="8.0800967"><ele>318.0</ele><time>2026-03-29T13:46:39.006Z</time></trkpt><trkpt lat="45.0880933" lon="8.0802583"><ele>320.5</ele><time>2026-03-29T13:46:40.009Z</time></trkpt><trkpt lat="45.088075" lon="8.080415"><ele>323.0</ele><time>2026-03-29T13:46:41.011Z</time></trkpt><trkpt lat="45.0880467" lon="8.0805717"><ele>323.0</ele><time>2026-03-29T13:46:42.006Z</time></trkpt><trkpt lat="45.088005" lon="8.080715"><ele>323.0</ele><time>2026-03-29T13:46:43.009Z</time></trkpt><trkpt lat="45.087945" lon="8.0808383"><ele>323.0</ele><time>2026-03-29T13:46:44.005Z</time></trkpt><trkpt lat="45.0878583" lon="8.08095"><ele>323.0</ele><time>2026-03-29T13:46:45.014Z</time></trkpt><trkpt lat="45.0877533" lon="8.0810517"><ele>324.0</ele><time>2026-03-29T13:46:46.008Z</time></trkpt><trkpt lat="45.08764" lon="8.081155"><ele>325.0</ele><time>2026-03-29T13:46:47.006Z</time></trkpt><trkpt lat="45.08753" lon="8.081275"><ele>326.0</ele><time>2026-03-29T13:46:48.004Z</time></trkpt><trkpt lat="45.087425" lon="8.08142"><ele>327.0</ele><time>2026-03-29T13:46:49.005Z</time></trkpt><trkpt lat="45.0873283" lon="8.0815817"><ele>326.0</ele><time>2026-03-29T13:46:50.004Z</time></trkpt><trkpt lat="45.0872383" lon="8.08175"><ele>325.0</ele><time>2026-03-29T13:46:51.006Z</time></trkpt><trkpt lat="45.0871567" lon="8.0819283"><ele>324.0</ele><time>2026-03-29T13:46:52.005Z</time></trkpt><trkpt lat="45.08708" lon="8.082105"><ele>323.0</ele><time>2026-03-29T13:46:53.003Z</time></trkpt><trkpt lat="45.086995" lon="8.0822767"><ele>320.6666666666667</ele><time>2026-03-29T13:46:54.008Z</time></trkpt><trkpt lat="45.0869033" lon="8.0824517"><ele>318.3333333333333</ele><time>2026-03-29T13:46:55.007Z</time></trkpt><trkpt lat="45.0868017" lon="8.0826083"><ele>316.0</ele><time>2026-03-29T13:46:56.006Z</time></trkpt><trkpt lat="45.0866867" lon="8.08274"><ele>318.3333333333333</ele><time>2026-03-29T13:46:57.005Z</time></trkpt><trkpt lat="45.0865533" lon="8.08285"><ele>320.6666666666667</ele><time>2026-03-29T13:46:58.005Z</time></trkpt><trkpt lat="45.086405" lon="8.0829383"><ele>323.0</ele><time>2026-03-29T13:46:59.003Z</time></trkpt><trkpt lat="45.0862467" lon="8.0830167"><ele>323.0</ele><time>2026-03-29T13:47:00.006Z</time></trkpt><trkpt lat="45.0860833" lon="8.083095"><ele>323.0</ele><time>2026-03-29T13:47:01.008Z</time></trkpt><trkpt lat="45.0859283" lon="8.0831967"><ele>323.0</ele><time>2026-03-29T13:47:02.004Z</time></trkpt><trkpt lat="45.0857833" lon="8.0833167"><ele>319.33333333333337</ele><time>2026-03-29T13:47:03.008Z</time></trkpt><trkpt lat="45.0856417" lon="8.08345"><ele>315.6666666666667</ele><time>2026-03-29T13:47:04.004Z</time></trkpt><trkpt lat="45.0855083" lon="8.0835783"><ele>312.0</ele><time>2026-03-29T13:47:05.005Z</time></trkpt><trkpt lat="45.0853817" lon="8.0837"><ele>312.0</ele><time>2026-03-29T13:47:06.003Z</time></trkpt><trkpt lat="45.0852583" lon="8.0838083"><ele>312.0</ele><time>2026-03-29T13:47:07.003Z</time></trkpt><trkpt lat="45.08513" lon="8.0838933"><ele>312.0</ele><time>2026-03-29T13:47:08.008Z</time></trkpt><trkpt lat="45.08499" lon="8.083955"><ele>312.0</ele><time>2026-03-29T13:47:09.006Z</time></trkpt><trkpt lat="45.08485" lon="8.084005"><ele>312.5</ele><time>2026-03-29T13:47:10.008Z</time></trkpt><trkpt lat="45.0847117" lon="8.084055"><ele>313.0</ele><time>2026-03-29T13:47:11.003Z</time></trkpt><trkpt lat="45.0845767" lon="8.0841017"><ele>313.5</ele><time>2026-03-29T13:47:12.006Z</time></trkpt><trkpt lat="45.0844417" lon="8.0841533"><ele>314.0</ele><time>2026-03-29T13:47:13.003Z</time></trkpt><trkpt lat="45.0843067" lon="8.0842033"><ele>312.25</ele><time>2026-03-29T13:47:14.004Z</time></trkpt><trkpt lat="45.0841683" lon="8.0842533"><ele>310.5</ele><time>2026-03-29T13:47:15.006Z</time></trkpt><trkpt lat="45.08404" lon="8.0843083"><ele>308.75</ele><time>2026-03-29T13:47:16.005Z</time></trkpt><trkpt lat="45.0839267" lon="8.0843817"><ele>307.0</ele><time>2026-03-29T13:47:17.009Z</time></trkpt><trkpt lat="45.08382" lon="8.0844617"><ele>305.5</ele><time>2026-03-29T13:47:18.003Z</time></trkpt><trkpt lat="45.0837233" lon="8.0845567"><ele>304.0</ele><time>2026-03-29T13:47:19.008Z</time></trkpt><trkpt lat="45.083635" lon="8.0846683"><ele>302.5</ele><time>2026-03-29T13:47:20.005Z</time></trkpt><trkpt lat="45.0835467" lon="8.0847917"><ele>301.0</ele><time>2026-03-29T13:47:21.01Z</time></trkpt><trkpt lat="45.0834583" lon="8.084915"><ele>300.5</ele><time>2026-03-29T13:47:22.006Z</time></trkpt><trkpt lat="45.0833683" lon="8.0850367"><ele>300.0</ele><time>2026-03-29T13:47:23.007Z</time></trkpt><trkpt lat="45.083285" lon="8.085155"><ele>299.5</ele><time>2026-03-29T13:47:24.006Z</time></trkpt><trkpt lat="45.0832167" lon="8.0852733"><ele>299.0</ele><time>2026-03-29T13:47:25.007Z</time></trkpt><trkpt lat="45.0831517" lon="8.0854017"><ele>298.2</ele><time>2026-03-29T13:47:26.007Z</time></trkpt><trkpt lat="45.0831" lon="8.085535"><ele>297.4</ele><time>2026-03-29T13:47:27.009Z</time></trkpt><trkpt lat="45.0830467" lon="8.0856617"><ele>296.6</ele><time>2026-03-29T13:47:28.007Z</time></trkpt><trkpt lat="45.0829933" lon="8.0857883"><ele>295.8</ele><time>2026-03-29T13:47:29.008Z</time></trkpt><trkpt lat="45.0829483" lon="8.08591"><ele>295.0</ele><time>2026-03-29T13:47:30.008Z</time></trkpt><trkpt lat="45.0829017" lon="8.0860233"><ele>295.0</ele><time>2026-03-29T13:47:31.008Z</time></trkpt><trkpt lat="45.0828567" lon="8.0861217"><ele>295.0</ele><time>2026-03-29T13:47:32.004Z</time></trkpt><trkpt lat="45.0828217" lon="8.0862"><ele>295.0</ele><time>2026-03-29T13:47:33.003Z</time></trkpt><trkpt lat="45.0827717" lon="8.0863383"><ele>295.0</ele><time>2026-03-29T13:47:35.005Z</time></trkpt><trkpt lat="45.0828017" lon="8.0864533"><ele>295.0</ele><time>2026-03-29T13:47:41.004Z</time></trkpt><trkpt lat="45.082885" lon="8.0865017"><ele>295.0</ele><time>2026-03-29T13:47:43.009Z</time></trkpt><trkpt lat="45.0829867" lon="8.0865683"><ele>294.4</ele><time>2026-03-29T13:47:45.006Z</time></trkpt><trkpt lat="45.08307" lon="8.0866917"><ele>293.8</ele><time>2026-03-29T13:47:47.008Z</time></trkpt><trkpt lat="45.0831117" lon="8.086785"><ele>293.2</ele><time>2026-03-29T13:47:48.005Z</time></trkpt><trkpt lat="45.0831517" lon="8.08691"><ele>292.6</ele><time>2026-03-29T13:47:49.009Z</time></trkpt><trkpt lat="45.0831817" lon="8.087085"><ele>292.0</ele><time>2026-03-29T13:47:50.004Z</time></trkpt><trkpt lat="45.0832167" lon="8.0872433"><ele>292.0</ele><time>2026-03-29T13:47:51.005Z</time></trkpt><trkpt lat="45.0832533" lon="8.0873967"><ele>292.0</ele><time>2026-03-29T13:47:52.008Z</time></trkpt><trkpt lat="45.0832833" lon="8.0875583"><ele>292.0</ele><time>2026-03-29T13:47:53.003Z</time></trkpt><trkpt lat="45.0833167" lon="8.08772"><ele>292.0</ele><time>2026-03-29T13:47:54.003Z</time></trkpt><trkpt lat="45.08334" lon="8.08788"><ele>292.75</ele><time>2026-03-29T13:47:55.006Z</time></trkpt><trkpt lat="45.0833617" lon="8.08804"><ele>293.5</ele><time>2026-03-29T13:47:56.007Z</time></trkpt><trkpt lat="45.083385" lon="8.0882033"><ele>294.25</ele><time>2026-03-29T13:47:57.002Z</time></trkpt><trkpt lat="45.0834067" lon="8.088385"><ele>295.0</ele><time>2026-03-29T13:47:58.006Z</time></trkpt><trkpt lat="45.083435" lon="8.088565"><ele>295.5</ele><time>2026-03-29T13:47:59.008Z</time></trkpt><trkpt lat="45.0834617" lon="8.0887533"><ele>296.0</ele><time>2026-03-29T13:48:00.004Z</time></trkpt><trkpt lat="45.0834917" lon="8.0889333"><ele>296.5</ele><time>2026-03-29T13:48:01.014Z</time></trkpt><trkpt lat="45.0835183" lon="8.0891167"><ele>297.0</ele><time>2026-03-29T13:48:02.005Z</time></trkpt><trkpt lat="45.0835467" lon="8.0892967"><ele>297.5</ele><time>2026-03-29T13:48:03.006Z</time></trkpt><trkpt lat="45.0835717" lon="8.0894817"><ele>298.0</ele><time>2026-03-29T13:48:04.007Z</time></trkpt><trkpt lat="45.08359" lon="8.089665"><ele>298.5</ele><time>2026-03-29T13:48:05.006Z</time></trkpt><trkpt lat="45.083605" lon="8.0898467"><ele>299.0</ele><time>2026-03-29T13:48:06.006Z</time></trkpt><trkpt lat="45.0836217" lon="8.090015"><ele>300.5</ele><time>2026-03-29T13:48:07.006Z</time></trkpt><trkpt lat="45.0836217" lon="8.0901883"><ele>302.0</ele><time>2026-03-29T13:48:08.002Z</time></trkpt><trkpt lat="45.083615" lon="8.0903567"><ele>303.5</ele><time>2026-03-29T13:48:09.011Z</time></trkpt><trkpt lat="45.0835867" lon="8.0905233"><ele>305.0</ele><time>2026-03-29T13:48:10.006Z</time></trkpt><trkpt lat="45.0835417" lon="8.09069"><ele>303.75</ele><time>2026-03-29T13:48:11.007Z</time></trkpt><trkpt lat="45.0834883" lon="8.0908667"><ele>302.5</ele><time>2026-03-29T13:48:12.007Z</time></trkpt><trkpt lat="45.0834217" lon="8.0910367"><ele>301.25</ele><time>2026-03-29T13:48:13.006Z</time></trkpt><trkpt lat="45.08335" lon="8.09121"><ele>300.0</ele><time>2026-03-29T13:48:14.008Z</time></trkpt><trkpt lat="45.083265" lon="8.091375"><ele>303.0</ele><time>2026-03-29T13:48:15.011Z</time></trkpt><trkpt lat="45.0831767" lon="8.09153"><ele>306.0</ele><time>2026-03-29T13:48:16.007Z</time></trkpt><trkpt lat="45.083085" lon="8.0916817"><ele>309.0</ele><time>2026-03-29T13:48:17.004Z</time></trkpt><trkpt lat="45.0829833" lon="8.0918233"><ele>312.0</ele><time>2026-03-29T13:48:18.003Z</time></trkpt><trkpt lat="45.0828733" lon="8.0919533"><ele>312.0</ele><time>2026-03-29T13:48:19.002Z</time></trkpt><trkpt lat="45.0827683" lon="8.0920733"><ele>312.0</ele><time>2026-03-29T13:48:20.012Z</time></trkpt><trkpt lat="45.08266" lon="8.09219"><ele>312.0</ele><time>2026-03-29T13:48:21.004Z</time></trkpt><trkpt lat="45.0825533" lon="8.092295"><ele>312.0</ele><time>2026-03-29T13:48:22.008Z</time></trkpt><trkpt lat="45.0824417" lon="8.09239"><ele>311.75</ele><time>2026-03-29T13:48:23.005Z</time></trkpt><trkpt lat="45.0823317" lon="8.0924667"><ele>311.5</ele><time>2026-03-29T13:48:24.005Z</time></trkpt><trkpt lat="45.0822067" lon="8.0925233"><ele>311.25</ele><time>2026-03-29T13:48:25.008Z</time></trkpt><trkpt lat="45.082095" lon="8.0925783"><ele>311.0</ele><time>2026-03-29T13:48:26.004Z</time></trkpt><trkpt lat="45.0819767" lon="8.0926367"><ele>311.0</ele><time>2026-03-29T13:48:27.008Z</time></trkpt><trkpt lat="45.0818617" lon="8.0927033"><ele>311.0</ele><time>2026-03-29T13:48:28.01Z</time></trkpt><trkpt lat="45.0817517" lon="8.09278"><ele>311.0</ele><time>2026-03-29T13:48:29.005Z</time></trkpt><trkpt lat="45.0816417" lon="8.0928617"><ele>311.0</ele><time>2026-03-29T13:48:30.005Z</time></trkpt><trkpt lat="45.0815367" lon="8.0929433"><ele>311.8</ele><time>2026-03-29T13:48:31.004Z</time></trkpt><trkpt lat="45.0814333" lon="8.0930267"><ele>312.6</ele><time>2026-03-29T13:48:32.005Z</time></trkpt><trkpt lat="45.0813333" lon="8.0930967"><ele>313.4</ele><time>2026-03-29T13:48:33.006Z</time></trkpt><trkpt lat="45.0812417" lon="8.0931733"><ele>314.2</ele><time>2026-03-29T13:48:34.007Z</time></trkpt><trkpt lat="45.0811683" lon="8.0932483"><ele>315.0</ele><time>2026-03-29T13:48:35.009Z</time></trkpt><trkpt lat="45.081095" lon="8.0933333"><ele>313.2</ele><time>2026-03-29T13:48:36.006Z</time></trkpt><trkpt lat="45.08104" lon="8.09344"><ele>311.4</ele><time>2026-03-29T13:48:37.009Z</time></trkpt><trkpt lat="45.0809933" lon="8.0935633"><ele>309.6</ele><time>2026-03-29T13:48:38.006Z</time></trkpt><trkpt lat="45.08096" lon="8.0937017"><ele>307.8</ele><time>2026-03-29T13:48:39.001Z</time></trkpt><trkpt lat="45.0809217" lon="8.0938383"><ele>306.0</ele><time>2026-03-29T13:48:40.004Z</time></trkpt><trkpt lat="45.0808883" lon="8.09397"><ele>306.0</ele><time>2026-03-29T13:48:41.005Z</time></trkpt><trkpt lat="45.08086" lon="8.094095"><ele>306.0</ele><time>2026-03-29T13:48:42.008Z</time></trkpt><trkpt lat="45.08083" lon="8.094215"><ele>306.0</ele><time>2026-03-29T13:48:43.008Z</time></trkpt><trkpt lat="45.0808033" lon="8.0943283"><ele>306.0</ele><time>2026-03-29T13:48:44.003Z</time></trkpt><trkpt lat="45.0807767" lon="8.0944367"><ele>306.0</ele><time>2026-03-29T13:48:45.005Z</time></trkpt><trkpt lat="45.0807483" lon="8.09454"><ele>306.0</ele><time>2026-03-29T13:48:46.005Z</time></trkpt><trkpt lat="45.0807183" lon="8.0946333"><ele>303.85714285714283</ele><time>2026-03-29T13:48:47.003Z</time></trkpt><trkpt lat="45.0806917" lon="8.0947183"><ele>301.7142857142857</ele><time>2026-03-29T13:48:48.007Z</time></trkpt><trkpt lat="45.0806617" lon="8.0947983"><ele>299.57142857142856</ele><time>2026-03-29T13:48:49.004Z</time></trkpt><trkpt lat="45.0806217" lon="8.09488"><ele>297.42857142857144</ele><time>2026-03-29T13:48:50.007Z</time></trkpt><trkpt lat="45.080585" lon="8.0949717"><ele>295.2857142857143</ele><time>2026-03-29T13:48:51.006Z</time></trkpt><trkpt lat="45.0805467" lon="8.09507"><ele>293.1428571428571</ele><time>2026-03-29T13:48:52.004Z</time></trkpt><trkpt lat="45.0804967" lon="8.095175"><ele>291.0</ele><time>2026-03-29T13:48:53.004Z</time></trkpt><trkpt lat="45.0804283" lon="8.0952967"><ele>291.0</ele><time>2026-03-29T13:48:54.01Z</time></trkpt><trkpt lat="45.0803717" lon="8.095415"><ele>291.0</ele><time>2026-03-29T13:48:55.002Z</time></trkpt><trkpt lat="45.080315" lon="8.0955417"><ele>291.0</ele><time>2026-03-29T13:48:56.004Z</time></trkpt><trkpt lat="45.0802767" lon="8.0956817"><ele>291.0</ele><time>2026-03-29T13:48:57.007Z</time></trkpt><trkpt lat="45.0802383" lon="8.09582"><ele>291.0</ele><time>2026-03-29T13:48:58.008Z</time></trkpt><trkpt lat="45.0802083" lon="8.09596"><ele>291.6</ele><time>2026-03-29T13:48:59.003Z</time></trkpt><trkpt lat="45.080175" lon="8.0960967"><ele>292.20000000000005</ele><time>2026-03-29T13:49:00.012Z</time></trkpt><trkpt lat="45.0801417" lon="8.0962317"><ele>292.79999999999995</ele><time>2026-03-29T13:49:01.005Z</time></trkpt><trkpt lat="45.0801033" lon="8.09636"><ele>293.4</ele><time>2026-03-29T13:49:02.006Z</time></trkpt><trkpt lat="45.08006" lon="8.0964833"><ele>294.0</ele><time>2026-03-29T13:49:03Z</time></trkpt><trkpt lat="45.0800117" lon="8.0965983"><ele>294.2</ele><time>2026-03-29T13:49:04.011Z</time></trkpt><trkpt lat="45.0799533" lon="8.0967017"><ele>294.4</ele><time>2026-03-29T13:49:05.001Z</time></trkpt><trkpt lat="45.0798917" lon="8.096805"><ele>294.6</ele><time>2026-03-29T13:49:06.005Z</time></trkpt><trkpt lat="45.079835" lon="8.0969067"><ele>294.8</ele><time>2026-03-29T13:49:07.005Z</time></trkpt><trkpt lat="45.07978" lon="8.0970067"><ele>295.0</ele><time>2026-03-29T13:49:08.003Z</time></trkpt><trkpt lat="45.0797233" lon="8.097095"><ele>295.0</ele><time>2026-03-29T13:49:09.006Z</time></trkpt><trkpt lat="45.0796633" lon="8.0971867"><ele>295.0</ele><time>2026-03-29T13:49:10.007Z</time></trkpt><trkpt lat="45.0796133" lon="8.0972817"><ele>295.0</ele><time>2026-03-29T13:49:11.006Z</time></trkpt><trkpt lat="45.0795683" lon="8.0973833"><ele>295.0</ele><time>2026-03-29T13:49:12.009Z</time></trkpt><trkpt lat="45.0795267" lon="8.0974967"><ele>295.0</ele><time>2026-03-29T13:49:13.007Z</time></trkpt><trkpt lat="45.0795067" lon="8.0976267"><ele>295.0</ele><time>2026-03-29T13:49:14.008Z</time></trkpt><trkpt lat="45.0794917" lon="8.0977567"><ele>295.4</ele><time>2026-03-29T13:49:15.01Z</time></trkpt><trkpt lat="45.07948" lon="8.0978933"><ele>295.8</ele><time>2026-03-29T13:49:16.007Z</time></trkpt><trkpt lat="45.0794717" lon="8.0980383"><ele>296.2</ele><time>2026-03-29T13:49:17.002Z</time></trkpt><trkpt lat="45.079455" lon="8.0981817"><ele>296.6</ele><time>2026-03-29T13:49:18.003Z</time></trkpt><trkpt lat="45.0794483" lon="8.0983283"><ele>297.0</ele><time>2026-03-29T13:49:19.009Z</time></trkpt><trkpt lat="45.0794483" lon="8.09848"><ele>297.4</ele><time>2026-03-29T13:49:20.003Z</time></trkpt><trkpt lat="45.07944" lon="8.0986267"><ele>297.79999999999995</ele><time>2026-03-29T13:49:21.003Z</time></trkpt><trkpt lat="45.079425" lon="8.0987667"><ele>298.2</ele><time>2026-03-29T13:49:22.004Z</time></trkpt><trkpt lat="45.0794033" lon="8.09889"><ele>298.59999999999997</ele><time>2026-03-29T13:49:23.005Z</time></trkpt><trkpt lat="45.0793717" lon="8.0989917"><ele>299.0</ele><time>2026-03-29T13:49:24.001Z</time></trkpt><trkpt lat="45.0793283" lon="8.099085"><ele>299.0</ele><time>2026-03-29T13:49:25.006Z</time></trkpt><trkpt lat="45.0792383" lon="8.0991167"><ele>299.0</ele><time>2026-03-29T13:49:26.004Z</time></trkpt><trkpt lat="45.0791567" lon="8.09916"><ele>299.0</ele><time>2026-03-29T13:49:27.006Z</time></trkpt><trkpt lat="45.079085" lon="8.0992167"><ele>299.0</ele><time>2026-03-29T13:49:28.008Z</time></trkpt><trkpt lat="45.0790233" lon="8.0993033"><ele>299.0</ele><time>2026-03-29T13:49:29.006Z</time></trkpt><trkpt lat="45.0789683" lon="8.099395"><ele>299.0</ele><time>2026-03-29T13:49:30.01Z</time></trkpt><trkpt lat="45.0789283" lon="8.099495"><ele>297.1666666666667</ele><time>2026-03-29T13:49:31.007Z</time></trkpt><trkpt lat="45.0789033" lon="8.0995983"><ele>295.33333333333337</ele><time>2026-03-29T13:49:32.008Z</time></trkpt><trkpt lat="45.0788917" lon="8.09971"><ele>293.5</ele><time>2026-03-29T13:49:33.008Z</time></trkpt><trkpt lat="45.0788867" lon="8.099845"><ele>291.6666666666667</ele><time>2026-03-29T13:49:34.009Z</time></trkpt><trkpt lat="45.0788833" lon="8.0999817"><ele>289.8333333333333</ele><time>2026-03-29T13:49:35.005Z</time></trkpt><trkpt lat="45.0788783" lon="8.1001167"><ele>288.0</ele><time>2026-03-29T13:49:36.008Z</time></trkpt><trkpt lat="45.0788767" lon="8.1002533"><ele>287.3333333333333</ele><time>2026-03-29T13:49:37.011Z</time></trkpt><trkpt lat="45.078875" lon="8.1003783"><ele>286.6666666666667</ele><time>2026-03-29T13:49:38.01Z</time></trkpt><trkpt lat="45.0788867" lon="8.10049"><ele>286.0</ele><time>2026-03-29T13:49:39.011Z</time></trkpt><trkpt lat="45.0789083" lon="8.1005917"><ele>285.33333333333337</ele><time>2026-03-29T13:49:40.006Z</time></trkpt><trkpt lat="45.0789367" lon="8.1006883"><ele>284.6666666666667</ele><time>2026-03-29T13:49:41.008Z</time></trkpt><trkpt lat="45.0789733" lon="8.1007733"><ele>284.0</ele><time>2026-03-29T13:49:42.006Z</time></trkpt><trkpt lat="45.0790533" lon="8.1009033"><ele>285.59999999999997</ele><time>2026-03-29T13:49:44.006Z</time></trkpt><trkpt lat="45.0791267" lon="8.101045"><ele>287.2</ele><time>2026-03-29T13:49:46.008Z</time></trkpt><trkpt lat="45.0791733" lon="8.10121"><ele>288.79999999999995</ele><time>2026-03-29T13:49:48.006Z</time></trkpt><trkpt lat="45.0791683" lon="8.1013017"><ele>290.4</ele><time>2026-03-29T13:49:49.007Z</time></trkpt><trkpt lat="45.0791367" lon="8.1014083"><ele>292.0</ele><time>2026-03-29T13:49:50.011Z</time></trkpt><trkpt lat="45.07908" lon="8.1014967"><ele>289.16666666666663</ele><time>2026-03-29T13:49:51.01Z</time></trkpt><trkpt lat="45.0790267" lon="8.1015533"><ele>286.3333333333333</ele><time>2026-03-29T13:49:52.008Z</time></trkpt><trkpt lat="45.0789517" lon="8.10159"><ele>283.5</ele><time>2026-03-29T13:49:53.006Z</time></trkpt><trkpt lat="45.078865" lon="8.1016117"><ele>280.6666666666667</ele><time>2026-03-29T13:49:54.006Z</time></trkpt><trkpt lat="45.07877" lon="8.10162"><ele>277.83333333333337</ele><time>2026-03-29T13:49:55.008Z</time></trkpt><trkpt lat="45.078675" lon="8.1016483"><ele>275.0</ele><time>2026-03-29T13:49:56.005Z</time></trkpt><trkpt lat="45.0785717" lon="8.10169"><ele>275.0</ele><time>2026-03-29T13:49:57.007Z</time></trkpt><trkpt lat="45.0784917" lon="8.1017617"><ele>275.0</ele><time>2026-03-29T13:49:58.006Z</time></trkpt><trkpt lat="45.078425" lon="8.1018467"><ele>275.0</ele><time>2026-03-29T13:49:59.007Z</time></trkpt><trkpt lat="45.0783633" lon="8.1019317"><ele>275.0</ele><time>2026-03-29T13:50:00.013Z</time></trkpt><trkpt lat="45.0783133" lon="8.10202"><ele>275.0</ele><time>2026-03-29T13:50:01.01Z</time></trkpt><trkpt lat="45.07829" lon="8.102145"><ele>275.0</ele><time>2026-03-29T13:50:02.006Z</time></trkpt><trkpt lat="45.07827" lon="8.10226"><ele>275.0</ele><time>2026-03-29T13:50:03.007Z</time></trkpt><trkpt lat="45.0782733" lon="8.1023883"><ele>275.0</ele><time>2026-03-29T13:50:04.006Z</time></trkpt><trkpt lat="45.0782967" lon="8.1025283"><ele>275.0</ele><time>2026-03-29T13:50:05.005Z</time></trkpt><trkpt lat="45.0783567" lon="8.1026567"><ele>275.0</ele><time>2026-03-29T13:50:06.008Z</time></trkpt><trkpt lat="45.0784017" lon="8.1027833"><ele>275.0</ele><time>2026-03-29T13:50:07Z</time></trkpt><trkpt lat="45.0784433" lon="8.1028967"><ele>275.5</ele><time>2026-03-29T13:50:08.006Z</time></trkpt><trkpt lat="45.078465" lon="8.103015"><ele>276.0</ele><time>2026-03-29T13:50:09.008Z</time></trkpt><trkpt lat="45.0784717" lon="8.103135"><ele>276.5</ele><time>2026-03-29T13:50:10.004Z</time></trkpt><trkpt lat="45.07846" lon="8.1032583"><ele>277.0</ele><time>2026-03-29T13:50:11.001Z</time></trkpt><trkpt lat="45.0784433" lon="8.1033817"><ele>277.5</ele><time>2026-03-29T13:50:12.006Z</time></trkpt><trkpt lat="45.0784117" lon="8.1035083"><ele>278.0</ele><time>2026-03-29T13:50:13.01Z</time></trkpt><trkpt lat="45.0783767" lon="8.1036317"><ele>276.33333333333337</ele><time>2026-03-29T13:50:14.011Z</time></trkpt><trkpt lat="45.0783433" lon="8.1037467"><ele>274.6666666666667</ele><time>2026-03-29T13:50:15.005Z</time></trkpt><trkpt lat="45.078315" lon="8.103855"><ele>273.0</ele><time>2026-03-29T13:50:16.005Z</time></trkpt><trkpt lat="45.07829" lon="8.1039467"><ele>271.3333333333333</ele><time>2026-03-29T13:50:17.004Z</time></trkpt><trkpt lat="45.0782533" lon="8.1041067"><ele>269.66666666666663</ele><time>2026-03-29T13:50:19.009Z</time></trkpt><trkpt lat="45.0782333" lon="8.1042117"><ele>268.0</ele><time>2026-03-29T13:50:20.006Z</time></trkpt><trkpt lat="45.078225" lon="8.1043333"><ele>267.0</ele><time>2026-03-29T13:50:21.006Z</time></trkpt><trkpt lat="45.0782167" lon="8.1044883"><ele>266.0</ele><time>2026-03-29T13:50:22.003Z</time></trkpt><trkpt lat="45.0782233" lon="8.1046933"><ele>265.0</ele><time>2026-03-29T13:50:23.005Z</time></trkpt><trkpt lat="45.0782367" lon="8.1048717"><ele>264.0</ele><time>2026-03-29T13:50:24.008Z</time></trkpt><trkpt lat="45.0782583" lon="8.1050317"><ele>265.0</ele><time>2026-03-29T13:50:25.002Z</time></trkpt><trkpt lat="45.0782783" lon="8.1051867"><ele>266.0</ele><time>2026-03-29T13:50:26.004Z</time></trkpt><trkpt lat="45.078305" lon="8.1053333"><ele>267.0</ele><time>2026-03-29T13:50:27.004Z</time></trkpt><trkpt lat="45.0783283" lon="8.1054817"><ele>268.0</ele><time>2026-03-29T13:50:28.005Z</time></trkpt><trkpt lat="45.0783533" lon="8.1056367"><ele>269.0</ele><time>2026-03-29T13:50:29.005Z</time></trkpt><trkpt lat="45.0783783" lon="8.1057917"><ele>269.0</ele><time>2026-03-29T13:50:30.001Z</time></trkpt><trkpt lat="45.078405" lon="8.1059417"><ele>269.0</ele><time>2026-03-29T13:50:31.004Z</time></trkpt><trkpt lat="45.0784333" lon="8.10609"><ele>269.0</ele><time>2026-03-29T13:50:32.006Z</time></trkpt><trkpt lat="45.07847" lon="8.10624"><ele>269.0</ele><time>2026-03-29T13:50:33.002Z</time></trkpt><trkpt lat="45.0785083" lon="8.106385"><ele>269.0</ele><time>2026-03-29T13:50:34.004Z</time></trkpt><trkpt lat="45.078545" lon="8.106535"><ele>267.4</ele><time>2026-03-29T13:50:35.008Z</time></trkpt><trkpt lat="45.0785817" lon="8.1066817"><ele>265.79999999999995</ele><time>2026-03-29T13:50:36.003Z</time></trkpt><trkpt lat="45.0786183" lon="8.106825"><ele>264.20000000000005</ele><time>2026-03-29T13:50:37.004Z</time></trkpt><trkpt lat="45.0786567" lon="8.1069717"><ele>262.6</ele><time>2026-03-29T13:50:38.006Z</time></trkpt><trkpt lat="45.078695" lon="8.1071217"><ele>261.0</ele><time>2026-03-29T13:50:39.01Z</time></trkpt><trkpt lat="45.0787317" lon="8.1072767"><ele>262.25</ele><time>2026-03-29T13:50:40.004Z</time></trkpt><trkpt lat="45.0787583" lon="8.107435"><ele>263.5</ele><time>2026-03-29T13:50:41.008Z</time></trkpt><trkpt lat="45.0787667" lon="8.1075967"><ele>264.75</ele><time>2026-03-29T13:50:42.006Z</time></trkpt><trkpt lat="45.0787617" lon="8.1077617"><ele>266.0</ele><time>2026-03-29T13:50:43.003Z</time></trkpt><trkpt lat="45.0787483" lon="8.1079383"><ele>266.0</ele><time>2026-03-29T13:50:44.005Z</time></trkpt><trkpt lat="45.0787167" lon="8.1081267"><ele>266.0</ele><time>2026-03-29T13:50:45.003Z</time></trkpt><trkpt lat="45.0786917" lon="8.1083217"><ele>266.0</ele><time>2026-03-29T13:50:46.003Z</time></trkpt><trkpt lat="45.0786617" lon="8.108525"><ele>266.0</ele><time>2026-03-29T13:50:47.008Z</time></trkpt><trkpt lat="45.07863" lon="8.1087367"><ele>267.33333333333337</ele><time>2026-03-29T13:50:48.004Z</time></trkpt><trkpt lat="45.0786067" lon="8.1089517"><ele>268.6666666666667</ele><time>2026-03-29T13:50:49.009Z</time></trkpt><trkpt lat="45.0785883" lon="8.1091683"><ele>270.0</ele><time>2026-03-29T13:50:50.005Z</time></trkpt><trkpt lat="45.0785717" lon="8.109385"><ele>271.5</ele><time>2026-03-29T13:50:51.004Z</time></trkpt><trkpt lat="45.0785633" lon="8.109595"><ele>273.0</ele><time>2026-03-29T13:50:52.004Z</time></trkpt><trkpt lat="45.0785567" lon="8.109795"><ele>274.5</ele><time>2026-03-29T13:50:53.005Z</time></trkpt><trkpt lat="45.0785483" lon="8.10998"><ele>276.0</ele><time>2026-03-29T13:50:54.007Z</time></trkpt><trkpt lat="45.0785483" lon="8.1101517"><ele>276.0</ele><time>2026-03-29T13:50:55.006Z</time></trkpt><trkpt lat="45.0785683" lon="8.1103267"><ele>276.0</ele><time>2026-03-29T13:50:56.007Z</time></trkpt><trkpt lat="45.0786067" lon="8.1105017"><ele>276.0</ele><time>2026-03-29T13:50:57.011Z</time></trkpt><trkpt lat="45.078645" lon="8.1106767"><ele>276.0</ele><time>2026-03-29T13:50:58.006Z</time></trkpt><trkpt lat="45.078695" lon="8.1108383"><ele>276.0</ele><time>2026-03-29T13:50:59.005Z</time></trkpt><trkpt lat="45.0787317" lon="8.110995"><ele>276.0</ele><time>2026-03-29T13:51:00.013Z</time></trkpt><trkpt lat="45.0787617" lon="8.1111467"><ele>276.0</ele><time>2026-03-29T13:51:01.006Z</time></trkpt><trkpt lat="45.078795" lon="8.111295"><ele>276.0</ele><time>2026-03-29T13:51:02.005Z</time></trkpt><trkpt lat="45.0788217" lon="8.1114467"><ele>276.0</ele><time>2026-03-29T13:51:03.008Z</time></trkpt><trkpt lat="45.0788483" lon="8.1115917"><ele>275.2</ele><time>2026-03-29T13:51:04.008Z</time></trkpt><trkpt lat="45.0788717" lon="8.1117267"><ele>274.40000000000003</ele><time>2026-03-29T13:51:05.004Z</time></trkpt><trkpt lat="45.0788933" lon="8.111855"><ele>273.6</ele><time>2026-03-29T13:51:06.006Z</time></trkpt><trkpt lat="45.07891" lon="8.1119817"><ele>272.8</ele><time>2026-03-29T13:51:07.004Z</time></trkpt><trkpt lat="45.078905" lon="8.1121117"><ele>272.0</ele><time>2026-03-29T13:51:08.006Z</time></trkpt><trkpt lat="45.0788783" lon="8.1122433"><ele>272.0</ele><time>2026-03-29T13:51:09.005Z</time></trkpt><trkpt lat="45.0788317" lon="8.1123683"><ele>272.0</ele><time>2026-03-29T13:51:10.008Z</time></trkpt><trkpt lat="45.078765" lon="8.1124833"><ele>272.0</ele><time>2026-03-29T13:51:11.006Z</time></trkpt><trkpt lat="45.078695" lon="8.11259"><ele>272.0</ele><time>2026-03-29T13:51:12.004Z</time></trkpt><trkpt lat="45.0786217" lon="8.1126867"><ele>272.0</ele><time>2026-03-29T13:51:13.004Z</time></trkpt><trkpt lat="45.0785383" lon="8.1127633"><ele>271.4</ele><time>2026-03-29T13:51:14.003Z</time></trkpt><trkpt lat="45.078455" lon="8.112825"><ele>270.79999999999995</ele><time>2026-03-29T13:51:15.005Z</time></trkpt><trkpt lat="45.0783617" lon="8.11288"><ele>270.2</ele><time>2026-03-29T13:51:16.008Z</time></trkpt><trkpt lat="45.078265" lon="8.1129183"><ele>269.59999999999997</ele><time>2026-03-29T13:51:17.006Z</time></trkpt><trkpt lat="45.0781633" lon="8.1129483"><ele>269.0</ele><time>2026-03-29T13:51:18.003Z</time></trkpt><trkpt lat="45.07806" lon="8.1129783"><ele>269.0</ele><time>2026-03-29T13:51:19.01Z</time></trkpt><trkpt lat="45.077965" lon="8.1130083"><ele>269.0</ele><time>2026-03-29T13:51:20.003Z</time></trkpt><trkpt lat="45.0778717" lon="8.1130433"><ele>269.0</ele><time>2026-03-29T13:51:21.003Z</time></trkpt><trkpt lat="45.077775" lon="8.11308"><ele>269.0</ele><time>2026-03-29T13:51:22.007Z</time></trkpt><trkpt lat="45.0776833" lon="8.1131267"><ele>269.0</ele><time>2026-03-29T13:51:23.004Z</time></trkpt><trkpt lat="45.0775883" lon="8.11318"><ele>268.4</ele><time>2026-03-29T13:51:24.007Z</time></trkpt><trkpt lat="45.077495" lon="8.1132433"><ele>267.79999999999995</ele><time>2026-03-29T13:51:25.003Z</time></trkpt><trkpt lat="45.0774017" lon="8.113315"><ele>267.20000000000005</ele><time>2026-03-29T13:51:26.004Z</time></trkpt><trkpt lat="45.0773133" lon="8.1133983"><ele>266.6</ele><time>2026-03-29T13:51:27.005Z</time></trkpt><trkpt lat="45.07723" lon="8.1134983"><ele>266.0</ele><time>2026-03-29T13:51:28.008Z</time></trkpt><trkpt lat="45.0771483" lon="8.1135967"><ele>266.0</ele><time>2026-03-29T13:51:29.005Z</time></trkpt><trkpt lat="45.0770733" lon="8.113705"><ele>266.0</ele><time>2026-03-29T13:51:30.004Z</time></trkpt><trkpt lat="45.0769983" lon="8.1138117"><ele>266.0</ele><time>2026-03-29T13:51:31.009Z</time></trkpt><trkpt lat="45.0769183" lon="8.113915"><ele>266.0</ele><time>2026-03-29T13:51:32.005Z</time></trkpt><trkpt lat="45.07684" lon="8.1140167"><ele>266.0</ele><time>2026-03-29T13:51:33.009Z</time></trkpt><trkpt lat="45.0767733" lon="8.1141133"><ele>266.6666666666667</ele><time>2026-03-29T13:51:34.006Z</time></trkpt><trkpt lat="45.07672" lon="8.1141983"><ele>267.33333333333337</ele><time>2026-03-29T13:51:35.007Z</time></trkpt><trkpt lat="45.0766883" lon="8.1142767"><ele>268.0</ele><time>2026-03-29T13:51:36.003Z</time></trkpt><trkpt lat="45.076645" lon="8.1143467"><ele>268.6666666666667</ele><time>2026-03-29T13:51:37.011Z</time></trkpt><trkpt lat="45.0766217" lon="8.1144483"><ele>269.3333333333333</ele><time>2026-03-29T13:51:39.011Z</time></trkpt><trkpt lat="45.076665" lon="8.1145583"><ele>270.0</ele><time>2026-03-29T13:51:44.005Z</time></trkpt><trkpt lat="45.076755" lon="8.1146267"><ele>270.0</ele><time>2026-03-29T13:51:46.004Z</time></trkpt><trkpt lat="45.0768183" lon="8.1146767"><ele>270.0</ele><time>2026-03-29T13:51:47.004Z</time></trkpt><trkpt lat="45.0769133" lon="8.11476"><ele>270.0</ele><time>2026-03-29T13:51:48.006Z</time></trkpt><trkpt lat="45.0770167" lon="8.1148367"><ele>270.0</ele><time>2026-03-29T13:51:49.005Z</time></trkpt><trkpt lat="45.0770983" lon="8.1149267"><ele>270.0</ele><time>2026-03-29T13:51:50.003Z</time></trkpt><trkpt lat="45.077175" lon="8.1150183"><ele>270.0</ele><time>2026-03-29T13:51:51.005Z</time></trkpt><trkpt lat="45.0772283" lon="8.11512"><ele>270.0</ele><time>2026-03-29T13:51:52.008Z</time></trkpt><trkpt lat="45.0772717" lon="8.1152317"><ele>270.0</ele><time>2026-03-29T13:51:53.007Z</time></trkpt><trkpt lat="45.0773117" lon="8.115355"><ele>270.0</ele><time>2026-03-29T13:51:54.009Z</time></trkpt><trkpt lat="45.0773333" lon="8.1154933"><ele>270.0</ele><time>2026-03-29T13:51:55.008Z</time></trkpt><trkpt lat="45.0773517" lon="8.11562"><ele>268.8</ele><time>2026-03-29T13:51:56.006Z</time></trkpt><trkpt lat="45.0773783" lon="8.115745"><ele>267.6</ele><time>2026-03-29T13:51:57.004Z</time></trkpt><trkpt lat="45.0774267" lon="8.11586"><ele>266.4</ele><time>2026-03-29T13:51:58.008Z</time></trkpt><trkpt lat="45.0774967" lon="8.1159617"><ele>265.2</ele><time>2026-03-29T13:51:59.004Z</time></trkpt><trkpt lat="45.0775733" lon="8.1160383"><ele>264.0</ele><time>2026-03-29T13:52:00.008Z</time></trkpt><trkpt lat="45.0776483" lon="8.116105"><ele>266.0</ele><time>2026-03-29T13:52:01.006Z</time></trkpt><trkpt lat="45.07772" lon="8.11617"><ele>268.0</ele><time>2026-03-29T13:52:02.009Z</time></trkpt><trkpt lat="45.0777883" lon="8.1162417"><ele>270.0</ele><time>2026-03-29T13:52:03.003Z</time></trkpt><trkpt lat="45.0778517" lon="8.11633"><ele>272.0</ele><time>2026-03-29T13:52:04.002Z</time></trkpt><trkpt lat="45.0779033" lon="8.116465"><ele>274.0</ele><time>2026-03-29T13:52:05.007Z</time></trkpt><trkpt lat="45.0779433" lon="8.11661"><ele>274.0</ele><time>2026-03-29T13:52:06.005Z</time></trkpt><trkpt lat="45.077975" lon="8.1167583"><ele>274.0</ele><time>2026-03-29T13:52:07.004Z</time></trkpt><trkpt lat="45.0780117" lon="8.116905"><ele>274.0</ele><time>2026-03-29T13:52:08.01Z</time></trkpt><trkpt lat="45.0780533" lon="8.1170417"><ele>274.0</ele><time>2026-03-29T13:52:09.009Z</time></trkpt><trkpt lat="45.07811" lon="8.1171617"><ele>274.0</ele><time>2026-03-29T13:52:10.003Z</time></trkpt><trkpt lat="45.0781817" lon="8.1172617"><ele>274.0</ele><time>2026-03-29T13:52:11.007Z</time></trkpt><trkpt lat="45.0782633" lon="8.1173433"><ele>274.0</ele><time>2026-03-29T13:52:12.004Z</time></trkpt><trkpt lat="45.0783517" lon="8.1174117"><ele>274.0</ele><time>2026-03-29T13:52:13.009Z</time></trkpt><trkpt lat="45.0784483" lon="8.1174667"><ele>274.0</ele><time>2026-03-29T13:52:14.01Z</time></trkpt><trkpt lat="45.0785483" lon="8.1175183"><ele>274.0</ele><time>2026-03-29T13:52:15.007Z</time></trkpt><trkpt lat="45.07865" lon="8.1175683"><ele>276.59999999999997</ele><time>2026-03-29T13:52:16.011Z</time></trkpt><trkpt lat="45.0787517" lon="8.1176183"><ele>279.2</ele><time>2026-03-29T13:52:17.008Z</time></trkpt><trkpt lat="45.0788517" lon="8.1176783"><ele>281.79999999999995</ele><time>2026-03-29T13:52:18.011Z</time></trkpt><trkpt lat="45.0789467" lon="8.1177517"><ele>284.4</ele><time>2026-03-29T13:52:19.011Z</time></trkpt><trkpt lat="45.0790417" lon="8.1178517"><ele>287.0</ele><time>2026-03-29T13:52:20.008Z</time></trkpt><trkpt lat="45.07913" lon="8.1179733"><ele>287.0</ele><time>2026-03-29T13:52:21.006Z</time></trkpt><trkpt lat="45.0792133" lon="8.1181083"><ele>287.0</ele><time>2026-03-29T13:52:22.01Z</time></trkpt><trkpt lat="45.07929" lon="8.1182467"><ele>287.0</ele><time>2026-03-29T13:52:23.006Z</time></trkpt><trkpt lat="45.0793667" lon="8.1183867"><ele>287.0</ele><time>2026-03-29T13:52:24.008Z</time></trkpt><trkpt lat="45.0794283" lon="8.1185333"><ele>287.0</ele><time>2026-03-29T13:52:25.007Z</time></trkpt><trkpt lat="45.0794733" lon="8.118695"><ele>287.0</ele><time>2026-03-29T13:52:26.01Z</time></trkpt><trkpt lat="45.0795017" lon="8.1188617"><ele>287.0</ele><time>2026-03-29T13:52:27.003Z</time></trkpt><trkpt lat="45.0795217" lon="8.1190417"><ele>287.0</ele><time>2026-03-29T13:52:28.004Z</time></trkpt><trkpt lat="45.0795317" lon="8.1192083"><ele>286.2</ele><time>2026-03-29T13:52:29.007Z</time></trkpt><trkpt lat="45.0795317" lon="8.1193683"><ele>285.4</ele><time>2026-03-29T13:52:30.007Z</time></trkpt><trkpt lat="45.07954" lon="8.1195183"><ele>284.6</ele><time>2026-03-29T13:52:31.014Z</time></trkpt><trkpt lat="45.0795533" lon="8.1196617"><ele>283.8</ele><time>2026-03-29T13:52:32.005Z</time></trkpt><trkpt lat="45.0795817" lon="8.1197917"><ele>283.0</ele><time>2026-03-29T13:52:33.006Z</time></trkpt><trkpt lat="45.0796267" lon="8.1199267"><ele>283.0</ele><time>2026-03-29T13:52:34.005Z</time></trkpt><trkpt lat="45.079685" lon="8.1200667"><ele>283.0</ele><time>2026-03-29T13:52:35.007Z</time></trkpt><trkpt lat="45.0797533" lon="8.12021"><ele>283.0</ele><time>2026-03-29T13:52:36.007Z</time></trkpt><trkpt lat="45.07983" lon="8.120365"><ele>283.0</ele><time>2026-03-29T13:52:37.008Z</time></trkpt><trkpt lat="45.0798917" lon="8.1205317"><ele>282.75</ele><time>2026-03-29T13:52:38.008Z</time></trkpt><trkpt lat="45.0799467" lon="8.1207083"><ele>282.5</ele><time>2026-03-29T13:52:39.003Z</time></trkpt><trkpt lat="45.07999" lon="8.12089"><ele>282.25</ele><time>2026-03-29T13:52:40.005Z</time></trkpt><trkpt lat="45.0800333" lon="8.12108"><ele>282.0</ele><time>2026-03-29T13:52:41.004Z</time></trkpt><trkpt lat="45.0800733" lon="8.1212683"><ele>282.0</ele><time>2026-03-29T13:52:42.005Z</time></trkpt><trkpt lat="45.0801117" lon="8.121445"><ele>282.0</ele><time>2026-03-29T13:52:43.004Z</time></trkpt><trkpt lat="45.0801567" lon="8.1216083"><ele>282.0</ele><time>2026-03-29T13:52:44.006Z</time></trkpt><trkpt lat="45.0802117" lon="8.1217617"><ele>282.0</ele><time>2026-03-29T13:52:45.006Z</time></trkpt><trkpt lat="45.0802733" lon="8.1219133"><ele>282.25</ele><time>2026-03-29T13:52:46.007Z</time></trkpt><trkpt lat="45.0803417" lon="8.1220533"><ele>282.5</ele><time>2026-03-29T13:52:47.006Z</time></trkpt><trkpt lat="45.0804117" lon="8.12219"><ele>282.75</ele><time>2026-03-29T13:52:48.009Z</time></trkpt><trkpt lat="45.0804767" lon="8.1223183"><ele>283.0</ele><time>2026-03-29T13:52:49.008Z</time></trkpt><trkpt lat="45.0805333" lon="8.1224433"><ele>283.0</ele><time>2026-03-29T13:52:50.007Z</time></trkpt><trkpt lat="45.08058" lon="8.1225767"><ele>283.0</ele><time>2026-03-29T13:52:51.008Z</time></trkpt><trkpt lat="45.08061" lon="8.122715"><ele>283.0</ele><time>2026-03-29T13:52:52.007Z</time></trkpt><trkpt lat="45.08062" lon="8.1228683"><ele>283.0</ele><time>2026-03-29T13:52:53.005Z</time></trkpt><trkpt lat="45.08062" lon="8.123035"><ele>283.0</ele><time>2026-03-29T13:52:54.01Z</time></trkpt><trkpt lat="45.0806183" lon="8.1232133"><ele>282.0</ele><time>2026-03-29T13:52:55.007Z</time></trkpt><trkpt lat="45.0806117" lon="8.1233933"><ele>281.0</ele><time>2026-03-29T13:52:56.006Z</time></trkpt><trkpt lat="45.0806083" lon="8.12357"><ele>280.0</ele><time>2026-03-29T13:52:57.005Z</time></trkpt><trkpt lat="45.0806033" lon="8.1237367"><ele>279.0</ele><time>2026-03-29T13:52:58.008Z</time></trkpt><trkpt lat="45.0805917" lon="8.1238983"><ele>277.5</ele><time>2026-03-29T13:52:59.005Z</time></trkpt><trkpt lat="45.08057" lon="8.1240633"><ele>276.0</ele><time>2026-03-29T13:53:00.008Z</time></trkpt><trkpt lat="45.0805433" lon="8.1242283"><ele>274.5</ele><time>2026-03-29T13:53:01.011Z</time></trkpt><trkpt lat="45.0805033" lon="8.1244"><ele>273.0</ele><time>2026-03-29T13:53:02.006Z</time></trkpt><trkpt lat="45.0804683" lon="8.12458"><ele>273.0</ele><time>2026-03-29T13:53:03.008Z</time></trkpt><trkpt lat="45.080445" lon="8.12476"><ele>273.0</ele><time>2026-03-29T13:53:04.004Z</time></trkpt><trkpt lat="45.0804283" lon="8.1249483"><ele>273.0</ele><time>2026-03-29T13:53:05.004Z</time></trkpt><trkpt lat="45.0804167" lon="8.1251433"><ele>273.0</ele><time>2026-03-29T13:53:06.004Z</time></trkpt><trkpt lat="45.080415" lon="8.1253367"><ele>271.5</ele><time>2026-03-29T13:53:07.004Z</time></trkpt><trkpt lat="45.08042" lon="8.1255217"><ele>270.0</ele><time>2026-03-29T13:53:08.007Z</time></trkpt><trkpt lat="45.0804333" lon="8.12569"><ele>268.5</ele><time>2026-03-29T13:53:09.014Z</time></trkpt><trkpt lat="45.080445" lon="8.1258417"><ele>267.0</ele><time>2026-03-29T13:53:10.003Z</time></trkpt><trkpt lat="45.08046" lon="8.125985"><ele>265.8333333333333</ele><time>2026-03-29T13:53:11.001Z</time></trkpt><trkpt lat="45.08047" lon="8.126115"><ele>264.6666666666667</ele><time>2026-03-29T13:53:12.007Z</time></trkpt><trkpt lat="45.0804783" lon="8.126235"><ele>263.5</ele><time>2026-03-29T13:53:13.008Z</time></trkpt><trkpt lat="45.0804933" lon="8.1263533"><ele>262.33333333333337</ele><time>2026-03-29T13:53:14.004Z</time></trkpt><trkpt lat="45.0805117" lon="8.12647"><ele>261.1666666666667</ele><time>2026-03-29T13:53:15.008Z</time></trkpt><trkpt lat="45.08053" lon="8.1265833"><ele>260.0</ele><time>2026-03-29T13:53:16.007Z</time></trkpt><trkpt lat="45.0805433" lon="8.1266833"><ele>259.5</ele><time>2026-03-29T13:53:17.009Z</time></trkpt><trkpt lat="45.080555" lon="8.1267833"><ele>259.0</ele><time>2026-03-29T13:53:18.006Z</time></trkpt><trkpt lat="45.080565" lon="8.1268833"><ele>258.5</ele><time>2026-03-29T13:53:19.019Z</time></trkpt><trkpt lat="45.0805717" lon="8.1269883"><ele>258.0</ele><time>2026-03-29T13:53:20.005Z</time></trkpt><trkpt lat="45.080585" lon="8.1271083"><ele>257.5</ele><time>2026-03-29T13:53:21.007Z</time></trkpt><trkpt lat="45.0805967" lon="8.12724"><ele>257.0</ele><time>2026-03-29T13:53:22.009Z</time></trkpt><trkpt lat="45.08062" lon="8.1273917"><ele>256.4</ele><time>2026-03-29T13:53:23.008Z</time></trkpt><trkpt lat="45.0806483" lon="8.12755"><ele>255.79999999999998</ele><time>2026-03-29T13:53:24.005Z</time></trkpt><trkpt lat="45.0806783" lon="8.1277067"><ele>255.2</ele><time>2026-03-29T13:53:25.007Z</time></trkpt><trkpt lat="45.0807083" lon="8.127855"><ele>254.6</ele><time>2026-03-29T13:53:26.004Z</time></trkpt><trkpt lat="45.0807267" lon="8.1280017"><ele>254.0</ele><time>2026-03-29T13:53:27.011Z</time></trkpt><trkpt lat="45.0807367" lon="8.1281533"><ele>255.0</ele><time>2026-03-29T13:53:28.005Z</time></trkpt><trkpt lat="45.0807367" lon="8.1283"><ele>255.99999999999997</ele><time>2026-03-29T13:53:29.004Z</time></trkpt><trkpt lat="45.08073" lon="8.1284367"><ele>257.0</ele><time>2026-03-29T13:53:30.013Z</time></trkpt><trkpt lat="45.08071" lon="8.1285733"><ele>258.0</ele><time>2026-03-29T13:53:31.013Z</time></trkpt><trkpt lat="45.0806767" lon="8.128705"><ele>259.0</ele><time>2026-03-29T13:53:32.008Z</time></trkpt><trkpt lat="45.0806183" lon="8.1288283"><ele>259.0</ele><time>2026-03-29T13:53:33.01Z</time></trkpt><trkpt lat="45.0805533" lon="8.1289533"><ele>259.0</ele><time>2026-03-29T13:53:34.007Z</time></trkpt><trkpt lat="45.0804867" lon="8.1290767"><ele>259.0</ele><time>2026-03-29T13:53:35.01Z</time></trkpt><trkpt lat="45.080425" lon="8.12919"><ele>259.0</ele><time>2026-03-29T13:53:36.005Z</time></trkpt><trkpt lat="45.08037" lon="8.1293083"><ele>259.0</ele><time>2026-03-29T13:53:37.009Z</time></trkpt><trkpt lat="45.080325" lon="8.1294317"><ele>260.2</ele><time>2026-03-29T13:53:38.012Z</time></trkpt><trkpt lat="45.08029" lon="8.1295583"><ele>261.4</ele><time>2026-03-29T13:53:39.006Z</time></trkpt><trkpt lat="45.0802567" lon="8.1296833"><ele>262.6</ele><time>2026-03-29T13:53:40.006Z</time></trkpt><trkpt lat="45.08025" lon="8.1298133"><ele>263.8</ele><time>2026-03-29T13:53:41.007Z</time></trkpt><trkpt lat="45.0802333" lon="8.1299433"><ele>265.0</ele><time>2026-03-29T13:53:42.009Z</time></trkpt><trkpt lat="45.080225" lon="8.13007"><ele>265.8333333333333</ele><time>2026-03-29T13:53:43.005Z</time></trkpt><trkpt lat="45.0802233" lon="8.1301867"><ele>266.66666666666663</ele><time>2026-03-29T13:53:44.008Z</time></trkpt><trkpt lat="45.0802217" lon="8.130295"><ele>267.5</ele><time>2026-03-29T13:53:45.01Z</time></trkpt><trkpt lat="45.080225" lon="8.1304"><ele>268.3333333333333</ele><time>2026-03-29T13:53:46.011Z</time></trkpt><trkpt lat="45.0802267" lon="8.130505"><ele>269.1666666666667</ele><time>2026-03-29T13:53:47.007Z</time></trkpt><trkpt lat="45.08023" lon="8.1306067"><ele>270.0</ele><time>2026-03-29T13:53:48.008Z</time></trkpt><trkpt lat="45.08022" lon="8.1307117"><ele>270.5</ele><time>2026-03-29T13:53:49.011Z</time></trkpt><trkpt lat="45.080205" lon="8.1308167"><ele>271.0</ele><time>2026-03-29T13:53:50.005Z</time></trkpt><trkpt lat="45.080195" lon="8.130925"><ele>271.5</ele><time>2026-03-29T13:53:51.008Z</time></trkpt><trkpt lat="45.08018" lon="8.1310317"><ele>272.0</ele><time>2026-03-29T13:53:52.01Z</time></trkpt><trkpt lat="45.0801667" lon="8.1311267"><ele>272.5</ele><time>2026-03-29T13:53:53.01Z</time></trkpt><trkpt lat="45.080145" lon="8.131265"><ele>273.0</ele><time>2026-03-29T13:53:55.003Z</time></trkpt><trkpt lat="45.0801233" lon="8.1313633"><ele>273.0</ele><time>2026-03-29T13:54:00.009Z</time></trkpt><trkpt lat="45.0801583" lon="8.1314583"><ele>273.0</ele><time>2026-03-29T13:54:02.004Z</time></trkpt><trkpt lat="45.0802783" lon="8.1316017"><ele>273.0</ele><time>2026-03-29T13:54:04.005Z</time></trkpt><trkpt lat="45.0803567" lon="8.13173"><ele>273.0</ele><time>2026-03-29T13:54:05.005Z</time></trkpt><trkpt lat="45.0804067" lon="8.13186"><ele>274.0</ele><time>2026-03-29T13:54:06.007Z</time></trkpt><trkpt lat="45.0804483" lon="8.13203"><ele>275.0</ele><time>2026-03-29T13:54:07.01Z</time></trkpt><trkpt lat="45.080435" lon="8.132255"><ele>276.0</ele><time>2026-03-29T13:54:08.01Z</time></trkpt><trkpt lat="45.0804433" lon="8.1324467"><ele>277.0</ele><time>2026-03-29T13:54:09.004Z</time></trkpt><trkpt lat="45.0804467" lon="8.1326383"><ele>277.5</ele><time>2026-03-29T13:54:10.01Z</time></trkpt><trkpt lat="45.0804567" lon="8.13283"><ele>278.0</ele><time>2026-03-29T13:54:11.003Z</time></trkpt><trkpt lat="45.0804633" lon="8.133015"><ele>278.5</ele><time>2026-03-29T13:54:12.011Z</time></trkpt><trkpt lat="45.0804667" lon="8.133195"><ele>279.0</ele><time>2026-03-29T13:54:13.007Z</time></trkpt><trkpt lat="45.0804667" lon="8.133375"><ele>279.25</ele><time>2026-03-29T13:54:14.008Z</time></trkpt><trkpt lat="45.0804683" lon="8.1335467"><ele>279.5</ele><time>2026-03-29T13:54:15.006Z</time></trkpt><trkpt lat="45.08047" lon="8.1337183"><ele>279.75</ele><time>2026-03-29T13:54:16.007Z</time></trkpt><trkpt lat="45.0804717" lon="8.13389"><ele>280.0</ele><time>2026-03-29T13:54:17Z</time></trkpt><trkpt lat="45.0804733" lon="8.1340567"><ele>280.0</ele><time>2026-03-29T13:54:18.001Z</time></trkpt><trkpt lat="45.0804733" lon="8.1342167"><ele>280.0</ele><time>2026-03-29T13:54:19.002Z</time></trkpt><trkpt lat="45.0804817" lon="8.134375"><ele>280.0</ele><time>2026-03-29T13:54:20.005Z</time></trkpt><trkpt lat="45.0804967" lon="8.13453"><ele>280.0</ele><time>2026-03-29T13:54:21.011Z</time></trkpt><trkpt lat="45.08053" lon="8.134675"><ele>280.0</ele><time>2026-03-29T13:54:22.003Z</time></trkpt><trkpt lat="45.0805933" lon="8.1347983"><ele>280.2</ele><time>2026-03-29T13:54:23.006Z</time></trkpt><trkpt lat="45.080665" lon="8.1349033"><ele>280.4</ele><time>2026-03-29T13:54:24.006Z</time></trkpt><trkpt lat="45.0807567" lon="8.1349867"><ele>280.6</ele><time>2026-03-29T13:54:25.002Z</time></trkpt><trkpt lat="45.0808467" lon="8.1350583"><ele>280.8</ele><time>2026-03-29T13:54:26.007Z</time></trkpt><trkpt lat="45.0809383" lon="8.1351167"><ele>281.0</ele><time>2026-03-29T13:54:27.004Z</time></trkpt><trkpt lat="45.0810267" lon="8.1351683"><ele>279.5</ele><time>2026-03-29T13:54:28.004Z</time></trkpt><trkpt lat="45.08111" lon="8.1352183"><ele>278.0</ele><time>2026-03-29T13:54:29.008Z</time></trkpt><trkpt lat="45.0811867" lon="8.135255"><ele>276.5</ele><time>2026-03-29T13:54:30.006Z</time></trkpt><trkpt lat="45.08125" lon="8.135305"><ele>275.0</ele><time>2026-03-29T13:54:31.002Z</time></trkpt><trkpt lat="45.0813467" lon="8.1354167"><ele>273.5</ele><time>2026-03-29T13:54:33.002Z</time></trkpt><trkpt lat="45.08138" lon="8.1355033"><ele>272.0</ele><time>2026-03-29T13:54:34.004Z</time></trkpt><trkpt lat="45.08142" lon="8.1355917"><ele>272.0</ele><time>2026-03-29T13:54:35.006Z</time></trkpt><trkpt lat="45.0814433" lon="8.135715"><ele>272.0</ele><time>2026-03-29T13:54:36.008Z</time></trkpt><trkpt lat="45.0814683" lon="8.1358583"><ele>272.0</ele><time>2026-03-29T13:54:37.007Z</time></trkpt><trkpt lat="45.0814983" lon="8.136015"><ele>272.0</ele><time>2026-03-29T13:54:38.006Z</time></trkpt><trkpt lat="45.0815183" lon="8.136175"><ele>272.0</ele><time>2026-03-29T13:54:39.009Z</time></trkpt><trkpt lat="45.0815333" lon="8.136335"><ele>271.5</ele><time>2026-03-29T13:54:40.004Z</time></trkpt><trkpt lat="45.0815517" lon="8.136485"><ele>271.0</ele><time>2026-03-29T13:54:41.002Z</time></trkpt><trkpt lat="45.0815733" lon="8.1366517"><ele>270.5</ele><time>2026-03-29T13:54:42.006Z</time></trkpt><trkpt lat="45.0816033" lon="8.13681"><ele>270.0</ele><time>2026-03-29T13:54:43.012Z</time></trkpt><trkpt lat="45.0816233" lon="8.1369617"><ele>269.6</ele><time>2026-03-29T13:54:44.005Z</time></trkpt><trkpt lat="45.0816483" lon="8.1371083"><ele>269.2</ele><time>2026-03-29T13:54:45.005Z</time></trkpt><trkpt lat="45.0816733" lon="8.1372533"><ele>268.8</ele><time>2026-03-29T13:54:46.011Z</time></trkpt><trkpt lat="45.0817" lon="8.1373867"><ele>268.4</ele><time>2026-03-29T13:54:47.008Z</time></trkpt><trkpt lat="45.0817217" lon="8.1375233"><ele>268.0</ele><time>2026-03-29T13:54:48.003Z</time></trkpt><trkpt lat="45.0817517" lon="8.1376517"><ele>266.8333333333333</ele><time>2026-03-29T13:54:49.003Z</time></trkpt><trkpt lat="45.081775" lon="8.1377683"><ele>265.66666666666663</ele><time>2026-03-29T13:54:50.01Z</time></trkpt><trkpt lat="45.0818017" lon="8.1378733"><ele>264.5</ele><time>2026-03-29T13:54:51.005Z</time></trkpt><trkpt lat="45.0818217" lon="8.1379717"><ele>263.3333333333333</ele><time>2026-03-29T13:54:52.004Z</time></trkpt><trkpt lat="45.0818067" lon="8.1380667"><ele>262.1666666666667</ele><time>2026-03-29T13:54:53.006Z</time></trkpt><trkpt lat="45.08181" lon="8.1381867"><ele>261.0</ele><time>2026-03-29T13:54:55.005Z</time></trkpt><trkpt lat="45.0817717" lon="8.1382717"><ele>260.2</ele><time>2026-03-29T13:54:57.004Z</time></trkpt><trkpt lat="45.0817217" lon="8.1383733"><ele>259.40000000000003</ele><time>2026-03-29T13:54:59.008Z</time></trkpt><trkpt lat="45.0817" lon="8.1384867"><ele>258.6</ele><time>2026-03-29T13:55:01.002Z</time></trkpt><trkpt lat="45.0817167" lon="8.138605"><ele>257.8</ele><time>2026-03-29T13:55:56.004Z</time></trkpt><trkpt lat="45.0817633" lon="8.138765"><ele>257.0</ele><time>2026-03-29T13:55:58.005Z</time></trkpt><trkpt lat="45.0818017" lon="8.1389217"><ele>256.1666666666667</ele><time>2026-03-29T13:56:00.007Z</time></trkpt><trkpt lat="45.0818367" lon="8.1390583"><ele>255.33333333333334</ele><time>2026-03-29T13:56:02.008Z</time></trkpt><trkpt lat="45.0818733" lon="8.1391867"><ele>254.5</ele><time>2026-03-29T13:56:04.009Z</time></trkpt><trkpt lat="45.0819083" lon="8.1393"><ele>253.66666666666669</ele><time>2026-03-29T13:56:06.003Z</time></trkpt><trkpt lat="45.0819567" lon="8.1393967"><ele>252.83333333333334</ele><time>2026-03-29T13:56:08.004Z</time></trkpt><trkpt lat="45.0820167" lon="8.139435"><ele>252.0</ele><time>2026-03-29T13:56:10.007Z</time></trkpt><trkpt lat="45.08208" lon="8.1394633"><ele>252.0</ele><time>2026-03-29T13:56:12.009Z</time></trkpt><trkpt lat="45.0821267" lon="8.1395483"><ele>252.0</ele><time>2026-03-29T13:56:14.003Z</time></trkpt><trkpt lat="45.08215" lon="8.1396367"><ele>252.0</ele><time>2026-03-29T13:56:15.005Z</time></trkpt><trkpt lat="45.082175" lon="8.1397783"><ele>252.0</ele><time>2026-03-29T13:56:16.005Z</time></trkpt><trkpt lat="45.082205" lon="8.1399367"><ele>252.0</ele><time>2026-03-29T13:56:17.005Z</time></trkpt><trkpt lat="45.082235" lon="8.1400917"><ele>250.5</ele><time>2026-03-29T13:56:18.002Z</time></trkpt><trkpt lat="45.0822617" lon="8.140255"><ele>249.0</ele><time>2026-03-29T13:56:19.004Z</time></trkpt><trkpt lat="45.082295" lon="8.14042"><ele>247.5</ele><time>2026-03-29T13:56:20.005Z</time></trkpt><trkpt lat="45.0823317" lon="8.1405917"><ele>246.0</ele><time>2026-03-29T13:56:21.003Z</time></trkpt><trkpt lat="45.08237" lon="8.1407683"><ele>246.0</ele><time>2026-03-29T13:56:22.004Z</time></trkpt><trkpt lat="45.0824067" lon="8.1409467"><ele>246.0</ele><time>2026-03-29T13:56:23.004Z</time></trkpt><trkpt lat="45.08245" lon="8.1411317"><ele>246.0</ele><time>2026-03-29T13:56:24.006Z</time></trkpt><trkpt lat="45.0825" lon="8.14132"><ele>246.0</ele><time>2026-03-29T13:56:25.013Z</time></trkpt><trkpt lat="45.08256" lon="8.14151"><ele>244.33333333333331</ele><time>2026-03-29T13:56:26.006Z</time></trkpt><trkpt lat="45.0826283" lon="8.1417017"><ele>242.66666666666666</ele><time>2026-03-29T13:56:27.003Z</time></trkpt><trkpt lat="45.0827033" lon="8.1418917"><ele>241.0</ele><time>2026-03-29T13:56:28.004Z</time></trkpt><trkpt lat="45.082775" lon="8.1420767"><ele>241.0</ele><time>2026-03-29T13:56:29.004Z</time></trkpt><trkpt lat="45.08285" lon="8.1422567"><ele>241.0</ele><time>2026-03-29T13:56:30.008Z</time></trkpt><trkpt lat="45.082925" lon="8.142435"><ele>241.0</ele><time>2026-03-29T13:56:31.007Z</time></trkpt><trkpt lat="45.0830033" lon="8.1426117"><ele>241.0</ele><time>2026-03-29T13:56:32.005Z</time></trkpt><trkpt lat="45.0830817" lon="8.14278"><ele>241.25</ele><time>2026-03-29T13:56:33Z</time></trkpt><trkpt lat="45.0831583" lon="8.1429417"><ele>241.5</ele><time>2026-03-29T13:56:34.007Z</time></trkpt><trkpt lat="45.083225" lon="8.1431"><ele>241.75</ele><time>2026-03-29T13:56:35.003Z</time></trkpt><trkpt lat="45.083295" lon="8.14326"><ele>242.0</ele><time>2026-03-29T13:56:36.003Z</time></trkpt><trkpt lat="45.0833667" lon="8.1434183"><ele>242.75</ele><time>2026-03-29T13:56:37.003Z</time></trkpt><trkpt lat="45.0834367" lon="8.1435767"><ele>243.5</ele><time>2026-03-29T13:56:38.002Z</time></trkpt><trkpt lat="45.083505" lon="8.1437333"><ele>244.25</ele><time>2026-03-29T13:56:39.005Z</time></trkpt><trkpt lat="45.083575" lon="8.1438833"><ele>245.0</ele><time>2026-03-29T13:56:40.007Z</time></trkpt><trkpt lat="45.0836417" lon="8.1440367"><ele>246.5</ele><time>2026-03-29T13:56:41.004Z</time></trkpt><trkpt lat="45.0837033" lon="8.1441883"><ele>248.0</ele><time>2026-03-29T13:56:42.004Z</time></trkpt><trkpt lat="45.0837617" lon="8.1443433"><ele>249.5</ele><time>2026-03-29T13:56:43.008Z</time></trkpt><trkpt lat="45.083825" lon="8.144495"><ele>251.0</ele><time>2026-03-29T13:56:44.005Z</time></trkpt><trkpt lat="45.0838883" lon="8.1446483"><ele>251.0</ele><time>2026-03-29T13:56:45.006Z</time></trkpt><trkpt lat="45.0839517" lon="8.1448067"><ele>251.0</ele><time>2026-03-29T13:56:46.005Z</time></trkpt><trkpt lat="45.0840183" lon="8.1449583"><ele>251.0</ele><time>2026-03-29T13:56:47.007Z</time></trkpt><trkpt lat="45.0840917" lon="8.1451083"><ele>251.0</ele><time>2026-03-29T13:56:48.009Z</time></trkpt><trkpt lat="45.084165" lon="8.1452567"><ele>245.75</ele><time>2026-03-29T13:56:49.012Z</time></trkpt><trkpt lat="45.084245" lon="8.1454"><ele>240.5</ele><time>2026-03-29T13:56:50.003Z</time></trkpt><trkpt lat="45.084325" lon="8.1455433"><ele>235.25</ele><time>2026-03-29T13:56:51.004Z</time></trkpt><trkpt lat="45.0844183" lon="8.145675"><ele>230.0</ele><time>2026-03-29T13:56:52.003Z</time></trkpt><trkpt lat="45.0845183" lon="8.1457967"><ele>229.5</ele><time>2026-03-29T13:56:53.006Z</time></trkpt><trkpt lat="45.0846333" lon="8.1459067"><ele>229.0</ele><time>2026-03-29T13:56:54.007Z</time></trkpt><trkpt lat="45.0847683" lon="8.146"><ele>228.5</ele><time>2026-03-29T13:56:55.006Z</time></trkpt><trkpt lat="45.084915" lon="8.14608"><ele>228.0</ele><time>2026-03-29T13:56:56.001Z</time></trkpt><trkpt lat="45.0850667" lon="8.1461533"><ele>228.0</ele><time>2026-03-29T13:56:57.002Z</time></trkpt><trkpt lat="45.0852217" lon="8.1462267"><ele>228.0</ele><time>2026-03-29T13:56:58.008Z</time></trkpt><trkpt lat="45.0853783" lon="8.1463017"><ele>228.0</ele><time>2026-03-29T13:56:59.006Z</time></trkpt><trkpt lat="45.0855367" lon="8.1463783"><ele>228.0</ele><time>2026-03-29T13:57:00.005Z</time></trkpt><trkpt lat="45.08569" lon="8.1464617"><ele>228.0</ele><time>2026-03-29T13:57:01.006Z</time></trkpt><trkpt lat="45.0858383" lon="8.1465567"><ele>228.0</ele><time>2026-03-29T13:57:02.004Z</time></trkpt><trkpt lat="45.0859817" lon="8.14667"><ele>226.0</ele><time>2026-03-29T13:57:03.004Z</time></trkpt><trkpt lat="45.0861167" lon="8.1468017"><ele>224.0</ele><time>2026-03-29T13:57:04.003Z</time></trkpt><trkpt lat="45.0862433" lon="8.1469417"><ele>222.0</ele><time>2026-03-29T13:57:05.003Z</time></trkpt><trkpt lat="45.086365" lon="8.1470833"><ele>222.0</ele><time>2026-03-29T13:57:06.011Z</time></trkpt><trkpt lat="45.086485" lon="8.14723"><ele>222.0</ele><time>2026-03-29T13:57:07.005Z</time></trkpt><trkpt lat="45.0866017" lon="8.1473767"><ele>222.0</ele><time>2026-03-29T13:57:08.005Z</time></trkpt><trkpt lat="45.086715" lon="8.14752"><ele>220.0</ele><time>2026-03-29T13:57:09.007Z</time></trkpt><trkpt lat="45.0868267" lon="8.147655"><ele>218.0</ele><time>2026-03-29T13:57:10.003Z</time></trkpt><trkpt lat="45.08693" lon="8.147785"><ele>216.0</ele><time>2026-03-29T13:57:11.004Z</time></trkpt><trkpt lat="45.087025" lon="8.147905"><ele>214.0</ele><time>2026-03-29T13:57:12.007Z</time></trkpt><trkpt lat="45.087115" lon="8.1480183"><ele>214.0</ele><time>2026-03-29T13:57:13.01Z</time></trkpt><trkpt lat="45.0871933" lon="8.148115"><ele>213.99999999999997</ele><time>2026-03-29T13:57:14.007Z</time></trkpt><trkpt lat="45.08726" lon="8.1481967"><ele>213.99999999999997</ele><time>2026-03-29T13:57:15.005Z</time></trkpt><trkpt lat="45.087315" lon="8.1482667"><ele>214.0</ele><time>2026-03-29T13:57:16.01Z</time></trkpt><trkpt lat="45.087365" lon="8.1483917"><ele>214.0</ele><time>2026-03-29T13:57:18.005Z</time></trkpt><trkpt lat="45.0873483" lon="8.14854"><ele>214.39999999999998</ele><time>2026-03-29T13:57:20.008Z</time></trkpt><trkpt lat="45.0873133" lon="8.1486367"><ele>214.79999999999998</ele><time>2026-03-29T13:57:21.004Z</time></trkpt><trkpt lat="45.0872633" lon="8.1487433"><ele>215.20000000000002</ele><time>2026-03-29T13:57:22.01Z</time></trkpt><trkpt lat="45.0872" lon="8.1488567"><ele>215.60000000000002</ele><time>2026-03-29T13:57:23.003Z</time></trkpt><trkpt lat="45.0871367" lon="8.14897"><ele>216.0</ele><time>2026-03-29T13:57:24.011Z</time></trkpt><trkpt lat="45.0870683" lon="8.1490867"><ele>216.0</ele><time>2026-03-29T13:57:25.007Z</time></trkpt><trkpt lat="45.0870017" lon="8.1492033"><ele>216.00000000000003</ele><time>2026-03-29T13:57:26.007Z</time></trkpt><trkpt lat="45.086935" lon="8.1493183"><ele>216.00000000000003</ele><time>2026-03-29T13:57:27.004Z</time></trkpt><trkpt lat="45.086845" lon="8.1494333"><ele>216.0</ele><time>2026-03-29T13:57:28.006Z</time></trkpt><trkpt lat="45.0867617" lon="8.14955"><ele>216.0</ele><time>2026-03-29T13:57:29.004Z</time></trkpt><trkpt lat="45.08668" lon="8.1496567"><ele>216.0</ele><time>2026-03-29T13:57:30.009Z</time></trkpt><trkpt lat="45.086595" lon="8.1497583"><ele>216.0</ele><time>2026-03-29T13:57:31.007Z</time></trkpt><trkpt lat="45.0865067" lon="8.1498583"><ele>216.0</ele><time>2026-03-29T13:57:32.008Z</time></trkpt><trkpt lat="45.0864117" lon="8.1499567"><ele>216.0</ele><time>2026-03-29T13:57:33.007Z</time></trkpt><trkpt lat="45.0863217" lon="8.1500567"><ele>216.0</ele><time>2026-03-29T13:57:34.006Z</time></trkpt><trkpt lat="45.0862133" lon="8.1501467"><ele>216.0</ele><time>2026-03-29T13:57:35.012Z</time></trkpt><trkpt lat="45.0861" lon="8.150235"><ele>216.0</ele><time>2026-03-29T13:57:36.008Z</time></trkpt><trkpt lat="45.0859833" lon="8.1503267"><ele>216.0</ele><time>2026-03-29T13:57:37.011Z</time></trkpt><trkpt lat="45.0858633" lon="8.150415"><ele>216.0</ele><time>2026-03-29T13:57:38.006Z</time></trkpt><trkpt lat="45.0857417" lon="8.1504983"><ele>216.0</ele><time>2026-03-29T13:57:39.01Z</time></trkpt><trkpt lat="45.085625" lon="8.1505817"><ele>216.0</ele><time>2026-03-29T13:57:40.006Z</time></trkpt><trkpt lat="45.0855117" lon="8.150665"><ele>216.0</ele><time>2026-03-29T13:57:41.006Z</time></trkpt><trkpt lat="45.0854017" lon="8.1507483"><ele>216.0</ele><time>2026-03-29T13:57:42.005Z</time></trkpt><trkpt lat="45.08529" lon="8.1508317"><ele>216.0</ele><time>2026-03-29T13:57:43.008Z</time></trkpt><trkpt lat="45.0851817" lon="8.1509167"><ele>216.0</ele><time>2026-03-29T13:57:44.008Z</time></trkpt><trkpt lat="45.0850717" lon="8.1509967"><ele>216.0</ele><time>2026-03-29T13:57:45.013Z</time></trkpt><trkpt lat="45.0849533" lon="8.1510733"><ele>215.0</ele><time>2026-03-29T13:57:46.004Z</time></trkpt><trkpt lat="45.0848433" lon="8.15115"><ele>214.0</ele><time>2026-03-29T13:57:47.007Z</time></trkpt><trkpt lat="45.08473" lon="8.1512333"><ele>213.0</ele><time>2026-03-29T13:57:48.005Z</time></trkpt><trkpt lat="45.0846117" lon="8.1513167"><ele>212.0</ele><time>2026-03-29T13:57:49.004Z</time></trkpt><trkpt lat="45.0844883" lon="8.1514"><ele>212.0</ele><time>2026-03-29T13:57:50.003Z</time></trkpt><trkpt lat="45.084365" lon="8.1514917"><ele>212.0</ele><time>2026-03-29T13:57:51.004Z</time></trkpt><trkpt lat="45.0842433" lon="8.1515867"><ele>212.0</ele><time>2026-03-29T13:57:52.005Z</time></trkpt><trkpt lat="45.08412" lon="8.1516783"><ele>212.0</ele><time>2026-03-29T13:57:53.005Z</time></trkpt><trkpt lat="45.0839967" lon="8.1517683"><ele>212.25</ele><time>2026-03-29T13:57:54.007Z</time></trkpt><trkpt lat="45.08387" lon="8.1518583"><ele>212.5</ele><time>2026-03-29T13:57:55.007Z</time></trkpt><trkpt lat="45.0837433" lon="8.1519483"><ele>212.75</ele><time>2026-03-29T13:57:56.007Z</time></trkpt><trkpt lat="45.08362" lon="8.152035"><ele>213.0</ele><time>2026-03-29T13:57:57.007Z</time></trkpt><trkpt lat="45.0835017" lon="8.152125"><ele>213.0</ele><time>2026-03-29T13:57:58.005Z</time></trkpt><trkpt lat="45.083385" lon="8.1522083"><ele>213.0</ele><time>2026-03-29T13:57:59.006Z</time></trkpt><trkpt lat="45.08327" lon="8.15229"><ele>213.0</ele><time>2026-03-29T13:58:00.006Z</time></trkpt><trkpt lat="45.083155" lon="8.1523717"><ele>213.0</ele><time>2026-03-29T13:58:01.005Z</time></trkpt><trkpt lat="45.08304" lon="8.1524567"><ele>212.25</ele><time>2026-03-29T13:58:02.005Z</time></trkpt><trkpt lat="45.0829283" lon="8.1525483"><ele>211.5</ele><time>2026-03-29T13:58:03.007Z</time></trkpt><trkpt lat="45.0828233" lon="8.1526467"><ele>210.75</ele><time>2026-03-29T13:58:04.002Z</time></trkpt><trkpt lat="45.08272" lon="8.1527517"><ele>210.0</ele><time>2026-03-29T13:58:05.003Z</time></trkpt><trkpt lat="45.0826233" lon="8.1528633"><ele>210.0</ele><time>2026-03-29T13:58:06.002Z</time></trkpt><trkpt lat="45.0825267" lon="8.1529867"><ele>210.0</ele><time>2026-03-29T13:58:07.003Z</time></trkpt><trkpt lat="45.082435" lon="8.1531183"><ele>210.0</ele><time>2026-03-29T13:58:08.002Z</time></trkpt><trkpt lat="45.0823517" lon="8.15326"><ele>210.0</ele><time>2026-03-29T13:58:09.003Z</time></trkpt><trkpt lat="45.0822717" lon="8.15341"><ele>210.25</ele><time>2026-03-29T13:58:10.005Z</time></trkpt><trkpt lat="45.082195" lon="8.1535683"><ele>210.5</ele><time>2026-03-29T13:58:11.004Z</time></trkpt><trkpt lat="45.0821233" lon="8.1537333"><ele>210.75</ele><time>2026-03-29T13:58:12.004Z</time></trkpt><trkpt lat="45.0820517" lon="8.1539017"><ele>211.0</ele><time>2026-03-29T13:58:13.007Z</time></trkpt><trkpt lat="45.0819833" lon="8.1540733"><ele>211.0</ele><time>2026-03-29T13:58:14.005Z</time></trkpt><trkpt lat="45.0819167" lon="8.1542467"><ele>211.0</ele><time>2026-03-29T13:58:15.005Z</time></trkpt><trkpt lat="45.081855" lon="8.1544217"><ele>211.0</ele><time>2026-03-29T13:58:16.003Z</time></trkpt><trkpt lat="45.0818" lon="8.1545983"><ele>211.0</ele><time>2026-03-29T13:58:17.007Z</time></trkpt><trkpt lat="45.0817433" lon="8.15477"><ele>211.0</ele><time>2026-03-29T13:58:18.007Z</time></trkpt><trkpt lat="45.0816883" lon="8.1549483"><ele>211.0</ele><time>2026-03-29T13:58:19.007Z</time></trkpt><trkpt lat="45.0816333" lon="8.155125"><ele>211.0</ele><time>2026-03-29T13:58:20.006Z</time></trkpt><trkpt lat="45.0815783" lon="8.155305"><ele>211.0</ele><time>2026-03-29T13:58:21.009Z</time></trkpt><trkpt lat="45.0815233" lon="8.1554783"><ele>211.0</ele><time>2026-03-29T13:58:22.007Z</time></trkpt><trkpt lat="45.0814683" lon="8.1556517"><ele>211.0</ele><time>2026-03-29T13:58:23.006Z</time></trkpt><trkpt lat="45.0814133" lon="8.1558267"><ele>211.0</ele><time>2026-03-29T13:58:24.005Z</time></trkpt><trkpt lat="45.0813533" lon="8.1560017"><ele>211.0</ele><time>2026-03-29T13:58:25.005Z</time></trkpt><trkpt lat="45.0812883" lon="8.1561783"><ele>211.0</ele><time>2026-03-29T13:58:26.008Z</time></trkpt><trkpt lat="45.08123" lon="8.1563533"><ele>211.0</ele><time>2026-03-29T13:58:27.004Z</time></trkpt><trkpt lat="45.0811717" lon="8.1565283"><ele>211.0</ele><time>2026-03-29T13:58:28.004Z</time></trkpt><trkpt lat="45.0811167" lon="8.156705"><ele>211.0</ele><time>2026-03-29T13:58:29.002Z</time></trkpt><trkpt lat="45.081055" lon="8.1568767"><ele>211.25</ele><time>2026-03-29T13:58:30.009Z</time></trkpt><trkpt lat="45.0810017" lon="8.1570517"><ele>211.5</ele><time>2026-03-29T13:58:31.003Z</time></trkpt><trkpt lat="45.0809483" lon="8.1572317"><ele>211.75</ele><time>2026-03-29T13:58:32.001Z</time></trkpt><trkpt lat="45.080895" lon="8.15741"><ele>212.0</ele><time>2026-03-29T13:58:33.013Z</time></trkpt><trkpt lat="45.0808433" lon="8.157595"><ele>212.0</ele><time>2026-03-29T13:58:34.004Z</time></trkpt><trkpt lat="45.0808" lon="8.1577833"><ele>212.0</ele><time>2026-03-29T13:58:35.003Z</time></trkpt><trkpt lat="45.0807567" lon="8.1579733"><ele>212.0</ele><time>2026-03-29T13:58:36.006Z</time></trkpt><trkpt lat="45.08072" lon="8.1581667"><ele>212.0</ele><time>2026-03-29T13:58:37.006Z</time></trkpt><trkpt lat="45.0806933" lon="8.15837"><ele>210.0</ele><time>2026-03-29T13:58:38.007Z</time></trkpt><trkpt lat="45.080675" lon="8.1585783"><ele>208.0</ele><time>2026-03-29T13:58:39.009Z</time></trkpt><trkpt lat="45.0806633" lon="8.1587933"><ele>206.0</ele><time>2026-03-29T13:58:40.004Z</time></trkpt><trkpt lat="45.0806633" lon="8.1590117"><ele>205.66666666666669</ele><time>2026-03-29T13:58:41.003Z</time></trkpt><trkpt lat="45.0806733" lon="8.15923"><ele>205.33333333333331</ele><time>2026-03-29T13:58:42.003Z</time></trkpt><trkpt lat="45.0806883" lon="8.1594483"><ele>205.0</ele><time>2026-03-29T13:58:43.008Z</time></trkpt><trkpt lat="45.0807133" lon="8.1596683"><ele>205.0</ele><time>2026-03-29T13:58:44.006Z</time></trkpt><trkpt lat="45.0807467" lon="8.1598917"><ele>205.0</ele><time>2026-03-29T13:58:45.004Z</time></trkpt><trkpt lat="45.0807917" lon="8.1601133"><ele>205.0</ele><time>2026-03-29T13:58:46.005Z</time></trkpt><trkpt lat="45.08084" lon="8.16033"><ele>205.33333333333331</ele><time>2026-03-29T13:58:47.001Z</time></trkpt><trkpt lat="45.0808917" lon="8.1605517"><ele>205.66666666666669</ele><time>2026-03-29T13:58:48.006Z</time></trkpt><trkpt lat="45.080945" lon="8.1607633"><ele>206.0</ele><time>2026-03-29T13:58:49.005Z</time></trkpt><trkpt lat="45.0810017" lon="8.1609767"><ele>206.0</ele><time>2026-03-29T13:58:50.006Z</time></trkpt><trkpt lat="45.081055" lon="8.1611833"><ele>206.0</ele><time>2026-03-29T13:58:51.004Z</time></trkpt><trkpt lat="45.0811083" lon="8.1613883"><ele>206.0</ele><time>2026-03-29T13:58:52.005Z</time></trkpt><trkpt lat="45.0811633" lon="8.1615933"><ele>206.33333333333334</ele><time>2026-03-29T13:58:53.006Z</time></trkpt><trkpt lat="45.0812167" lon="8.1617933"><ele>206.66666666666669</ele><time>2026-03-29T13:58:54.005Z</time></trkpt><trkpt lat="45.0812717" lon="8.1619933"><ele>207.0</ele><time>2026-03-29T13:58:55.003Z</time></trkpt><trkpt lat="45.0813283" lon="8.1621917"><ele>205.33333333333331</ele><time>2026-03-29T13:58:56.003Z</time></trkpt><trkpt lat="45.081385" lon="8.1623883"><ele>203.66666666666666</ele><time>2026-03-29T13:58:57.009Z</time></trkpt><trkpt lat="45.0814383" lon="8.1625883"><ele>202.0</ele><time>2026-03-29T13:58:58.003Z</time></trkpt><trkpt lat="45.0814917" lon="8.1627883"><ele>202.0</ele><time>2026-03-29T13:58:59.003Z</time></trkpt><trkpt lat="45.08155" lon="8.1629967"><ele>202.0</ele><time>2026-03-29T13:59:00.008Z</time></trkpt><trkpt lat="45.081605" lon="8.1632033"><ele>202.0</ele><time>2026-03-29T13:59:01.003Z</time></trkpt><trkpt lat="45.0816583" lon="8.1634067"><ele>203.33333333333331</ele><time>2026-03-29T13:59:02.007Z</time></trkpt><trkpt lat="45.0817067" lon="8.1636117"><ele>204.66666666666669</ele><time>2026-03-29T13:59:03.007Z</time></trkpt><trkpt lat="45.0817617" lon="8.163815"><ele>206.0</ele><time>2026-03-29T13:59:04.006Z</time></trkpt><trkpt lat="45.0818183" lon="8.1640167"><ele>206.0</ele><time>2026-03-29T13:59:05.004Z</time></trkpt><trkpt lat="45.0818717" lon="8.1642217"><ele>206.0</ele><time>2026-03-29T13:59:06.011Z</time></trkpt><trkpt lat="45.0819233" lon="8.1644267"><ele>206.0</ele><time>2026-03-29T13:59:07.006Z</time></trkpt><trkpt lat="45.0819783" lon="8.1646367"><ele>206.0</ele><time>2026-03-29T13:59:08.006Z</time></trkpt><trkpt lat="45.0820317" lon="8.164845"><ele>206.0</ele><time>2026-03-29T13:59:09.006Z</time></trkpt><trkpt lat="45.0820817" lon="8.1650467"><ele>206.0</ele><time>2026-03-29T13:59:10.005Z</time></trkpt><trkpt lat="45.0821283" lon="8.1652483"><ele>206.25</ele><time>2026-03-29T13:59:11Z</time></trkpt><trkpt lat="45.0821783" lon="8.1654467"><ele>206.5</ele><time>2026-03-29T13:59:12.005Z</time></trkpt><trkpt lat="45.0822267" lon="8.1656467"><ele>206.75</ele><time>2026-03-29T13:59:13.006Z</time></trkpt><trkpt lat="45.0822733" lon="8.165845"><ele>207.0</ele><time>2026-03-29T13:59:14.004Z</time></trkpt><trkpt lat="45.082325" lon="8.166045"><ele>207.0</ele><time>2026-03-29T13:59:15.004Z</time></trkpt><trkpt lat="45.0823767" lon="8.1662467"><ele>207.0</ele><time>2026-03-29T13:59:16.006Z</time></trkpt><trkpt lat="45.0824217" lon="8.166445"><ele>207.0</ele><time>2026-03-29T13:59:17.007Z</time></trkpt><trkpt lat="45.0824733" lon="8.1666467"><ele>206.66666666666669</ele><time>2026-03-29T13:59:18.003Z</time></trkpt><trkpt lat="45.0825267" lon="8.166855"><ele>206.33333333333334</ele><time>2026-03-29T13:59:19.004Z</time></trkpt><trkpt lat="45.0825817" lon="8.16707"><ele>206.0</ele><time>2026-03-29T13:59:20.006Z</time></trkpt><trkpt lat="45.0826383" lon="8.1672917"><ele>205.33333333333334</ele><time>2026-03-29T13:59:21.001Z</time></trkpt><trkpt lat="45.0826967" lon="8.1675133"><ele>204.66666666666669</ele><time>2026-03-29T13:59:22.008Z</time></trkpt><trkpt lat="45.0827617" lon="8.1677367"><ele>204.0</ele><time>2026-03-29T13:59:23.004Z</time></trkpt><trkpt lat="45.0828283" lon="8.1679617"><ele>204.0</ele><time>2026-03-29T13:59:24.005Z</time></trkpt><trkpt lat="45.082895" lon="8.16819"><ele>204.0</ele><time>2026-03-29T13:59:25.005Z</time></trkpt><trkpt lat="45.0829683" lon="8.1684117"><ele>204.0</ele><time>2026-03-29T13:59:26.01Z</time></trkpt><trkpt lat="45.08304" lon="8.1686317"><ele>204.0</ele><time>2026-03-29T13:59:27.006Z</time></trkpt><trkpt lat="45.083115" lon="8.16885"><ele>204.0</ele><time>2026-03-29T13:59:28.006Z</time></trkpt><trkpt lat="45.0831933" lon="8.1690667"><ele>204.0</ele><time>2026-03-29T13:59:29.01Z</time></trkpt><trkpt lat="45.0832733" lon="8.16928"><ele>203.33333333333331</ele><time>2026-03-29T13:59:30.008Z</time></trkpt><trkpt lat="45.083355" lon="8.1694867"><ele>202.66666666666666</ele><time>2026-03-29T13:59:31.006Z</time></trkpt><trkpt lat="45.0834383" lon="8.1696933"><ele>202.0</ele><time>2026-03-29T13:59:32.006Z</time></trkpt><trkpt lat="45.0835217" lon="8.1699017"><ele>201.33333333333331</ele><time>2026-03-29T13:59:33.011Z</time></trkpt><trkpt lat="45.083605" lon="8.170105"><ele>200.66666666666669</ele><time>2026-03-29T13:59:34.006Z</time></trkpt><trkpt lat="45.0836883" lon="8.170305"><ele>200.0</ele><time>2026-03-29T13:59:35.007Z</time></trkpt><trkpt lat="45.0837733" lon="8.170505"><ele>200.33333333333334</ele><time>2026-03-29T13:59:36.007Z</time></trkpt><trkpt lat="45.0838633" lon="8.1707"><ele>200.66666666666669</ele><time>2026-03-29T13:59:37.01Z</time></trkpt><trkpt lat="45.0839533" lon="8.1708967"><ele>201.0</ele><time>2026-03-29T13:59:38.01Z</time></trkpt><trkpt lat="45.084045" lon="8.17109"><ele>200.33333333333331</ele><time>2026-03-29T13:59:39.006Z</time></trkpt><trkpt lat="45.0841367" lon="8.171285"><ele>199.66666666666666</ele><time>2026-03-29T13:59:40.004Z</time></trkpt><trkpt lat="45.0842283" lon="8.1714817"><ele>199.0</ele><time>2026-03-29T13:59:41.008Z</time></trkpt><trkpt lat="45.084325" lon="8.1716767"><ele>199.0</ele><time>2026-03-29T13:59:42.007Z</time></trkpt><trkpt lat="45.0844217" lon="8.17187"><ele>199.0</ele><time>2026-03-29T13:59:43.005Z</time></trkpt><trkpt lat="45.0845233" lon="8.17206"><ele>199.0</ele><time>2026-03-29T13:59:44.006Z</time></trkpt><trkpt lat="45.084625" lon="8.17225"><ele>199.33333333333331</ele><time>2026-03-29T13:59:45.003Z</time></trkpt><trkpt lat="45.08473" lon="8.172435"><ele>199.66666666666669</ele><time>2026-03-29T13:59:46.004Z</time></trkpt><trkpt lat="45.0848367" lon="8.17262"><ele>200.0</ele><time>2026-03-29T13:59:47.007Z</time></trkpt><trkpt lat="45.0849433" lon="8.1728"><ele>200.33333333333334</ele><time>2026-03-29T13:59:48.007Z</time></trkpt><trkpt lat="45.08505" lon="8.1729767"><ele>200.66666666666669</ele><time>2026-03-29T13:59:49.004Z</time></trkpt><trkpt lat="45.0851533" lon="8.1731517"><ele>201.0</ele><time>2026-03-29T13:59:50.007Z</time></trkpt><trkpt lat="45.0852583" lon="8.1733283"><ele>201.0</ele><time>2026-03-29T13:59:51.005Z</time></trkpt><trkpt lat="45.0853617" lon="8.1735"><ele>201.0</ele><time>2026-03-29T13:59:52.003Z</time></trkpt><trkpt lat="45.0854633" lon="8.1736667"><ele>201.0</ele><time>2026-03-29T13:59:53.008Z</time></trkpt><trkpt lat="45.0855667" lon="8.1738267"><ele>201.0</ele><time>2026-03-29T13:59:54Z</time></trkpt><trkpt lat="45.0856733" lon="8.173985"><ele>201.0</ele><time>2026-03-29T13:59:55.003Z</time></trkpt><trkpt lat="45.0857783" lon="8.1741433"><ele>201.0</ele><time>2026-03-29T13:59:56.001Z</time></trkpt><trkpt lat="45.085885" lon="8.1742983"><ele>200.75</ele><time>2026-03-29T13:59:57.007Z</time></trkpt><trkpt lat="45.0859933" lon="8.1744483"><ele>200.5</ele><time>2026-03-29T13:59:58.004Z</time></trkpt><trkpt lat="45.0860983" lon="8.1745933"><ele>200.25</ele><time>2026-03-29T13:59:59.003Z</time></trkpt><trkpt lat="45.0862033" lon="8.174735"><ele>200.0</ele><time>2026-03-29T14:00:00.013Z</time></trkpt><trkpt lat="45.0863033" lon="8.174875"><ele>199.5</ele><time>2026-03-29T14:00:01Z</time></trkpt><trkpt lat="45.086405" lon="8.1750117"><ele>199.0</ele><time>2026-03-29T14:00:02.003Z</time></trkpt><trkpt lat="45.0865033" lon="8.1751367"><ele>198.5</ele><time>2026-03-29T14:00:03.005Z</time></trkpt><trkpt lat="45.0865983" lon="8.1752567"><ele>198.0</ele><time>2026-03-29T14:00:04.005Z</time></trkpt><trkpt lat="45.08669" lon="8.17537"><ele>198.2</ele><time>2026-03-29T14:00:05.007Z</time></trkpt><trkpt lat="45.0867767" lon="8.17548"><ele>198.4</ele><time>2026-03-29T14:00:06.004Z</time></trkpt><trkpt lat="45.0868617" lon="8.1755817"><ele>198.6</ele><time>2026-03-29T14:00:07.006Z</time></trkpt><trkpt lat="45.086945" lon="8.1756817"><ele>198.79999999999998</ele><time>2026-03-29T14:00:08.006Z</time></trkpt><trkpt lat="45.087015" lon="8.17578"><ele>199.0</ele><time>2026-03-29T14:00:09.007Z</time></trkpt><trkpt lat="45.08708" lon="8.1758633"><ele>198.99999999999997</ele><time>2026-03-29T14:00:10.011Z</time></trkpt><trkpt lat="45.0871417" lon="8.1759283"><ele>199.0</ele><time>2026-03-29T14:00:11.007Z</time></trkpt><trkpt lat="45.0871917" lon="8.1759917"><ele>199.0</ele><time>2026-03-29T14:00:12.007Z</time></trkpt><trkpt lat="45.08724" lon="8.176055"><ele>199.0</ele><time>2026-03-29T14:00:13.011Z</time></trkpt><trkpt lat="45.0872917" lon="8.1761217"><ele>199.0</ele><time>2026-03-29T14:00:14.008Z</time></trkpt><trkpt lat="45.0873467" lon="8.1761867"><ele>198.99999999999997</ele><time>2026-03-29T14:00:15.006Z</time></trkpt><trkpt lat="45.0874017" lon="8.1762533"><ele>199.0</ele><time>2026-03-29T14:00:16.005Z</time></trkpt><trkpt lat="45.0874467" lon="8.1763233"><ele>199.0</ele><time>2026-03-29T14:00:17.009Z</time></trkpt><trkpt lat="45.0874933" lon="8.1764667"><ele>199.0</ele><time>2026-03-29T14:00:19.004Z</time></trkpt><trkpt lat="45.08743" lon="8.1766467"><ele>199.0</ele><time>2026-03-29T14:00:21.004Z</time></trkpt><trkpt lat="45.0873817" lon="8.176765"><ele>199.0</ele><time>2026-03-29T14:00:22.005Z</time></trkpt><trkpt lat="45.0873117" lon="8.1769117"><ele>198.5</ele><time>2026-03-29T14:00:23.006Z</time></trkpt><trkpt lat="45.087245" lon="8.1770667"><ele>198.0</ele><time>2026-03-29T14:00:24.004Z</time></trkpt><trkpt lat="45.08717" lon="8.177225"><ele>197.5</ele><time>2026-03-29T14:00:25.006Z</time></trkpt><trkpt lat="45.0870917" lon="8.1774017"><ele>197.0</ele><time>2026-03-29T14:00:26.006Z</time></trkpt><trkpt lat="45.0870083" lon="8.1775983"><ele>196.66666666666669</ele><time>2026-03-29T14:00:27.005Z</time></trkpt><trkpt lat="45.08692" lon="8.1778067"><ele>196.33333333333331</ele><time>2026-03-29T14:00:28.007Z</time></trkpt><trkpt lat="45.0868267" lon="8.1780117"><ele>196.0</ele><time>2026-03-29T14:00:29.002Z</time></trkpt><trkpt lat="45.086735" lon="8.1782217"><ele>196.0</ele><time>2026-03-29T14:00:30.007Z</time></trkpt><trkpt lat="45.08664" lon="8.1784283"><ele>196.0</ele><time>2026-03-29T14:00:31.006Z</time></trkpt><trkpt lat="45.0865467" lon="8.17864"><ele>196.0</ele><time>2026-03-29T14:00:32.005Z</time></trkpt><trkpt lat="45.0864633" lon="8.17885"><ele>196.0</ele><time>2026-03-29T14:00:33.007Z</time></trkpt><trkpt lat="45.086375" lon="8.1790567"><ele>196.0</ele><time>2026-03-29T14:00:34.008Z</time></trkpt><trkpt lat="45.0862883" lon="8.17926"><ele>196.0</ele><time>2026-03-29T14:00:35.011Z</time></trkpt><trkpt lat="45.0862017" lon="8.1794633"><ele>196.0</ele><time>2026-03-29T14:00:36.004Z</time></trkpt><trkpt lat="45.0861083" lon="8.1796683"><ele>196.0</ele><time>2026-03-29T14:00:37.011Z</time></trkpt><trkpt lat="45.086025" lon="8.17987"><ele>196.0</ele><time>2026-03-29T14:00:38.006Z</time></trkpt><trkpt lat="45.0859433" lon="8.1800683"><ele>196.33333333333331</ele><time>2026-03-29T14:00:39.01Z</time></trkpt><trkpt lat="45.0858617" lon="8.1802633"><ele>196.66666666666669</ele><time>2026-03-29T14:00:40.005Z</time></trkpt><trkpt lat="45.08578" lon="8.180455"><ele>197.0</ele><time>2026-03-29T14:00:41.005Z</time></trkpt><trkpt lat="45.085695" lon="8.180645"><ele>199.0</ele><time>2026-03-29T14:00:42.01Z</time></trkpt><trkpt lat="45.08561" lon="8.18084"><ele>201.0</ele><time>2026-03-29T14:00:43.008Z</time></trkpt><trkpt lat="45.0855283" lon="8.1810233"><ele>203.0</ele><time>2026-03-29T14:00:44.01Z</time></trkpt><trkpt lat="45.0854417" lon="8.181195"><ele>203.0</ele><time>2026-03-29T14:00:45.007Z</time></trkpt><trkpt lat="45.0853517" lon="8.1813533"><ele>203.0</ele><time>2026-03-29T14:00:46.004Z</time></trkpt><trkpt lat="45.0852517" lon="8.1814933"><ele>203.0</ele><time>2026-03-29T14:00:47.003Z</time></trkpt><trkpt lat="45.0851517" lon="8.1816133"><ele>203.0</ele><time>2026-03-29T14:00:48.005Z</time></trkpt><trkpt lat="45.08505" lon="8.1817117"><ele>204.0</ele><time>2026-03-29T14:00:49.008Z</time></trkpt><trkpt lat="45.0849483" lon="8.1817833"><ele>205.0</ele><time>2026-03-29T14:00:50.004Z</time></trkpt><trkpt lat="45.0848483" lon="8.1818283"><ele>206.0</ele><time>2026-03-29T14:00:51.003Z</time></trkpt><trkpt lat="45.0847467" lon="8.18184"><ele>207.0</ele><time>2026-03-29T14:00:52.004Z</time></trkpt><trkpt lat="45.08464" lon="8.1817717"><ele>208.0</ele><time>2026-03-29T14:00:53.006Z</time></trkpt><trkpt lat="45.0845617" lon="8.1816717"><ele>209.75</ele><time>2026-03-29T14:00:54.007Z</time></trkpt><trkpt lat="45.0845033" lon="8.1815333"><ele>211.5</ele><time>2026-03-29T14:00:55.003Z</time></trkpt><trkpt lat="45.0844583" lon="8.1813567"><ele>213.25</ele><time>2026-03-29T14:00:56.008Z</time></trkpt><trkpt lat="45.084425" lon="8.181175"><ele>215.0</ele><time>2026-03-29T14:00:57.004Z</time></trkpt><trkpt lat="45.0843983" lon="8.18099"><ele>215.0</ele><time>2026-03-29T14:00:58.008Z</time></trkpt><trkpt lat="45.0843633" lon="8.1808433"><ele>215.0</ele><time>2026-03-29T14:00:59.005Z</time></trkpt><trkpt lat="45.0843183" lon="8.1807317"><ele>215.0</ele><time>2026-03-29T14:01:00.011Z</time></trkpt><trkpt lat="45.08427" lon="8.1806367"><ele>215.0</ele><time>2026-03-29T14:01:01.006Z</time></trkpt><trkpt lat="45.0842133" lon="8.1805683"><ele>215.0</ele><time>2026-03-29T14:01:02.005Z</time></trkpt><trkpt lat="45.08413" lon="8.180635"><ele>218.6</ele><time>2026-03-29T14:01:03.006Z</time></trkpt><trkpt lat="45.0840567" lon="8.1806917"><ele>222.2</ele><time>2026-03-29T14:01:04.004Z</time></trkpt><trkpt lat="45.084005" lon="8.1807767"><ele>225.8</ele><time>2026-03-29T14:01:05.003Z</time></trkpt><trkpt lat="45.08396" lon="8.1809183"><ele>229.4</ele><time>2026-03-29T14:01:06.003Z</time></trkpt><trkpt lat="45.0839233" lon="8.1810783"><ele>233.0</ele><time>2026-03-29T14:01:07.005Z</time></trkpt><trkpt lat="45.0838767" lon="8.18119"><ele>233.0</ele><time>2026-03-29T14:01:08.004Z</time></trkpt><trkpt lat="45.083825" lon="8.1812883"><ele>233.0</ele><time>2026-03-29T14:01:09.015Z</time></trkpt><trkpt lat="45.0837683" lon="8.181375"><ele>233.0</ele><time>2026-03-29T14:01:10.004Z</time></trkpt><trkpt lat="45.08371" lon="8.18141"><ele>233.0</ele><time>2026-03-29T14:01:11.004Z</time></trkpt><trkpt lat="45.0836483" lon="8.1813883"><ele>233.0</ele><time>2026-03-29T14:01:12.003Z</time></trkpt><trkpt lat="45.0835867" lon="8.18118"><ele>233.0</ele><time>2026-03-29T14:01:13.004Z</time></trkpt><trkpt lat="45.0835433" lon="8.1810667"><ele>233.0</ele><time>2026-03-29T14:01:14.003Z</time></trkpt><trkpt lat="45.0835417" lon="8.1809267"><ele>233.0</ele><time>2026-03-29T14:01:15.005Z</time></trkpt><trkpt lat="45.0835517" lon="8.1807917"><ele>233.0</ele><time>2026-03-29T14:01:16.006Z</time></trkpt><trkpt lat="45.0836" lon="8.1806567"><ele>233.0</ele><time>2026-03-29T14:01:17.009Z</time></trkpt><trkpt lat="45.0836367" lon="8.1805267"><ele>232.4</ele><time>2026-03-29T14:01:18.006Z</time></trkpt><trkpt lat="45.0836533" lon="8.1803917"><ele>231.8</ele><time>2026-03-29T14:01:19.005Z</time></trkpt><trkpt lat="45.083645" lon="8.18026"><ele>231.2</ele><time>2026-03-29T14:01:20.008Z</time></trkpt><trkpt lat="45.0836167" lon="8.1801333"><ele>230.6</ele><time>2026-03-29T14:01:21.005Z</time></trkpt><trkpt lat="45.0835567" lon="8.1800367"><ele>230.0</ele><time>2026-03-29T14:01:22.007Z</time></trkpt><trkpt lat="45.0834917" lon="8.1799383"><ele>228.0</ele><time>2026-03-29T14:01:23.003Z</time></trkpt><trkpt lat="45.083415" lon="8.1798383"><ele>226.0</ele><time>2026-03-29T14:01:24.006Z</time></trkpt><trkpt lat="45.0833333" lon="8.1797433"><ele>224.0</ele><time>2026-03-29T14:01:25.007Z</time></trkpt><trkpt lat="45.08325" lon="8.1796583"><ele>222.0</ele><time>2026-03-29T14:01:26.004Z</time></trkpt><trkpt lat="45.0831617" lon="8.1795917"><ele>220.0</ele><time>2026-03-29T14:01:27.005Z</time></trkpt><trkpt lat="45.08306" lon="8.179555"><ele>220.0</ele><time>2026-03-29T14:01:28.006Z</time></trkpt><trkpt lat="45.082955" lon="8.1795367"><ele>220.0</ele><time>2026-03-29T14:01:29.007Z</time></trkpt><trkpt lat="45.08285" lon="8.1795533"><ele>220.0</ele><time>2026-03-29T14:01:30.006Z</time></trkpt><trkpt lat="45.08275" lon="8.1795983"><ele>220.0</ele><time>2026-03-29T14:01:31.007Z</time></trkpt><trkpt lat="45.082655" lon="8.17967"><ele>220.0</ele><time>2026-03-29T14:01:32.004Z</time></trkpt><trkpt lat="45.0825783" lon="8.1797667"><ele>221.75</ele><time>2026-03-29T14:01:33.006Z</time></trkpt><trkpt lat="45.0825067" lon="8.1798917"><ele>223.5</ele><time>2026-03-29T14:01:34.005Z</time></trkpt><trkpt lat="45.08245" lon="8.18005"><ele>225.25</ele><time>2026-03-29T14:01:35.008Z</time></trkpt><trkpt lat="45.0823917" lon="8.180235"><ele>227.0</ele><time>2026-03-29T14:01:36.001Z</time></trkpt><trkpt lat="45.0823383" lon="8.1804383"><ele>227.0</ele><time>2026-03-29T14:01:37.005Z</time></trkpt><trkpt lat="45.08229" lon="8.1806417"><ele>227.0</ele><time>2026-03-29T14:01:38.005Z</time></trkpt><trkpt lat="45.08224" lon="8.180835"><ele>227.0</ele><time>2026-03-29T14:01:39.005Z</time></trkpt><trkpt lat="45.08218" lon="8.1809967"><ele>227.0</ele><time>2026-03-29T14:01:40.004Z</time></trkpt><trkpt lat="45.0820983" lon="8.1811233"><ele>230.25</ele><time>2026-03-29T14:01:41.008Z</time></trkpt><trkpt lat="45.0819883" lon="8.1812267"><ele>233.5</ele><time>2026-03-29T14:01:42.002Z</time></trkpt><trkpt lat="45.0818683" lon="8.1813267"><ele>236.75</ele><time>2026-03-29T14:01:43.003Z</time></trkpt><trkpt lat="45.08175" lon="8.181435"><ele>240.0</ele><time>2026-03-29T14:01:44.003Z</time></trkpt><trkpt lat="45.0816417" lon="8.1815583"><ele>242.0</ele><time>2026-03-29T14:01:45.005Z</time></trkpt><trkpt lat="45.0815467" lon="8.18171"><ele>244.0</ele><time>2026-03-29T14:01:46.004Z</time></trkpt><trkpt lat="45.0814633" lon="8.1818767"><ele>246.0</ele><time>2026-03-29T14:01:47.009Z</time></trkpt><trkpt lat="45.0813817" lon="8.18202"><ele>248.0</ele><time>2026-03-29T14:01:48.01Z</time></trkpt><trkpt lat="45.0813067" lon="8.1821283"><ele>248.0</ele><time>2026-03-29T14:01:49.007Z</time></trkpt><trkpt lat="45.0812233" lon="8.1821933"><ele>248.0</ele><time>2026-03-29T14:01:50.004Z</time></trkpt><trkpt lat="45.081125" lon="8.18222"><ele>248.0</ele><time>2026-03-29T14:01:51.01Z</time></trkpt><trkpt lat="45.081015" lon="8.1821933"><ele>248.0</ele><time>2026-03-29T14:01:52.005Z</time></trkpt><trkpt lat="45.080905" lon="8.1821317"><ele>248.0</ele><time>2026-03-29T14:01:53.005Z</time></trkpt><trkpt lat="45.0808" lon="8.18209"><ele>248.33333333333334</ele><time>2026-03-29T14:01:54.012Z</time></trkpt><trkpt lat="45.0807033" lon="8.1820867"><ele>248.66666666666669</ele><time>2026-03-29T14:01:55.004Z</time></trkpt><trkpt lat="45.0806217" lon="8.18211"><ele>249.0</ele><time>2026-03-29T14:01:56.003Z</time></trkpt><trkpt lat="45.08054" lon="8.182155"><ele>249.33333333333331</ele><time>2026-03-29T14:01:57.007Z</time></trkpt><trkpt lat="45.0804667" lon="8.1822133"><ele>249.66666666666666</ele><time>2026-03-29T14:01:58.004Z</time></trkpt><trkpt lat="45.0804033" lon="8.18231"><ele>250.0</ele><time>2026-03-29T14:01:59.005Z</time></trkpt><trkpt lat="45.0803633" lon="8.1824933"><ele>252.2</ele><time>2026-03-29T14:02:00.009Z</time></trkpt><trkpt lat="45.0803283" lon="8.1826467"><ele>254.4</ele><time>2026-03-29T14:02:01.01Z</time></trkpt><trkpt lat="45.0802883" lon="8.18279"><ele>256.6</ele><time>2026-03-29T14:02:02.006Z</time></trkpt><trkpt lat="45.0802417" lon="8.1829217"><ele>258.8</ele><time>2026-03-29T14:02:03.006Z</time></trkpt><trkpt lat="45.08019" lon="8.1830367"><ele>261.0</ele><time>2026-03-29T14:02:04.01Z</time></trkpt><trkpt lat="45.0801183" lon="8.18313"><ele>263.2</ele><time>2026-03-29T14:02:05.007Z</time></trkpt><trkpt lat="45.080035" lon="8.1831833"><ele>265.40000000000003</ele><time>2026-03-29T14:02:06.008Z</time></trkpt><trkpt lat="45.0799467" lon="8.1832217"><ele>267.6</ele><time>2026-03-29T14:02:07.007Z</time></trkpt><trkpt lat="45.07986" lon="8.1832417"><ele>269.8</ele><time>2026-03-29T14:02:08.009Z</time></trkpt><trkpt lat="45.0797683" lon="8.1832317"><ele>272.0</ele><time>2026-03-29T14:02:09.01Z</time></trkpt><trkpt lat="45.0796667" lon="8.1831817"><ele>269.6</ele><time>2026-03-29T14:02:10.012Z</time></trkpt><trkpt lat="45.0796133" lon="8.1830017"><ele>267.2</ele><time>2026-03-29T14:02:11.008Z</time></trkpt><trkpt lat="45.0795333" lon="8.1829617"><ele>264.8</ele><time>2026-03-29T14:02:12.012Z</time></trkpt><trkpt lat="45.0794583" lon="8.1829183"><ele>262.4</ele><time>2026-03-29T14:02:13.007Z</time></trkpt><trkpt lat="45.079385" lon="8.1829233"><ele>260.0</ele><time>2026-03-29T14:02:14.002Z</time></trkpt><trkpt lat="45.0793267" lon="8.1829983"><ele>260.0</ele><time>2026-03-29T14:02:15.005Z</time></trkpt><trkpt lat="45.0792767" lon="8.1831117"><ele>260.0</ele><time>2026-03-29T14:02:16.004Z</time></trkpt><trkpt lat="45.0792417" lon="8.183275"><ele>260.0</ele><time>2026-03-29T14:02:17.003Z</time></trkpt><trkpt lat="45.0792533" lon="8.18339"><ele>260.0</ele><time>2026-03-29T14:02:18.002Z</time></trkpt><trkpt lat="45.0792667" lon="8.1834883"><ele>260.0</ele><time>2026-03-29T14:02:19.004Z</time></trkpt><trkpt lat="45.0793617" lon="8.1834867"><ele>262.33333333333337</ele><time>2026-03-29T14:02:21.004Z</time></trkpt><trkpt lat="45.0794617" lon="8.1833633"><ele>264.6666666666667</ele><time>2026-03-29T14:02:23.005Z</time></trkpt><trkpt lat="45.079515" lon="8.183305"><ele>267.0</ele><time>2026-03-29T14:02:24.004Z</time></trkpt><trkpt lat="45.0795867" lon="8.1833033"><ele>269.3333333333333</ele><time>2026-03-29T14:02:25.006Z</time></trkpt><trkpt lat="45.0796583" lon="8.1833217"><ele>271.66666666666663</ele><time>2026-03-29T14:02:26.008Z</time></trkpt><trkpt lat="45.0797233" lon="8.1834267"><ele>274.0</ele><time>2026-03-29T14:02:27.011Z</time></trkpt><trkpt lat="45.0797933" lon="8.1835183"><ele>274.0</ele><time>2026-03-29T14:02:28.004Z</time></trkpt><trkpt lat="45.079875" lon="8.1836183"><ele>274.0</ele><time>2026-03-29T14:02:29.003Z</time></trkpt><trkpt lat="45.07996" lon="8.1837217"><ele>274.0</ele><time>2026-03-29T14:02:30.005Z</time></trkpt><trkpt lat="45.0800533" lon="8.18381"><ele>274.0</ele><time>2026-03-29T14:02:31.005Z</time></trkpt><trkpt lat="45.0801483" lon="8.18386"><ele>274.0</ele><time>2026-03-29T14:02:32.007Z</time></trkpt><trkpt lat="45.0802433" lon="8.1838883"><ele>273.5</ele><time>2026-03-29T14:02:33.003Z</time></trkpt><trkpt lat="45.0803467" lon="8.1838917"><ele>273.0</ele><time>2026-03-29T14:02:34.003Z</time></trkpt><trkpt lat="45.0804583" lon="8.18388"><ele>272.5</ele><time>2026-03-29T14:02:35.003Z</time></trkpt><trkpt lat="45.0805733" lon="8.1838283"><ele>272.0</ele><time>2026-03-29T14:02:36.006Z</time></trkpt><trkpt lat="45.0806817" lon="8.1837417"><ele>273.6</ele><time>2026-03-29T14:02:37.003Z</time></trkpt><trkpt lat="45.08079" lon="8.18365"><ele>275.2</ele><time>2026-03-29T14:02:38.005Z</time></trkpt><trkpt lat="45.0808933" lon="8.18357"><ele>276.8</ele><time>2026-03-29T14:02:39.005Z</time></trkpt><trkpt lat="45.080975" lon="8.1835283"><ele>278.4</ele><time>2026-03-29T14:02:40.004Z</time></trkpt><trkpt lat="45.0810517" lon="8.1835017"><ele>280.0</ele><time>2026-03-29T14:02:41.008Z</time></trkpt><trkpt lat="45.0811233" lon="8.18357"><ele>280.0</ele><time>2026-03-29T14:02:42.004Z</time></trkpt><trkpt lat="45.0811817" lon="8.1836467"><ele>280.0</ele><time>2026-03-29T14:02:43.003Z</time></trkpt><trkpt lat="45.08124" lon="8.18373"><ele>280.0</ele><time>2026-03-29T14:02:44.005Z</time></trkpt><trkpt lat="45.0813167" lon="8.1838117"><ele>280.0</ele><time>2026-03-29T14:02:45.011Z</time></trkpt><trkpt lat="45.081405" lon="8.1838567"><ele>280.0</ele><time>2026-03-29T14:02:46.004Z</time></trkpt><trkpt lat="45.0815067" lon="8.1838667"><ele>281.25</ele><time>2026-03-29T14:02:47.003Z</time></trkpt><trkpt lat="45.0816117" lon="8.1838517"><ele>282.5</ele><time>2026-03-29T14:02:48.006Z</time></trkpt><trkpt lat="45.0817167" lon="8.1837983"><ele>283.75</ele><time>2026-03-29T14:02:49.007Z</time></trkpt><trkpt lat="45.0818267" lon="8.18372"><ele>285.0</ele><time>2026-03-29T14:02:50.006Z</time></trkpt><trkpt lat="45.08194" lon="8.183625"><ele>285.0</ele><time>2026-03-29T14:02:51.006Z</time></trkpt><trkpt lat="45.082055" lon="8.183525"><ele>285.0</ele><time>2026-03-29T14:02:52.007Z</time></trkpt><trkpt lat="45.0821567" lon="8.1834233"><ele>285.0</ele><time>2026-03-29T14:02:53.004Z</time></trkpt><trkpt lat="45.0822383" lon="8.1833283"><ele>285.0</ele><time>2026-03-29T14:02:54.009Z</time></trkpt><trkpt lat="45.082295" lon="8.1832433"><ele>285.0</ele><time>2026-03-29T14:02:55.005Z</time></trkpt><trkpt lat="45.082365" lon="8.183185"><ele>285.0</ele><time>2026-03-29T14:02:56.006Z</time></trkpt><trkpt lat="45.08247" lon="8.1832167"><ele>285.0</ele><time>2026-03-29T14:02:58.002Z</time></trkpt><trkpt lat="45.08249" lon="8.18336"><ele>285.0</ele><time>2026-03-29T14:03:00.009Z</time></trkpt><trkpt lat="45.082435" lon="8.1835"><ele>285.0</ele><time>2026-03-29T14:03:02.006Z</time></trkpt><trkpt lat="45.0823617" lon="8.1835583"><ele>285.0</ele><time>2026-03-29T14:03:03.004Z</time></trkpt><trkpt lat="45.0822533" lon="8.18362"><ele>285.0</ele><time>2026-03-29T14:03:04.004Z</time></trkpt><trkpt lat="45.08212" lon="8.18369"><ele>285.0</ele><time>2026-03-29T14:03:05.003Z</time></trkpt><trkpt lat="45.0820133" lon="8.1837917"><ele>285.0</ele><time>2026-03-29T14:03:06.002Z</time></trkpt><trkpt lat="45.0818867" lon="8.183915"><ele>285.0</ele><time>2026-03-29T14:03:07.009Z</time></trkpt><trkpt lat="45.08179" lon="8.1840367"><ele>288.25</ele><time>2026-03-29T14:03:08.007Z</time></trkpt><trkpt lat="45.0816967" lon="8.184155"><ele>291.5</ele><time>2026-03-29T14:03:09.006Z</time></trkpt><trkpt lat="45.0816067" lon="8.1842533"><ele>294.75</ele><time>2026-03-29T14:03:10.008Z</time></trkpt><trkpt lat="45.0815" lon="8.1843083"><ele>298.0</ele><time>2026-03-29T14:03:11.006Z</time></trkpt><trkpt lat="45.0813883" lon="8.184335"><ele>298.0</ele><time>2026-03-29T14:03:12.006Z</time></trkpt><trkpt lat="45.08128" lon="8.1843133"><ele>298.0</ele><time>2026-03-29T14:03:13.008Z</time></trkpt><trkpt lat="45.0811833" lon="8.1843017"><ele>298.0</ele><time>2026-03-29T14:03:14.002Z</time></trkpt><trkpt lat="45.0810917" lon="8.184305"><ele>298.0</ele><time>2026-03-29T14:03:15.004Z</time></trkpt><trkpt lat="45.081" lon="8.18434"><ele>298.0</ele><time>2026-03-29T14:03:16.004Z</time></trkpt><trkpt lat="45.080905" lon="8.1844267"><ele>298.0</ele><time>2026-03-29T14:03:17.003Z</time></trkpt><trkpt lat="45.0808" lon="8.1845383"><ele>298.0</ele><time>2026-03-29T14:03:18.004Z</time></trkpt><trkpt lat="45.08069" lon="8.1846667"><ele>298.0</ele><time>2026-03-29T14:03:19.006Z</time></trkpt><trkpt lat="45.080575" lon="8.1847883"><ele>298.0</ele><time>2026-03-29T14:03:20.006Z</time></trkpt><trkpt lat="45.0804417" lon="8.1848917"><ele>301.25</ele><time>2026-03-29T14:03:21.011Z</time></trkpt><trkpt lat="45.0803033" lon="8.1849867"><ele>304.5</ele><time>2026-03-29T14:03:22.002Z</time></trkpt><trkpt lat="45.0801733" lon="8.185075"><ele>307.75</ele><time>2026-03-29T14:03:23.006Z</time></trkpt><trkpt lat="45.0800617" lon="8.1851767"><ele>311.0</ele><time>2026-03-29T14:03:24.002Z</time></trkpt><trkpt lat="45.0799717" lon="8.185305"><ele>312.5</ele><time>2026-03-29T14:03:25.008Z</time></trkpt><trkpt lat="45.079895" lon="8.1854333"><ele>314.0</ele><time>2026-03-29T14:03:26.005Z</time></trkpt><trkpt lat="45.07984" lon="8.1855867"><ele>315.5</ele><time>2026-03-29T14:03:27.001Z</time></trkpt><trkpt lat="45.0797983" lon="8.1857483"><ele>317.0</ele><time>2026-03-29T14:03:28.004Z</time></trkpt><trkpt lat="45.0797617" lon="8.18592"><ele>319.5</ele><time>2026-03-29T14:03:29.006Z</time></trkpt><trkpt lat="45.079745" lon="8.1861"><ele>322.0</ele><time>2026-03-29T14:03:30.006Z</time></trkpt><trkpt lat="45.0797633" lon="8.1862933"><ele>324.5</ele><time>2026-03-29T14:03:31.002Z</time></trkpt><trkpt lat="45.0798517" lon="8.1864767"><ele>327.0</ele><time>2026-03-29T14:03:32.01Z</time></trkpt><trkpt lat="45.0799017" lon="8.1866467"><ele>326.0</ele><time>2026-03-29T14:03:33.009Z</time></trkpt><trkpt lat="45.079985" lon="8.1868017"><ele>325.0</ele><time>2026-03-29T14:03:34.005Z</time></trkpt><trkpt lat="45.08003" lon="8.18695"><ele>324.0</ele><time>2026-03-29T14:03:35.005Z</time></trkpt><trkpt lat="45.0800667" lon="8.1870883"><ele>323.0</ele><time>2026-03-29T14:03:36.006Z</time></trkpt><trkpt lat="45.0800733" lon="8.1872317"><ele>324.0</ele><time>2026-03-29T14:03:37.003Z</time></trkpt><trkpt lat="45.0800467" lon="8.1873817"><ele>325.0</ele><time>2026-03-29T14:03:38.006Z</time></trkpt><trkpt lat="45.08004" lon="8.187545"><ele>326.0</ele><time>2026-03-29T14:03:39.004Z</time></trkpt><trkpt lat="45.0800317" lon="8.187715"><ele>327.0</ele><time>2026-03-29T14:03:40.005Z</time></trkpt><trkpt lat="45.0800133" lon="8.1878833"><ele>327.0</ele><time>2026-03-29T14:03:41.005Z</time></trkpt><trkpt lat="45.0799767" lon="8.1880467"><ele>327.0</ele><time>2026-03-29T14:03:42.005Z</time></trkpt><trkpt lat="45.0799283" lon="8.1882117"><ele>327.0</ele><time>2026-03-29T14:03:43.003Z</time></trkpt><trkpt lat="45.07988" lon="8.18838"><ele>327.0</ele><time>2026-03-29T14:03:44.006Z</time></trkpt><trkpt lat="45.07983" lon="8.18854"><ele>324.25</ele><time>2026-03-29T14:03:45.003Z</time></trkpt><trkpt lat="45.0797767" lon="8.188695"><ele>321.5</ele><time>2026-03-29T14:03:46.004Z</time></trkpt><trkpt lat="45.0797283" lon="8.1888433"><ele>318.75</ele><time>2026-03-29T14:03:47.004Z</time></trkpt><trkpt lat="45.0796883" lon="8.1889883"><ele>316.0</ele><time>2026-03-29T14:03:48.002Z</time></trkpt><trkpt lat="45.0796533" lon="8.1891383"><ele>315.0</ele><time>2026-03-29T14:03:49.012Z</time></trkpt><trkpt lat="45.0796367" lon="8.1892983"><ele>314.0</ele><time>2026-03-29T14:03:50.007Z</time></trkpt><trkpt lat="45.0796267" lon="8.18946"><ele>313.0</ele><time>2026-03-29T14:03:51.008Z</time></trkpt><trkpt lat="45.0796217" lon="8.1896333"><ele>312.0</ele><time>2026-03-29T14:03:52.004Z</time></trkpt><trkpt lat="45.0796133" lon="8.1898117"><ele>311.75</ele><time>2026-03-29T14:03:53.008Z</time></trkpt><trkpt lat="45.0796083" lon="8.189995"><ele>311.5</ele><time>2026-03-29T14:03:54.007Z</time></trkpt><trkpt lat="45.07961" lon="8.1901783"><ele>311.25</ele><time>2026-03-29T14:03:55.006Z</time></trkpt><trkpt lat="45.079615" lon="8.190365"><ele>311.0</ele><time>2026-03-29T14:03:56.008Z</time></trkpt><trkpt lat="45.0796167" lon="8.1905333"><ele>311.0</ele><time>2026-03-29T14:03:57.01Z</time></trkpt><trkpt lat="45.07962" lon="8.1906733"><ele>311.0</ele><time>2026-03-29T14:03:58.005Z</time></trkpt><trkpt lat="45.0796333" lon="8.1907833"><ele>311.0</ele><time>2026-03-29T14:03:59.003Z</time></trkpt><trkpt lat="45.0796533" lon="8.1908683"><ele>311.0</ele><time>2026-03-29T14:04:00.009Z</time></trkpt><trkpt lat="45.0796883" lon="8.1909483"><ele>311.0</ele><time>2026-03-29T14:04:01.003Z</time></trkpt><trkpt lat="45.0797383" lon="8.1910083"><ele>311.0</ele><time>2026-03-29T14:04:02.01Z</time></trkpt><trkpt lat="45.0798083" lon="8.1910333"><ele>311.0</ele><time>2026-03-29T14:04:03.006Z</time></trkpt><trkpt lat="45.0799017" lon="8.1910233"><ele>313.1666666666667</ele><time>2026-03-29T14:04:04.006Z</time></trkpt><trkpt lat="45.079985" lon="8.1910283"><ele>315.33333333333337</ele><time>2026-03-29T14:04:05.007Z</time></trkpt><trkpt lat="45.080065" lon="8.1910467"><ele>317.5</ele><time>2026-03-29T14:04:06.002Z</time></trkpt><trkpt lat="45.0801417" lon="8.1910733"><ele>319.6666666666667</ele><time>2026-03-29T14:04:07.004Z</time></trkpt><trkpt lat="45.080225" lon="8.191185"><ele>321.8333333333333</ele><time>2026-03-29T14:04:09.006Z</time></trkpt><trkpt lat="45.0802633" lon="8.1912633"><ele>324.0</ele><time>2026-03-29T14:04:10.012Z</time></trkpt><trkpt lat="45.0803" lon="8.19137"><ele>324.0</ele><time>2026-03-29T14:04:11.004Z</time></trkpt><trkpt lat="45.080335" lon="8.1914867"><ele>324.0</ele><time>2026-03-29T14:04:12.003Z</time></trkpt><trkpt lat="45.080385" lon="8.191595"><ele>324.0</ele><time>2026-03-29T14:04:13.004Z</time></trkpt><trkpt lat="45.0804417" lon="8.1916867"><ele>324.0</ele><time>2026-03-29T14:04:14.004Z</time></trkpt><trkpt lat="45.0805017" lon="8.19175"><ele>324.0</ele><time>2026-03-29T14:04:15.008Z</time></trkpt><trkpt lat="45.080575" lon="8.1917817"><ele>324.0</ele><time>2026-03-29T14:04:16.005Z</time></trkpt><trkpt lat="45.0806617" lon="8.19178"><ele>323.79999999999995</ele><time>2026-03-29T14:04:17.006Z</time></trkpt><trkpt lat="45.0807383" lon="8.191805"><ele>323.59999999999997</ele><time>2026-03-29T14:04:18.006Z</time></trkpt><trkpt lat="45.0808183" lon="8.1918417"><ele>323.4</ele><time>2026-03-29T14:04:19.004Z</time></trkpt><trkpt lat="45.0808933" lon="8.1919083"><ele>323.2</ele><time>2026-03-29T14:04:20.007Z</time></trkpt><trkpt lat="45.0809567" lon="8.191995"><ele>323.0</ele><time>2026-03-29T14:04:21.007Z</time></trkpt><trkpt lat="45.0810083" lon="8.1921367"><ele>323.0</ele><time>2026-03-29T14:04:22.007Z</time></trkpt><trkpt lat="45.0810733" lon="8.1922667"><ele>323.0</ele><time>2026-03-29T14:04:23.003Z</time></trkpt><trkpt lat="45.08115" lon="8.19238"><ele>323.0</ele><time>2026-03-29T14:04:24.004Z</time></trkpt><trkpt lat="45.0812267" lon="8.192485"><ele>323.0</ele><time>2026-03-29T14:04:25.005Z</time></trkpt><trkpt lat="45.0812983" lon="8.1925933"><ele>323.0</ele><time>2026-03-29T14:04:26.004Z</time></trkpt><trkpt lat="45.08134" lon="8.19273"><ele>319.4</ele><time>2026-03-29T14:04:27.01Z</time></trkpt><trkpt lat="45.0813583" lon="8.1928717"><ele>315.79999999999995</ele><time>2026-03-29T14:04:28.003Z</time></trkpt><trkpt lat="45.08136" lon="8.1930217"><ele>312.2</ele><time>2026-03-29T14:04:29.006Z</time></trkpt><trkpt lat="45.0813567" lon="8.1931783"><ele>308.6</ele><time>2026-03-29T14:04:30.003Z</time></trkpt><trkpt lat="45.0813433" lon="8.1933333"><ele>305.0</ele><time>2026-03-29T14:04:31.003Z</time></trkpt><trkpt lat="45.0813083" lon="8.1934733"><ele>304.6</ele><time>2026-03-29T14:04:32.007Z</time></trkpt><trkpt lat="45.0812683" lon="8.193595"><ele>304.2</ele><time>2026-03-29T14:04:33.006Z</time></trkpt><trkpt lat="45.0812017" lon="8.1937"><ele>303.8</ele><time>2026-03-29T14:04:34.006Z</time></trkpt><trkpt lat="45.0811217" lon="8.1937883"><ele>303.4</ele><time>2026-03-29T14:04:35.005Z</time></trkpt><trkpt lat="45.0810317" lon="8.1938533"><ele>303.0</ele><time>2026-03-29T14:04:36.009Z</time></trkpt><trkpt lat="45.080935" lon="8.1938883"><ele>303.0</ele><time>2026-03-29T14:04:37.005Z</time></trkpt><trkpt lat="45.080825" lon="8.1938867"><ele>303.0</ele><time>2026-03-29T14:04:38.006Z</time></trkpt><trkpt lat="45.0807133" lon="8.1938617"><ele>303.0</ele><time>2026-03-29T14:04:39.008Z</time></trkpt><trkpt lat="45.0805933" lon="8.1938217"><ele>303.0</ele><time>2026-03-29T14:04:40.005Z</time></trkpt><trkpt lat="45.0804617" lon="8.1937817"><ele>301.25</ele><time>2026-03-29T14:04:41.003Z</time></trkpt><trkpt lat="45.0803167" lon="8.1937367"><ele>299.5</ele><time>2026-03-29T14:04:42.007Z</time></trkpt><trkpt lat="45.08017" lon="8.1936883"><ele>297.75</ele><time>2026-03-29T14:04:43.008Z</time></trkpt><trkpt lat="45.0800267" lon="8.193635"><ele>296.0</ele><time>2026-03-29T14:04:44.01Z</time></trkpt><trkpt lat="45.0798833" lon="8.19358"><ele>295.5</ele><time>2026-03-29T14:04:45.008Z</time></trkpt><trkpt lat="45.0797417" lon="8.193525"><ele>295.0</ele><time>2026-03-29T14:04:46.012Z</time></trkpt><trkpt lat="45.079605" lon="8.1934783"><ele>294.5</ele><time>2026-03-29T14:04:47.004Z</time></trkpt><trkpt lat="45.0794667" lon="8.1934317"><ele>294.0</ele><time>2026-03-29T14:04:48.007Z</time></trkpt><trkpt lat="45.079325" lon="8.1933833"><ele>294.0</ele><time>2026-03-29T14:04:49.002Z</time></trkpt><trkpt lat="45.0791883" lon="8.1933333"><ele>294.0</ele><time>2026-03-29T14:04:50.005Z</time></trkpt><trkpt lat="45.0790567" lon="8.1932817"><ele>294.0</ele><time>2026-03-29T14:04:51.002Z</time></trkpt><trkpt lat="45.0789217" lon="8.19324"><ele>294.0</ele><time>2026-03-29T14:04:52.004Z</time></trkpt><trkpt lat="45.0787917" lon="8.1932117"><ele>291.5</ele><time>2026-03-29T14:04:53.005Z</time></trkpt><trkpt lat="45.0786583" lon="8.1932317"><ele>289.0</ele><time>2026-03-29T14:04:54.005Z</time></trkpt><trkpt lat="45.0785383" lon="8.193245"><ele>286.5</ele><time>2026-03-29T14:04:55.012Z</time></trkpt><trkpt lat="45.0784217" lon="8.1932883"><ele>284.0</ele><time>2026-03-29T14:04:56.003Z</time></trkpt><trkpt lat="45.0783017" lon="8.1933867"><ele>281.75</ele><time>2026-03-29T14:04:57.006Z</time></trkpt><trkpt lat="45.0781933" lon="8.1934917"><ele>279.5</ele><time>2026-03-29T14:04:58.005Z</time></trkpt><trkpt lat="45.0780833" lon="8.1935917"><ele>277.25</ele><time>2026-03-29T14:04:59.006Z</time></trkpt><trkpt lat="45.0779733" lon="8.1937033"><ele>275.0</ele><time>2026-03-29T14:05:00.006Z</time></trkpt><trkpt lat="45.0778583" lon="8.1938183"><ele>275.0</ele><time>2026-03-29T14:05:01.003Z</time></trkpt><trkpt lat="45.0777467" lon="8.1939467"><ele>275.0</ele><time>2026-03-29T14:05:02.005Z</time></trkpt><trkpt lat="45.0776467" lon="8.1940833"><ele>275.0</ele><time>2026-03-29T14:05:03.01Z</time></trkpt><trkpt lat="45.07756" lon="8.194215"><ele>275.0</ele><time>2026-03-29T14:05:04.006Z</time></trkpt><trkpt lat="45.0774833" lon="8.19434"><ele>275.0</ele><time>2026-03-29T14:05:05.007Z</time></trkpt><trkpt lat="45.0774133" lon="8.19447"><ele>275.0</ele><time>2026-03-29T14:05:06.006Z</time></trkpt><trkpt lat="45.0773483" lon="8.1946233"><ele>275.0</ele><time>2026-03-29T14:05:07.006Z</time></trkpt><trkpt lat="45.0772733" lon="8.1947833"><ele>275.0</ele><time>2026-03-29T14:05:08.006Z</time></trkpt><trkpt lat="45.0771933" lon="8.194945"><ele>275.0</ele><time>2026-03-29T14:05:09.007Z</time></trkpt><trkpt lat="45.077105" lon="8.1950933"><ele>275.0</ele><time>2026-03-29T14:05:10.004Z</time></trkpt><trkpt lat="45.0770267" lon="8.1952433"><ele>275.0</ele><time>2026-03-29T14:05:11.008Z</time></trkpt><trkpt lat="45.0769533" lon="8.1953733"><ele>275.0</ele><time>2026-03-29T14:05:12.008Z</time></trkpt><trkpt lat="45.076885" lon="8.195475"><ele>275.0</ele><time>2026-03-29T14:05:13.006Z</time></trkpt><trkpt lat="45.0768133" lon="8.195555"><ele>275.0</ele><time>2026-03-29T14:05:14.002Z</time></trkpt><trkpt lat="45.0767433" lon="8.19559"><ele>275.0</ele><time>2026-03-29T14:05:15.003Z</time></trkpt><trkpt lat="45.0766633" lon="8.1955867"><ele>275.0</ele><time>2026-03-29T14:05:16.01Z</time></trkpt><trkpt lat="45.0765733" lon="8.195545"><ele>275.0</ele><time>2026-03-29T14:05:17.004Z</time></trkpt><trkpt lat="45.0764683" lon="8.195465"><ele>273.25</ele><time>2026-03-29T14:05:18.003Z</time></trkpt><trkpt lat="45.07635" lon="8.1954017"><ele>271.5</ele><time>2026-03-29T14:05:19.004Z</time></trkpt><trkpt lat="45.0762333" lon="8.1953717"><ele>269.75</ele><time>2026-03-29T14:05:20.005Z</time></trkpt><trkpt lat="45.076115" lon="8.1953967"><ele>268.0</ele><time>2026-03-29T14:05:21.006Z</time></trkpt><trkpt lat="45.0760033" lon="8.19546"><ele>268.0</ele><time>2026-03-29T14:05:22.005Z</time></trkpt><trkpt lat="45.0758933" lon="8.19555"><ele>268.0</ele><time>2026-03-29T14:05:23.004Z</time></trkpt><trkpt lat="45.0757917" lon="8.19566"><ele>268.0</ele><time>2026-03-29T14:05:24.005Z</time></trkpt><trkpt lat="45.0756717" lon="8.1958267"><ele>268.0</ele><time>2026-03-29T14:05:25.005Z</time></trkpt><trkpt lat="45.0755817" lon="8.1959633"><ele>267.75</ele><time>2026-03-29T14:05:26.009Z</time></trkpt><trkpt lat="45.075505" lon="8.19611"><ele>267.5</ele><time>2026-03-29T14:05:27.006Z</time></trkpt><trkpt lat="45.0754517" lon="8.1962783"><ele>267.25</ele><time>2026-03-29T14:05:28.003Z</time></trkpt><trkpt lat="45.0754067" lon="8.196455"><ele>267.0</ele><time>2026-03-29T14:05:29.009Z</time></trkpt><trkpt lat="45.0753767" lon="8.1966317"><ele>267.8</ele><time>2026-03-29T14:05:30.006Z</time></trkpt><trkpt lat="45.0753533" lon="8.1968"><ele>268.6</ele><time>2026-03-29T14:05:31.005Z</time></trkpt><trkpt lat="45.075325" lon="8.1969483"><ele>269.40000000000003</ele><time>2026-03-29T14:05:32.012Z</time></trkpt><trkpt lat="45.0752817" lon="8.1970633"><ele>270.2</ele><time>2026-03-29T14:05:33.004Z</time></trkpt><trkpt lat="45.0752283" lon="8.197165"><ele>271.0</ele><time>2026-03-29T14:05:34.007Z</time></trkpt><trkpt lat="45.075175" lon="8.19725"><ele>271.0</ele><time>2026-03-29T14:05:35.009Z</time></trkpt><trkpt lat="45.0751167" lon="8.1973133"><ele>271.0</ele><time>2026-03-29T14:05:36.003Z</time></trkpt><trkpt lat="45.0750433" lon="8.197335"><ele>271.0</ele><time>2026-03-29T14:05:37.011Z</time></trkpt><trkpt lat="45.074945" lon="8.1973367"><ele>271.0</ele><time>2026-03-29T14:05:38.005Z</time></trkpt><trkpt lat="45.0747867" lon="8.1973133"><ele>271.0</ele><time>2026-03-29T14:05:39.003Z</time></trkpt><trkpt lat="45.0746383" lon="8.197345"><ele>270.75</ele><time>2026-03-29T14:05:40.006Z</time></trkpt><trkpt lat="45.0745" lon="8.1973833"><ele>270.5</ele><time>2026-03-29T14:05:41.004Z</time></trkpt><trkpt lat="45.074365" lon="8.1974533"><ele>270.25</ele><time>2026-03-29T14:05:42.004Z</time></trkpt><trkpt lat="45.0742333" lon="8.1975317"><ele>270.0</ele><time>2026-03-29T14:05:43.005Z</time></trkpt><trkpt lat="45.0740933" lon="8.197605"><ele>270.0</ele><time>2026-03-29T14:05:44.004Z</time></trkpt><trkpt lat="45.0739533" lon="8.1976667"><ele>270.0</ele><time>2026-03-29T14:05:45.01Z</time></trkpt><trkpt lat="45.07381" lon="8.1977033"><ele>270.0</ele><time>2026-03-29T14:05:46.005Z</time></trkpt><trkpt lat="45.0736683" lon="8.197695"><ele>270.0</ele><time>2026-03-29T14:05:47.004Z</time></trkpt><trkpt lat="45.07354" lon="8.197685"><ele>270.0</ele><time>2026-03-29T14:05:48.005Z</time></trkpt><trkpt lat="45.0734083" lon="8.197695"><ele>270.0</ele><time>2026-03-29T14:05:49.008Z</time></trkpt><trkpt lat="45.0732817" lon="8.1977317"><ele>270.0</ele><time>2026-03-29T14:05:50.005Z</time></trkpt><trkpt lat="45.0731533" lon="8.1978"><ele>270.0</ele><time>2026-03-29T14:05:51.011Z</time></trkpt><trkpt lat="45.0730317" lon="8.1978867"><ele>271.5</ele><time>2026-03-29T14:05:52.004Z</time></trkpt><trkpt lat="45.0729117" lon="8.1979917"><ele>273.0</ele><time>2026-03-29T14:05:53.007Z</time></trkpt><trkpt lat="45.0727967" lon="8.1980983"><ele>274.5</ele><time>2026-03-29T14:05:54.008Z</time></trkpt><trkpt lat="45.0726833" lon="8.1982017"><ele>276.0</ele><time>2026-03-29T14:05:55.004Z</time></trkpt><trkpt lat="45.07257" lon="8.1983067"><ele>276.0</ele><time>2026-03-29T14:05:56.005Z</time></trkpt><trkpt lat="45.0724633" lon="8.198405"><ele>276.0</ele><time>2026-03-29T14:05:57.006Z</time></trkpt><trkpt lat="45.0723683" lon="8.1984567"><ele>276.0</ele><time>2026-03-29T14:05:58.007Z</time></trkpt><trkpt lat="45.0723133" lon="8.1985383"><ele>276.0</ele><time>2026-03-29T14:05:59.009Z</time></trkpt><trkpt lat="45.0722667" lon="8.1986467"><ele>276.0</ele><time>2026-03-29T14:06:00.009Z</time></trkpt><trkpt lat="45.0722667" lon="8.19877"><ele>276.6</ele><time>2026-03-29T14:06:01.009Z</time></trkpt><trkpt lat="45.0722817" lon="8.1989"><ele>277.20000000000005</ele><time>2026-03-29T14:06:02.014Z</time></trkpt><trkpt lat="45.0723233" lon="8.1990283"><ele>277.79999999999995</ele><time>2026-03-29T14:06:03.005Z</time></trkpt><trkpt lat="45.0723817" lon="8.19917"><ele>278.4</ele><time>2026-03-29T14:06:04.006Z</time></trkpt><trkpt lat="45.0724533" lon="8.19933"><ele>279.0</ele><time>2026-03-29T14:06:05.007Z</time></trkpt><trkpt lat="45.0725283" lon="8.199505"><ele>279.0</ele><time>2026-03-29T14:06:06.005Z</time></trkpt><trkpt lat="45.0726067" lon="8.199685"><ele>279.0</ele><time>2026-03-29T14:06:07.007Z</time></trkpt><trkpt lat="45.0726867" lon="8.1998733"><ele>279.0</ele><time>2026-03-29T14:06:08.004Z</time></trkpt><trkpt lat="45.0727683" lon="8.200075"><ele>277.0</ele><time>2026-03-29T14:06:09.005Z</time></trkpt><trkpt lat="45.0728517" lon="8.2002783"><ele>275.0</ele><time>2026-03-29T14:06:10.005Z</time></trkpt><trkpt lat="45.072935" lon="8.20048"><ele>273.0</ele><time>2026-03-29T14:06:11.002Z</time></trkpt><trkpt lat="45.0730183" lon="8.2006767"><ele>271.0</ele><time>2026-03-29T14:06:12.009Z</time></trkpt><trkpt lat="45.0731017" lon="8.20087"><ele>269.0</ele><time>2026-03-29T14:06:13.008Z</time></trkpt><trkpt lat="45.0731767" lon="8.2010533"><ele>267.0</ele><time>2026-03-29T14:06:14.01Z</time></trkpt><trkpt lat="45.0732383" lon="8.201235"><ele>269.25</ele><time>2026-03-29T14:06:15.011Z</time></trkpt><trkpt lat="45.0732833" lon="8.201425"><ele>271.5</ele><time>2026-03-29T14:06:16.006Z</time></trkpt><trkpt lat="45.07331" lon="8.2016217"><ele>273.75</ele><time>2026-03-29T14:06:17.006Z</time></trkpt><trkpt lat="45.073325" lon="8.20183"><ele>276.0</ele><time>2026-03-29T14:06:18.009Z</time></trkpt><trkpt lat="45.073335" lon="8.2020383"><ele>276.0</ele><time>2026-03-29T14:06:19.004Z</time></trkpt><trkpt lat="45.073345" lon="8.2022417"><ele>276.0</ele><time>2026-03-29T14:06:20.004Z</time></trkpt><trkpt lat="45.0733617" lon="8.2024383"><ele>276.0</ele><time>2026-03-29T14:06:21.009Z</time></trkpt><trkpt lat="45.0733983" lon="8.202635"><ele>276.0</ele><time>2026-03-29T14:06:22.002Z</time></trkpt><trkpt lat="45.073455" lon="8.2028367"><ele>275.3333333333333</ele><time>2026-03-29T14:06:23.003Z</time></trkpt><trkpt lat="45.07353" lon="8.2030417"><ele>274.66666666666663</ele><time>2026-03-29T14:06:24.002Z</time></trkpt><trkpt lat="45.0736183" lon="8.2032417"><ele>274.0</ele><time>2026-03-29T14:06:25.003Z</time></trkpt><trkpt lat="45.0737183" lon="8.2034383"><ele>270.66666666666663</ele><time>2026-03-29T14:06:26.007Z</time></trkpt><trkpt lat="45.0738233" lon="8.20362"><ele>267.3333333333333</ele><time>2026-03-29T14:06:27.009Z</time></trkpt><trkpt lat="45.0739333" lon="8.2037817"><ele>264.0</ele><time>2026-03-29T14:06:28.011Z</time></trkpt><trkpt lat="45.074035" lon="8.2039233"><ele>266.2</ele><time>2026-03-29T14:06:29.002Z</time></trkpt><trkpt lat="45.0741233" lon="8.2040417"><ele>268.4</ele><time>2026-03-29T14:06:30.003Z</time></trkpt><trkpt lat="45.0741967" lon="8.2041583"><ele>270.6</ele><time>2026-03-29T14:06:31.005Z</time></trkpt><trkpt lat="45.07425" lon="8.204285"><ele>272.8</ele><time>2026-03-29T14:06:32.003Z</time></trkpt><trkpt lat="45.0742733" lon="8.2044183"><ele>275.0</ele><time>2026-03-29T14:06:33.009Z</time></trkpt><trkpt lat="45.0742867" lon="8.204545"><ele>275.0</ele><time>2026-03-29T14:06:34.008Z</time></trkpt><trkpt lat="45.07428" lon="8.2046667"><ele>275.0</ele><time>2026-03-29T14:06:35.007Z</time></trkpt><trkpt lat="45.07426" lon="8.2047817"><ele>275.0</ele><time>2026-03-29T14:06:36.006Z</time></trkpt><trkpt lat="45.0742317" lon="8.2048867"><ele>275.0</ele><time>2026-03-29T14:06:37.011Z</time></trkpt><trkpt lat="45.0741733" lon="8.2049783"><ele>275.0</ele><time>2026-03-29T14:06:38.008Z</time></trkpt><trkpt lat="45.0741083" lon="8.205055"><ele>275.0</ele><time>2026-03-29T14:06:39.006Z</time></trkpt><trkpt lat="45.0740233" lon="8.2051033"><ele>276.25</ele><time>2026-03-29T14:06:40.004Z</time></trkpt><trkpt lat="45.07391" lon="8.205035"><ele>277.5</ele><time>2026-03-29T14:06:41.007Z</time></trkpt><trkpt lat="45.0738" lon="8.2049467"><ele>278.75</ele><time>2026-03-29T14:06:42.008Z</time></trkpt><trkpt lat="45.0736867" lon="8.20487"><ele>280.0</ele><time>2026-03-29T14:06:43.008Z</time></trkpt><trkpt lat="45.07356" lon="8.204795"><ele>277.25</ele><time>2026-03-29T14:06:44.007Z</time></trkpt><trkpt lat="45.0734333" lon="8.2047417"><ele>274.5</ele><time>2026-03-29T14:06:45.009Z</time></trkpt><trkpt lat="45.0733017" lon="8.2047067"><ele>271.75</ele><time>2026-03-29T14:06:46.008Z</time></trkpt><trkpt lat="45.0731783" lon="8.20468"><ele>269.0</ele><time>2026-03-29T14:06:47.002Z</time></trkpt><trkpt lat="45.073065" lon="8.20468"><ele>269.0</ele><time>2026-03-29T14:06:48.004Z</time></trkpt><trkpt lat="45.0729633" lon="8.20471"><ele>269.0</ele><time>2026-03-29T14:06:49.002Z</time></trkpt><trkpt lat="45.072865" lon="8.2047633"><ele>269.0</ele><time>2026-03-29T14:06:50.009Z</time></trkpt><trkpt lat="45.0727667" lon="8.2048383"><ele>269.0</ele><time>2026-03-29T14:06:51.008Z</time></trkpt><trkpt lat="45.0726667" lon="8.2049183"><ele>269.0</ele><time>2026-03-29T14:06:52.005Z</time></trkpt><trkpt lat="45.07257" lon="8.2049933"><ele>270.4</ele><time>2026-03-29T14:06:53.003Z</time></trkpt><trkpt lat="45.0724733" lon="8.2050667"><ele>271.79999999999995</ele><time>2026-03-29T14:06:54.006Z</time></trkpt><trkpt lat="45.0723833" lon="8.2051317"><ele>273.20000000000005</ele><time>2026-03-29T14:06:55.007Z</time></trkpt><trkpt lat="45.07229" lon="8.205195"><ele>274.6</ele><time>2026-03-29T14:06:56.006Z</time></trkpt><trkpt lat="45.07219" lon="8.2052467"><ele>276.0</ele><time>2026-03-29T14:06:57.009Z</time></trkpt><trkpt lat="45.0720883" lon="8.2052733"><ele>276.0</ele><time>2026-03-29T14:06:58.006Z</time></trkpt><trkpt lat="45.0719733" lon="8.2052717"><ele>276.0</ele><time>2026-03-29T14:06:59.003Z</time></trkpt><trkpt lat="45.0718483" lon="8.2052533"><ele>276.0</ele><time>2026-03-29T14:07:00.009Z</time></trkpt><trkpt lat="45.0717167" lon="8.205225"><ele>276.0</ele><time>2026-03-29T14:07:01.005Z</time></trkpt><trkpt lat="45.0715867" lon="8.2051917"><ele>276.40000000000003</ele><time>2026-03-29T14:07:02.006Z</time></trkpt><trkpt lat="45.0714633" lon="8.2051633"><ele>276.8</ele><time>2026-03-29T14:07:03.003Z</time></trkpt><trkpt lat="45.0713483" lon="8.2051383"><ele>277.20000000000005</ele><time>2026-03-29T14:07:04.01Z</time></trkpt><trkpt lat="45.0712433" lon="8.20513"><ele>277.6</ele><time>2026-03-29T14:07:05.007Z</time></trkpt><trkpt lat="45.0711517" lon="8.2051267"><ele>278.0</ele><time>2026-03-29T14:07:06.009Z</time></trkpt><trkpt lat="45.0710683" lon="8.2051433"><ele>278.0</ele><time>2026-03-29T14:07:07.004Z</time></trkpt><trkpt lat="45.0709983" lon="8.2051783"><ele>278.0</ele><time>2026-03-29T14:07:08Z</time></trkpt><trkpt lat="45.0709517" lon="8.2052467"><ele>278.0</ele><time>2026-03-29T14:07:09.008Z</time></trkpt><trkpt lat="45.0709233" lon="8.205345"><ele>278.0</ele><time>2026-03-29T14:07:10.003Z</time></trkpt><trkpt lat="45.0709267" lon="8.20549"><ele>278.0</ele><time>2026-03-29T14:07:11.007Z</time></trkpt><trkpt lat="45.070935" lon="8.20563"><ele>278.0</ele><time>2026-03-29T14:07:12.007Z</time></trkpt><trkpt lat="45.0709517" lon="8.2057617"><ele>278.6</ele><time>2026-03-29T14:07:13.006Z</time></trkpt><trkpt lat="45.07098" lon="8.2058867"><ele>279.20000000000005</ele><time>2026-03-29T14:07:14.007Z</time></trkpt><trkpt lat="45.0710333" lon="8.2060033"><ele>279.8</ele><time>2026-03-29T14:07:15.007Z</time></trkpt><trkpt lat="45.071105" lon="8.206115"><ele>280.40000000000003</ele><time>2026-03-29T14:07:16.005Z</time></trkpt><trkpt lat="45.0711867" lon="8.20623"><ele>281.0</ele><time>2026-03-29T14:07:17.007Z</time></trkpt><trkpt lat="45.07127" lon="8.2063467"><ele>281.0</ele><time>2026-03-29T14:07:18.004Z</time></trkpt><trkpt lat="45.0713533" lon="8.2064617"><ele>281.0</ele><time>2026-03-29T14:07:19.008Z</time></trkpt><trkpt lat="45.07143" lon="8.2065767"><ele>281.0</ele><time>2026-03-29T14:07:20.007Z</time></trkpt><trkpt lat="45.0715" lon="8.206705"><ele>281.0</ele><time>2026-03-29T14:07:21.006Z</time></trkpt><trkpt lat="45.0715583" lon="8.2068467"><ele>282.5</ele><time>2026-03-29T14:07:22.016Z</time></trkpt><trkpt lat="45.07161" lon="8.207005"><ele>284.0</ele><time>2026-03-29T14:07:23.004Z</time></trkpt><trkpt lat="45.0716517" lon="8.207165"><ele>285.5</ele><time>2026-03-29T14:07:24.007Z</time></trkpt><trkpt lat="45.0716833" lon="8.2073283"><ele>287.0</ele><time>2026-03-29T14:07:25.007Z</time></trkpt><trkpt lat="45.07172" lon="8.2074933"><ele>287.0</ele><time>2026-03-29T14:07:26.007Z</time></trkpt><trkpt lat="45.0717467" lon="8.20766"><ele>287.0</ele><time>2026-03-29T14:07:27.009Z</time></trkpt><trkpt lat="45.0717617" lon="8.2078333"><ele>287.0</ele><time>2026-03-29T14:07:28.006Z</time></trkpt><trkpt lat="45.071755" lon="8.208005"><ele>287.0</ele><time>2026-03-29T14:07:29.007Z</time></trkpt><trkpt lat="45.07174" lon="8.2081767"><ele>286.5</ele><time>2026-03-29T14:07:30.007Z</time></trkpt><trkpt lat="45.0717167" lon="8.208355"><ele>286.0</ele><time>2026-03-29T14:07:31.002Z</time></trkpt><trkpt lat="45.0716917" lon="8.2085367"><ele>285.5</ele><time>2026-03-29T14:07:32.002Z</time></trkpt><trkpt lat="45.0716583" lon="8.20872"><ele>285.0</ele><time>2026-03-29T14:07:33.007Z</time></trkpt><trkpt lat="45.0716333" lon="8.2089117"><ele>284.75</ele><time>2026-03-29T14:07:34.006Z</time></trkpt><trkpt lat="45.07161" lon="8.209105"><ele>284.5</ele><time>2026-03-29T14:07:35.002Z</time></trkpt><trkpt lat="45.0715917" lon="8.2093067"><ele>284.25</ele><time>2026-03-29T14:07:36.003Z</time></trkpt><trkpt lat="45.071575" lon="8.2095033"><ele>284.0</ele><time>2026-03-29T14:07:37.008Z</time></trkpt><trkpt lat="45.0715617" lon="8.2096967"><ele>280.5</ele><time>2026-03-29T14:07:38.004Z</time></trkpt><trkpt lat="45.0715467" lon="8.20988"><ele>277.0</ele><time>2026-03-29T14:07:39.004Z</time></trkpt><trkpt lat="45.07154" lon="8.2100667"><ele>273.5</ele><time>2026-03-29T14:07:40.007Z</time></trkpt><trkpt lat="45.0715517" lon="8.2102567"><ele>270.0</ele><time>2026-03-29T14:07:41.007Z</time></trkpt><trkpt lat="45.07158" lon="8.2104533"><ele>273.0</ele><time>2026-03-29T14:07:42.007Z</time></trkpt><trkpt lat="45.0716267" lon="8.21065"><ele>276.0</ele><time>2026-03-29T14:07:43.007Z</time></trkpt><trkpt lat="45.071685" lon="8.2108517"><ele>279.0</ele><time>2026-03-29T14:07:44.006Z</time></trkpt><trkpt lat="45.0717483" lon="8.21105"><ele>279.0</ele><time>2026-03-29T14:07:45.007Z</time></trkpt><trkpt lat="45.0718017" lon="8.2112367"><ele>279.0</ele><time>2026-03-29T14:07:46.004Z</time></trkpt><trkpt lat="45.0718433" lon="8.2114017"><ele>279.0</ele><time>2026-03-29T14:07:47.003Z</time></trkpt><trkpt lat="45.0718667" lon="8.2115633"><ele>279.0</ele><time>2026-03-29T14:07:48.006Z</time></trkpt><trkpt lat="45.0718633" lon="8.2117217"><ele>278.25</ele><time>2026-03-29T14:07:49.006Z</time></trkpt><trkpt lat="45.0718317" lon="8.211865"><ele>277.5</ele><time>2026-03-29T14:07:50.005Z</time></trkpt><trkpt lat="45.0717767" lon="8.211995"><ele>276.75</ele><time>2026-03-29T14:07:51.007Z</time></trkpt><trkpt lat="45.0717" lon="8.21211"><ele>276.0</ele><time>2026-03-29T14:07:52.002Z</time></trkpt><trkpt lat="45.07161" lon="8.2122367"><ele>274.0</ele><time>2026-03-29T14:07:53.014Z</time></trkpt><trkpt lat="45.071515" lon="8.2123817"><ele>272.0</ele><time>2026-03-29T14:07:54.006Z</time></trkpt><trkpt lat="45.0714383" lon="8.2125583"><ele>270.0</ele><time>2026-03-29T14:07:55.008Z</time></trkpt><trkpt lat="45.0713633" lon="8.212755"><ele>268.0</ele><time>2026-03-29T14:07:56.005Z</time></trkpt><trkpt lat="45.0712783" lon="8.2129533"><ele>268.0</ele><time>2026-03-29T14:07:57.006Z</time></trkpt><trkpt lat="45.071195" lon="8.2131533"><ele>268.0</ele><time>2026-03-29T14:07:58.008Z</time></trkpt><trkpt lat="45.0711183" lon="8.21335"><ele>268.0</ele><time>2026-03-29T14:07:59.011Z</time></trkpt><trkpt lat="45.071045" lon="8.2135417"><ele>269.75</ele><time>2026-03-29T14:08:00.007Z</time></trkpt><trkpt lat="45.070975" lon="8.2137217"><ele>271.5</ele><time>2026-03-29T14:08:01.007Z</time></trkpt><trkpt lat="45.07091" lon="8.2138883"><ele>273.25</ele><time>2026-03-29T14:08:02.004Z</time></trkpt><trkpt lat="45.0708567" lon="8.2140517"><ele>275.0</ele><time>2026-03-29T14:08:03.013Z</time></trkpt><trkpt lat="45.0708233" lon="8.2142067"><ele>276.5</ele><time>2026-03-29T14:08:04.007Z</time></trkpt><trkpt lat="45.07081" lon="8.2143667"><ele>278.0</ele><time>2026-03-29T14:08:05.009Z</time></trkpt><trkpt lat="45.0708283" lon="8.21454"><ele>279.5</ele><time>2026-03-29T14:08:06.009Z</time></trkpt><trkpt lat="45.0708583" lon="8.21472"><ele>281.0</ele><time>2026-03-29T14:08:07.01Z</time></trkpt><trkpt lat="45.070885" lon="8.214905"><ele>282.5</ele><time>2026-03-29T14:08:08.004Z</time></trkpt><trkpt lat="45.0708917" lon="8.2150817"><ele>284.0</ele><time>2026-03-29T14:08:09.014Z</time></trkpt><trkpt lat="45.07088" lon="8.2152533"><ele>285.5</ele><time>2026-03-29T14:08:10.006Z</time></trkpt><trkpt lat="45.0708433" lon="8.2154133"><ele>287.0</ele><time>2026-03-29T14:08:11.008Z</time></trkpt><trkpt lat="45.07079" lon="8.2155617"><ele>288.8</ele><time>2026-03-29T14:08:12.007Z</time></trkpt><trkpt lat="45.07072" lon="8.2156867"><ele>290.6</ele><time>2026-03-29T14:08:13.011Z</time></trkpt><trkpt lat="45.0706367" lon="8.215785"><ele>292.40000000000003</ele><time>2026-03-29T14:08:14.002Z</time></trkpt><trkpt lat="45.070535" lon="8.2158567"><ele>294.2</ele><time>2026-03-29T14:08:15.008Z</time></trkpt><trkpt lat="45.0704317" lon="8.2159233"><ele>296.0</ele><time>2026-03-29T14:08:16.002Z</time></trkpt><trkpt lat="45.070335" lon="8.216"><ele>296.0</ele><time>2026-03-29T14:08:17.003Z</time></trkpt><trkpt lat="45.070245" lon="8.2161"><ele>296.0</ele><time>2026-03-29T14:08:18.007Z</time></trkpt><trkpt lat="45.0701783" lon="8.2162233"><ele>296.0</ele><time>2026-03-29T14:08:19.002Z</time></trkpt><trkpt lat="45.07013" lon="8.2163717"><ele>296.0</ele><time>2026-03-29T14:08:20.003Z</time></trkpt><trkpt lat="45.0700983" lon="8.2165317"><ele>297.0</ele><time>2026-03-29T14:08:21.005Z</time></trkpt><trkpt lat="45.0700717" lon="8.2166933"><ele>298.0</ele><time>2026-03-29T14:08:22.004Z</time></trkpt><trkpt lat="45.07005" lon="8.2168567"><ele>299.0</ele><time>2026-03-29T14:08:23.006Z</time></trkpt><trkpt lat="45.0700333" lon="8.2170283"><ele>300.0</ele><time>2026-03-29T14:08:24.004Z</time></trkpt><trkpt lat="45.0700217" lon="8.2172"><ele>299.0</ele><time>2026-03-29T14:08:25.006Z</time></trkpt><trkpt lat="45.0700133" lon="8.2173767"><ele>298.0</ele><time>2026-03-29T14:08:26.005Z</time></trkpt><trkpt lat="45.0700083" lon="8.2175633"><ele>297.0</ele><time>2026-03-29T14:08:27.007Z</time></trkpt><trkpt lat="45.0700083" lon="8.2177533"><ele>296.0</ele><time>2026-03-29T14:08:28.01Z</time></trkpt><trkpt lat="45.07001" lon="8.217945"><ele>296.0</ele><time>2026-03-29T14:08:29.005Z</time></trkpt><trkpt lat="45.07001" lon="8.2181483"><ele>296.0</ele><time>2026-03-29T14:08:30.006Z</time></trkpt><trkpt lat="45.0700133" lon="8.2183533"><ele>296.0</ele><time>2026-03-29T14:08:31.006Z</time></trkpt><trkpt lat="45.070015" lon="8.218555"><ele>296.0</ele><time>2026-03-29T14:08:32.005Z</time></trkpt><trkpt lat="45.0700183" lon="8.2187533"><ele>294.0</ele><time>2026-03-29T14:08:33.004Z</time></trkpt><trkpt lat="45.070025" lon="8.2189433"><ele>292.0</ele><time>2026-03-29T14:08:34.006Z</time></trkpt><trkpt lat="45.0700233" lon="8.2191267"><ele>290.0</ele><time>2026-03-29T14:08:35.008Z</time></trkpt><trkpt lat="45.0700283" lon="8.21931"><ele>288.0</ele><time>2026-03-29T14:08:36.003Z</time></trkpt><trkpt lat="45.07003" lon="8.21949"><ele>286.5</ele><time>2026-03-29T14:08:37.006Z</time></trkpt><trkpt lat="45.0700367" lon="8.219665"><ele>285.0</ele><time>2026-03-29T14:08:38.007Z</time></trkpt><trkpt lat="45.0700567" lon="8.2198433"><ele>283.5</ele><time>2026-03-29T14:08:39.006Z</time></trkpt><trkpt lat="45.0700783" lon="8.2200217"><ele>282.0</ele><time>2026-03-29T14:08:40.008Z</time></trkpt><trkpt lat="45.0701" lon="8.220205"><ele>279.75</ele><time>2026-03-29T14:08:41.006Z</time></trkpt><trkpt lat="45.0701117" lon="8.2203967"><ele>277.5</ele><time>2026-03-29T14:08:42.003Z</time></trkpt><trkpt lat="45.0701133" lon="8.220585"><ele>275.25</ele><time>2026-03-29T14:08:43.008Z</time></trkpt><trkpt lat="45.0701083" lon="8.2207817"><ele>273.0</ele><time>2026-03-29T14:08:44.003Z</time></trkpt><trkpt lat="45.070095" lon="8.2209767"><ele>273.0</ele><time>2026-03-29T14:08:45.011Z</time></trkpt><trkpt lat="45.070085" lon="8.2211717"><ele>273.0</ele><time>2026-03-29T14:08:46.007Z</time></trkpt><trkpt lat="45.0700767" lon="8.221365"><ele>273.0</ele><time>2026-03-29T14:08:47.006Z</time></trkpt><trkpt lat="45.0700667" lon="8.2215567"><ele>273.0</ele><time>2026-03-29T14:08:48.005Z</time></trkpt><trkpt lat="45.0700567" lon="8.2217483"><ele>272.75</ele><time>2026-03-29T14:08:49.009Z</time></trkpt><trkpt lat="45.0700417" lon="8.2219417"><ele>272.5</ele><time>2026-03-29T14:08:50.004Z</time></trkpt><trkpt lat="45.0700267" lon="8.222135"><ele>272.25</ele><time>2026-03-29T14:08:51.01Z</time></trkpt><trkpt lat="45.070015" lon="8.22233"><ele>272.0</ele><time>2026-03-29T14:08:52.012Z</time></trkpt><trkpt lat="45.0699983" lon="8.22252"><ele>271.75</ele><time>2026-03-29T14:08:53.011Z</time></trkpt><trkpt lat="45.069975" lon="8.2227"><ele>271.5</ele><time>2026-03-29T14:08:54.01Z</time></trkpt><trkpt lat="45.0699367" lon="8.2228717"><ele>271.25</ele><time>2026-03-29T14:08:55.009Z</time></trkpt><trkpt lat="45.0698783" lon="8.2230283"><ele>271.0</ele><time>2026-03-29T14:08:56.003Z</time></trkpt><trkpt lat="45.0697933" lon="8.2231767"><ele>269.5</ele><time>2026-03-29T14:08:57.005Z</time></trkpt><trkpt lat="45.0696933" lon="8.22332"><ele>268.0</ele><time>2026-03-29T14:08:58.002Z</time></trkpt><trkpt lat="45.0695883" lon="8.2234617"><ele>266.5</ele><time>2026-03-29T14:08:59.005Z</time></trkpt><trkpt lat="45.0694883" lon="8.223605"><ele>265.0</ele><time>2026-03-29T14:09:00.007Z</time></trkpt><trkpt lat="45.0693917" lon="8.2237467"><ele>265.0</ele><time>2026-03-29T14:09:01.006Z</time></trkpt><trkpt lat="45.0692967" lon="8.2238883"><ele>265.0</ele><time>2026-03-29T14:09:02.014Z</time></trkpt><trkpt lat="45.0692033" lon="8.2240283"><ele>265.0</ele><time>2026-03-29T14:09:03.007Z</time></trkpt><trkpt lat="45.0691083" lon="8.2241683"><ele>265.0</ele><time>2026-03-29T14:09:04.006Z</time></trkpt><trkpt lat="45.0690117" lon="8.22431"><ele>264.25</ele><time>2026-03-29T14:09:05.004Z</time></trkpt><trkpt lat="45.068915" lon="8.2244533"><ele>263.5</ele><time>2026-03-29T14:09:06Z</time></trkpt><trkpt lat="45.068815" lon="8.224595"><ele>262.75</ele><time>2026-03-29T14:09:07.004Z</time></trkpt><trkpt lat="45.068715" lon="8.22474"><ele>262.0</ele><time>2026-03-29T14:09:08.006Z</time></trkpt><trkpt lat="45.0686183" lon="8.2248767"><ele>262.0</ele><time>2026-03-29T14:09:09.006Z</time></trkpt><trkpt lat="45.0685183" lon="8.2250083"><ele>262.0</ele><time>2026-03-29T14:09:10.009Z</time></trkpt><trkpt lat="45.068415" lon="8.2251433"><ele>262.0</ele><time>2026-03-29T14:09:11.002Z</time></trkpt><trkpt lat="45.06831" lon="8.2252717"><ele>262.0</ele><time>2026-03-29T14:09:12.007Z</time></trkpt><trkpt lat="45.068185" lon="8.22537"><ele>259.66666666666663</ele><time>2026-03-29T14:09:13.008Z</time></trkpt><trkpt lat="45.0680433" lon="8.22544"><ele>257.3333333333333</ele><time>2026-03-29T14:09:14.006Z</time></trkpt><trkpt lat="45.0678883" lon="8.225475"><ele>255.0</ele><time>2026-03-29T14:09:15.003Z</time></trkpt><trkpt lat="45.0677417" lon="8.2255117"><ele>255.0</ele><time>2026-03-29T14:09:16.005Z</time></trkpt><trkpt lat="45.0675983" lon="8.2255467"><ele>255.0</ele><time>2026-03-29T14:09:17.004Z</time></trkpt><trkpt lat="45.06746" lon="8.2255833"><ele>255.0</ele><time>2026-03-29T14:09:18.003Z</time></trkpt><trkpt lat="45.067325" lon="8.22562"><ele>255.0</ele><time>2026-03-29T14:09:19.008Z</time></trkpt><trkpt lat="45.0671917" lon="8.2256583"><ele>256.0</ele><time>2026-03-29T14:09:20.004Z</time></trkpt><trkpt lat="45.0670617" lon="8.22569"><ele>257.0</ele><time>2026-03-29T14:09:21.005Z</time></trkpt><trkpt lat="45.0669333" lon="8.225725"><ele>258.0</ele><time>2026-03-29T14:09:22.003Z</time></trkpt><trkpt lat="45.06681" lon="8.225755"><ele>259.0</ele><time>2026-03-29T14:09:23.003Z</time></trkpt><trkpt lat="45.0666917" lon="8.2257867"><ele>259.75</ele><time>2026-03-29T14:09:24.002Z</time></trkpt><trkpt lat="45.06657" lon="8.2258183"><ele>260.5</ele><time>2026-03-29T14:09:25.005Z</time></trkpt><trkpt lat="45.0664483" lon="8.22585"><ele>261.25</ele><time>2026-03-29T14:09:26.002Z</time></trkpt><trkpt lat="45.0663283" lon="8.2258817"><ele>262.0</ele><time>2026-03-29T14:09:27.007Z</time></trkpt><trkpt lat="45.0662083" lon="8.2259133"><ele>262.0</ele><time>2026-03-29T14:09:28.01Z</time></trkpt><trkpt lat="45.0660917" lon="8.2259417"><ele>262.0</ele><time>2026-03-29T14:09:29.008Z</time></trkpt><trkpt lat="45.0659733" lon="8.2259717"><ele>262.0</ele><time>2026-03-29T14:09:30.003Z</time></trkpt><trkpt lat="45.0658533" lon="8.226005"><ele>262.0</ele><time>2026-03-29T14:09:31.006Z</time></trkpt><trkpt lat="45.0657333" lon="8.22604"><ele>261.8</ele><time>2026-03-29T14:09:32.004Z</time></trkpt><trkpt lat="45.065615" lon="8.2260733"><ele>261.6</ele><time>2026-03-29T14:09:33.005Z</time></trkpt><trkpt lat="45.0655017" lon="8.2261"><ele>261.40000000000003</ele><time>2026-03-29T14:09:34.005Z</time></trkpt><trkpt lat="45.0653933" lon="8.2261267"><ele>261.2</ele><time>2026-03-29T14:09:35.001Z</time></trkpt><trkpt lat="45.0652917" lon="8.226155"><ele>261.0</ele><time>2026-03-29T14:09:36.007Z</time></trkpt><trkpt lat="45.0651983" lon="8.2261867"><ele>261.0</ele><time>2026-03-29T14:09:37.008Z</time></trkpt><trkpt lat="45.0651117" lon="8.226225"><ele>261.0</ele><time>2026-03-29T14:09:38.008Z</time></trkpt><trkpt lat="45.0650317" lon="8.2262767"><ele>261.0</ele><time>2026-03-29T14:09:39.007Z</time></trkpt><trkpt lat="45.06496" lon="8.2263417"><ele>261.0</ele><time>2026-03-29T14:09:40.005Z</time></trkpt><trkpt lat="45.0649117" lon="8.2264383"><ele>261.0</ele><time>2026-03-29T14:09:41.007Z</time></trkpt><trkpt lat="45.06487" lon="8.2265583"><ele>261.0</ele><time>2026-03-29T14:09:42.005Z</time></trkpt><trkpt lat="45.064845" lon="8.2266933"><ele>262.6</ele><time>2026-03-29T14:09:43.006Z</time></trkpt><trkpt lat="45.0648433" lon="8.2268517"><ele>264.20000000000005</ele><time>2026-03-29T14:09:44.003Z</time></trkpt><trkpt lat="45.064825" lon="8.22699"><ele>265.79999999999995</ele><time>2026-03-29T14:09:45.003Z</time></trkpt><trkpt lat="45.0648033" lon="8.227115"><ele>267.4</ele><time>2026-03-29T14:09:46.004Z</time></trkpt><trkpt lat="45.0647783" lon="8.227235"><ele>269.0</ele><time>2026-03-29T14:09:47.004Z</time></trkpt><trkpt lat="45.0647567" lon="8.2273517"><ele>269.33333333333337</ele><time>2026-03-29T14:09:48.003Z</time></trkpt><trkpt lat="45.0647517" lon="8.2274667"><ele>269.6666666666667</ele><time>2026-03-29T14:09:49.005Z</time></trkpt><trkpt lat="45.064735" lon="8.2275783"><ele>270.0</ele><time>2026-03-29T14:09:50.003Z</time></trkpt><trkpt lat="45.0647283" lon="8.2276917"><ele>270.3333333333333</ele><time>2026-03-29T14:09:51.002Z</time></trkpt><trkpt lat="45.0647433" lon="8.227795"><ele>270.66666666666663</ele><time>2026-03-29T14:09:52.005Z</time></trkpt><trkpt lat="45.0647817" lon="8.2278833"><ele>271.0</ele><time>2026-03-29T14:09:53.004Z</time></trkpt><trkpt lat="45.0648433" lon="8.227965"><ele>271.0</ele><time>2026-03-29T14:09:54.006Z</time></trkpt><trkpt lat="45.0649033" lon="8.22804"><ele>271.0</ele><time>2026-03-29T14:09:55.008Z</time></trkpt><trkpt lat="45.0650067" lon="8.2281033"><ele>271.0</ele><time>2026-03-29T14:09:56.006Z</time></trkpt><trkpt lat="45.0650867" lon="8.228185"><ele>271.0</ele><time>2026-03-29T14:09:57.006Z</time></trkpt><trkpt lat="45.0651917" lon="8.2282633"><ele>271.0</ele><time>2026-03-29T14:09:58.008Z</time></trkpt><trkpt lat="45.0652817" lon="8.2283517"><ele>270.25</ele><time>2026-03-29T14:09:59.006Z</time></trkpt><trkpt lat="45.065375" lon="8.2284517"><ele>269.5</ele><time>2026-03-29T14:10:00.011Z</time></trkpt><trkpt lat="45.0654733" lon="8.228565"><ele>268.75</ele><time>2026-03-29T14:10:01.007Z</time></trkpt><trkpt lat="45.0655683" lon="8.228685"><ele>268.0</ele><time>2026-03-29T14:10:02.004Z</time></trkpt><trkpt lat="45.0656567" lon="8.2288083"><ele>268.0</ele><time>2026-03-29T14:10:03.007Z</time></trkpt><trkpt lat="45.0657433" lon="8.2289333"><ele>268.0</ele><time>2026-03-29T14:10:04.003Z</time></trkpt><trkpt lat="45.065835" lon="8.2290617"><ele>268.0</ele><time>2026-03-29T14:10:05.005Z</time></trkpt><trkpt lat="45.0659267" lon="8.2291933"><ele>268.0</ele><time>2026-03-29T14:10:06.003Z</time></trkpt><trkpt lat="45.066015" lon="8.2293233"><ele>267.25</ele><time>2026-03-29T14:10:07.008Z</time></trkpt><trkpt lat="45.0660983" lon="8.2294533"><ele>266.5</ele><time>2026-03-29T14:10:08.007Z</time></trkpt><trkpt lat="45.0661817" lon="8.2295867"><ele>265.75</ele><time>2026-03-29T14:10:09.003Z</time></trkpt><trkpt lat="45.0662683" lon="8.2297167"><ele>265.0</ele><time>2026-03-29T14:10:10.003Z</time></trkpt><trkpt lat="45.0663533" lon="8.2298483"><ele>265.75</ele><time>2026-03-29T14:10:11.004Z</time></trkpt><trkpt lat="45.0664367" lon="8.22998"><ele>266.5</ele><time>2026-03-29T14:10:12.009Z</time></trkpt><trkpt lat="45.0665183" lon="8.2301083"><ele>267.25</ele><time>2026-03-29T14:10:13.008Z</time></trkpt><trkpt lat="45.0665983" lon="8.2302367"><ele>268.0</ele><time>2026-03-29T14:10:14.012Z</time></trkpt><trkpt lat="45.0666667" lon="8.2303683"><ele>268.0</ele><time>2026-03-29T14:10:15.006Z</time></trkpt><trkpt lat="45.0667183" lon="8.2305117"><ele>268.0</ele><time>2026-03-29T14:10:16.007Z</time></trkpt><trkpt lat="45.066755" lon="8.2306717"><ele>268.0</ele><time>2026-03-29T14:10:17.008Z</time></trkpt><trkpt lat="45.0667717" lon="8.2308433"><ele>268.0</ele><time>2026-03-29T14:10:18.005Z</time></trkpt><trkpt lat="45.0667717" lon="8.2310117"><ele>267.25</ele><time>2026-03-29T14:10:19.005Z</time></trkpt><trkpt lat="45.0667417" lon="8.2311817"><ele>266.5</ele><time>2026-03-29T14:10:20.006Z</time></trkpt><trkpt lat="45.066705" lon="8.23135"><ele>265.75</ele><time>2026-03-29T14:10:21.009Z</time></trkpt><trkpt lat="45.0666517" lon="8.23153"><ele>265.0</ele><time>2026-03-29T14:10:22.008Z</time></trkpt><trkpt lat="45.0665983" lon="8.2317133"><ele>261.25</ele><time>2026-03-29T14:10:23.003Z</time></trkpt><trkpt lat="45.066545" lon="8.2319"><ele>257.5</ele><time>2026-03-29T14:10:24.006Z</time></trkpt><trkpt lat="45.0664867" lon="8.2320883"><ele>253.75</ele><time>2026-03-29T14:10:25.007Z</time></trkpt><trkpt lat="45.06643" lon="8.2322767"><ele>250.0</ele><time>2026-03-29T14:10:26.005Z</time></trkpt><trkpt lat="45.066375" lon="8.232465"><ele>250.0</ele><time>2026-03-29T14:10:27.003Z</time></trkpt><trkpt lat="45.0663233" lon="8.2326567"><ele>250.0</ele><time>2026-03-29T14:10:28.001Z</time></trkpt><trkpt lat="45.0662717" lon="8.2328467"><ele>250.0</ele><time>2026-03-29T14:10:29.004Z</time></trkpt><trkpt lat="45.06622" lon="8.2330367"><ele>250.0</ele><time>2026-03-29T14:10:30.005Z</time></trkpt><trkpt lat="45.06617" lon="8.2332267"><ele>249.25</ele><time>2026-03-29T14:10:31.006Z</time></trkpt><trkpt lat="45.06612" lon="8.2334217"><ele>248.5</ele><time>2026-03-29T14:10:32.004Z</time></trkpt><trkpt lat="45.066065" lon="8.233615"><ele>247.75</ele><time>2026-03-29T14:10:33.009Z</time></trkpt><trkpt lat="45.06601" lon="8.2338033"><ele>247.0</ele><time>2026-03-29T14:10:34.004Z</time></trkpt><trkpt lat="45.0659583" lon="8.2339917"><ele>247.0</ele><time>2026-03-29T14:10:35.003Z</time></trkpt><trkpt lat="45.06591" lon="8.2341817"><ele>247.0</ele><time>2026-03-29T14:10:36.006Z</time></trkpt><trkpt lat="45.0658633" lon="8.2343733"><ele>247.0</ele><time>2026-03-29T14:10:37.002Z</time></trkpt><trkpt lat="45.0658133" lon="8.2345717"><ele>247.0</ele><time>2026-03-29T14:10:38.004Z</time></trkpt><trkpt lat="45.0657617" lon="8.2347733"><ele>243.0</ele><time>2026-03-29T14:10:39.005Z</time></trkpt><trkpt lat="45.06571" lon="8.2349717"><ele>239.0</ele><time>2026-03-29T14:10:40.006Z</time></trkpt><trkpt lat="45.0656583" lon="8.2351733"><ele>235.0</ele><time>2026-03-29T14:10:41.005Z</time></trkpt><trkpt lat="45.0656067" lon="8.2353717"><ele>235.0</ele><time>2026-03-29T14:10:42.006Z</time></trkpt><trkpt lat="45.0655567" lon="8.2355683"><ele>235.0</ele><time>2026-03-29T14:10:43.004Z</time></trkpt><trkpt lat="45.0655067" lon="8.2357617"><ele>235.0</ele><time>2026-03-29T14:10:44.004Z</time></trkpt><trkpt lat="45.0654583" lon="8.235955"><ele>235.0</ele><time>2026-03-29T14:10:45.01Z</time></trkpt><trkpt lat="45.0654067" lon="8.2361433"><ele>234.75</ele><time>2026-03-29T14:10:46.016Z</time></trkpt><trkpt lat="45.0653567" lon="8.2363333"><ele>234.5</ele><time>2026-03-29T14:10:47.004Z</time></trkpt><trkpt lat="45.0652983" lon="8.2365183"><ele>234.25</ele><time>2026-03-29T14:10:48.006Z</time></trkpt><trkpt lat="45.065235" lon="8.2366933"><ele>234.0</ele><time>2026-03-29T14:10:49.005Z</time></trkpt><trkpt lat="45.065165" lon="8.2368567"><ele>234.5</ele><time>2026-03-29T14:10:50.005Z</time></trkpt><trkpt lat="45.0650967" lon="8.2370133"><ele>235.0</ele><time>2026-03-29T14:10:51.005Z</time></trkpt><trkpt lat="45.0650283" lon="8.2371633"><ele>235.5</ele><time>2026-03-29T14:10:52.008Z</time></trkpt><trkpt lat="45.0649583" lon="8.2373083"><ele>236.0</ele><time>2026-03-29T14:10:53.009Z</time></trkpt><trkpt lat="45.0648883" lon="8.23745"><ele>234.25</ele><time>2026-03-29T14:10:54.002Z</time></trkpt><trkpt lat="45.064815" lon="8.237585"><ele>232.5</ele><time>2026-03-29T14:10:55.011Z</time></trkpt><trkpt lat="45.0647483" lon="8.2377183"><ele>230.75</ele><time>2026-03-29T14:10:56.005Z</time></trkpt><trkpt lat="45.06468" lon="8.2378483"><ele>229.0</ele><time>2026-03-29T14:10:57.008Z</time></trkpt><trkpt lat="45.0646133" lon="8.23797"><ele>229.0</ele><time>2026-03-29T14:10:58.007Z</time></trkpt><trkpt lat="45.0645433" lon="8.2380867"><ele>228.99999999999997</ele><time>2026-03-29T14:10:59.01Z</time></trkpt><trkpt lat="45.0644683" lon="8.238195"><ele>228.99999999999997</ele><time>2026-03-29T14:11:00.007Z</time></trkpt><trkpt lat="45.0643967" lon="8.2382967"><ele>229.0</ele><time>2026-03-29T14:11:01.005Z</time></trkpt><trkpt lat="45.06432" lon="8.2383933"><ele>229.0</ele><time>2026-03-29T14:11:02.008Z</time></trkpt><trkpt lat="45.06424" lon="8.23849"><ele>228.79999999999998</ele><time>2026-03-29T14:11:03.004Z</time></trkpt><trkpt lat="45.064155" lon="8.23858"><ele>228.59999999999997</ele><time>2026-03-29T14:11:04.017Z</time></trkpt><trkpt lat="45.0640683" lon="8.2386667"><ele>228.4</ele><time>2026-03-29T14:11:05.006Z</time></trkpt><trkpt lat="45.0639817" lon="8.2387517"><ele>228.2</ele><time>2026-03-29T14:11:06.011Z</time></trkpt><trkpt lat="45.0638983" lon="8.23883"><ele>228.0</ele><time>2026-03-29T14:11:07.01Z</time></trkpt><trkpt lat="45.0638183" lon="8.23891"><ele>226.4</ele><time>2026-03-29T14:11:08.004Z</time></trkpt><trkpt lat="45.06374" lon="8.23899"><ele>224.8</ele><time>2026-03-29T14:11:09.009Z</time></trkpt><trkpt lat="45.06366" lon="8.2390683"><ele>223.2</ele><time>2026-03-29T14:11:10.009Z</time></trkpt><trkpt lat="45.0635833" lon="8.2391417"><ele>221.6</ele><time>2026-03-29T14:11:11.005Z</time></trkpt><trkpt lat="45.063505" lon="8.2392133"><ele>220.0</ele><time>2026-03-29T14:11:12.006Z</time></trkpt><trkpt lat="45.0634283" lon="8.2392783"><ele>219.99999999999997</ele><time>2026-03-29T14:11:13.005Z</time></trkpt><trkpt lat="45.063355" lon="8.2393483"><ele>220.0</ele><time>2026-03-29T14:11:14Z</time></trkpt><trkpt lat="45.0632833" lon="8.239415"><ele>220.0</ele><time>2026-03-29T14:11:15.003Z</time></trkpt><trkpt lat="45.0632117" lon="8.2394833"><ele>220.0</ele><time>2026-03-29T14:11:16.003Z</time></trkpt><trkpt lat="45.06314" lon="8.2395517"><ele>219.99999999999997</ele><time>2026-03-29T14:11:17.005Z</time></trkpt><trkpt lat="45.06307" lon="8.2396183"><ele>220.0</ele><time>2026-03-29T14:11:18.002Z</time></trkpt><trkpt lat="45.0629983" lon="8.239685"><ele>219.66666666666666</ele><time>2026-03-29T14:11:19.007Z</time></trkpt><trkpt lat="45.0629333" lon="8.2397517"><ele>219.33333333333331</ele><time>2026-03-29T14:11:20.003Z</time></trkpt><trkpt lat="45.0628733" lon="8.2398133"><ele>219.0</ele><time>2026-03-29T14:11:21.003Z</time></trkpt><trkpt lat="45.0628217" lon="8.23987"><ele>218.66666666666669</ele><time>2026-03-29T14:11:22.003Z</time></trkpt><trkpt lat="45.0627367" lon="8.23996"><ele>218.33333333333334</ele><time>2026-03-29T14:11:24.006Z</time></trkpt><trkpt lat="45.062695" lon="8.240065"><ele>218.0</ele><time>2026-03-29T14:11:27.004Z</time></trkpt><trkpt lat="45.0627" lon="8.240175"><ele>218.0</ele><time>2026-03-29T14:11:29.005Z</time></trkpt><trkpt lat="45.0627717" lon="8.2402433"><ele>218.0</ele><time>2026-03-29T14:11:30.007Z</time></trkpt><trkpt lat="45.06283" lon="8.2403217"><ele>218.0</ele><time>2026-03-29T14:11:31.004Z</time></trkpt><trkpt lat="45.0629" lon="8.2404133"><ele>218.0</ele><time>2026-03-29T14:11:32.003Z</time></trkpt><trkpt lat="45.0629917" lon="8.240535"><ele>218.0</ele><time>2026-03-29T14:11:33.007Z</time></trkpt><trkpt lat="45.0630867" lon="8.2406767"><ele>219.5</ele><time>2026-03-29T14:11:34.009Z</time></trkpt><trkpt lat="45.0631867" lon="8.240825"><ele>221.0</ele><time>2026-03-29T14:11:35.009Z</time></trkpt><trkpt lat="45.0632833" lon="8.2409833"><ele>222.5</ele><time>2026-03-29T14:11:36.007Z</time></trkpt><trkpt lat="45.0633783" lon="8.24115"><ele>224.0</ele><time>2026-03-29T14:11:37.005Z</time></trkpt><trkpt lat="45.063475" lon="8.2413183"><ele>218.0</ele><time>2026-03-29T14:11:38.003Z</time></trkpt><trkpt lat="45.0635833" lon="8.241485"><ele>212.0</ele><time>2026-03-29T14:11:39.008Z</time></trkpt><trkpt lat="45.0636833" lon="8.2416483"><ele>206.0</ele><time>2026-03-29T14:11:40.002Z</time></trkpt><trkpt lat="45.0637883" lon="8.2418067"><ele>206.0</ele><time>2026-03-29T14:11:41.005Z</time></trkpt><trkpt lat="45.0638967" lon="8.2419533"><ele>206.0</ele><time>2026-03-29T14:11:42.003Z</time></trkpt><trkpt lat="45.06401" lon="8.2420833"><ele>206.0</ele><time>2026-03-29T14:11:43.006Z</time></trkpt><trkpt lat="45.0641267" lon="8.2421983"><ele>206.0</ele><time>2026-03-29T14:11:44.002Z</time></trkpt><trkpt lat="45.0642467" lon="8.2422983"><ele>205.75</ele><time>2026-03-29T14:11:45.003Z</time></trkpt><trkpt lat="45.0643683" lon="8.24238"><ele>205.5</ele><time>2026-03-29T14:11:46.003Z</time></trkpt><trkpt lat="45.06449" lon="8.2424517"><ele>205.25</ele><time>2026-03-29T14:11:47.004Z</time></trkpt><trkpt lat="45.064605" lon="8.2425133"><ele>205.0</ele><time>2026-03-29T14:11:48.002Z</time></trkpt><trkpt lat="45.06471" lon="8.2425583"><ele>204.99999999999997</ele><time>2026-03-29T14:11:49.004Z</time></trkpt><trkpt lat="45.0648033" lon="8.2425917"><ele>205.0</ele><time>2026-03-29T14:11:50.005Z</time></trkpt><trkpt lat="45.0648833" lon="8.2426233"><ele>205.0</ele><time>2026-03-29T14:11:51.007Z</time></trkpt><trkpt lat="45.0649517" lon="8.2426567"><ele>205.0</ele><time>2026-03-29T14:11:52.006Z</time></trkpt><trkpt lat="45.065025" lon="8.2426833"><ele>204.99999999999997</ele><time>2026-03-29T14:11:53.003Z</time></trkpt><trkpt lat="45.065105" lon="8.242695"><ele>205.0</ele><time>2026-03-29T14:11:54.007Z</time></trkpt><trkpt lat="45.065195" lon="8.2426983"><ele>204.8</ele><time>2026-03-29T14:11:55.006Z</time></trkpt><trkpt lat="45.0652883" lon="8.2426917"><ele>204.6</ele><time>2026-03-29T14:11:56.007Z</time></trkpt><trkpt lat="45.06539" lon="8.2426767"><ele>204.39999999999998</ele><time>2026-03-29T14:11:57.005Z</time></trkpt><trkpt lat="45.0655" lon="8.2426517"><ele>204.2</ele><time>2026-03-29T14:11:58.007Z</time></trkpt><trkpt lat="45.0656183" lon="8.2425983"><ele>204.0</ele><time>2026-03-29T14:11:59.005Z</time></trkpt><trkpt lat="45.065735" lon="8.2425283"><ele>204.66666666666669</ele><time>2026-03-29T14:12:00.011Z</time></trkpt><trkpt lat="45.0658617" lon="8.24243"><ele>205.33333333333334</ele><time>2026-03-29T14:12:01.007Z</time></trkpt><trkpt lat="45.0660017" lon="8.2423383"><ele>206.0</ele><time>2026-03-29T14:12:02.009Z</time></trkpt><trkpt lat="45.0661533" lon="8.24225"><ele>206.0</ele><time>2026-03-29T14:12:03.013Z</time></trkpt><trkpt lat="45.0663167" lon="8.2421817"><ele>206.0</ele><time>2026-03-29T14:12:04.007Z</time></trkpt><trkpt lat="45.0664917" lon="8.2421217"><ele>206.0</ele><time>2026-03-29T14:12:05.008Z</time></trkpt><trkpt lat="45.0666683" lon="8.24207"><ele>207.33333333333334</ele><time>2026-03-29T14:12:06.006Z</time></trkpt><trkpt lat="45.0668433" lon="8.2420233"><ele>208.66666666666669</ele><time>2026-03-29T14:12:07.007Z</time></trkpt><trkpt lat="45.06701" lon="8.24198"><ele>210.0</ele><time>2026-03-29T14:12:08.004Z</time></trkpt><trkpt lat="45.0671533" lon="8.2419433"><ele>210.0</ele><time>2026-03-29T14:12:09.001Z</time></trkpt><trkpt lat="45.067285" lon="8.2419067"><ele>210.0</ele><time>2026-03-29T14:12:10.004Z</time></trkpt><trkpt lat="45.0674067" lon="8.24187"><ele>210.0</ele><time>2026-03-29T14:12:11.005Z</time></trkpt><trkpt lat="45.06751" lon="8.24184"><ele>210.0</ele><time>2026-03-29T14:12:12.005Z</time></trkpt><trkpt lat="45.067625" lon="8.2418033"><ele>212.75</ele><time>2026-03-29T14:12:13.005Z</time></trkpt><trkpt lat="45.067735" lon="8.24177"><ele>215.5</ele><time>2026-03-29T14:12:14.007Z</time></trkpt><trkpt lat="45.06785" lon="8.2417417"><ele>218.25</ele><time>2026-03-29T14:12:15.003Z</time></trkpt><trkpt lat="45.0679733" lon="8.2417233"><ele>221.0</ele><time>2026-03-29T14:12:16.004Z</time></trkpt><trkpt lat="45.0681017" lon="8.2417117"><ele>221.0</ele><time>2026-03-29T14:12:17.003Z</time></trkpt><trkpt lat="45.068235" lon="8.2417083"><ele>221.0</ele><time>2026-03-29T14:12:18.001Z</time></trkpt><trkpt lat="45.0683683" lon="8.2417217"><ele>221.0</ele><time>2026-03-29T14:12:19.011Z</time></trkpt><trkpt lat="45.0685067" lon="8.2417333"><ele>221.0</ele><time>2026-03-29T14:12:20.006Z</time></trkpt><trkpt lat="45.06865" lon="8.241735"><ele>223.0</ele><time>2026-03-29T14:12:21.002Z</time></trkpt><trkpt lat="45.0687933" lon="8.24172"><ele>225.0</ele><time>2026-03-29T14:12:22.011Z</time></trkpt><trkpt lat="45.0689383" lon="8.2416833"><ele>227.0</ele><time>2026-03-29T14:12:23Z</time></trkpt><trkpt lat="45.06908" lon="8.2416433"><ele>229.0</ele><time>2026-03-29T14:12:24.007Z</time></trkpt><trkpt lat="45.0692267" lon="8.241595"><ele>229.75</ele><time>2026-03-29T14:12:25.006Z</time></trkpt><trkpt lat="45.0693717" lon="8.2415433"><ele>230.5</ele><time>2026-03-29T14:12:26.01Z</time></trkpt><trkpt lat="45.0695183" lon="8.2415"><ele>231.25</ele><time>2026-03-29T14:12:27.006Z</time></trkpt><trkpt lat="45.0696617" lon="8.2414667"><ele>232.0</ele><time>2026-03-29T14:12:28.003Z</time></trkpt><trkpt lat="45.0698" lon="8.2414383"><ele>232.0</ele><time>2026-03-29T14:12:29.004Z</time></trkpt><trkpt lat="45.069935" lon="8.2414033"><ele>232.0</ele><time>2026-03-29T14:12:30.003Z</time></trkpt><trkpt lat="45.0700667" lon="8.24137"><ele>232.0</ele><time>2026-03-29T14:12:31.004Z</time></trkpt><trkpt lat="45.0701983" lon="8.24133"><ele>232.0</ele><time>2026-03-29T14:12:32.003Z</time></trkpt><trkpt lat="45.0703283" lon="8.24129"><ele>234.0</ele><time>2026-03-29T14:12:33.004Z</time></trkpt><trkpt lat="45.07046" lon="8.2412383"><ele>236.0</ele><time>2026-03-29T14:12:34.003Z</time></trkpt><trkpt lat="45.0705917" lon="8.2411833"><ele>238.0</ele><time>2026-03-29T14:12:35.003Z</time></trkpt><trkpt lat="45.0707167" lon="8.2411283"><ele>240.0</ele><time>2026-03-29T14:12:36.006Z</time></trkpt><trkpt lat="45.070845" lon="8.2410733"><ele>241.25</ele><time>2026-03-29T14:12:37.005Z</time></trkpt><trkpt lat="45.070975" lon="8.24102"><ele>242.5</ele><time>2026-03-29T14:12:38.006Z</time></trkpt><trkpt lat="45.0711017" lon="8.2409683"><ele>243.75</ele><time>2026-03-29T14:12:39.003Z</time></trkpt><trkpt lat="45.0712333" lon="8.2409233"><ele>245.0</ele><time>2026-03-29T14:12:40.006Z</time></trkpt><trkpt lat="45.0713683" lon="8.2408783"><ele>245.0</ele><time>2026-03-29T14:12:41.008Z</time></trkpt><trkpt lat="45.0715083" lon="8.240845"><ele>245.0</ele><time>2026-03-29T14:12:42.005Z</time></trkpt><trkpt lat="45.07165" lon="8.2408067"><ele>245.0</ele><time>2026-03-29T14:12:43.004Z</time></trkpt><trkpt lat="45.071795" lon="8.24077"><ele>245.0</ele><time>2026-03-29T14:12:44.006Z</time></trkpt><trkpt lat="45.07194" lon="8.2407267"><ele>245.75</ele><time>2026-03-29T14:12:45.005Z</time></trkpt><trkpt lat="45.0720833" lon="8.2406833"><ele>246.5</ele><time>2026-03-29T14:12:46.005Z</time></trkpt><trkpt lat="45.072225" lon="8.2406367"><ele>247.25</ele><time>2026-03-29T14:12:47.004Z</time></trkpt><trkpt lat="45.072365" lon="8.240595"><ele>248.0</ele><time>2026-03-29T14:12:48.001Z</time></trkpt><trkpt lat="45.0724983" lon="8.2405483"><ele>250.25</ele><time>2026-03-29T14:12:49.004Z</time></trkpt><trkpt lat="45.0726317" lon="8.2405033"><ele>252.5</ele><time>2026-03-29T14:12:50.007Z</time></trkpt><trkpt lat="45.0727633" lon="8.2404717"><ele>254.75</ele><time>2026-03-29T14:12:51.003Z</time></trkpt><trkpt lat="45.072895" lon="8.2404483"><ele>257.0</ele><time>2026-03-29T14:12:52.004Z</time></trkpt><trkpt lat="45.0730283" lon="8.2404283"><ele>257.0</ele><time>2026-03-29T14:12:53.003Z</time></trkpt><trkpt lat="45.0731567" lon="8.2404167"><ele>257.0</ele><time>2026-03-29T14:12:54.005Z</time></trkpt><trkpt lat="45.073275" lon="8.2404067"><ele>257.0</ele><time>2026-03-29T14:12:55.006Z</time></trkpt><trkpt lat="45.0733883" lon="8.2403967"><ele>257.0</ele><time>2026-03-29T14:12:56.008Z</time></trkpt><trkpt lat="45.0735" lon="8.2403817"><ele>258.4</ele><time>2026-03-29T14:12:57.008Z</time></trkpt><trkpt lat="45.0736067" lon="8.24037"><ele>259.79999999999995</ele><time>2026-03-29T14:12:58.008Z</time></trkpt><trkpt lat="45.0737067" lon="8.240365"><ele>261.2</ele><time>2026-03-29T14:12:59.006Z</time></trkpt><trkpt lat="45.073805" lon="8.24036"><ele>262.59999999999997</ele><time>2026-03-29T14:13:00.01Z</time></trkpt><trkpt lat="45.0739017" lon="8.240355"><ele>264.0</ele><time>2026-03-29T14:13:01.007Z</time></trkpt><trkpt lat="45.073995" lon="8.2403467"><ele>264.0</ele><time>2026-03-29T14:13:02.003Z</time></trkpt><trkpt lat="45.074085" lon="8.24035"><ele>264.0</ele><time>2026-03-29T14:13:03.013Z</time></trkpt><trkpt lat="45.074175" lon="8.2403733"><ele>264.0</ele><time>2026-03-29T14:13:04.006Z</time></trkpt><trkpt lat="45.07427" lon="8.2404"><ele>264.0</ele><time>2026-03-29T14:13:05.005Z</time></trkpt><trkpt lat="45.0743617" lon="8.240435"><ele>264.0</ele><time>2026-03-29T14:13:06.007Z</time></trkpt><trkpt lat="45.074455" lon="8.24048"><ele>264.59999999999997</ele><time>2026-03-29T14:13:07.006Z</time></trkpt><trkpt lat="45.074545" lon="8.2405283"><ele>265.2</ele><time>2026-03-29T14:13:08.01Z</time></trkpt><trkpt lat="45.0746317" lon="8.2405783"><ele>265.79999999999995</ele><time>2026-03-29T14:13:09.005Z</time></trkpt><trkpt lat="45.0747117" lon="8.24062"><ele>266.4</ele><time>2026-03-29T14:13:10.005Z</time></trkpt><trkpt lat="45.07481" lon="8.240665"><ele>267.0</ele><time>2026-03-29T14:13:11.004Z</time></trkpt><trkpt lat="45.07491" lon="8.24074"><ele>269.25</ele><time>2026-03-29T14:13:12.003Z</time></trkpt><trkpt lat="45.07501" lon="8.2408233"><ele>271.5</ele><time>2026-03-29T14:13:13.008Z</time></trkpt><trkpt lat="45.075115" lon="8.2409133"><ele>273.75</ele><time>2026-03-29T14:13:14.001Z</time></trkpt><trkpt lat="45.07522" lon="8.2410083"><ele>276.0</ele><time>2026-03-29T14:13:15.003Z</time></trkpt><trkpt lat="45.0753133" lon="8.241095"><ele>276.0</ele><time>2026-03-29T14:13:16.007Z</time></trkpt><trkpt lat="45.075405" lon="8.2411817"><ele>276.0</ele><time>2026-03-29T14:13:17.005Z</time></trkpt><trkpt lat="45.0754967" lon="8.2412533"><ele>276.0</ele><time>2026-03-29T14:13:18.006Z</time></trkpt><trkpt lat="45.0755817" lon="8.2413383"><ele>276.0</ele><time>2026-03-29T14:13:19.001Z</time></trkpt><trkpt lat="45.0756617" lon="8.24141"><ele>276.0</ele><time>2026-03-29T14:13:20.008Z</time></trkpt><trkpt lat="45.0757383" lon="8.2414833"><ele>276.2</ele><time>2026-03-29T14:13:21.002Z</time></trkpt><trkpt lat="45.0758083" lon="8.2415517"><ele>276.40000000000003</ele><time>2026-03-29T14:13:22.004Z</time></trkpt><trkpt lat="45.0758817" lon="8.2416167"><ele>276.6</ele><time>2026-03-29T14:13:23.006Z</time></trkpt><trkpt lat="45.07596" lon="8.2416733"><ele>276.8</ele><time>2026-03-29T14:13:24.014Z</time></trkpt><trkpt lat="45.0760467" lon="8.24172"><ele>277.0</ele><time>2026-03-29T14:13:25.006Z</time></trkpt><trkpt lat="45.0761417" lon="8.24177"><ele>277.0</ele><time>2026-03-29T14:13:26.007Z</time></trkpt><trkpt lat="45.0762433" lon="8.2418117"><ele>277.0</ele><time>2026-03-29T14:13:27.004Z</time></trkpt><trkpt lat="45.0763533" lon="8.2418383"><ele>277.0</ele><time>2026-03-29T14:13:28.007Z</time></trkpt><trkpt lat="45.076465" lon="8.2418633"><ele>277.0</ele><time>2026-03-29T14:13:29.005Z</time></trkpt><trkpt lat="45.0765767" lon="8.2418767"><ele>277.0</ele><time>2026-03-29T14:13:30.005Z</time></trkpt><trkpt lat="45.0766767" lon="8.2418833"><ele>276.0</ele><time>2026-03-29T14:13:31.005Z</time></trkpt><trkpt lat="45.0767667" lon="8.2418817"><ele>275.0</ele><time>2026-03-29T14:13:32.008Z</time></trkpt><trkpt lat="45.076845" lon="8.2418767"><ele>274.0</ele><time>2026-03-29T14:13:33.003Z</time></trkpt><trkpt lat="45.0769483" lon="8.241885"><ele>273.0</ele><time>2026-03-29T14:13:35.002Z</time></trkpt><trkpt lat="45.07702" lon="8.2419033"><ele>272.0</ele><time>2026-03-29T14:13:37.005Z</time></trkpt><trkpt lat="45.0771333" lon="8.2419717"><ele>272.0</ele><time>2026-03-29T14:13:39.009Z</time></trkpt><trkpt lat="45.077195" lon="8.2420483"><ele>272.0</ele><time>2026-03-29T14:13:40.007Z</time></trkpt><trkpt lat="45.0772583" lon="8.2421517"><ele>272.0</ele><time>2026-03-29T14:13:41.006Z</time></trkpt><trkpt lat="45.0773233" lon="8.242275"><ele>272.0</ele><time>2026-03-29T14:13:42.005Z</time></trkpt><trkpt lat="45.0773917" lon="8.242395"><ele>272.0</ele><time>2026-03-29T14:13:43.004Z</time></trkpt><trkpt lat="45.07746" lon="8.2425017"><ele>272.0</ele><time>2026-03-29T14:13:44.01Z</time></trkpt><trkpt lat="45.077525" lon="8.2426"><ele>272.0</ele><time>2026-03-29T14:13:45.008Z</time></trkpt><trkpt lat="45.0775867" lon="8.2426933"><ele>272.0</ele><time>2026-03-29T14:13:46.005Z</time></trkpt><trkpt lat="45.0776483" lon="8.2427867"><ele>272.0</ele><time>2026-03-29T14:13:47.006Z</time></trkpt><trkpt lat="45.0777033" lon="8.2428817"><ele>272.0</ele><time>2026-03-29T14:13:48.002Z</time></trkpt><trkpt lat="45.07776" lon="8.2429833"><ele>272.0</ele><time>2026-03-29T14:13:49.003Z</time></trkpt><trkpt lat="45.0778183" lon="8.2430933"><ele>272.0</ele><time>2026-03-29T14:13:50.007Z</time></trkpt><trkpt lat="45.07788" lon="8.2432067"><ele>272.0</ele><time>2026-03-29T14:13:51.009Z</time></trkpt><trkpt lat="45.0779433" lon="8.2433233"><ele>272.0</ele><time>2026-03-29T14:13:52.008Z</time></trkpt><trkpt lat="45.0780083" lon="8.2434367"><ele>272.0</ele><time>2026-03-29T14:13:53.007Z</time></trkpt><trkpt lat="45.0780733" lon="8.2435467"><ele>272.0</ele><time>2026-03-29T14:13:54.012Z</time></trkpt><trkpt lat="45.07814" lon="8.2436517"><ele>272.0</ele><time>2026-03-29T14:13:55.009Z</time></trkpt><trkpt lat="45.07821" lon="8.24375"><ele>272.0</ele><time>2026-03-29T14:13:56.005Z</time></trkpt><trkpt lat="45.07828" lon="8.2438467"><ele>272.0</ele><time>2026-03-29T14:13:57.004Z</time></trkpt><trkpt lat="45.0783517" lon="8.2439383"><ele>272.0</ele><time>2026-03-29T14:13:58.002Z</time></trkpt><trkpt lat="45.0784317" lon="8.244025"><ele>270.83333333333337</ele><time>2026-03-29T14:13:59.007Z</time></trkpt><trkpt lat="45.0785117" lon="8.2441117"><ele>269.6666666666667</ele><time>2026-03-29T14:14:00.011Z</time></trkpt><trkpt lat="45.0785817" lon="8.244205"><ele>268.5</ele><time>2026-03-29T14:14:01.003Z</time></trkpt><trkpt lat="45.078635" lon="8.2442983"><ele>267.3333333333333</ele><time>2026-03-29T14:14:02.006Z</time></trkpt><trkpt lat="45.0786817" lon="8.244385"><ele>266.16666666666663</ele><time>2026-03-29T14:14:03.006Z</time></trkpt><trkpt lat="45.0787317" lon="8.2444617"><ele>265.0</ele><time>2026-03-29T14:14:04.004Z</time></trkpt><trkpt lat="45.0787883" lon="8.2445283"><ele>265.0</ele><time>2026-03-29T14:14:05.006Z</time></trkpt><trkpt lat="45.078845" lon="8.2445983"><ele>265.0</ele><time>2026-03-29T14:14:06.004Z</time></trkpt><trkpt lat="45.0789" lon="8.2446667"><ele>265.0</ele><time>2026-03-29T14:14:07.006Z</time></trkpt><trkpt lat="45.0789683" lon="8.244735"><ele>265.0</ele><time>2026-03-29T14:14:08.006Z</time></trkpt><trkpt lat="45.0790483" lon="8.2448017"><ele>265.0</ele><time>2026-03-29T14:14:09.005Z</time></trkpt><trkpt lat="45.0791467" lon="8.2448583"><ele>265.0</ele><time>2026-03-29T14:14:10.012Z</time></trkpt><trkpt lat="45.0792567" lon="8.2448983"><ele>264.8</ele><time>2026-03-29T14:14:11.005Z</time></trkpt><trkpt lat="45.0793633" lon="8.244955"><ele>264.6</ele><time>2026-03-29T14:14:12.003Z</time></trkpt><trkpt lat="45.079465" lon="8.2450117"><ele>264.4</ele><time>2026-03-29T14:14:13.006Z</time></trkpt><trkpt lat="45.0795617" lon="8.2450683"><ele>264.2</ele><time>2026-03-29T14:14:14.007Z</time></trkpt><trkpt lat="45.0796517" lon="8.2451333"><ele>264.0</ele><time>2026-03-29T14:14:15.006Z</time></trkpt><trkpt lat="45.0797383" lon="8.24519"><ele>264.0</ele><time>2026-03-29T14:14:16.003Z</time></trkpt><trkpt lat="45.079825" lon="8.245245"><ele>264.0</ele><time>2026-03-29T14:14:17.003Z</time></trkpt><trkpt lat="45.0799167" lon="8.2453"><ele>264.0</ele><time>2026-03-29T14:14:18.004Z</time></trkpt><trkpt lat="45.0800117" lon="8.245355"><ele>264.0</ele><time>2026-03-29T14:14:19.006Z</time></trkpt><trkpt lat="45.0801067" lon="8.24541"><ele>264.0</ele><time>2026-03-29T14:14:20.007Z</time></trkpt><trkpt lat="45.0802067" lon="8.24547"><ele>265.5</ele><time>2026-03-29T14:14:21.005Z</time></trkpt><trkpt lat="45.0803167" lon="8.245515"><ele>267.0</ele><time>2026-03-29T14:14:22.004Z</time></trkpt><trkpt lat="45.0804283" lon="8.2455533"><ele>268.5</ele><time>2026-03-29T14:14:23.003Z</time></trkpt><trkpt lat="45.08054" lon="8.2455883"><ele>270.0</ele><time>2026-03-29T14:14:24.007Z</time></trkpt><trkpt lat="45.08065" lon="8.245615"><ele>267.4</ele><time>2026-03-29T14:14:25.004Z</time></trkpt><trkpt lat="45.080755" lon="8.24565"><ele>264.8</ele><time>2026-03-29T14:14:26.006Z</time></trkpt><trkpt lat="45.0808583" lon="8.245675"><ele>262.2</ele><time>2026-03-29T14:14:27.006Z</time></trkpt><trkpt lat="45.0809583" lon="8.245695"><ele>259.6</ele><time>2026-03-29T14:14:28.004Z</time></trkpt><trkpt lat="45.0810567" lon="8.24571"><ele>257.0</ele><time>2026-03-29T14:14:29.008Z</time></trkpt><trkpt lat="45.0811533" lon="8.24572"><ele>257.0</ele><time>2026-03-29T14:14:30.004Z</time></trkpt><trkpt lat="45.0812517" lon="8.2457333"><ele>257.0</ele><time>2026-03-29T14:14:31.003Z</time></trkpt><trkpt lat="45.08136" lon="8.2457367"><ele>257.0</ele><time>2026-03-29T14:14:32.003Z</time></trkpt><trkpt lat="45.0814717" lon="8.245735"><ele>257.0</ele><time>2026-03-29T14:14:33.009Z</time></trkpt><trkpt lat="45.08159" lon="8.24573"><ele>257.0</ele><time>2026-03-29T14:14:34.004Z</time></trkpt><trkpt lat="45.08171" lon="8.24572"><ele>259.75</ele><time>2026-03-29T14:14:35.005Z</time></trkpt><trkpt lat="45.0818317" lon="8.245715"><ele>262.5</ele><time>2026-03-29T14:14:36.003Z</time></trkpt><trkpt lat="45.0819483" lon="8.24572"><ele>265.25</ele><time>2026-03-29T14:14:37.005Z</time></trkpt><trkpt lat="45.0820583" lon="8.2457317"><ele>268.0</ele><time>2026-03-29T14:14:38.005Z</time></trkpt><trkpt lat="45.082165" lon="8.2457433"><ele>268.0</ele><time>2026-03-29T14:14:39.002Z</time></trkpt><trkpt lat="45.08227" lon="8.24576"><ele>268.0</ele><time>2026-03-29T14:14:40.01Z</time></trkpt><trkpt lat="45.0823717" lon="8.24579"><ele>268.0</ele><time>2026-03-29T14:14:41.004Z</time></trkpt><trkpt lat="45.08247" lon="8.2458283"><ele>268.0</ele><time>2026-03-29T14:14:42.001Z</time></trkpt><trkpt lat="45.0825667" lon="8.2458867"><ele>268.0</ele><time>2026-03-29T14:14:43.004Z</time></trkpt><trkpt lat="45.0826617" lon="8.2459517"><ele>268.2</ele><time>2026-03-29T14:14:44.002Z</time></trkpt><trkpt lat="45.08275" lon="8.246015"><ele>268.4</ele><time>2026-03-29T14:14:45.003Z</time></trkpt><trkpt lat="45.082835" lon="8.246075"><ele>268.59999999999997</ele><time>2026-03-29T14:14:46.004Z</time></trkpt><trkpt lat="45.0829167" lon="8.2461333"><ele>268.8</ele><time>2026-03-29T14:14:47.004Z</time></trkpt><trkpt lat="45.0829967" lon="8.2461883"><ele>269.0</ele><time>2026-03-29T14:14:48.006Z</time></trkpt><trkpt lat="45.0830767" lon="8.246235"><ele>269.0</ele><time>2026-03-29T14:14:49.002Z</time></trkpt><trkpt lat="45.0831617" lon="8.246275"><ele>269.0</ele><time>2026-03-29T14:14:50.003Z</time></trkpt><trkpt lat="45.08325" lon="8.2462967"><ele>269.0</ele><time>2026-03-29T14:14:51.008Z</time></trkpt><trkpt lat="45.0833383" lon="8.24629"><ele>269.0</ele><time>2026-03-29T14:14:52.006Z</time></trkpt><trkpt lat="45.0834233" lon="8.2462617"><ele>269.0</ele><time>2026-03-29T14:14:53.003Z</time></trkpt><trkpt lat="45.0835" lon="8.2462083"><ele>269.0</ele><time>2026-03-29T14:14:54.006Z</time></trkpt><trkpt lat="45.083575" lon="8.2461383"><ele>270.1666666666667</ele><time>2026-03-29T14:14:55.007Z</time></trkpt><trkpt lat="45.0836383" lon="8.2460433"><ele>271.33333333333337</ele><time>2026-03-29T14:14:56.007Z</time></trkpt><trkpt lat="45.0836917" lon="8.2459517"><ele>272.5</ele><time>2026-03-29T14:14:57.005Z</time></trkpt><trkpt lat="45.0837333" lon="8.2458617"><ele>273.6666666666667</ele><time>2026-03-29T14:14:58.004Z</time></trkpt><trkpt lat="45.08377" lon="8.2457867"><ele>274.8333333333333</ele><time>2026-03-29T14:14:59.004Z</time></trkpt><trkpt lat="45.0838217" lon="8.24569"><ele>276.0</ele><time>2026-03-29T14:15:01.006Z</time></trkpt><trkpt lat="45.0838767" lon="8.2456"><ele>277.40000000000003</ele><time>2026-03-29T14:15:04.007Z</time></trkpt><trkpt lat="45.0839183" lon="8.2455067"><ele>278.8</ele><time>2026-03-29T14:15:06.008Z</time></trkpt><trkpt lat="45.08399" lon="8.2453967"><ele>280.20000000000005</ele><time>2026-03-29T14:15:08.003Z</time></trkpt><trkpt lat="45.084065" lon="8.2452967"><ele>281.6</ele><time>2026-03-29T14:15:10.003Z</time></trkpt><trkpt lat="45.0841617" lon="8.2452633"><ele>283.0</ele><time>2026-03-29T14:15:12.004Z</time></trkpt><trkpt lat="45.0842333" lon="8.2452417"><ele>283.0</ele><time>2026-03-29T14:15:13.003Z</time></trkpt><trkpt lat="45.0843433" lon="8.2451617"><ele>283.0</ele><time>2026-03-29T14:15:15.004Z</time></trkpt><trkpt lat="45.0844033" lon="8.2450667"><ele>283.0</ele><time>2026-03-29T14:15:16.003Z</time></trkpt><trkpt lat="45.0844533" lon="8.2449733"><ele>283.0</ele><time>2026-03-29T14:15:17.003Z</time></trkpt><trkpt lat="45.084495" lon="8.24489"><ele>283.0</ele><time>2026-03-29T14:15:18.001Z</time></trkpt><trkpt lat="45.0845217" lon="8.2447717"><ele>284.8571428571429</ele><time>2026-03-29T14:15:19.003Z</time></trkpt><trkpt lat="45.0845367" lon="8.24467"><ele>286.7142857142857</ele><time>2026-03-29T14:15:20.003Z</time></trkpt><trkpt lat="45.0845333" lon="8.2445717"><ele>288.57142857142856</ele><time>2026-03-29T14:15:21.005Z</time></trkpt><trkpt lat="45.0845233" lon="8.24447"><ele>290.42857142857144</ele><time>2026-03-29T14:15:22.005Z</time></trkpt><trkpt lat="45.08451" lon="8.2443617"><ele>292.2857142857143</ele><time>2026-03-29T14:15:23.002Z</time></trkpt><trkpt lat="45.084505" lon="8.2442667"><ele>294.14285714285717</ele><time>2026-03-29T14:15:24.006Z</time></trkpt><trkpt lat="45.0845183" lon="8.2441717"><ele>296.0</ele><time>2026-03-29T14:15:25.001Z</time></trkpt><trkpt lat="45.0845333" lon="8.244085"><ele>297.8</ele><time>2026-03-29T14:15:26.002Z</time></trkpt><trkpt lat="45.0846567" lon="8.2439567"><ele>299.6</ele><time>2026-03-29T14:15:28.001Z</time></trkpt><trkpt lat="45.0847317" lon="8.2438983"><ele>301.4</ele><time>2026-03-29T14:15:29.005Z</time></trkpt><trkpt lat="45.0848067" lon="8.24384"><ele>303.2</ele><time>2026-03-29T14:15:30.007Z</time></trkpt><trkpt lat="45.0848817" lon="8.24379"><ele>305.0</ele><time>2026-03-29T14:15:31.007Z</time></trkpt><trkpt lat="45.0849517" lon="8.2437517"><ele>305.0</ele><time>2026-03-29T14:15:32.006Z</time></trkpt><trkpt lat="45.0850117" lon="8.2437233"><ele>305.0</ele><time>2026-03-29T14:15:33.003Z</time></trkpt><trkpt lat="45.0851267" lon="8.2436983"><ele>305.0</ele><time>2026-03-29T14:15:35.005Z</time></trkpt><trkpt lat="45.0851933" lon="8.24369"><ele>305.0</ele><time>2026-03-29T14:15:36.006Z</time></trkpt><trkpt lat="45.0852783" lon="8.2437"><ele>305.0</ele><time>2026-03-29T14:15:37.008Z</time></trkpt><trkpt lat="45.0853783" lon="8.2437117"><ele>305.0</ele><time>2026-03-29T14:15:38.003Z</time></trkpt><trkpt lat="45.0854817" lon="8.2437267"><ele>305.0</ele><time>2026-03-29T14:15:39.003Z</time></trkpt><trkpt lat="45.0855883" lon="8.243745"><ele>305.0</ele><time>2026-03-29T14:15:40.004Z</time></trkpt><trkpt lat="45.0856983" lon="8.2437617"><ele>305.0</ele><time>2026-03-29T14:15:41.002Z</time></trkpt><trkpt lat="45.0858117" lon="8.2437783"><ele>305.0</ele><time>2026-03-29T14:15:42.004Z</time></trkpt><trkpt lat="45.0859267" lon="8.2437883"><ele>305.0</ele><time>2026-03-29T14:15:43.002Z</time></trkpt><trkpt lat="45.0860433" lon="8.2437933"><ele>305.75</ele><time>2026-03-29T14:15:44.004Z</time></trkpt><trkpt lat="45.0861567" lon="8.2437983"><ele>306.5</ele><time>2026-03-29T14:15:45.006Z</time></trkpt><trkpt lat="45.08627" lon="8.2438017"><ele>307.25</ele><time>2026-03-29T14:15:46.005Z</time></trkpt><trkpt lat="45.0863817" lon="8.2438067"><ele>308.0</ele><time>2026-03-29T14:15:47.002Z</time></trkpt><trkpt lat="45.0864933" lon="8.243815"><ele>308.75</ele><time>2026-03-29T14:15:48.001Z</time></trkpt><trkpt lat="45.0866067" lon="8.2438233"><ele>309.5</ele><time>2026-03-29T14:15:49.002Z</time></trkpt><trkpt lat="45.08672" lon="8.2438333"><ele>310.25</ele><time>2026-03-29T14:15:50.006Z</time></trkpt><trkpt lat="45.0868317" lon="8.2438333"><ele>311.0</ele><time>2026-03-29T14:15:51.003Z</time></trkpt><trkpt lat="45.0869483" lon="8.2438133"><ele>311.0</ele><time>2026-03-29T14:15:52.006Z</time></trkpt><trkpt lat="45.0870633" lon="8.243775"><ele>311.0</ele><time>2026-03-29T14:15:53.003Z</time></trkpt><trkpt lat="45.0871733" lon="8.2437233"><ele>311.0</ele><time>2026-03-29T14:15:54.004Z</time></trkpt><trkpt lat="45.087275" lon="8.2436567"><ele>311.0</ele><time>2026-03-29T14:15:55.006Z</time></trkpt><trkpt lat="45.087365" lon="8.2435867"><ele>311.0</ele><time>2026-03-29T14:15:56.003Z</time></trkpt><trkpt lat="45.0874517" lon="8.2435183"><ele>313.20000000000005</ele><time>2026-03-29T14:15:57.005Z</time></trkpt><trkpt lat="45.0875383" lon="8.2434667"><ele>315.40000000000003</ele><time>2026-03-29T14:15:58.006Z</time></trkpt><trkpt lat="45.0876233" lon="8.243425"><ele>317.6</ele><time>2026-03-29T14:15:59.008Z</time></trkpt><trkpt lat="45.0877167" lon="8.2433883"><ele>319.8</ele><time>2026-03-29T14:16:00.007Z</time></trkpt><trkpt lat="45.0878067" lon="8.2433467"><ele>322.0</ele><time>2026-03-29T14:16:01.004Z</time></trkpt><trkpt lat="45.0878933" lon="8.2433033"><ele>322.0</ele><time>2026-03-29T14:16:02.011Z</time></trkpt><trkpt lat="45.087975" lon="8.2432617"><ele>322.0</ele><time>2026-03-29T14:16:03.008Z</time></trkpt><trkpt lat="45.0880517" lon="8.2432267"><ele>322.0</ele><time>2026-03-29T14:16:04.006Z</time></trkpt><trkpt lat="45.08812" lon="8.243195"><ele>322.0</ele><time>2026-03-29T14:16:05.006Z</time></trkpt><trkpt lat="45.0882317" lon="8.243155"><ele>322.0</ele><time>2026-03-29T14:16:07.005Z</time></trkpt><trkpt lat="45.08834" lon="8.2431583"><ele>324.40000000000003</ele><time>2026-03-29T14:16:09.011Z</time></trkpt><trkpt lat="45.088465" lon="8.243155"><ele>326.8</ele><time>2026-03-29T14:16:11.003Z</time></trkpt><trkpt lat="45.0885917" lon="8.2431617"><ele>329.2</ele><time>2026-03-29T14:16:13.01Z</time></trkpt><trkpt lat="45.0886583" lon="8.2431683"><ele>331.6</ele><time>2026-03-29T14:16:14.009Z</time></trkpt><trkpt lat="45.0887233" lon="8.2431817"><ele>334.0</ele><time>2026-03-29T14:16:15.008Z</time></trkpt><trkpt lat="45.08883" lon="8.24323"><ele>334.0</ele><time>2026-03-29T14:16:17.005Z</time></trkpt><trkpt lat="45.088905" lon="8.2433033"><ele>334.0</ele><time>2026-03-29T14:16:19.002Z</time></trkpt><trkpt lat="45.0889417" lon="8.243435"><ele>334.0</ele><time>2026-03-29T14:16:21.006Z</time></trkpt><trkpt lat="45.0889367" lon="8.243545"><ele>334.0</ele><time>2026-03-29T14:16:22.006Z</time></trkpt><trkpt lat="45.0889183" lon="8.243675"><ele>334.0</ele><time>2026-03-29T14:16:23.006Z</time></trkpt><trkpt lat="45.0888833" lon="8.2438183"><ele>334.0</ele><time>2026-03-29T14:16:24.003Z</time></trkpt><trkpt lat="45.08885" lon="8.2439483"><ele>334.0</ele><time>2026-03-29T14:16:25.007Z</time></trkpt><trkpt lat="45.0888033" lon="8.2440767"><ele>334.0</ele><time>2026-03-29T14:16:26.006Z</time></trkpt><trkpt lat="45.088755" lon="8.2442017"><ele>334.0</ele><time>2026-03-29T14:16:27.005Z</time></trkpt><trkpt lat="45.0887017" lon="8.24432"><ele>334.0</ele><time>2026-03-29T14:16:28.005Z</time></trkpt><trkpt lat="45.0886433" lon="8.2444317"><ele>336.2</ele><time>2026-03-29T14:16:29.004Z</time></trkpt><trkpt lat="45.08858" lon="8.2445317"><ele>338.4</ele><time>2026-03-29T14:16:30.005Z</time></trkpt><trkpt lat="45.08851" lon="8.24462"><ele>340.6</ele><time>2026-03-29T14:16:31.005Z</time></trkpt><trkpt lat="45.0884383" lon="8.2447067"><ele>342.8</ele><time>2026-03-29T14:16:32Z</time></trkpt><trkpt lat="45.088375" lon="8.244795"><ele>345.0</ele><time>2026-03-29T14:16:33Z</time></trkpt><trkpt lat="45.08832" lon="8.2448867"><ele>346.0</ele><time>2026-03-29T14:16:34.002Z</time></trkpt><trkpt lat="45.088275" lon="8.2449867"><ele>347.0</ele><time>2026-03-29T14:16:35.008Z</time></trkpt><trkpt lat="45.08824" lon="8.2450883"><ele>348.0</ele><time>2026-03-29T14:16:36.003Z</time></trkpt><trkpt lat="45.0882083" lon="8.2451983"><ele>349.0</ele><time>2026-03-29T14:16:37.004Z</time></trkpt><trkpt lat="45.0881783" lon="8.245315"><ele>350.0</ele><time>2026-03-29T14:16:38.004Z</time></trkpt><trkpt lat="45.0881533" lon="8.24543"><ele>351.0</ele><time>2026-03-29T14:16:39.008Z</time></trkpt><trkpt lat="45.0881333" lon="8.2455483"><ele>349.6666666666667</ele><time>2026-03-29T14:16:40.004Z</time></trkpt><trkpt lat="45.0881117" lon="8.2456617"><ele>348.3333333333333</ele><time>2026-03-29T14:16:41.003Z</time></trkpt><trkpt lat="45.088085" lon="8.2457683"><ele>347.0</ele><time>2026-03-29T14:16:42.005Z</time></trkpt><trkpt lat="45.0880517" lon="8.24587"><ele>345.66666666666663</ele><time>2026-03-29T14:16:43.004Z</time></trkpt><trkpt lat="45.088005" lon="8.24597"><ele>344.3333333333333</ele><time>2026-03-29T14:16:44.005Z</time></trkpt><trkpt lat="45.08795" lon="8.2460717"><ele>343.0</ele><time>2026-03-29T14:16:45.004Z</time></trkpt><trkpt lat="45.08789" lon="8.2461733"><ele>343.0</ele><time>2026-03-29T14:16:46.004Z</time></trkpt><trkpt lat="45.087825" lon="8.2462783"><ele>343.0</ele><time>2026-03-29T14:16:47.005Z</time></trkpt><trkpt lat="45.087755" lon="8.24638"><ele>343.0</ele><time>2026-03-29T14:16:48.007Z</time></trkpt><trkpt lat="45.0876883" lon="8.2464817"><ele>343.0</ele><time>2026-03-29T14:16:49.004Z</time></trkpt><trkpt lat="45.0876217" lon="8.24658"><ele>343.0</ele><time>2026-03-29T14:16:50.007Z</time></trkpt><trkpt lat="45.08757" lon="8.2466783"><ele>344.4</ele><time>2026-03-29T14:16:51.007Z</time></trkpt><trkpt lat="45.08753" lon="8.246785"><ele>345.79999999999995</ele><time>2026-03-29T14:16:52.006Z</time></trkpt><trkpt lat="45.0874983" lon="8.246905"><ele>347.2</ele><time>2026-03-29T14:16:53.007Z</time></trkpt><trkpt lat="45.0874783" lon="8.24704"><ele>348.6</ele><time>2026-03-29T14:16:54.004Z</time></trkpt><trkpt lat="45.087465" lon="8.2471767"><ele>350.0</ele><time>2026-03-29T14:16:55.009Z</time></trkpt><trkpt lat="45.0874583" lon="8.2473183"><ele>350.2</ele><time>2026-03-29T14:16:56.002Z</time></trkpt><trkpt lat="45.0874533" lon="8.247465"><ele>350.4</ele><time>2026-03-29T14:16:57.009Z</time></trkpt><trkpt lat="45.0874467" lon="8.2476133"><ele>350.6</ele><time>2026-03-29T14:16:58.004Z</time></trkpt><trkpt lat="45.0874433" lon="8.247755"><ele>350.8</ele><time>2026-03-29T14:16:59.004Z</time></trkpt><trkpt lat="45.087435" lon="8.2478883"><ele>351.0</ele><time>2026-03-29T14:17:00.012Z</time></trkpt><trkpt lat="45.0874283" lon="8.24802"><ele>351.6666666666667</ele><time>2026-03-29T14:17:01.002Z</time></trkpt><trkpt lat="45.0874233" lon="8.2481467"><ele>352.3333333333333</ele><time>2026-03-29T14:17:02.004Z</time></trkpt><trkpt lat="45.087425" lon="8.2482733"><ele>353.0</ele><time>2026-03-29T14:17:03.009Z</time></trkpt><trkpt lat="45.0874367" lon="8.2483933"><ele>353.66666666666663</ele><time>2026-03-29T14:17:04.008Z</time></trkpt><trkpt lat="45.0874583" lon="8.2485"><ele>354.3333333333333</ele><time>2026-03-29T14:17:05.005Z</time></trkpt><trkpt lat="45.087485" lon="8.2485967"><ele>355.0</ele><time>2026-03-29T14:17:06.005Z</time></trkpt><trkpt lat="45.0875217" lon="8.2486833"><ele>355.0</ele><time>2026-03-29T14:17:07.007Z</time></trkpt><trkpt lat="45.087575" lon="8.2487667"><ele>355.0</ele><time>2026-03-29T14:17:08.009Z</time></trkpt><trkpt lat="45.0876317" lon="8.2488417"><ele>355.0</ele><time>2026-03-29T14:17:09.003Z</time></trkpt><trkpt lat="45.0876917" lon="8.2489217"><ele>355.0</ele><time>2026-03-29T14:17:10.007Z</time></trkpt><trkpt lat="45.087745" lon="8.2490033"><ele>355.0</ele><time>2026-03-29T14:17:11.006Z</time></trkpt><trkpt lat="45.0877833" lon="8.2490967"><ele>355.0</ele><time>2026-03-29T14:17:12.008Z</time></trkpt><trkpt lat="45.08781" lon="8.2491917"><ele>354.42857142857144</ele><time>2026-03-29T14:17:13.009Z</time></trkpt><trkpt lat="45.0878267" lon="8.2492883"><ele>353.8571428571429</ele><time>2026-03-29T14:17:14.003Z</time></trkpt><trkpt lat="45.0878433" lon="8.24939"><ele>353.28571428571433</ele><time>2026-03-29T14:17:15.006Z</time></trkpt><trkpt lat="45.0878583" lon="8.2494933"><ele>352.7142857142857</ele><time>2026-03-29T14:17:16.001Z</time></trkpt><trkpt lat="45.08787" lon="8.2496"><ele>352.14285714285717</ele><time>2026-03-29T14:17:17.011Z</time></trkpt><trkpt lat="45.0878767" lon="8.2497083"><ele>351.5714285714286</ele><time>2026-03-29T14:17:18.004Z</time></trkpt><trkpt lat="45.0878783" lon="8.249815"><ele>351.0</ele><time>2026-03-29T14:17:19.004Z</time></trkpt><trkpt lat="45.087875" lon="8.249925"><ele>350.0</ele><time>2026-03-29T14:17:20.008Z</time></trkpt><trkpt lat="45.08788" lon="8.2500333"><ele>349.0</ele><time>2026-03-29T14:17:21.008Z</time></trkpt><trkpt lat="45.087885" lon="8.2501483"><ele>348.0</ele><time>2026-03-29T14:17:22.006Z</time></trkpt><trkpt lat="45.087885" lon="8.2502783"><ele>347.0</ele><time>2026-03-29T14:17:23.007Z</time></trkpt><trkpt lat="45.087895" lon="8.2504083"><ele>346.0</ele><time>2026-03-29T14:17:24.003Z</time></trkpt><trkpt lat="45.087905" lon="8.2505383"><ele>345.0</ele><time>2026-03-29T14:17:25.007Z</time></trkpt><trkpt lat="45.087915" lon="8.25067"><ele>344.8333333333333</ele><time>2026-03-29T14:17:26.004Z</time></trkpt><trkpt lat="45.087915" lon="8.2507983"><ele>344.6666666666667</ele><time>2026-03-29T14:17:27.005Z</time></trkpt><trkpt lat="45.0879183" lon="8.2509267"><ele>344.5</ele><time>2026-03-29T14:17:28.005Z</time></trkpt><trkpt lat="45.087905" lon="8.2510517"><ele>344.33333333333337</ele><time>2026-03-29T14:17:29.004Z</time></trkpt><trkpt lat="45.08789" lon="8.2511667"><ele>344.1666666666667</ele><time>2026-03-29T14:17:30.009Z</time></trkpt><trkpt lat="45.0878733" lon="8.2512933"><ele>344.0</ele><time>2026-03-29T14:17:31.002Z</time></trkpt><trkpt lat="45.0878533" lon="8.2514133"><ele>344.4</ele><time>2026-03-29T14:17:32.003Z</time></trkpt><trkpt lat="45.0878267" lon="8.2515283"><ele>344.79999999999995</ele><time>2026-03-29T14:17:33.008Z</time></trkpt><trkpt lat="45.0877833" lon="8.25165"><ele>345.20000000000005</ele><time>2026-03-29T14:17:34.002Z</time></trkpt><trkpt lat="45.087705" lon="8.2517667"><ele>345.6</ele><time>2026-03-29T14:17:35.007Z</time></trkpt><trkpt lat="45.0876333" lon="8.251895"><ele>346.0</ele><time>2026-03-29T14:17:36.002Z</time></trkpt><trkpt lat="45.0875583" lon="8.252035"><ele>346.0</ele><time>2026-03-29T14:17:37.005Z</time></trkpt><trkpt lat="45.0874917" lon="8.252185"><ele>346.0</ele><time>2026-03-29T14:17:38.003Z</time></trkpt><trkpt lat="45.0874383" lon="8.25234"><ele>346.0</ele><time>2026-03-29T14:17:39.005Z</time></trkpt><trkpt lat="45.0873933" lon="8.2525033"><ele>346.0</ele><time>2026-03-29T14:17:40.006Z</time></trkpt><trkpt lat="45.08734" lon="8.2526533"><ele>342.75</ele><time>2026-03-29T14:17:41.003Z</time></trkpt><trkpt lat="45.0872833" lon="8.2528167"><ele>339.5</ele><time>2026-03-29T14:17:42.005Z</time></trkpt><trkpt lat="45.0871983" lon="8.2529433"><ele>336.25</ele><time>2026-03-29T14:17:43.002Z</time></trkpt><trkpt lat="45.0871033" lon="8.2530583"><ele>333.0</ele><time>2026-03-29T14:17:44.003Z</time></trkpt><trkpt lat="45.087035" lon="8.2531933"><ele>333.0</ele><time>2026-03-29T14:17:45.003Z</time></trkpt><trkpt lat="45.086975" lon="8.253345"><ele>333.0</ele><time>2026-03-29T14:17:46.006Z</time></trkpt><trkpt lat="45.0869" lon="8.2534983"><ele>333.0</ele><time>2026-03-29T14:17:47.004Z</time></trkpt><trkpt lat="45.086825" lon="8.2536533"><ele>333.0</ele><time>2026-03-29T14:17:48.006Z</time></trkpt><trkpt lat="45.0867467" lon="8.2538"><ele>333.0</ele><time>2026-03-29T14:17:49.003Z</time></trkpt><trkpt lat="45.0866617" lon="8.25393"><ele>333.0</ele><time>2026-03-29T14:17:50.006Z</time></trkpt><trkpt lat="45.0865667" lon="8.25404"><ele>333.0</ele><time>2026-03-29T14:17:51.005Z</time></trkpt><trkpt lat="45.0864783" lon="8.2541367"><ele>333.0</ele><time>2026-03-29T14:17:52.004Z</time></trkpt><trkpt lat="45.0863883" lon="8.25423"><ele>334.0</ele><time>2026-03-29T14:17:53.004Z</time></trkpt><trkpt lat="45.086305" lon="8.2543217"><ele>335.0</ele><time>2026-03-29T14:17:54.005Z</time></trkpt><trkpt lat="45.0862317" lon="8.2544183"><ele>336.0</ele><time>2026-03-29T14:17:55.003Z</time></trkpt><trkpt lat="45.08617" lon="8.25452"><ele>337.0</ele><time>2026-03-29T14:17:56.002Z</time></trkpt><trkpt lat="45.0861233" lon="8.2546233"><ele>338.0</ele><time>2026-03-29T14:17:57.009Z</time></trkpt><trkpt lat="45.0860883" lon="8.2547317"><ele>339.2857142857143</ele><time>2026-03-29T14:17:58.008Z</time></trkpt><trkpt lat="45.0860667" lon="8.2548417"><ele>340.57142857142856</ele><time>2026-03-29T14:17:59.007Z</time></trkpt><trkpt lat="45.0860533" lon="8.2549467"><ele>341.8571428571429</ele><time>2026-03-29T14:18:00.009Z</time></trkpt><trkpt lat="45.0860467" lon="8.2550433"><ele>343.1428571428571</ele><time>2026-03-29T14:18:01.006Z</time></trkpt><trkpt lat="45.08604" lon="8.255135"><ele>344.4285714285714</ele><time>2026-03-29T14:18:02.001Z</time></trkpt><trkpt lat="45.0860333" lon="8.25526"><ele>345.7142857142857</ele><time>2026-03-29T14:18:04.003Z</time></trkpt><trkpt lat="45.0860667" lon="8.2553467"><ele>347.0</ele><time>2026-03-29T14:18:07Z</time></trkpt><trkpt lat="45.0861517" lon="8.2553967"><ele>347.0</ele><time>2026-03-29T14:18:09.005Z</time></trkpt><trkpt lat="45.0862233" lon="8.255425"><ele>347.0</ele><time>2026-03-29T14:18:10.003Z</time></trkpt><trkpt lat="45.0862933" lon="8.25547"><ele>347.0</ele><time>2026-03-29T14:18:11.01Z</time></trkpt><trkpt lat="45.0863583" lon="8.2555333"><ele>347.0</ele><time>2026-03-29T14:18:12.003Z</time></trkpt><trkpt lat="45.08641" lon="8.2556267"><ele>347.0</ele><time>2026-03-29T14:18:13.003Z</time></trkpt><trkpt lat="45.086455" lon="8.2557367"><ele>347.0</ele><time>2026-03-29T14:18:14.002Z</time></trkpt><trkpt lat="45.08649" lon="8.2558583"><ele>346.40000000000003</ele><time>2026-03-29T14:18:15.008Z</time></trkpt><trkpt lat="45.0865283" lon="8.2559867"><ele>345.8</ele><time>2026-03-29T14:18:16.003Z</time></trkpt><trkpt lat="45.0865683" lon="8.256115"><ele>345.2</ele><time>2026-03-29T14:18:17.003Z</time></trkpt><trkpt lat="45.0866033" lon="8.2562383"><ele>344.6</ele><time>2026-03-29T14:18:18.003Z</time></trkpt><trkpt lat="45.0866367" lon="8.25636"><ele>344.0</ele><time>2026-03-29T14:18:19.007Z</time></trkpt><trkpt lat="45.0866583" lon="8.256475"><ele>345.1666666666667</ele><time>2026-03-29T14:18:20.005Z</time></trkpt><trkpt lat="45.0866683" lon="8.25659"><ele>346.33333333333337</ele><time>2026-03-29T14:18:21.004Z</time></trkpt><trkpt lat="45.0866667" lon="8.2567"><ele>347.5</ele><time>2026-03-29T14:18:22.003Z</time></trkpt><trkpt lat="45.0866517" lon="8.2568033"><ele>348.6666666666667</ele><time>2026-03-29T14:18:23.003Z</time></trkpt><trkpt lat="45.08663" lon="8.256905"><ele>349.8333333333333</ele><time>2026-03-29T14:18:24.003Z</time></trkpt><trkpt lat="45.0865983" lon="8.2570067"><ele>351.0</ele><time>2026-03-29T14:18:25.003Z</time></trkpt><trkpt lat="45.0865667" lon="8.2571133"><ele>348.8333333333333</ele><time>2026-03-29T14:18:26.001Z</time></trkpt><trkpt lat="45.0865317" lon="8.2572183"><ele>346.6666666666667</ele><time>2026-03-29T14:18:27.002Z</time></trkpt><trkpt lat="45.0864983" lon="8.2573233"><ele>344.5</ele><time>2026-03-29T14:18:28.002Z</time></trkpt><trkpt lat="45.0864617" lon="8.25743"><ele>342.33333333333337</ele><time>2026-03-29T14:18:29.007Z</time></trkpt><trkpt lat="45.0864217" lon="8.2575367"><ele>340.1666666666667</ele><time>2026-03-29T14:18:30.003Z</time></trkpt><trkpt lat="45.0863867" lon="8.25765"><ele>338.0</ele><time>2026-03-29T14:18:31.007Z</time></trkpt><trkpt lat="45.0863633" lon="8.2577683"><ele>338.0</ele><time>2026-03-29T14:18:32.001Z</time></trkpt><trkpt lat="45.0863233" lon="8.25787"><ele>338.0</ele><time>2026-03-29T14:18:33.003Z</time></trkpt><trkpt lat="45.086285" lon="8.2579717"><ele>338.0</ele><time>2026-03-29T14:18:34.007Z</time></trkpt><trkpt lat="45.0862433" lon="8.258085"><ele>338.0</ele><time>2026-03-29T14:18:35.001Z</time></trkpt><trkpt lat="45.0862017" lon="8.25819"><ele>338.0</ele><time>2026-03-29T14:18:36.004Z</time></trkpt><trkpt lat="45.0861567" lon="8.2582917"><ele>338.0</ele><time>2026-03-29T14:18:37.006Z</time></trkpt><trkpt lat="45.0861017" lon="8.2583817"><ele>337.6666666666667</ele><time>2026-03-29T14:18:38.005Z</time></trkpt><trkpt lat="45.0860467" lon="8.2584683"><ele>337.33333333333337</ele><time>2026-03-29T14:18:39.006Z</time></trkpt><trkpt lat="45.085985" lon="8.2585517"><ele>337.0</ele><time>2026-03-29T14:18:40.005Z</time></trkpt><trkpt lat="45.08593" lon="8.2586383"><ele>336.6666666666667</ele><time>2026-03-29T14:18:41.004Z</time></trkpt><trkpt lat="45.0858683" lon="8.25873"><ele>336.3333333333333</ele><time>2026-03-29T14:18:42.007Z</time></trkpt><trkpt lat="45.08581" lon="8.2588233"><ele>336.0</ele><time>2026-03-29T14:18:43.003Z</time></trkpt><trkpt lat="45.0857467" lon="8.25892"><ele>339.0</ele><time>2026-03-29T14:18:44Z</time></trkpt><trkpt lat="45.0856783" lon="8.259015"><ele>342.0</ele><time>2026-03-29T14:18:45.003Z</time></trkpt><trkpt lat="45.0856117" lon="8.2591117"><ele>345.0</ele><time>2026-03-29T14:18:46.005Z</time></trkpt><trkpt lat="45.0855467" lon="8.2592083"><ele>348.0</ele><time>2026-03-29T14:18:47.003Z</time></trkpt><trkpt lat="45.0854817" lon="8.2593067"><ele>351.0</ele><time>2026-03-29T14:18:48.004Z</time></trkpt><trkpt lat="45.08542" lon="8.259405"><ele>351.0</ele><time>2026-03-29T14:18:49.003Z</time></trkpt><trkpt lat="45.08536" lon="8.259505"><ele>351.0</ele><time>2026-03-29T14:18:50.006Z</time></trkpt><trkpt lat="45.0853017" lon="8.2596033"><ele>351.0</ele><time>2026-03-29T14:18:51.007Z</time></trkpt><trkpt lat="45.0852467" lon="8.2597017"><ele>351.0</ele><time>2026-03-29T14:18:52.009Z</time></trkpt><trkpt lat="45.0851983" lon="8.2597933"><ele>351.0</ele><time>2026-03-29T14:18:53.004Z</time></trkpt><trkpt lat="45.085155" lon="8.259885"><ele>351.0</ele><time>2026-03-29T14:18:54.002Z</time></trkpt><trkpt lat="45.0851117" lon="8.259975"><ele>352.42857142857144</ele><time>2026-03-29T14:18:55.005Z</time></trkpt><trkpt lat="45.0850767" lon="8.260065"><ele>353.8571428571429</ele><time>2026-03-29T14:18:56.005Z</time></trkpt><trkpt lat="45.0850483" lon="8.2601567"><ele>355.28571428571433</ele><time>2026-03-29T14:18:57.003Z</time></trkpt><trkpt lat="45.0850317" lon="8.260255"><ele>356.7142857142857</ele><time>2026-03-29T14:18:58.006Z</time></trkpt><trkpt lat="45.0850033" lon="8.2603433"><ele>358.1428571428571</ele><time>2026-03-29T14:18:59.002Z</time></trkpt><trkpt lat="45.0849733" lon="8.2604317"><ele>359.5714285714286</ele><time>2026-03-29T14:19:00.01Z</time></trkpt><trkpt lat="45.08495" lon="8.2605183"><ele>361.0</ele><time>2026-03-29T14:19:01.005Z</time></trkpt><trkpt lat="45.0849383" lon="8.26061"><ele>361.8571428571429</ele><time>2026-03-29T14:19:02.006Z</time></trkpt><trkpt lat="45.0849217" lon="8.2607"><ele>362.71428571428567</ele><time>2026-03-29T14:19:03.007Z</time></trkpt><trkpt lat="45.0849133" lon="8.2607933"><ele>363.57142857142856</ele><time>2026-03-29T14:19:04.005Z</time></trkpt><trkpt lat="45.0849217" lon="8.260895"><ele>364.42857142857144</ele><time>2026-03-29T14:19:05.004Z</time></trkpt><trkpt lat="45.084935" lon="8.2609917"><ele>365.28571428571433</ele><time>2026-03-29T14:19:06.004Z</time></trkpt><trkpt lat="45.084955" lon="8.26109"><ele>366.1428571428571</ele><time>2026-03-29T14:19:07.008Z</time></trkpt><trkpt lat="45.085" lon="8.2611767"><ele>367.0</ele><time>2026-03-29T14:19:08.004Z</time></trkpt><trkpt lat="45.0850417" lon="8.26125"><ele>367.0</ele><time>2026-03-29T14:19:09.004Z</time></trkpt><trkpt lat="45.085105" lon="8.2613583"><ele>367.0</ele><time>2026-03-29T14:19:11.005Z</time></trkpt><trkpt lat="45.085155" lon="8.2614517"><ele>367.0</ele><time>2026-03-29T14:19:14.001Z</time></trkpt><trkpt lat="45.08519" lon="8.2615283"><ele>367.0</ele><time>2026-03-29T14:19:16.004Z</time></trkpt><trkpt lat="45.0852583" lon="8.26164"><ele>367.0</ele><time>2026-03-29T14:19:18.005Z</time></trkpt><trkpt lat="45.0853217" lon="8.2617617"><ele>366.16666666666663</ele><time>2026-03-29T14:19:20.003Z</time></trkpt><trkpt lat="45.0853617" lon="8.261845"><ele>365.3333333333333</ele><time>2026-03-29T14:19:22.004Z</time></trkpt><trkpt lat="45.0854333" lon="8.2619567"><ele>364.5</ele><time>2026-03-29T14:19:24.006Z</time></trkpt><trkpt lat="45.0854717" lon="8.2620567"><ele>363.6666666666667</ele><time>2026-03-29T14:19:25.004Z</time></trkpt><trkpt lat="45.0855183" lon="8.262165"><ele>362.83333333333337</ele><time>2026-03-29T14:19:26.005Z</time></trkpt><trkpt lat="45.0855717" lon="8.2622617"><ele>362.0</ele><time>2026-03-29T14:19:27.011Z</time></trkpt><trkpt lat="45.0856217" lon="8.262365"><ele>361.20000000000005</ele><time>2026-03-29T14:19:28.004Z</time></trkpt><trkpt lat="45.0856567" lon="8.26247"><ele>360.4</ele><time>2026-03-29T14:19:29.006Z</time></trkpt><trkpt lat="45.0856867" lon="8.2625667"><ele>359.6</ele><time>2026-03-29T14:19:30.001Z</time></trkpt><trkpt lat="45.0857267" lon="8.2627267"><ele>358.79999999999995</ele><time>2026-03-29T14:19:32.006Z</time></trkpt><trkpt lat="45.0857367" lon="8.26287"><ele>358.0</ele><time>2026-03-29T14:19:34Z</time></trkpt><trkpt lat="45.0857533" lon="8.2630033"><ele>360.2</ele><time>2026-03-29T14:19:36.003Z</time></trkpt><trkpt lat="45.0857733" lon="8.2631517"><ele>362.4</ele><time>2026-03-29T14:19:38.004Z</time></trkpt><trkpt lat="45.0857867" lon="8.26332"><ele>364.59999999999997</ele><time>2026-03-29T14:19:40.004Z</time></trkpt><trkpt lat="45.0858033" lon="8.2635"><ele>366.79999999999995</ele><time>2026-03-29T14:19:42.004Z</time></trkpt><trkpt lat="45.0858233" lon="8.2635983"><ele>369.0</ele><time>2026-03-29T14:19:43.001Z</time></trkpt><trkpt lat="45.0858567" lon="8.2636933"><ele>369.0</ele><time>2026-03-29T14:19:44.01Z</time></trkpt><trkpt lat="45.085905" lon="8.2637733"><ele>369.0</ele><time>2026-03-29T14:19:45.004Z</time></trkpt><trkpt lat="45.0859733" lon="8.2638317"><ele>369.0</ele><time>2026-03-29T14:19:46.007Z</time></trkpt><trkpt lat="45.0860767" lon="8.2638783"><ele>369.0</ele><time>2026-03-29T14:19:47.006Z</time></trkpt><trkpt lat="45.0861767" lon="8.2639217"><ele>369.0</ele><time>2026-03-29T14:19:48.004Z</time></trkpt><trkpt lat="45.08627" lon="8.2639617"><ele>369.2</ele><time>2026-03-29T14:19:49.003Z</time></trkpt><trkpt lat="45.0863683" lon="8.264005"><ele>369.4</ele><time>2026-03-29T14:19:50.007Z</time></trkpt><trkpt lat="45.08646" lon="8.26404"><ele>369.6</ele><time>2026-03-29T14:19:51.013Z</time></trkpt><trkpt lat="45.08655" lon="8.264075"><ele>369.8</ele><time>2026-03-29T14:19:52.003Z</time></trkpt><trkpt lat="45.08664" lon="8.2641033"><ele>370.0</ele><time>2026-03-29T14:19:53.005Z</time></trkpt><trkpt lat="45.0867267" lon="8.26413"><ele>368.16666666666663</ele><time>2026-03-29T14:19:54.002Z</time></trkpt><trkpt lat="45.0868083" lon="8.2641567"><ele>366.3333333333333</ele><time>2026-03-29T14:19:55.003Z</time></trkpt><trkpt lat="45.0868867" lon="8.264195"><ele>364.5</ele><time>2026-03-29T14:19:56.007Z</time></trkpt><trkpt lat="45.0869567" lon="8.2642433"><ele>362.6666666666667</ele><time>2026-03-29T14:19:57.005Z</time></trkpt><trkpt lat="45.0870167" lon="8.264305"><ele>360.83333333333337</ele><time>2026-03-29T14:19:58.001Z</time></trkpt><trkpt lat="45.0870517" lon="8.26443"><ele>359.0</ele><time>2026-03-29T14:19:59.002Z</time></trkpt><trkpt lat="45.0870983" lon="8.2645767"><ele>359.0</ele><time>2026-03-29T14:20:00.012Z</time></trkpt><trkpt lat="45.08715" lon="8.2647383"><ele>359.0</ele><time>2026-03-29T14:20:01.003Z</time></trkpt><trkpt lat="45.08721" lon="8.2649133"><ele>359.0</ele><time>2026-03-29T14:20:02.006Z</time></trkpt><trkpt lat="45.0872733" lon="8.2650917"><ele>359.0</ele><time>2026-03-29T14:20:03.006Z</time></trkpt><trkpt lat="45.087335" lon="8.26527"><ele>359.75</ele><time>2026-03-29T14:20:04.004Z</time></trkpt><trkpt lat="45.0873967" lon="8.2654483"><ele>360.5</ele><time>2026-03-29T14:20:05.007Z</time></trkpt><trkpt lat="45.0874517" lon="8.2656183"><ele>361.25</ele><time>2026-03-29T14:20:06.008Z</time></trkpt><trkpt lat="45.0875067" lon="8.265775"><ele>362.0</ele><time>2026-03-29T14:20:07.009Z</time></trkpt><trkpt lat="45.0875517" lon="8.265915"><ele>361.0</ele><time>2026-03-29T14:20:08.004Z</time></trkpt><trkpt lat="45.0875917" lon="8.266035"><ele>360.0</ele><time>2026-03-29T14:20:09.006Z</time></trkpt><trkpt lat="45.08763" lon="8.2661417"><ele>359.0</ele><time>2026-03-29T14:20:10.006Z</time></trkpt><trkpt lat="45.087665" lon="8.2662367"><ele>358.0</ele><time>2026-03-29T14:20:11.007Z</time></trkpt><trkpt lat="45.0876967" lon="8.266325"><ele>357.0</ele><time>2026-03-29T14:20:12.006Z</time></trkpt><trkpt lat="45.0877367" lon="8.266455"><ele>356.0</ele><time>2026-03-29T14:20:14.007Z</time></trkpt><trkpt lat="45.0878017" lon="8.26653"><ele>356.0</ele><time>2026-03-29T14:20:28.005Z</time></trkpt><trkpt lat="45.087945" lon="8.266555"><ele>356.0</ele><time>2026-03-29T14:20:30.006Z</time></trkpt><trkpt lat="45.088075" lon="8.2665783"><ele>356.0</ele><time>2026-03-29T14:20:31.012Z</time></trkpt><trkpt lat="45.0882133" lon="8.26661"><ele>356.0</ele><time>2026-03-29T14:20:32.002Z</time></trkpt><trkpt lat="45.0883933" lon="8.266655"><ele>355.33333333333337</ele><time>2026-03-29T14:20:33.006Z</time></trkpt><trkpt lat="45.08858" lon="8.266725"><ele>354.6666666666667</ele><time>2026-03-29T14:20:34.005Z</time></trkpt><trkpt lat="45.0887417" lon="8.266795"><ele>354.0</ele><time>2026-03-29T14:20:35.003Z</time></trkpt><trkpt lat="45.0888983" lon="8.2668783"><ele>354.0</ele><time>2026-03-29T14:20:36.006Z</time></trkpt><trkpt lat="45.0890317" lon="8.2669833"><ele>354.0</ele><time>2026-03-29T14:20:37.005Z</time></trkpt><trkpt lat="45.0891483" lon="8.2671017"><ele>354.0</ele><time>2026-03-29T14:20:38.007Z</time></trkpt><trkpt lat="45.0892567" lon="8.267205"><ele>354.0</ele><time>2026-03-29T14:20:39.01Z</time></trkpt><trkpt lat="45.089365" lon="8.2672817"><ele>355.75</ele><time>2026-03-29T14:20:40.002Z</time></trkpt><trkpt lat="45.0894717" lon="8.2673383"><ele>357.5</ele><time>2026-03-29T14:20:41.002Z</time></trkpt><trkpt lat="45.0895867" lon="8.26736"><ele>359.25</ele><time>2026-03-29T14:20:42.002Z</time></trkpt><trkpt lat="45.0897083" lon="8.2673617"><ele>361.0</ele><time>2026-03-29T14:20:43.005Z</time></trkpt><trkpt lat="45.0898133" lon="8.267365"><ele>364.25</ele><time>2026-03-29T14:20:44.002Z</time></trkpt><trkpt lat="45.0899317" lon="8.2673717"><ele>367.5</ele><time>2026-03-29T14:20:45.006Z</time></trkpt><trkpt lat="45.0900467" lon="8.26736"><ele>370.75</ele><time>2026-03-29T14:20:46.003Z</time></trkpt><trkpt lat="45.090155" lon="8.2673467"><ele>374.0</ele><time>2026-03-29T14:20:47.003Z</time></trkpt><trkpt lat="45.09027" lon="8.2673283"><ele>374.0</ele><time>2026-03-29T14:20:48.002Z</time></trkpt><trkpt lat="45.0903817" lon="8.2673033"><ele>374.0</ele><time>2026-03-29T14:20:49.003Z</time></trkpt><trkpt lat="45.0904917" lon="8.26728"><ele>374.0</ele><time>2026-03-29T14:20:50.006Z</time></trkpt><trkpt lat="45.0906" lon="8.26725"><ele>374.0</ele><time>2026-03-29T14:20:51.001Z</time></trkpt><trkpt lat="45.090705" lon="8.2672367"><ele>374.0</ele><time>2026-03-29T14:20:52.002Z</time></trkpt><trkpt lat="45.0908233" lon="8.2672633"><ele>374.79999999999995</ele><time>2026-03-29T14:20:53.006Z</time></trkpt><trkpt lat="45.090935" lon="8.2673"><ele>375.59999999999997</ele><time>2026-03-29T14:20:54.006Z</time></trkpt><trkpt lat="45.091035" lon="8.267345"><ele>376.4</ele><time>2026-03-29T14:20:55.008Z</time></trkpt><trkpt lat="45.0911317" lon="8.2674033"><ele>377.2</ele><time>2026-03-29T14:20:56.003Z</time></trkpt><trkpt lat="45.0912267" lon="8.2675"><ele>378.0</ele><time>2026-03-29T14:20:57.003Z</time></trkpt><trkpt lat="45.0913183" lon="8.2676117"><ele>378.0</ele><time>2026-03-29T14:20:58.007Z</time></trkpt><trkpt lat="45.0913983" lon="8.2677517"><ele>378.0</ele><time>2026-03-29T14:20:59.008Z</time></trkpt><trkpt lat="45.0914833" lon="8.2678883"><ele>378.0</ele><time>2026-03-29T14:21:00.006Z</time></trkpt><trkpt lat="45.0915733" lon="8.26802"><ele>378.0</ele><time>2026-03-29T14:21:01.008Z</time></trkpt><trkpt lat="45.0916717" lon="8.2681417"><ele>374.5</ele><time>2026-03-29T14:21:02Z</time></trkpt><trkpt lat="45.0917717" lon="8.2682567"><ele>371.0</ele><time>2026-03-29T14:21:03.007Z</time></trkpt><trkpt lat="45.0918767" lon="8.2683717"><ele>367.5</ele><time>2026-03-29T14:21:04.005Z</time></trkpt><trkpt lat="45.092" lon="8.26847"><ele>364.0</ele><time>2026-03-29T14:21:05.001Z</time></trkpt><trkpt lat="45.092135" lon="8.2685483"><ele>364.0</ele><time>2026-03-29T14:21:06.007Z</time></trkpt><trkpt lat="45.0922667" lon="8.268625"><ele>364.0</ele><time>2026-03-29T14:21:07.004Z</time></trkpt><trkpt lat="45.0923983" lon="8.2686817"><ele>364.0</ele><time>2026-03-29T14:21:08.004Z</time></trkpt><trkpt lat="45.0925183" lon="8.268745"><ele>364.0</ele><time>2026-03-29T14:21:09.007Z</time></trkpt><trkpt lat="45.09262" lon="8.268835"><ele>361.79999999999995</ele><time>2026-03-29T14:21:10.006Z</time></trkpt><trkpt lat="45.09271" lon="8.2689517"><ele>359.59999999999997</ele><time>2026-03-29T14:21:11.005Z</time></trkpt><trkpt lat="45.092785" lon="8.2690783"><ele>357.4</ele><time>2026-03-29T14:21:12.003Z</time></trkpt><trkpt lat="45.0928467" lon="8.2692017"><ele>355.2</ele><time>2026-03-29T14:21:13.003Z</time></trkpt><trkpt lat="45.0929033" lon="8.2692983"><ele>353.0</ele><time>2026-03-29T14:21:14.008Z</time></trkpt><trkpt lat="45.0929567" lon="8.26938"><ele>353.0</ele><time>2026-03-29T14:21:15.011Z</time></trkpt><trkpt lat="45.09301" lon="8.26944"><ele>353.0</ele><time>2026-03-29T14:21:16.007Z</time></trkpt><trkpt lat="45.0930917" lon="8.2694083"><ele>353.0</ele><time>2026-03-29T14:21:17.003Z</time></trkpt><trkpt lat="45.0931767" lon="8.269375"><ele>353.0</ele><time>2026-03-29T14:21:18.002Z</time></trkpt><trkpt lat="45.0932733" lon="8.2693167"><ele>353.0</ele><time>2026-03-29T14:21:19.008Z</time></trkpt><trkpt lat="45.093375" lon="8.269265"><ele>355.59999999999997</ele><time>2026-03-29T14:21:20.001Z</time></trkpt><trkpt lat="45.0934817" lon="8.2692283"><ele>358.2</ele><time>2026-03-29T14:21:21.01Z</time></trkpt><trkpt lat="45.0935933" lon="8.2692233"><ele>360.8</ele><time>2026-03-29T14:21:22.002Z</time></trkpt><trkpt lat="45.093705" lon="8.2692333"><ele>363.4</ele><time>2026-03-29T14:21:23.005Z</time></trkpt><trkpt lat="45.0938133" lon="8.2692567"><ele>366.0</ele><time>2026-03-29T14:21:24.001Z</time></trkpt><trkpt lat="45.0939083" lon="8.2692983"><ele>366.0</ele><time>2026-03-29T14:21:25.01Z</time></trkpt><trkpt lat="45.094" lon="8.269355"><ele>366.0</ele><time>2026-03-29T14:21:26.003Z</time></trkpt><trkpt lat="45.0940733" lon="8.2694483"><ele>366.0</ele><time>2026-03-29T14:21:27.008Z</time></trkpt><trkpt lat="45.09413" lon="8.2695733"><ele>366.0</ele><time>2026-03-29T14:21:28.002Z</time></trkpt><trkpt lat="45.0941783" lon="8.2697067"><ele>366.0</ele><time>2026-03-29T14:21:29.005Z</time></trkpt><trkpt lat="45.094215" lon="8.2698467"><ele>365.8</ele><time>2026-03-29T14:21:30.002Z</time></trkpt><trkpt lat="45.0942417" lon="8.2699783"><ele>365.6</ele><time>2026-03-29T14:21:31.008Z</time></trkpt><trkpt lat="45.09426" lon="8.2701183"><ele>365.4</ele><time>2026-03-29T14:21:32.002Z</time></trkpt><trkpt lat="45.0942667" lon="8.2702633"><ele>365.2</ele><time>2026-03-29T14:21:33.005Z</time></trkpt><trkpt lat="45.0942617" lon="8.2704117"><ele>365.0</ele><time>2026-03-29T14:21:34.004Z</time></trkpt><trkpt lat="45.0942583" lon="8.2705617"><ele>366.2</ele><time>2026-03-29T14:21:35.007Z</time></trkpt><trkpt lat="45.09425" lon="8.2707167"><ele>367.4</ele><time>2026-03-29T14:21:36.006Z</time></trkpt><trkpt lat="45.0942367" lon="8.2708717"><ele>368.6</ele><time>2026-03-29T14:21:37.01Z</time></trkpt><trkpt lat="45.0942217" lon="8.2710233"><ele>369.8</ele><time>2026-03-29T14:21:38.007Z</time></trkpt><trkpt lat="45.0942017" lon="8.2711717"><ele>371.0</ele><time>2026-03-29T14:21:39.006Z</time></trkpt><trkpt lat="45.09418" lon="8.2713117"><ele>371.0</ele><time>2026-03-29T14:21:40.007Z</time></trkpt><trkpt lat="45.094155" lon="8.27144"><ele>371.0</ele><time>2026-03-29T14:21:41.005Z</time></trkpt><trkpt lat="45.0941317" lon="8.2715483"><ele>371.0</ele><time>2026-03-29T14:21:42.009Z</time></trkpt><trkpt lat="45.0941133" lon="8.2716367"><ele>371.0</ele><time>2026-03-29T14:21:43.009Z</time></trkpt><trkpt lat="45.0940967" lon="8.2717867"><ele>371.0</ele><time>2026-03-29T14:21:45.006Z</time></trkpt><trkpt lat="45.0941567" lon="8.2718933"><ele>371.0</ele><time>2026-03-29T14:21:47.002Z</time></trkpt><trkpt lat="45.0942417" lon="8.2719483"><ele>372.2857142857143</ele><time>2026-03-29T14:21:49.001Z</time></trkpt><trkpt lat="45.094295" lon="8.2720683"><ele>373.57142857142856</ele><time>2026-03-29T14:21:51.001Z</time></trkpt><trkpt lat="45.0943133" lon="8.272155"><ele>374.8571428571429</ele><time>2026-03-29T14:21:51.999Z</time></trkpt><trkpt lat="45.0943283" lon="8.272255"><ele>376.1428571428571</ele><time>2026-03-29T14:21:53.001Z</time></trkpt><trkpt lat="45.09433" lon="8.27235"><ele>377.42857142857144</ele><time>2026-03-29T14:21:54Z</time></trkpt><trkpt lat="45.0943283" lon="8.2724433"><ele>378.7142857142857</ele><time>2026-03-29T14:21:55.004Z</time></trkpt><trkpt lat="45.0943267" lon="8.2725383"><ele>380.0</ele><time>2026-03-29T14:21:56.002Z</time></trkpt><trkpt lat="45.094325" lon="8.2726317"><ele>380.6</ele><time>2026-03-29T14:21:57.004Z</time></trkpt><trkpt lat="45.0942883" lon="8.2727967"><ele>381.2</ele><time>2026-03-29T14:21:59.004Z</time></trkpt><trkpt lat="45.0942567" lon="8.2729517"><ele>381.79999999999995</ele><time>2026-03-29T14:22:01Z</time></trkpt><trkpt lat="45.0942233" lon="8.27309"><ele>382.4</ele><time>2026-03-29T14:22:03.004Z</time></trkpt><trkpt lat="45.0941867" lon="8.2731983"><ele>383.0</ele><time>2026-03-29T14:22:05.002Z</time></trkpt><trkpt lat="45.0941333" lon="8.2732883"><ele>384.33333333333337</ele><time>2026-03-29T14:22:07.004Z</time></trkpt><trkpt lat="45.0940917" lon="8.2733933"><ele>385.6666666666667</ele><time>2026-03-29T14:22:10.009Z</time></trkpt><trkpt lat="45.0941383" lon="8.27347"><ele>387.0</ele><time>2026-03-29T14:22:16.006Z</time></trkpt><trkpt lat="45.0942017" lon="8.2734783"><ele>388.33333333333337</ele><time>2026-03-29T14:22:21.006Z</time></trkpt><trkpt lat="45.0942817" lon="8.2735333"><ele>389.6666666666667</ele><time>2026-03-29T14:30:15.003Z</time></trkpt><trkpt lat="45.0942733" lon="8.273435"><ele>391.0</ele><time>2026-03-29T15:14:14.006Z</time></trkpt><trkpt lat="45.09432" lon="8.27335"><ele>391.00000000000006</ele><time>2026-03-29T15:14:17.001Z</time></trkpt><trkpt lat="45.0943617" lon="8.2732383"><ele>391.0</ele><time>2026-03-29T15:14:21.002Z</time></trkpt><trkpt lat="45.0943433" lon="8.2731233"><ele>391.0</ele><time>2026-03-29T15:14:24.001Z</time></trkpt><trkpt lat="45.0943183" lon="8.2730117"><ele>391.0</ele><time>2026-03-29T15:14:27.004Z</time></trkpt><trkpt lat="45.0943267" lon="8.2729033"><ele>391.00000000000006</ele><time>2026-03-29T15:14:29.004Z</time></trkpt><trkpt lat="45.09434" lon="8.27275"><ele>391.0</ele><time>2026-03-29T15:14:31.003Z</time></trkpt><trkpt lat="45.0943467" lon="8.2725833"><ele>389.4</ele><time>2026-03-29T15:14:33.006Z</time></trkpt><trkpt lat="45.0943533" lon="8.2724133"><ele>387.8</ele><time>2026-03-29T15:14:35.003Z</time></trkpt><trkpt lat="45.0943533" lon="8.2722433"><ele>386.2</ele><time>2026-03-29T15:14:37.004Z</time></trkpt><trkpt lat="45.09434" lon="8.2720583"><ele>384.59999999999997</ele><time>2026-03-29T15:14:39.001Z</time></trkpt><trkpt lat="45.0943367" lon="8.27195"><ele>383.0</ele><time>2026-03-29T15:14:40.001Z</time></trkpt><trkpt lat="45.0943217" lon="8.2718367"><ele>382.5</ele><time>2026-03-29T15:14:41.003Z</time></trkpt><trkpt lat="45.09431" lon="8.2717483"><ele>382.0</ele><time>2026-03-29T15:14:42.003Z</time></trkpt><trkpt lat="45.094245" lon="8.2717667"><ele>381.5</ele><time>2026-03-29T15:14:43.005Z</time></trkpt><trkpt lat="45.094165" lon="8.2717583"><ele>381.0</ele><time>2026-03-29T15:14:45.004Z</time></trkpt><trkpt lat="45.094175" lon="8.271605"><ele>380.5</ele><time>2026-03-29T15:14:47.005Z</time></trkpt><trkpt lat="45.0942017" lon="8.2714567"><ele>380.0</ele><time>2026-03-29T15:14:49.005Z</time></trkpt><trkpt lat="45.09423" lon="8.2713283"><ele>378.2</ele><time>2026-03-29T15:14:50.007Z</time></trkpt><trkpt lat="45.09425" lon="8.2712017"><ele>376.4</ele><time>2026-03-29T15:14:51.008Z</time></trkpt><trkpt lat="45.094255" lon="8.2710983"><ele>374.6</ele><time>2026-03-29T15:14:52.007Z</time></trkpt><trkpt lat="45.094285" lon="8.2709017"><ele>372.8</ele><time>2026-03-29T15:14:53.007Z</time></trkpt><trkpt lat="45.094305" lon="8.27074"><ele>371.0</ele><time>2026-03-29T15:14:54.005Z</time></trkpt><trkpt lat="45.0943183" lon="8.2705833"><ele>369.8</ele><time>2026-03-29T15:14:55.008Z</time></trkpt><trkpt lat="45.09432" lon="8.2704417"><ele>368.6</ele><time>2026-03-29T15:14:56.004Z</time></trkpt><trkpt lat="45.0943217" lon="8.2702983"><ele>367.4</ele><time>2026-03-29T15:14:57.01Z</time></trkpt><trkpt lat="45.094315" lon="8.270155"><ele>366.2</ele><time>2026-03-29T15:14:58.003Z</time></trkpt><trkpt lat="45.0943233" lon="8.2699833"><ele>365.0</ele><time>2026-03-29T15:14:59.005Z</time></trkpt><trkpt lat="45.09429" lon="8.26983"><ele>365.0</ele><time>2026-03-29T15:15:00.008Z</time></trkpt><trkpt lat="45.0942467" lon="8.2696883"><ele>365.0</ele><time>2026-03-29T15:15:01.004Z</time></trkpt><trkpt lat="45.0941967" lon="8.2695533"><ele>365.0</ele><time>2026-03-29T15:15:02.004Z</time></trkpt><trkpt lat="45.0941333" lon="8.2694317"><ele>365.0</ele><time>2026-03-29T15:15:03.002Z</time></trkpt><trkpt lat="45.0940583" lon="8.2693317"><ele>365.0</ele><time>2026-03-29T15:15:04.005Z</time></trkpt><trkpt lat="45.09397" lon="8.2692633"><ele>365.2</ele><time>2026-03-29T15:15:05.004Z</time></trkpt><trkpt lat="45.0938667" lon="8.269215"><ele>365.4</ele><time>2026-03-29T15:15:06.004Z</time></trkpt><trkpt lat="45.093765" lon="8.2691683"><ele>365.6</ele><time>2026-03-29T15:15:07.006Z</time></trkpt><trkpt lat="45.0936717" lon="8.2691367"><ele>365.8</ele><time>2026-03-29T15:15:08.008Z</time></trkpt><trkpt lat="45.0935717" lon="8.2691217"><ele>366.0</ele><time>2026-03-29T15:15:09.009Z</time></trkpt><trkpt lat="45.09346" lon="8.2691217"><ele>366.0</ele><time>2026-03-29T15:15:10.007Z</time></trkpt><trkpt lat="45.093355" lon="8.2691383"><ele>366.0</ele><time>2026-03-29T15:15:11.008Z</time></trkpt><trkpt lat="45.0932567" lon="8.26923"><ele>366.0</ele><time>2026-03-29T15:15:12.008Z</time></trkpt><trkpt lat="45.09316" lon="8.2693233"><ele>366.0</ele><time>2026-03-29T15:15:13.003Z</time></trkpt><trkpt lat="45.0930733" lon="8.2694133"><ele>366.0</ele><time>2026-03-29T15:15:14.004Z</time></trkpt><trkpt lat="45.0929933" lon="8.2694667"><ele>363.4</ele><time>2026-03-29T15:15:15.007Z</time></trkpt><trkpt lat="45.092905" lon="8.26949"><ele>360.8</ele><time>2026-03-29T15:15:16.005Z</time></trkpt><trkpt lat="45.0928233" lon="8.2694833"><ele>358.2</ele><time>2026-03-29T15:15:17.005Z</time></trkpt><trkpt lat="45.0927417" lon="8.2694033"><ele>355.59999999999997</ele><time>2026-03-29T15:15:18.003Z</time></trkpt><trkpt lat="45.0926583" lon="8.2693333"><ele>353.0</ele><time>2026-03-29T15:15:19.005Z</time></trkpt><trkpt lat="45.0925617" lon="8.2692617"><ele>353.0</ele><time>2026-03-29T15:15:20.005Z</time></trkpt><trkpt lat="45.0925067" lon="8.2689867"><ele>353.0</ele><time>2026-03-29T15:15:21.005Z</time></trkpt><trkpt lat="45.09242" lon="8.268845"><ele>353.0</ele><time>2026-03-29T15:15:22.002Z</time></trkpt><trkpt lat="45.0923233" lon="8.2687517"><ele>355.75</ele><time>2026-03-29T15:15:23.003Z</time></trkpt><trkpt lat="45.0922233" lon="8.2686467"><ele>358.5</ele><time>2026-03-29T15:15:24.007Z</time></trkpt><trkpt lat="45.0920733" lon="8.2685633"><ele>361.25</ele><time>2026-03-29T15:15:25.002Z</time></trkpt><trkpt lat="45.0919617" lon="8.2684883"><ele>364.0</ele><time>2026-03-29T15:15:26.005Z</time></trkpt><trkpt lat="45.0918333" lon="8.2683883"><ele>364.0</ele><time>2026-03-29T15:15:27.006Z</time></trkpt><trkpt lat="45.0917283" lon="8.2682617"><ele>364.0</ele><time>2026-03-29T15:15:28.007Z</time></trkpt><trkpt lat="45.09162" lon="8.2681517"><ele>364.0</ele><time>2026-03-29T15:15:29.004Z</time></trkpt><trkpt lat="45.0914967" lon="8.2680167"><ele>364.0</ele><time>2026-03-29T15:15:30.002Z</time></trkpt><trkpt lat="45.0913883" lon="8.26787"><ele>367.5</ele><time>2026-03-29T15:15:31.005Z</time></trkpt><trkpt lat="45.0913017" lon="8.26773"><ele>371.0</ele><time>2026-03-29T15:15:32.007Z</time></trkpt><trkpt lat="45.0912233" lon="8.2676133"><ele>374.5</ele><time>2026-03-29T15:15:33.008Z</time></trkpt><trkpt lat="45.09113" lon="8.267525"><ele>378.0</ele><time>2026-03-29T15:15:34.004Z</time></trkpt><trkpt lat="45.0910217" lon="8.2674467"><ele>378.0</ele><time>2026-03-29T15:15:35.004Z</time></trkpt><trkpt lat="45.090915" lon="8.2673917"><ele>378.0</ele><time>2026-03-29T15:15:36.008Z</time></trkpt><trkpt lat="45.0908133" lon="8.2673417"><ele>378.0</ele><time>2026-03-29T15:15:37.012Z</time></trkpt><trkpt lat="45.09071" lon="8.2673133"><ele>378.0</ele><time>2026-03-29T15:15:38.003Z</time></trkpt><trkpt lat="45.0906167" lon="8.2672967"><ele>378.0</ele><time>2026-03-29T15:15:39.007Z</time></trkpt><trkpt lat="45.0905233" lon="8.2673117"><ele>377.2</ele><time>2026-03-29T15:15:40.008Z</time></trkpt><trkpt lat="45.0904267" lon="8.26733"><ele>376.4</ele><time>2026-03-29T15:15:41.005Z</time></trkpt><trkpt lat="45.0903367" lon="8.267365"><ele>375.59999999999997</ele><time>2026-03-29T15:15:42.002Z</time></trkpt><trkpt lat="45.090265" lon="8.2674033"><ele>374.79999999999995</ele><time>2026-03-29T15:15:43.009Z</time></trkpt><trkpt lat="45.0901967" lon="8.26744"><ele>374.0</ele><time>2026-03-29T15:15:44.005Z</time></trkpt><trkpt lat="45.0900683" lon="8.267475"><ele>374.0</ele><time>2026-03-29T15:15:46.002Z</time></trkpt><trkpt lat="45.0899383" lon="8.26748"><ele>374.0</ele><time>2026-03-29T15:15:47.006Z</time></trkpt><trkpt lat="45.089825" lon="8.267495"><ele>374.0</ele><time>2026-03-29T15:15:48.002Z</time></trkpt><trkpt lat="45.08972" lon="8.2674967"><ele>374.0</ele><time>2026-03-29T15:15:49.007Z</time></trkpt><trkpt lat="45.0895967" lon="8.2674933"><ele>370.0</ele><time>2026-03-29T15:15:50.004Z</time></trkpt><trkpt lat="45.0894533" lon="8.2674367"><ele>366.0</ele><time>2026-03-29T15:15:51.004Z</time></trkpt><trkpt lat="45.08924" lon="8.26733"><ele>362.0</ele><time>2026-03-29T15:15:52.008Z</time></trkpt><trkpt lat="45.0891317" lon="8.2672483"><ele>360.0</ele><time>2026-03-29T15:15:53.003Z</time></trkpt><trkpt lat="45.089025" lon="8.267135"><ele>358.0</ele><time>2026-03-29T15:15:54.004Z</time></trkpt><trkpt lat="45.0888917" lon="8.2670183"><ele>356.0</ele><time>2026-03-29T15:15:55.008Z</time></trkpt><trkpt lat="45.0887517" lon="8.266925"><ele>354.0</ele><time>2026-03-29T15:15:56.006Z</time></trkpt><trkpt lat="45.088605" lon="8.2668483"><ele>354.0</ele><time>2026-03-29T15:15:57.006Z</time></trkpt><trkpt lat="45.088455" lon="8.2667867"><ele>354.0</ele><time>2026-03-29T15:15:58.005Z</time></trkpt><trkpt lat="45.0883083" lon="8.2667267"><ele>354.0</ele><time>2026-03-29T15:15:59.004Z</time></trkpt><trkpt lat="45.088165" lon="8.2666767"><ele>354.5</ele><time>2026-03-29T15:16:00.009Z</time></trkpt><trkpt lat="45.0880217" lon="8.2666233"><ele>355.0</ele><time>2026-03-29T15:16:01.008Z</time></trkpt><trkpt lat="45.08788" lon="8.26659"><ele>355.5</ele><time>2026-03-29T15:16:02.01Z</time></trkpt><trkpt lat="45.0877317" lon="8.2665767"><ele>356.0</ele><time>2026-03-29T15:16:03.004Z</time></trkpt><trkpt lat="45.08758" lon="8.2666017"><ele>357.33333333333337</ele><time>2026-03-29T15:16:04.001Z</time></trkpt><trkpt lat="45.08742" lon="8.2666467"><ele>358.6666666666667</ele><time>2026-03-29T15:16:05.002Z</time></trkpt><trkpt lat="45.0872583" lon="8.266695"><ele>360.0</ele><time>2026-03-29T15:16:06.004Z</time></trkpt><trkpt lat="45.0871183" lon="8.2667383"><ele>360.0</ele><time>2026-03-29T15:16:07.004Z</time></trkpt><trkpt lat="45.0869833" lon="8.266775"><ele>360.0</ele><time>2026-03-29T15:16:08.007Z</time></trkpt><trkpt lat="45.0868483" lon="8.2668117"><ele>360.0</ele><time>2026-03-29T15:16:09.004Z</time></trkpt><trkpt lat="45.086715" lon="8.26684"><ele>360.0</ele><time>2026-03-29T15:16:10.005Z</time></trkpt><trkpt lat="45.08659" lon="8.2668633"><ele>360.2</ele><time>2026-03-29T15:16:11.006Z</time></trkpt><trkpt lat="45.086475" lon="8.266875"><ele>360.4</ele><time>2026-03-29T15:16:12.008Z</time></trkpt><trkpt lat="45.0863683" lon="8.2668783"><ele>360.6</ele><time>2026-03-29T15:16:13.003Z</time></trkpt><trkpt lat="45.0862617" lon="8.26686"><ele>360.8</ele><time>2026-03-29T15:16:14.003Z</time></trkpt><trkpt lat="45.086145" lon="8.266835"><ele>361.0</ele><time>2026-03-29T15:16:15.004Z</time></trkpt><trkpt lat="45.08603" lon="8.26682"><ele>361.0</ele><time>2026-03-29T15:16:16.006Z</time></trkpt><trkpt lat="45.0859133" lon="8.2668333"><ele>361.0</ele><time>2026-03-29T15:16:17.013Z</time></trkpt><trkpt lat="45.085795" lon="8.2668683"><ele>361.0</ele><time>2026-03-29T15:16:18.008Z</time></trkpt><trkpt lat="45.0856933" lon="8.26694"><ele>361.0</ele><time>2026-03-29T15:16:19.005Z</time></trkpt><trkpt lat="45.0856083" lon="8.2670483"><ele>357.0</ele><time>2026-03-29T15:16:20.003Z</time></trkpt><trkpt lat="45.0855317" lon="8.26718"><ele>353.0</ele><time>2026-03-29T15:16:21.008Z</time></trkpt><trkpt lat="45.085465" lon="8.267325"><ele>349.0</ele><time>2026-03-29T15:16:22.004Z</time></trkpt><trkpt lat="45.085405" lon="8.267465"><ele>345.0</ele><time>2026-03-29T15:16:23.005Z</time></trkpt><trkpt lat="45.0853583" lon="8.2675867"><ele>344.0</ele><time>2026-03-29T15:16:24.007Z</time></trkpt><trkpt lat="45.08531" lon="8.26768"><ele>343.0</ele><time>2026-03-29T15:16:25.002Z</time></trkpt><trkpt lat="45.08526" lon="8.2677583"><ele>342.0</ele><time>2026-03-29T15:16:26.009Z</time></trkpt><trkpt lat="45.0852117" lon="8.2678317"><ele>341.0</ele><time>2026-03-29T15:16:27.003Z</time></trkpt><trkpt lat="45.08515" lon="8.2678917"><ele>340.0</ele><time>2026-03-29T15:16:28.002Z</time></trkpt><trkpt lat="45.085135" lon="8.2678033"><ele>339.0</ele><time>2026-03-29T15:16:29.004Z</time></trkpt><trkpt lat="45.08511" lon="8.267685"><ele>339.0</ele><time>2026-03-29T15:16:30.002Z</time></trkpt><trkpt lat="45.08509" lon="8.2675283"><ele>339.0</ele><time>2026-03-29T15:16:31.004Z</time></trkpt><trkpt lat="45.0850633" lon="8.2673817"><ele>339.0</ele><time>2026-03-29T15:16:32.006Z</time></trkpt><trkpt lat="45.0850283" lon="8.26726"><ele>339.0</ele><time>2026-03-29T15:16:33.006Z</time></trkpt><trkpt lat="45.084985" lon="8.2671483"><ele>339.0</ele><time>2026-03-29T15:16:34.004Z</time></trkpt><trkpt lat="45.0849283" lon="8.26704"><ele>337.25</ele><time>2026-03-29T15:16:35.01Z</time></trkpt><trkpt lat="45.0848283" lon="8.266965"><ele>335.5</ele><time>2026-03-29T15:16:36.005Z</time></trkpt><trkpt lat="45.0847267" lon="8.266885"><ele>333.75</ele><time>2026-03-29T15:16:37.002Z</time></trkpt><trkpt lat="45.0846233" lon="8.2667967"><ele>332.0</ele><time>2026-03-29T15:16:38.007Z</time></trkpt><trkpt lat="45.0845183" lon="8.2667133"><ele>332.0</ele><time>2026-03-29T15:16:39.004Z</time></trkpt><trkpt lat="45.0844233" lon="8.266655"><ele>332.0</ele><time>2026-03-29T15:16:40.002Z</time></trkpt><trkpt lat="45.0843317" lon="8.26661"><ele>332.0</ele><time>2026-03-29T15:16:41.005Z</time></trkpt><trkpt lat="45.08425" lon="8.2665717"><ele>332.0</ele><time>2026-03-29T15:16:42.006Z</time></trkpt><trkpt lat="45.08417" lon="8.2665283"><ele>332.0</ele><time>2026-03-29T15:16:43.002Z</time></trkpt><trkpt lat="45.08408" lon="8.2665233"><ele>329.25</ele><time>2026-03-29T15:16:44.005Z</time></trkpt><trkpt lat="45.083985" lon="8.2665667"><ele>326.5</ele><time>2026-03-29T15:16:45.003Z</time></trkpt><trkpt lat="45.0838967" lon="8.2666683"><ele>323.75</ele><time>2026-03-29T15:16:46.004Z</time></trkpt><trkpt lat="45.083785" lon="8.2667417"><ele>321.0</ele><time>2026-03-29T15:16:47.008Z</time></trkpt><trkpt lat="45.0836783" lon="8.2668167"><ele>321.0</ele><time>2026-03-29T15:16:48.006Z</time></trkpt><trkpt lat="45.083575" lon="8.266895"><ele>321.0</ele><time>2026-03-29T15:16:49.005Z</time></trkpt><trkpt lat="45.0834667" lon="8.26695"><ele>321.0</ele><time>2026-03-29T15:16:50.004Z</time></trkpt><trkpt lat="45.0833733" lon="8.2670083"><ele>321.0</ele><time>2026-03-29T15:16:51.002Z</time></trkpt><trkpt lat="45.0832683" lon="8.2670583"><ele>321.0</ele><time>2026-03-29T15:16:52.002Z</time></trkpt><trkpt lat="45.0831683" lon="8.2671017"><ele>320.2</ele><time>2026-03-29T15:16:53.003Z</time></trkpt><trkpt lat="45.0830733" lon="8.2671"><ele>319.40000000000003</ele><time>2026-03-29T15:16:54.002Z</time></trkpt><trkpt lat="45.0829817" lon="8.2670783"><ele>318.6</ele><time>2026-03-29T15:16:55.004Z</time></trkpt><trkpt lat="45.0828867" lon="8.2670417"><ele>317.8</ele><time>2026-03-29T15:16:56.007Z</time></trkpt><trkpt lat="45.08279" lon="8.2669883"><ele>317.0</ele><time>2026-03-29T15:16:57.002Z</time></trkpt><trkpt lat="45.0827067" lon="8.2668667"><ele>317.0</ele><time>2026-03-29T15:16:58.002Z</time></trkpt><trkpt lat="45.082625" lon="8.26675"><ele>317.0</ele><time>2026-03-29T15:16:59.006Z</time></trkpt><trkpt lat="45.0825317" lon="8.266655"><ele>317.0</ele><time>2026-03-29T15:17:00.011Z</time></trkpt><trkpt lat="45.082405" lon="8.266495"><ele>317.0</ele><time>2026-03-29T15:17:01.005Z</time></trkpt><trkpt lat="45.08229" lon="8.2664417"><ele>310.0</ele><time>2026-03-29T15:17:02.009Z</time></trkpt><trkpt lat="45.082165" lon="8.2663967"><ele>303.0</ele><time>2026-03-29T15:17:03.006Z</time></trkpt><trkpt lat="45.0820383" lon="8.26639"><ele>296.0</ele><time>2026-03-29T15:17:04.01Z</time></trkpt><trkpt lat="45.0819167" lon="8.2663967"><ele>289.0</ele><time>2026-03-29T15:17:05.003Z</time></trkpt><trkpt lat="45.0817967" lon="8.2664183"><ele>288.2</ele><time>2026-03-29T15:17:06.007Z</time></trkpt><trkpt lat="45.0816867" lon="8.2664467"><ele>287.4</ele><time>2026-03-29T15:17:07.005Z</time></trkpt><trkpt lat="45.0815783" lon="8.2664917"><ele>286.6</ele><time>2026-03-29T15:17:08.013Z</time></trkpt><trkpt lat="45.081475" lon="8.266545"><ele>285.8</ele><time>2026-03-29T15:17:09.008Z</time></trkpt><trkpt lat="45.0813733" lon="8.2666117"><ele>285.0</ele><time>2026-03-29T15:17:10.005Z</time></trkpt><trkpt lat="45.0812717" lon="8.26668"><ele>285.0</ele><time>2026-03-29T15:17:11.004Z</time></trkpt><trkpt lat="45.0811733" lon="8.26675"><ele>285.0</ele><time>2026-03-29T15:17:12.01Z</time></trkpt><trkpt lat="45.0810717" lon="8.2668217"><ele>285.0</ele><time>2026-03-29T15:17:13.004Z</time></trkpt><trkpt lat="45.0809667" lon="8.26689"><ele>285.0</ele><time>2026-03-29T15:17:14.004Z</time></trkpt><trkpt lat="45.0808567" lon="8.2669567"><ele>283.5</ele><time>2026-03-29T15:17:15.004Z</time></trkpt><trkpt lat="45.0807567" lon="8.267035"><ele>282.0</ele><time>2026-03-29T15:17:16.006Z</time></trkpt><trkpt lat="45.08067" lon="8.267105"><ele>280.5</ele><time>2026-03-29T15:17:17.003Z</time></trkpt><trkpt lat="45.0806" lon="8.2671583"><ele>279.0</ele><time>2026-03-29T15:17:18.004Z</time></trkpt><trkpt lat="45.080535" lon="8.2671983"><ele>277.5</ele><time>2026-03-29T15:17:19.003Z</time></trkpt><trkpt lat="45.0804717" lon="8.2672133"><ele>276.0</ele><time>2026-03-29T15:17:20.003Z</time></trkpt><trkpt lat="45.080405" lon="8.2672233"><ele>276.0</ele><time>2026-03-29T15:17:21.007Z</time></trkpt><trkpt lat="45.0803417" lon="8.2672067"><ele>276.0</ele><time>2026-03-29T15:17:23.007Z</time></trkpt><trkpt lat="45.08045" lon="8.267025"><ele>276.0</ele><time>2026-03-29T15:17:25.008Z</time></trkpt><trkpt lat="45.080565" lon="8.266865"><ele>276.0</ele><time>2026-03-29T15:17:26.004Z</time></trkpt><trkpt lat="45.080675" lon="8.2667117"><ele>275.75</ele><time>2026-03-29T15:17:27.003Z</time></trkpt><trkpt lat="45.0807883" lon="8.2665833"><ele>275.5</ele><time>2026-03-29T15:17:28.004Z</time></trkpt><trkpt lat="45.0808883" lon="8.266455"><ele>275.25</ele><time>2026-03-29T15:17:29.008Z</time></trkpt><trkpt lat="45.080945" lon="8.2663517"><ele>275.0</ele><time>2026-03-29T15:17:30.005Z</time></trkpt><trkpt lat="45.0809767" lon="8.2662467"><ele>275.0</ele><time>2026-03-29T15:17:31.008Z</time></trkpt><trkpt lat="45.080985" lon="8.2661583"><ele>275.0</ele><time>2026-03-29T15:17:32.006Z</time></trkpt><trkpt lat="45.0809633" lon="8.2660733"><ele>275.0</ele><time>2026-03-29T15:17:33.008Z</time></trkpt><trkpt lat="45.0808983" lon="8.26595"><ele>275.0</ele><time>2026-03-29T15:17:35.003Z</time></trkpt><trkpt lat="45.08071" lon="8.2659667"><ele>275.0</ele><time>2026-03-29T15:17:37.003Z</time></trkpt><trkpt lat="45.0805833" lon="8.2660017"><ele>268.5</ele><time>2026-03-29T15:17:38.006Z</time></trkpt><trkpt lat="45.0803433" lon="8.2661317"><ele>262.0</ele><time>2026-03-29T15:17:39.005Z</time></trkpt><trkpt lat="45.0801167" lon="8.26625"><ele>262.0</ele><time>2026-03-29T15:17:40.003Z</time></trkpt><trkpt lat="45.0799517" lon="8.2663217"><ele>262.0</ele><time>2026-03-29T15:17:41.007Z</time></trkpt><trkpt lat="45.0797817" lon="8.2663933"><ele>262.0</ele><time>2026-03-29T15:17:42.006Z</time></trkpt><trkpt lat="45.0796233" lon="8.266455"><ele>261.0</ele><time>2026-03-29T15:17:43.005Z</time></trkpt><trkpt lat="45.0794617" lon="8.266505"><ele>260.0</ele><time>2026-03-29T15:17:44.008Z</time></trkpt><trkpt lat="45.0793017" lon="8.26654"><ele>259.0</ele><time>2026-03-29T15:17:45.006Z</time></trkpt><trkpt lat="45.0791367" lon="8.2665617"><ele>254.0</ele><time>2026-03-29T15:17:46.007Z</time></trkpt><trkpt lat="45.0789683" lon="8.26657"><ele>249.0</ele><time>2026-03-29T15:17:47.006Z</time></trkpt><trkpt lat="45.0788017" lon="8.2665817"><ele>244.0</ele><time>2026-03-29T15:17:48.005Z</time></trkpt><trkpt lat="45.0786317" lon="8.2665883"><ele>244.0</ele><time>2026-03-29T15:17:49.008Z</time></trkpt><trkpt lat="45.07846" lon="8.26659"><ele>244.0</ele><time>2026-03-29T15:17:50Z</time></trkpt><trkpt lat="45.0782817" lon="8.2666033"><ele>244.0</ele><time>2026-03-29T15:17:51.008Z</time></trkpt><trkpt lat="45.078105" lon="8.2666083"><ele>242.0</ele><time>2026-03-29T15:17:52.007Z</time></trkpt><trkpt lat="45.0779233" lon="8.26661"><ele>240.0</ele><time>2026-03-29T15:17:53.004Z</time></trkpt><trkpt lat="45.0777417" lon="8.2666067"><ele>238.0</ele><time>2026-03-29T15:17:54.006Z</time></trkpt><trkpt lat="45.0775567" lon="8.2665967"><ele>236.33333333333331</ele><time>2026-03-29T15:17:55Z</time></trkpt><trkpt lat="45.07738" lon="8.2665967"><ele>234.66666666666669</ele><time>2026-03-29T15:17:56.005Z</time></trkpt><trkpt lat="45.0772" lon="8.2665917"><ele>233.0</ele><time>2026-03-29T15:17:57.003Z</time></trkpt><trkpt lat="45.0770183" lon="8.26659"><ele>233.0</ele><time>2026-03-29T15:17:58.006Z</time></trkpt><trkpt lat="45.0768367" lon="8.266585"><ele>233.0</ele><time>2026-03-29T15:17:59.002Z</time></trkpt><trkpt lat="45.0766483" lon="8.2665783"><ele>233.0</ele><time>2026-03-29T15:18:00.011Z</time></trkpt><trkpt lat="45.0764917" lon="8.266585"><ele>233.33333333333334</ele><time>2026-03-29T15:18:01.003Z</time></trkpt><trkpt lat="45.076305" lon="8.2665883"><ele>233.66666666666669</ele><time>2026-03-29T15:18:02.006Z</time></trkpt><trkpt lat="45.076115" lon="8.2665933"><ele>234.0</ele><time>2026-03-29T15:18:03.003Z</time></trkpt><trkpt lat="45.0759317" lon="8.2665917"><ele>231.33333333333331</ele><time>2026-03-29T15:18:04.002Z</time></trkpt><trkpt lat="45.0757533" lon="8.2665967"><ele>228.66666666666666</ele><time>2026-03-29T15:18:05.001Z</time></trkpt><trkpt lat="45.075575" lon="8.2666033"><ele>226.0</ele><time>2026-03-29T15:18:06.003Z</time></trkpt><trkpt lat="45.075405" lon="8.2666133"><ele>226.0</ele><time>2026-03-29T15:18:07.006Z</time></trkpt><trkpt lat="45.0752367" lon="8.26663"><ele>226.0</ele><time>2026-03-29T15:18:08.008Z</time></trkpt><trkpt lat="45.0750733" lon="8.2666433"><ele>226.0</ele><time>2026-03-29T15:18:09.006Z</time></trkpt><trkpt lat="45.0749133" lon="8.2666583"><ele>225.0</ele><time>2026-03-29T15:18:10.008Z</time></trkpt><trkpt lat="45.0747617" lon="8.266695"><ele>224.0</ele><time>2026-03-29T15:18:11.005Z</time></trkpt><trkpt lat="45.07461" lon="8.2667167"><ele>223.0</ele><time>2026-03-29T15:18:12.003Z</time></trkpt><trkpt lat="45.07446" lon="8.2667367"><ele>223.0</ele><time>2026-03-29T15:18:13.005Z</time></trkpt><trkpt lat="45.07431" lon="8.2667517"><ele>223.0</ele><time>2026-03-29T15:18:14.009Z</time></trkpt><trkpt lat="45.074165" lon="8.2667667"><ele>223.0</ele><time>2026-03-29T15:18:15.009Z</time></trkpt><trkpt lat="45.0740217" lon="8.2667733"><ele>223.0</ele><time>2026-03-29T15:18:16.005Z</time></trkpt><trkpt lat="45.073885" lon="8.266785"><ele>222.25</ele><time>2026-03-29T15:18:17.007Z</time></trkpt><trkpt lat="45.0737517" lon="8.2667917"><ele>221.5</ele><time>2026-03-29T15:18:18.009Z</time></trkpt><trkpt lat="45.0736233" lon="8.266815"><ele>220.75</ele><time>2026-03-29T15:18:19.002Z</time></trkpt><trkpt lat="45.073505" lon="8.2668617"><ele>220.0</ele><time>2026-03-29T15:18:20.003Z</time></trkpt><trkpt lat="45.0733817" lon="8.266925"><ele>219.25</ele><time>2026-03-29T15:18:21.004Z</time></trkpt><trkpt lat="45.0732633" lon="8.2670017"><ele>218.5</ele><time>2026-03-29T15:18:22.006Z</time></trkpt><trkpt lat="45.0731433" lon="8.2670733"><ele>217.75</ele><time>2026-03-29T15:18:23.004Z</time></trkpt><trkpt lat="45.0730233" lon="8.2671567"><ele>217.0</ele><time>2026-03-29T15:18:24.005Z</time></trkpt><trkpt lat="45.0728983" lon="8.2672483"><ele>217.0</ele><time>2026-03-29T15:18:25.005Z</time></trkpt><trkpt lat="45.07277" lon="8.2673483"><ele>217.0</ele><time>2026-03-29T15:18:26.012Z</time></trkpt><trkpt lat="45.0726383" lon="8.2674433"><ele>217.0</ele><time>2026-03-29T15:18:27.005Z</time></trkpt><trkpt lat="45.0725083" lon="8.2675483"><ele>217.0</ele><time>2026-03-29T15:18:28.002Z</time></trkpt><trkpt lat="45.0723667" lon="8.2676467"><ele>216.0</ele><time>2026-03-29T15:18:29.007Z</time></trkpt><trkpt lat="45.0722367" lon="8.267745"><ele>215.0</ele><time>2026-03-29T15:18:30.005Z</time></trkpt><trkpt lat="45.072105" lon="8.2678467"><ele>214.0</ele><time>2026-03-29T15:18:31.008Z</time></trkpt><trkpt lat="45.0719733" lon="8.2679533"><ele>213.0</ele><time>2026-03-29T15:18:32.008Z</time></trkpt><trkpt lat="45.0718467" lon="8.26806"><ele>213.75</ele><time>2026-03-29T15:18:33.004Z</time></trkpt><trkpt lat="45.071725" lon="8.2681617"><ele>214.5</ele><time>2026-03-29T15:18:34.007Z</time></trkpt><trkpt lat="45.0716083" lon="8.268265"><ele>215.25</ele><time>2026-03-29T15:18:35.003Z</time></trkpt><trkpt lat="45.0714917" lon="8.2683667"><ele>216.0</ele><time>2026-03-29T15:18:36.004Z</time></trkpt><trkpt lat="45.0713783" lon="8.2684733"><ele>215.5</ele><time>2026-03-29T15:18:37.006Z</time></trkpt><trkpt lat="45.071265" lon="8.268575"><ele>215.0</ele><time>2026-03-29T15:18:38.007Z</time></trkpt><trkpt lat="45.07115" lon="8.2686767"><ele>214.5</ele><time>2026-03-29T15:18:39.002Z</time></trkpt><trkpt lat="45.0710317" lon="8.2687983"><ele>214.0</ele><time>2026-03-29T15:18:40.002Z</time></trkpt><trkpt lat="45.070895" lon="8.2689533"><ele>210.33333333333331</ele><time>2026-03-29T15:18:41.005Z</time></trkpt><trkpt lat="45.0707383" lon="8.2691367"><ele>206.66666666666669</ele><time>2026-03-29T15:18:42.004Z</time></trkpt><trkpt lat="45.0705567" lon="8.2693333"><ele>203.0</ele><time>2026-03-29T15:18:43.003Z</time></trkpt><trkpt lat="45.0703733" lon="8.2695467"><ele>203.0</ele><time>2026-03-29T15:18:44.009Z</time></trkpt><trkpt lat="45.07019" lon="8.26976"><ele>203.0</ele><time>2026-03-29T15:18:45.005Z</time></trkpt><trkpt lat="45.0700167" lon="8.2699783"><ele>201.66666666666669</ele><time>2026-03-29T15:18:46.005Z</time></trkpt><trkpt lat="45.06985" lon="8.2701867"><ele>200.33333333333331</ele><time>2026-03-29T15:18:47.004Z</time></trkpt><trkpt lat="45.0696967" lon="8.27038"><ele>199.0</ele><time>2026-03-29T15:18:48.003Z</time></trkpt><trkpt lat="45.0695583" lon="8.2705517"><ele>198.66666666666666</ele><time>2026-03-29T15:18:49.004Z</time></trkpt><trkpt lat="45.0694317" lon="8.27071"><ele>198.33333333333331</ele><time>2026-03-29T15:18:50.005Z</time></trkpt><trkpt lat="45.0693067" lon="8.2708567"><ele>198.0</ele><time>2026-03-29T15:18:51.005Z</time></trkpt><trkpt lat="45.0691867" lon="8.2710017"><ele>198.0</ele><time>2026-03-29T15:18:52.008Z</time></trkpt><trkpt lat="45.0690667" lon="8.2711467"><ele>198.0</ele><time>2026-03-29T15:18:53.003Z</time></trkpt><trkpt lat="45.0689433" lon="8.27129"><ele>198.0</ele><time>2026-03-29T15:18:54.003Z</time></trkpt><trkpt lat="45.0688233" lon="8.2714417"><ele>197.33333333333331</ele><time>2026-03-29T15:18:55.007Z</time></trkpt><trkpt lat="45.0687" lon="8.271595"><ele>196.66666666666666</ele><time>2026-03-29T15:18:56.004Z</time></trkpt><trkpt lat="45.06858" lon="8.2717483"><ele>196.0</ele><time>2026-03-29T15:18:57.008Z</time></trkpt><trkpt lat="45.068455" lon="8.2719033"><ele>196.0</ele><time>2026-03-29T15:18:58.005Z</time></trkpt><trkpt lat="45.0683283" lon="8.2720767"><ele>196.0</ele><time>2026-03-29T15:18:59.011Z</time></trkpt><trkpt lat="45.068205" lon="8.27226"><ele>196.0</ele><time>2026-03-29T15:19:00.006Z</time></trkpt><trkpt lat="45.0680867" lon="8.2724667"><ele>193.0</ele><time>2026-03-29T15:19:01.002Z</time></trkpt><trkpt lat="45.0679717" lon="8.27269"><ele>190.0</ele><time>2026-03-29T15:19:02.006Z</time></trkpt><trkpt lat="45.067855" lon="8.2729217"><ele>187.0</ele><time>2026-03-29T15:19:03.001Z</time></trkpt><trkpt lat="45.0677367" lon="8.2731617"><ele>187.0</ele><time>2026-03-29T15:19:04.002Z</time></trkpt><trkpt lat="45.0676167" lon="8.27341"><ele>187.0</ele><time>2026-03-29T15:19:05.005Z</time></trkpt><trkpt lat="45.0674933" lon="8.2736633"><ele>187.0</ele><time>2026-03-29T15:19:06.005Z</time></trkpt><trkpt lat="45.067365" lon="8.2739183"><ele>186.0</ele><time>2026-03-29T15:19:07.006Z</time></trkpt><trkpt lat="45.067235" lon="8.2741933"><ele>185.0</ele><time>2026-03-29T15:19:08.003Z</time></trkpt><trkpt lat="45.0670933" lon="8.2744767"><ele>185.0</ele><time>2026-03-29T15:19:09.005Z</time></trkpt><trkpt lat="45.0669483" lon="8.27477"><ele>185.0</ele><time>2026-03-29T15:19:10.003Z</time></trkpt><trkpt lat="45.0668" lon="8.2750567"><ele>185.5</ele><time>2026-03-29T15:19:11.007Z</time></trkpt><trkpt lat="45.06666" lon="8.2753317"><ele>186.0</ele><time>2026-03-29T15:19:12.004Z</time></trkpt><trkpt lat="45.066525" lon="8.2755967"><ele>184.0</ele><time>2026-03-29T15:19:13.002Z</time></trkpt><trkpt lat="45.0663933" lon="8.2758567"><ele>182.0</ele><time>2026-03-29T15:19:14.003Z</time></trkpt><trkpt lat="45.0662633" lon="8.2761117"><ele>180.0</ele><time>2026-03-29T15:19:15.002Z</time></trkpt><trkpt lat="45.0661333" lon="8.2763717"><ele>178.66666666666666</ele><time>2026-03-29T15:19:16.007Z</time></trkpt><trkpt lat="45.0660017" lon="8.2766317"><ele>177.33333333333331</ele><time>2026-03-29T15:19:17.004Z</time></trkpt><trkpt lat="45.0658733" lon="8.276885"><ele>176.0</ele><time>2026-03-29T15:19:18.004Z</time></trkpt><trkpt lat="45.0657517" lon="8.2771267"><ele>175.33333333333331</ele><time>2026-03-29T15:19:19.009Z</time></trkpt><trkpt lat="45.0656333" lon="8.2773567"><ele>174.66666666666666</ele><time>2026-03-29T15:19:20.006Z</time></trkpt><trkpt lat="45.0655217" lon="8.2775783"><ele>174.0</ele><time>2026-03-29T15:19:21.011Z</time></trkpt><trkpt lat="45.0654167" lon="8.2777933"><ele>174.0</ele><time>2026-03-29T15:19:22.004Z</time></trkpt><trkpt lat="45.0653167" lon="8.2780017"><ele>174.0</ele><time>2026-03-29T15:19:23.007Z</time></trkpt><trkpt lat="45.065215" lon="8.2782067"><ele>174.0</ele><time>2026-03-29T15:19:24.005Z</time></trkpt><trkpt lat="45.06512" lon="8.278405"><ele>174.0</ele><time>2026-03-29T15:19:25.007Z</time></trkpt><trkpt lat="45.0650317" lon="8.2785983"><ele>174.0</ele><time>2026-03-29T15:19:26.009Z</time></trkpt><trkpt lat="45.06494" lon="8.278785"><ele>174.0</ele><time>2026-03-29T15:19:27Z</time></trkpt><trkpt lat="45.0648517" lon="8.27897"><ele>174.0</ele><time>2026-03-29T15:19:28.005Z</time></trkpt><trkpt lat="45.0647667" lon="8.2791483"><ele>174.0</ele><time>2026-03-29T15:19:29.008Z</time></trkpt><trkpt lat="45.0646833" lon="8.27932"><ele>174.0</ele><time>2026-03-29T15:19:30.007Z</time></trkpt><trkpt lat="45.0646017" lon="8.27949"><ele>174.0</ele><time>2026-03-29T15:19:31.004Z</time></trkpt><trkpt lat="45.0645233" lon="8.2796583"><ele>173.6</ele><time>2026-03-29T15:19:32.01Z</time></trkpt><trkpt lat="45.0644483" lon="8.2798133"><ele>173.2</ele><time>2026-03-29T15:19:33.004Z</time></trkpt><trkpt lat="45.06438" lon="8.27995"><ele>172.79999999999998</ele><time>2026-03-29T15:19:34.005Z</time></trkpt><trkpt lat="45.0643267" lon="8.28006"><ele>172.39999999999998</ele><time>2026-03-29T15:19:35.002Z</time></trkpt><trkpt lat="45.0642833" lon="8.2801467"><ele>172.0</ele><time>2026-03-29T15:19:36.01Z</time></trkpt><trkpt lat="45.06422" lon="8.28028"><ele>172.0</ele><time>2026-03-29T15:19:38.004Z</time></trkpt><trkpt lat="45.0641367" lon="8.28038"><ele>172.0</ele><time>2026-03-29T15:19:40.003Z</time></trkpt><trkpt lat="45.064035" lon="8.280395"><ele>172.0</ele><time>2026-03-29T15:19:42.003Z</time></trkpt><trkpt lat="45.063975" lon="8.280365"><ele>172.0</ele><time>2026-03-29T15:19:43.008Z</time></trkpt><trkpt lat="45.06388" lon="8.2803333"><ele>172.0</ele><time>2026-03-29T15:19:45.005Z</time></trkpt><trkpt lat="45.0637933" lon="8.280295"><ele>172.5</ele><time>2026-03-29T15:19:47.007Z</time></trkpt><trkpt lat="45.0636933" lon="8.28027"><ele>173.0</ele><time>2026-03-29T15:19:49Z</time></trkpt><trkpt lat="45.06355" lon="8.2801933"><ele>173.5</ele><time>2026-03-29T15:19:51.006Z</time></trkpt><trkpt lat="45.0634617" lon="8.2801317"><ele>174.0</ele><time>2026-03-29T15:19:52.011Z</time></trkpt><trkpt lat="45.0633717" lon="8.2800767"><ele>174.0</ele><time>2026-03-29T15:19:53.001Z</time></trkpt><trkpt lat="45.0632717" lon="8.28002"><ele>174.0</ele><time>2026-03-29T15:19:54.001Z</time></trkpt><trkpt lat="45.0631717" lon="8.2799633"><ele>174.0</ele><time>2026-03-29T15:19:55.006Z</time></trkpt><trkpt lat="45.06307" lon="8.279895"><ele>174.0</ele><time>2026-03-29T15:19:56.002Z</time></trkpt><trkpt lat="45.062965" lon="8.279825"><ele>174.0</ele><time>2026-03-29T15:19:57.007Z</time></trkpt><trkpt lat="45.0628567" lon="8.2797533"><ele>174.0</ele><time>2026-03-29T15:19:58.005Z</time></trkpt><trkpt lat="45.0627417" lon="8.2796733"><ele>174.0</ele><time>2026-03-29T15:19:59.005Z</time></trkpt><trkpt lat="45.0626283" lon="8.2796067"><ele>174.0</ele><time>2026-03-29T15:20:00.012Z</time></trkpt><trkpt lat="45.0625033" lon="8.27953"><ele>174.0</ele><time>2026-03-29T15:20:01.006Z</time></trkpt><trkpt lat="45.0623817" lon="8.2794533"><ele>174.5</ele><time>2026-03-29T15:20:02.008Z</time></trkpt><trkpt lat="45.06227" lon="8.2793833"><ele>175.0</ele><time>2026-03-29T15:20:03.005Z</time></trkpt><trkpt lat="45.0621617" lon="8.279315"><ele>175.5</ele><time>2026-03-29T15:20:04.004Z</time></trkpt><trkpt lat="45.0620533" lon="8.2792467"><ele>176.0</ele><time>2026-03-29T15:20:05.003Z</time></trkpt><trkpt lat="45.06195" lon="8.27918"><ele>176.0</ele><time>2026-03-29T15:20:06.008Z</time></trkpt><trkpt lat="45.0618367" lon="8.27911"><ele>176.0</ele><time>2026-03-29T15:20:07.011Z</time></trkpt><trkpt lat="45.06172" lon="8.27904"><ele>176.0</ele><time>2026-03-29T15:20:08.006Z</time></trkpt><trkpt lat="45.0616" lon="8.2789717"><ele>176.0</ele><time>2026-03-29T15:20:09.004Z</time></trkpt><trkpt lat="45.061485" lon="8.2789017"><ele>176.25</ele><time>2026-03-29T15:20:10.004Z</time></trkpt><trkpt lat="45.0613667" lon="8.2788283"><ele>176.5</ele><time>2026-03-29T15:20:11.006Z</time></trkpt><trkpt lat="45.0612433" lon="8.2787467"><ele>176.75</ele><time>2026-03-29T15:20:12.005Z</time></trkpt><trkpt lat="45.0611217" lon="8.27867"><ele>177.0</ele><time>2026-03-29T15:20:13.009Z</time></trkpt><trkpt lat="45.0610017" lon="8.27859"><ele>177.0</ele><time>2026-03-29T15:20:14.007Z</time></trkpt><trkpt lat="45.0608817" lon="8.2785117"><ele>177.0</ele><time>2026-03-29T15:20:15.006Z</time></trkpt><trkpt lat="45.0607583" lon="8.2784367"><ele>177.0</ele><time>2026-03-29T15:20:16.008Z</time></trkpt><trkpt lat="45.0606333" lon="8.2783583"><ele>177.0</ele><time>2026-03-29T15:20:17.004Z</time></trkpt><trkpt lat="45.0605083" lon="8.2782817"><ele>177.0</ele><time>2026-03-29T15:20:18.004Z</time></trkpt><trkpt lat="45.06038" lon="8.2782083"><ele>177.0</ele><time>2026-03-29T15:20:19.001Z</time></trkpt><trkpt lat="45.0602533" lon="8.2781333"><ele>177.0</ele><time>2026-03-29T15:20:20.006Z</time></trkpt><trkpt lat="45.0601283" lon="8.2780533"><ele>177.0</ele><time>2026-03-29T15:20:21.005Z</time></trkpt><trkpt lat="45.0600017" lon="8.2779733"><ele>177.25</ele><time>2026-03-29T15:20:22.005Z</time></trkpt><trkpt lat="45.0598717" lon="8.277895"><ele>177.5</ele><time>2026-03-29T15:20:23.005Z</time></trkpt><trkpt lat="45.0597367" lon="8.277815"><ele>177.75</ele><time>2026-03-29T15:20:24.007Z</time></trkpt><trkpt lat="45.0596083" lon="8.27774"><ele>178.0</ele><time>2026-03-29T15:20:25.005Z</time></trkpt><trkpt lat="45.0594767" lon="8.2776633"><ele>178.0</ele><time>2026-03-29T15:20:26.006Z</time></trkpt><trkpt lat="45.05935" lon="8.27759"><ele>178.0</ele><time>2026-03-29T15:20:27.006Z</time></trkpt><trkpt lat="45.05922" lon="8.2775117"><ele>178.0</ele><time>2026-03-29T15:20:28.003Z</time></trkpt><trkpt lat="45.05909" lon="8.2774317"><ele>178.0</ele><time>2026-03-29T15:20:29.002Z</time></trkpt><trkpt lat="45.058955" lon="8.277345"><ele>178.66666666666669</ele><time>2026-03-29T15:20:30.005Z</time></trkpt><trkpt lat="45.05882" lon="8.2772633"><ele>179.33333333333334</ele><time>2026-03-29T15:20:31.009Z</time></trkpt><trkpt lat="45.0586767" lon="8.2771767"><ele>180.0</ele><time>2026-03-29T15:20:32.006Z</time></trkpt><trkpt lat="45.0585283" lon="8.2770833"><ele>180.0</ele><time>2026-03-29T15:20:33.007Z</time></trkpt><trkpt lat="45.05838" lon="8.276995"><ele>180.0</ele><time>2026-03-29T15:20:34.001Z</time></trkpt><trkpt lat="45.0582333" lon="8.2769067"><ele>180.0</ele><time>2026-03-29T15:20:35.004Z</time></trkpt><trkpt lat="45.058085" lon="8.2768167"><ele>180.0</ele><time>2026-03-29T15:20:36.004Z</time></trkpt><trkpt lat="45.057935" lon="8.2767233"><ele>180.0</ele><time>2026-03-29T15:20:37.012Z</time></trkpt><trkpt lat="45.0577867" lon="8.2766383"><ele>180.0</ele><time>2026-03-29T15:20:38.003Z</time></trkpt><trkpt lat="45.05764" lon="8.2765533"><ele>180.0</ele><time>2026-03-29T15:20:39.003Z</time></trkpt><trkpt lat="45.0574967" lon="8.2764717"><ele>180.0</ele><time>2026-03-29T15:20:40.005Z</time></trkpt><trkpt lat="45.057355" lon="8.2764017"><ele>180.0</ele><time>2026-03-29T15:20:41.002Z</time></trkpt><trkpt lat="45.0572117" lon="8.2763367"><ele>181.25</ele><time>2026-03-29T15:20:42.006Z</time></trkpt><trkpt lat="45.0570683" lon="8.2762933"><ele>182.5</ele><time>2026-03-29T15:20:43.005Z</time></trkpt><trkpt lat="45.0569233" lon="8.2762817"><ele>183.75</ele><time>2026-03-29T15:20:44.005Z</time></trkpt><trkpt lat="45.0567733" lon="8.2762983"><ele>185.0</ele><time>2026-03-29T15:20:45.007Z</time></trkpt><trkpt lat="45.0566217" lon="8.2763483"><ele>186.33333333333331</ele><time>2026-03-29T15:20:46.003Z</time></trkpt><trkpt lat="45.0564683" lon="8.276425"><ele>187.66666666666666</ele><time>2026-03-29T15:20:47.007Z</time></trkpt><trkpt lat="45.0563117" lon="8.2765217"><ele>189.0</ele><time>2026-03-29T15:20:48.004Z</time></trkpt><trkpt lat="45.0561617" lon="8.2766367"><ele>190.0</ele><time>2026-03-29T15:20:49.004Z</time></trkpt><trkpt lat="45.0560133" lon="8.2767583"><ele>191.0</ele><time>2026-03-29T15:20:50.006Z</time></trkpt><trkpt lat="45.0558617" lon="8.27688"><ele>192.0</ele><time>2026-03-29T15:20:51.006Z</time></trkpt><trkpt lat="45.0557117" lon="8.277005"><ele>195.33333333333331</ele><time>2026-03-29T15:20:52.006Z</time></trkpt><trkpt lat="45.0555633" lon="8.277135"><ele>198.66666666666666</ele><time>2026-03-29T15:20:53.002Z</time></trkpt><trkpt lat="45.055415" lon="8.27726"><ele>202.0</ele><time>2026-03-29T15:20:54.008Z</time></trkpt><trkpt lat="45.0552717" lon="8.27738"><ele>202.0</ele><time>2026-03-29T15:20:55.008Z</time></trkpt><trkpt lat="45.0551333" lon="8.2775"><ele>202.0</ele><time>2026-03-29T15:20:56.002Z</time></trkpt><trkpt lat="45.0550017" lon="8.2776133"><ele>202.0</ele><time>2026-03-29T15:20:57.013Z</time></trkpt><trkpt lat="45.054875" lon="8.2777133"><ele>204.75</ele><time>2026-03-29T15:20:58.005Z</time></trkpt><trkpt lat="45.0547633" lon="8.2778"><ele>207.5</ele><time>2026-03-29T15:20:59.002Z</time></trkpt><trkpt lat="45.0546467" lon="8.2778767"><ele>210.25</ele><time>2026-03-29T15:21:00.009Z</time></trkpt><trkpt lat="45.0545383" lon="8.2779183"><ele>213.0</ele><time>2026-03-29T15:21:01.005Z</time></trkpt><trkpt lat="45.0544283" lon="8.277915"><ele>213.0</ele><time>2026-03-29T15:21:02.005Z</time></trkpt><trkpt lat="45.0543217" lon="8.277855"><ele>213.0</ele><time>2026-03-29T15:21:03.003Z</time></trkpt><trkpt lat="45.05423" lon="8.2777583"><ele>213.0</ele><time>2026-03-29T15:21:04.002Z</time></trkpt><trkpt lat="45.0541467" lon="8.2776283"><ele>213.0</ele><time>2026-03-29T15:21:05.003Z</time></trkpt><trkpt lat="45.0540683" lon="8.27747"><ele>218.66666666666669</ele><time>2026-03-29T15:21:06.007Z</time></trkpt><trkpt lat="45.0540033" lon="8.277255"><ele>224.33333333333334</ele><time>2026-03-29T15:21:07.004Z</time></trkpt><trkpt lat="45.0539367" lon="8.2770067"><ele>230.0</ele><time>2026-03-29T15:21:08.004Z</time></trkpt><trkpt lat="45.0538683" lon="8.2767567"><ele>230.0</ele><time>2026-03-29T15:21:09.006Z</time></trkpt><trkpt lat="45.0537967" lon="8.276525"><ele>230.0</ele><time>2026-03-29T15:21:10.009Z</time></trkpt><trkpt lat="45.0537267" lon="8.276305"><ele>230.0</ele><time>2026-03-29T15:21:11.007Z</time></trkpt><trkpt lat="45.0536583" lon="8.276095"><ele>229.0</ele><time>2026-03-29T15:21:12.006Z</time></trkpt><trkpt lat="45.0535983" lon="8.2758883"><ele>228.0</ele><time>2026-03-29T15:21:13.004Z</time></trkpt><trkpt lat="45.0535383" lon="8.27568"><ele>227.0</ele><time>2026-03-29T15:21:14.004Z</time></trkpt><trkpt lat="45.05348" lon="8.2754817"><ele>226.0</ele><time>2026-03-29T15:21:15.006Z</time></trkpt><trkpt lat="45.0534133" lon="8.27529"><ele>225.0</ele><time>2026-03-29T15:21:16.005Z</time></trkpt><trkpt lat="45.05334" lon="8.2750967"><ele>224.0</ele><time>2026-03-29T15:21:17.007Z</time></trkpt><trkpt lat="45.053275" lon="8.274895"><ele>226.66666666666669</ele><time>2026-03-29T15:21:18.007Z</time></trkpt><trkpt lat="45.0532083" lon="8.2746917"><ele>229.33333333333331</ele><time>2026-03-29T15:21:19.007Z</time></trkpt><trkpt lat="45.05314" lon="8.274485"><ele>232.0</ele><time>2026-03-29T15:21:20.004Z</time></trkpt><trkpt lat="45.0530717" lon="8.2742733"><ele>232.0</ele><time>2026-03-29T15:21:21.006Z</time></trkpt><trkpt lat="45.05301" lon="8.2740583"><ele>232.0</ele><time>2026-03-29T15:21:22.005Z</time></trkpt><trkpt lat="45.0529467" lon="8.273845"><ele>232.0</ele><time>2026-03-29T15:21:23.003Z</time></trkpt><trkpt lat="45.05288" lon="8.2736417"><ele>232.33333333333331</ele><time>2026-03-29T15:21:24.005Z</time></trkpt><trkpt lat="45.0528117" lon="8.2734467"><ele>232.66666666666669</ele><time>2026-03-29T15:21:25.007Z</time></trkpt><trkpt lat="45.0527417" lon="8.2732467"><ele>233.0</ele><time>2026-03-29T15:21:26.005Z</time></trkpt><trkpt lat="45.0526783" lon="8.2730517"><ele>233.75</ele><time>2026-03-29T15:21:27.005Z</time></trkpt><trkpt lat="45.0526133" lon="8.27286"><ele>234.5</ele><time>2026-03-29T15:21:28.003Z</time></trkpt><trkpt lat="45.0525467" lon="8.27267"><ele>235.25</ele><time>2026-03-29T15:21:29.011Z</time></trkpt><trkpt lat="45.0524817" lon="8.272485"><ele>236.0</ele><time>2026-03-29T15:21:30.004Z</time></trkpt><trkpt lat="45.0524183" lon="8.2723017"><ele>238.0</ele><time>2026-03-29T15:21:31.007Z</time></trkpt><trkpt lat="45.0523567" lon="8.272115"><ele>240.0</ele><time>2026-03-29T15:21:32.007Z</time></trkpt><trkpt lat="45.0522967" lon="8.27193"><ele>242.0</ele><time>2026-03-29T15:21:33.006Z</time></trkpt><trkpt lat="45.0522267" lon="8.2717483"><ele>244.0</ele><time>2026-03-29T15:21:34.009Z</time></trkpt><trkpt lat="45.05216" lon="8.27156"><ele>245.0</ele><time>2026-03-29T15:21:35.005Z</time></trkpt><trkpt lat="45.0521" lon="8.2713717"><ele>246.0</ele><time>2026-03-29T15:21:36.005Z</time></trkpt><trkpt lat="45.05205" lon="8.2712"><ele>247.0</ele><time>2026-03-29T15:21:37.009Z</time></trkpt><trkpt lat="45.052" lon="8.271045"><ele>248.0</ele><time>2026-03-29T15:21:38.004Z</time></trkpt><trkpt lat="45.051955" lon="8.2708983"><ele>248.0</ele><time>2026-03-29T15:21:39.005Z</time></trkpt><trkpt lat="45.05191" lon="8.2707583"><ele>248.0</ele><time>2026-03-29T15:21:40.007Z</time></trkpt><trkpt lat="45.0518633" lon="8.2706167"><ele>248.0</ele><time>2026-03-29T15:21:41.006Z</time></trkpt><trkpt lat="45.0518183" lon="8.2704817"><ele>248.0</ele><time>2026-03-29T15:21:42.008Z</time></trkpt><trkpt lat="45.0517733" lon="8.2703517"><ele>248.0</ele><time>2026-03-29T15:21:43.004Z</time></trkpt><trkpt lat="45.0517267" lon="8.2702283"><ele>247.8</ele><time>2026-03-29T15:21:44.004Z</time></trkpt><trkpt lat="45.051685" lon="8.2701067"><ele>247.60000000000002</ele><time>2026-03-29T15:21:45.014Z</time></trkpt><trkpt lat="45.0516367" lon="8.2699867"><ele>247.39999999999998</ele><time>2026-03-29T15:21:46.002Z</time></trkpt><trkpt lat="45.0515967" lon="8.2698667"><ele>247.2</ele><time>2026-03-29T15:21:47.005Z</time></trkpt><trkpt lat="45.0515567" lon="8.2697433"><ele>247.0</ele><time>2026-03-29T15:21:48.006Z</time></trkpt><trkpt lat="45.051515" lon="8.2696133"><ele>248.8</ele><time>2026-03-29T15:21:49.01Z</time></trkpt><trkpt lat="45.0514717" lon="8.26948"><ele>250.6</ele><time>2026-03-29T15:21:50.007Z</time></trkpt><trkpt lat="45.0514267" lon="8.2693483"><ele>252.40000000000003</ele><time>2026-03-29T15:21:51.005Z</time></trkpt><trkpt lat="45.0513783" lon="8.26922"><ele>254.20000000000002</ele><time>2026-03-29T15:21:52.003Z</time></trkpt><trkpt lat="45.0513217" lon="8.2690983"><ele>256.0</ele><time>2026-03-29T15:21:53.008Z</time></trkpt><trkpt lat="45.0512567" lon="8.268985"><ele>258.40000000000003</ele><time>2026-03-29T15:21:54.003Z</time></trkpt><trkpt lat="45.0511883" lon="8.268875"><ele>260.8</ele><time>2026-03-29T15:21:55.006Z</time></trkpt><trkpt lat="45.0511133" lon="8.2687667"><ele>263.20000000000005</ele><time>2026-03-29T15:21:56.005Z</time></trkpt><trkpt lat="45.0510383" lon="8.2686617"><ele>265.6</ele><time>2026-03-29T15:21:57.013Z</time></trkpt><trkpt lat="45.0509567" lon="8.2685633"><ele>268.0</ele><time>2026-03-29T15:21:58.004Z</time></trkpt><trkpt lat="45.050875" lon="8.26846"><ele>268.0</ele><time>2026-03-29T15:21:59.007Z</time></trkpt><trkpt lat="45.0507983" lon="8.268355"><ele>268.0</ele><time>2026-03-29T15:22:00.006Z</time></trkpt><trkpt lat="45.0507167" lon="8.26826"><ele>268.0</ele><time>2026-03-29T15:22:01.004Z</time></trkpt><trkpt lat="45.050635" lon="8.2681733"><ele>268.0</ele><time>2026-03-29T15:22:02.009Z</time></trkpt><trkpt lat="45.050545" lon="8.2680967"><ele>268.0</ele><time>2026-03-29T15:22:03.007Z</time></trkpt><trkpt lat="45.0504517" lon="8.2680317"><ele>270.4</ele><time>2026-03-29T15:22:04.007Z</time></trkpt><trkpt lat="45.050355" lon="8.2679717"><ele>272.8</ele><time>2026-03-29T15:22:05.002Z</time></trkpt><trkpt lat="45.050255" lon="8.2679417"><ele>275.2</ele><time>2026-03-29T15:22:06.008Z</time></trkpt><trkpt lat="45.0501483" lon="8.2679383"><ele>277.6</ele><time>2026-03-29T15:22:07.004Z</time></trkpt><trkpt lat="45.0500383" lon="8.2679417"><ele>280.0</ele><time>2026-03-29T15:22:08.005Z</time></trkpt><trkpt lat="45.04993" lon="8.2679467"><ele>282.0</ele><time>2026-03-29T15:22:09.005Z</time></trkpt><trkpt lat="45.0498217" lon="8.267965"><ele>284.0</ele><time>2026-03-29T15:22:10.006Z</time></trkpt><trkpt lat="45.0497117" lon="8.2679867"><ele>286.0</ele><time>2026-03-29T15:22:11.005Z</time></trkpt><trkpt lat="45.0496" lon="8.2680033"><ele>288.0</ele><time>2026-03-29T15:22:12.004Z</time></trkpt><trkpt lat="45.0494783" lon="8.2680083"><ele>288.0</ele><time>2026-03-29T15:22:13.003Z</time></trkpt><trkpt lat="45.0493617" lon="8.26801"><ele>288.0</ele><time>2026-03-29T15:22:14.004Z</time></trkpt><trkpt lat="45.049255" lon="8.2680017"><ele>288.0</ele><time>2026-03-29T15:22:15.004Z</time></trkpt><trkpt lat="45.04915" lon="8.26798"><ele>288.0</ele><time>2026-03-29T15:22:16.002Z</time></trkpt><trkpt lat="45.0490517" lon="8.2679467"><ele>288.0</ele><time>2026-03-29T15:22:17.006Z</time></trkpt><trkpt lat="45.0489567" lon="8.2678933"><ele>291.2</ele><time>2026-03-29T15:22:18.006Z</time></trkpt><trkpt lat="45.0488567" lon="8.2678267"><ele>294.4</ele><time>2026-03-29T15:22:19.006Z</time></trkpt><trkpt lat="45.04876" lon="8.2677567"><ele>297.59999999999997</ele><time>2026-03-29T15:22:20.004Z</time></trkpt><trkpt lat="45.0486683" lon="8.2676833"><ele>300.8</ele><time>2026-03-29T15:22:21.005Z</time></trkpt><trkpt lat="45.04858" lon="8.2676017"><ele>304.0</ele><time>2026-03-29T15:22:22.003Z</time></trkpt><trkpt lat="45.04849" lon="8.26751"><ele>304.0</ele><time>2026-03-29T15:22:23.006Z</time></trkpt><trkpt lat="45.048385" lon="8.2674267"><ele>304.0</ele><time>2026-03-29T15:22:24.006Z</time></trkpt><trkpt lat="45.0482867" lon="8.2673417"><ele>304.0</ele><time>2026-03-29T15:22:25.005Z</time></trkpt><trkpt lat="45.04818" lon="8.2672717"><ele>304.0</ele><time>2026-03-29T15:22:26.007Z</time></trkpt><trkpt lat="45.0480817" lon="8.267215"><ele>298.8</ele><time>2026-03-29T15:22:27.004Z</time></trkpt><trkpt lat="45.047985" lon="8.2671667"><ele>293.59999999999997</ele><time>2026-03-29T15:22:28.003Z</time></trkpt><trkpt lat="45.0478983" lon="8.2670917"><ele>288.4</ele><time>2026-03-29T15:22:29.004Z</time></trkpt><trkpt lat="45.0478117" lon="8.2670067"><ele>283.2</ele><time>2026-03-29T15:22:30.003Z</time></trkpt><trkpt lat="45.0477217" lon="8.2669483"><ele>278.0</ele><time>2026-03-29T15:22:31.005Z</time></trkpt><trkpt lat="45.047635" lon="8.2668667"><ele>278.0</ele><time>2026-03-29T15:22:32.006Z</time></trkpt><trkpt lat="45.0475533" lon="8.2668433"><ele>278.0</ele><time>2026-03-29T15:22:33.004Z</time></trkpt><trkpt lat="45.04746" lon="8.26685"><ele>278.0</ele><time>2026-03-29T15:22:34.004Z</time></trkpt><trkpt lat="45.0473433" lon="8.2668033"><ele>278.0</ele><time>2026-03-29T15:22:35.006Z</time></trkpt><trkpt lat="45.0472533" lon="8.266785"><ele>278.0</ele><time>2026-03-29T15:22:36.005Z</time></trkpt><trkpt lat="45.0472167" lon="8.2669767"><ele>276.2</ele><time>2026-03-29T15:22:37.006Z</time></trkpt><trkpt lat="45.047135" lon="8.2670317"><ele>274.4</ele><time>2026-03-29T15:22:38.006Z</time></trkpt><trkpt lat="45.04707" lon="8.2671283"><ele>272.59999999999997</ele><time>2026-03-29T15:22:39.007Z</time></trkpt><trkpt lat="45.0469967" lon="8.2672117"><ele>270.8</ele><time>2026-03-29T15:22:40.006Z</time></trkpt><trkpt lat="45.0469233" lon="8.26731"><ele>269.0</ele><time>2026-03-29T15:22:41.005Z</time></trkpt><trkpt lat="45.0468417" lon="8.2673933"><ele>269.0</ele><time>2026-03-29T15:22:42.013Z</time></trkpt><trkpt lat="45.046765" lon="8.2674817"><ele>269.0</ele><time>2026-03-29T15:22:43.007Z</time></trkpt><trkpt lat="45.046685" lon="8.26756"><ele>269.0</ele><time>2026-03-29T15:22:44.008Z</time></trkpt><trkpt lat="45.0465917" lon="8.2676333"><ele>269.0</ele><time>2026-03-29T15:22:45.003Z</time></trkpt><trkpt lat="45.046505" lon="8.267715"><ele>269.0</ele><time>2026-03-29T15:22:46.009Z</time></trkpt><trkpt lat="45.0464217" lon="8.2678017"><ele>268.0</ele><time>2026-03-29T15:22:47.001Z</time></trkpt><trkpt lat="45.0463317" lon="8.2678767"><ele>267.0</ele><time>2026-03-29T15:22:48.003Z</time></trkpt><trkpt lat="45.046235" lon="8.267945"><ele>266.0</ele><time>2026-03-29T15:22:49.002Z</time></trkpt><trkpt lat="45.04615" lon="8.2680233"><ele>265.0</ele><time>2026-03-29T15:22:50.011Z</time></trkpt><trkpt lat="45.046055" lon="8.2681083"><ele>264.0</ele><time>2026-03-29T15:22:51.003Z</time></trkpt><trkpt lat="45.0459683" lon="8.2681883"><ele>264.0</ele><time>2026-03-29T15:22:52.002Z</time></trkpt><trkpt lat="45.0458917" lon="8.2682783"><ele>264.0</ele><time>2026-03-29T15:22:53.004Z</time></trkpt><trkpt lat="45.0458133" lon="8.2683683"><ele>264.0</ele><time>2026-03-29T15:22:54.007Z</time></trkpt><trkpt lat="45.045735" lon="8.2684567"><ele>264.0</ele><time>2026-03-29T15:22:55.004Z</time></trkpt><trkpt lat="45.045655" lon="8.2685483"><ele>264.0</ele><time>2026-03-29T15:22:56.005Z</time></trkpt><trkpt lat="45.0455733" lon="8.2686433"><ele>262.5</ele><time>2026-03-29T15:22:57.008Z</time></trkpt><trkpt lat="45.0454817" lon="8.2687417"><ele>261.0</ele><time>2026-03-29T15:22:58.004Z</time></trkpt><trkpt lat="45.04539" lon="8.2688417"><ele>259.5</ele><time>2026-03-29T15:22:59.004Z</time></trkpt><trkpt lat="45.045305" lon="8.2689517"><ele>258.0</ele><time>2026-03-29T15:23:00.007Z</time></trkpt><trkpt lat="45.0452117" lon="8.269055"><ele>258.0</ele><time>2026-03-29T15:23:01.005Z</time></trkpt><trkpt lat="45.04512" lon="8.269155"><ele>258.0</ele><time>2026-03-29T15:23:02.007Z</time></trkpt><trkpt lat="45.0450217" lon="8.269245"><ele>258.0</ele><time>2026-03-29T15:23:03.006Z</time></trkpt><trkpt lat="45.0449233" lon="8.2693333"><ele>258.0</ele><time>2026-03-29T15:23:04.004Z</time></trkpt><trkpt lat="45.0448317" lon="8.2694383"><ele>256.5</ele><time>2026-03-29T15:23:05.003Z</time></trkpt><trkpt lat="45.0447283" lon="8.269545"><ele>255.0</ele><time>2026-03-29T15:23:06.011Z</time></trkpt><trkpt lat="45.04462" lon="8.269655"><ele>253.5</ele><time>2026-03-29T15:23:07.004Z</time></trkpt><trkpt lat="45.0445117" lon="8.26976"><ele>252.0</ele><time>2026-03-29T15:23:08.008Z</time></trkpt><trkpt lat="45.0443933" lon="8.2698583"><ele>252.0</ele><time>2026-03-29T15:23:09.004Z</time></trkpt><trkpt lat="45.0442667" lon="8.2699567"><ele>252.0</ele><time>2026-03-29T15:23:10.008Z</time></trkpt><trkpt lat="45.044135" lon="8.2700467"><ele>252.0</ele><time>2026-03-29T15:23:11.007Z</time></trkpt><trkpt lat="45.0439967" lon="8.2701183"><ele>252.0</ele><time>2026-03-29T15:23:12.004Z</time></trkpt><trkpt lat="45.04386" lon="8.27018"><ele>249.25</ele><time>2026-03-29T15:23:13.003Z</time></trkpt><trkpt lat="45.0437283" lon="8.2702367"><ele>246.5</ele><time>2026-03-29T15:23:14.005Z</time></trkpt><trkpt lat="45.0435817" lon="8.27027"><ele>243.75</ele><time>2026-03-29T15:23:15.005Z</time></trkpt><trkpt lat="45.04343" lon="8.27029"><ele>241.0</ele><time>2026-03-29T15:23:16.004Z</time></trkpt><trkpt lat="45.0432767" lon="8.270285"><ele>238.33333333333331</ele><time>2026-03-29T15:23:17.004Z</time></trkpt><trkpt lat="45.043115" lon="8.2702683"><ele>235.66666666666669</ele><time>2026-03-29T15:23:18.005Z</time></trkpt><trkpt lat="45.0429483" lon="8.2702383"><ele>233.0</ele><time>2026-03-29T15:23:19.004Z</time></trkpt><trkpt lat="45.042785" lon="8.270185"><ele>233.0</ele><time>2026-03-29T15:23:20.005Z</time></trkpt><trkpt lat="45.0426233" lon="8.27014"><ele>233.0</ele><time>2026-03-29T15:23:21.006Z</time></trkpt><trkpt lat="45.0424617" lon="8.2700833"><ele>233.0</ele><time>2026-03-29T15:23:22.007Z</time></trkpt><trkpt lat="45.042295" lon="8.2700167"><ele>232.33333333333334</ele><time>2026-03-29T15:23:23.004Z</time></trkpt><trkpt lat="45.04213" lon="8.2699417"><ele>231.66666666666669</ele><time>2026-03-29T15:23:24.004Z</time></trkpt><trkpt lat="45.0419633" lon="8.2698667"><ele>231.0</ele><time>2026-03-29T15:23:25.006Z</time></trkpt><trkpt lat="45.0418" lon="8.269795"><ele>230.33333333333331</ele><time>2026-03-29T15:23:26.007Z</time></trkpt><trkpt lat="45.0416417" lon="8.2697233"><ele>229.66666666666666</ele><time>2026-03-29T15:23:27.005Z</time></trkpt><trkpt lat="45.0414817" lon="8.2696467"><ele>229.0</ele><time>2026-03-29T15:23:28.008Z</time></trkpt><trkpt lat="45.0413183" lon="8.2695733"><ele>229.0</ele><time>2026-03-29T15:23:29.002Z</time></trkpt><trkpt lat="45.041155" lon="8.2695"><ele>229.0</ele><time>2026-03-29T15:23:30.004Z</time></trkpt><trkpt lat="45.040995" lon="8.269425"><ele>229.0</ele><time>2026-03-29T15:23:31Z</time></trkpt><trkpt lat="45.0408333" lon="8.2693483"><ele>229.66666666666666</ele><time>2026-03-29T15:23:32.003Z</time></trkpt><trkpt lat="45.04067" lon="8.269275"><ele>230.33333333333331</ele><time>2026-03-29T15:23:33.005Z</time></trkpt><trkpt lat="45.0405017" lon="8.2691983"><ele>231.0</ele><time>2026-03-29T15:23:34.004Z</time></trkpt><trkpt lat="45.0403317" lon="8.26912"><ele>231.0</ele><time>2026-03-29T15:23:35.001Z</time></trkpt><trkpt lat="45.0401633" lon="8.2690417"><ele>231.0</ele><time>2026-03-29T15:23:36.006Z</time></trkpt><trkpt lat="45.0399933" lon="8.2689617"><ele>231.0</ele><time>2026-03-29T15:23:37.005Z</time></trkpt><trkpt lat="45.0398217" lon="8.2688817"><ele>229.0</ele><time>2026-03-29T15:23:38.002Z</time></trkpt><trkpt lat="45.039655" lon="8.2688033"><ele>227.0</ele><time>2026-03-29T15:23:39.005Z</time></trkpt><trkpt lat="45.0394883" lon="8.2687217"><ele>225.0</ele><time>2026-03-29T15:23:40.002Z</time></trkpt><trkpt lat="45.0393233" lon="8.2686417"><ele>225.0</ele><time>2026-03-29T15:23:41.005Z</time></trkpt><trkpt lat="45.0391617" lon="8.2685583"><ele>225.0</ele><time>2026-03-29T15:23:42.003Z</time></trkpt><trkpt lat="45.0389983" lon="8.26848"><ele>225.0</ele><time>2026-03-29T15:23:43.007Z</time></trkpt><trkpt lat="45.0388283" lon="8.2684"><ele>226.0</ele><time>2026-03-29T15:23:44.001Z</time></trkpt><trkpt lat="45.038665" lon="8.2683267"><ele>227.0</ele><time>2026-03-29T15:23:45.005Z</time></trkpt><trkpt lat="45.0384933" lon="8.2682483"><ele>228.0</ele><time>2026-03-29T15:23:46.002Z</time></trkpt><trkpt lat="45.0383183" lon="8.2681717"><ele>225.66666666666669</ele><time>2026-03-29T15:23:47.002Z</time></trkpt><trkpt lat="45.0381417" lon="8.2680917"><ele>223.33333333333334</ele><time>2026-03-29T15:23:48.007Z</time></trkpt><trkpt lat="45.0379683" lon="8.2680133"><ele>221.0</ele><time>2026-03-29T15:23:49.005Z</time></trkpt><trkpt lat="45.0377883" lon="8.2679317"><ele>221.0</ele><time>2026-03-29T15:23:50.006Z</time></trkpt><trkpt lat="45.0376083" lon="8.2678533"><ele>221.0</ele><time>2026-03-29T15:23:51.009Z</time></trkpt><trkpt lat="45.0374283" lon="8.2677717"><ele>221.0</ele><time>2026-03-29T15:23:52.006Z</time></trkpt><trkpt lat="45.0372517" lon="8.26769"><ele>221.0</ele><time>2026-03-29T15:23:53.011Z</time></trkpt><trkpt lat="45.0370817" lon="8.26761"><ele>221.0</ele><time>2026-03-29T15:23:54.006Z</time></trkpt><trkpt lat="45.036915" lon="8.2675283"><ele>221.0</ele><time>2026-03-29T15:23:55.008Z</time></trkpt><trkpt lat="45.0367483" lon="8.2674467"><ele>221.33333333333334</ele><time>2026-03-29T15:23:56.004Z</time></trkpt><trkpt lat="45.0365817" lon="8.2673683"><ele>221.66666666666669</ele><time>2026-03-29T15:23:57.009Z</time></trkpt><trkpt lat="45.036415" lon="8.2672967"><ele>222.0</ele><time>2026-03-29T15:23:58.005Z</time></trkpt><trkpt lat="45.036245" lon="8.26722"><ele>221.0</ele><time>2026-03-29T15:23:59.003Z</time></trkpt><trkpt lat="45.036075" lon="8.267145"><ele>220.0</ele><time>2026-03-29T15:24:00.009Z</time></trkpt><trkpt lat="45.035905" lon="8.2670667"><ele>219.0</ele><time>2026-03-29T15:24:01.005Z</time></trkpt><trkpt lat="45.03573" lon="8.2669883"><ele>218.33333333333331</ele><time>2026-03-29T15:24:02.003Z</time></trkpt><trkpt lat="45.0355517" lon="8.266905"><ele>217.66666666666666</ele><time>2026-03-29T15:24:03.003Z</time></trkpt><trkpt lat="45.0353767" lon="8.2668183"><ele>217.0</ele><time>2026-03-29T15:24:04.004Z</time></trkpt><trkpt lat="45.0352033" lon="8.2667317"><ele>217.0</ele><time>2026-03-29T15:24:05.007Z</time></trkpt><trkpt lat="45.035025" lon="8.2666483"><ele>217.0</ele><time>2026-03-29T15:24:06.005Z</time></trkpt><trkpt lat="45.034845" lon="8.2665617"><ele>217.0</ele><time>2026-03-29T15:24:07.003Z</time></trkpt><trkpt lat="45.0346783" lon="8.2664817"><ele>218.66666666666666</ele><time>2026-03-29T15:24:08.003Z</time></trkpt><trkpt lat="45.0345017" lon="8.2664033"><ele>220.33333333333331</ele><time>2026-03-29T15:24:09.007Z</time></trkpt><trkpt lat="45.034325" lon="8.2663183"><ele>222.0</ele><time>2026-03-29T15:24:10.008Z</time></trkpt><trkpt lat="45.0341467" lon="8.2662367"><ele>220.33333333333331</ele><time>2026-03-29T15:24:11.003Z</time></trkpt><trkpt lat="45.0339683" lon="8.2661517"><ele>218.66666666666666</ele><time>2026-03-29T15:24:12.005Z</time></trkpt><trkpt lat="45.03379" lon="8.26607"><ele>217.0</ele><time>2026-03-29T15:24:13.005Z</time></trkpt><trkpt lat="45.0336117" lon="8.2659867"><ele>217.0</ele><time>2026-03-29T15:24:14.002Z</time></trkpt><trkpt lat="45.0334367" lon="8.2659067"><ele>217.0</ele><time>2026-03-29T15:24:15.007Z</time></trkpt><trkpt lat="45.0332583" lon="8.2658233"><ele>217.0</ele><time>2026-03-29T15:24:16.004Z</time></trkpt><trkpt lat="45.0330817" lon="8.265735"><ele>216.33333333333331</ele><time>2026-03-29T15:24:17.006Z</time></trkpt><trkpt lat="45.0329017" lon="8.2656483"><ele>215.66666666666669</ele><time>2026-03-29T15:24:18.001Z</time></trkpt><trkpt lat="45.0327233" lon="8.2655617"><ele>215.0</ele><time>2026-03-29T15:24:19.01Z</time></trkpt><trkpt lat="45.0325533" lon="8.2654817"><ele>216.0</ele><time>2026-03-29T15:24:20.007Z</time></trkpt><trkpt lat="45.03238" lon="8.2654"><ele>217.0</ele><time>2026-03-29T15:24:21.003Z</time></trkpt><trkpt lat="45.0322083" lon="8.2653183"><ele>218.0</ele><time>2026-03-29T15:24:22.004Z</time></trkpt><trkpt lat="45.0320417" lon="8.2652267"><ele>218.0</ele><time>2026-03-29T15:24:23.003Z</time></trkpt><trkpt lat="45.0318767" lon="8.265125"><ele>218.0</ele><time>2026-03-29T15:24:24.004Z</time></trkpt><trkpt lat="45.031715" lon="8.26501"><ele>218.0</ele><time>2026-03-29T15:24:25.004Z</time></trkpt><trkpt lat="45.031555" lon="8.2648683"><ele>216.33333333333334</ele><time>2026-03-29T15:24:26.005Z</time></trkpt><trkpt lat="45.0314067" lon="8.264715"><ele>214.66666666666669</ele><time>2026-03-29T15:24:27.004Z</time></trkpt><trkpt lat="45.0312667" lon="8.2645417"><ele>213.0</ele><time>2026-03-29T15:24:28Z</time></trkpt><trkpt lat="45.0311383" lon="8.2643617"><ele>213.0</ele><time>2026-03-29T15:24:29.008Z</time></trkpt><trkpt lat="45.0310183" lon="8.264165"><ele>213.0</ele><time>2026-03-29T15:24:30Z</time></trkpt><trkpt lat="45.0309" lon="8.26396"><ele>213.0</ele><time>2026-03-29T15:24:31.002Z</time></trkpt><trkpt lat="45.0307783" lon="8.2637467"><ele>212.0</ele><time>2026-03-29T15:24:32.004Z</time></trkpt><trkpt lat="45.0306567" lon="8.263535"><ele>211.0</ele><time>2026-03-29T15:24:33.008Z</time></trkpt><trkpt lat="45.0305417" lon="8.2633217"><ele>210.0</ele><time>2026-03-29T15:24:34.008Z</time></trkpt><trkpt lat="45.03043" lon="8.26311"><ele>210.0</ele><time>2026-03-29T15:24:35Z</time></trkpt><trkpt lat="45.0303167" lon="8.26291"><ele>210.0</ele><time>2026-03-29T15:24:36.003Z</time></trkpt><trkpt lat="45.03021" lon="8.26272"><ele>210.0</ele><time>2026-03-29T15:24:37.004Z</time></trkpt><trkpt lat="45.030105" lon="8.2625267"><ele>210.0</ele><time>2026-03-29T15:24:38.003Z</time></trkpt><trkpt lat="45.03" lon="8.2623317"><ele>210.0</ele><time>2026-03-29T15:24:39.008Z</time></trkpt><trkpt lat="45.0298933" lon="8.2621283"><ele>210.0</ele><time>2026-03-29T15:24:40.009Z</time></trkpt><trkpt lat="45.0297833" lon="8.2619267"><ele>210.0</ele><time>2026-03-29T15:24:41.006Z</time></trkpt><trkpt lat="45.029675" lon="8.261725"><ele>210.0</ele><time>2026-03-29T15:24:42.006Z</time></trkpt><trkpt lat="45.0295633" lon="8.26152"><ele>210.0</ele><time>2026-03-29T15:24:43.007Z</time></trkpt><trkpt lat="45.0294567" lon="8.261315"><ele>209.66666666666669</ele><time>2026-03-29T15:24:44.001Z</time></trkpt><trkpt lat="45.0293383" lon="8.2611067"><ele>209.33333333333334</ele><time>2026-03-29T15:24:45.002Z</time></trkpt><trkpt lat="45.0292267" lon="8.2608983"><ele>209.0</ele><time>2026-03-29T15:24:46.004Z</time></trkpt><trkpt lat="45.029115" lon="8.26069"><ele>208.66666666666669</ele><time>2026-03-29T15:24:47.003Z</time></trkpt><trkpt lat="45.029005" lon="8.260485"><ele>208.33333333333331</ele><time>2026-03-29T15:24:48.004Z</time></trkpt><trkpt lat="45.0288883" lon="8.2602833"><ele>208.0</ele><time>2026-03-29T15:24:49.006Z</time></trkpt><trkpt lat="45.0287733" lon="8.2600783"><ele>208.0</ele><time>2026-03-29T15:24:50.001Z</time></trkpt><trkpt lat="45.02866" lon="8.2598733"><ele>208.0</ele><time>2026-03-29T15:24:51.006Z</time></trkpt><trkpt lat="45.028555" lon="8.2596783"><ele>208.0</ele><time>2026-03-29T15:24:52.002Z</time></trkpt><trkpt lat="45.0284467" lon="8.2594867"><ele>208.0</ele><time>2026-03-29T15:24:53.005Z</time></trkpt><trkpt lat="45.0283417" lon="8.259295"><ele>208.0</ele><time>2026-03-29T15:24:54.008Z</time></trkpt><trkpt lat="45.0282367" lon="8.259105"><ele>208.0</ele><time>2026-03-29T15:24:55.002Z</time></trkpt><trkpt lat="45.02813" lon="8.258915"><ele>207.66666666666666</ele><time>2026-03-29T15:24:56.004Z</time></trkpt><trkpt lat="45.0280233" lon="8.2587233"><ele>207.33333333333331</ele><time>2026-03-29T15:24:57.008Z</time></trkpt><trkpt lat="45.02792" lon="8.2585317"><ele>207.0</ele><time>2026-03-29T15:24:58.001Z</time></trkpt><trkpt lat="45.0278183" lon="8.2583383"><ele>207.0</ele><time>2026-03-29T15:24:59.002Z</time></trkpt><trkpt lat="45.027715" lon="8.2581517"><ele>207.0</ele><time>2026-03-29T15:25:00.006Z</time></trkpt><trkpt lat="45.0276033" lon="8.257965"><ele>207.0</ele><time>2026-03-29T15:25:01.002Z</time></trkpt><trkpt lat="45.0274867" lon="8.257785"><ele>207.0</ele><time>2026-03-29T15:25:02.011Z</time></trkpt><trkpt lat="45.0273633" lon="8.257615"><ele>207.0</ele><time>2026-03-29T15:25:03.006Z</time></trkpt><trkpt lat="45.0272367" lon="8.2574533"><ele>207.0</ele><time>2026-03-29T15:25:04.004Z</time></trkpt><trkpt lat="45.0271017" lon="8.2573067"><ele>209.33333333333331</ele><time>2026-03-29T15:25:05.006Z</time></trkpt><trkpt lat="45.0269633" lon="8.2571817"><ele>211.66666666666666</ele><time>2026-03-29T15:25:06.004Z</time></trkpt><trkpt lat="45.026815" lon="8.2570733"><ele>214.0</ele><time>2026-03-29T15:25:07.002Z</time></trkpt><trkpt lat="45.02666" lon="8.2569817"><ele>214.0</ele><time>2026-03-29T15:25:08.004Z</time></trkpt><trkpt lat="45.0264983" lon="8.256905"><ele>214.0</ele><time>2026-03-29T15:25:09.003Z</time></trkpt><trkpt lat="45.0263283" lon="8.25685"><ele>214.0</ele><time>2026-03-29T15:25:10.006Z</time></trkpt><trkpt lat="45.0261567" lon="8.2568167"><ele>214.0</ele><time>2026-03-29T15:25:11.006Z</time></trkpt><trkpt lat="45.0259783" lon="8.2568"><ele>214.0</ele><time>2026-03-29T15:25:12.004Z</time></trkpt><trkpt lat="45.025805" lon="8.2567833"><ele>214.0</ele><time>2026-03-29T15:25:13.013Z</time></trkpt><trkpt lat="45.0256317" lon="8.2567783"><ele>215.0</ele><time>2026-03-29T15:25:14.004Z</time></trkpt><trkpt lat="45.0254567" lon="8.2567567"><ele>216.0</ele><time>2026-03-29T15:25:15.005Z</time></trkpt><trkpt lat="45.02528" lon="8.2567483"><ele>217.0</ele><time>2026-03-29T15:25:16.007Z</time></trkpt><trkpt lat="45.0251017" lon="8.2567417"><ele>217.33333333333331</ele><time>2026-03-29T15:25:17.009Z</time></trkpt><trkpt lat="45.0249267" lon="8.25673"><ele>217.66666666666669</ele><time>2026-03-29T15:25:18.003Z</time></trkpt><trkpt lat="45.0247533" lon="8.25672"><ele>218.0</ele><time>2026-03-29T15:25:19.002Z</time></trkpt><trkpt lat="45.0245767" lon="8.2567117"><ele>218.0</ele><time>2026-03-29T15:25:20.005Z</time></trkpt><trkpt lat="45.0244" lon="8.25671"><ele>218.0</ele><time>2026-03-29T15:25:21.012Z</time></trkpt><trkpt lat="45.0242233" lon="8.2567083"><ele>218.0</ele><time>2026-03-29T15:25:22.01Z</time></trkpt><trkpt lat="45.0240383" lon="8.2567067"><ele>218.66666666666669</ele><time>2026-03-29T15:25:23.007Z</time></trkpt><trkpt lat="45.0238317" lon="8.2567033"><ele>219.33333333333331</ele><time>2026-03-29T15:25:24.006Z</time></trkpt><trkpt lat="45.0236217" lon="8.2567183"><ele>220.0</ele><time>2026-03-29T15:25:25.008Z</time></trkpt><trkpt lat="45.0234167" lon="8.2567017"><ele>219.66666666666666</ele><time>2026-03-29T15:25:26.008Z</time></trkpt><trkpt lat="45.0232217" lon="8.256695"><ele>219.33333333333331</ele><time>2026-03-29T15:25:27.008Z</time></trkpt><trkpt lat="45.0230233" lon="8.2566967"><ele>219.0</ele><time>2026-03-29T15:25:28.01Z</time></trkpt><trkpt lat="45.0228367" lon="8.256685"><ele>219.0</ele><time>2026-03-29T15:25:29.005Z</time></trkpt><trkpt lat="45.0226533" lon="8.25668"><ele>219.0</ele><time>2026-03-29T15:25:30.007Z</time></trkpt><trkpt lat="45.0224717" lon="8.2566783"><ele>219.0</ele><time>2026-03-29T15:25:31.003Z</time></trkpt><trkpt lat="45.02229" lon="8.2566867"><ele>218.66666666666669</ele><time>2026-03-29T15:25:32.004Z</time></trkpt><trkpt lat="45.022105" lon="8.2567117"><ele>218.33333333333334</ele><time>2026-03-29T15:25:33.006Z</time></trkpt><trkpt lat="45.0219233" lon="8.2567533"><ele>218.0</ele><time>2026-03-29T15:25:34.004Z</time></trkpt><trkpt lat="45.0217417" lon="8.2568117"><ele>219.0</ele><time>2026-03-29T15:25:35.003Z</time></trkpt><trkpt lat="45.0215583" lon="8.2568817"><ele>220.0</ele><time>2026-03-29T15:25:36.007Z</time></trkpt><trkpt lat="45.02138" lon="8.256965"><ele>221.0</ele><time>2026-03-29T15:25:37.005Z</time></trkpt><trkpt lat="45.0211983" lon="8.2570583"><ele>221.0</ele><time>2026-03-29T15:25:38.005Z</time></trkpt><trkpt lat="45.0210217" lon="8.257165"><ele>221.0</ele><time>2026-03-29T15:25:39.002Z</time></trkpt><trkpt lat="45.0208433" lon="8.2572717"><ele>221.0</ele><time>2026-03-29T15:25:40.008Z</time></trkpt><trkpt lat="45.0206717" lon="8.2573767"><ele>222.66666666666669</ele><time>2026-03-29T15:25:41.003Z</time></trkpt><trkpt lat="45.0205033" lon="8.2574767"><ele>224.33333333333331</ele><time>2026-03-29T15:25:42.004Z</time></trkpt><trkpt lat="45.0203383" lon="8.257575"><ele>226.0</ele><time>2026-03-29T15:25:43.01Z</time></trkpt><trkpt lat="45.0201683" lon="8.2576667"><ele>226.0</ele><time>2026-03-29T15:25:44.005Z</time></trkpt><trkpt lat="45.02" lon="8.257765"><ele>226.0</ele><time>2026-03-29T15:25:45.004Z</time></trkpt><trkpt lat="45.0198333" lon="8.2578617"><ele>226.0</ele><time>2026-03-29T15:25:46.01Z</time></trkpt><trkpt lat="45.0196733" lon="8.2579583"><ele>227.0</ele><time>2026-03-29T15:25:47.008Z</time></trkpt><trkpt lat="45.0195233" lon="8.2580483"><ele>228.0</ele><time>2026-03-29T15:25:48.007Z</time></trkpt><trkpt lat="45.01938" lon="8.2581267"><ele>229.0</ele><time>2026-03-29T15:25:49.008Z</time></trkpt><trkpt lat="45.01924" lon="8.2581817"><ele>229.0</ele><time>2026-03-29T15:25:50.003Z</time></trkpt><trkpt lat="45.019095" lon="8.25821"><ele>229.0</ele><time>2026-03-29T15:25:51.009Z</time></trkpt><trkpt lat="45.0189433" lon="8.2582083"><ele>229.0</ele><time>2026-03-29T15:25:52.001Z</time></trkpt><trkpt lat="45.0187867" lon="8.25818"><ele>229.0</ele><time>2026-03-29T15:25:53.008Z</time></trkpt><trkpt lat="45.0186383" lon="8.2581183"><ele>229.0</ele><time>2026-03-29T15:25:54.003Z</time></trkpt><trkpt lat="45.0184883" lon="8.2580333"><ele>229.0</ele><time>2026-03-29T15:25:55.004Z</time></trkpt><trkpt lat="45.0183467" lon="8.2579267"><ele>227.0</ele><time>2026-03-29T15:25:56.002Z</time></trkpt><trkpt lat="45.0182167" lon="8.257795"><ele>225.0</ele><time>2026-03-29T15:25:57.006Z</time></trkpt><trkpt lat="45.01809" lon="8.25765"><ele>223.0</ele><time>2026-03-29T15:25:58.004Z</time></trkpt><trkpt lat="45.0179767" lon="8.25747"><ele>225.66666666666666</ele><time>2026-03-29T15:25:59.004Z</time></trkpt><trkpt lat="45.01787" lon="8.2572717"><ele>228.33333333333331</ele><time>2026-03-29T15:26:00.007Z</time></trkpt><trkpt lat="45.0177717" lon="8.25708"><ele>231.0</ele><time>2026-03-29T15:26:01.007Z</time></trkpt><trkpt lat="45.0176733" lon="8.2568867"><ele>231.0</ele><time>2026-03-29T15:26:02.003Z</time></trkpt><trkpt lat="45.0175767" lon="8.256695"><ele>231.0</ele><time>2026-03-29T15:26:03.005Z</time></trkpt><trkpt lat="45.0174767" lon="8.2565033"><ele>231.0</ele><time>2026-03-29T15:26:04.002Z</time></trkpt><trkpt lat="45.0173833" lon="8.2563083"><ele>229.33333333333331</ele><time>2026-03-29T15:26:05.012Z</time></trkpt><trkpt lat="45.0172933" lon="8.2561117"><ele>227.66666666666666</ele><time>2026-03-29T15:26:06.003Z</time></trkpt><trkpt lat="45.0172067" lon="8.2559233"><ele>226.0</ele><time>2026-03-29T15:26:07.003Z</time></trkpt><trkpt lat="45.0171183" lon="8.2557467"><ele>227.5</ele><time>2026-03-29T15:26:08.006Z</time></trkpt><trkpt lat="45.01703" lon="8.25557"><ele>229.0</ele><time>2026-03-29T15:26:09.006Z</time></trkpt><trkpt lat="45.01695" lon="8.2553983"><ele>230.5</ele><time>2026-03-29T15:26:10.007Z</time></trkpt><trkpt lat="45.0168717" lon="8.2552383"><ele>232.0</ele><time>2026-03-29T15:26:11.002Z</time></trkpt><trkpt lat="45.0167917" lon="8.25508"><ele>232.0</ele><time>2026-03-29T15:26:12.005Z</time></trkpt><trkpt lat="45.0166967" lon="8.25493"><ele>232.0</ele><time>2026-03-29T15:26:13.003Z</time></trkpt><trkpt lat="45.0165917" lon="8.2547883"><ele>232.0</ele><time>2026-03-29T15:26:14.005Z</time></trkpt><trkpt lat="45.01647" lon="8.25466"><ele>232.0</ele><time>2026-03-29T15:26:15.004Z</time></trkpt><trkpt lat="45.01634" lon="8.2545467"><ele>232.66666666666666</ele><time>2026-03-29T15:26:16.005Z</time></trkpt><trkpt lat="45.0162033" lon="8.2544433"><ele>233.33333333333331</ele><time>2026-03-29T15:26:17.005Z</time></trkpt><trkpt lat="45.0160617" lon="8.25436"><ele>234.0</ele><time>2026-03-29T15:26:18.006Z</time></trkpt><trkpt lat="45.0159083" lon="8.2543"><ele>233.33333333333331</ele><time>2026-03-29T15:26:19.003Z</time></trkpt><trkpt lat="45.0157533" lon="8.254265"><ele>232.66666666666666</ele><time>2026-03-29T15:26:20.009Z</time></trkpt><trkpt lat="45.0155933" lon="8.2542517"><ele>232.0</ele><time>2026-03-29T15:26:21.005Z</time></trkpt><trkpt lat="45.0154383" lon="8.2542567"><ele>232.0</ele><time>2026-03-29T15:26:22.005Z</time></trkpt><trkpt lat="45.015285" lon="8.2542633"><ele>232.0</ele><time>2026-03-29T15:26:23.004Z</time></trkpt><trkpt lat="45.0151333" lon="8.2542783"><ele>232.0</ele><time>2026-03-29T15:26:24.009Z</time></trkpt><trkpt lat="45.0149867" lon="8.2542883"><ele>233.75</ele><time>2026-03-29T15:26:25.005Z</time></trkpt><trkpt lat="45.0148383" lon="8.2542967"><ele>235.5</ele><time>2026-03-29T15:26:26.003Z</time></trkpt><trkpt lat="45.0146933" lon="8.2543017"><ele>237.25</ele><time>2026-03-29T15:26:27.013Z</time></trkpt><trkpt lat="45.014545" lon="8.254315"><ele>239.0</ele><time>2026-03-29T15:26:28.008Z</time></trkpt><trkpt lat="45.014395" lon="8.2543417"><ele>239.0</ele><time>2026-03-29T15:26:29.004Z</time></trkpt><trkpt lat="45.0142433" lon="8.254365"><ele>239.0</ele><time>2026-03-29T15:26:30.009Z</time></trkpt><trkpt lat="45.0140867" lon="8.2543783"><ele>239.0</ele><time>2026-03-29T15:26:31.004Z</time></trkpt><trkpt lat="45.013925" lon="8.2543967"><ele>240.0</ele><time>2026-03-29T15:26:32.008Z</time></trkpt><trkpt lat="45.0137617" lon="8.2544133"><ele>241.0</ele><time>2026-03-29T15:26:33.005Z</time></trkpt><trkpt lat="45.0135967" lon="8.25443"><ele>242.0</ele><time>2026-03-29T15:26:34.006Z</time></trkpt><trkpt lat="45.0134417" lon="8.2544517"><ele>243.5</ele><time>2026-03-29T15:26:35.007Z</time></trkpt><trkpt lat="45.0132967" lon="8.2544733"><ele>245.0</ele><time>2026-03-29T15:26:36.002Z</time></trkpt><trkpt lat="45.0131633" lon="8.25449"><ele>246.5</ele><time>2026-03-29T15:26:37.002Z</time></trkpt><trkpt lat="45.0130317" lon="8.2545067"><ele>248.0</ele><time>2026-03-29T15:26:38.001Z</time></trkpt><trkpt lat="45.0129017" lon="8.2545317"><ele>248.0</ele><time>2026-03-29T15:26:39.003Z</time></trkpt><trkpt lat="45.0127783" lon="8.254565"><ele>248.0</ele><time>2026-03-29T15:26:40.002Z</time></trkpt><trkpt lat="45.0126617" lon="8.254615"><ele>248.0</ele><time>2026-03-29T15:26:41.011Z</time></trkpt><trkpt lat="45.0125567" lon="8.2546683"><ele>248.0</ele><time>2026-03-29T15:26:42.003Z</time></trkpt><trkpt lat="45.0124583" lon="8.2547267"><ele>250.0</ele><time>2026-03-29T15:26:43.005Z</time></trkpt><trkpt lat="45.0123583" lon="8.254785"><ele>252.0</ele><time>2026-03-29T15:26:44.004Z</time></trkpt><trkpt lat="45.0122633" lon="8.2548467"><ele>254.0</ele><time>2026-03-29T15:26:45.005Z</time></trkpt><trkpt lat="45.0121717" lon="8.254905"><ele>256.0</ele><time>2026-03-29T15:26:46.001Z</time></trkpt><trkpt lat="45.0120883" lon="8.2549633"><ele>258.0</ele><time>2026-03-29T15:26:47.005Z</time></trkpt><trkpt lat="45.0120117" lon="8.2550233"><ele>258.0</ele><time>2026-03-29T15:26:48.005Z</time></trkpt><trkpt lat="45.0119367" lon="8.25508"><ele>258.0</ele><time>2026-03-29T15:26:49.006Z</time></trkpt><trkpt lat="45.01186" lon="8.255135"><ele>258.0</ele><time>2026-03-29T15:26:50.007Z</time></trkpt><trkpt lat="45.01178" lon="8.2551867"><ele>258.0</ele><time>2026-03-29T15:26:51.004Z</time></trkpt><trkpt lat="45.0117" lon="8.25524"><ele>258.0</ele><time>2026-03-29T15:26:52.006Z</time></trkpt><trkpt lat="45.011615" lon="8.2552883"><ele>258.0</ele><time>2026-03-29T15:26:53.003Z</time></trkpt><trkpt lat="45.0115283" lon="8.2553317"><ele>258.6</ele><time>2026-03-29T15:26:54.009Z</time></trkpt><trkpt lat="45.0114417" lon="8.255385"><ele>259.20000000000005</ele><time>2026-03-29T15:26:55.004Z</time></trkpt><trkpt lat="45.0113433" lon="8.2554433"><ele>259.8</ele><time>2026-03-29T15:26:56.002Z</time></trkpt><trkpt lat="45.0112483" lon="8.2555017"><ele>260.40000000000003</ele><time>2026-03-29T15:26:57.008Z</time></trkpt><trkpt lat="45.01115" lon="8.2555533"><ele>261.0</ele><time>2026-03-29T15:26:58.002Z</time></trkpt><trkpt lat="45.01105" lon="8.2556033"><ele>259.0</ele><time>2026-03-29T15:26:59.009Z</time></trkpt><trkpt lat="45.0109483" lon="8.2556367"><ele>257.0</ele><time>2026-03-29T15:27:00.012Z</time></trkpt><trkpt lat="45.010835" lon="8.2556583"><ele>255.00000000000003</ele><time>2026-03-29T15:27:01.004Z</time></trkpt><trkpt lat="45.01072" lon="8.2556717"><ele>253.0</ele><time>2026-03-29T15:27:02.005Z</time></trkpt><trkpt lat="45.0106183" lon="8.2556817"><ele>251.0</ele><time>2026-03-29T15:27:03.002Z</time></trkpt><trkpt lat="45.01052" lon="8.25569"><ele>251.0</ele><time>2026-03-29T15:27:04.002Z</time></trkpt><trkpt lat="45.01042" lon="8.2557"><ele>251.00000000000003</ele><time>2026-03-29T15:27:05.002Z</time></trkpt><trkpt lat="45.0103233" lon="8.2557117"><ele>251.00000000000003</ele><time>2026-03-29T15:27:06.003Z</time></trkpt><trkpt lat="45.0102283" lon="8.2557217"><ele>251.0</ele><time>2026-03-29T15:27:07.005Z</time></trkpt><trkpt lat="45.0101383" lon="8.2557333"><ele>251.0</ele><time>2026-03-29T15:27:08.001Z</time></trkpt><trkpt lat="45.0100567" lon="8.2557467"><ele>251.00000000000003</ele><time>2026-03-29T15:27:09.006Z</time></trkpt><trkpt lat="45.009975" lon="8.2557517"><ele>251.0</ele><time>2026-03-29T15:27:10.004Z</time></trkpt><trkpt lat="45.0098967" lon="8.255765"><ele>251.0</ele><time>2026-03-29T15:27:11.007Z</time></trkpt><trkpt lat="45.0098283" lon="8.2557717"><ele>251.0</ele><time>2026-03-29T15:27:12.005Z</time></trkpt><trkpt lat="45.009725" lon="8.255785"><ele>251.00000000000003</ele><time>2026-03-29T15:27:14.007Z</time></trkpt><trkpt lat="45.0096617" lon="8.2557867"><ele>251.0</ele><time>2026-03-29T15:27:16.003Z</time></trkpt><trkpt lat="45.009515" lon="8.2558233"><ele>251.00000000000003</ele><time>2026-03-29T15:27:18.005Z</time></trkpt><trkpt lat="45.0094233" lon="8.2558383"><ele>251.0</ele><time>2026-03-29T15:27:19.002Z</time></trkpt><trkpt lat="45.0093333" lon="8.25585"><ele>251.0</ele><time>2026-03-29T15:27:20.001Z</time></trkpt><trkpt lat="45.0092467" lon="8.2558683"><ele>251.0</ele><time>2026-03-29T15:27:21.003Z</time></trkpt><trkpt lat="45.0091633" lon="8.2558733"><ele>251.00000000000003</ele><time>2026-03-29T15:27:22.003Z</time></trkpt><trkpt lat="45.0090817" lon="8.255885"><ele>251.0</ele><time>2026-03-29T15:27:23.001Z</time></trkpt><trkpt lat="45.009" lon="8.2559017"><ele>251.00000000000003</ele><time>2026-03-29T15:27:24.002Z</time></trkpt><trkpt lat="45.0089183" lon="8.2559067"><ele>251.0</ele><time>2026-03-29T15:27:25.002Z</time></trkpt><trkpt lat="45.00883" lon="8.2559217"><ele>251.0</ele><time>2026-03-29T15:27:26.004Z</time></trkpt><trkpt lat="45.0087517" lon="8.2559367"><ele>251.0</ele><time>2026-03-29T15:27:27.005Z</time></trkpt><trkpt lat="45.0086733" lon="8.2559367"><ele>251.00000000000003</ele><time>2026-03-29T15:27:28.008Z</time></trkpt><trkpt lat="45.0085883" lon="8.255945"><ele>251.0</ele><time>2026-03-29T15:27:29.002Z</time></trkpt><trkpt lat="45.0084983" lon="8.25595"><ele>251.00000000000003</ele><time>2026-03-29T15:27:30.005Z</time></trkpt><trkpt lat="45.0084183" lon="8.2559583"><ele>251.0</ele><time>2026-03-29T15:27:31.006Z</time></trkpt><trkpt lat="45.0083517" lon="8.255925"><ele>251.0</ele><time>2026-03-29T15:27:32.01Z</time></trkpt><trkpt lat="45.008285" lon="8.25594"><ele>251.0</ele><time>2026-03-29T15:27:33.006Z</time></trkpt><trkpt lat="45.0082183" lon="8.2559433"><ele>251.00000000000003</ele><time>2026-03-29T15:27:34.005Z</time></trkpt><trkpt lat="45.0081117" lon="8.2559167"><ele>251.0</ele><time>2026-03-29T15:27:36.007Z</time></trkpt><trkpt lat="45.0079917" lon="8.2559467"><ele>251.50000000000003</ele><time>2026-03-29T15:27:38.012Z</time></trkpt><trkpt lat="45.0079117" lon="8.2559683"><ele>252.0</ele><time>2026-03-29T15:27:39.007Z</time></trkpt><trkpt lat="45.007845" lon="8.2559683"><ele>252.5</ele><time>2026-03-29T15:27:40.004Z</time></trkpt><trkpt lat="45.007775" lon="8.2559767"><ele>253.0</ele><time>2026-03-29T15:27:41.004Z</time></trkpt><trkpt lat="45.0077083" lon="8.2560017"><ele>253.50000000000003</ele><time>2026-03-29T15:27:42.006Z</time></trkpt><trkpt lat="45.0075917" lon="8.2560167"><ele>254.0</ele><time>2026-03-29T15:27:44.008Z</time></trkpt><trkpt lat="45.0075133" lon="8.2560083"><ele>252.33333333333334</ele><time>2026-03-29T15:27:46.002Z</time></trkpt><trkpt lat="45.0074583" lon="8.255955"><ele>250.66666666666669</ele><time>2026-03-29T15:27:49.006Z</time></trkpt><trkpt lat="45.0073933" lon="8.2559267"><ele>249.0</ele><time>2026-03-29T15:27:51.005Z</time></trkpt><trkpt lat="45.0073083" lon="8.2558733"><ele>247.33333333333331</ele><time>2026-03-29T15:27:53.007Z</time></trkpt><trkpt lat="45.0071967" lon="8.2559033"><ele>245.66666666666666</ele><time>2026-03-29T15:27:55.009Z</time></trkpt><trkpt lat="45.0071367" lon="8.2559467"><ele>244.0</ele><time>2026-03-29T15:27:56.005Z</time></trkpt><trkpt lat="45.00706" lon="8.2560383"><ele>243.99999999999997</ele><time>2026-03-29T15:27:57.009Z</time></trkpt><trkpt lat="45.006975" lon="8.2561317"><ele>244.0</ele><time>2026-03-29T15:27:58.007Z</time></trkpt><trkpt lat="45.006915" lon="8.256235"><ele>244.0</ele><time>2026-03-29T15:27:59.004Z</time></trkpt><trkpt lat="45.0068633" lon="8.256335"><ele>244.0</ele><time>2026-03-29T15:28:00.013Z</time></trkpt><trkpt lat="45.0068083" lon="8.2564067"><ele>243.99999999999997</ele><time>2026-03-29T15:28:01.008Z</time></trkpt><trkpt lat="45.0067517" lon="8.25647"><ele>244.0</ele><time>2026-03-29T15:28:02.01Z</time></trkpt><trkpt lat="45.0067167" lon="8.2565533"><ele>243.33333333333331</ele><time>2026-03-29T15:28:03.007Z</time></trkpt><trkpt lat="45.0066667" lon="8.2566383"><ele>242.66666666666666</ele><time>2026-03-29T15:28:04.011Z</time></trkpt><trkpt lat="45.0066333" lon="8.2567383"><ele>242.0</ele><time>2026-03-29T15:28:05.006Z</time></trkpt><trkpt lat="45.0066" lon="8.256835"><ele>241.33333333333331</ele><time>2026-03-29T15:28:06.006Z</time></trkpt><trkpt lat="45.00656" lon="8.2569283"><ele>240.66666666666666</ele><time>2026-03-29T15:28:07.009Z</time></trkpt><trkpt lat="45.00653" lon="8.2570283"><ele>240.0</ele><time>2026-03-29T15:28:08.003Z</time></trkpt><trkpt lat="45.0065" lon="8.25711"><ele>240.0</ele><time>2026-03-29T15:28:09.008Z</time></trkpt><trkpt lat="45.00644" lon="8.2572667"><ele>240.0</ele><time>2026-03-29T15:28:11.005Z</time></trkpt><trkpt lat="45.006375" lon="8.2574"><ele>240.0</ele><time>2026-03-29T15:28:13.005Z</time></trkpt><trkpt lat="45.0063117" lon="8.2574833"><ele>240.0</ele><time>2026-03-29T15:28:15.005Z</time></trkpt><trkpt lat="45.0062317" lon="8.2575467"><ele>240.0</ele><time>2026-03-29T15:28:17.005Z</time></trkpt><trkpt lat="45.006155" lon="8.25762"><ele>240.33333333333334</ele><time>2026-03-29T15:28:19.006Z</time></trkpt><trkpt lat="45.0060583" lon="8.2576367"><ele>240.66666666666669</ele><time>2026-03-29T15:28:21.007Z</time></trkpt><trkpt lat="45.005935" lon="8.2576633"><ele>241.0</ele><time>2026-03-29T15:28:23.008Z</time></trkpt><trkpt lat="45.0058667" lon="8.25767"><ele>241.33333333333334</ele><time>2026-03-29T15:28:24.01Z</time></trkpt><trkpt lat="45.0058" lon="8.2576617"><ele>241.66666666666669</ele><time>2026-03-29T15:28:25.01Z</time></trkpt><trkpt lat="45.0057283" lon="8.2576567"><ele>242.0</ele><time>2026-03-29T15:28:26.007Z</time></trkpt><trkpt lat="45.0056533" lon="8.2576367"><ele>242.00000000000003</ele><time>2026-03-29T15:28:27.009Z</time></trkpt><trkpt lat="45.00558" lon="8.257615"><ele>242.0</ele><time>2026-03-29T15:28:28.013Z</time></trkpt><trkpt lat="45.0055033" lon="8.2575933"><ele>242.0</ele><time>2026-03-29T15:28:29.007Z</time></trkpt><trkpt lat="45.0054267" lon="8.2575733"><ele>242.0</ele><time>2026-03-29T15:28:30.009Z</time></trkpt><trkpt lat="45.00535" lon="8.2575533"><ele>242.00000000000003</ele><time>2026-03-29T15:28:31.005Z</time></trkpt><trkpt lat="45.0052683" lon="8.2575383"><ele>242.0</ele><time>2026-03-29T15:28:32.003Z</time></trkpt><trkpt lat="45.0051817" lon="8.257515"><ele>242.0</ele><time>2026-03-29T15:28:33.004Z</time></trkpt><trkpt lat="45.0051033" lon="8.257465"><ele>242.0</ele><time>2026-03-29T15:28:34.002Z</time></trkpt><trkpt lat="45.0050133" lon="8.25747"><ele>242.0</ele><time>2026-03-29T15:28:35.005Z</time></trkpt><trkpt lat="45.0049217" lon="8.25746"><ele>242.0</ele><time>2026-03-29T15:28:36.002Z</time></trkpt><trkpt lat="45.004825" lon="8.2574583"><ele>242.0</ele><time>2026-03-29T15:28:37.009Z</time></trkpt><trkpt lat="45.0047267" lon="8.2574583"><ele>242.6</ele><time>2026-03-29T15:28:38.009Z</time></trkpt><trkpt lat="45.00463" lon="8.2574583"><ele>243.2</ele><time>2026-03-29T15:28:39.008Z</time></trkpt><trkpt lat="45.0045317" lon="8.2574583"><ele>243.8</ele><time>2026-03-29T15:28:40.006Z</time></trkpt><trkpt lat="45.00444" lon="8.2574383"><ele>244.4</ele><time>2026-03-29T15:28:41.007Z</time></trkpt><trkpt lat="45.004345" lon="8.2574317"><ele>245.0</ele><time>2026-03-29T15:28:42.006Z</time></trkpt><trkpt lat="45.0042467" lon="8.2574267"><ele>245.66666666666669</ele><time>2026-03-29T15:28:43.007Z</time></trkpt><trkpt lat="45.0041567" lon="8.257425"><ele>246.33333333333334</ele><time>2026-03-29T15:28:44.012Z</time></trkpt><trkpt lat="45.0040667" lon="8.2574383"><ele>247.0</ele><time>2026-03-29T15:28:45.009Z</time></trkpt><trkpt lat="45.0039833" lon="8.257455"><ele>247.66666666666669</ele><time>2026-03-29T15:28:46.004Z</time></trkpt><trkpt lat="45.003895" lon="8.2574967"><ele>248.33333333333334</ele><time>2026-03-29T15:28:47.009Z</time></trkpt><trkpt lat="45.0038117" lon="8.25752"><ele>249.0</ele><time>2026-03-29T15:28:48.005Z</time></trkpt><trkpt lat="45.0037217" lon="8.2575333"><ele>249.0</ele><time>2026-03-29T15:28:49.006Z</time></trkpt><trkpt lat="45.003625" lon="8.2575233"><ele>248.99999999999997</ele><time>2026-03-29T15:28:50.001Z</time></trkpt><trkpt lat="45.0035283" lon="8.25751"><ele>248.99999999999997</ele><time>2026-03-29T15:28:51.005Z</time></trkpt><trkpt lat="45.0034367" lon="8.2574683"><ele>249.0</ele><time>2026-03-29T15:28:52.003Z</time></trkpt><trkpt lat="45.0033483" lon="8.2574067"><ele>249.0</ele><time>2026-03-29T15:28:53.003Z</time></trkpt><trkpt lat="45.0032633" lon="8.2573367"><ele>247.79999999999998</ele><time>2026-03-29T15:28:54.003Z</time></trkpt><trkpt lat="45.0031717" lon="8.2572617"><ele>246.59999999999997</ele><time>2026-03-29T15:28:55.005Z</time></trkpt><trkpt lat="45.0030833" lon="8.2571817"><ele>245.4</ele><time>2026-03-29T15:28:56.004Z</time></trkpt><trkpt lat="45.0029917" lon="8.2571033"><ele>244.2</ele><time>2026-03-29T15:28:57.006Z</time></trkpt><trkpt lat="45.0029017" lon="8.25703"><ele>243.0</ele><time>2026-03-29T15:28:58.003Z</time></trkpt><trkpt lat="45.00281" lon="8.2569633"><ele>243.0</ele><time>2026-03-29T15:28:59.003Z</time></trkpt><trkpt lat="45.00272" lon="8.2568983"><ele>243.0</ele><time>2026-03-29T15:29:00.006Z</time></trkpt><trkpt lat="45.0026267" lon="8.2568333"><ele>243.0</ele><time>2026-03-29T15:29:01.004Z</time></trkpt><trkpt lat="45.0025367" lon="8.2567683"><ele>243.0</ele><time>2026-03-29T15:29:02.003Z</time></trkpt><trkpt lat="45.002445" lon="8.256705"><ele>243.0</ele><time>2026-03-29T15:29:03.007Z</time></trkpt><trkpt lat="45.00236" lon="8.25661"><ele>241.75</ele><time>2026-03-29T15:29:04.005Z</time></trkpt><trkpt lat="45.0022767" lon="8.2565167"><ele>240.5</ele><time>2026-03-29T15:29:05.01Z</time></trkpt><trkpt lat="45.0021917" lon="8.256405"><ele>239.25</ele><time>2026-03-29T15:29:06.007Z</time></trkpt><trkpt lat="45.0020967" lon="8.2562867"><ele>238.0</ele><time>2026-03-29T15:29:07.007Z</time></trkpt><trkpt lat="45.0020017" lon="8.25617"><ele>236.75</ele><time>2026-03-29T15:29:08.006Z</time></trkpt><trkpt lat="45.0019033" lon="8.2560517"><ele>235.5</ele><time>2026-03-29T15:29:09.007Z</time></trkpt><trkpt lat="45.0018033" lon="8.2559333"><ele>234.25</ele><time>2026-03-29T15:29:10.006Z</time></trkpt><trkpt lat="45.0016983" lon="8.2558133"><ele>233.0</ele><time>2026-03-29T15:29:11.002Z</time></trkpt><trkpt lat="45.0015983" lon="8.2556917"><ele>231.75</ele><time>2026-03-29T15:29:12.007Z</time></trkpt><trkpt lat="45.001495" lon="8.2555667"><ele>230.5</ele><time>2026-03-29T15:29:13.008Z</time></trkpt><trkpt lat="45.00139" lon="8.255435"><ele>229.25</ele><time>2026-03-29T15:29:14.005Z</time></trkpt><trkpt lat="45.0012833" lon="8.255295"><ele>228.0</ele><time>2026-03-29T15:29:15.006Z</time></trkpt><trkpt lat="45.0011783" lon="8.2551583"><ele>228.0</ele><time>2026-03-29T15:29:16.005Z</time></trkpt><trkpt lat="45.001075" lon="8.2550283"><ele>228.0</ele><time>2026-03-29T15:29:17.003Z</time></trkpt><trkpt lat="45.0009783" lon="8.2548983"><ele>228.0</ele><time>2026-03-29T15:29:18.005Z</time></trkpt><trkpt lat="45.0008783" lon="8.254775"><ele>228.0</ele><time>2026-03-29T15:29:19.005Z</time></trkpt><trkpt lat="45.0007867" lon="8.2546533"><ele>226.25</ele><time>2026-03-29T15:29:20.003Z</time></trkpt><trkpt lat="45.0006883" lon="8.2545367"><ele>224.5</ele><time>2026-03-29T15:29:21.003Z</time></trkpt><trkpt lat="45.0005917" lon="8.2544217"><ele>222.75</ele><time>2026-03-29T15:29:22.007Z</time></trkpt><trkpt lat="45.0004933" lon="8.2543067"><ele>221.0</ele><time>2026-03-29T15:29:23.007Z</time></trkpt><trkpt lat="45.0004017" lon="8.2541983"><ele>221.0</ele><time>2026-03-29T15:29:24.005Z</time></trkpt><trkpt lat="45.0003017" lon="8.2540933"><ele>221.0</ele><time>2026-03-29T15:29:25.009Z</time></trkpt><trkpt lat="45.0001867" lon="8.2540033"><ele>221.0</ele><time>2026-03-29T15:29:26.005Z</time></trkpt><trkpt lat="45.0000633" lon="8.2539233"><ele>221.0</ele><time>2026-03-29T15:29:27.005Z</time></trkpt><trkpt lat="44.9999367" lon="8.253855"><ele>220.5</ele><time>2026-03-29T15:29:28.009Z</time></trkpt><trkpt lat="44.9997967" lon="8.2537967"><ele>220.0</ele><time>2026-03-29T15:29:29.004Z</time></trkpt><trkpt lat="44.999655" lon="8.2537417"><ele>219.5</ele><time>2026-03-29T15:29:30.003Z</time></trkpt><trkpt lat="44.9995033" lon="8.2536967"><ele>219.0</ele><time>2026-03-29T15:29:31.006Z</time></trkpt><trkpt lat="44.9993467" lon="8.25365"><ele>219.0</ele><time>2026-03-29T15:29:32.003Z</time></trkpt><trkpt lat="44.9991883" lon="8.2536067"><ele>219.0</ele><time>2026-03-29T15:29:33.005Z</time></trkpt><trkpt lat="44.9990283" lon="8.25356"><ele>219.0</ele><time>2026-03-29T15:29:34.006Z</time></trkpt><trkpt lat="44.99887" lon="8.2535133"><ele>218.0</ele><time>2026-03-29T15:29:35.006Z</time></trkpt><trkpt lat="44.998725" lon="8.2534667"><ele>217.0</ele><time>2026-03-29T15:29:36.002Z</time></trkpt><trkpt lat="44.9985833" lon="8.2534217"><ele>216.0</ele><time>2026-03-29T15:29:37.006Z</time></trkpt><trkpt lat="44.99845" lon="8.2533733"><ele>215.0</ele><time>2026-03-29T15:29:38.007Z</time></trkpt><trkpt lat="44.9983233" lon="8.2533283"><ele>214.0</ele><time>2026-03-29T15:29:39.003Z</time></trkpt><trkpt lat="44.9982" lon="8.2532817"><ele>213.0</ele><time>2026-03-29T15:29:40.003Z</time></trkpt><trkpt lat="44.9980767" lon="8.253235"><ele>212.0</ele><time>2026-03-29T15:29:41.005Z</time></trkpt><trkpt lat="44.9979567" lon="8.2531867"><ele>211.0</ele><time>2026-03-29T15:29:42.005Z</time></trkpt><trkpt lat="44.997835" lon="8.253135"><ele>209.5</ele><time>2026-03-29T15:29:43.005Z</time></trkpt><trkpt lat="44.9977083" lon="8.2530917"><ele>208.0</ele><time>2026-03-29T15:29:44.008Z</time></trkpt><trkpt lat="44.99758" lon="8.253055"><ele>206.5</ele><time>2026-03-29T15:29:45.004Z</time></trkpt><trkpt lat="44.9974467" lon="8.253015"><ele>205.0</ele><time>2026-03-29T15:29:46.006Z</time></trkpt><trkpt lat="44.99731" lon="8.2529817"><ele>204.5</ele><time>2026-03-29T15:29:47.004Z</time></trkpt><trkpt lat="44.99718" lon="8.252945"><ele>204.0</ele><time>2026-03-29T15:29:48.002Z</time></trkpt><trkpt lat="44.9970533" lon="8.25291"><ele>203.5</ele><time>2026-03-29T15:29:49.006Z</time></trkpt><trkpt lat="44.9969333" lon="8.2528767"><ele>203.0</ele><time>2026-03-29T15:29:50.004Z</time></trkpt><trkpt lat="44.9968267" lon="8.2528383"><ele>203.0</ele><time>2026-03-29T15:29:51.007Z</time></trkpt><trkpt lat="44.9967317" lon="8.2527883"><ele>203.0</ele><time>2026-03-29T15:29:52.002Z</time></trkpt><trkpt lat="44.9966517" lon="8.2527167"><ele>203.0</ele><time>2026-03-29T15:29:53.002Z</time></trkpt><trkpt lat="44.9965817" lon="8.2526117"><ele>203.0</ele><time>2026-03-29T15:29:54.004Z</time></trkpt><trkpt lat="44.99653" lon="8.2524783"><ele>203.0</ele><time>2026-03-29T15:29:55.005Z</time></trkpt><trkpt lat="44.9964767" lon="8.252325"><ele>202.0</ele><time>2026-03-29T15:29:56.011Z</time></trkpt><trkpt lat="44.996425" lon="8.2521633"><ele>201.0</ele><time>2026-03-29T15:29:57.006Z</time></trkpt><trkpt lat="44.996375" lon="8.2520033"><ele>200.0</ele><time>2026-03-29T15:29:58.004Z</time></trkpt><trkpt lat="44.99631" lon="8.251855"><ele>199.0</ele><time>2026-03-29T15:29:59.008Z</time></trkpt><trkpt lat="44.9962217" lon="8.251715"><ele>199.0</ele><time>2026-03-29T15:30:00.01Z</time></trkpt><trkpt lat="44.996115" lon="8.251585"><ele>199.0</ele><time>2026-03-29T15:30:01.006Z</time></trkpt><trkpt lat="44.9960033" lon="8.2514617"><ele>199.0</ele><time>2026-03-29T15:30:02.004Z</time></trkpt><trkpt lat="44.9958917" lon="8.251345"><ele>199.0</ele><time>2026-03-29T15:30:03.004Z</time></trkpt><trkpt lat="44.9957817" lon="8.25123"><ele>200.75</ele><time>2026-03-29T15:30:04.004Z</time></trkpt><trkpt lat="44.9956717" lon="8.25112"><ele>202.5</ele><time>2026-03-29T15:30:05.005Z</time></trkpt><trkpt lat="44.995565" lon="8.2510067"><ele>204.25</ele><time>2026-03-29T15:30:06.004Z</time></trkpt><trkpt lat="44.9954633" lon="8.25089"><ele>206.0</ele><time>2026-03-29T15:30:07.004Z</time></trkpt><trkpt lat="44.9953633" lon="8.25077"><ele>206.0</ele><time>2026-03-29T15:30:08.007Z</time></trkpt><trkpt lat="44.995275" lon="8.25065"><ele>206.0</ele><time>2026-03-29T15:30:09.005Z</time></trkpt><trkpt lat="44.9951867" lon="8.2505267"><ele>206.0</ele><time>2026-03-29T15:30:10.004Z</time></trkpt><trkpt lat="44.995125" lon="8.2503783"><ele>206.0</ele><time>2026-03-29T15:30:11.007Z</time></trkpt><trkpt lat="44.9950717" lon="8.250225"><ele>207.0</ele><time>2026-03-29T15:30:12.005Z</time></trkpt><trkpt lat="44.9950083" lon="8.2500717"><ele>208.0</ele><time>2026-03-29T15:30:13.006Z</time></trkpt><trkpt lat="44.99493" lon="8.2499267"><ele>209.0</ele><time>2026-03-29T15:30:14.001Z</time></trkpt><trkpt lat="44.9948567" lon="8.24978"><ele>210.0</ele><time>2026-03-29T15:30:15.006Z</time></trkpt><trkpt lat="44.9947933" lon="8.2496233"><ele>210.0</ele><time>2026-03-29T15:30:16.004Z</time></trkpt><trkpt lat="44.99474" lon="8.2494717"><ele>210.0</ele><time>2026-03-29T15:30:17.004Z</time></trkpt><trkpt lat="44.994685" lon="8.24933"><ele>210.0</ele><time>2026-03-29T15:30:18.005Z</time></trkpt><trkpt lat="44.9946217" lon="8.2491967"><ele>210.0</ele><time>2026-03-29T15:30:19.006Z</time></trkpt><trkpt lat="44.9945583" lon="8.2490733"><ele>210.0</ele><time>2026-03-29T15:30:20.005Z</time></trkpt><trkpt lat="44.9944917" lon="8.2489667"><ele>210.0</ele><time>2026-03-29T15:30:21.006Z</time></trkpt><trkpt lat="44.9944333" lon="8.2488733"><ele>210.0</ele><time>2026-03-29T15:30:22.006Z</time></trkpt><trkpt lat="44.9943867" lon="8.2487867"><ele>210.0</ele><time>2026-03-29T15:30:23.002Z</time></trkpt><trkpt lat="44.9943467" lon="8.2486933"><ele>210.0</ele><time>2026-03-29T15:30:24.007Z</time></trkpt><trkpt lat="44.9943167" lon="8.2485833"><ele>210.0</ele><time>2026-03-29T15:30:25.003Z</time></trkpt><trkpt lat="44.9942933" lon="8.2484533"><ele>210.25</ele><time>2026-03-29T15:30:26.011Z</time></trkpt><trkpt lat="44.9942733" lon="8.2482967"><ele>210.5</ele><time>2026-03-29T15:30:27.005Z</time></trkpt><trkpt lat="44.9942533" lon="8.248135"><ele>210.75</ele><time>2026-03-29T15:30:28.003Z</time></trkpt><trkpt lat="44.9942333" lon="8.2479683"><ele>211.0</ele><time>2026-03-29T15:30:29.007Z</time></trkpt><trkpt lat="44.99421" lon="8.2477883"><ele>211.25</ele><time>2026-03-29T15:30:30.003Z</time></trkpt><trkpt lat="44.99418" lon="8.2476067"><ele>211.5</ele><time>2026-03-29T15:30:31.004Z</time></trkpt><trkpt lat="44.994145" lon="8.2474333"><ele>211.75</ele><time>2026-03-29T15:30:32.006Z</time></trkpt><trkpt lat="44.994105" lon="8.2472683"><ele>212.0</ele><time>2026-03-29T15:30:33.007Z</time></trkpt><trkpt lat="44.9940567" lon="8.2471017"><ele>214.25</ele><time>2026-03-29T15:30:34.004Z</time></trkpt><trkpt lat="44.9940033" lon="8.2469367"><ele>216.5</ele><time>2026-03-29T15:30:35.005Z</time></trkpt><trkpt lat="44.9939467" lon="8.24678"><ele>218.75</ele><time>2026-03-29T15:30:36.005Z</time></trkpt><trkpt lat="44.9938917" lon="8.2466367"><ele>221.0</ele><time>2026-03-29T15:30:37.01Z</time></trkpt><trkpt lat="44.99384" lon="8.2465017"><ele>219.5</ele><time>2026-03-29T15:30:38.004Z</time></trkpt><trkpt lat="44.993785" lon="8.246365"><ele>218.0</ele><time>2026-03-29T15:30:39.004Z</time></trkpt><trkpt lat="44.9937233" lon="8.246225"><ele>216.5</ele><time>2026-03-29T15:30:40.012Z</time></trkpt><trkpt lat="44.993655" lon="8.246085"><ele>215.0</ele><time>2026-03-29T15:30:41.005Z</time></trkpt><trkpt lat="44.9935767" lon="8.2459367"><ele>215.0</ele><time>2026-03-29T15:30:42.004Z</time></trkpt><trkpt lat="44.9934867" lon="8.2457883"><ele>215.0</ele><time>2026-03-29T15:30:43.007Z</time></trkpt><trkpt lat="44.9934017" lon="8.2456417"><ele>215.0</ele><time>2026-03-29T15:30:44.003Z</time></trkpt><trkpt lat="44.9933083" lon="8.24549"><ele>215.0</ele><time>2026-03-29T15:30:45.005Z</time></trkpt><trkpt lat="44.9932183" lon="8.245335"><ele>215.5</ele><time>2026-03-29T15:30:46.005Z</time></trkpt><trkpt lat="44.99312" lon="8.24519"><ele>216.0</ele><time>2026-03-29T15:30:47.003Z</time></trkpt><trkpt lat="44.9930133" lon="8.2450617"><ele>216.5</ele><time>2026-03-29T15:30:48.005Z</time></trkpt><trkpt lat="44.9929" lon="8.2449467"><ele>217.0</ele><time>2026-03-29T15:30:49.003Z</time></trkpt><trkpt lat="44.9927733" lon="8.2448483"><ele>216.0</ele><time>2026-03-29T15:30:50.004Z</time></trkpt><trkpt lat="44.9926383" lon="8.24476"><ele>215.0</ele><time>2026-03-29T15:30:51.006Z</time></trkpt><trkpt lat="44.9925067" lon="8.244675"><ele>214.0</ele><time>2026-03-29T15:30:52.004Z</time></trkpt><trkpt lat="44.9923767" lon="8.24459"><ele>213.0</ele><time>2026-03-29T15:30:53.005Z</time></trkpt><trkpt lat="44.9922483" lon="8.2445083"><ele>215.75</ele><time>2026-03-29T15:30:54.003Z</time></trkpt><trkpt lat="44.99212" lon="8.24443"><ele>218.5</ele><time>2026-03-29T15:30:55.008Z</time></trkpt><trkpt lat="44.9920067" lon="8.2443617"><ele>221.25</ele><time>2026-03-29T15:30:56.005Z</time></trkpt><trkpt lat="44.9918967" lon="8.244305"><ele>224.0</ele><time>2026-03-29T15:30:57.003Z</time></trkpt><trkpt lat="44.9917917" lon="8.244265"><ele>224.0</ele><time>2026-03-29T15:30:58.007Z</time></trkpt><trkpt lat="44.9916867" lon="8.2442617"><ele>224.0</ele><time>2026-03-29T15:30:59.008Z</time></trkpt><trkpt lat="44.9915733" lon="8.2442967"><ele>224.0</ele><time>2026-03-29T15:31:00.011Z</time></trkpt><trkpt lat="44.9914583" lon="8.24435"><ele>224.0</ele><time>2026-03-29T15:31:01.01Z</time></trkpt><trkpt lat="44.9913433" lon="8.2444083"><ele>222.25</ele><time>2026-03-29T15:31:02.006Z</time></trkpt><trkpt lat="44.9912333" lon="8.2444717"><ele>220.5</ele><time>2026-03-29T15:31:03.002Z</time></trkpt><trkpt lat="44.99112" lon="8.2445167"><ele>218.75</ele><time>2026-03-29T15:31:04.008Z</time></trkpt><trkpt lat="44.99101" lon="8.2445383"><ele>217.0</ele><time>2026-03-29T15:31:05.012Z</time></trkpt><trkpt lat="44.9909017" lon="8.2445417"><ele>215.75</ele><time>2026-03-29T15:31:06.001Z</time></trkpt><trkpt lat="44.9907917" lon="8.2445383"><ele>214.5</ele><time>2026-03-29T15:31:07.01Z</time></trkpt><trkpt lat="44.9906733" lon="8.2445233"><ele>213.25</ele><time>2026-03-29T15:31:08.003Z</time></trkpt><trkpt lat="44.990545" lon="8.2444933"><ele>212.0</ele><time>2026-03-29T15:31:09.01Z</time></trkpt><trkpt lat="44.9904117" lon="8.244455"><ele>212.0</ele><time>2026-03-29T15:31:10.005Z</time></trkpt><trkpt lat="44.9902733" lon="8.24441"><ele>212.0</ele><time>2026-03-29T15:31:11.002Z</time></trkpt><trkpt lat="44.9901333" lon="8.244365"><ele>212.0</ele><time>2026-03-29T15:31:12.007Z</time></trkpt><trkpt lat="44.989995" lon="8.24431"><ele>212.0</ele><time>2026-03-29T15:31:13.006Z</time></trkpt><trkpt lat="44.9898583" lon="8.2442433"><ele>211.75</ele><time>2026-03-29T15:31:14.004Z</time></trkpt><trkpt lat="44.989725" lon="8.2441667"><ele>211.5</ele><time>2026-03-29T15:31:15.007Z</time></trkpt><trkpt lat="44.9895983" lon="8.2440683"><ele>211.25</ele><time>2026-03-29T15:31:16.005Z</time></trkpt><trkpt lat="44.98948" lon="8.2439617"><ele>211.0</ele><time>2026-03-29T15:31:17.006Z</time></trkpt><trkpt lat="44.989375" lon="8.2438467"><ele>211.0</ele><time>2026-03-29T15:31:18.003Z</time></trkpt><trkpt lat="44.9892767" lon="8.2437183"><ele>211.0</ele><time>2026-03-29T15:31:19.005Z</time></trkpt><trkpt lat="44.98919" lon="8.2435817"><ele>211.0</ele><time>2026-03-29T15:31:20.005Z</time></trkpt><trkpt lat="44.9891033" lon="8.24343"><ele>211.0</ele><time>2026-03-29T15:31:21.011Z</time></trkpt><trkpt lat="44.9890183" lon="8.2432767"><ele>209.75</ele><time>2026-03-29T15:31:22.005Z</time></trkpt><trkpt lat="44.9889367" lon="8.2431283"><ele>208.5</ele><time>2026-03-29T15:31:23.005Z</time></trkpt><trkpt lat="44.98886" lon="8.2429833"><ele>207.25</ele><time>2026-03-29T15:31:24.004Z</time></trkpt><trkpt lat="44.9887833" lon="8.2428383"><ele>206.0</ele><time>2026-03-29T15:31:25.005Z</time></trkpt><trkpt lat="44.9887117" lon="8.2426967"><ele>206.0</ele><time>2026-03-29T15:31:26.005Z</time></trkpt><trkpt lat="44.9886433" lon="8.242555"><ele>206.0</ele><time>2026-03-29T15:31:27.006Z</time></trkpt><trkpt lat="44.98857" lon="8.2424233"><ele>206.0</ele><time>2026-03-29T15:31:28.005Z</time></trkpt><trkpt lat="44.98849" lon="8.2422983"><ele>206.0</ele><time>2026-03-29T15:31:29.004Z</time></trkpt><trkpt lat="44.9884083" lon="8.2421767"><ele>206.60000000000002</ele><time>2026-03-29T15:31:30.004Z</time></trkpt><trkpt lat="44.9883217" lon="8.2420667"><ele>207.2</ele><time>2026-03-29T15:31:30.999Z</time></trkpt><trkpt lat="44.98824" lon="8.2419783"><ele>207.8</ele><time>2026-03-29T15:31:32.005Z</time></trkpt><trkpt lat="44.98815" lon="8.2419133"><ele>208.39999999999998</ele><time>2026-03-29T15:31:33.003Z</time></trkpt><trkpt lat="44.9880567" lon="8.241865"><ele>209.0</ele><time>2026-03-29T15:31:34.006Z</time></trkpt><trkpt lat="44.9879533" lon="8.24183"><ele>209.0</ele><time>2026-03-29T15:31:35.003Z</time></trkpt><trkpt lat="44.9878417" lon="8.2418033"><ele>209.0</ele><time>2026-03-29T15:31:36.002Z</time></trkpt><trkpt lat="44.9877183" lon="8.24179"><ele>209.0</ele><time>2026-03-29T15:31:37.001Z</time></trkpt><trkpt lat="44.9875883" lon="8.2417767"><ele>209.0</ele><time>2026-03-29T15:31:38.003Z</time></trkpt><trkpt lat="44.987455" lon="8.24177"><ele>208.25</ele><time>2026-03-29T15:31:39.008Z</time></trkpt><trkpt lat="44.987315" lon="8.2417667"><ele>207.5</ele><time>2026-03-29T15:31:40.005Z</time></trkpt><trkpt lat="44.9871767" lon="8.2417633"><ele>206.75</ele><time>2026-03-29T15:31:41.006Z</time></trkpt><trkpt lat="44.98704" lon="8.24175"><ele>206.0</ele><time>2026-03-29T15:31:42.005Z</time></trkpt><trkpt lat="44.9869067" lon="8.2417233"><ele>206.0</ele><time>2026-03-29T15:31:43.007Z</time></trkpt><trkpt lat="44.9867817" lon="8.2416767"><ele>206.0</ele><time>2026-03-29T15:31:44.006Z</time></trkpt><trkpt lat="44.9866567" lon="8.2416133"><ele>206.0</ele><time>2026-03-29T15:31:45.003Z</time></trkpt><trkpt lat="44.9865367" lon="8.2415433"><ele>206.0</ele><time>2026-03-29T15:31:46.009Z</time></trkpt><trkpt lat="44.9864217" lon="8.24147"><ele>202.75</ele><time>2026-03-29T15:31:47.004Z</time></trkpt><trkpt lat="44.9863083" lon="8.2413917"><ele>199.5</ele><time>2026-03-29T15:31:48.007Z</time></trkpt><trkpt lat="44.9861967" lon="8.2413167"><ele>196.25</ele><time>2026-03-29T15:31:49.006Z</time></trkpt><trkpt lat="44.9860817" lon="8.2412383"><ele>193.0</ele><time>2026-03-29T15:31:50.007Z</time></trkpt><trkpt lat="44.98597" lon="8.2411667"><ele>193.0</ele><time>2026-03-29T15:31:51.007Z</time></trkpt><trkpt lat="44.9858517" lon="8.2411033"><ele>193.0</ele><time>2026-03-29T15:31:52.007Z</time></trkpt><trkpt lat="44.9857367" lon="8.24104"><ele>193.0</ele><time>2026-03-29T15:31:53.002Z</time></trkpt><trkpt lat="44.9856283" lon="8.241"><ele>193.0</ele><time>2026-03-29T15:31:54.002Z</time></trkpt><trkpt lat="44.9855233" lon="8.2409733"><ele>194.4</ele><time>2026-03-29T15:31:55.006Z</time></trkpt><trkpt lat="44.98542" lon="8.2409567"><ele>195.8</ele><time>2026-03-29T15:31:56.004Z</time></trkpt><trkpt lat="44.9853117" lon="8.240935"><ele>197.2</ele><time>2026-03-29T15:31:57.005Z</time></trkpt><trkpt lat="44.9852" lon="8.2409133"><ele>198.6</ele><time>2026-03-29T15:31:58.004Z</time></trkpt><trkpt lat="44.98508" lon="8.2408867"><ele>200.0</ele><time>2026-03-29T15:31:59.007Z</time></trkpt><trkpt lat="44.9849533" lon="8.24086"><ele>200.75</ele><time>2026-03-29T15:32:00.006Z</time></trkpt><trkpt lat="44.9848233" lon="8.2408367"><ele>201.5</ele><time>2026-03-29T15:32:01.004Z</time></trkpt><trkpt lat="44.9846883" lon="8.24082"><ele>202.25</ele><time>2026-03-29T15:32:02.002Z</time></trkpt><trkpt lat="44.9845533" lon="8.2408083"><ele>203.0</ele><time>2026-03-29T15:32:03.006Z</time></trkpt><trkpt lat="44.9844233" lon="8.2407967"><ele>203.0</ele><time>2026-03-29T15:32:04.005Z</time></trkpt><trkpt lat="44.984305" lon="8.2407783"><ele>203.0</ele><time>2026-03-29T15:32:05.004Z</time></trkpt><trkpt lat="44.9841917" lon="8.2407433"><ele>203.0</ele><time>2026-03-29T15:32:06.007Z</time></trkpt><trkpt lat="44.9840783" lon="8.24067"><ele>203.0</ele><time>2026-03-29T15:32:07.004Z</time></trkpt><trkpt lat="44.9839667" lon="8.24058"><ele>203.0</ele><time>2026-03-29T15:32:08.007Z</time></trkpt><trkpt lat="44.98385" lon="8.2404867"><ele>203.0</ele><time>2026-03-29T15:32:09.007Z</time></trkpt><trkpt lat="44.9837333" lon="8.240395"><ele>203.0</ele><time>2026-03-29T15:32:10.003Z</time></trkpt><trkpt lat="44.9836233" lon="8.240315"><ele>203.0</ele><time>2026-03-29T15:32:11.006Z</time></trkpt><trkpt lat="44.9835217" lon="8.2402467"><ele>203.0</ele><time>2026-03-29T15:32:12.004Z</time></trkpt><trkpt lat="44.9834267" lon="8.2401967"><ele>203.0</ele><time>2026-03-29T15:32:13.002Z</time></trkpt><trkpt lat="44.983325" lon="8.2401617"><ele>203.0</ele><time>2026-03-29T15:32:14.006Z</time></trkpt><trkpt lat="44.983225" lon="8.2401383"><ele>203.0</ele><time>2026-03-29T15:32:15.002Z</time></trkpt><trkpt lat="44.9831283" lon="8.2401233"><ele>203.0</ele><time>2026-03-29T15:32:16Z</time></trkpt><trkpt lat="44.9830333" lon="8.240105"><ele>200.8</ele><time>2026-03-29T15:32:17.002Z</time></trkpt><trkpt lat="44.9829367" lon="8.2400883"><ele>198.60000000000002</ele><time>2026-03-29T15:32:18.004Z</time></trkpt><trkpt lat="44.9828433" lon="8.240075"><ele>196.39999999999998</ele><time>2026-03-29T15:32:19.002Z</time></trkpt><trkpt lat="44.9827467" lon="8.2400617"><ele>194.2</ele><time>2026-03-29T15:32:20.001Z</time></trkpt><trkpt lat="44.9826483" lon="8.2400517"><ele>192.0</ele><time>2026-03-29T15:32:21.002Z</time></trkpt><trkpt lat="44.9825467" lon="8.24004"><ele>190.8</ele><time>2026-03-29T15:32:22.002Z</time></trkpt><trkpt lat="44.9824433" lon="8.2400367"><ele>189.6</ele><time>2026-03-29T15:32:23.005Z</time></trkpt><trkpt lat="44.9823267" lon="8.2400383"><ele>188.4</ele><time>2026-03-29T15:32:24.003Z</time></trkpt><trkpt lat="44.9822183" lon="8.24005"><ele>187.20000000000002</ele><time>2026-03-29T15:32:25.003Z</time></trkpt><trkpt lat="44.9821067" lon="8.240065"><ele>186.0</ele><time>2026-03-29T15:32:26.004Z</time></trkpt><trkpt lat="44.9819917" lon="8.2400817"><ele>186.0</ele><time>2026-03-29T15:32:27.005Z</time></trkpt><trkpt lat="44.9818733" lon="8.2401"><ele>186.0</ele><time>2026-03-29T15:32:28.004Z</time></trkpt><trkpt lat="44.9817517" lon="8.2401167"><ele>186.0</ele><time>2026-03-29T15:32:29.008Z</time></trkpt><trkpt lat="44.9816267" lon="8.2401233"><ele>186.0</ele><time>2026-03-29T15:32:30.003Z</time></trkpt><trkpt lat="44.9814967" lon="8.2401217"><ele>185.25</ele><time>2026-03-29T15:32:31.005Z</time></trkpt><trkpt lat="44.98136" lon="8.2401217"><ele>184.5</ele><time>2026-03-29T15:32:32.005Z</time></trkpt><trkpt lat="44.9812233" lon="8.2401133"><ele>183.75</ele><time>2026-03-29T15:32:33.001Z</time></trkpt><trkpt lat="44.981065" lon="8.2400767"><ele>183.0</ele><time>2026-03-29T15:32:34.006Z</time></trkpt><trkpt lat="44.980905" lon="8.2400283"><ele>180.0</ele><time>2026-03-29T15:32:35.005Z</time></trkpt><trkpt lat="44.9807467" lon="8.2399817"><ele>177.0</ele><time>2026-03-29T15:32:36.004Z</time></trkpt><trkpt lat="44.9805983" lon="8.2399283"><ele>174.0</ele><time>2026-03-29T15:32:37.007Z</time></trkpt><trkpt lat="44.98045" lon="8.2398783"><ele>174.0</ele><time>2026-03-29T15:32:38.006Z</time></trkpt><trkpt lat="44.98031" lon="8.2398267"><ele>174.0</ele><time>2026-03-29T15:32:39.003Z</time></trkpt><trkpt lat="44.9801833" lon="8.2397667"><ele>174.0</ele><time>2026-03-29T15:32:40.004Z</time></trkpt><trkpt lat="44.9800617" lon="8.2397033"><ele>174.0</ele><time>2026-03-29T15:32:41.009Z</time></trkpt><trkpt lat="44.9799383" lon="8.2396517"><ele>171.5</ele><time>2026-03-29T15:32:42.003Z</time></trkpt><trkpt lat="44.979805" lon="8.239615"><ele>169.0</ele><time>2026-03-29T15:32:43.007Z</time></trkpt><trkpt lat="44.979665" lon="8.239585"><ele>166.5</ele><time>2026-03-29T15:32:44.001Z</time></trkpt><trkpt lat="44.9795317" lon="8.2395533"><ele>164.0</ele><time>2026-03-29T15:32:45.005Z</time></trkpt><trkpt lat="44.9794017" lon="8.2395117"><ele>164.0</ele><time>2026-03-29T15:32:46.003Z</time></trkpt><trkpt lat="44.9792783" lon="8.2394667"><ele>164.0</ele><time>2026-03-29T15:32:47Z</time></trkpt><trkpt lat="44.9791583" lon="8.2394233"><ele>164.0</ele><time>2026-03-29T15:32:48.004Z</time></trkpt><trkpt lat="44.9790417" lon="8.2393767"><ele>164.0</ele><time>2026-03-29T15:32:49.008Z</time></trkpt><trkpt lat="44.9789267" lon="8.2393317"><ele>164.75</ele><time>2026-03-29T15:32:50.004Z</time></trkpt><trkpt lat="44.978805" lon="8.2392883"><ele>165.5</ele><time>2026-03-29T15:32:51.001Z</time></trkpt><trkpt lat="44.9786817" lon="8.239245"><ele>166.25</ele><time>2026-03-29T15:32:52.007Z</time></trkpt><trkpt lat="44.9785567" lon="8.2391983"><ele>167.0</ele><time>2026-03-29T15:32:53.007Z</time></trkpt><trkpt lat="44.9784317" lon="8.2391467"><ele>167.75</ele><time>2026-03-29T15:32:54.003Z</time></trkpt><trkpt lat="44.9783033" lon="8.239095"><ele>168.5</ele><time>2026-03-29T15:32:55.009Z</time></trkpt><trkpt lat="44.9781733" lon="8.2390433"><ele>169.25</ele><time>2026-03-29T15:32:56.004Z</time></trkpt><trkpt lat="44.9780417" lon="8.238995"><ele>170.0</ele><time>2026-03-29T15:32:57.005Z</time></trkpt><trkpt lat="44.97791" lon="8.238955"><ele>168.0</ele><time>2026-03-29T15:32:58.006Z</time></trkpt><trkpt lat="44.977785" lon="8.238915"><ele>166.0</ele><time>2026-03-29T15:32:59.007Z</time></trkpt><trkpt lat="44.9776633" lon="8.2388783"><ele>164.0</ele><time>2026-03-29T15:33:00.012Z</time></trkpt><trkpt lat="44.97754" lon="8.23885"><ele>162.0</ele><time>2026-03-29T15:33:01.006Z</time></trkpt><trkpt lat="44.9774083" lon="8.2388283"><ele>162.0</ele><time>2026-03-29T15:33:02.005Z</time></trkpt><trkpt lat="44.9772767" lon="8.2388067"><ele>162.0</ele><time>2026-03-29T15:33:03.013Z</time></trkpt><trkpt lat="44.977145" lon="8.2387817"><ele>162.0</ele><time>2026-03-29T15:33:04.008Z</time></trkpt><trkpt lat="44.977015" lon="8.23876"><ele>162.0</ele><time>2026-03-29T15:33:05.001Z</time></trkpt><trkpt lat="44.976895" lon="8.2387383"><ele>162.0</ele><time>2026-03-29T15:33:06.003Z</time></trkpt><trkpt lat="44.97678" lon="8.2387183"><ele>162.0</ele><time>2026-03-29T15:33:07.004Z</time></trkpt><trkpt lat="44.97667" lon="8.238695"><ele>162.0</ele><time>2026-03-29T15:33:08.002Z</time></trkpt><trkpt lat="44.9765483" lon="8.238675"><ele>162.0</ele><time>2026-03-29T15:33:09.004Z</time></trkpt><trkpt lat="44.9764283" lon="8.2386467"><ele>162.0</ele><time>2026-03-29T15:33:10.009Z</time></trkpt><trkpt lat="44.9763033" lon="8.2386233"><ele>162.0</ele><time>2026-03-29T15:33:11.004Z</time></trkpt><trkpt lat="44.97617" lon="8.2385967"><ele>162.0</ele><time>2026-03-29T15:33:12.003Z</time></trkpt><trkpt lat="44.976035" lon="8.23857"><ele>162.0</ele><time>2026-03-29T15:33:13.004Z</time></trkpt><trkpt lat="44.975895" lon="8.2385367"><ele>161.25</ele><time>2026-03-29T15:33:14.006Z</time></trkpt><trkpt lat="44.9757533" lon="8.238515"><ele>160.5</ele><time>2026-03-29T15:33:15.008Z</time></trkpt><trkpt lat="44.9756133" lon="8.238495"><ele>159.75</ele><time>2026-03-29T15:33:16.004Z</time></trkpt><trkpt lat="44.97548" lon="8.238475"><ele>159.0</ele><time>2026-03-29T15:33:17.005Z</time></trkpt><trkpt lat="44.9753517" lon="8.2384617"><ele>159.0</ele><time>2026-03-29T15:33:18.006Z</time></trkpt><trkpt lat="44.975235" lon="8.238445"><ele>159.0</ele><time>2026-03-29T15:33:19.003Z</time></trkpt><trkpt lat="44.975125" lon="8.2384417"><ele>159.0</ele><time>2026-03-29T15:33:20Z</time></trkpt><trkpt lat="44.9750117" lon="8.2384483"><ele>159.0</ele><time>2026-03-29T15:33:21.007Z</time></trkpt><trkpt lat="44.9748933" lon="8.23845"><ele>157.5</ele><time>2026-03-29T15:33:22.005Z</time></trkpt><trkpt lat="44.974775" lon="8.23841"><ele>156.0</ele><time>2026-03-29T15:33:23.003Z</time></trkpt><trkpt lat="44.9746533" lon="8.2383483"><ele>154.5</ele><time>2026-03-29T15:33:24.007Z</time></trkpt><trkpt lat="44.9745267" lon="8.23829"><ele>153.0</ele><time>2026-03-29T15:33:25.012Z</time></trkpt><trkpt lat="44.9743917" lon="8.2382233"><ele>153.0</ele><time>2026-03-29T15:33:26.008Z</time></trkpt><trkpt lat="44.9742683" lon="8.2381367"><ele>153.0</ele><time>2026-03-29T15:33:27.004Z</time></trkpt><trkpt lat="44.974155" lon="8.23803"><ele>153.0</ele><time>2026-03-29T15:33:28.001Z</time></trkpt><trkpt lat="44.9740533" lon="8.2379283"><ele>153.0</ele><time>2026-03-29T15:33:29.003Z</time></trkpt><trkpt lat="44.9739533" lon="8.2378483"><ele>151.5</ele><time>2026-03-29T15:33:30.005Z</time></trkpt><trkpt lat="44.973855" lon="8.237795"><ele>150.0</ele><time>2026-03-29T15:33:31.013Z</time></trkpt><trkpt lat="44.973745" lon="8.2377617"><ele>148.5</ele><time>2026-03-29T15:33:32.002Z</time></trkpt><trkpt lat="44.9736283" lon="8.2377467"><ele>147.0</ele><time>2026-03-29T15:33:33.004Z</time></trkpt><trkpt lat="44.973505" lon="8.2377433"><ele>147.0</ele><time>2026-03-29T15:33:34.008Z</time></trkpt><trkpt lat="44.97338" lon="8.2377467"><ele>147.0</ele><time>2026-03-29T15:33:35.008Z</time></trkpt><trkpt lat="44.97326" lon="8.2377567"><ele>147.0</ele><time>2026-03-29T15:33:36.004Z</time></trkpt><trkpt lat="44.9731417" lon="8.2377717"><ele>147.0</ele><time>2026-03-29T15:33:37.002Z</time></trkpt><trkpt lat="44.9730217" lon="8.237795"><ele>147.0</ele><time>2026-03-29T15:33:38.006Z</time></trkpt><trkpt lat="44.9729" lon="8.2378283"><ele>147.0</ele><time>2026-03-29T15:33:39.006Z</time></trkpt><trkpt lat="44.9727717" lon="8.2378617"><ele>147.0</ele><time>2026-03-29T15:33:40.002Z</time></trkpt><trkpt lat="44.9726383" lon="8.2379033"><ele>147.0</ele><time>2026-03-29T15:33:41.003Z</time></trkpt><trkpt lat="44.972505" lon="8.2379367"><ele>147.25</ele><time>2026-03-29T15:33:42.004Z</time></trkpt><trkpt lat="44.9723767" lon="8.23796"><ele>147.5</ele><time>2026-03-29T15:33:43.007Z</time></trkpt><trkpt lat="44.9722483" lon="8.2379817"><ele>147.75</ele><time>2026-03-29T15:33:44.008Z</time></trkpt><trkpt lat="44.9721167" lon="8.2379833"><ele>148.0</ele><time>2026-03-29T15:33:45.001Z</time></trkpt><trkpt lat="44.9719833" lon="8.2379833"><ele>148.0</ele><time>2026-03-29T15:33:46.002Z</time></trkpt><trkpt lat="44.9718467" lon="8.2379767"><ele>148.0</ele><time>2026-03-29T15:33:47.004Z</time></trkpt><trkpt lat="44.97171" lon="8.2379583"><ele>148.0</ele><time>2026-03-29T15:33:48.006Z</time></trkpt><trkpt lat="44.9715717" lon="8.2379333"><ele>148.0</ele><time>2026-03-29T15:33:49.003Z</time></trkpt><trkpt lat="44.97143" lon="8.2379017"><ele>147.75</ele><time>2026-03-29T15:33:50.002Z</time></trkpt><trkpt lat="44.9712883" lon="8.2378583"><ele>147.5</ele><time>2026-03-29T15:33:51.004Z</time></trkpt><trkpt lat="44.97115" lon="8.2377983"><ele>147.25</ele><time>2026-03-29T15:33:52.001Z</time></trkpt><trkpt lat="44.971005" lon="8.237755"><ele>147.0</ele><time>2026-03-29T15:33:53.001Z</time></trkpt><trkpt lat="44.970865" lon="8.2377033"><ele>146.25</ele><time>2026-03-29T15:33:54.002Z</time></trkpt><trkpt lat="44.9707267" lon="8.2376383"><ele>145.5</ele><time>2026-03-29T15:33:55.004Z</time></trkpt><trkpt lat="44.9705867" lon="8.23757"><ele>144.75</ele><time>2026-03-29T15:33:55.999Z</time></trkpt><trkpt lat="44.9704467" lon="8.2375"><ele>144.0</ele><time>2026-03-29T15:33:57.001Z</time></trkpt><trkpt lat="44.9703033" lon="8.23743"><ele>144.0</ele><time>2026-03-29T15:33:58.001Z</time></trkpt><trkpt lat="44.9701567" lon="8.2373617"><ele>144.0</ele><time>2026-03-29T15:33:59.005Z</time></trkpt><trkpt lat="44.9700083" lon="8.2372967"><ele>144.0</ele><time>2026-03-29T15:34:00.005Z</time></trkpt><trkpt lat="44.969855" lon="8.2372367"><ele>142.0</ele><time>2026-03-29T15:34:01.005Z</time></trkpt><trkpt lat="44.9697033" lon="8.2371783"><ele>140.0</ele><time>2026-03-29T15:34:02.004Z</time></trkpt><trkpt lat="44.9695483" lon="8.2371267"><ele>138.0</ele><time>2026-03-29T15:34:03.006Z</time></trkpt><trkpt lat="44.96939" lon="8.23708"><ele>138.0</ele><time>2026-03-29T15:34:04.007Z</time></trkpt><trkpt lat="44.9692317" lon="8.2370417"><ele>138.0</ele><time>2026-03-29T15:34:05.004Z</time></trkpt><trkpt lat="44.969075" lon="8.2370183"><ele>138.0</ele><time>2026-03-29T15:34:06.005Z</time></trkpt><trkpt lat="44.9689183" lon="8.237"><ele>136.33333333333334</ele><time>2026-03-29T15:34:07.007Z</time></trkpt><trkpt lat="44.9687633" lon="8.2369883"><ele>134.66666666666669</ele><time>2026-03-29T15:34:08.003Z</time></trkpt><trkpt lat="44.96861" lon="8.2369783"><ele>133.0</ele><time>2026-03-29T15:34:09.005Z</time></trkpt><trkpt lat="44.9684567" lon="8.2369867"><ele>132.66666666666669</ele><time>2026-03-29T15:34:10.005Z</time></trkpt><trkpt lat="44.9683" lon="8.2369933"><ele>132.33333333333334</ele><time>2026-03-29T15:34:11Z</time></trkpt><trkpt lat="44.9681467" lon="8.23698"><ele>132.0</ele><time>2026-03-29T15:34:12.003Z</time></trkpt><trkpt lat="44.9680067" lon="8.23695"><ele>132.0</ele><time>2026-03-29T15:34:13.005Z</time></trkpt><trkpt lat="44.9678733" lon="8.2369117"><ele>132.0</ele><time>2026-03-29T15:34:14.005Z</time></trkpt><trkpt lat="44.96774" lon="8.2368933"><ele>132.0</ele><time>2026-03-29T15:34:15.002Z</time></trkpt><trkpt lat="44.967605" lon="8.2368933"><ele>132.0</ele><time>2026-03-29T15:34:16.006Z</time></trkpt><trkpt lat="44.96747" lon="8.236895"><ele>132.75</ele><time>2026-03-29T15:34:17.005Z</time></trkpt><trkpt lat="44.96733" lon="8.2368917"><ele>133.5</ele><time>2026-03-29T15:34:18.004Z</time></trkpt><trkpt lat="44.9671883" lon="8.236915"><ele>134.25</ele><time>2026-03-29T15:34:19.006Z</time></trkpt><trkpt lat="44.9670533" lon="8.23695"><ele>135.0</ele><time>2026-03-29T15:34:20.002Z</time></trkpt><trkpt lat="44.96692" lon="8.2369783"><ele>135.0</ele><time>2026-03-29T15:34:21.006Z</time></trkpt><trkpt lat="44.9667967" lon="8.2369983"><ele>135.0</ele><time>2026-03-29T15:34:22.004Z</time></trkpt><trkpt lat="44.966685" lon="8.23701"><ele>135.0</ele><time>2026-03-29T15:34:23.005Z</time></trkpt><trkpt lat="44.96658" lon="8.2370083"><ele>135.0</ele><time>2026-03-29T15:34:24.004Z</time></trkpt><trkpt lat="44.9664833" lon="8.2369933"><ele>135.0</ele><time>2026-03-29T15:34:25.008Z</time></trkpt><trkpt lat="44.9664" lon="8.2369833"><ele>135.0</ele><time>2026-03-29T15:34:26.003Z</time></trkpt><trkpt lat="44.96633" lon="8.2369733"><ele>135.0</ele><time>2026-03-29T15:34:27.005Z</time></trkpt><trkpt lat="44.9662383" lon="8.23698"><ele>135.0</ele><time>2026-03-29T15:34:29.007Z</time></trkpt><trkpt lat="44.9661933" lon="8.2370517"><ele>135.0</ele><time>2026-03-29T15:34:31.004Z</time></trkpt><trkpt lat="44.966225" lon="8.2371883"><ele>135.0</ele><time>2026-03-29T15:34:33.002Z</time></trkpt><trkpt lat="44.9662817" lon="8.2372717"><ele>135.0</ele><time>2026-03-29T15:34:34.011Z</time></trkpt><trkpt lat="44.96636" lon="8.237375"><ele>136.0</ele><time>2026-03-29T15:34:35.002Z</time></trkpt><trkpt lat="44.9664333" lon="8.2374883"><ele>137.0</ele><time>2026-03-29T15:34:36.002Z</time></trkpt><trkpt lat="44.9665133" lon="8.2376367"><ele>138.0</ele><time>2026-03-29T15:34:37.007Z</time></trkpt><trkpt lat="44.9665817" lon="8.2377717"><ele>139.0</ele><time>2026-03-29T15:34:38.008Z</time></trkpt><trkpt lat="44.96665" lon="8.2379083"><ele>138.6</ele><time>2026-03-29T15:34:39.005Z</time></trkpt><trkpt lat="44.9667167" lon="8.2380533"><ele>138.2</ele><time>2026-03-29T15:34:40.004Z</time></trkpt><trkpt lat="44.9667783" lon="8.2381867"><ele>137.79999999999998</ele><time>2026-03-29T15:34:41.006Z</time></trkpt><trkpt lat="44.96684" lon="8.238315"><ele>137.4</ele><time>2026-03-29T15:34:42.004Z</time></trkpt><trkpt lat="44.9669" lon="8.2384317"><ele>137.0</ele><time>2026-03-29T15:34:43.007Z</time></trkpt><trkpt lat="44.9669717" lon="8.23854"><ele>137.0</ele><time>2026-03-29T15:34:44.005Z</time></trkpt><trkpt lat="44.9670633" lon="8.2386383"><ele>137.0</ele><time>2026-03-29T15:34:45.006Z</time></trkpt><trkpt lat="44.9671683" lon="8.2387233"><ele>137.0</ele><time>2026-03-29T15:34:46.012Z</time></trkpt><trkpt lat="44.96728" lon="8.23881"><ele>137.0</ele><time>2026-03-29T15:34:47.002Z</time></trkpt><trkpt lat="44.967395" lon="8.2388933"><ele>138.0</ele><time>2026-03-29T15:34:48.005Z</time></trkpt><trkpt lat="44.9675083" lon="8.2389933"><ele>139.0</ele><time>2026-03-29T15:34:49.005Z</time></trkpt><trkpt lat="44.96763" lon="8.239075"><ele>140.0</ele><time>2026-03-29T15:34:50.006Z</time></trkpt><trkpt lat="44.9677467" lon="8.2391617"><ele>141.0</ele><time>2026-03-29T15:34:51.005Z</time></trkpt><trkpt lat="44.967855" lon="8.2392317"><ele>141.33333333333334</ele><time>2026-03-29T15:34:52.006Z</time></trkpt><trkpt lat="44.96795" lon="8.2392917"><ele>141.66666666666666</ele><time>2026-03-29T15:34:53.001Z</time></trkpt><trkpt lat="44.9680417" lon="8.2393467"><ele>142.0</ele><time>2026-03-29T15:34:54.001Z</time></trkpt><trkpt lat="44.96812" lon="8.2393933"><ele>142.33333333333331</ele><time>2026-03-29T15:34:55.004Z</time></trkpt><trkpt lat="44.9681917" lon="8.239435"><ele>142.66666666666666</ele><time>2026-03-29T15:34:56.004Z</time></trkpt><trkpt lat="44.968265" lon="8.2394683"><ele>143.0</ele><time>2026-03-29T15:34:57.006Z</time></trkpt><trkpt lat="44.968355" lon="8.2395383"><ele>143.16666666666666</ele><time>2026-03-29T15:34:59.006Z</time></trkpt><trkpt lat="44.9684217" lon="8.239605"><ele>143.33333333333331</ele><time>2026-03-29T15:35:02.006Z</time></trkpt><trkpt lat="44.96843" lon="8.239695"><ele>143.5</ele><time>2026-03-29T15:35:04.004Z</time></trkpt><trkpt lat="44.968415" lon="8.2397833"><ele>143.66666666666666</ele><time>2026-03-29T15:35:05.006Z</time></trkpt><trkpt lat="44.9684" lon="8.239895"><ele>143.83333333333334</ele><time>2026-03-29T15:35:06.003Z</time></trkpt><trkpt lat="44.9683733" lon="8.2400267"><ele>144.0</ele><time>2026-03-29T15:35:07.006Z</time></trkpt><trkpt lat="44.968365" lon="8.2402083"><ele>144.8</ele><time>2026-03-29T15:35:08.006Z</time></trkpt><trkpt lat="44.9683533" lon="8.2403683"><ele>145.60000000000002</ele><time>2026-03-29T15:35:09.004Z</time></trkpt><trkpt lat="44.96834" lon="8.2405183"><ele>146.4</ele><time>2026-03-29T15:35:10.003Z</time></trkpt><trkpt lat="44.9683217" lon="8.2406467"><ele>147.20000000000002</ele><time>2026-03-29T15:35:11.003Z</time></trkpt><trkpt lat="44.9683067" lon="8.2407667"><ele>148.0</ele><time>2026-03-29T15:35:12.005Z</time></trkpt><trkpt lat="44.9682883" lon="8.2408667"><ele>148.5</ele><time>2026-03-29T15:35:13.009Z</time></trkpt><trkpt lat="44.96828" lon="8.240995"><ele>149.0</ele><time>2026-03-29T15:35:15.004Z</time></trkpt><trkpt lat="44.968255" lon="8.2410817"><ele>149.5</ele><time>2026-03-29T15:35:18.004Z</time></trkpt><trkpt lat="44.9682133" lon="8.241155"><ele>150.0</ele><time>2026-03-29T15:35:22.004Z</time></trkpt><trkpt lat="44.9682383" lon="8.2410483"><ele>150.5</ele><time>2026-03-29T15:35:32.006Z</time></trkpt><trkpt lat="44.9682633" lon="8.2409117"><ele>151.0</ele><time>2026-03-29T15:35:34.007Z</time></trkpt><trkpt lat="44.9682967" lon="8.2407367"><ele>151.0</ele><time>2026-03-29T15:35:36.002Z</time></trkpt><trkpt lat="44.968315" lon="8.2406383"><ele>151.0</ele><time>2026-03-29T15:35:37.003Z</time></trkpt><trkpt lat="44.9683267" lon="8.2405283"><ele>151.0</ele><time>2026-03-29T15:35:38.007Z</time></trkpt><trkpt lat="44.9683333" lon="8.2404167"><ele>151.0</ele><time>2026-03-29T15:35:39.007Z</time></trkpt><trkpt lat="44.96834" lon="8.2402967"><ele>151.0</ele><time>2026-03-29T15:35:40.005Z</time></trkpt><trkpt lat="44.9683467" lon="8.2401783"><ele>151.0</ele><time>2026-03-29T15:35:41.001Z</time></trkpt><trkpt lat="44.9683583" lon="8.240065"><ele>149.6</ele><time>2026-03-29T15:35:42.002Z</time></trkpt><trkpt lat="44.968375" lon="8.2399617"><ele>148.2</ele><time>2026-03-29T15:35:43.006Z</time></trkpt><trkpt lat="44.9683967" lon="8.23981"><ele>146.8</ele><time>2026-03-29T15:35:45.006Z</time></trkpt><trkpt lat="44.9684067" lon="8.2397217"><ele>145.4</ele><time>2026-03-29T15:35:47.002Z</time></trkpt><trkpt lat="44.96847" lon="8.2396217"><ele>144.0</ele><time>2026-03-29T15:35:56.004Z</time></trkpt><trkpt lat="44.9685767" lon="8.2396833"><ele>144.0</ele><time>2026-03-29T15:35:58.004Z</time></trkpt><trkpt lat="44.9686683" lon="8.2397483"><ele>144.0</ele><time>2026-03-29T15:35:59.007Z</time></trkpt><trkpt lat="44.9687817" lon="8.2398217"><ele>144.0</ele><time>2026-03-29T15:36:00.009Z</time></trkpt><trkpt lat="44.968885" lon="8.239885"><ele>144.0</ele><time>2026-03-29T15:36:01.015Z</time></trkpt><trkpt lat="44.9689817" lon="8.23994"><ele>144.0</ele><time>2026-03-29T15:36:02.006Z</time></trkpt><trkpt lat="44.969085" lon="8.2399933"><ele>144.0</ele><time>2026-03-29T15:36:03.009Z</time></trkpt><trkpt lat="44.9691883" lon="8.2400383"><ele>144.0</ele><time>2026-03-29T15:36:04.007Z</time></trkpt><trkpt lat="44.9692917" lon="8.2400783"><ele>144.0</ele><time>2026-03-29T15:36:05.008Z</time></trkpt><trkpt lat="44.96939" lon="8.2401133"><ele>144.0</ele><time>2026-03-29T15:36:06.005Z</time></trkpt><trkpt lat="44.9694833" lon="8.240145"><ele>144.0</ele><time>2026-03-29T15:36:07.005Z</time></trkpt><trkpt lat="44.9695767" lon="8.2401783"><ele>142.6</ele><time>2026-03-29T15:36:08.005Z</time></trkpt><trkpt lat="44.9696733" lon="8.24022"><ele>141.2</ele><time>2026-03-29T15:36:09.007Z</time></trkpt><trkpt lat="44.9697683" lon="8.24027"><ele>139.79999999999998</ele><time>2026-03-29T15:36:10.003Z</time></trkpt><trkpt lat="44.96986" lon="8.2403283"><ele>138.4</ele><time>2026-03-29T15:36:11.007Z</time></trkpt><trkpt lat="44.9699533" lon="8.2403933"><ele>137.0</ele><time>2026-03-29T15:36:12.005Z</time></trkpt><trkpt lat="44.9700467" lon="8.2404683"><ele>136.79999999999998</ele><time>2026-03-29T15:36:13.005Z</time></trkpt><trkpt lat="44.9701333" lon="8.240555"><ele>136.6</ele><time>2026-03-29T15:36:14.005Z</time></trkpt><trkpt lat="44.97022" lon="8.2406483"><ele>136.39999999999998</ele><time>2026-03-29T15:36:15.006Z</time></trkpt><trkpt lat="44.9702983" lon="8.2407433"><ele>136.2</ele><time>2026-03-29T15:36:16.007Z</time></trkpt><trkpt lat="44.9703717" lon="8.240845"><ele>136.0</ele><time>2026-03-29T15:36:17.003Z</time></trkpt><trkpt lat="44.970445" lon="8.2409517"><ele>136.0</ele><time>2026-03-29T15:36:18.008Z</time></trkpt><trkpt lat="44.9705167" lon="8.2410633"><ele>136.0</ele><time>2026-03-29T15:36:19.005Z</time></trkpt><trkpt lat="44.9705917" lon="8.2411817"><ele>136.0</ele><time>2026-03-29T15:36:20.005Z</time></trkpt><trkpt lat="44.9706667" lon="8.24131"><ele>136.0</ele><time>2026-03-29T15:36:21.008Z</time></trkpt><trkpt lat="44.9707417" lon="8.241445"><ele>136.5</ele><time>2026-03-29T15:36:22.008Z</time></trkpt><trkpt lat="44.9708167" lon="8.241585"><ele>137.0</ele><time>2026-03-29T15:36:23.002Z</time></trkpt><trkpt lat="44.9708917" lon="8.2417317"><ele>137.5</ele><time>2026-03-29T15:36:24.01Z</time></trkpt><trkpt lat="44.9709667" lon="8.2418817"><ele>138.0</ele><time>2026-03-29T15:36:25.006Z</time></trkpt><trkpt lat="44.9710417" lon="8.24204"><ele>138.0</ele><time>2026-03-29T15:36:26.005Z</time></trkpt><trkpt lat="44.97112" lon="8.2422067"><ele>138.0</ele><time>2026-03-29T15:36:27.012Z</time></trkpt><trkpt lat="44.9712017" lon="8.242385"><ele>138.0</ele><time>2026-03-29T15:36:28.005Z</time></trkpt><trkpt lat="44.971285" lon="8.2425683"><ele>138.0</ele><time>2026-03-29T15:36:29.002Z</time></trkpt><trkpt lat="44.9713667" lon="8.2427467"><ele>138.75</ele><time>2026-03-29T15:36:30.003Z</time></trkpt><trkpt lat="44.9714483" lon="8.2429233"><ele>139.5</ele><time>2026-03-29T15:36:31.005Z</time></trkpt><trkpt lat="44.9715317" lon="8.2431"><ele>140.25</ele><time>2026-03-29T15:36:32.009Z</time></trkpt><trkpt lat="44.9716133" lon="8.2432767"><ele>141.0</ele><time>2026-03-29T15:36:33.005Z</time></trkpt><trkpt lat="44.97169" lon="8.24345"><ele>140.75</ele><time>2026-03-29T15:36:34.002Z</time></trkpt><trkpt lat="44.9717667" lon="8.2436183"><ele>140.5</ele><time>2026-03-29T15:36:35.01Z</time></trkpt><trkpt lat="44.9718417" lon="8.2437817"><ele>140.25</ele><time>2026-03-29T15:36:36.007Z</time></trkpt><trkpt lat="44.971915" lon="8.2439433"><ele>140.0</ele><time>2026-03-29T15:36:37.008Z</time></trkpt><trkpt lat="44.972" lon="8.2441067"><ele>140.0</ele><time>2026-03-29T15:36:38.011Z</time></trkpt><trkpt lat="44.9720967" lon="8.2442817"><ele>140.0</ele><time>2026-03-29T15:36:39.004Z</time></trkpt><trkpt lat="44.9722033" lon="8.2444733"><ele>140.0</ele><time>2026-03-29T15:36:40.005Z</time></trkpt><trkpt lat="44.9723183" lon="8.2446767"><ele>141.33333333333331</ele><time>2026-03-29T15:36:41.005Z</time></trkpt><trkpt lat="44.9724317" lon="8.2448783"><ele>142.66666666666666</ele><time>2026-03-29T15:36:42.009Z</time></trkpt><trkpt lat="44.97254" lon="8.2450667"><ele>144.0</ele><time>2026-03-29T15:36:43.008Z</time></trkpt><trkpt lat="44.9726433" lon="8.2452417"><ele>144.0</ele><time>2026-03-29T15:36:44.006Z</time></trkpt><trkpt lat="44.97274" lon="8.2454083"><ele>144.0</ele><time>2026-03-29T15:36:45.007Z</time></trkpt><trkpt lat="44.972835" lon="8.245575"><ele>144.0</ele><time>2026-03-29T15:36:46.005Z</time></trkpt><trkpt lat="44.9729317" lon="8.2457517"><ele>143.66666666666666</ele><time>2026-03-29T15:36:47.011Z</time></trkpt><trkpt lat="44.9730317" lon="8.2459367"><ele>143.33333333333331</ele><time>2026-03-29T15:36:48.007Z</time></trkpt><trkpt lat="44.97314" lon="8.2461283"><ele>143.0</ele><time>2026-03-29T15:36:49.003Z</time></trkpt><trkpt lat="44.9732517" lon="8.2463183"><ele>143.33333333333331</ele><time>2026-03-29T15:36:50.006Z</time></trkpt><trkpt lat="44.97337" lon="8.2465117"><ele>143.66666666666666</ele><time>2026-03-29T15:36:51.006Z</time></trkpt><trkpt lat="44.9734983" lon="8.2467083"><ele>144.0</ele><time>2026-03-29T15:36:52.005Z</time></trkpt><trkpt lat="44.9736317" lon="8.2468933"><ele>144.0</ele><time>2026-03-29T15:36:53.005Z</time></trkpt><trkpt lat="44.973765" lon="8.247065"><ele>144.0</ele><time>2026-03-29T15:36:54.007Z</time></trkpt><trkpt lat="44.97389" lon="8.2472283"><ele>144.0</ele><time>2026-03-29T15:36:55.003Z</time></trkpt><trkpt lat="44.9740083" lon="8.2473817"><ele>144.5</ele><time>2026-03-29T15:36:56.003Z</time></trkpt><trkpt lat="44.974115" lon="8.24753"><ele>145.0</ele><time>2026-03-29T15:36:57.004Z</time></trkpt><trkpt lat="44.97422" lon="8.24767"><ele>145.5</ele><time>2026-03-29T15:36:58.004Z</time></trkpt><trkpt lat="44.9743233" lon="8.2478083"><ele>146.0</ele><time>2026-03-29T15:36:59.006Z</time></trkpt><trkpt lat="44.9744267" lon="8.2479567"><ele>145.66666666666666</ele><time>2026-03-29T15:37:00.009Z</time></trkpt><trkpt lat="44.9745367" lon="8.248105"><ele>145.33333333333334</ele><time>2026-03-29T15:37:01.009Z</time></trkpt><trkpt lat="44.9746467" lon="8.24826"><ele>145.0</ele><time>2026-03-29T15:37:02.007Z</time></trkpt><trkpt lat="44.9747633" lon="8.2484233"><ele>145.0</ele><time>2026-03-29T15:37:03.009Z</time></trkpt><trkpt lat="44.974885" lon="8.248595"><ele>145.0</ele><time>2026-03-29T15:37:04.008Z</time></trkpt><trkpt lat="44.9750083" lon="8.24877"><ele>145.0</ele><time>2026-03-29T15:37:05.004Z</time></trkpt><trkpt lat="44.9751367" lon="8.248935"><ele>144.66666666666669</ele><time>2026-03-29T15:37:06.005Z</time></trkpt><trkpt lat="44.9752683" lon="8.2490817"><ele>144.33333333333334</ele><time>2026-03-29T15:37:07.009Z</time></trkpt><trkpt lat="44.9754" lon="8.2492083"><ele>144.0</ele><time>2026-03-29T15:37:08.004Z</time></trkpt><trkpt lat="44.975525" lon="8.2493267"><ele>144.0</ele><time>2026-03-29T15:37:09.01Z</time></trkpt><trkpt lat="44.975645" lon="8.2494417"><ele>144.0</ele><time>2026-03-29T15:37:10.003Z</time></trkpt><trkpt lat="44.975755" lon="8.2495733"><ele>144.0</ele><time>2026-03-29T15:37:11.005Z</time></trkpt><trkpt lat="44.9758517" lon="8.24972"><ele>144.0</ele><time>2026-03-29T15:37:12.004Z</time></trkpt><trkpt lat="44.9759317" lon="8.2498883"><ele>144.5</ele><time>2026-03-29T15:37:13.003Z</time></trkpt><trkpt lat="44.976" lon="8.2500683"><ele>145.0</ele><time>2026-03-29T15:37:14.005Z</time></trkpt><trkpt lat="44.9760567" lon="8.2502567"><ele>145.5</ele><time>2026-03-29T15:37:15.009Z</time></trkpt><trkpt lat="44.9760983" lon="8.25045"><ele>146.0</ele><time>2026-03-29T15:37:16.005Z</time></trkpt><trkpt lat="44.97612" lon="8.25065"><ele>146.0</ele><time>2026-03-29T15:37:17.008Z</time></trkpt><trkpt lat="44.97613" lon="8.2508483"><ele>146.0</ele><time>2026-03-29T15:37:18.003Z</time></trkpt><trkpt lat="44.9761333" lon="8.251045"><ele>146.0</ele><time>2026-03-29T15:37:19.001Z</time></trkpt><trkpt lat="44.976125" lon="8.25123"><ele>146.0</ele><time>2026-03-29T15:37:20.007Z</time></trkpt><trkpt lat="44.9761167" lon="8.251415"><ele>145.75</ele><time>2026-03-29T15:37:21.005Z</time></trkpt><trkpt lat="44.9761117" lon="8.2516"><ele>145.5</ele><time>2026-03-29T15:37:22.007Z</time></trkpt><trkpt lat="44.9761233" lon="8.25178"><ele>145.25</ele><time>2026-03-29T15:37:23.003Z</time></trkpt><trkpt lat="44.976155" lon="8.2519583"><ele>145.0</ele><time>2026-03-29T15:37:24.005Z</time></trkpt><trkpt lat="44.9761967" lon="8.2521283"><ele>145.0</ele><time>2026-03-29T15:37:25.004Z</time></trkpt><trkpt lat="44.9762433" lon="8.2522867"><ele>145.0</ele><time>2026-03-29T15:37:26.008Z</time></trkpt><trkpt lat="44.97629" lon="8.2524317"><ele>145.0</ele><time>2026-03-29T15:37:27.006Z</time></trkpt><trkpt lat="44.9763333" lon="8.2525683"><ele>145.0</ele><time>2026-03-29T15:37:28.004Z</time></trkpt><trkpt lat="44.9763633" lon="8.252695"><ele>145.0</ele><time>2026-03-29T15:37:29.006Z</time></trkpt><trkpt lat="44.9763817" lon="8.2527983"><ele>145.2</ele><time>2026-03-29T15:37:30.006Z</time></trkpt><trkpt lat="44.976395" lon="8.2528867"><ele>145.4</ele><time>2026-03-29T15:37:31.006Z</time></trkpt><trkpt lat="44.976395" lon="8.2530067"><ele>145.6</ele><time>2026-03-29T15:37:33.006Z</time></trkpt><trkpt lat="44.9763033" lon="8.2530933"><ele>145.8</ele><time>2026-03-29T15:37:36.006Z</time></trkpt><trkpt lat="44.976175" lon="8.2531433"><ele>146.0</ele><time>2026-03-29T15:37:38.007Z</time></trkpt><trkpt lat="44.976075" lon="8.2531667"><ele>146.0</ele><time>2026-03-29T15:37:39.013Z</time></trkpt><trkpt lat="44.9759683" lon="8.253185"><ele>146.0</ele><time>2026-03-29T15:37:40.006Z</time></trkpt><trkpt lat="44.97587" lon="8.2532033"><ele>146.0</ele><time>2026-03-29T15:37:41.008Z</time></trkpt><trkpt lat="44.97577" lon="8.2532183"><ele>146.0</ele><time>2026-03-29T15:37:42.008Z</time></trkpt><trkpt lat="44.9756667" lon="8.253235"><ele>146.0</ele><time>2026-03-29T15:37:43.003Z</time></trkpt><trkpt lat="44.9755567" lon="8.2532483"><ele>147.5</ele><time>2026-03-29T15:37:44.006Z</time></trkpt><trkpt lat="44.9754333" lon="8.2532633"><ele>149.0</ele><time>2026-03-29T15:37:45.004Z</time></trkpt><trkpt lat="44.9753083" lon="8.2532717"><ele>150.5</ele><time>2026-03-29T15:37:46.005Z</time></trkpt><trkpt lat="44.9751833" lon="8.2532833"><ele>152.0</ele><time>2026-03-29T15:37:47.006Z</time></trkpt><trkpt lat="44.9750567" lon="8.2532917"><ele>153.5</ele><time>2026-03-29T15:37:48.006Z</time></trkpt><trkpt lat="44.974925" lon="8.2532983"><ele>155.0</ele><time>2026-03-29T15:37:49.002Z</time></trkpt><trkpt lat="44.974795" lon="8.253305"><ele>156.5</ele><time>2026-03-29T15:37:50.011Z</time></trkpt><trkpt lat="44.9746683" lon="8.253315"><ele>158.0</ele><time>2026-03-29T15:37:51.006Z</time></trkpt><trkpt lat="44.9745567" lon="8.2533067"><ele>158.0</ele><time>2026-03-29T15:37:52.004Z</time></trkpt><trkpt lat="44.9744483" lon="8.2532967"><ele>158.0</ele><time>2026-03-29T15:37:53.006Z</time></trkpt><trkpt lat="44.97434" lon="8.253295"><ele>158.0</ele><time>2026-03-29T15:37:54.006Z</time></trkpt><trkpt lat="44.9742367" lon="8.2532817"><ele>158.0</ele><time>2026-03-29T15:37:55.002Z</time></trkpt><trkpt lat="44.97414" lon="8.25326"><ele>158.0</ele><time>2026-03-29T15:37:56.008Z</time></trkpt><trkpt lat="44.97405" lon="8.2532117"><ele>159.8</ele><time>2026-03-29T15:37:57.007Z</time></trkpt><trkpt lat="44.9739667" lon="8.2531483"><ele>161.60000000000002</ele><time>2026-03-29T15:37:58.004Z</time></trkpt><trkpt lat="44.973885" lon="8.2530733"><ele>163.39999999999998</ele><time>2026-03-29T15:37:59.005Z</time></trkpt><trkpt lat="44.9738017" lon="8.2530017"><ele>165.2</ele><time>2026-03-29T15:38:00.011Z</time></trkpt><trkpt lat="44.9737167" lon="8.25293"><ele>167.0</ele><time>2026-03-29T15:38:01.008Z</time></trkpt><trkpt lat="44.97364" lon="8.25286"><ele>167.16666666666666</ele><time>2026-03-29T15:38:02.004Z</time></trkpt><trkpt lat="44.9735717" lon="8.2527967"><ele>167.33333333333331</ele><time>2026-03-29T15:38:03.005Z</time></trkpt><trkpt lat="44.9735117" lon="8.2527383"><ele>167.5</ele><time>2026-03-29T15:38:04.007Z</time></trkpt><trkpt lat="44.9734517" lon="8.2526817"><ele>167.66666666666666</ele><time>2026-03-29T15:38:05.003Z</time></trkpt><trkpt lat="44.9733967" lon="8.25263"><ele>167.83333333333334</ele><time>2026-03-29T15:38:06.004Z</time></trkpt><trkpt lat="44.9733433" lon="8.2525767"><ele>168.0</ele><time>2026-03-29T15:38:07.008Z</time></trkpt><trkpt lat="44.973245" lon="8.2524767"><ele>171.0</ele><time>2026-03-29T15:38:09.01Z</time></trkpt><trkpt lat="44.97315" lon="8.2523783"><ele>174.0</ele><time>2026-03-29T15:38:11.003Z</time></trkpt><trkpt lat="44.9730617" lon="8.25229"><ele>177.0</ele><time>2026-03-29T15:38:13.007Z</time></trkpt><trkpt lat="44.9729817" lon="8.25221"><ele>180.0</ele><time>2026-03-29T15:38:15.006Z</time></trkpt><trkpt lat="44.9728983" lon="8.2521767"><ele>183.0</ele><time>2026-03-29T15:38:17.01Z</time></trkpt><trkpt lat="44.9728267" lon="8.2522183"><ele>183.0</ele><time>2026-03-29T15:38:19.003Z</time></trkpt><trkpt lat="44.9728567" lon="8.2523583"><ele>183.0</ele><time>2026-03-29T15:38:21.006Z</time></trkpt><trkpt lat="44.97288" lon="8.2524533"><ele>183.0</ele><time>2026-03-29T15:38:22.006Z</time></trkpt><trkpt lat="44.9729333" lon="8.25256"><ele>183.0</ele><time>2026-03-29T15:38:23.002Z</time></trkpt><trkpt lat="44.97298" lon="8.25266"><ele>183.0</ele><time>2026-03-29T15:38:24.004Z</time></trkpt><trkpt lat="44.9730233" lon="8.2527617"><ele>183.0</ele><time>2026-03-29T15:38:25.005Z</time></trkpt><trkpt lat="44.9730633" lon="8.25286"><ele>183.0</ele><time>2026-03-29T15:38:26.007Z</time></trkpt><trkpt lat="44.9731033" lon="8.2529517"><ele>183.0</ele><time>2026-03-29T15:38:27.006Z</time></trkpt><trkpt lat="44.9731417" lon="8.2530367"><ele>183.0</ele><time>2026-03-29T15:38:28.004Z</time></trkpt><trkpt lat="44.9731667" lon="8.2531217"><ele>183.0</ele><time>2026-03-29T15:38:29.005Z</time></trkpt><trkpt lat="44.97319" lon="8.2533017"><ele>183.0</ele><time>2026-03-29T15:38:31.007Z</time></trkpt><trkpt lat="44.9731817" lon="8.2533933"><ele>183.0</ele><time>2026-03-29T15:38:32.008Z</time></trkpt><trkpt lat="44.9731217" lon="8.2535233"><ele>183.0</ele><time>2026-03-29T15:38:34.004Z</time></trkpt><trkpt lat="44.9730467" lon="8.2534917"><ele>183.0</ele><time>2026-03-29T15:38:35.004Z</time></trkpt><trkpt lat="44.9729217" lon="8.25342"><ele>183.0</ele><time>2026-03-29T15:38:37.007Z</time></trkpt><trkpt lat="44.9728517" lon="8.2533767"><ele>183.0</ele><time>2026-03-29T15:38:38.007Z</time></trkpt><trkpt lat="44.9727783" lon="8.2533117"><ele>183.0</ele><time>2026-03-29T15:38:39.005Z</time></trkpt><trkpt lat="44.9727083" lon="8.2532583"><ele>183.0</ele><time>2026-03-29T15:38:40.008Z</time></trkpt><trkpt lat="44.9726367" lon="8.2532017"><ele>183.0</ele><time>2026-03-29T15:38:41.006Z</time></trkpt><trkpt lat="44.97257" lon="8.253155"><ele>183.0</ele><time>2026-03-29T15:38:42.008Z</time></trkpt><trkpt lat="44.97251" lon="8.2531083"><ele>183.0</ele><time>2026-03-29T15:38:43.004Z</time></trkpt><trkpt lat="44.9724517" lon="8.253065"><ele>183.0</ele><time>2026-03-29T15:38:44.004Z</time></trkpt><trkpt lat="44.972395" lon="8.2530233"><ele>183.0</ele><time>2026-03-29T15:38:45.004Z</time></trkpt><trkpt lat="44.9723067" lon="8.2529583"><ele>185.5</ele><time>2026-03-29T15:38:47.005Z</time></trkpt><trkpt lat="44.9722467" lon="8.2529133"><ele>188.0</ele><time>2026-03-29T15:38:49.013Z</time></trkpt><trkpt lat="44.9721767" lon="8.2528533"><ele>190.5</ele><time>2026-03-29T15:38:51.004Z</time></trkpt><trkpt lat="44.9720783" lon="8.2527817"><ele>193.0</ele><time>2026-03-29T15:38:53.01Z</time></trkpt><trkpt lat="44.9720233" lon="8.2527267"><ele>195.5</ele><time>2026-03-29T15:38:54.008Z</time></trkpt><trkpt lat="44.9719517" lon="8.2526617"><ele>198.0</ele><time>2026-03-29T15:38:55.005Z</time></trkpt><trkpt lat="44.9718717" lon="8.2525983"><ele>198.0</ele><time>2026-03-29T15:38:56.009Z</time></trkpt><trkpt lat="44.97179" lon="8.2525383"><ele>198.0</ele><time>2026-03-29T15:38:57.008Z</time></trkpt><trkpt lat="44.971705" lon="8.252485"><ele>198.0</ele><time>2026-03-29T15:38:58.011Z</time></trkpt><trkpt lat="44.971615" lon="8.2524383"><ele>198.0</ele><time>2026-03-29T15:38:59.01Z</time></trkpt><trkpt lat="44.971525" lon="8.2524017"><ele>198.0</ele><time>2026-03-29T15:39:00.007Z</time></trkpt><trkpt lat="44.9714383" lon="8.2523733"><ele>200.16666666666666</ele><time>2026-03-29T15:39:01.007Z</time></trkpt><trkpt lat="44.971355" lon="8.2523467"><ele>202.33333333333331</ele><time>2026-03-29T15:39:02.005Z</time></trkpt><trkpt lat="44.9712783" lon="8.25232"><ele>204.5</ele><time>2026-03-29T15:39:03.007Z</time></trkpt><trkpt lat="44.971205" lon="8.25229"><ele>206.66666666666666</ele><time>2026-03-29T15:39:04.001Z</time></trkpt><trkpt lat="44.9711283" lon="8.2522617"><ele>208.83333333333331</ele><time>2026-03-29T15:39:05.003Z</time></trkpt><trkpt lat="44.971055" lon="8.2522333"><ele>211.0</ele><time>2026-03-29T15:39:06.002Z</time></trkpt><trkpt lat="44.9709767" lon="8.2522067"><ele>212.33333333333331</ele><time>2026-03-29T15:39:07.006Z</time></trkpt><trkpt lat="44.970895" lon="8.25218"><ele>213.66666666666666</ele><time>2026-03-29T15:39:08.006Z</time></trkpt><trkpt lat="44.9708083" lon="8.25216"><ele>215.0</ele><time>2026-03-29T15:39:09.003Z</time></trkpt><trkpt lat="44.9707283" lon="8.2521467"><ele>216.33333333333331</ele><time>2026-03-29T15:39:10.005Z</time></trkpt><trkpt lat="44.970655" lon="8.2521317"><ele>217.66666666666666</ele><time>2026-03-29T15:39:11.005Z</time></trkpt><trkpt lat="44.970585" lon="8.25212"><ele>219.0</ele><time>2026-03-29T15:39:12.004Z</time></trkpt><trkpt lat="44.9704883" lon="8.2521117"><ele>219.16666666666666</ele><time>2026-03-29T15:39:14.001Z</time></trkpt><trkpt lat="44.9704267" lon="8.2521483"><ele>219.33333333333331</ele><time>2026-03-29T15:39:18.009Z</time></trkpt><trkpt lat="44.9703667" lon="8.2522333"><ele>219.5</ele><time>2026-03-29T15:39:20.006Z</time></trkpt><trkpt lat="44.9703217" lon="8.25231"><ele>219.66666666666666</ele><time>2026-03-29T15:39:21.008Z</time></trkpt><trkpt lat="44.9702633" lon="8.2524083"><ele>219.83333333333331</ele><time>2026-03-29T15:39:22.007Z</time></trkpt><trkpt lat="44.9701883" lon="8.2525183"><ele>220.0</ele><time>2026-03-29T15:39:23.003Z</time></trkpt><trkpt lat="44.9700983" lon="8.2526567"><ele>220.0</ele><time>2026-03-29T15:39:24.005Z</time></trkpt><trkpt lat="44.9700167" lon="8.25278"><ele>220.0</ele><time>2026-03-29T15:39:25.004Z</time></trkpt><trkpt lat="44.9699433" lon="8.2529033"><ele>220.0</ele><time>2026-03-29T15:39:26.005Z</time></trkpt><trkpt lat="44.9698583" lon="8.25301"><ele>220.0</ele><time>2026-03-29T15:39:27.007Z</time></trkpt><trkpt lat="44.9697683" lon="8.2531033"><ele>217.8</ele><time>2026-03-29T15:39:28.006Z</time></trkpt><trkpt lat="44.969685" lon="8.25319"><ele>215.6</ele><time>2026-03-29T15:39:29.001Z</time></trkpt><trkpt lat="44.969595" lon="8.2532583"><ele>213.39999999999998</ele><time>2026-03-29T15:39:30.011Z</time></trkpt><trkpt lat="44.9695" lon="8.2533117"><ele>211.2</ele><time>2026-03-29T15:39:31.006Z</time></trkpt><trkpt lat="44.9693867" lon="8.25334"><ele>209.0</ele><time>2026-03-29T15:39:32.005Z</time></trkpt><trkpt lat="44.9692883" lon="8.253375"><ele>209.0</ele><time>2026-03-29T15:39:33.013Z</time></trkpt><trkpt lat="44.9691933" lon="8.2533917"><ele>209.0</ele><time>2026-03-29T15:39:34.004Z</time></trkpt><trkpt lat="44.969095" lon="8.2534117"><ele>209.0</ele><time>2026-03-29T15:39:35.004Z</time></trkpt><trkpt lat="44.9689917" lon="8.2534267"><ele>209.0</ele><time>2026-03-29T15:39:36.007Z</time></trkpt><trkpt lat="44.9688917" lon="8.2534417"><ele>209.0</ele><time>2026-03-29T15:39:37.005Z</time></trkpt><trkpt lat="44.9687917" lon="8.25346"><ele>212.0</ele><time>2026-03-29T15:39:38.008Z</time></trkpt><trkpt lat="44.96869" lon="8.25348"><ele>215.0</ele><time>2026-03-29T15:39:39.008Z</time></trkpt><trkpt lat="44.9685867" lon="8.25349"><ele>217.99999999999997</ele><time>2026-03-29T15:39:40.01Z</time></trkpt><trkpt lat="44.9684867" lon="8.253505"><ele>221.0</ele><time>2026-03-29T15:39:41.003Z</time></trkpt><trkpt lat="44.968385" lon="8.2535167"><ele>224.0</ele><time>2026-03-29T15:39:42.005Z</time></trkpt><trkpt lat="44.9682833" lon="8.253535"><ele>224.39999999999998</ele><time>2026-03-29T15:39:43.007Z</time></trkpt><trkpt lat="44.9681817" lon="8.2535517"><ele>224.79999999999998</ele><time>2026-03-29T15:39:44.009Z</time></trkpt><trkpt lat="44.9680867" lon="8.2535767"><ele>225.20000000000002</ele><time>2026-03-29T15:39:45.006Z</time></trkpt><trkpt lat="44.9679917" lon="8.2536017"><ele>225.60000000000002</ele><time>2026-03-29T15:39:46.005Z</time></trkpt><trkpt lat="44.967905" lon="8.253635"><ele>226.0</ele><time>2026-03-29T15:39:47.003Z</time></trkpt><trkpt lat="44.9678167" lon="8.253665"><ele>225.99999999999997</ele><time>2026-03-29T15:39:48.007Z</time></trkpt><trkpt lat="44.9677367" lon="8.2536933"><ele>226.0</ele><time>2026-03-29T15:39:49.01Z</time></trkpt><trkpt lat="44.967665" lon="8.25372"><ele>226.0</ele><time>2026-03-29T15:39:50.009Z</time></trkpt><trkpt lat="44.9675933" lon="8.2537417"><ele>226.0</ele><time>2026-03-29T15:39:51.005Z</time></trkpt><trkpt lat="44.96752" lon="8.2537683"><ele>225.99999999999997</ele><time>2026-03-29T15:39:52.006Z</time></trkpt><trkpt lat="44.9674367" lon="8.2537983"><ele>226.0</ele><time>2026-03-29T15:39:53.004Z</time></trkpt><trkpt lat="44.9673517" lon="8.253825"><ele>227.4</ele><time>2026-03-29T15:39:54.007Z</time></trkpt><trkpt lat="44.9672617" lon="8.2538617"><ele>228.8</ele><time>2026-03-29T15:39:55.006Z</time></trkpt><trkpt lat="44.9671683" lon="8.2538967"><ele>230.20000000000002</ele><time>2026-03-29T15:39:56.004Z</time></trkpt><trkpt lat="44.9670767" lon="8.2539317"><ele>231.60000000000002</ele><time>2026-03-29T15:39:57.004Z</time></trkpt><trkpt lat="44.9669867" lon="8.2539717"><ele>233.0</ele><time>2026-03-29T15:39:58.008Z</time></trkpt><trkpt lat="44.966905" lon="8.254005"><ele>233.00000000000003</ele><time>2026-03-29T15:39:59.009Z</time></trkpt><trkpt lat="44.96683" lon="8.25403"><ele>233.0</ele><time>2026-03-29T15:40:00.006Z</time></trkpt><trkpt lat="44.9667633" lon="8.2540583"><ele>233.0</ele><time>2026-03-29T15:40:01.006Z</time></trkpt><trkpt lat="44.9666517" lon="8.2541083"><ele>233.0</ele><time>2026-03-29T15:40:03.004Z</time></trkpt><trkpt lat="44.9665433" lon="8.254155"><ele>233.00000000000003</ele><time>2026-03-29T15:40:05.004Z</time></trkpt><trkpt lat="44.9664767" lon="8.2541783"><ele>233.0</ele><time>2026-03-29T15:40:06.007Z</time></trkpt><trkpt lat="44.9663983" lon="8.2541933"><ele>232.00000000000003</ele><time>2026-03-29T15:40:07.007Z</time></trkpt><trkpt lat="44.966315" lon="8.2541867"><ele>231.0</ele><time>2026-03-29T15:40:08.006Z</time></trkpt><trkpt lat="44.96623" lon="8.25421"><ele>230.0</ele><time>2026-03-29T15:40:09.007Z</time></trkpt><trkpt lat="44.9661383" lon="8.2542283"><ele>229.0</ele><time>2026-03-29T15:40:10.006Z</time></trkpt><trkpt lat="44.9660617" lon="8.25426"><ele>228.00000000000003</ele><time>2026-03-29T15:40:11.006Z</time></trkpt><trkpt lat="44.965975" lon="8.2542717"><ele>227.0</ele><time>2026-03-29T15:40:12.002Z</time></trkpt><trkpt lat="44.9658833" lon="8.2542933"><ele>227.2</ele><time>2026-03-29T15:40:13.007Z</time></trkpt><trkpt lat="44.9657883" lon="8.254315"><ele>227.39999999999998</ele><time>2026-03-29T15:40:14.008Z</time></trkpt><trkpt lat="44.96569" lon="8.2543367"><ele>227.60000000000002</ele><time>2026-03-29T15:40:15.004Z</time></trkpt><trkpt lat="44.96559" lon="8.2543667"><ele>227.8</ele><time>2026-03-29T15:40:16.006Z</time></trkpt><trkpt lat="44.9654917" lon="8.2543933"><ele>228.0</ele><time>2026-03-29T15:40:17.005Z</time></trkpt><trkpt lat="44.9653883" lon="8.2544183"><ele>228.0</ele><time>2026-03-29T15:40:18.005Z</time></trkpt><trkpt lat="44.9652733" lon="8.2544383"><ele>228.0</ele><time>2026-03-29T15:40:19.005Z</time></trkpt><trkpt lat="44.965155" lon="8.2544567"><ele>228.0</ele><time>2026-03-29T15:40:20.003Z</time></trkpt><trkpt lat="44.96503" lon="8.25447"><ele>228.0</ele><time>2026-03-29T15:40:21.002Z</time></trkpt><trkpt lat="44.9648983" lon="8.254475"><ele>226.75</ele><time>2026-03-29T15:40:22.008Z</time></trkpt><trkpt lat="44.964765" lon="8.2544717"><ele>225.5</ele><time>2026-03-29T15:40:23.005Z</time></trkpt><trkpt lat="44.9646317" lon="8.2544667"><ele>224.25</ele><time>2026-03-29T15:40:24.007Z</time></trkpt><trkpt lat="44.9645067" lon="8.2544617"><ele>223.0</ele><time>2026-03-29T15:40:25.006Z</time></trkpt><trkpt lat="44.9643917" lon="8.254455"><ele>223.0</ele><time>2026-03-29T15:40:26.003Z</time></trkpt><trkpt lat="44.96428" lon="8.2544533"><ele>223.0</ele><time>2026-03-29T15:40:27.004Z</time></trkpt><trkpt lat="44.964175" lon="8.254455"><ele>223.0</ele><time>2026-03-29T15:40:28.005Z</time></trkpt><trkpt lat="44.96407" lon="8.254455"><ele>223.0</ele><time>2026-03-29T15:40:29.007Z</time></trkpt><trkpt lat="44.96396" lon="8.2544467"><ele>223.0</ele><time>2026-03-29T15:40:30.005Z</time></trkpt><trkpt lat="44.9638467" lon="8.2544517"><ele>222.25</ele><time>2026-03-29T15:40:31.008Z</time></trkpt><trkpt lat="44.9637283" lon="8.2544533"><ele>221.5</ele><time>2026-03-29T15:40:32.002Z</time></trkpt><trkpt lat="44.96361" lon="8.2544683"><ele>220.75</ele><time>2026-03-29T15:40:33.01Z</time></trkpt><trkpt lat="44.9634933" lon="8.2544917"><ele>220.0</ele><time>2026-03-29T15:40:34.004Z</time></trkpt><trkpt lat="44.96338" lon="8.2545233"><ele>221.5</ele><time>2026-03-29T15:40:35.007Z</time></trkpt><trkpt lat="44.9632717" lon="8.254565"><ele>223.0</ele><time>2026-03-29T15:40:36.004Z</time></trkpt><trkpt lat="44.9631617" lon="8.254615"><ele>224.5</ele><time>2026-03-29T15:40:37.009Z</time></trkpt><trkpt lat="44.96305" lon="8.2546617"><ele>226.0</ele><time>2026-03-29T15:40:38.009Z</time></trkpt><trkpt lat="44.96294" lon="8.25472"><ele>225.25</ele><time>2026-03-29T15:40:39.006Z</time></trkpt><trkpt lat="44.96283" lon="8.2547933"><ele>224.5</ele><time>2026-03-29T15:40:40.004Z</time></trkpt><trkpt lat="44.962725" lon="8.2548717"><ele>223.75</ele><time>2026-03-29T15:40:41.005Z</time></trkpt><trkpt lat="44.962625" lon="8.2549483"><ele>223.0</ele><time>2026-03-29T15:40:42.007Z</time></trkpt><trkpt lat="44.9625283" lon="8.2550233"><ele>223.0</ele><time>2026-03-29T15:40:43.011Z</time></trkpt><trkpt lat="44.962435" lon="8.2551033"><ele>223.0</ele><time>2026-03-29T15:40:44.005Z</time></trkpt><trkpt lat="44.9623367" lon="8.2551833"><ele>223.0</ele><time>2026-03-29T15:40:45.007Z</time></trkpt><trkpt lat="44.9622433" lon="8.2552667"><ele>223.0</ele><time>2026-03-29T15:40:46.005Z</time></trkpt><trkpt lat="44.9621567" lon="8.25535"><ele>223.0</ele><time>2026-03-29T15:40:47.006Z</time></trkpt><trkpt lat="44.9620783" lon="8.255425"><ele>223.0</ele><time>2026-03-29T15:40:48.008Z</time></trkpt><trkpt lat="44.9619967" lon="8.2554967"><ele>223.0</ele><time>2026-03-29T15:40:49.01Z</time></trkpt><trkpt lat="44.9619117" lon="8.2555617"><ele>223.0</ele><time>2026-03-29T15:40:50.013Z</time></trkpt><trkpt lat="44.96183" lon="8.2556283"><ele>223.0</ele><time>2026-03-29T15:40:51.009Z</time></trkpt><trkpt lat="44.9617433" lon="8.25569"><ele>223.0</ele><time>2026-03-29T15:40:52.006Z</time></trkpt><trkpt lat="44.961645" lon="8.2557467"><ele>223.0</ele><time>2026-03-29T15:40:53.004Z</time></trkpt><trkpt lat="44.9615417" lon="8.255795"><ele>223.0</ele><time>2026-03-29T15:40:54.004Z</time></trkpt><trkpt lat="44.9614367" lon="8.2558383"><ele>223.0</ele><time>2026-03-29T15:40:55.007Z</time></trkpt><trkpt lat="44.9613167" lon="8.2558633"><ele>223.0</ele><time>2026-03-29T15:40:56.001Z</time></trkpt><trkpt lat="44.96119" lon="8.25588"><ele>223.0</ele><time>2026-03-29T15:40:57.004Z</time></trkpt><trkpt lat="44.9610667" lon="8.2558867"><ele>223.0</ele><time>2026-03-29T15:40:58.003Z</time></trkpt><trkpt lat="44.9609433" lon="8.25587"><ele>223.0</ele><time>2026-03-29T15:40:59.003Z</time></trkpt><trkpt lat="44.96082" lon="8.2558717"><ele>223.0</ele><time>2026-03-29T15:41:00.01Z</time></trkpt><trkpt lat="44.9607" lon="8.255895"><ele>221.75</ele><time>2026-03-29T15:41:01.005Z</time></trkpt><trkpt lat="44.9605833" lon="8.2559333"><ele>220.5</ele><time>2026-03-29T15:41:02.009Z</time></trkpt><trkpt lat="44.9604717" lon="8.25598"><ele>219.25</ele><time>2026-03-29T15:41:03.005Z</time></trkpt><trkpt lat="44.9603633" lon="8.2560367"><ele>218.0</ele><time>2026-03-29T15:41:04.007Z</time></trkpt><trkpt lat="44.9602517" lon="8.2560983"><ele>218.0</ele><time>2026-03-29T15:41:05.002Z</time></trkpt><trkpt lat="44.9601467" lon="8.25617"><ele>218.0</ele><time>2026-03-29T15:41:06.004Z</time></trkpt><trkpt lat="44.960045" lon="8.25623"><ele>218.0</ele><time>2026-03-29T15:41:07.006Z</time></trkpt><trkpt lat="44.9599367" lon="8.2562917"><ele>218.0</ele><time>2026-03-29T15:41:08.003Z</time></trkpt><trkpt lat="44.9598317" lon="8.2563517"><ele>218.0</ele><time>2026-03-29T15:41:09.008Z</time></trkpt><trkpt lat="44.9597167" lon="8.25641"><ele>218.0</ele><time>2026-03-29T15:41:10.006Z</time></trkpt><trkpt lat="44.9596083" lon="8.256465"><ele>218.0</ele><time>2026-03-29T15:41:11.004Z</time></trkpt><trkpt lat="44.95951" lon="8.25652"><ele>218.0</ele><time>2026-03-29T15:41:12.004Z</time></trkpt><trkpt lat="44.959425" lon="8.25657"><ele>218.0</ele><time>2026-03-29T15:41:13.005Z</time></trkpt><trkpt lat="44.9593267" lon="8.2566233"><ele>218.0</ele><time>2026-03-29T15:41:14.004Z</time></trkpt><trkpt lat="44.95923" lon="8.256685"><ele>218.0</ele><time>2026-03-29T15:41:15.009Z</time></trkpt><trkpt lat="44.9591383" lon="8.2567517"><ele>218.0</ele><time>2026-03-29T15:41:16.005Z</time></trkpt><trkpt lat="44.9590467" lon="8.256825"><ele>218.0</ele><time>2026-03-29T15:41:17.008Z</time></trkpt><trkpt lat="44.9589483" lon="8.2568933"><ele>218.0</ele><time>2026-03-29T15:41:18.003Z</time></trkpt><trkpt lat="44.9588533" lon="8.25696"><ele>218.33333333333334</ele><time>2026-03-29T15:41:19.002Z</time></trkpt><trkpt lat="44.9587633" lon="8.2570167"><ele>218.66666666666669</ele><time>2026-03-29T15:41:20.006Z</time></trkpt><trkpt lat="44.95868" lon="8.2570783"><ele>219.0</ele><time>2026-03-29T15:41:21.008Z</time></trkpt><trkpt lat="44.9585967" lon="8.25714"><ele>219.33333333333331</ele><time>2026-03-29T15:41:22.002Z</time></trkpt><trkpt lat="44.9585367" lon="8.2572017"><ele>219.66666666666666</ele><time>2026-03-29T15:41:23.003Z</time></trkpt><trkpt lat="44.958485" lon="8.2572533"><ele>220.0</ele><time>2026-03-29T15:41:24.004Z</time></trkpt><trkpt lat="44.9584033" lon="8.2573333"><ele>220.6</ele><time>2026-03-29T15:41:26.005Z</time></trkpt><trkpt lat="44.9583167" lon="8.2574017"><ele>221.2</ele><time>2026-03-29T15:41:28.005Z</time></trkpt><trkpt lat="44.9582317" lon="8.257475"><ele>221.8</ele><time>2026-03-29T15:41:30.005Z</time></trkpt><trkpt lat="44.9581617" lon="8.2575633"><ele>222.4</ele><time>2026-03-29T15:41:32.006Z</time></trkpt><trkpt lat="44.958095" lon="8.2576483"><ele>223.0</ele><time>2026-03-29T15:41:34.006Z</time></trkpt><trkpt lat="44.9580333" lon="8.2577317"><ele>222.99999999999997</ele><time>2026-03-29T15:41:36.007Z</time></trkpt><trkpt lat="44.9579683" lon="8.2578083"><ele>223.0</ele><time>2026-03-29T15:41:38.008Z</time></trkpt><trkpt lat="44.9578883" lon="8.257855"><ele>223.0</ele><time>2026-03-29T15:41:40.006Z</time></trkpt><trkpt lat="44.9578233" lon="8.25791"><ele>223.0</ele><time>2026-03-29T15:41:42.001Z</time></trkpt><trkpt lat="44.9577467" lon="8.257955"><ele>222.99999999999997</ele><time>2026-03-29T15:41:45.005Z</time></trkpt><trkpt lat="44.9577033" lon="8.25803"><ele>223.0</ele><time>2026-03-29T15:41:48.006Z</time></trkpt><trkpt lat="44.95786" lon="8.258085"><ele>223.0</ele><time>2026-03-29T15:42:20.006Z</time></trkpt><trkpt lat="44.9579167" lon="8.258025"><ele>223.0</ele><time>2026-03-29T15:42:21.999Z</time></trkpt><trkpt lat="44.95798" lon="8.2579667"><ele>223.0</ele><time>2026-03-29T15:42:24.008Z</time></trkpt><trkpt lat="44.9580417" lon="8.2579"><ele>223.0</ele><time>2026-03-29T15:42:26.001Z</time></trkpt><trkpt lat="44.9581217" lon="8.2577433"><ele>223.0</ele><time>2026-03-29T15:42:28.004Z</time></trkpt><trkpt lat="44.9581867" lon="8.25765"><ele>223.0</ele><time>2026-03-29T15:42:29.01Z</time></trkpt><trkpt lat="44.95826" lon="8.25756"><ele>223.0</ele><time>2026-03-29T15:42:30.004Z</time></trkpt><trkpt lat="44.9583217" lon="8.25746"><ele>223.0</ele><time>2026-03-29T15:42:31.004Z</time></trkpt><trkpt lat="44.9583917" lon="8.257365"><ele>223.0</ele><time>2026-03-29T15:42:32.001Z</time></trkpt><trkpt lat="44.9584767" lon="8.25728"><ele>223.0</ele><time>2026-03-29T15:42:33.003Z</time></trkpt><trkpt lat="44.9585683" lon="8.2571967"><ele>222.25</ele><time>2026-03-29T15:42:34.006Z</time></trkpt><trkpt lat="44.95867" lon="8.2571217"><ele>221.5</ele><time>2026-03-29T15:42:35.003Z</time></trkpt><trkpt lat="44.958765" lon="8.2570383"><ele>220.75</ele><time>2026-03-29T15:42:36.002Z</time></trkpt><trkpt lat="44.9588667" lon="8.2569633"><ele>220.0</ele><time>2026-03-29T15:42:37.003Z</time></trkpt><trkpt lat="44.9589683" lon="8.256885"><ele>220.0</ele><time>2026-03-29T15:42:38.003Z</time></trkpt><trkpt lat="44.9590733" lon="8.25681"><ele>220.0</ele><time>2026-03-29T15:42:39.01Z</time></trkpt><trkpt lat="44.9591817" lon="8.2567417"><ele>220.0</ele><time>2026-03-29T15:42:40.005Z</time></trkpt><trkpt lat="44.9592883" lon="8.2566783"><ele>220.0</ele><time>2026-03-29T15:42:41.004Z</time></trkpt><trkpt lat="44.9593917" lon="8.2566183"><ele>219.6</ele><time>2026-03-29T15:42:42.004Z</time></trkpt><trkpt lat="44.9594967" lon="8.2565617"><ele>219.2</ele><time>2026-03-29T15:42:43.005Z</time></trkpt><trkpt lat="44.9595967" lon="8.2565017"><ele>218.8</ele><time>2026-03-29T15:42:44.005Z</time></trkpt><trkpt lat="44.959695" lon="8.2564433"><ele>218.4</ele><time>2026-03-29T15:42:45.004Z</time></trkpt><trkpt lat="44.9597983" lon="8.2563867"><ele>218.0</ele><time>2026-03-29T15:42:46.004Z</time></trkpt><trkpt lat="44.9599017" lon="8.2563317"><ele>218.0</ele><time>2026-03-29T15:42:47.006Z</time></trkpt><trkpt lat="44.9600033" lon="8.2562767"><ele>218.0</ele><time>2026-03-29T15:42:48.004Z</time></trkpt><trkpt lat="44.960105" lon="8.2562283"><ele>218.0</ele><time>2026-03-29T15:42:49.008Z</time></trkpt><trkpt lat="44.9602067" lon="8.2561733"><ele>218.0</ele><time>2026-03-29T15:42:50.006Z</time></trkpt><trkpt lat="44.9603067" lon="8.2561167"><ele>218.0</ele><time>2026-03-29T15:42:51.007Z</time></trkpt><trkpt lat="44.960405" lon="8.2560617"><ele>218.0</ele><time>2026-03-29T15:42:52.005Z</time></trkpt><trkpt lat="44.9605083" lon="8.256015"><ele>218.0</ele><time>2026-03-29T15:42:53.007Z</time></trkpt><trkpt lat="44.960615" lon="8.2559783"><ele>218.0</ele><time>2026-03-29T15:42:54.003Z</time></trkpt><trkpt lat="44.9607217" lon="8.2559467"><ele>218.0</ele><time>2026-03-29T15:42:55.008Z</time></trkpt><trkpt lat="44.96083" lon="8.2559283"><ele>218.0</ele><time>2026-03-29T15:42:56.004Z</time></trkpt><trkpt lat="44.9609383" lon="8.2559117"><ele>219.25</ele><time>2026-03-29T15:42:57.003Z</time></trkpt><trkpt lat="44.9610467" lon="8.2558917"><ele>220.5</ele><time>2026-03-29T15:42:58.002Z</time></trkpt><trkpt lat="44.9611633" lon="8.255885"><ele>221.75</ele><time>2026-03-29T15:42:59.008Z</time></trkpt><trkpt lat="44.96128" lon="8.25587"><ele>223.0</ele><time>2026-03-29T15:43:00.008Z</time></trkpt><trkpt lat="44.9613883" lon="8.25585"><ele>223.0</ele><time>2026-03-29T15:43:01.002Z</time></trkpt><trkpt lat="44.9614967" lon="8.2558317"><ele>223.0</ele><time>2026-03-29T15:43:02.007Z</time></trkpt><trkpt lat="44.9616033" lon="8.2558"><ele>223.0</ele><time>2026-03-29T15:43:03.005Z</time></trkpt><trkpt lat="44.9617067" lon="8.25576"><ele>223.0</ele><time>2026-03-29T15:43:04.008Z</time></trkpt><trkpt lat="44.9618067" lon="8.255705"><ele>223.0</ele><time>2026-03-29T15:43:05.004Z</time></trkpt><trkpt lat="44.9619167" lon="8.2556433"><ele>223.0</ele><time>2026-03-29T15:43:06.008Z</time></trkpt><trkpt lat="44.9620183" lon="8.2555583"><ele>223.0</ele><time>2026-03-29T15:43:07.003Z</time></trkpt><trkpt lat="44.96213" lon="8.2554767"><ele>223.0</ele><time>2026-03-29T15:43:08.006Z</time></trkpt><trkpt lat="44.9622183" lon="8.2553867"><ele>223.0</ele><time>2026-03-29T15:43:09.007Z</time></trkpt><trkpt lat="44.9623167" lon="8.255305"><ele>223.0</ele><time>2026-03-29T15:43:10.007Z</time></trkpt><trkpt lat="44.96241" lon="8.2552167"><ele>223.0</ele><time>2026-03-29T15:43:11.007Z</time></trkpt><trkpt lat="44.9625" lon="8.2551333"><ele>223.0</ele><time>2026-03-29T15:43:12.002Z</time></trkpt><trkpt lat="44.96258" lon="8.2550717"><ele>223.0</ele><time>2026-03-29T15:43:13.007Z</time></trkpt><trkpt lat="44.962645" lon="8.25503"><ele>223.0</ele><time>2026-03-29T15:43:14.004Z</time></trkpt><trkpt lat="44.9627267" lon="8.254985"><ele>223.60000000000002</ele><time>2026-03-29T15:43:16.005Z</time></trkpt><trkpt lat="44.962825" lon="8.254865"><ele>224.20000000000002</ele><time>2026-03-29T15:44:13.003Z</time></trkpt><trkpt lat="44.9628967" lon="8.2547783"><ele>224.8</ele><time>2026-03-29T15:44:21.002Z</time></trkpt><trkpt lat="44.9629533" lon="8.254725"><ele>225.4</ele><time>2026-03-29T15:44:21.999Z</time></trkpt><trkpt lat="44.9630233" lon="8.2546683"><ele>226.0</ele><time>2026-03-29T15:44:23.007Z</time></trkpt><trkpt lat="44.9630983" lon="8.2546267"><ele>226.0</ele><time>2026-03-29T15:44:24.004Z</time></trkpt><trkpt lat="44.9631867" lon="8.2545883"><ele>226.00000000000003</ele><time>2026-03-29T15:44:25.007Z</time></trkpt><trkpt lat="44.963285" lon="8.2545483"><ele>226.00000000000003</ele><time>2026-03-29T15:44:26.005Z</time></trkpt><trkpt lat="44.9633867" lon="8.2545133"><ele>226.0</ele><time>2026-03-29T15:44:27.004Z</time></trkpt><trkpt lat="44.9634967" lon="8.2544767"><ele>226.0</ele><time>2026-03-29T15:44:28Z</time></trkpt><trkpt lat="44.963625" lon="8.2544433"><ele>224.8</ele><time>2026-03-29T15:44:29.005Z</time></trkpt><trkpt lat="44.9637567" lon="8.25443"><ele>223.60000000000002</ele><time>2026-03-29T15:44:30.003Z</time></trkpt><trkpt lat="44.96388" lon="8.2544267"><ele>222.4</ele><time>2026-03-29T15:44:31.004Z</time></trkpt><trkpt lat="44.9639767" lon="8.25444"><ele>221.2</ele><time>2026-03-29T15:44:32.01Z</time></trkpt><trkpt lat="44.9640683" lon="8.2544433"><ele>220.0</ele><time>2026-03-29T15:44:33.007Z</time></trkpt><trkpt lat="44.9641617" lon="8.2544383"><ele>220.6</ele><time>2026-03-29T15:44:34.006Z</time></trkpt><trkpt lat="44.9642617" lon="8.2544283"><ele>221.2</ele><time>2026-03-29T15:44:35.003Z</time></trkpt><trkpt lat="44.9643717" lon="8.2544283"><ele>221.8</ele><time>2026-03-29T15:44:36.011Z</time></trkpt><trkpt lat="44.964485" lon="8.2544367"><ele>222.4</ele><time>2026-03-29T15:44:37.005Z</time></trkpt><trkpt lat="44.9646083" lon="8.2544467"><ele>223.0</ele><time>2026-03-29T15:44:38.004Z</time></trkpt><trkpt lat="44.9647333" lon="8.2544517"><ele>223.0</ele><time>2026-03-29T15:44:39.007Z</time></trkpt><trkpt lat="44.9648567" lon="8.25447"><ele>223.0</ele><time>2026-03-29T15:44:40.004Z</time></trkpt><trkpt lat="44.9649783" lon="8.2544717"><ele>223.0</ele><time>2026-03-29T15:44:41.004Z</time></trkpt><trkpt lat="44.9650933" lon="8.25447"><ele>223.0</ele><time>2026-03-29T15:44:42.004Z</time></trkpt><trkpt lat="44.9652117" lon="8.2544567"><ele>224.25</ele><time>2026-03-29T15:44:43.005Z</time></trkpt><trkpt lat="44.9653267" lon="8.25444"><ele>225.5</ele><time>2026-03-29T15:44:44.008Z</time></trkpt><trkpt lat="44.9654367" lon="8.2544183"><ele>226.75</ele><time>2026-03-29T15:44:45.007Z</time></trkpt><trkpt lat="44.9655517" lon="8.254385"><ele>228.0</ele><time>2026-03-29T15:44:46.005Z</time></trkpt><trkpt lat="44.965665" lon="8.2543567"><ele>228.0</ele><time>2026-03-29T15:44:47.004Z</time></trkpt><trkpt lat="44.9657817" lon="8.2543333"><ele>228.0</ele><time>2026-03-29T15:44:48.008Z</time></trkpt><trkpt lat="44.9659" lon="8.2543217"><ele>228.0</ele><time>2026-03-29T15:44:49.005Z</time></trkpt><trkpt lat="44.9660117" lon="8.2543067"><ele>228.0</ele><time>2026-03-29T15:44:50.004Z</time></trkpt><trkpt lat="44.966125" lon="8.2542933"><ele>227.8</ele><time>2026-03-29T15:44:51.008Z</time></trkpt><trkpt lat="44.966235" lon="8.2542717"><ele>227.60000000000002</ele><time>2026-03-29T15:44:52.006Z</time></trkpt><trkpt lat="44.9663433" lon="8.2542567"><ele>227.39999999999998</ele><time>2026-03-29T15:44:53.004Z</time></trkpt><trkpt lat="44.9664483" lon="8.2542533"><ele>227.2</ele><time>2026-03-29T15:44:54.007Z</time></trkpt><trkpt lat="44.9665533" lon="8.2542533"><ele>227.0</ele><time>2026-03-29T15:44:55.008Z</time></trkpt><trkpt lat="44.9666683" lon="8.2542717"><ele>228.5</ele><time>2026-03-29T15:44:56.01Z</time></trkpt><trkpt lat="44.9667883" lon="8.2543233"><ele>230.0</ele><time>2026-03-29T15:44:57.007Z</time></trkpt><trkpt lat="44.9669017" lon="8.2544067"><ele>231.5</ele><time>2026-03-29T15:44:58.004Z</time></trkpt><trkpt lat="44.967" lon="8.2545267"><ele>233.0</ele><time>2026-03-29T15:44:59.004Z</time></trkpt><trkpt lat="44.9670783" lon="8.2546583"><ele>230.75</ele><time>2026-03-29T15:45:00.006Z</time></trkpt><trkpt lat="44.9671467" lon="8.254795"><ele>228.5</ele><time>2026-03-29T15:45:01.008Z</time></trkpt><trkpt lat="44.9672167" lon="8.2549283"><ele>226.25</ele><time>2026-03-29T15:45:02.006Z</time></trkpt><trkpt lat="44.967295" lon="8.255045"><ele>224.0</ele><time>2026-03-29T15:45:03.004Z</time></trkpt><trkpt lat="44.9673917" lon="8.2551417"><ele>224.0</ele><time>2026-03-29T15:45:04.006Z</time></trkpt><trkpt lat="44.967505" lon="8.2552367"><ele>224.0</ele><time>2026-03-29T15:45:05.005Z</time></trkpt><trkpt lat="44.9676283" lon="8.25534"><ele>224.0</ele><time>2026-03-29T15:45:06.002Z</time></trkpt><trkpt lat="44.9677567" lon="8.2554367"><ele>224.0</ele><time>2026-03-29T15:45:07.004Z</time></trkpt><trkpt lat="44.9678933" lon="8.2555217"><ele>224.66666666666669</ele><time>2026-03-29T15:45:08.009Z</time></trkpt><trkpt lat="44.9680367" lon="8.2555967"><ele>225.33333333333331</ele><time>2026-03-29T15:45:09.006Z</time></trkpt><trkpt lat="44.9681883" lon="8.2556467"><ele>226.0</ele><time>2026-03-29T15:45:10.003Z</time></trkpt><trkpt lat="44.9683417" lon="8.2556983"><ele>225.5</ele><time>2026-03-29T15:45:11.002Z</time></trkpt><trkpt lat="44.9684883" lon="8.2557517"><ele>225.0</ele><time>2026-03-29T15:45:12.004Z</time></trkpt><trkpt lat="44.9686317" lon="8.2558083"><ele>224.5</ele><time>2026-03-29T15:45:13.009Z</time></trkpt><trkpt lat="44.96876" lon="8.2558817"><ele>224.0</ele><time>2026-03-29T15:45:14.003Z</time></trkpt><trkpt lat="44.96887" lon="8.2559883"><ele>224.0</ele><time>2026-03-29T15:45:15Z</time></trkpt><trkpt lat="44.9689617" lon="8.2561167"><ele>224.0</ele><time>2026-03-29T15:45:16.004Z</time></trkpt><trkpt lat="44.9690417" lon="8.2562483"><ele>224.0</ele><time>2026-03-29T15:45:17.008Z</time></trkpt><trkpt lat="44.9691067" lon="8.2563917"><ele>224.0</ele><time>2026-03-29T15:45:18.006Z</time></trkpt><trkpt lat="44.96916" lon="8.2565483"><ele>219.75</ele><time>2026-03-29T15:45:19.008Z</time></trkpt><trkpt lat="44.969205" lon="8.2567167"><ele>215.5</ele><time>2026-03-29T15:45:20.004Z</time></trkpt><trkpt lat="44.9692617" lon="8.2568917"><ele>211.25</ele><time>2026-03-29T15:45:21.005Z</time></trkpt><trkpt lat="44.9693217" lon="8.2570683"><ele>207.0</ele><time>2026-03-29T15:45:22.003Z</time></trkpt><trkpt lat="44.9693983" lon="8.2572333"><ele>210.75</ele><time>2026-03-29T15:45:23.003Z</time></trkpt><trkpt lat="44.9694917" lon="8.25739"><ele>214.5</ele><time>2026-03-29T15:45:24.004Z</time></trkpt><trkpt lat="44.9696" lon="8.257535"><ele>218.25</ele><time>2026-03-29T15:45:25.005Z</time></trkpt><trkpt lat="44.9697267" lon="8.25766"><ele>222.0</ele><time>2026-03-29T15:45:26.005Z</time></trkpt><trkpt lat="44.9698617" lon="8.2577867"><ele>222.0</ele><time>2026-03-29T15:45:27.007Z</time></trkpt><trkpt lat="44.9699983" lon="8.2579117"><ele>222.0</ele><time>2026-03-29T15:45:28.003Z</time></trkpt><trkpt lat="44.970145" lon="8.2580317"><ele>222.0</ele><time>2026-03-29T15:45:29.006Z</time></trkpt><trkpt lat="44.9702817" lon="8.2581667"><ele>220.66666666666669</ele><time>2026-03-29T15:45:30.005Z</time></trkpt><trkpt lat="44.9704167" lon="8.25831"><ele>219.33333333333334</ele><time>2026-03-29T15:45:31.006Z</time></trkpt><trkpt lat="44.97055" lon="8.2584517"><ele>218.0</ele><time>2026-03-29T15:45:32.004Z</time></trkpt><trkpt lat="44.9706867" lon="8.2585867"><ele>218.0</ele><time>2026-03-29T15:45:33.004Z</time></trkpt><trkpt lat="44.97083" lon="8.2587167"><ele>218.0</ele><time>2026-03-29T15:45:34.003Z</time></trkpt><trkpt lat="44.9709767" lon="8.2588433"><ele>218.0</ele><time>2026-03-29T15:45:35.002Z</time></trkpt><trkpt lat="44.971125" lon="8.2589583"><ele>219.33333333333334</ele><time>2026-03-29T15:45:36.046Z</time></trkpt><trkpt lat="44.97127" lon="8.2590617"><ele>220.66666666666669</ele><time>2026-03-29T15:45:37.006Z</time></trkpt><trkpt lat="44.9714133" lon="8.2591517"><ele>222.0</ele><time>2026-03-29T15:45:38.003Z</time></trkpt><trkpt lat="44.9715517" lon="8.2592333"><ele>222.0</ele><time>2026-03-29T15:45:39.011Z</time></trkpt><trkpt lat="44.9716717" lon="8.25934"><ele>222.0</ele><time>2026-03-29T15:45:40.005Z</time></trkpt><trkpt lat="44.97178" lon="8.2594717"><ele>222.0</ele><time>2026-03-29T15:45:41.006Z</time></trkpt><trkpt lat="44.971875" lon="8.2596133"><ele>222.0</ele><time>2026-03-29T15:45:42.002Z</time></trkpt><trkpt lat="44.97196" lon="8.2597717"><ele>219.75</ele><time>2026-03-29T15:45:43.007Z</time></trkpt><trkpt lat="44.9720383" lon="8.2599367"><ele>217.5</ele><time>2026-03-29T15:45:44.005Z</time></trkpt><trkpt lat="44.97211" lon="8.260105"><ele>215.25</ele><time>2026-03-29T15:45:45.003Z</time></trkpt><trkpt lat="44.9721817" lon="8.2602883"><ele>213.0</ele><time>2026-03-29T15:45:46.002Z</time></trkpt><trkpt lat="44.9722617" lon="8.260465"><ele>214.33333333333331</ele><time>2026-03-29T15:45:47.003Z</time></trkpt><trkpt lat="44.972355" lon="8.2606367"><ele>215.66666666666666</ele><time>2026-03-29T15:45:48.011Z</time></trkpt><trkpt lat="44.9724517" lon="8.2608083"><ele>217.0</ele><time>2026-03-29T15:45:49.001Z</time></trkpt><trkpt lat="44.9725633" lon="8.26097"><ele>217.0</ele><time>2026-03-29T15:45:50.004Z</time></trkpt><trkpt lat="44.9726833" lon="8.2611233"><ele>217.0</ele><time>2026-03-29T15:45:51.004Z</time></trkpt><trkpt lat="44.972805" lon="8.2612717"><ele>217.0</ele><time>2026-03-29T15:45:52.005Z</time></trkpt><trkpt lat="44.9729367" lon="8.2614067"><ele>220.0</ele><time>2026-03-29T15:45:53.004Z</time></trkpt><trkpt lat="44.973065" lon="8.2615533"><ele>223.0</ele><time>2026-03-29T15:45:54.005Z</time></trkpt><trkpt lat="44.973175" lon="8.2617283"><ele>226.0</ele><time>2026-03-29T15:45:55.005Z</time></trkpt><trkpt lat="44.9732683" lon="8.26192"><ele>226.0</ele><time>2026-03-29T15:45:56.006Z</time></trkpt><trkpt lat="44.9733483" lon="8.2621267"><ele>226.0</ele><time>2026-03-29T15:45:57.003Z</time></trkpt><trkpt lat="44.9734283" lon="8.2623383"><ele>226.0</ele><time>2026-03-29T15:45:58.005Z</time></trkpt><trkpt lat="44.973485" lon="8.2625683"><ele>225.66666666666666</ele><time>2026-03-29T15:45:59.004Z</time></trkpt><trkpt lat="44.9735667" lon="8.2628033"><ele>225.33333333333331</ele><time>2026-03-29T15:46:00.01Z</time></trkpt><trkpt lat="44.973645" lon="8.263035"><ele>225.0</ele><time>2026-03-29T15:46:01.005Z</time></trkpt><trkpt lat="44.9737183" lon="8.2632567"><ele>225.0</ele><time>2026-03-29T15:46:02.005Z</time></trkpt><trkpt lat="44.9737817" lon="8.2634683"><ele>225.0</ele><time>2026-03-29T15:46:03.001Z</time></trkpt><trkpt lat="44.9738433" lon="8.2636733"><ele>225.0</ele><time>2026-03-29T15:46:04.007Z</time></trkpt><trkpt lat="44.9739017" lon="8.2638783"><ele>227.0</ele><time>2026-03-29T15:46:05.007Z</time></trkpt><trkpt lat="44.9739583" lon="8.2640867"><ele>229.0</ele><time>2026-03-29T15:46:06.009Z</time></trkpt><trkpt lat="44.9739983" lon="8.26429"><ele>231.0</ele><time>2026-03-29T15:46:07.004Z</time></trkpt><trkpt lat="44.9740117" lon="8.2644933"><ele>231.0</ele><time>2026-03-29T15:46:08.004Z</time></trkpt><trkpt lat="44.973995" lon="8.2646967"><ele>231.0</ele><time>2026-03-29T15:46:09.01Z</time></trkpt><trkpt lat="44.9739617" lon="8.264895"><ele>231.0</ele><time>2026-03-29T15:46:10.007Z</time></trkpt><trkpt lat="44.9739167" lon="8.26509"><ele>231.0</ele><time>2026-03-29T15:46:11.006Z</time></trkpt><trkpt lat="44.9738633" lon="8.2652817"><ele>231.25</ele><time>2026-03-29T15:46:12.006Z</time></trkpt><trkpt lat="44.9738017" lon="8.2654617"><ele>231.5</ele><time>2026-03-29T15:46:13.005Z</time></trkpt><trkpt lat="44.9737333" lon="8.2656217"><ele>231.75</ele><time>2026-03-29T15:46:14.002Z</time></trkpt><trkpt lat="44.9736533" lon="8.2657633"><ele>232.0</ele><time>2026-03-29T15:46:15.012Z</time></trkpt><trkpt lat="44.9735733" lon="8.265885"><ele>231.99999999999997</ele><time>2026-03-29T15:46:16.003Z</time></trkpt><trkpt lat="44.9735083" lon="8.2659833"><ele>232.0</ele><time>2026-03-29T15:46:17.012Z</time></trkpt><trkpt lat="44.97346" lon="8.2660967"><ele>232.0</ele><time>2026-03-29T15:46:18.004Z</time></trkpt><trkpt lat="44.9734217" lon="8.2662017"><ele>232.0</ele><time>2026-03-29T15:46:19.003Z</time></trkpt><trkpt lat="44.9734117" lon="8.2663017"><ele>231.99999999999997</ele><time>2026-03-29T15:46:20.005Z</time></trkpt><trkpt lat="44.9734683" lon="8.2664183"><ele>232.0</ele><time>2026-03-29T15:46:21.007Z</time></trkpt><trkpt lat="44.9735283" lon="8.2665383"><ele>230.5</ele><time>2026-03-29T15:46:22.011Z</time></trkpt><trkpt lat="44.97361" lon="8.2666733"><ele>229.0</ele><time>2026-03-29T15:46:23.006Z</time></trkpt><trkpt lat="44.9736833" lon="8.26681"><ele>227.5</ele><time>2026-03-29T15:46:24.005Z</time></trkpt><trkpt lat="44.9737533" lon="8.2669517"><ele>226.0</ele><time>2026-03-29T15:46:25.005Z</time></trkpt><trkpt lat="44.9738067" lon="8.267105"><ele>226.0</ele><time>2026-03-29T15:46:26.008Z</time></trkpt><trkpt lat="44.973845" lon="8.2672733"><ele>226.0</ele><time>2026-03-29T15:46:27.006Z</time></trkpt><trkpt lat="44.9738733" lon="8.26746"><ele>226.0</ele><time>2026-03-29T15:46:28.012Z</time></trkpt><trkpt lat="44.973895" lon="8.2676533"><ele>226.0</ele><time>2026-03-29T15:46:29.006Z</time></trkpt><trkpt lat="44.97392" lon="8.26786"><ele>224.5</ele><time>2026-03-29T15:46:30.005Z</time></trkpt><trkpt lat="44.973945" lon="8.268065"><ele>223.0</ele><time>2026-03-29T15:46:31.005Z</time></trkpt><trkpt lat="44.9739767" lon="8.2682717"><ele>221.5</ele><time>2026-03-29T15:46:32.006Z</time></trkpt><trkpt lat="44.9740117" lon="8.2684783"><ele>220.0</ele><time>2026-03-29T15:46:33.006Z</time></trkpt><trkpt lat="44.9740483" lon="8.2686867"><ele>220.0</ele><time>2026-03-29T15:46:34.001Z</time></trkpt><trkpt lat="44.9740867" lon="8.2688983"><ele>220.0</ele><time>2026-03-29T15:46:35.007Z</time></trkpt><trkpt lat="44.974125" lon="8.2691083"><ele>220.0</ele><time>2026-03-29T15:46:36.01Z</time></trkpt><trkpt lat="44.9741717" lon="8.26932"><ele>218.0</ele><time>2026-03-29T15:46:37.003Z</time></trkpt><trkpt lat="44.9742267" lon="8.2695267"><ele>216.0</ele><time>2026-03-29T15:46:38.004Z</time></trkpt><trkpt lat="44.97429" lon="8.2697317"><ele>214.0</ele><time>2026-03-29T15:46:39.014Z</time></trkpt><trkpt lat="44.9743617" lon="8.2699317"><ele>214.0</ele><time>2026-03-29T15:46:40Z</time></trkpt><trkpt lat="44.97444" lon="8.2701317"><ele>214.0</ele><time>2026-03-29T15:46:41.007Z</time></trkpt><trkpt lat="44.9745233" lon="8.2703283"><ele>214.0</ele><time>2026-03-29T15:46:42.006Z</time></trkpt><trkpt lat="44.9746033" lon="8.2705183"><ele>217.33333333333331</ele><time>2026-03-29T15:46:43.006Z</time></trkpt><trkpt lat="44.9746833" lon="8.270705"><ele>220.66666666666669</ele><time>2026-03-29T15:46:44.005Z</time></trkpt><trkpt lat="44.974765" lon="8.270895"><ele>224.0</ele><time>2026-03-29T15:46:45.008Z</time></trkpt><trkpt lat="44.9748433" lon="8.271085"><ele>224.0</ele><time>2026-03-29T15:46:46.001Z</time></trkpt><trkpt lat="44.9749217" lon="8.271275"><ele>224.0</ele><time>2026-03-29T15:46:47.004Z</time></trkpt><trkpt lat="44.9750017" lon="8.2714683"><ele>224.0</ele><time>2026-03-29T15:46:48.002Z</time></trkpt><trkpt lat="44.9750767" lon="8.2716583"><ele>222.66666666666669</ele><time>2026-03-29T15:46:49.008Z</time></trkpt><trkpt lat="44.9751617" lon="8.271845"><ele>221.33333333333331</ele><time>2026-03-29T15:46:50.008Z</time></trkpt><trkpt lat="44.9752567" lon="8.2720267"><ele>220.0</ele><time>2026-03-29T15:46:51.004Z</time></trkpt><trkpt lat="44.97536" lon="8.2722017"><ele>222.33333333333331</ele><time>2026-03-29T15:46:52.007Z</time></trkpt><trkpt lat="44.97547" lon="8.272375"><ele>224.66666666666669</ele><time>2026-03-29T15:46:53.003Z</time></trkpt><trkpt lat="44.97559" lon="8.27254"><ele>227.0</ele><time>2026-03-29T15:46:54.007Z</time></trkpt><trkpt lat="44.97572" lon="8.2726967"><ele>227.0</ele><time>2026-03-29T15:46:55.004Z</time></trkpt><trkpt lat="44.9758517" lon="8.272845"><ele>227.0</ele><time>2026-03-29T15:46:56.004Z</time></trkpt><trkpt lat="44.9759817" lon="8.2729783"><ele>227.0</ele><time>2026-03-29T15:46:57.005Z</time></trkpt><trkpt lat="44.9761117" lon="8.273095"><ele>226.0</ele><time>2026-03-29T15:46:58.008Z</time></trkpt><trkpt lat="44.9762317" lon="8.2732067"><ele>225.0</ele><time>2026-03-29T15:46:59.006Z</time></trkpt><trkpt lat="44.976345" lon="8.273305"><ele>224.0</ele><time>2026-03-29T15:47:00.009Z</time></trkpt><trkpt lat="44.9764483" lon="8.2733983"><ele>223.0</ele><time>2026-03-29T15:47:01.004Z</time></trkpt><trkpt lat="44.9765367" lon="8.2735"><ele>223.0</ele><time>2026-03-29T15:47:02.005Z</time></trkpt><trkpt lat="44.9766" lon="8.2736233"><ele>223.0</ele><time>2026-03-29T15:47:03.005Z</time></trkpt><trkpt lat="44.9766483" lon="8.27376"><ele>223.0</ele><time>2026-03-29T15:47:04.007Z</time></trkpt><trkpt lat="44.97667" lon="8.2739317"><ele>223.0</ele><time>2026-03-29T15:47:05.002Z</time></trkpt><trkpt lat="44.97667" lon="8.2741067"><ele>224.0</ele><time>2026-03-29T15:47:06.005Z</time></trkpt><trkpt lat="44.9766767" lon="8.2742867"><ele>225.0</ele><time>2026-03-29T15:47:07.002Z</time></trkpt><trkpt lat="44.976685" lon="8.2744683"><ele>226.0</ele><time>2026-03-29T15:47:08.008Z</time></trkpt><trkpt lat="44.9767" lon="8.2746533"><ele>227.0</ele><time>2026-03-29T15:47:09.002Z</time></trkpt><trkpt lat="44.9767233" lon="8.27484"><ele>224.25</ele><time>2026-03-29T15:47:10.005Z</time></trkpt><trkpt lat="44.9767533" lon="8.2750283"><ele>221.5</ele><time>2026-03-29T15:47:11.009Z</time></trkpt><trkpt lat="44.976785" lon="8.2752217"><ele>218.75</ele><time>2026-03-29T15:47:12.008Z</time></trkpt><trkpt lat="44.9768183" lon="8.275425"><ele>216.0</ele><time>2026-03-29T15:47:13.006Z</time></trkpt><trkpt lat="44.9768517" lon="8.2756267"><ele>216.0</ele><time>2026-03-29T15:47:14.002Z</time></trkpt><trkpt lat="44.97688" lon="8.2758217"><ele>216.0</ele><time>2026-03-29T15:47:15.004Z</time></trkpt><trkpt lat="44.9768983" lon="8.2760183"><ele>216.0</ele><time>2026-03-29T15:47:16.01Z</time></trkpt><trkpt lat="44.9768917" lon="8.2762083"><ele>216.0</ele><time>2026-03-29T15:47:17.005Z</time></trkpt><trkpt lat="44.9768633" lon="8.2763967"><ele>218.25</ele><time>2026-03-29T15:47:18.008Z</time></trkpt><trkpt lat="44.976815" lon="8.276585"><ele>220.5</ele><time>2026-03-29T15:47:19.003Z</time></trkpt><trkpt lat="44.97676" lon="8.2767783"><ele>222.75</ele><time>2026-03-29T15:47:20.007Z</time></trkpt><trkpt lat="44.9767083" lon="8.2769767"><ele>225.0</ele><time>2026-03-29T15:47:21.003Z</time></trkpt><trkpt lat="44.97666" lon="8.2771783"><ele>225.25</ele><time>2026-03-29T15:47:22.005Z</time></trkpt><trkpt lat="44.9766233" lon="8.27738"><ele>225.5</ele><time>2026-03-29T15:47:23.002Z</time></trkpt><trkpt lat="44.9765967" lon="8.277575"><ele>225.75</ele><time>2026-03-29T15:47:24.005Z</time></trkpt><trkpt lat="44.97658" lon="8.277775"><ele>226.0</ele><time>2026-03-29T15:47:25.003Z</time></trkpt><trkpt lat="44.9765733" lon="8.2779833"><ele>226.66666666666666</ele><time>2026-03-29T15:47:26.008Z</time></trkpt><trkpt lat="44.9765783" lon="8.278205"><ele>227.33333333333331</ele><time>2026-03-29T15:47:27.004Z</time></trkpt><trkpt lat="44.9765883" lon="8.2784333"><ele>228.0</ele><time>2026-03-29T15:47:28.006Z</time></trkpt><trkpt lat="44.9765983" lon="8.27866"><ele>228.0</ele><time>2026-03-29T15:47:29.006Z</time></trkpt><trkpt lat="44.9766067" lon="8.2788817"><ele>228.0</ele><time>2026-03-29T15:47:30.003Z</time></trkpt><trkpt lat="44.976605" lon="8.2791117"><ele>228.0</ele><time>2026-03-29T15:47:31.01Z</time></trkpt><trkpt lat="44.97659" lon="8.2793467"><ele>227.66666666666669</ele><time>2026-03-29T15:47:32Z</time></trkpt><trkpt lat="44.9765617" lon="8.2795883"><ele>227.33333333333334</ele><time>2026-03-29T15:47:33.005Z</time></trkpt><trkpt lat="44.9765317" lon="8.2798333"><ele>227.0</ele><time>2026-03-29T15:47:34.004Z</time></trkpt><trkpt lat="44.9765017" lon="8.2800833"><ele>226.0</ele><time>2026-03-29T15:47:35.009Z</time></trkpt><trkpt lat="44.9764683" lon="8.2803317"><ele>225.0</ele><time>2026-03-29T15:47:36.005Z</time></trkpt><trkpt lat="44.9764333" lon="8.28058"><ele>224.0</ele><time>2026-03-29T15:47:37.006Z</time></trkpt><trkpt lat="44.9763983" lon="8.280815"><ele>223.33333333333334</ele><time>2026-03-29T15:47:38.003Z</time></trkpt><trkpt lat="44.9763667" lon="8.28104"><ele>222.66666666666669</ele><time>2026-03-29T15:47:39.004Z</time></trkpt><trkpt lat="44.97634" lon="8.28125"><ele>222.0</ele><time>2026-03-29T15:47:40.003Z</time></trkpt><trkpt lat="44.9763117" lon="8.2814417"><ele>222.0</ele><time>2026-03-29T15:47:41.007Z</time></trkpt><trkpt lat="44.976285" lon="8.2816183"><ele>222.0</ele><time>2026-03-29T15:47:42.004Z</time></trkpt><trkpt lat="44.9762583" lon="8.281775"><ele>222.0</ele><time>2026-03-29T15:47:43.007Z</time></trkpt><trkpt lat="44.97624" lon="8.2819017"><ele>222.0</ele><time>2026-03-29T15:47:44.003Z</time></trkpt><trkpt lat="44.976225" lon="8.2820067"><ele>222.0</ele><time>2026-03-29T15:47:45.003Z</time></trkpt><trkpt lat="44.9762167" lon="8.28212"><ele>222.0</ele><time>2026-03-29T15:47:47.003Z</time></trkpt><trkpt lat="44.9762533" lon="8.2822"><ele>222.0</ele><time>2026-03-29T15:47:50.008Z</time></trkpt><trkpt lat="44.9763417" lon="8.282205"><ele>222.0</ele><time>2026-03-29T15:47:51.003Z</time></trkpt><trkpt lat="44.9764317" lon="8.2822"><ele>222.0</ele><time>2026-03-29T15:47:52.003Z</time></trkpt><trkpt lat="44.9765383" lon="8.282195"><ele>222.0</ele><time>2026-03-29T15:47:53.009Z</time></trkpt><trkpt lat="44.9766967" lon="8.282205"><ele>223.0</ele><time>2026-03-29T15:47:54.002Z</time></trkpt><trkpt lat="44.97685" lon="8.2822"><ele>224.0</ele><time>2026-03-29T15:47:55.007Z</time></trkpt><trkpt lat="44.9770067" lon="8.2821933"><ele>225.0</ele><time>2026-03-29T15:47:56.005Z</time></trkpt><trkpt lat="44.9771667" lon="8.28219"><ele>225.0</ele><time>2026-03-29T15:47:57.014Z</time></trkpt><trkpt lat="44.977325" lon="8.28219"><ele>225.0</ele><time>2026-03-29T15:47:58.005Z</time></trkpt><trkpt lat="44.977475" lon="8.2821967"><ele>225.0</ele><time>2026-03-29T15:47:59.007Z</time></trkpt><trkpt lat="44.977625" lon="8.2822117"><ele>226.5</ele><time>2026-03-29T15:48:00.005Z</time></trkpt><trkpt lat="44.9777683" lon="8.282245"><ele>228.0</ele><time>2026-03-29T15:48:01.006Z</time></trkpt><trkpt lat="44.9778983" lon="8.2822933"><ele>229.5</ele><time>2026-03-29T15:48:02.003Z</time></trkpt><trkpt lat="44.97802" lon="8.2823583"><ele>231.0</ele><time>2026-03-29T15:48:03.004Z</time></trkpt><trkpt lat="44.9781367" lon="8.28244"><ele>231.0</ele><time>2026-03-29T15:48:04.005Z</time></trkpt><trkpt lat="44.978245" lon="8.282535"><ele>231.0</ele><time>2026-03-29T15:48:05.011Z</time></trkpt><trkpt lat="44.9783517" lon="8.282635"><ele>231.0</ele><time>2026-03-29T15:48:06.005Z</time></trkpt><trkpt lat="44.9784567" lon="8.282745"><ele>231.0</ele><time>2026-03-29T15:48:07.003Z</time></trkpt><trkpt lat="44.978565" lon="8.28285"><ele>232.75</ele><time>2026-03-29T15:48:08.006Z</time></trkpt><trkpt lat="44.9786767" lon="8.282955"><ele>234.5</ele><time>2026-03-29T15:48:09.006Z</time></trkpt><trkpt lat="44.978795" lon="8.2830517"><ele>236.25</ele><time>2026-03-29T15:48:10.006Z</time></trkpt><trkpt lat="44.9789067" lon="8.283155"><ele>238.0</ele><time>2026-03-29T15:48:11.003Z</time></trkpt><trkpt lat="44.9790217" lon="8.28326"><ele>238.0</ele><time>2026-03-29T15:48:12.007Z</time></trkpt><trkpt lat="44.9791367" lon="8.2833683"><ele>238.0</ele><time>2026-03-29T15:48:13.006Z</time></trkpt><trkpt lat="44.97926" lon="8.283465"><ele>238.0</ele><time>2026-03-29T15:48:14.003Z</time></trkpt><trkpt lat="44.9793867" lon="8.2835433"><ele>238.0</ele><time>2026-03-29T15:48:15.008Z</time></trkpt><trkpt lat="44.97952" lon="8.283595"><ele>240.0</ele><time>2026-03-29T15:48:16.006Z</time></trkpt><trkpt lat="44.9796583" lon="8.28363"><ele>242.0</ele><time>2026-03-29T15:48:17.003Z</time></trkpt><trkpt lat="44.979795" lon="8.2836467"><ele>244.0</ele><time>2026-03-29T15:48:18.008Z</time></trkpt><trkpt lat="44.9799333" lon="8.2836417"><ele>246.0</ele><time>2026-03-29T15:48:19.007Z</time></trkpt><trkpt lat="44.9800717" lon="8.2836233"><ele>246.5</ele><time>2026-03-29T15:48:20.005Z</time></trkpt><trkpt lat="44.98021" lon="8.2836033"><ele>247.0</ele><time>2026-03-29T15:48:21.01Z</time></trkpt><trkpt lat="44.9803467" lon="8.2835867"><ele>247.5</ele><time>2026-03-29T15:48:22.005Z</time></trkpt><trkpt lat="44.9804867" lon="8.28357"><ele>248.0</ele><time>2026-03-29T15:48:23.007Z</time></trkpt><trkpt lat="44.98063" lon="8.2835533"><ele>248.0</ele><time>2026-03-29T15:48:24.007Z</time></trkpt><trkpt lat="44.9807767" lon="8.2835367"><ele>248.0</ele><time>2026-03-29T15:48:25.004Z</time></trkpt><trkpt lat="44.9809233" lon="8.28352"><ele>248.0</ele><time>2026-03-29T15:48:26.004Z</time></trkpt><trkpt lat="44.9810633" lon="8.2835067"><ele>248.0</ele><time>2026-03-29T15:48:27.007Z</time></trkpt><trkpt lat="44.9812" lon="8.283505"><ele>248.75</ele><time>2026-03-29T15:48:28.003Z</time></trkpt><trkpt lat="44.9813383" lon="8.2835233"><ele>249.5</ele><time>2026-03-29T15:48:29.002Z</time></trkpt><trkpt lat="44.9814717" lon="8.2835833"><ele>250.25</ele><time>2026-03-29T15:48:30.004Z</time></trkpt><trkpt lat="44.981585" lon="8.2836833"><ele>251.0</ele><time>2026-03-29T15:48:31.001Z</time></trkpt><trkpt lat="44.9816817" lon="8.2838133"><ele>254.66666666666669</ele><time>2026-03-29T15:48:32.005Z</time></trkpt><trkpt lat="44.98177" lon="8.2839767"><ele>258.3333333333333</ele><time>2026-03-29T15:48:33.006Z</time></trkpt><trkpt lat="44.98185" lon="8.2841617"><ele>262.0</ele><time>2026-03-29T15:48:34.002Z</time></trkpt><trkpt lat="44.9819367" lon="8.284345"><ele>262.0</ele><time>2026-03-29T15:48:35.004Z</time></trkpt><trkpt lat="44.982025" lon="8.2845333"><ele>262.0</ele><time>2026-03-29T15:48:36.002Z</time></trkpt><trkpt lat="44.9821167" lon="8.284725"><ele>262.0</ele><time>2026-03-29T15:48:37.008Z</time></trkpt><trkpt lat="44.9822117" lon="8.2849217"><ele>261.0</ele><time>2026-03-29T15:48:38.003Z</time></trkpt><trkpt lat="44.9823033" lon="8.285115"><ele>260.0</ele><time>2026-03-29T15:48:39.005Z</time></trkpt><trkpt lat="44.982395" lon="8.2853033"><ele>259.0</ele><time>2026-03-29T15:48:40.003Z</time></trkpt><trkpt lat="44.982485" lon="8.28548"><ele>259.25</ele><time>2026-03-29T15:48:41.009Z</time></trkpt><trkpt lat="44.9825817" lon="8.28563"><ele>259.5</ele><time>2026-03-29T15:48:42.008Z</time></trkpt><trkpt lat="44.98269" lon="8.285745"><ele>259.75</ele><time>2026-03-29T15:48:43.007Z</time></trkpt><trkpt lat="44.98281" lon="8.2858183"><ele>260.0</ele><time>2026-03-29T15:48:44.006Z</time></trkpt><trkpt lat="44.9829433" lon="8.285855"><ele>260.0</ele><time>2026-03-29T15:48:45.008Z</time></trkpt><trkpt lat="44.9830833" lon="8.2858633"><ele>260.0</ele><time>2026-03-29T15:48:46.009Z</time></trkpt><trkpt lat="44.9832283" lon="8.2858533"><ele>260.0</ele><time>2026-03-29T15:48:47.004Z</time></trkpt><trkpt lat="44.9833717" lon="8.2858233"><ele>260.0</ele><time>2026-03-29T15:48:48.004Z</time></trkpt><trkpt lat="44.9835167" lon="8.285765"><ele>258.6666666666667</ele><time>2026-03-29T15:48:49.002Z</time></trkpt><trkpt lat="44.9836483" lon="8.2856683"><ele>257.3333333333333</ele><time>2026-03-29T15:48:50.007Z</time></trkpt><trkpt lat="44.9837733" lon="8.28554"><ele>256.0</ele><time>2026-03-29T15:48:51.005Z</time></trkpt><trkpt lat="44.9838917" lon="8.2853833"><ele>256.0</ele><time>2026-03-29T15:48:52.006Z</time></trkpt><trkpt lat="44.9840133" lon="8.2852183"><ele>256.0</ele><time>2026-03-29T15:48:53.005Z</time></trkpt><trkpt lat="44.9841433" lon="8.2850617"><ele>256.0</ele><time>2026-03-29T15:48:54.005Z</time></trkpt><trkpt lat="44.9842817" lon="8.28493"><ele>256.66666666666663</ele><time>2026-03-29T15:48:55.001Z</time></trkpt><trkpt lat="44.9844333" lon="8.28483"><ele>257.3333333333333</ele><time>2026-03-29T15:48:56.011Z</time></trkpt><trkpt lat="44.9846" lon="8.2847567"><ele>258.0</ele><time>2026-03-29T15:48:57.003Z</time></trkpt><trkpt lat="44.9847767" lon="8.2847033"><ele>258.0</ele><time>2026-03-29T15:48:58.002Z</time></trkpt><trkpt lat="44.9849567" lon="8.2846517"><ele>258.0</ele><time>2026-03-29T15:48:59.007Z</time></trkpt><trkpt lat="44.9851433" lon="8.2846033"><ele>258.0</ele><time>2026-03-29T15:49:00.008Z</time></trkpt><trkpt lat="44.9853233" lon="8.28456"><ele>259.6666666666667</ele><time>2026-03-29T15:49:01.004Z</time></trkpt><trkpt lat="44.9854983" lon="8.2845167"><ele>261.33333333333337</ele><time>2026-03-29T15:49:02.008Z</time></trkpt><trkpt lat="44.9856717" lon="8.2844783"><ele>263.0</ele><time>2026-03-29T15:49:03.006Z</time></trkpt><trkpt lat="44.9858433" lon="8.284455"><ele>261.6666666666667</ele><time>2026-03-29T15:49:04.003Z</time></trkpt><trkpt lat="44.9860067" lon="8.2844533"><ele>260.3333333333333</ele><time>2026-03-29T15:49:05.003Z</time></trkpt><trkpt lat="44.9861667" lon="8.2844733"><ele>259.0</ele><time>2026-03-29T15:49:06.006Z</time></trkpt><trkpt lat="44.9863217" lon="8.2845167"><ele>259.0</ele><time>2026-03-29T15:49:07.005Z</time></trkpt><trkpt lat="44.98647" lon="8.28458"><ele>259.0</ele><time>2026-03-29T15:49:08.003Z</time></trkpt><trkpt lat="44.986615" lon="8.2846533"><ele>259.0</ele><time>2026-03-29T15:49:09.005Z</time></trkpt><trkpt lat="44.986755" lon="8.2847317"><ele>259.25</ele><time>2026-03-29T15:49:10.004Z</time></trkpt><trkpt lat="44.986895" lon="8.28481"><ele>259.5</ele><time>2026-03-29T15:49:11.011Z</time></trkpt><trkpt lat="44.9870317" lon="8.28489"><ele>259.75</ele><time>2026-03-29T15:49:12.005Z</time></trkpt><trkpt lat="44.98717" lon="8.2849683"><ele>260.0</ele><time>2026-03-29T15:49:13.005Z</time></trkpt><trkpt lat="44.9873117" lon="8.2850467"><ele>260.0</ele><time>2026-03-29T15:49:14.004Z</time></trkpt><trkpt lat="44.9874567" lon="8.285115"><ele>260.0</ele><time>2026-03-29T15:49:15.01Z</time></trkpt><trkpt lat="44.9876033" lon="8.285175"><ele>260.0</ele><time>2026-03-29T15:49:16.003Z</time></trkpt><trkpt lat="44.9877533" lon="8.2852133"><ele>261.0</ele><time>2026-03-29T15:49:17.002Z</time></trkpt><trkpt lat="44.9879083" lon="8.285225"><ele>262.0</ele><time>2026-03-29T15:49:18.011Z</time></trkpt><trkpt lat="44.988065" lon="8.2852267"><ele>263.0</ele><time>2026-03-29T15:49:19.003Z</time></trkpt><trkpt lat="44.98822" lon="8.2852267"><ele>264.33333333333337</ele><time>2026-03-29T15:49:20.005Z</time></trkpt><trkpt lat="44.9883717" lon="8.2852283"><ele>265.6666666666667</ele><time>2026-03-29T15:49:21.005Z</time></trkpt><trkpt lat="44.9885217" lon="8.2852233"><ele>267.0</ele><time>2026-03-29T15:49:22.003Z</time></trkpt><trkpt lat="44.988675" lon="8.2852233"><ele>267.0</ele><time>2026-03-29T15:49:23.006Z</time></trkpt><trkpt lat="44.9888267" lon="8.2852183"><ele>267.0</ele><time>2026-03-29T15:49:24.006Z</time></trkpt><trkpt lat="44.9889883" lon="8.2852033"><ele>267.0</ele><time>2026-03-29T15:49:25.005Z</time></trkpt><trkpt lat="44.9891467" lon="8.2851733"><ele>269.0</ele><time>2026-03-29T15:49:26.004Z</time></trkpt><trkpt lat="44.989305" lon="8.2851267"><ele>271.0</ele><time>2026-03-29T15:49:27.008Z</time></trkpt><trkpt lat="44.9894583" lon="8.28507"><ele>273.0</ele><time>2026-03-29T15:49:28.006Z</time></trkpt><trkpt lat="44.98961" lon="8.2850133"><ele>273.0</ele><time>2026-03-29T15:49:29.002Z</time></trkpt><trkpt lat="44.9897517" lon="8.284965"><ele>273.0</ele><time>2026-03-29T15:49:30.012Z</time></trkpt><trkpt lat="44.9898917" lon="8.2849183"><ele>273.0</ele><time>2026-03-29T15:49:31.005Z</time></trkpt><trkpt lat="44.9900333" lon="8.2848667"><ele>273.0</ele><time>2026-03-29T15:49:32.005Z</time></trkpt><trkpt lat="44.990175" lon="8.28479"><ele>275.6666666666667</ele><time>2026-03-29T15:49:33.007Z</time></trkpt><trkpt lat="44.99032" lon="8.2846817"><ele>278.33333333333337</ele><time>2026-03-29T15:49:34.009Z</time></trkpt><trkpt lat="44.9904767" lon="8.2845533"><ele>281.0</ele><time>2026-03-29T15:49:35.002Z</time></trkpt><trkpt lat="44.9906333" lon="8.28442"><ele>281.0</ele><time>2026-03-29T15:49:36.001Z</time></trkpt><trkpt lat="44.9907817" lon="8.28429"><ele>281.0</ele><time>2026-03-29T15:49:37.011Z</time></trkpt><trkpt lat="44.9909233" lon="8.2841717"><ele>281.0</ele><time>2026-03-29T15:49:38.004Z</time></trkpt><trkpt lat="44.9910583" lon="8.2840533"><ele>279.75</ele><time>2026-03-29T15:49:39.005Z</time></trkpt><trkpt lat="44.9911633" lon="8.2839317"><ele>278.5</ele><time>2026-03-29T15:49:40.003Z</time></trkpt><trkpt lat="44.9912567" lon="8.28381"><ele>277.25</ele><time>2026-03-29T15:49:41.004Z</time></trkpt><trkpt lat="44.991325" lon="8.2836683"><ele>276.0</ele><time>2026-03-29T15:49:42.005Z</time></trkpt><trkpt lat="44.991365" lon="8.2834983"><ele>276.0</ele><time>2026-03-29T15:49:43.003Z</time></trkpt><trkpt lat="44.9913733" lon="8.2833117"><ele>276.0</ele><time>2026-03-29T15:49:44.005Z</time></trkpt><trkpt lat="44.9913583" lon="8.2831067"><ele>276.0</ele><time>2026-03-29T15:49:45.003Z</time></trkpt><trkpt lat="44.991335" lon="8.282895"><ele>276.0</ele><time>2026-03-29T15:49:46.006Z</time></trkpt><trkpt lat="44.9913117" lon="8.2826917"><ele>276.5</ele><time>2026-03-29T15:49:47.004Z</time></trkpt><trkpt lat="44.9912917" lon="8.2825"><ele>277.0</ele><time>2026-03-29T15:49:48.005Z</time></trkpt><trkpt lat="44.9912767" lon="8.2823183"><ele>277.5</ele><time>2026-03-29T15:49:49.005Z</time></trkpt><trkpt lat="44.9912783" lon="8.2821483"><ele>278.0</ele><time>2026-03-29T15:49:50.009Z</time></trkpt><trkpt lat="44.9912967" lon="8.282005"><ele>279.0</ele><time>2026-03-29T15:49:51.006Z</time></trkpt><trkpt lat="44.991325" lon="8.2819"><ele>280.0</ele><time>2026-03-29T15:49:52.007Z</time></trkpt><trkpt lat="44.991365" lon="8.28183"><ele>281.0</ele><time>2026-03-29T15:49:53.002Z</time></trkpt><trkpt lat="44.9914483" lon="8.28172"><ele>282.0</ele><time>2026-03-29T15:49:55.009Z</time></trkpt><trkpt lat="44.9914967" lon="8.2816333"><ele>283.0</ele><time>2026-03-29T15:49:57.005Z</time></trkpt><trkpt lat="44.99152" lon="8.2815083"><ele>284.0</ele><time>2026-03-29T15:51:03.006Z</time></trkpt><trkpt lat="44.9915517" lon="8.28139"><ele>284.0</ele><time>2026-03-29T15:51:05.01Z</time></trkpt><trkpt lat="44.9915817" lon="8.28131"><ele>284.0</ele><time>2026-03-29T15:51:06.002Z</time></trkpt><trkpt lat="44.9916233" lon="8.2812233"><ele>284.0</ele><time>2026-03-29T15:51:07.004Z</time></trkpt><trkpt lat="44.9916717" lon="8.281135"><ele>284.0</ele><time>2026-03-29T15:51:08.004Z</time></trkpt><trkpt lat="44.9917367" lon="8.28105"><ele>284.0</ele><time>2026-03-29T15:51:09.005Z</time></trkpt><trkpt lat="44.9918117" lon="8.2809667"><ele>284.0</ele><time>2026-03-29T15:51:10.003Z</time></trkpt><trkpt lat="44.9919017" lon="8.2809"><ele>284.0</ele><time>2026-03-29T15:51:11.001Z</time></trkpt><trkpt lat="44.9920017" lon="8.2808467"><ele>284.0</ele><time>2026-03-29T15:51:12.005Z</time></trkpt><trkpt lat="44.9921117" lon="8.2808017"><ele>284.0</ele><time>2026-03-29T15:51:13.006Z</time></trkpt><trkpt lat="44.9922267" lon="8.2807617"><ele>284.0</ele><time>2026-03-29T15:51:14.001Z</time></trkpt><trkpt lat="44.992345" lon="8.2807233"><ele>284.0</ele><time>2026-03-29T15:51:15.004Z</time></trkpt><trkpt lat="44.9924667" lon="8.2806917"><ele>284.0</ele><time>2026-03-29T15:51:16.004Z</time></trkpt><trkpt lat="44.9925917" lon="8.280665"><ele>284.0</ele><time>2026-03-29T15:51:17.007Z</time></trkpt><trkpt lat="44.99272" lon="8.2806467"><ele>284.0</ele><time>2026-03-29T15:51:18.004Z</time></trkpt><trkpt lat="44.9928567" lon="8.2806383"><ele>283.25</ele><time>2026-03-29T15:51:19.002Z</time></trkpt><trkpt lat="44.9929967" lon="8.28064"><ele>282.5</ele><time>2026-03-29T15:51:20.007Z</time></trkpt><trkpt lat="44.9931367" lon="8.2806483"><ele>281.75</ele><time>2026-03-29T15:51:21.006Z</time></trkpt><trkpt lat="44.99328" lon="8.2806617"><ele>281.0</ele><time>2026-03-29T15:51:22.003Z</time></trkpt><trkpt lat="44.9934217" lon="8.280675"><ele>280.5</ele><time>2026-03-29T15:51:23.007Z</time></trkpt><trkpt lat="44.9935667" lon="8.2806883"><ele>280.0</ele><time>2026-03-29T15:51:24.004Z</time></trkpt><trkpt lat="44.993715" lon="8.2807017"><ele>279.5</ele><time>2026-03-29T15:51:25.005Z</time></trkpt><trkpt lat="44.9938633" lon="8.2807083"><ele>279.0</ele><time>2026-03-29T15:51:26.008Z</time></trkpt><trkpt lat="44.9940067" lon="8.280715"><ele>279.0</ele><time>2026-03-29T15:51:27.006Z</time></trkpt><trkpt lat="44.9941517" lon="8.2807183"><ele>279.0</ele><time>2026-03-29T15:51:28.002Z</time></trkpt><trkpt lat="44.9942933" lon="8.2807217"><ele>279.0</ele><time>2026-03-29T15:51:29Z</time></trkpt><trkpt lat="44.9944417" lon="8.2807317"><ele>279.0</ele><time>2026-03-29T15:51:30.009Z</time></trkpt><trkpt lat="44.99459" lon="8.2807417"><ele>277.3333333333333</ele><time>2026-03-29T15:51:31.003Z</time></trkpt><trkpt lat="44.9947433" lon="8.2807417"><ele>275.66666666666663</ele><time>2026-03-29T15:51:32.004Z</time></trkpt><trkpt lat="44.994895" lon="8.2807433"><ele>274.0</ele><time>2026-03-29T15:51:33.002Z</time></trkpt><trkpt lat="44.995045" lon="8.280745"><ele>274.0</ele><time>2026-03-29T15:51:34.007Z</time></trkpt><trkpt lat="44.995195" lon="8.2807383"><ele>274.0</ele><time>2026-03-29T15:51:35.004Z</time></trkpt><trkpt lat="44.9953367" lon="8.280725"><ele>274.0</ele><time>2026-03-29T15:51:36.002Z</time></trkpt><trkpt lat="44.9954717" lon="8.2807017"><ele>274.0</ele><time>2026-03-29T15:51:37.005Z</time></trkpt><trkpt lat="44.9956033" lon="8.2806567"><ele>272.5</ele><time>2026-03-29T15:51:38.002Z</time></trkpt><trkpt lat="44.995735" lon="8.28059"><ele>271.0</ele><time>2026-03-29T15:51:39.002Z</time></trkpt><trkpt lat="44.995865" lon="8.28052"><ele>269.5</ele><time>2026-03-29T15:51:40.004Z</time></trkpt><trkpt lat="44.995995" lon="8.2804483"><ele>268.0</ele><time>2026-03-29T15:51:41.005Z</time></trkpt><trkpt lat="44.99613" lon="8.28037"><ele>268.0</ele><time>2026-03-29T15:51:42.007Z</time></trkpt><trkpt lat="44.99627" lon="8.2802917"><ele>268.0</ele><time>2026-03-29T15:51:43.005Z</time></trkpt><trkpt lat="44.9964117" lon="8.2802067"><ele>268.0</ele><time>2026-03-29T15:51:44.005Z</time></trkpt><trkpt lat="44.996555" lon="8.28012"><ele>271.3333333333333</ele><time>2026-03-29T15:51:45.004Z</time></trkpt><trkpt lat="44.9966967" lon="8.2800283"><ele>274.6666666666667</ele><time>2026-03-29T15:51:46.012Z</time></trkpt><trkpt lat="44.9968367" lon="8.2799317"><ele>278.0</ele><time>2026-03-29T15:51:47.004Z</time></trkpt><trkpt lat="44.9969767" lon="8.2798117"><ele>273.0</ele><time>2026-03-29T15:51:48.004Z</time></trkpt><trkpt lat="44.9971117" lon="8.2796867"><ele>268.0</ele><time>2026-03-29T15:51:49.005Z</time></trkpt><trkpt lat="44.9972483" lon="8.2795633"><ele>263.0</ele><time>2026-03-29T15:51:50.004Z</time></trkpt><trkpt lat="44.9973883" lon="8.2794433"><ele>266.6666666666667</ele><time>2026-03-29T15:51:51.006Z</time></trkpt><trkpt lat="44.9975267" lon="8.27932"><ele>270.3333333333333</ele><time>2026-03-29T15:51:52.002Z</time></trkpt><trkpt lat="44.997665" lon="8.2792"><ele>274.0</ele><time>2026-03-29T15:51:53.001Z</time></trkpt><trkpt lat="44.997805" lon="8.2790817"><ele>274.0</ele><time>2026-03-29T15:51:54.004Z</time></trkpt><trkpt lat="44.9979417" lon="8.278955"><ele>274.0</ele><time>2026-03-29T15:51:55.002Z</time></trkpt><trkpt lat="44.9980783" lon="8.27883"><ele>274.0</ele><time>2026-03-29T15:51:56.004Z</time></trkpt><trkpt lat="44.9982033" lon="8.2787017"><ele>273.4</ele><time>2026-03-29T15:51:57.003Z</time></trkpt><trkpt lat="44.998315" lon="8.2785883"><ele>272.79999999999995</ele><time>2026-03-29T15:51:58.004Z</time></trkpt><trkpt lat="44.9984133" lon="8.2784817"><ele>272.20000000000005</ele><time>2026-03-29T15:51:59.002Z</time></trkpt><trkpt lat="44.9984967" lon="8.2783917"><ele>271.6</ele><time>2026-03-29T15:52:00.003Z</time></trkpt><trkpt lat="44.9985683" lon="8.278335"><ele>271.0</ele><time>2026-03-29T15:52:01.004Z</time></trkpt><trkpt lat="44.9986333" lon="8.27832"><ele>271.0</ele><time>2026-03-29T15:52:02.001Z</time></trkpt><trkpt lat="44.9987317" lon="8.2783583"><ele>271.0</ele><time>2026-03-29T15:52:04.002Z</time></trkpt><trkpt lat="44.9988017" lon="8.278465"><ele>271.0</ele><time>2026-03-29T15:52:06.012Z</time></trkpt><trkpt lat="44.99884" lon="8.2786517"><ele>271.0</ele><time>2026-03-29T15:52:08.002Z</time></trkpt><trkpt lat="44.9988483" lon="8.2788117"><ele>270.0</ele><time>2026-03-29T15:52:09.004Z</time></trkpt><trkpt lat="44.9988633" lon="8.2789667"><ele>269.0</ele><time>2026-03-29T15:52:10.005Z</time></trkpt><trkpt lat="44.9988833" lon="8.2791283"><ele>268.0</ele><time>2026-03-29T15:52:11.003Z</time></trkpt><trkpt lat="44.9989117" lon="8.2793067"><ele>267.0</ele><time>2026-03-29T15:52:12.004Z</time></trkpt><trkpt lat="44.99894" lon="8.2794717"><ele>267.0</ele><time>2026-03-29T15:52:13.003Z</time></trkpt><trkpt lat="44.9989667" lon="8.2796333"><ele>267.0</ele><time>2026-03-29T15:52:14.01Z</time></trkpt><trkpt lat="44.999" lon="8.2798333"><ele>267.0</ele><time>2026-03-29T15:52:15.004Z</time></trkpt><trkpt lat="44.9990233" lon="8.2800683"><ele>267.0</ele><time>2026-03-29T15:52:16.008Z</time></trkpt><trkpt lat="44.9990433" lon="8.28032"><ele>265.3333333333333</ele><time>2026-03-29T15:52:17.003Z</time></trkpt><trkpt lat="44.999065" lon="8.2805733"><ele>263.66666666666663</ele><time>2026-03-29T15:52:18.006Z</time></trkpt><trkpt lat="44.9990983" lon="8.2808183"><ele>262.0</ele><time>2026-03-29T15:52:19.004Z</time></trkpt><trkpt lat="44.9991267" lon="8.28106"><ele>258.5</ele><time>2026-03-29T15:52:20.002Z</time></trkpt><trkpt lat="44.9991683" lon="8.2814967"><ele>255.0</ele><time>2026-03-29T15:52:21.148Z</time></trkpt><trkpt lat="44.999035" lon="8.28226"><ele>253.66666666666669</ele><time>2026-03-29T15:52:25.277Z</time></trkpt><trkpt lat="44.9990633" lon="8.28256"><ele>252.33333333333334</ele><time>2026-03-29T15:52:27.001Z</time></trkpt><trkpt lat="44.9991167" lon="8.2827417"><ele>251.0</ele><time>2026-03-29T15:52:28.005Z</time></trkpt><trkpt lat="44.999185" lon="8.28291"><ele>247.0</ele><time>2026-03-29T15:52:29.004Z</time></trkpt><trkpt lat="44.999275" lon="8.2830717"><ele>243.0</ele><time>2026-03-29T15:52:30.005Z</time></trkpt><trkpt lat="44.9994017" lon="8.2832167"><ele>239.0</ele><time>2026-03-29T15:52:31.002Z</time></trkpt><trkpt lat="44.9995433" lon="8.28334"><ele>239.0</ele><time>2026-03-29T15:52:32.005Z</time></trkpt><trkpt lat="44.99969" lon="8.2834483"><ele>239.0</ele><time>2026-03-29T15:52:33.006Z</time></trkpt><trkpt lat="44.9998417" lon="8.2835567"><ele>239.0</ele><time>2026-03-29T15:52:34.007Z</time></trkpt><trkpt lat="44.999985" lon="8.28366"><ele>239.0</ele><time>2026-03-29T15:52:35.006Z</time></trkpt><trkpt lat="45.000115" lon="8.2837767"><ele>239.0</ele><time>2026-03-29T15:52:36.005Z</time></trkpt><trkpt lat="45.0002317" lon="8.2839017"><ele>239.0</ele><time>2026-03-29T15:52:37.004Z</time></trkpt><trkpt lat="45.0003267" lon="8.2840533"><ele>239.0</ele><time>2026-03-29T15:52:38.007Z</time></trkpt><trkpt lat="45.0004067" lon="8.28423"><ele>238.66666666666669</ele><time>2026-03-29T15:52:39.008Z</time></trkpt><trkpt lat="45.0004733" lon="8.28443"><ele>238.33333333333331</ele><time>2026-03-29T15:52:40.003Z</time></trkpt><trkpt lat="45.0005283" lon="8.2846417"><ele>238.0</ele><time>2026-03-29T15:52:41.008Z</time></trkpt><trkpt lat="45.0005567" lon="8.2848733"><ele>237.0</ele><time>2026-03-29T15:52:42.001Z</time></trkpt><trkpt lat="45.0005583" lon="8.2851133"><ele>236.0</ele><time>2026-03-29T15:52:43.004Z</time></trkpt><trkpt lat="45.0005267" lon="8.2853583"><ele>235.0</ele><time>2026-03-29T15:52:44.004Z</time></trkpt><trkpt lat="45.0004633" lon="8.2855967"><ele>235.0</ele><time>2026-03-29T15:52:45.005Z</time></trkpt><trkpt lat="45.0003767" lon="8.2858267"><ele>235.0</ele><time>2026-03-29T15:52:46.014Z</time></trkpt><trkpt lat="45.0002783" lon="8.28605"><ele>235.0</ele><time>2026-03-29T15:52:47.002Z</time></trkpt><trkpt lat="45.000185" lon="8.286265"><ele>237.0</ele><time>2026-03-29T15:52:48.005Z</time></trkpt><trkpt lat="45.00011" lon="8.28647"><ele>239.0</ele><time>2026-03-29T15:52:49.005Z</time></trkpt><trkpt lat="45.000065" lon="8.28667"><ele>241.0</ele><time>2026-03-29T15:52:50.006Z</time></trkpt><trkpt lat="45.0000633" lon="8.2868733"><ele>241.0</ele><time>2026-03-29T15:52:51.01Z</time></trkpt><trkpt lat="45.000095" lon="8.2870733"><ele>241.0</ele><time>2026-03-29T15:52:52.004Z</time></trkpt><trkpt lat="45.0001583" lon="8.2872833"><ele>241.0</ele><time>2026-03-29T15:52:53.003Z</time></trkpt><trkpt lat="45.0002317" lon="8.2875067"><ele>241.0</ele><time>2026-03-29T15:52:54.008Z</time></trkpt><trkpt lat="45.000295" lon="8.2877533"><ele>241.0</ele><time>2026-03-29T15:52:55.006Z</time></trkpt><trkpt lat="45.000335" lon="8.2880083"><ele>241.0</ele><time>2026-03-29T15:52:56.002Z</time></trkpt><trkpt lat="45.000355" lon="8.28827"><ele>240.66666666666666</ele><time>2026-03-29T15:52:57.004Z</time></trkpt><trkpt lat="45.00036" lon="8.2885383"><ele>240.33333333333331</ele><time>2026-03-29T15:52:58.004Z</time></trkpt><trkpt lat="45.00036" lon="8.2888083"><ele>240.0</ele><time>2026-03-29T15:52:59.006Z</time></trkpt><trkpt lat="45.000355" lon="8.289065"><ele>241.0</ele><time>2026-03-29T15:53:00.008Z</time></trkpt><trkpt lat="45.000335" lon="8.2893033"><ele>242.0</ele><time>2026-03-29T15:53:01.012Z</time></trkpt><trkpt lat="45.0002917" lon="8.2895167"><ele>243.0</ele><time>2026-03-29T15:53:02.005Z</time></trkpt><trkpt lat="45.0002283" lon="8.28971"><ele>246.0</ele><time>2026-03-29T15:53:03.003Z</time></trkpt><trkpt lat="45.0001317" lon="8.2898717"><ele>249.0</ele><time>2026-03-29T15:53:04.004Z</time></trkpt><trkpt lat="44.999995" lon="8.289985"><ele>252.0</ele><time>2026-03-29T15:53:05.002Z</time></trkpt><trkpt lat="44.99985" lon="8.2900817"><ele>252.0</ele><time>2026-03-29T15:53:06.005Z</time></trkpt><trkpt lat="44.9997083" lon="8.290155"><ele>252.0</ele><time>2026-03-29T15:53:07.002Z</time></trkpt><trkpt lat="44.9995883" lon="8.2902367"><ele>252.0</ele><time>2026-03-29T15:53:08.004Z</time></trkpt><trkpt lat="44.999495" lon="8.2903383"><ele>252.0</ele><time>2026-03-29T15:53:09.003Z</time></trkpt><trkpt lat="44.99943" lon="8.29047"><ele>254.75</ele><time>2026-03-29T15:53:10.008Z</time></trkpt><trkpt lat="44.9993983" lon="8.2906133"><ele>257.5</ele><time>2026-03-29T15:53:11.005Z</time></trkpt><trkpt lat="44.9994133" lon="8.290775"><ele>260.25</ele><time>2026-03-29T15:53:12.004Z</time></trkpt><trkpt lat="44.9994617" lon="8.29095"><ele>263.0</ele><time>2026-03-29T15:53:13.003Z</time></trkpt><trkpt lat="44.999535" lon="8.2911417"><ele>263.0</ele><time>2026-03-29T15:53:14.003Z</time></trkpt><trkpt lat="44.9996233" lon="8.291355"><ele>263.0</ele><time>2026-03-29T15:53:15.005Z</time></trkpt><trkpt lat="44.9997133" lon="8.2915767"><ele>263.0</ele><time>2026-03-29T15:53:16.003Z</time></trkpt><trkpt lat="44.9998033" lon="8.2917983"><ele>263.0</ele><time>2026-03-29T15:53:17.003Z</time></trkpt><trkpt lat="44.9998917" lon="8.29202"><ele>263.0</ele><time>2026-03-29T15:53:18.01Z</time></trkpt><trkpt lat="44.9999783" lon="8.2922383"><ele>263.0</ele><time>2026-03-29T15:53:19.008Z</time></trkpt><trkpt lat="45.00006" lon="8.292445"><ele>260.6666666666667</ele><time>2026-03-29T15:53:20Z</time></trkpt><trkpt lat="45.0001383" lon="8.292645"><ele>258.3333333333333</ele><time>2026-03-29T15:53:21.007Z</time></trkpt><trkpt lat="45.0002133" lon="8.29283"><ele>256.0</ele><time>2026-03-29T15:53:22.002Z</time></trkpt><trkpt lat="45.0002867" lon="8.2929967"><ele>255.25</ele><time>2026-03-29T15:53:23.006Z</time></trkpt><trkpt lat="45.0003567" lon="8.29315"><ele>254.5</ele><time>2026-03-29T15:53:24.005Z</time></trkpt><trkpt lat="45.0004267" lon="8.2933017"><ele>253.75</ele><time>2026-03-29T15:53:25.003Z</time></trkpt><trkpt lat="45.0004933" lon="8.29345"><ele>253.0</ele><time>2026-03-29T15:53:26.003Z</time></trkpt><trkpt lat="45.000555" lon="8.2935883"><ele>253.0</ele><time>2026-03-29T15:53:27.01Z</time></trkpt><trkpt lat="45.0005967" lon="8.29373"><ele>253.0</ele><time>2026-03-29T15:53:28.002Z</time></trkpt><trkpt lat="45.00062" lon="8.293865"><ele>253.0</ele><time>2026-03-29T15:53:29.002Z</time></trkpt><trkpt lat="45.0006233" lon="8.29399"><ele>253.0</ele><time>2026-03-29T15:53:30.002Z</time></trkpt><trkpt lat="45.00061" lon="8.294115"><ele>253.0</ele><time>2026-03-29T15:53:31.006Z</time></trkpt><trkpt lat="45.0005783" lon="8.2942483"><ele>254.4</ele><time>2026-03-29T15:53:32.005Z</time></trkpt><trkpt lat="45.0005383" lon="8.2943917"><ele>255.8</ele><time>2026-03-29T15:53:33.006Z</time></trkpt><trkpt lat="45.0004883" lon="8.294535"><ele>257.2</ele><time>2026-03-29T15:53:34.006Z</time></trkpt><trkpt lat="45.00042" lon="8.2946667"><ele>258.6</ele><time>2026-03-29T15:53:35.007Z</time></trkpt><trkpt lat="45.00036" lon="8.29479"><ele>260.0</ele><time>2026-03-29T15:53:36.01Z</time></trkpt><trkpt lat="45.0003017" lon="8.2949183"><ele>260.8</ele><time>2026-03-29T15:53:37.004Z</time></trkpt><trkpt lat="45.0002467" lon="8.29504"><ele>261.6</ele><time>2026-03-29T15:53:38.006Z</time></trkpt><trkpt lat="45.0002" lon="8.295165"><ele>262.4</ele><time>2026-03-29T15:53:39.007Z</time></trkpt><trkpt lat="45.00017" lon="8.2952883"><ele>263.2</ele><time>2026-03-29T15:53:40.007Z</time></trkpt><trkpt lat="45.00013" lon="8.2954083"><ele>264.0</ele><time>2026-03-29T15:53:41.004Z</time></trkpt><trkpt lat="45.0001" lon="8.2955417"><ele>264.8</ele><time>2026-03-29T15:53:42.006Z</time></trkpt><trkpt lat="45.00007" lon="8.2956833"><ele>265.59999999999997</ele><time>2026-03-29T15:53:43.004Z</time></trkpt><trkpt lat="45.00004" lon="8.2958183"><ele>266.4</ele><time>2026-03-29T15:53:44.007Z</time></trkpt><trkpt lat="45.0000083" lon="8.29595"><ele>267.2</ele><time>2026-03-29T15:53:45.006Z</time></trkpt><trkpt lat="44.9999733" lon="8.2960783"><ele>268.0</ele><time>2026-03-29T15:53:46.001Z</time></trkpt><trkpt lat="44.9999483" lon="8.2962083"><ele>268.0</ele><time>2026-03-29T15:53:47.01Z</time></trkpt><trkpt lat="44.9999267" lon="8.2963333"><ele>268.0</ele><time>2026-03-29T15:53:48.004Z</time></trkpt><trkpt lat="44.9999083" lon="8.29646"><ele>268.0</ele><time>2026-03-29T15:53:49.005Z</time></trkpt><trkpt lat="44.99988" lon="8.2965933"><ele>268.0</ele><time>2026-03-29T15:53:50.003Z</time></trkpt><trkpt lat="44.9998467" lon="8.2967433"><ele>268.0</ele><time>2026-03-29T15:53:51.003Z</time></trkpt><trkpt lat="44.999805" lon="8.2968883"><ele>268.4</ele><time>2026-03-29T15:53:52.003Z</time></trkpt><trkpt lat="44.99975" lon="8.2970133"><ele>268.8</ele><time>2026-03-29T15:53:53.005Z</time></trkpt><trkpt lat="44.9997017" lon="8.2971317"><ele>269.2</ele><time>2026-03-29T15:53:54.006Z</time></trkpt><trkpt lat="44.99967" lon="8.2972433"><ele>269.6</ele><time>2026-03-29T15:53:55.004Z</time></trkpt><trkpt lat="44.9996433" lon="8.2973533"><ele>270.0</ele><time>2026-03-29T15:53:56.003Z</time></trkpt><trkpt lat="44.999615" lon="8.2974617"><ele>270.0</ele><time>2026-03-29T15:53:57.007Z</time></trkpt><trkpt lat="44.999575" lon="8.2975633"><ele>270.0</ele><time>2026-03-29T15:53:58.007Z</time></trkpt><trkpt lat="44.9995333" lon="8.2976583"><ele>270.0</ele><time>2026-03-29T15:53:59.007Z</time></trkpt><trkpt lat="44.9994833" lon="8.29773"><ele>270.0</ele><time>2026-03-29T15:54:00.005Z</time></trkpt><trkpt lat="44.99944" lon="8.2978"><ele>270.0</ele><time>2026-03-29T15:54:01.009Z</time></trkpt><trkpt lat="44.9993467" lon="8.2979083"><ele>270.0</ele><time>2026-03-29T15:54:03.006Z</time></trkpt><trkpt lat="44.999285" lon="8.2979533"><ele>270.0</ele><time>2026-03-29T15:54:04.005Z</time></trkpt><trkpt lat="44.9992283" lon="8.2980017"><ele>270.0</ele><time>2026-03-29T15:54:05.005Z</time></trkpt><trkpt lat="44.9991033" lon="8.29798"><ele>270.0</ele><time>2026-03-29T15:54:06.006Z</time></trkpt><trkpt lat="44.9990333" lon="8.2980117"><ele>270.0</ele><time>2026-03-29T15:54:07.005Z</time></trkpt><trkpt lat="44.9989533" lon="8.29804"><ele>270.0</ele><time>2026-03-29T15:54:08.007Z</time></trkpt><trkpt lat="44.9988583" lon="8.29806"><ele>270.0</ele><time>2026-03-29T15:54:09.004Z</time></trkpt><trkpt lat="44.9987733" lon="8.29809"><ele>271.2</ele><time>2026-03-29T15:54:10.008Z</time></trkpt><trkpt lat="44.99869" lon="8.2981283"><ele>272.4</ele><time>2026-03-29T15:54:11.003Z</time></trkpt><trkpt lat="44.9985917" lon="8.2981617"><ele>273.6</ele><time>2026-03-29T15:54:12.006Z</time></trkpt><trkpt lat="44.9985083" lon="8.2981933"><ele>274.8</ele><time>2026-03-29T15:54:13.006Z</time></trkpt><trkpt lat="44.9984133" lon="8.2982033"><ele>276.0</ele><time>2026-03-29T15:54:14.003Z</time></trkpt><trkpt lat="44.998325" lon="8.2982317"><ele>276.0</ele><time>2026-03-29T15:54:15.004Z</time></trkpt><trkpt lat="44.9982617" lon="8.2982333"><ele>276.0</ele><time>2026-03-29T15:54:16.005Z</time></trkpt><trkpt lat="44.9981933" lon="8.2982567"><ele>276.0</ele><time>2026-03-29T15:54:17.003Z</time></trkpt><trkpt lat="44.9981267" lon="8.2982667"><ele>276.0</ele><time>2026-03-29T15:54:18.004Z</time></trkpt><trkpt lat="44.998065" lon="8.298295"><ele>276.0</ele><time>2026-03-29T15:54:19.003Z</time></trkpt><trkpt lat="44.9979867" lon="8.2983067"><ele>276.0</ele><time>2026-03-29T15:54:20.01Z</time></trkpt><trkpt lat="44.9979567" lon="8.2984"><ele>276.0</ele><time>2026-03-29T15:54:21.004Z</time></trkpt><trkpt lat="44.9979233" lon="8.298485"><ele>276.0</ele><time>2026-03-29T15:54:22.005Z</time></trkpt><trkpt lat="44.9979317" lon="8.298575"><ele>276.0</ele><time>2026-03-29T15:54:23.005Z</time></trkpt><trkpt lat="44.99796" lon="8.2986767"><ele>276.0</ele><time>2026-03-29T15:54:24.009Z</time></trkpt><trkpt lat="44.997985" lon="8.2987683"><ele>276.0</ele><time>2026-03-29T15:54:25.004Z</time></trkpt><trkpt lat="44.9980283" lon="8.2988783"><ele>276.0</ele><time>2026-03-29T15:54:26.004Z</time></trkpt><trkpt lat="44.9980817" lon="8.299"><ele>276.0</ele><time>2026-03-29T15:54:27.003Z</time></trkpt><trkpt lat="44.99812" lon="8.299115"><ele>276.6</ele><time>2026-03-29T15:54:28.004Z</time></trkpt><trkpt lat="44.9981683" lon="8.29923"><ele>277.20000000000005</ele><time>2026-03-29T15:54:29.004Z</time></trkpt><trkpt lat="44.9982133" lon="8.29935"><ele>277.79999999999995</ele><time>2026-03-29T15:54:30.009Z</time></trkpt><trkpt lat="44.9982533" lon="8.29947"><ele>278.4</ele><time>2026-03-29T15:54:31.013Z</time></trkpt><trkpt lat="44.9982933" lon="8.2995967"><ele>279.0</ele><time>2026-03-29T15:54:32.006Z</time></trkpt><trkpt lat="44.9983417" lon="8.299715"><ele>279.0</ele><time>2026-03-29T15:54:33.005Z</time></trkpt><trkpt lat="44.9983933" lon="8.299845"><ele>279.0</ele><time>2026-03-29T15:54:34.004Z</time></trkpt><trkpt lat="44.99844" lon="8.2999717"><ele>279.0</ele><time>2026-03-29T15:54:35.005Z</time></trkpt><trkpt lat="44.9984833" lon="8.3000917"><ele>279.0</ele><time>2026-03-29T15:54:36.003Z</time></trkpt><trkpt lat="44.9985417" lon="8.3001933"><ele>279.0</ele><time>2026-03-29T15:54:37.004Z</time></trkpt><trkpt lat="44.998595" lon="8.3002617"><ele>279.0</ele><time>2026-03-29T15:54:38.004Z</time></trkpt><trkpt lat="44.998645" lon="8.3003233"><ele>279.0</ele><time>2026-03-29T15:54:39.005Z</time></trkpt><trkpt lat="44.998715" lon="8.30041"><ele>279.0</ele><time>2026-03-29T15:54:41.003Z</time></trkpt><trkpt lat="44.99877" lon="8.30049"><ele>279.0</ele><time>2026-03-29T15:54:43.004Z</time></trkpt><trkpt lat="44.9987617" lon="8.3005867"><ele>279.0</ele><time>2026-03-29T15:54:45.004Z</time></trkpt><trkpt lat="44.9987367" lon="8.3006917"><ele>279.0</ele><time>2026-03-29T15:54:46.006Z</time></trkpt><trkpt lat="44.9986683" lon="8.3008317"><ele>276.5</ele><time>2026-03-29T15:54:47.004Z</time></trkpt><trkpt lat="44.99861" lon="8.3009683"><ele>274.0</ele><time>2026-03-29T15:54:48.003Z</time></trkpt><trkpt lat="44.99841" lon="8.3010183"><ele>271.5</ele><time>2026-03-29T15:54:49.005Z</time></trkpt><trkpt lat="44.998315" lon="8.3011417"><ele>269.0</ele><time>2026-03-29T15:54:50.005Z</time></trkpt><trkpt lat="44.9982167" lon="8.3012567"><ele>268.59999999999997</ele><time>2026-03-29T15:54:51.004Z</time></trkpt><trkpt lat="44.9980767" lon="8.3013183"><ele>268.2</ele><time>2026-03-29T15:54:52.006Z</time></trkpt><trkpt lat="44.997975" lon="8.3014117"><ele>267.79999999999995</ele><time>2026-03-29T15:54:53.007Z</time></trkpt><trkpt lat="44.9979033" lon="8.30149"><ele>267.4</ele><time>2026-03-29T15:54:54.008Z</time></trkpt><trkpt lat="44.9978383" lon="8.301575"><ele>267.0</ele><time>2026-03-29T15:54:56.001Z</time></trkpt><trkpt lat="44.9977767" lon="8.3016567"><ele>265.0</ele><time>2026-03-29T15:54:58.007Z</time></trkpt><trkpt lat="44.9977233" lon="8.3017217"><ele>263.0</ele><time>2026-03-29T15:54:59.002Z</time></trkpt><trkpt lat="44.9976583" lon="8.3017883"><ele>261.0</ele><time>2026-03-29T15:55:00.004Z</time></trkpt><trkpt lat="44.9975983" lon="8.3018883"><ele>259.0</ele><time>2026-03-29T15:55:01.004Z</time></trkpt><trkpt lat="44.9975183" lon="8.3019767"><ele>257.0</ele><time>2026-03-29T15:55:02.003Z</time></trkpt><trkpt lat="44.99743" lon="8.302085"><ele>257.0</ele><time>2026-03-29T15:55:03.008Z</time></trkpt><trkpt lat="44.9973217" lon="8.3021817"><ele>257.0</ele><time>2026-03-29T15:55:04.004Z</time></trkpt><trkpt lat="44.997215" lon="8.3022883"><ele>257.0</ele><time>2026-03-29T15:55:05.006Z</time></trkpt><trkpt lat="44.9971083" lon="8.3023767"><ele>257.0</ele><time>2026-03-29T15:55:06.004Z</time></trkpt><trkpt lat="44.9969967" lon="8.3024817"><ele>256.5</ele><time>2026-03-29T15:55:07.008Z</time></trkpt><trkpt lat="44.9968783" lon="8.3025867"><ele>256.0</ele><time>2026-03-29T15:55:08.011Z</time></trkpt><trkpt lat="44.9967567" lon="8.3026917"><ele>255.5</ele><time>2026-03-29T15:55:09.001Z</time></trkpt><trkpt lat="44.996635" lon="8.3027967"><ele>255.0</ele><time>2026-03-29T15:55:10.007Z</time></trkpt><trkpt lat="44.996515" lon="8.3029067"><ele>255.0</ele><time>2026-03-29T15:55:11.003Z</time></trkpt><trkpt lat="44.9963933" lon="8.3030133"><ele>255.0</ele><time>2026-03-29T15:55:12.008Z</time></trkpt><trkpt lat="44.9962733" lon="8.3031167"><ele>255.0</ele><time>2026-03-29T15:55:13.006Z</time></trkpt><trkpt lat="44.996155" lon="8.3032183"><ele>255.0</ele><time>2026-03-29T15:55:14.005Z</time></trkpt><trkpt lat="44.9960333" lon="8.30332"><ele>253.5</ele><time>2026-03-29T15:55:15.008Z</time></trkpt><trkpt lat="44.9959167" lon="8.3034283"><ele>252.0</ele><time>2026-03-29T15:55:16.004Z</time></trkpt><trkpt lat="44.9958083" lon="8.303545"><ele>250.5</ele><time>2026-03-29T15:55:17.002Z</time></trkpt><trkpt lat="44.9957067" lon="8.3036633"><ele>249.0</ele><time>2026-03-29T15:55:18.009Z</time></trkpt><trkpt lat="44.9956067" lon="8.30379"><ele>248.0</ele><time>2026-03-29T15:55:19.008Z</time></trkpt><trkpt lat="44.9955167" lon="8.3039317"><ele>247.0</ele><time>2026-03-29T15:55:20.003Z</time></trkpt><trkpt lat="44.9954317" lon="8.3040883"><ele>246.0</ele><time>2026-03-29T15:55:21.003Z</time></trkpt><trkpt lat="44.99536" lon="8.3042483"><ele>245.0</ele><time>2026-03-29T15:55:22.006Z</time></trkpt><trkpt lat="44.995295" lon="8.3043983"><ele>245.0</ele><time>2026-03-29T15:55:23.004Z</time></trkpt><trkpt lat="44.9952333" lon="8.3045567"><ele>245.0</ele><time>2026-03-29T15:55:24.004Z</time></trkpt><trkpt lat="44.9951783" lon="8.304725"><ele>245.0</ele><time>2026-03-29T15:55:25.002Z</time></trkpt><trkpt lat="44.9951217" lon="8.304895"><ele>245.0</ele><time>2026-03-29T15:55:26.008Z</time></trkpt><trkpt lat="44.9950583" lon="8.3050617"><ele>245.0</ele><time>2026-03-29T15:55:27.007Z</time></trkpt><trkpt lat="44.9949867" lon="8.3052233"><ele>245.0</ele><time>2026-03-29T15:55:28.005Z</time></trkpt><trkpt lat="44.9949183" lon="8.30539"><ele>245.0</ele><time>2026-03-29T15:55:29.004Z</time></trkpt><trkpt lat="44.9948517" lon="8.3055633"><ele>245.0</ele><time>2026-03-29T15:55:30.007Z</time></trkpt><trkpt lat="44.9947817" lon="8.30573"><ele>245.0</ele><time>2026-03-29T15:55:31.01Z</time></trkpt><trkpt lat="44.9947183" lon="8.3059017"><ele>245.0</ele><time>2026-03-29T15:55:32.003Z</time></trkpt><trkpt lat="44.99465" lon="8.3060733"><ele>245.0</ele><time>2026-03-29T15:55:33.005Z</time></trkpt><trkpt lat="44.9945817" lon="8.30625"><ele>245.0</ele><time>2026-03-29T15:55:34.003Z</time></trkpt><trkpt lat="44.9945167" lon="8.3064367"><ele>243.25</ele><time>2026-03-29T15:55:35.004Z</time></trkpt><trkpt lat="44.9944533" lon="8.3066217"><ele>241.5</ele><time>2026-03-29T15:55:36.007Z</time></trkpt><trkpt lat="44.99439" lon="8.3068117"><ele>239.75</ele><time>2026-03-29T15:55:37.006Z</time></trkpt><trkpt lat="44.99432" lon="8.306995"><ele>238.0</ele><time>2026-03-29T15:55:38.005Z</time></trkpt><trkpt lat="44.9942517" lon="8.3071767"><ele>237.0</ele><time>2026-03-29T15:55:39.01Z</time></trkpt><trkpt lat="44.9941833" lon="8.3073517"><ele>236.0</ele><time>2026-03-29T15:55:40.002Z</time></trkpt><trkpt lat="44.9941217" lon="8.3075317"><ele>235.0</ele><time>2026-03-29T15:55:41.002Z</time></trkpt><trkpt lat="44.99406" lon="8.3077117"><ele>234.0</ele><time>2026-03-29T15:55:42.002Z</time></trkpt><trkpt lat="44.9939883" lon="8.30787"><ele>237.75</ele><time>2026-03-29T15:55:43.006Z</time></trkpt><trkpt lat="44.9939167" lon="8.3080233"><ele>241.5</ele><time>2026-03-29T15:55:44.004Z</time></trkpt><trkpt lat="44.9938233" lon="8.308145"><ele>245.25</ele><time>2026-03-29T15:55:45.003Z</time></trkpt><trkpt lat="44.9937083" lon="8.3082483"><ele>249.0</ele><time>2026-03-29T15:55:46.002Z</time></trkpt><trkpt lat="44.9935617" lon="8.30833"><ele>249.33333333333331</ele><time>2026-03-29T15:55:47.001Z</time></trkpt><trkpt lat="44.9933983" lon="8.308395"><ele>249.66666666666666</ele><time>2026-03-29T15:55:48.006Z</time></trkpt><trkpt lat="44.9932083" lon="8.3084567"><ele>250.0</ele><time>2026-03-29T15:55:49.007Z</time></trkpt><trkpt lat="44.9929833" lon="8.3085017"><ele>251.66666666666666</ele><time>2026-03-29T15:55:50.003Z</time></trkpt><trkpt lat="44.9927783" lon="8.3085517"><ele>253.33333333333331</ele><time>2026-03-29T15:55:51.005Z</time></trkpt><trkpt lat="44.9925917" lon="8.3086017"><ele>255.0</ele><time>2026-03-29T15:55:52.007Z</time></trkpt><trkpt lat="44.9924367" lon="8.3086467"><ele>255.0</ele><time>2026-03-29T15:55:53.004Z</time></trkpt><trkpt lat="44.992315" lon="8.3086883"><ele>255.0</ele><time>2026-03-29T15:55:54.012Z</time></trkpt><trkpt lat="44.9922217" lon="8.3087533"><ele>255.0</ele><time>2026-03-29T15:55:55.006Z</time></trkpt><trkpt lat="44.9921533" lon="8.3088417"><ele>255.0</ele><time>2026-03-29T15:55:56.006Z</time></trkpt><trkpt lat="44.9920983" lon="8.3089417"><ele>255.0</ele><time>2026-03-29T15:55:57.004Z</time></trkpt><trkpt lat="44.9920867" lon="8.3090583"><ele>256.25</ele><time>2026-03-29T15:55:58.004Z</time></trkpt><trkpt lat="44.9921033" lon="8.3091783"><ele>257.5</ele><time>2026-03-29T15:55:59.005Z</time></trkpt><trkpt lat="44.9921567" lon="8.30931"><ele>258.75</ele><time>2026-03-29T15:56:00.013Z</time></trkpt><trkpt lat="44.9922333" lon="8.3094383"><ele>260.0</ele><time>2026-03-29T15:56:01.009Z</time></trkpt><trkpt lat="44.9923367" lon="8.3095717"><ele>260.0</ele><time>2026-03-29T15:56:02.003Z</time></trkpt><trkpt lat="44.992445" lon="8.30971"><ele>260.0</ele><time>2026-03-29T15:56:03.007Z</time></trkpt><trkpt lat="44.9925583" lon="8.309855"><ele>260.0</ele><time>2026-03-29T15:56:04.002Z</time></trkpt><trkpt lat="44.9926667" lon="8.3100183"><ele>261.0</ele><time>2026-03-29T15:56:05.009Z</time></trkpt><trkpt lat="44.99277" lon="8.3102"><ele>262.0</ele><time>2026-03-29T15:56:06.003Z</time></trkpt><trkpt lat="44.9928583" lon="8.3103967"><ele>263.0</ele><time>2026-03-29T15:56:07.004Z</time></trkpt><trkpt lat="44.9929367" lon="8.3106167"><ele>263.0</ele><time>2026-03-29T15:56:08.006Z</time></trkpt><trkpt lat="44.99301" lon="8.3108417"><ele>263.0</ele><time>2026-03-29T15:56:09.006Z</time></trkpt><trkpt lat="44.9930833" lon="8.3110633"><ele>263.0</ele><time>2026-03-29T15:56:10.005Z</time></trkpt><trkpt lat="44.9931517" lon="8.311275"><ele>262.0</ele><time>2026-03-29T15:56:11.003Z</time></trkpt><trkpt lat="44.9932133" lon="8.3114683"><ele>261.0</ele><time>2026-03-29T15:56:12.006Z</time></trkpt><trkpt lat="44.99326" lon="8.3116433"><ele>260.0</ele><time>2026-03-29T15:56:13.005Z</time></trkpt><trkpt lat="44.993285" lon="8.3118083"><ele>259.0</ele><time>2026-03-29T15:56:14.009Z</time></trkpt><trkpt lat="44.99328" lon="8.31197"><ele>259.0</ele><time>2026-03-29T15:56:15.008Z</time></trkpt><trkpt lat="44.9932417" lon="8.3121233"><ele>259.0</ele><time>2026-03-29T15:56:16.003Z</time></trkpt><trkpt lat="44.993175" lon="8.312255"><ele>259.0</ele><time>2026-03-29T15:56:17.003Z</time></trkpt><trkpt lat="44.9930817" lon="8.3123717"><ele>259.0</ele><time>2026-03-29T15:56:18.011Z</time></trkpt><trkpt lat="44.992955" lon="8.3124683"><ele>257.66666666666663</ele><time>2026-03-29T15:56:19.004Z</time></trkpt><trkpt lat="44.992795" lon="8.3125617"><ele>256.3333333333333</ele><time>2026-03-29T15:56:20.006Z</time></trkpt><trkpt lat="44.9926183" lon="8.312665"><ele>255.0</ele><time>2026-03-29T15:56:21.004Z</time></trkpt><trkpt lat="44.99243" lon="8.312775"><ele>253.0</ele><time>2026-03-29T15:56:22.006Z</time></trkpt><trkpt lat="44.99224" lon="8.3128917"><ele>251.0</ele><time>2026-03-29T15:56:23.002Z</time></trkpt><trkpt lat="44.9920433" lon="8.313015"><ele>249.0</ele><time>2026-03-29T15:56:24.009Z</time></trkpt><trkpt lat="44.99184" lon="8.313135"><ele>250.0</ele><time>2026-03-29T15:56:25.005Z</time></trkpt><trkpt lat="44.991635" lon="8.3132583"><ele>251.0</ele><time>2026-03-29T15:56:26.01Z</time></trkpt><trkpt lat="44.99143" lon="8.3133767"><ele>252.0</ele><time>2026-03-29T15:56:27.009Z</time></trkpt><trkpt lat="44.99123" lon="8.313495"><ele>252.0</ele><time>2026-03-29T15:56:28.006Z</time></trkpt><trkpt lat="44.991035" lon="8.3136117"><ele>252.0</ele><time>2026-03-29T15:56:29.003Z</time></trkpt><trkpt lat="44.9908483" lon="8.3137233"><ele>252.0</ele><time>2026-03-29T15:56:30.014Z</time></trkpt><trkpt lat="44.9906767" lon="8.3138317"><ele>252.5</ele><time>2026-03-29T15:56:31.002Z</time></trkpt><trkpt lat="44.9905283" lon="8.313925"><ele>253.0</ele><time>2026-03-29T15:56:32.004Z</time></trkpt><trkpt lat="44.9904" lon="8.3140133"><ele>253.5</ele><time>2026-03-29T15:56:33.005Z</time></trkpt><trkpt lat="44.990285" lon="8.3141233"><ele>254.0</ele><time>2026-03-29T15:56:34.002Z</time></trkpt><trkpt lat="44.9901833" lon="8.3142567"><ele>254.0</ele><time>2026-03-29T15:56:35.002Z</time></trkpt><trkpt lat="44.9901" lon="8.3144283"><ele>254.0</ele><time>2026-03-29T15:56:36.004Z</time></trkpt><trkpt lat="44.9900367" lon="8.31463"><ele>254.0</ele><time>2026-03-29T15:56:37.005Z</time></trkpt><trkpt lat="44.98998" lon="8.3148617"><ele>252.33333333333334</ele><time>2026-03-29T15:56:38.006Z</time></trkpt><trkpt lat="44.9899217" lon="8.3151217"><ele>250.66666666666669</ele><time>2026-03-29T15:56:39.006Z</time></trkpt><trkpt lat="44.98986" lon="8.3154"><ele>249.0</ele><time>2026-03-29T15:56:40.004Z</time></trkpt><trkpt lat="44.9897917" lon="8.315685"><ele>249.0</ele><time>2026-03-29T15:56:41.009Z</time></trkpt><trkpt lat="44.9897233" lon="8.3159633"><ele>249.0</ele><time>2026-03-29T15:56:42.004Z</time></trkpt><trkpt lat="44.989655" lon="8.3162383"><ele>249.0</ele><time>2026-03-29T15:56:43.009Z</time></trkpt><trkpt lat="44.9895867" lon="8.3165083"><ele>249.66666666666669</ele><time>2026-03-29T15:56:44.005Z</time></trkpt><trkpt lat="44.9895233" lon="8.316775"><ele>250.33333333333334</ele><time>2026-03-29T15:56:45.007Z</time></trkpt><trkpt lat="44.98946" lon="8.3170267"><ele>251.0</ele><time>2026-03-29T15:56:46.01Z</time></trkpt><trkpt lat="44.9894017" lon="8.31726"><ele>251.5</ele><time>2026-03-29T15:56:47.003Z</time></trkpt><trkpt lat="44.989345" lon="8.3174683"><ele>252.0</ele><time>2026-03-29T15:56:48.001Z</time></trkpt><trkpt lat="44.989285" lon="8.3176583"><ele>252.5</ele><time>2026-03-29T15:56:49.001Z</time></trkpt><trkpt lat="44.98922" lon="8.317835"><ele>253.0</ele><time>2026-03-29T15:56:50.005Z</time></trkpt><trkpt lat="44.989145" lon="8.3179967"><ele>251.25</ele><time>2026-03-29T15:56:51.005Z</time></trkpt><trkpt lat="44.9890617" lon="8.3181483"><ele>249.5</ele><time>2026-03-29T15:56:52.004Z</time></trkpt><trkpt lat="44.9889683" lon="8.3182883"><ele>247.75</ele><time>2026-03-29T15:56:53.005Z</time></trkpt><trkpt lat="44.98887" lon="8.31842"><ele>246.0</ele><time>2026-03-29T15:56:54.007Z</time></trkpt><trkpt lat="44.9887667" lon="8.3185433"><ele>246.0</ele><time>2026-03-29T15:56:55.002Z</time></trkpt><trkpt lat="44.9886533" lon="8.3186667"><ele>246.0</ele><time>2026-03-29T15:56:56.005Z</time></trkpt><trkpt lat="44.9885333" lon="8.318785"><ele>246.0</ele><time>2026-03-29T15:56:57.006Z</time></trkpt><trkpt lat="44.9884133" lon="8.3189067"><ele>246.0</ele><time>2026-03-29T15:56:58.003Z</time></trkpt><trkpt lat="44.9882917" lon="8.3190217"><ele>244.0</ele><time>2026-03-29T15:56:59.009Z</time></trkpt><trkpt lat="44.988175" lon="8.3191317"><ele>242.0</ele><time>2026-03-29T15:57:00.008Z</time></trkpt><trkpt lat="44.9880617" lon="8.3192383"><ele>240.0</ele><time>2026-03-29T15:57:01.007Z</time></trkpt><trkpt lat="44.9879467" lon="8.3193383"><ele>238.0</ele><time>2026-03-29T15:57:02.008Z</time></trkpt><trkpt lat="44.9878333" lon="8.3194367"><ele>238.0</ele><time>2026-03-29T15:57:03.005Z</time></trkpt><trkpt lat="44.9877167" lon="8.31952"><ele>238.0</ele><time>2026-03-29T15:57:04.008Z</time></trkpt><trkpt lat="44.9875967" lon="8.3195967"><ele>238.0</ele><time>2026-03-29T15:57:05.003Z</time></trkpt><trkpt lat="44.9874733" lon="8.3196733"><ele>238.0</ele><time>2026-03-29T15:57:06.008Z</time></trkpt><trkpt lat="44.987355" lon="8.3197483"><ele>238.0</ele><time>2026-03-29T15:57:07.007Z</time></trkpt><trkpt lat="44.987235" lon="8.319815"><ele>238.0</ele><time>2026-03-29T15:57:08.006Z</time></trkpt><trkpt lat="44.98712" lon="8.3198867"><ele>238.0</ele><time>2026-03-29T15:57:09.004Z</time></trkpt><trkpt lat="44.9870033" lon="8.319955"><ele>238.0</ele><time>2026-03-29T15:57:10.006Z</time></trkpt><trkpt lat="44.98689" lon="8.320025"><ele>238.0</ele><time>2026-03-29T15:57:11.004Z</time></trkpt><trkpt lat="44.98678" lon="8.3200933"><ele>238.0</ele><time>2026-03-29T15:57:12.006Z</time></trkpt><trkpt lat="44.9866833" lon="8.3201717"><ele>238.0</ele><time>2026-03-29T15:57:13.006Z</time></trkpt><trkpt lat="44.986595" lon="8.3202583"><ele>238.0</ele><time>2026-03-29T15:57:14.004Z</time></trkpt><trkpt lat="44.9865133" lon="8.3203567"><ele>238.0</ele><time>2026-03-29T15:57:15.008Z</time></trkpt><trkpt lat="44.986445" lon="8.3204633"><ele>237.60000000000002</ele><time>2026-03-29T15:57:16.003Z</time></trkpt><trkpt lat="44.9863817" lon="8.32058"><ele>237.20000000000002</ele><time>2026-03-29T15:57:17.003Z</time></trkpt><trkpt lat="44.9863217" lon="8.3207"><ele>236.8</ele><time>2026-03-29T15:57:18.002Z</time></trkpt><trkpt lat="44.986265" lon="8.320815"><ele>236.4</ele><time>2026-03-29T15:57:19.009Z</time></trkpt><trkpt lat="44.9862133" lon="8.320925"><ele>236.0</ele><time>2026-03-29T15:57:20.007Z</time></trkpt><trkpt lat="44.986155" lon="8.32103"><ele>236.00000000000003</ele><time>2026-03-29T15:57:21.005Z</time></trkpt><trkpt lat="44.9861017" lon="8.321135"><ele>236.0</ele><time>2026-03-29T15:57:22.009Z</time></trkpt><trkpt lat="44.9860517" lon="8.3212383"><ele>236.0</ele><time>2026-03-29T15:57:23.01Z</time></trkpt><trkpt lat="44.9859983" lon="8.32134"><ele>236.0</ele><time>2026-03-29T15:57:24.007Z</time></trkpt><trkpt lat="44.985945" lon="8.3214367"><ele>236.00000000000003</ele><time>2026-03-29T15:57:25.01Z</time></trkpt><trkpt lat="44.9858917" lon="8.3215317"><ele>236.0</ele><time>2026-03-29T15:57:26.004Z</time></trkpt><trkpt lat="44.9858417" lon="8.32163"><ele>236.83333333333334</ele><time>2026-03-29T15:57:27.004Z</time></trkpt><trkpt lat="44.9857933" lon="8.32173"><ele>237.66666666666669</ele><time>2026-03-29T15:57:28.008Z</time></trkpt><trkpt lat="44.985745" lon="8.321835"><ele>238.5</ele><time>2026-03-29T15:57:29.003Z</time></trkpt><trkpt lat="44.9857017" lon="8.3219433"><ele>239.33333333333331</ele><time>2026-03-29T15:57:30.001Z</time></trkpt><trkpt lat="44.9856617" lon="8.3220517"><ele>240.16666666666666</ele><time>2026-03-29T15:57:31.01Z</time></trkpt><trkpt lat="44.9856217" lon="8.3221617"><ele>241.0</ele><time>2026-03-29T15:57:32.004Z</time></trkpt><trkpt lat="44.9855867" lon="8.32227"><ele>240.99999999999997</ele><time>2026-03-29T15:57:33.002Z</time></trkpt><trkpt lat="44.9855483" lon="8.32237"><ele>241.0</ele><time>2026-03-29T15:57:34.006Z</time></trkpt><trkpt lat="44.9855067" lon="8.32246"><ele>241.0</ele><time>2026-03-29T15:57:35.004Z</time></trkpt><trkpt lat="44.9854583" lon="8.3225417"><ele>241.0</ele><time>2026-03-29T15:57:36.005Z</time></trkpt><trkpt lat="44.9854033" lon="8.32261"><ele>240.99999999999997</ele><time>2026-03-29T15:57:37.01Z</time></trkpt><trkpt lat="44.985335" lon="8.3227183"><ele>241.0</ele><time>2026-03-29T15:57:39.004Z</time></trkpt><trkpt lat="44.9852717" lon="8.322815"><ele>241.0</ele><time>2026-03-29T15:57:41.006Z</time></trkpt><trkpt lat="44.9852117" lon="8.322985"><ele>241.00000000000003</ele><time>2026-03-29T15:57:43.008Z</time></trkpt><trkpt lat="44.985175" lon="8.3230883"><ele>241.00000000000003</ele><time>2026-03-29T15:57:44.005Z</time></trkpt><trkpt lat="44.9851517" lon="8.3232067"><ele>241.0</ele><time>2026-03-29T15:57:45.005Z</time></trkpt><trkpt lat="44.985115" lon="8.323305"><ele>241.0</ele><time>2026-03-29T15:57:46.004Z</time></trkpt><trkpt lat="44.98507" lon="8.323395"><ele>240.71428571428572</ele><time>2026-03-29T15:57:47.004Z</time></trkpt><trkpt lat="44.9850333" lon="8.3234867"><ele>240.42857142857144</ele><time>2026-03-29T15:57:48.003Z</time></trkpt><trkpt lat="44.9849967" lon="8.3235667"><ele>240.14285714285717</ele><time>2026-03-29T15:57:49.004Z</time></trkpt><trkpt lat="44.9849433" lon="8.3236333"><ele>239.8571428571429</ele><time>2026-03-29T15:57:50.006Z</time></trkpt><trkpt lat="44.9848817" lon="8.3236917"><ele>239.57142857142858</ele><time>2026-03-29T15:57:51.004Z</time></trkpt><trkpt lat="44.9848267" lon="8.3237383"><ele>239.28571428571433</ele><time>2026-03-29T15:57:52.005Z</time></trkpt><trkpt lat="44.984775" lon="8.32379"><ele>239.00000000000003</ele><time>2026-03-29T15:57:53.005Z</time></trkpt><trkpt lat="44.984675" lon="8.3238633"><ele>240.66666666666669</ele><time>2026-03-29T15:57:55.012Z</time></trkpt><trkpt lat="44.9845717" lon="8.3239033"><ele>242.33333333333334</ele><time>2026-03-29T15:57:57.007Z</time></trkpt><trkpt lat="44.98448" lon="8.3239317"><ele>244.0</ele><time>2026-03-29T15:57:59.004Z</time></trkpt><trkpt lat="44.9844133" lon="8.323965"><ele>245.66666666666669</ele><time>2026-03-29T15:58:01.004Z</time></trkpt><trkpt lat="44.9843983" lon="8.3240583"><ele>247.33333333333334</ele><time>2026-03-29T15:58:06.006Z</time></trkpt><trkpt lat="44.984435" lon="8.32417"><ele>249.0</ele><time>2026-03-29T15:58:08.004Z</time></trkpt><trkpt lat="44.9844783" lon="8.3242683"><ele>249.0</ele><time>2026-03-29T15:58:10.005Z</time></trkpt><trkpt lat="44.98449" lon="8.3243783"><ele>249.0</ele><time>2026-03-29T15:58:12.001Z</time></trkpt><trkpt lat="44.9845" lon="8.3244883"><ele>249.0</ele><time>2026-03-29T15:58:14.004Z</time></trkpt><trkpt lat="44.98447" lon="8.324575"><ele>249.0</ele><time>2026-03-29T15:58:16.007Z</time></trkpt><trkpt lat="44.9843917" lon="8.32464"><ele>249.0</ele><time>2026-03-29T15:58:19.006Z</time></trkpt><trkpt lat="44.9843133" lon="8.3246217"><ele>249.0</ele><time>2026-03-29T15:58:21.004Z</time></trkpt><trkpt lat="44.9842067" lon="8.324655"><ele>250.6</ele><time>2026-03-29T15:58:23.006Z</time></trkpt><trkpt lat="44.9841067" lon="8.324725"><ele>252.2</ele><time>2026-03-29T15:58:25.005Z</time></trkpt><trkpt lat="44.9839983" lon="8.3248067"><ele>253.79999999999998</ele><time>2026-03-29T15:58:27.014Z</time></trkpt><trkpt lat="44.9839083" lon="8.3248967"><ele>255.39999999999998</ele><time>2026-03-29T15:58:29.003Z</time></trkpt><trkpt lat="44.9838333" lon="8.324985"><ele>257.0</ele><time>2026-03-29T15:58:31.007Z</time></trkpt><trkpt lat="44.9837483" lon="8.3250983"><ele>259.0</ele><time>2026-03-29T15:58:33.005Z</time></trkpt><trkpt lat="44.9836967" lon="8.32515"><ele>261.0</ele><time>2026-03-29T15:58:34.004Z</time></trkpt><trkpt lat="44.9836" lon="8.3252283"><ele>263.0</ele><time>2026-03-29T15:58:36.006Z</time></trkpt><trkpt lat="44.98354" lon="8.325315"><ele>265.0</ele><time>2026-03-29T15:58:38.006Z</time></trkpt><trkpt lat="44.9834767" lon="8.3253817"><ele>267.0</ele><time>2026-03-29T15:58:40.005Z</time></trkpt><trkpt lat="44.9833633" lon="8.3254517"><ele>265.8333333333333</ele><time>2026-03-29T15:58:42.005Z</time></trkpt><trkpt lat="44.9833067" lon="8.3255033"><ele>264.6666666666667</ele><time>2026-03-29T15:58:43.005Z</time></trkpt><trkpt lat="44.983215" lon="8.3255183"><ele>263.5</ele><time>2026-03-29T15:58:44.011Z</time></trkpt><trkpt lat="44.9831367" lon="8.3255417"><ele>262.33333333333337</ele><time>2026-03-29T15:58:45.004Z</time></trkpt><trkpt lat="44.983085" lon="8.3255967"><ele>261.1666666666667</ele><time>2026-03-29T15:58:46.004Z</time></trkpt><trkpt lat="44.982985" lon="8.3256783"><ele>260.0</ele><time>2026-03-29T15:58:48.003Z</time></trkpt><trkpt lat="44.98293" lon="8.3257633"><ele>260.0</ele><time>2026-03-29T15:58:50.004Z</time></trkpt><trkpt lat="44.9829417" lon="8.32588"><ele>260.0</ele><time>2026-03-29T15:58:52.005Z</time></trkpt><trkpt lat="44.983015" lon="8.325985"><ele>260.0</ele><time>2026-03-29T15:58:54.009Z</time></trkpt><trkpt lat="44.9830883" lon="8.3260717"><ele>260.0</ele><time>2026-03-29T15:58:56.003Z</time></trkpt><trkpt lat="44.983145" lon="8.3261617"><ele>260.0</ele><time>2026-03-29T15:58:58.008Z</time></trkpt><trkpt lat="44.9832033" lon="8.3262733"><ele>260.0</ele><time>2026-03-29T15:59:01.005Z</time></trkpt><trkpt lat="44.9832233" lon="8.32638"><ele>260.0</ele><time>2026-03-29T15:59:04.003Z</time></trkpt><trkpt lat="44.983205" lon="8.3264717"><ele>260.0</ele><time>2026-03-29T15:59:08.004Z</time></trkpt><trkpt lat="44.9831433" lon="8.3265283"><ele>260.0</ele><time>2026-03-29T15:59:12.005Z</time></trkpt><trkpt lat="44.9830817" lon="8.3265483"><ele>260.0</ele><time>2026-03-29T15:59:14.012Z</time></trkpt><trkpt lat="44.982995" lon="8.3265567"><ele>260.0</ele><time>2026-03-29T15:59:16.005Z</time></trkpt><trkpt lat="44.98291" lon="8.3265333"><ele>258.33333333333337</ele><time>2026-03-29T15:59:18.006Z</time></trkpt><trkpt lat="44.9828317" lon="8.3265017"><ele>256.6666666666667</ele><time>2026-03-29T15:59:20.004Z</time></trkpt><trkpt lat="44.982765" lon="8.32644"><ele>255.0</ele><time>2026-03-29T15:59:22.005Z</time></trkpt><trkpt lat="44.9826967" lon="8.3264533"><ele>253.33333333333331</ele><time>2026-03-29T15:59:24.012Z</time></trkpt><trkpt lat="44.9826167" lon="8.3264767"><ele>251.66666666666666</ele><time>2026-03-29T15:59:26.008Z</time></trkpt><trkpt lat="44.98252" lon="8.3265333"><ele>250.0</ele><time>2026-03-29T15:59:28.008Z</time></trkpt><trkpt lat="44.98246" lon="8.3266117"><ele>249.4</ele><time>2026-03-29T15:59:30.003Z</time></trkpt><trkpt lat="44.9824167" lon="8.3267083"><ele>248.8</ele><time>2026-03-29T15:59:32.006Z</time></trkpt><trkpt lat="44.9823483" lon="8.32683"><ele>248.2</ele><time>2026-03-29T15:59:34.004Z</time></trkpt><trkpt lat="44.9822817" lon="8.326945"><ele>247.6</ele><time>2026-03-29T15:59:36.009Z</time></trkpt><trkpt lat="44.9822" lon="8.3270317"><ele>247.0</ele><time>2026-03-29T15:59:38.003Z</time></trkpt><trkpt lat="44.98209" lon="8.3271233"><ele>247.0</ele><time>2026-03-29T15:59:40.006Z</time></trkpt><trkpt lat="44.98203" lon="8.327165"><ele>247.0</ele><time>2026-03-29T15:59:41.009Z</time></trkpt><trkpt lat="44.981945" lon="8.3271867"><ele>247.0</ele><time>2026-03-29T15:59:42.004Z</time></trkpt><trkpt lat="44.9818867" lon="8.32723"><ele>247.0</ele><time>2026-03-29T15:59:43.003Z</time></trkpt><trkpt lat="44.9818233" lon="8.3272733"><ele>247.0</ele><time>2026-03-29T15:59:44.004Z</time></trkpt><trkpt lat="44.9817567" lon="8.3272917"><ele>247.0</ele><time>2026-03-29T15:59:45.005Z</time></trkpt><trkpt lat="44.98169" lon="8.3273017"><ele>247.0</ele><time>2026-03-29T15:59:46.006Z</time></trkpt><trkpt lat="44.981595" lon="8.32736"><ele>244.39999999999998</ele><time>2026-03-29T15:59:48.004Z</time></trkpt><trkpt lat="44.9814967" lon="8.3273767"><ele>241.79999999999998</ele><time>2026-03-29T15:59:56.003Z</time></trkpt><trkpt lat="44.98148" lon="8.32748"><ele>239.2</ele><time>2026-03-29T15:59:58.007Z</time></trkpt><trkpt lat="44.98151" lon="8.3276283"><ele>236.6</ele><time>2026-03-29T16:00:00.007Z</time></trkpt><trkpt lat="44.9816033" lon="8.3277967"><ele>234.0</ele><time>2026-03-29T16:00:02.004Z</time></trkpt><trkpt lat="44.9816617" lon="8.32788"><ele>234.39999999999998</ele><time>2026-03-29T16:00:03.003Z</time></trkpt><trkpt lat="44.9817217" lon="8.3279617"><ele>234.79999999999998</ele><time>2026-03-29T16:00:04.007Z</time></trkpt><trkpt lat="44.98181" lon="8.3280217"><ele>235.20000000000002</ele><time>2026-03-29T16:00:05.004Z</time></trkpt><trkpt lat="44.9819083" lon="8.328075"><ele>235.60000000000002</ele><time>2026-03-29T16:00:06.006Z</time></trkpt><trkpt lat="44.982" lon="8.3281083"><ele>236.0</ele><time>2026-03-29T16:00:07.008Z</time></trkpt><trkpt lat="44.9821" lon="8.3281483"><ele>234.20000000000002</ele><time>2026-03-29T16:00:08.009Z</time></trkpt><trkpt lat="44.9822033" lon="8.3281883"><ele>232.40000000000003</ele><time>2026-03-29T16:00:09.002Z</time></trkpt><trkpt lat="44.9823083" lon="8.3282267"><ele>230.6</ele><time>2026-03-29T16:00:10.008Z</time></trkpt><trkpt lat="44.982415" lon="8.3282667"><ele>228.8</ele><time>2026-03-29T16:00:11.005Z</time></trkpt><trkpt lat="44.9825183" lon="8.328305"><ele>227.0</ele><time>2026-03-29T16:00:12.004Z</time></trkpt><trkpt lat="44.9826283" lon="8.3283467"><ele>226.6</ele><time>2026-03-29T16:00:13.004Z</time></trkpt><trkpt lat="44.98274" lon="8.3283917"><ele>226.2</ele><time>2026-03-29T16:00:14.004Z</time></trkpt><trkpt lat="44.9828383" lon="8.3284267"><ele>225.8</ele><time>2026-03-29T16:00:15.004Z</time></trkpt><trkpt lat="44.9829367" lon="8.3284683"><ele>225.4</ele><time>2026-03-29T16:00:16.004Z</time></trkpt><trkpt lat="44.9830333" lon="8.3285017"><ele>225.0</ele><time>2026-03-29T16:00:17.004Z</time></trkpt><trkpt lat="44.983125" lon="8.3285333"><ele>225.0</ele><time>2026-03-29T16:00:18.004Z</time></trkpt><trkpt lat="44.98322" lon="8.32857"><ele>225.0</ele><time>2026-03-29T16:00:19.004Z</time></trkpt><trkpt lat="44.98331" lon="8.3286067"><ele>225.0</ele><time>2026-03-29T16:00:20.004Z</time></trkpt><trkpt lat="44.9834" lon="8.3286383"><ele>225.0</ele><time>2026-03-29T16:00:21.006Z</time></trkpt><trkpt lat="44.983495" lon="8.3286733"><ele>225.0</ele><time>2026-03-29T16:00:22.009Z</time></trkpt><trkpt lat="44.9835933" lon="8.3287117"><ele>225.0</ele><time>2026-03-29T16:00:23.005Z</time></trkpt><trkpt lat="44.9836933" lon="8.3287567"><ele>225.0</ele><time>2026-03-29T16:00:24.006Z</time></trkpt><trkpt lat="44.9838033" lon="8.3288017"><ele>225.0</ele><time>2026-03-29T16:00:25.004Z</time></trkpt><trkpt lat="44.9839183" lon="8.3288467"><ele>225.0</ele><time>2026-03-29T16:00:26.003Z</time></trkpt><trkpt lat="44.9840267" lon="8.3289033"><ele>225.0</ele><time>2026-03-29T16:00:27.011Z</time></trkpt><trkpt lat="44.9841367" lon="8.32897"><ele>225.0</ele><time>2026-03-29T16:00:28.006Z</time></trkpt><trkpt lat="44.9842483" lon="8.3290517"><ele>225.0</ele><time>2026-03-29T16:00:29.006Z</time></trkpt><trkpt lat="44.9843567" lon="8.3291317"><ele>225.0</ele><time>2026-03-29T16:00:30.009Z</time></trkpt><trkpt lat="44.98446" lon="8.329215"><ele>225.25</ele><time>2026-03-29T16:00:31.007Z</time></trkpt><trkpt lat="44.98456" lon="8.3293"><ele>225.5</ele><time>2026-03-29T16:00:32.005Z</time></trkpt><trkpt lat="44.984655" lon="8.3293867"><ele>225.75</ele><time>2026-03-29T16:00:33.008Z</time></trkpt><trkpt lat="44.984755" lon="8.329475"><ele>226.0</ele><time>2026-03-29T16:00:34.007Z</time></trkpt><trkpt lat="44.9848467" lon="8.3295817"><ele>226.0</ele><time>2026-03-29T16:00:35.008Z</time></trkpt><trkpt lat="44.9849433" lon="8.3296983"><ele>226.0</ele><time>2026-03-29T16:00:36.009Z</time></trkpt><trkpt lat="44.9850383" lon="8.3298433"><ele>226.0</ele><time>2026-03-29T16:00:37.003Z</time></trkpt><trkpt lat="44.9851317" lon="8.3299883"><ele>226.0</ele><time>2026-03-29T16:00:38.003Z</time></trkpt><trkpt lat="44.985225" lon="8.3301417"><ele>223.0</ele><time>2026-03-29T16:00:39.006Z</time></trkpt><trkpt lat="44.985325" lon="8.3303017"><ele>220.0</ele><time>2026-03-29T16:00:40.004Z</time></trkpt><trkpt lat="44.9854283" lon="8.3304733"><ele>217.0</ele><time>2026-03-29T16:00:41.005Z</time></trkpt><trkpt lat="44.98553" lon="8.3306483"><ele>217.0</ele><time>2026-03-29T16:00:42.005Z</time></trkpt><trkpt lat="44.9856283" lon="8.3308117"><ele>217.0</ele><time>2026-03-29T16:00:43.006Z</time></trkpt><trkpt lat="44.9857217" lon="8.33097"><ele>217.0</ele><time>2026-03-29T16:00:44.008Z</time></trkpt><trkpt lat="44.9858183" lon="8.33113"><ele>217.0</ele><time>2026-03-29T16:00:45.003Z</time></trkpt><trkpt lat="44.9859167" lon="8.3312833"><ele>214.75</ele><time>2026-03-29T16:00:46.007Z</time></trkpt><trkpt lat="44.9860083" lon="8.3314283"><ele>212.5</ele><time>2026-03-29T16:00:47.005Z</time></trkpt><trkpt lat="44.9860867" lon="8.331565"><ele>210.25</ele><time>2026-03-29T16:00:48.005Z</time></trkpt><trkpt lat="44.9861483" lon="8.3316983"><ele>208.0</ele><time>2026-03-29T16:00:49.003Z</time></trkpt><trkpt lat="44.9861883" lon="8.331845"><ele>208.0</ele><time>2026-03-29T16:00:50.008Z</time></trkpt><trkpt lat="44.9862" lon="8.33201"><ele>208.0</ele><time>2026-03-29T16:00:51.003Z</time></trkpt><trkpt lat="44.98618" lon="8.3321733"><ele>208.0</ele><time>2026-03-29T16:00:52.005Z</time></trkpt><trkpt lat="44.9861317" lon="8.3323283"><ele>208.0</ele><time>2026-03-29T16:00:53.004Z</time></trkpt><trkpt lat="44.9860517" lon="8.33248"><ele>208.33333333333331</ele><time>2026-03-29T16:00:54.006Z</time></trkpt><trkpt lat="44.98595" lon="8.3326333"><ele>208.66666666666669</ele><time>2026-03-29T16:00:55.005Z</time></trkpt><trkpt lat="44.9858333" lon="8.332785"><ele>209.0</ele><time>2026-03-29T16:00:56.004Z</time></trkpt><trkpt lat="44.9857083" lon="8.3329233"><ele>206.66666666666669</ele><time>2026-03-29T16:00:57.006Z</time></trkpt><trkpt lat="44.9855967" lon="8.3330717"><ele>204.33333333333331</ele><time>2026-03-29T16:00:58.003Z</time></trkpt><trkpt lat="44.9854883" lon="8.33323"><ele>202.0</ele><time>2026-03-29T16:00:59.005Z</time></trkpt><trkpt lat="44.9854" lon="8.3334067"><ele>202.0</ele><time>2026-03-29T16:01:00.009Z</time></trkpt><trkpt lat="44.9853433" lon="8.3336033"><ele>202.0</ele><time>2026-03-29T16:01:01.007Z</time></trkpt><trkpt lat="44.98532" lon="8.333805"><ele>202.0</ele><time>2026-03-29T16:01:02.004Z</time></trkpt><trkpt lat="44.985325" lon="8.3340017"><ele>202.0</ele><time>2026-03-29T16:01:03.004Z</time></trkpt><trkpt lat="44.9853667" lon="8.3342033"><ele>201.0</ele><time>2026-03-29T16:01:04.005Z</time></trkpt><trkpt lat="44.9854417" lon="8.3344017"><ele>200.0</ele><time>2026-03-29T16:01:05.006Z</time></trkpt><trkpt lat="44.985545" lon="8.3346067"><ele>199.0</ele><time>2026-03-29T16:01:06.007Z</time></trkpt><trkpt lat="44.9856667" lon="8.3348167"><ele>199.0</ele><time>2026-03-29T16:01:07.008Z</time></trkpt><trkpt lat="44.9857967" lon="8.3350283"><ele>199.0</ele><time>2026-03-29T16:01:08.006Z</time></trkpt><trkpt lat="44.9859233" lon="8.3352367"><ele>199.0</ele><time>2026-03-29T16:01:09.004Z</time></trkpt><trkpt lat="44.9860467" lon="8.3354417"><ele>194.66666666666666</ele><time>2026-03-29T16:01:10.006Z</time></trkpt><trkpt lat="44.9861567" lon="8.33566"><ele>190.33333333333331</ele><time>2026-03-29T16:01:11.005Z</time></trkpt><trkpt lat="44.9862483" lon="8.3359033"><ele>186.0</ele><time>2026-03-29T16:01:12.008Z</time></trkpt><trkpt lat="44.9863233" lon="8.336155"><ele>187.0</ele><time>2026-03-29T16:01:13.007Z</time></trkpt><trkpt lat="44.9863967" lon="8.3364233"><ele>188.0</ele><time>2026-03-29T16:01:14.007Z</time></trkpt><trkpt lat="44.9864633" lon="8.336695"><ele>189.0</ele><time>2026-03-29T16:01:15.006Z</time></trkpt><trkpt lat="44.9865283" lon="8.3369683"><ele>188.66666666666666</ele><time>2026-03-29T16:01:16.008Z</time></trkpt><trkpt lat="44.9865967" lon="8.3372317"><ele>188.33333333333331</ele><time>2026-03-29T16:01:17.005Z</time></trkpt><trkpt lat="44.9866633" lon="8.33749"><ele>188.0</ele><time>2026-03-29T16:01:18.008Z</time></trkpt><trkpt lat="44.986735" lon="8.337765"><ele>180.0</ele><time>2026-03-29T16:01:19.007Z</time></trkpt><trkpt lat="44.9868133" lon="8.3380633"><ele>172.0</ele><time>2026-03-29T16:01:20.004Z</time></trkpt><trkpt lat="44.986895" lon="8.338385"><ele>172.0</ele><time>2026-03-29T16:01:21.006Z</time></trkpt><trkpt lat="44.9869783" lon="8.33873"><ele>172.0</ele><time>2026-03-29T16:01:22.005Z</time></trkpt><trkpt lat="44.9870583" lon="8.3390883"><ele>170.5</ele><time>2026-03-29T16:01:23.005Z</time></trkpt><trkpt lat="44.9871433" lon="8.3394467"><ele>169.0</ele><time>2026-03-29T16:01:24.005Z</time></trkpt><trkpt lat="44.9872317" lon="8.3398033"><ele>169.0</ele><time>2026-03-29T16:01:25.006Z</time></trkpt><trkpt lat="44.9873167" lon="8.3401583"><ele>169.0</ele><time>2026-03-29T16:01:26.005Z</time></trkpt><trkpt lat="44.9874033" lon="8.3405233"><ele>169.5</ele><time>2026-03-29T16:01:27.008Z</time></trkpt><trkpt lat="44.987495" lon="8.3408967"><ele>170.0</ele><time>2026-03-29T16:01:28.006Z</time></trkpt><trkpt lat="44.9875833" lon="8.3412583"><ele>168.5</ele><time>2026-03-29T16:01:29.004Z</time></trkpt><trkpt lat="44.9876633" lon="8.341605"><ele>167.0</ele><time>2026-03-29T16:01:30.006Z</time></trkpt><trkpt lat="44.98774" lon="8.341935"><ele>168.0</ele><time>2026-03-29T16:01:31.003Z</time></trkpt><trkpt lat="44.9878183" lon="8.342255"><ele>169.0</ele><time>2026-03-29T16:01:32.005Z</time></trkpt><trkpt lat="44.987895" lon="8.3425767"><ele>169.0</ele><time>2026-03-29T16:01:33.009Z</time></trkpt><trkpt lat="44.98797" lon="8.3429"><ele>169.0</ele><time>2026-03-29T16:01:34.005Z</time></trkpt><trkpt lat="44.9880433" lon="8.3432167"><ele>169.5</ele><time>2026-03-29T16:01:35.002Z</time></trkpt><trkpt lat="44.9881183" lon="8.3435317"><ele>170.0</ele><time>2026-03-29T16:01:36.006Z</time></trkpt><trkpt lat="44.9881933" lon="8.34384"><ele>170.0</ele><time>2026-03-29T16:01:37.006Z</time></trkpt><trkpt lat="44.9882617" lon="8.3441333"><ele>170.0</ele><time>2026-03-29T16:01:38.003Z</time></trkpt><trkpt lat="44.9883283" lon="8.3444083"><ele>170.0</ele><time>2026-03-29T16:01:39.005Z</time></trkpt><trkpt lat="44.9883917" lon="8.3446683"><ele>169.66666666666666</ele><time>2026-03-29T16:01:40.005Z</time></trkpt><trkpt lat="44.9884533" lon="8.34492"><ele>169.33333333333334</ele><time>2026-03-29T16:01:41.007Z</time></trkpt><trkpt lat="44.9885133" lon="8.3451633"><ele>169.0</ele><time>2026-03-29T16:01:42.006Z</time></trkpt><trkpt lat="44.988565" lon="8.3454"><ele>168.33333333333334</ele><time>2026-03-29T16:01:43.007Z</time></trkpt><trkpt lat="44.9885917" lon="8.345635"><ele>167.66666666666666</ele><time>2026-03-29T16:01:44.005Z</time></trkpt><trkpt lat="44.9885917" lon="8.345875"><ele>167.0</ele><time>2026-03-29T16:01:45.005Z</time></trkpt><trkpt lat="44.988565" lon="8.3461283"><ele>167.0</ele><time>2026-03-29T16:01:46.004Z</time></trkpt><trkpt lat="44.9885167" lon="8.34641"><ele>167.0</ele><time>2026-03-29T16:01:47.005Z</time></trkpt><trkpt lat="44.9884517" lon="8.34673"><ele>167.0</ele><time>2026-03-29T16:01:48.004Z</time></trkpt><trkpt lat="44.9883733" lon="8.34708"><ele>166.5</ele><time>2026-03-29T16:01:49.008Z</time></trkpt><trkpt lat="44.9882917" lon="8.3474383"><ele>166.0</ele><time>2026-03-29T16:01:50.004Z</time></trkpt><trkpt lat="44.9882133" lon="8.3478033"><ele>165.5</ele><time>2026-03-29T16:01:51.005Z</time></trkpt><trkpt lat="44.9881333" lon="8.34817"><ele>165.0</ele><time>2026-03-29T16:01:52.003Z</time></trkpt><trkpt lat="44.988055" lon="8.348525"><ele>165.0</ele><time>2026-03-29T16:01:53.008Z</time></trkpt><trkpt lat="44.987975" lon="8.3488667"><ele>165.0</ele><time>2026-03-29T16:01:54.004Z</time></trkpt><trkpt lat="44.9879017" lon="8.34919"><ele>165.0</ele><time>2026-03-29T16:01:55.007Z</time></trkpt><trkpt lat="44.9878333" lon="8.3494933"><ele>165.0</ele><time>2026-03-29T16:01:56.003Z</time></trkpt><trkpt lat="44.9877683" lon="8.349785"><ele>165.0</ele><time>2026-03-29T16:01:57.008Z</time></trkpt><trkpt lat="44.9877067" lon="8.3500633"><ele>164.66666666666666</ele><time>2026-03-29T16:01:58.004Z</time></trkpt><trkpt lat="44.9876467" lon="8.3503367"><ele>164.33333333333331</ele><time>2026-03-29T16:01:59.006Z</time></trkpt><trkpt lat="44.98759" lon="8.35061"><ele>164.0</ele><time>2026-03-29T16:02:00.007Z</time></trkpt><trkpt lat="44.9875317" lon="8.3508817"><ele>164.66666666666666</ele><time>2026-03-29T16:02:01.01Z</time></trkpt><trkpt lat="44.987475" lon="8.35115"><ele>165.33333333333334</ele><time>2026-03-29T16:02:02.005Z</time></trkpt><trkpt lat="44.9874183" lon="8.3514083"><ele>166.0</ele><time>2026-03-29T16:02:03.006Z</time></trkpt><trkpt lat="44.9873617" lon="8.351655"><ele>166.0</ele><time>2026-03-29T16:02:04.009Z</time></trkpt><trkpt lat="44.9873083" lon="8.3518917"><ele>166.0</ele><time>2026-03-29T16:02:05.006Z</time></trkpt><trkpt lat="44.9872583" lon="8.3521183"><ele>166.0</ele><time>2026-03-29T16:02:06.008Z</time></trkpt><trkpt lat="44.9872067" lon="8.352335"><ele>166.0</ele><time>2026-03-29T16:02:07.006Z</time></trkpt><trkpt lat="44.9871583" lon="8.3525367"><ele>166.0</ele><time>2026-03-29T16:02:08.004Z</time></trkpt><trkpt lat="44.9871067" lon="8.352725"><ele>166.0</ele><time>2026-03-29T16:02:09.007Z</time></trkpt><trkpt lat="44.98706" lon="8.3529083"><ele>166.0</ele><time>2026-03-29T16:02:10.004Z</time></trkpt><trkpt lat="44.9870183" lon="8.35308"><ele>165.0</ele><time>2026-03-29T16:02:11.002Z</time></trkpt><trkpt lat="44.986985" lon="8.353235"><ele>164.0</ele><time>2026-03-29T16:02:12.002Z</time></trkpt><trkpt lat="44.9869567" lon="8.35337"><ele>163.0</ele><time>2026-03-29T16:02:13.005Z</time></trkpt><trkpt lat="44.9869283" lon="8.3534733"><ele>162.0</ele><time>2026-03-29T16:02:14.003Z</time></trkpt><trkpt lat="44.9869" lon="8.35356"><ele>161.0</ele><time>2026-03-29T16:02:15.005Z</time></trkpt><trkpt lat="44.98681" lon="8.35361"><ele>161.0</ele><time>2026-03-29T16:02:17.004Z</time></trkpt><trkpt lat="44.9866967" lon="8.353535"><ele>161.0</ele><time>2026-03-29T16:02:18.005Z</time></trkpt><trkpt lat="44.986585" lon="8.3534733"><ele>161.0</ele><time>2026-03-29T16:02:19.006Z</time></trkpt><trkpt lat="44.9864683" lon="8.35342"><ele>161.0</ele><time>2026-03-29T16:02:20.004Z</time></trkpt><trkpt lat="44.9863533" lon="8.3533833"><ele>162.0</ele><time>2026-03-29T16:02:21.006Z</time></trkpt><trkpt lat="44.9862433" lon="8.3533717"><ele>163.0</ele><time>2026-03-29T16:02:22.008Z</time></trkpt><trkpt lat="44.9861333" lon="8.353405"><ele>164.0</ele><time>2026-03-29T16:02:23.004Z</time></trkpt><trkpt lat="44.9860267" lon="8.3534817"><ele>165.0</ele><time>2026-03-29T16:02:24.004Z</time></trkpt><trkpt lat="44.9859267" lon="8.35361"><ele>167.33333333333334</ele><time>2026-03-29T16:02:25.006Z</time></trkpt><trkpt lat="44.98583" lon="8.3537767"><ele>169.66666666666669</ele><time>2026-03-29T16:02:26.004Z</time></trkpt><trkpt lat="44.9857433" lon="8.3539517"><ele>172.0</ele><time>2026-03-29T16:02:27.003Z</time></trkpt><trkpt lat="44.9856533" lon="8.3541167"><ele>172.0</ele><time>2026-03-29T16:02:28.003Z</time></trkpt><trkpt lat="44.9855633" lon="8.354265"><ele>172.0</ele><time>2026-03-29T16:02:29.003Z</time></trkpt><trkpt lat="44.985465" lon="8.35439"><ele>172.0</ele><time>2026-03-29T16:02:30.003Z</time></trkpt><trkpt lat="44.98535" lon="8.3544833"><ele>172.0</ele><time>2026-03-29T16:02:31.007Z</time></trkpt><trkpt lat="44.9852333" lon="8.354545"><ele>172.0</ele><time>2026-03-29T16:02:32.003Z</time></trkpt><trkpt lat="44.9851183" lon="8.3545917"><ele>172.0</ele><time>2026-03-29T16:02:33.003Z</time></trkpt><trkpt lat="44.98501" lon="8.35465"><ele>172.0</ele><time>2026-03-29T16:02:34.005Z</time></trkpt><trkpt lat="44.984915" lon="8.354745"><ele>172.0</ele><time>2026-03-29T16:02:35.008Z</time></trkpt><trkpt lat="44.9848467" lon="8.3548783"><ele>172.5</ele><time>2026-03-29T16:02:36.005Z</time></trkpt><trkpt lat="44.9847983" lon="8.355035"><ele>173.0</ele><time>2026-03-29T16:02:37.006Z</time></trkpt><trkpt lat="44.98476" lon="8.3552067"><ele>173.5</ele><time>2026-03-29T16:02:38.004Z</time></trkpt><trkpt lat="44.9847183" lon="8.3553817"><ele>174.0</ele><time>2026-03-29T16:02:39.01Z</time></trkpt><trkpt lat="44.9846683" lon="8.3555533"><ele>174.0</ele><time>2026-03-29T16:02:40.005Z</time></trkpt><trkpt lat="44.9846167" lon="8.3557117"><ele>174.0</ele><time>2026-03-29T16:02:41.006Z</time></trkpt><trkpt lat="44.9845617" lon="8.3558417"><ele>174.0</ele><time>2026-03-29T16:02:42.002Z</time></trkpt><trkpt lat="44.9844933" lon="8.355935"><ele>174.0</ele><time>2026-03-29T16:02:43.006Z</time></trkpt><trkpt lat="44.984395" lon="8.3560017"><ele>174.0</ele><time>2026-03-29T16:02:44.009Z</time></trkpt><trkpt lat="44.9842817" lon="8.3560517"><ele>177.75</ele><time>2026-03-29T16:02:45.006Z</time></trkpt><trkpt lat="44.98415" lon="8.3561033"><ele>181.5</ele><time>2026-03-29T16:02:46.007Z</time></trkpt><trkpt lat="44.984005" lon="8.35617"><ele>185.25</ele><time>2026-03-29T16:02:47.004Z</time></trkpt><trkpt lat="44.9838633" lon="8.3562383"><ele>189.0</ele><time>2026-03-29T16:02:48.007Z</time></trkpt><trkpt lat="44.98374" lon="8.3562983"><ele>189.0</ele><time>2026-03-29T16:02:49.008Z</time></trkpt><trkpt lat="44.9836433" lon="8.3563283"><ele>189.0</ele><time>2026-03-29T16:02:50.008Z</time></trkpt><trkpt lat="44.983555" lon="8.3563383"><ele>189.0</ele><time>2026-03-29T16:02:51.011Z</time></trkpt><trkpt lat="44.9834983" lon="8.356285"><ele>189.0</ele><time>2026-03-29T16:02:52.011Z</time></trkpt><trkpt lat="44.98345" lon="8.3562217"><ele>189.0</ele><time>2026-03-29T16:02:53.008Z</time></trkpt><trkpt lat="44.98346" lon="8.356105"><ele>189.0</ele><time>2026-03-29T16:02:54.008Z</time></trkpt><trkpt lat="44.983475" lon="8.3559983"><ele>189.0</ele><time>2026-03-29T16:02:55.006Z</time></trkpt><trkpt lat="44.9835517" lon="8.355925"><ele>189.0</ele><time>2026-03-29T16:02:56.003Z</time></trkpt><trkpt lat="44.9836417" lon="8.35586"><ele>189.0</ele><time>2026-03-29T16:02:57.006Z</time></trkpt><trkpt lat="44.9837467" lon="8.3557883"><ele>189.0</ele><time>2026-03-29T16:02:58.004Z</time></trkpt><trkpt lat="44.983845" lon="8.3557183"><ele>189.0</ele><time>2026-03-29T16:02:59.006Z</time></trkpt><trkpt lat="44.98394" lon="8.35564"><ele>189.0</ele><time>2026-03-29T16:03:00.01Z</time></trkpt><trkpt lat="44.9840217" lon="8.3555467"><ele>189.0</ele><time>2026-03-29T16:03:01.007Z</time></trkpt><trkpt lat="44.9840833" lon="8.35543"><ele>189.0</ele><time>2026-03-29T16:03:02.002Z</time></trkpt><trkpt lat="44.9841217" lon="8.355305"><ele>189.0</ele><time>2026-03-29T16:03:03.012Z</time></trkpt><trkpt lat="44.98413" lon="8.3551717"><ele>189.0</ele><time>2026-03-29T16:03:04.008Z</time></trkpt><trkpt lat="44.98411" lon="8.355045"><ele>190.75</ele><time>2026-03-29T16:03:05.007Z</time></trkpt><trkpt lat="44.98405" lon="8.354925"><ele>192.5</ele><time>2026-03-29T16:03:06.003Z</time></trkpt><trkpt lat="44.9839517" lon="8.3548083"><ele>194.25</ele><time>2026-03-29T16:03:07.009Z</time></trkpt><trkpt lat="44.9838233" lon="8.3546867"><ele>196.0</ele><time>2026-03-29T16:03:08.006Z</time></trkpt><trkpt lat="44.9836967" lon="8.354565"><ele>197.75</ele><time>2026-03-29T16:03:09.005Z</time></trkpt><trkpt lat="44.9835767" lon="8.3544467"><ele>199.5</ele><time>2026-03-29T16:03:10.004Z</time></trkpt><trkpt lat="44.9834683" lon="8.3543317"><ele>201.25</ele><time>2026-03-29T16:03:11.004Z</time></trkpt><trkpt lat="44.98337" lon="8.354215"><ele>203.0</ele><time>2026-03-29T16:03:12.001Z</time></trkpt><trkpt lat="44.9832783" lon="8.3540883"><ele>203.0</ele><time>2026-03-29T16:03:13.004Z</time></trkpt><trkpt lat="44.9831783" lon="8.3539483"><ele>203.0</ele><time>2026-03-29T16:03:14.002Z</time></trkpt><trkpt lat="44.9830717" lon="8.3538"><ele>203.0</ele><time>2026-03-29T16:03:15.006Z</time></trkpt><trkpt lat="44.9829667" lon="8.353645"><ele>203.0</ele><time>2026-03-29T16:03:16.004Z</time></trkpt><trkpt lat="44.9828633" lon="8.35349"><ele>203.0</ele><time>2026-03-29T16:03:17.004Z</time></trkpt><trkpt lat="44.982755" lon="8.3533367"><ele>203.0</ele><time>2026-03-29T16:03:18.005Z</time></trkpt><trkpt lat="44.9826483" lon="8.3531883"><ele>203.0</ele><time>2026-03-29T16:03:19.006Z</time></trkpt><trkpt lat="44.9825517" lon="8.35304"><ele>203.0</ele><time>2026-03-29T16:03:20.002Z</time></trkpt><trkpt lat="44.9824683" lon="8.352915"><ele>202.16666666666669</ele><time>2026-03-29T16:03:21.005Z</time></trkpt><trkpt lat="44.9824" lon="8.3528217"><ele>201.33333333333334</ele><time>2026-03-29T16:03:22.005Z</time></trkpt><trkpt lat="44.982335" lon="8.35276"><ele>200.5</ele><time>2026-03-29T16:03:23.009Z</time></trkpt><trkpt lat="44.982265" lon="8.3527533"><ele>199.66666666666669</ele><time>2026-03-29T16:03:24.006Z</time></trkpt><trkpt lat="44.9821967" lon="8.3527933"><ele>198.83333333333334</ele><time>2026-03-29T16:03:25.008Z</time></trkpt><trkpt lat="44.98214" lon="8.3528567"><ele>198.0</ele><time>2026-03-29T16:03:26.005Z</time></trkpt><trkpt lat="44.9820817" lon="8.3529467"><ele>198.25</ele><time>2026-03-29T16:03:27.006Z</time></trkpt><trkpt lat="44.98202" lon="8.3530783"><ele>198.5</ele><time>2026-03-29T16:03:28.004Z</time></trkpt><trkpt lat="44.9819467" lon="8.353215"><ele>198.75</ele><time>2026-03-29T16:03:29.005Z</time></trkpt><trkpt lat="44.981875" lon="8.3533467"><ele>199.0</ele><time>2026-03-29T16:03:30.004Z</time></trkpt><trkpt lat="44.981805" lon="8.3534667"><ele>199.0</ele><time>2026-03-29T16:03:31.008Z</time></trkpt><trkpt lat="44.981735" lon="8.353585"><ele>199.0</ele><time>2026-03-29T16:03:31.999Z</time></trkpt><trkpt lat="44.9816633" lon="8.35371"><ele>199.0</ele><time>2026-03-29T16:03:33.005Z</time></trkpt><trkpt lat="44.9815933" lon="8.3538367"><ele>199.0</ele><time>2026-03-29T16:03:34.003Z</time></trkpt><trkpt lat="44.98153" lon="8.353975"><ele>198.2</ele><time>2026-03-29T16:03:35.001Z</time></trkpt><trkpt lat="44.9814717" lon="8.3541167"><ele>197.39999999999998</ele><time>2026-03-29T16:03:36.007Z</time></trkpt><trkpt lat="44.9814183" lon="8.3542567"><ele>196.6</ele><time>2026-03-29T16:03:37.004Z</time></trkpt><trkpt lat="44.9813683" lon="8.3543917"><ele>195.8</ele><time>2026-03-29T16:03:38.004Z</time></trkpt><trkpt lat="44.9813133" lon="8.354505"><ele>195.0</ele><time>2026-03-29T16:03:39.006Z</time></trkpt><trkpt lat="44.9812617" lon="8.3546017"><ele>195.0</ele><time>2026-03-29T16:03:40.001Z</time></trkpt><trkpt lat="44.98121" lon="8.3546717"><ele>195.0</ele><time>2026-03-29T16:03:41.002Z</time></trkpt><trkpt lat="44.9811483" lon="8.3547083"><ele>195.0</ele><time>2026-03-29T16:03:42.003Z</time></trkpt><trkpt lat="44.9810767" lon="8.3547067"><ele>195.0</ele><time>2026-03-29T16:03:43.008Z</time></trkpt><trkpt lat="44.980995" lon="8.354675"><ele>195.0</ele><time>2026-03-29T16:03:44.005Z</time></trkpt><trkpt lat="44.980895" lon="8.3546317"><ele>195.0</ele><time>2026-03-29T16:03:45.005Z</time></trkpt><trkpt lat="44.9807917" lon="8.3546117"><ele>194.75</ele><time>2026-03-29T16:03:46.002Z</time></trkpt><trkpt lat="44.9806933" lon="8.354625"><ele>194.5</ele><time>2026-03-29T16:03:47.008Z</time></trkpt><trkpt lat="44.980585" lon="8.354675"><ele>194.25</ele><time>2026-03-29T16:03:48.005Z</time></trkpt><trkpt lat="44.9804883" lon="8.35477"><ele>194.0</ele><time>2026-03-29T16:03:49.007Z</time></trkpt><trkpt lat="44.98039" lon="8.3548983"><ele>194.0</ele><time>2026-03-29T16:03:50.006Z</time></trkpt><trkpt lat="44.9802883" lon="8.3550317"><ele>194.0</ele><time>2026-03-29T16:03:51.004Z</time></trkpt><trkpt lat="44.9801967" lon="8.3551667"><ele>194.0</ele><time>2026-03-29T16:03:52.006Z</time></trkpt><trkpt lat="44.9801" lon="8.35529"><ele>194.0</ele><time>2026-03-29T16:03:53.007Z</time></trkpt><trkpt lat="44.980015" lon="8.3554"><ele>193.50000000000003</ele><time>2026-03-29T16:03:54.005Z</time></trkpt><trkpt lat="44.979935" lon="8.3555017"><ele>193.0</ele><time>2026-03-29T16:03:55.005Z</time></trkpt><trkpt lat="44.9798633" lon="8.3555933"><ele>192.5</ele><time>2026-03-29T16:03:56.004Z</time></trkpt><trkpt lat="44.9798067" lon="8.3556783"><ele>192.0</ele><time>2026-03-29T16:03:57.004Z</time></trkpt><trkpt lat="44.9797617" lon="8.3557683"><ele>191.5</ele><time>2026-03-29T16:03:58.009Z</time></trkpt><trkpt lat="44.979735" lon="8.3558617"><ele>191.0</ele><time>2026-03-29T16:03:59.005Z</time></trkpt><trkpt lat="44.9797267" lon="8.3559617"><ele>190.8</ele><time>2026-03-29T16:04:00.009Z</time></trkpt><trkpt lat="44.9797883" lon="8.3560917"><ele>190.60000000000002</ele><time>2026-03-29T16:04:01.004Z</time></trkpt><trkpt lat="44.9798633" lon="8.3562233"><ele>190.4</ele><time>2026-03-29T16:04:02.005Z</time></trkpt><trkpt lat="44.9799333" lon="8.3563467"><ele>190.2</ele><time>2026-03-29T16:04:03.003Z</time></trkpt><trkpt lat="44.9799883" lon="8.35645"><ele>190.0</ele><time>2026-03-29T16:04:04.007Z</time></trkpt><trkpt lat="44.9800283" lon="8.3565433"><ele>190.0</ele><time>2026-03-29T16:04:05.002Z</time></trkpt><trkpt lat="44.9800517" lon="8.35663"><ele>190.0</ele><time>2026-03-29T16:04:06.007Z</time></trkpt><trkpt lat="44.9800617" lon="8.3568083"><ele>190.0</ele><time>2026-03-29T16:04:08.011Z</time></trkpt><trkpt lat="44.97999" lon="8.3568867"><ele>190.0</ele><time>2026-03-29T16:04:09.006Z</time></trkpt><trkpt lat="44.9799217" lon="8.35698"><ele>190.0</ele><time>2026-03-29T16:04:10.005Z</time></trkpt><trkpt lat="44.9798567" lon="8.3570917"><ele>192.0</ele><time>2026-03-29T16:04:11.009Z</time></trkpt><trkpt lat="44.9797617" lon="8.357225"><ele>194.0</ele><time>2026-03-29T16:04:12.005Z</time></trkpt><trkpt lat="44.9796733" lon="8.35736"><ele>196.0</ele><time>2026-03-29T16:04:13.011Z</time></trkpt><trkpt lat="44.979575" lon="8.3575"><ele>198.0</ele><time>2026-03-29T16:04:14.006Z</time></trkpt><trkpt lat="44.9794767" lon="8.3576367"><ele>198.0</ele><time>2026-03-29T16:04:15.002Z</time></trkpt><trkpt lat="44.9793817" lon="8.35778"><ele>198.0</ele><time>2026-03-29T16:04:16.005Z</time></trkpt><trkpt lat="44.979295" lon="8.35794"><ele>198.0</ele><time>2026-03-29T16:04:17.005Z</time></trkpt><trkpt lat="44.9792067" lon="8.3581083"><ele>198.0</ele><time>2026-03-29T16:04:18.005Z</time></trkpt><trkpt lat="44.9791267" lon="8.3582733"><ele>197.5</ele><time>2026-03-29T16:04:19.002Z</time></trkpt><trkpt lat="44.9790517" lon="8.3584283"><ele>197.0</ele><time>2026-03-29T16:04:20.002Z</time></trkpt><trkpt lat="44.9789867" lon="8.3585767"><ele>196.5</ele><time>2026-03-29T16:04:20.999Z</time></trkpt><trkpt lat="44.9789283" lon="8.3587283"><ele>196.0</ele><time>2026-03-29T16:04:22.003Z</time></trkpt><trkpt lat="44.9788583" lon="8.3588733"><ele>197.0</ele><time>2026-03-29T16:04:23.004Z</time></trkpt><trkpt lat="44.9787833" lon="8.3590133"><ele>198.0</ele><time>2026-03-29T16:04:24.001Z</time></trkpt><trkpt lat="44.9787083" lon="8.3591517"><ele>199.0</ele><time>2026-03-29T16:04:25.005Z</time></trkpt><trkpt lat="44.9786167" lon="8.3592833"><ele>200.0</ele><time>2026-03-29T16:04:26.004Z</time></trkpt><trkpt lat="44.978525" lon="8.3594117"><ele>200.0</ele><time>2026-03-29T16:04:27.008Z</time></trkpt><trkpt lat="44.9784417" lon="8.359545"><ele>200.0</ele><time>2026-03-29T16:04:28.001Z</time></trkpt><trkpt lat="44.9783433" lon="8.35967"><ele>200.0</ele><time>2026-03-29T16:04:29.005Z</time></trkpt><trkpt lat="44.9782533" lon="8.3598017"><ele>200.0</ele><time>2026-03-29T16:04:30.007Z</time></trkpt><trkpt lat="44.9781583" lon="8.359935"><ele>200.25</ele><time>2026-03-29T16:04:31.005Z</time></trkpt><trkpt lat="44.9780467" lon="8.36005"><ele>200.5</ele><time>2026-03-29T16:04:32.008Z</time></trkpt><trkpt lat="44.9779283" lon="8.3601683"><ele>200.75</ele><time>2026-03-29T16:04:33.006Z</time></trkpt><trkpt lat="44.9778183" lon="8.3602867"><ele>201.0</ele><time>2026-03-29T16:04:34.005Z</time></trkpt><trkpt lat="44.9776983" lon="8.3603833"><ele>201.0</ele><time>2026-03-29T16:04:35.005Z</time></trkpt><trkpt lat="44.977595" lon="8.3604667"><ele>201.0</ele><time>2026-03-29T16:04:36.007Z</time></trkpt><trkpt lat="44.9775" lon="8.3605383"><ele>201.0</ele><time>2026-03-29T16:04:37.005Z</time></trkpt><trkpt lat="44.9774217" lon="8.360615"><ele>201.0</ele><time>2026-03-29T16:04:38.007Z</time></trkpt><trkpt lat="44.9773583" lon="8.3607117"><ele>201.0</ele><time>2026-03-29T16:04:39.004Z</time></trkpt><trkpt lat="44.9772983" lon="8.3608183"><ele>201.20000000000002</ele><time>2026-03-29T16:04:40.007Z</time></trkpt><trkpt lat="44.97723" lon="8.3609167"><ele>201.4</ele><time>2026-03-29T16:04:41.001Z</time></trkpt><trkpt lat="44.9771467" lon="8.3610133"><ele>201.6</ele><time>2026-03-29T16:04:42.006Z</time></trkpt><trkpt lat="44.9770533" lon="8.3611017"><ele>201.8</ele><time>2026-03-29T16:04:43.008Z</time></trkpt><trkpt lat="44.9769417" lon="8.3611783"><ele>202.0</ele><time>2026-03-29T16:04:44.003Z</time></trkpt><trkpt lat="44.976815" lon="8.3612583"><ele>202.66666666666666</ele><time>2026-03-29T16:04:45.004Z</time></trkpt><trkpt lat="44.97668" lon="8.3613267"><ele>203.33333333333331</ele><time>2026-03-29T16:04:46.009Z</time></trkpt><trkpt lat="44.9765333" lon="8.361395"><ele>204.0</ele><time>2026-03-29T16:04:47Z</time></trkpt><trkpt lat="44.9763783" lon="8.36146"><ele>204.0</ele><time>2026-03-29T16:04:48.002Z</time></trkpt><trkpt lat="44.9762167" lon="8.361525"><ele>204.0</ele><time>2026-03-29T16:04:49.003Z</time></trkpt><trkpt lat="44.9760417" lon="8.361575"><ele>204.0</ele><time>2026-03-29T16:04:50.005Z</time></trkpt><trkpt lat="44.9758533" lon="8.361615"><ele>200.0</ele><time>2026-03-29T16:04:51.005Z</time></trkpt><trkpt lat="44.97566" lon="8.36166"><ele>196.0</ele><time>2026-03-29T16:04:52.007Z</time></trkpt><trkpt lat="44.975475" lon="8.3617067"><ele>192.0</ele><time>2026-03-29T16:04:53.005Z</time></trkpt><trkpt lat="44.9752833" lon="8.3617433"><ele>192.0</ele><time>2026-03-29T16:04:54.003Z</time></trkpt><trkpt lat="44.9751" lon="8.3617733"><ele>192.0</ele><time>2026-03-29T16:04:55.009Z</time></trkpt><trkpt lat="44.974915" lon="8.3618083"><ele>192.0</ele><time>2026-03-29T16:04:56.005Z</time></trkpt><trkpt lat="44.974735" lon="8.3618467"><ele>188.66666666666666</ele><time>2026-03-29T16:04:57.004Z</time></trkpt><trkpt lat="44.974555" lon="8.3618867"><ele>185.33333333333331</ele><time>2026-03-29T16:04:58.012Z</time></trkpt><trkpt lat="44.9743833" lon="8.3619367"><ele>182.0</ele><time>2026-03-29T16:04:59.005Z</time></trkpt><trkpt lat="44.97421" lon="8.3619917"><ele>181.33333333333331</ele><time>2026-03-29T16:05:00.008Z</time></trkpt><trkpt lat="44.97403" lon="8.3620667"><ele>180.66666666666666</ele><time>2026-03-29T16:05:01.004Z</time></trkpt><trkpt lat="44.9738533" lon="8.362155"><ele>180.0</ele><time>2026-03-29T16:05:02.006Z</time></trkpt><trkpt lat="44.973675" lon="8.3622633"><ele>180.0</ele><time>2026-03-29T16:05:03Z</time></trkpt><trkpt lat="44.973495" lon="8.36239"><ele>180.0</ele><time>2026-03-29T16:05:04.005Z</time></trkpt><trkpt lat="44.9733133" lon="8.3625333"><ele>180.0</ele><time>2026-03-29T16:05:05.002Z</time></trkpt><trkpt lat="44.97313" lon="8.3626883"><ele>178.66666666666666</ele><time>2026-03-29T16:05:06.006Z</time></trkpt><trkpt lat="44.97294" lon="8.3628467"><ele>177.33333333333331</ele><time>2026-03-29T16:05:07.003Z</time></trkpt><trkpt lat="44.9727483" lon="8.3630083"><ele>176.0</ele><time>2026-03-29T16:05:08.007Z</time></trkpt><trkpt lat="44.9725533" lon="8.3631733"><ele>172.0</ele><time>2026-03-29T16:05:09.008Z</time></trkpt><trkpt lat="44.97236" lon="8.3633383"><ele>168.0</ele><time>2026-03-29T16:05:10.004Z</time></trkpt><trkpt lat="44.972165" lon="8.3635"><ele>168.0</ele><time>2026-03-29T16:05:11.011Z</time></trkpt><trkpt lat="44.9719733" lon="8.363655"><ele>168.0</ele><time>2026-03-29T16:05:12.001Z</time></trkpt><trkpt lat="44.971785" lon="8.3637983"><ele>168.0</ele><time>2026-03-29T16:05:13.005Z</time></trkpt><trkpt lat="44.9715883" lon="8.3639267"><ele>171.0</ele><time>2026-03-29T16:05:14.005Z</time></trkpt><trkpt lat="44.9713917" lon="8.36405"><ele>174.0</ele><time>2026-03-29T16:05:15.007Z</time></trkpt><trkpt lat="44.971195" lon="8.3641667"><ele>177.0</ele><time>2026-03-29T16:05:16.006Z</time></trkpt><trkpt lat="44.9709967" lon="8.3642733"><ele>174.0</ele><time>2026-03-29T16:05:17.004Z</time></trkpt><trkpt lat="44.9707967" lon="8.364375"><ele>171.0</ele><time>2026-03-29T16:05:18.003Z</time></trkpt><trkpt lat="44.9705983" lon="8.3644733"><ele>168.0</ele><time>2026-03-29T16:05:19.005Z</time></trkpt><trkpt lat="44.9704017" lon="8.364575"><ele>168.0</ele><time>2026-03-29T16:05:20.003Z</time></trkpt><trkpt lat="44.970205" lon="8.3646717"><ele>168.0</ele><time>2026-03-29T16:05:21.006Z</time></trkpt><trkpt lat="44.9700133" lon="8.364775"><ele>168.0</ele><time>2026-03-29T16:05:22.011Z</time></trkpt><trkpt lat="44.96982" lon="8.3648733"><ele>168.0</ele><time>2026-03-29T16:05:23.004Z</time></trkpt><trkpt lat="44.9696283" lon="8.36497"><ele>168.0</ele><time>2026-03-29T16:05:24.008Z</time></trkpt><trkpt lat="44.96944" lon="8.3650683"><ele>168.0</ele><time>2026-03-29T16:05:25.005Z</time></trkpt><trkpt lat="44.9692567" lon="8.3651683"><ele>168.0</ele><time>2026-03-29T16:05:26.006Z</time></trkpt><trkpt lat="44.9690833" lon="8.36528"><ele>168.0</ele><time>2026-03-29T16:05:27.006Z</time></trkpt><trkpt lat="44.9689167" lon="8.3654133"><ele>168.0</ele><time>2026-03-29T16:05:28.005Z</time></trkpt><trkpt lat="44.968765" lon="8.3655667"><ele>168.0</ele><time>2026-03-29T16:05:29.005Z</time></trkpt><trkpt lat="44.9686183" lon="8.3657283"><ele>168.0</ele><time>2026-03-29T16:05:30Z</time></trkpt><trkpt lat="44.96848" lon="8.3659067"><ele>168.0</ele><time>2026-03-29T16:05:31.006Z</time></trkpt><trkpt lat="44.96835" lon="8.3661083"><ele>167.33333333333334</ele><time>2026-03-29T16:05:32.012Z</time></trkpt><trkpt lat="44.9682217" lon="8.3663333"><ele>166.66666666666669</ele><time>2026-03-29T16:05:33.002Z</time></trkpt><trkpt lat="44.9680967" lon="8.3665817"><ele>166.0</ele><time>2026-03-29T16:05:34.005Z</time></trkpt><trkpt lat="44.967975" lon="8.3668417"><ele>166.0</ele><time>2026-03-29T16:05:35.005Z</time></trkpt><trkpt lat="44.9678583" lon="8.3671083"><ele>166.0</ele><time>2026-03-29T16:05:36.001Z</time></trkpt><trkpt lat="44.96774" lon="8.3673767"><ele>166.0</ele><time>2026-03-29T16:05:37.008Z</time></trkpt><trkpt lat="44.967625" lon="8.3676467"><ele>165.66666666666669</ele><time>2026-03-29T16:05:38.007Z</time></trkpt><trkpt lat="44.967505" lon="8.3679117"><ele>165.33333333333334</ele><time>2026-03-29T16:05:39.004Z</time></trkpt><trkpt lat="44.9673867" lon="8.3681817"><ele>165.0</ele><time>2026-03-29T16:05:40.006Z</time></trkpt><trkpt lat="44.9672617" lon="8.3684717"><ele>165.0</ele><time>2026-03-29T16:05:41.008Z</time></trkpt><trkpt lat="44.967125" lon="8.3687733"><ele>165.0</ele><time>2026-03-29T16:05:42.008Z</time></trkpt><trkpt lat="44.9669917" lon="8.3690683"><ele>167.0</ele><time>2026-03-29T16:05:43.005Z</time></trkpt><trkpt lat="44.966865" lon="8.3693483"><ele>169.0</ele><time>2026-03-29T16:05:44.011Z</time></trkpt><trkpt lat="44.966745" lon="8.369615"><ele>167.0</ele><time>2026-03-29T16:05:45.004Z</time></trkpt><trkpt lat="44.9666283" lon="8.369875"><ele>165.0</ele><time>2026-03-29T16:05:46.004Z</time></trkpt><trkpt lat="44.966515" lon="8.37013"><ele>163.0</ele><time>2026-03-29T16:05:46.999Z</time></trkpt><trkpt lat="44.966405" lon="8.37038"><ele>165.0</ele><time>2026-03-29T16:05:48.006Z</time></trkpt><trkpt lat="44.9662917" lon="8.37062"><ele>167.0</ele><time>2026-03-29T16:05:49.007Z</time></trkpt><trkpt lat="44.9661833" lon="8.370855"><ele>169.0</ele><time>2026-03-29T16:05:50.005Z</time></trkpt><trkpt lat="44.9660817" lon="8.3710867"><ele>169.0</ele><time>2026-03-29T16:05:51.008Z</time></trkpt><trkpt lat="44.965985" lon="8.3713017"><ele>169.0</ele><time>2026-03-29T16:05:52.007Z</time></trkpt><trkpt lat="44.9658867" lon="8.3714867"><ele>169.0</ele><time>2026-03-29T16:05:52.999Z</time></trkpt><trkpt lat="44.9657817" lon="8.371645"><ele>166.33333333333334</ele><time>2026-03-29T16:05:54.004Z</time></trkpt><trkpt lat="44.9656583" lon="8.37177"><ele>163.66666666666666</ele><time>2026-03-29T16:05:55.004Z</time></trkpt><trkpt lat="44.965525" lon="8.3718667"><ele>161.0</ele><time>2026-03-29T16:05:56.003Z</time></trkpt><trkpt lat="44.965375" lon="8.3719317"><ele>161.0</ele><time>2026-03-29T16:05:57.006Z</time></trkpt><trkpt lat="44.9652117" lon="8.3719717"><ele>161.0</ele><time>2026-03-29T16:05:58.002Z</time></trkpt><trkpt lat="44.9650317" lon="8.37201"><ele>161.0</ele><time>2026-03-29T16:05:59.005Z</time></trkpt><trkpt lat="44.9648417" lon="8.372045"><ele>160.33333333333331</ele><time>2026-03-29T16:06:00.012Z</time></trkpt><trkpt lat="44.9646433" lon="8.3720783"><ele>159.66666666666666</ele><time>2026-03-29T16:06:01.002Z</time></trkpt><trkpt lat="44.9644417" lon="8.3721117"><ele>159.0</ele><time>2026-03-29T16:06:02.006Z</time></trkpt><trkpt lat="44.96424" lon="8.3721467"><ele>159.0</ele><time>2026-03-29T16:06:03.008Z</time></trkpt><trkpt lat="44.9640433" lon="8.3721733"><ele>159.0</ele><time>2026-03-29T16:06:04.006Z</time></trkpt><trkpt lat="44.9638567" lon="8.3722017"><ele>159.0</ele><time>2026-03-29T16:06:05.006Z</time></trkpt><trkpt lat="44.963675" lon="8.3722283"><ele>159.0</ele><time>2026-03-29T16:06:06.003Z</time></trkpt><trkpt lat="44.9635017" lon="8.3722483"><ele>159.0</ele><time>2026-03-29T16:06:07.004Z</time></trkpt><trkpt lat="44.9633317" lon="8.37226"><ele>159.0</ele><time>2026-03-29T16:06:08.006Z</time></trkpt><trkpt lat="44.9631667" lon="8.37224"><ele>158.0</ele><time>2026-03-29T16:06:09.006Z</time></trkpt><trkpt lat="44.963" lon="8.3721933"><ele>157.0</ele><time>2026-03-29T16:06:10.003Z</time></trkpt><trkpt lat="44.9628283" lon="8.37212"><ele>156.0</ele><time>2026-03-29T16:06:11.006Z</time></trkpt><trkpt lat="44.9626467" lon="8.372035"><ele>157.0</ele><time>2026-03-29T16:06:12.008Z</time></trkpt><trkpt lat="44.962455" lon="8.3719383"><ele>158.0</ele><time>2026-03-29T16:06:13.008Z</time></trkpt><trkpt lat="44.962255" lon="8.3718333"><ele>159.0</ele><time>2026-03-29T16:06:14.006Z</time></trkpt><trkpt lat="44.9620417" lon="8.371725"><ele>159.0</ele><time>2026-03-29T16:06:15.003Z</time></trkpt><trkpt lat="44.9618267" lon="8.3716167"><ele>159.0</ele><time>2026-03-29T16:06:16.003Z</time></trkpt><trkpt lat="44.9616167" lon="8.37151"><ele>159.5</ele><time>2026-03-29T16:06:17.005Z</time></trkpt><trkpt lat="44.9614" lon="8.3714017"><ele>160.0</ele><time>2026-03-29T16:06:18.007Z</time></trkpt><trkpt lat="44.9611833" lon="8.371295"><ele>160.0</ele><time>2026-03-29T16:06:19.003Z</time></trkpt><trkpt lat="44.9609633" lon="8.3711867"><ele>160.0</ele><time>2026-03-29T16:06:20.009Z</time></trkpt><trkpt lat="44.9607433" lon="8.3710833"><ele>157.5</ele><time>2026-03-29T16:06:21.005Z</time></trkpt><trkpt lat="44.960525" lon="8.3709833"><ele>155.0</ele><time>2026-03-29T16:06:22.008Z</time></trkpt><trkpt lat="44.9603067" lon="8.3708833"><ele>155.0</ele><time>2026-03-29T16:06:23.004Z</time></trkpt><trkpt lat="44.96009" lon="8.37078"><ele>155.0</ele><time>2026-03-29T16:06:24.005Z</time></trkpt><trkpt lat="44.9598833" lon="8.3706867"><ele>155.0</ele><time>2026-03-29T16:06:25.007Z</time></trkpt><trkpt lat="44.9596817" lon="8.3705917"><ele>154.33333333333331</ele><time>2026-03-29T16:06:26.006Z</time></trkpt><trkpt lat="44.9594833" lon="8.3704983"><ele>153.66666666666666</ele><time>2026-03-29T16:06:27.01Z</time></trkpt><trkpt lat="44.9592883" lon="8.370405"><ele>153.0</ele><time>2026-03-29T16:06:28.006Z</time></trkpt><trkpt lat="44.9590883" lon="8.37031"><ele>151.66666666666666</ele><time>2026-03-29T16:06:29.012Z</time></trkpt><trkpt lat="44.9588917" lon="8.3702167"><ele>150.33333333333331</ele><time>2026-03-29T16:06:30.005Z</time></trkpt><trkpt lat="44.9586917" lon="8.3701233"><ele>149.0</ele><time>2026-03-29T16:06:31.006Z</time></trkpt><trkpt lat="44.958495" lon="8.3700317"><ele>149.33333333333331</ele><time>2026-03-29T16:06:32.006Z</time></trkpt><trkpt lat="44.9582967" lon="8.3699367"><ele>149.66666666666666</ele><time>2026-03-29T16:06:33.006Z</time></trkpt><trkpt lat="44.9580983" lon="8.36984"><ele>150.0</ele><time>2026-03-29T16:06:34.001Z</time></trkpt><trkpt lat="44.9579017" lon="8.3697417"><ele>150.0</ele><time>2026-03-29T16:06:35.001Z</time></trkpt><trkpt lat="44.9577033" lon="8.369645"><ele>150.0</ele><time>2026-03-29T16:06:36.004Z</time></trkpt><trkpt lat="44.9575067" lon="8.36955"><ele>150.0</ele><time>2026-03-29T16:06:37.009Z</time></trkpt><trkpt lat="44.9573117" lon="8.3694633"><ele>149.33333333333334</ele><time>2026-03-29T16:06:38.002Z</time></trkpt><trkpt lat="44.9571117" lon="8.3693783"><ele>148.66666666666669</ele><time>2026-03-29T16:06:39.009Z</time></trkpt><trkpt lat="44.9569167" lon="8.3692917"><ele>148.0</ele><time>2026-03-29T16:06:40.006Z</time></trkpt><trkpt lat="44.956725" lon="8.3692033"><ele>148.33333333333334</ele><time>2026-03-29T16:06:41.009Z</time></trkpt><trkpt lat="44.9565333" lon="8.3691217"><ele>148.66666666666666</ele><time>2026-03-29T16:06:42.008Z</time></trkpt><trkpt lat="44.956345" lon="8.3690633"><ele>149.0</ele><time>2026-03-29T16:06:43.005Z</time></trkpt><trkpt lat="44.95616" lon="8.3690267"><ele>149.0</ele><time>2026-03-29T16:06:44.003Z</time></trkpt><trkpt lat="44.9559683" lon="8.3690067"><ele>149.0</ele><time>2026-03-29T16:06:45.007Z</time></trkpt><trkpt lat="44.9557833" lon="8.3690133"><ele>149.0</ele><time>2026-03-29T16:06:46.007Z</time></trkpt><trkpt lat="44.9555983" lon="8.369035"><ele>149.66666666666666</ele><time>2026-03-29T16:06:47.008Z</time></trkpt><trkpt lat="44.9554183" lon="8.3690683"><ele>150.33333333333334</ele><time>2026-03-29T16:06:48.007Z</time></trkpt><trkpt lat="44.95525" lon="8.36913"><ele>151.0</ele><time>2026-03-29T16:06:49.012Z</time></trkpt><trkpt lat="44.9550883" lon="8.3692083"><ele>150.66666666666669</ele><time>2026-03-29T16:06:50.008Z</time></trkpt><trkpt lat="44.9549283" lon="8.3692967"><ele>150.33333333333334</ele><time>2026-03-29T16:06:51.005Z</time></trkpt><trkpt lat="44.954775" lon="8.3693883"><ele>150.0</ele><time>2026-03-29T16:06:52.007Z</time></trkpt><trkpt lat="44.9546217" lon="8.3694767"><ele>150.0</ele><time>2026-03-29T16:06:53.007Z</time></trkpt><trkpt lat="44.9544717" lon="8.3695733"><ele>150.0</ele><time>2026-03-29T16:06:54.001Z</time></trkpt><trkpt lat="44.9543167" lon="8.369665"><ele>150.0</ele><time>2026-03-29T16:06:55.011Z</time></trkpt><trkpt lat="44.954165" lon="8.3697633"><ele>149.66666666666666</ele><time>2026-03-29T16:06:56.009Z</time></trkpt><trkpt lat="44.9540133" lon="8.3698617"><ele>149.33333333333331</ele><time>2026-03-29T16:06:57.001Z</time></trkpt><trkpt lat="44.953865" lon="8.3699567"><ele>149.0</ele><time>2026-03-29T16:06:58.005Z</time></trkpt><trkpt lat="44.9537117" lon="8.3700467"><ele>149.0</ele><time>2026-03-29T16:06:59.003Z</time></trkpt><trkpt lat="44.9535517" lon="8.37013"><ele>149.0</ele><time>2026-03-29T16:07:00.007Z</time></trkpt><trkpt lat="44.953395" lon="8.37022"><ele>149.0</ele><time>2026-03-29T16:07:01.008Z</time></trkpt><trkpt lat="44.9532383" lon="8.3703117"><ele>148.33333333333331</ele><time>2026-03-29T16:07:02.004Z</time></trkpt><trkpt lat="44.9530867" lon="8.3703983"><ele>147.66666666666666</ele><time>2026-03-29T16:07:03.006Z</time></trkpt><trkpt lat="44.9529367" lon="8.3704867"><ele>147.0</ele><time>2026-03-29T16:07:04.006Z</time></trkpt><trkpt lat="44.95279" lon="8.3705733"><ele>147.66666666666666</ele><time>2026-03-29T16:07:05.005Z</time></trkpt><trkpt lat="44.952645" lon="8.37066"><ele>148.33333333333331</ele><time>2026-03-29T16:07:06.006Z</time></trkpt><trkpt lat="44.9525" lon="8.3707467"><ele>149.0</ele><time>2026-03-29T16:07:07.004Z</time></trkpt><trkpt lat="44.9523533" lon="8.3708317"><ele>149.0</ele><time>2026-03-29T16:07:08.011Z</time></trkpt><trkpt lat="44.952205" lon="8.37092"><ele>149.0</ele><time>2026-03-29T16:07:09.006Z</time></trkpt><trkpt lat="44.9520617" lon="8.371005"><ele>149.0</ele><time>2026-03-29T16:07:10.006Z</time></trkpt><trkpt lat="44.95191" lon="8.3710883"><ele>149.0</ele><time>2026-03-29T16:07:11.006Z</time></trkpt><trkpt lat="44.9517617" lon="8.3711733"><ele>149.0</ele><time>2026-03-29T16:07:12.005Z</time></trkpt><trkpt lat="44.95161" lon="8.3712467"><ele>149.0</ele><time>2026-03-29T16:07:13.008Z</time></trkpt><trkpt lat="44.9514633" lon="8.3713167"><ele>149.33333333333331</ele><time>2026-03-29T16:07:14.006Z</time></trkpt><trkpt lat="44.95131" lon="8.3713733"><ele>149.66666666666666</ele><time>2026-03-29T16:07:15.003Z</time></trkpt><trkpt lat="44.9511517" lon="8.37141"><ele>150.0</ele><time>2026-03-29T16:07:16.009Z</time></trkpt><trkpt lat="44.950995" lon="8.3714383"><ele>149.66666666666666</ele><time>2026-03-29T16:07:17.006Z</time></trkpt><trkpt lat="44.95084" lon="8.37146"><ele>149.33333333333331</ele><time>2026-03-29T16:07:18.004Z</time></trkpt><trkpt lat="44.95068" lon="8.3714767"><ele>149.0</ele><time>2026-03-29T16:07:19.009Z</time></trkpt><trkpt lat="44.9505217" lon="8.3714883"><ele>149.0</ele><time>2026-03-29T16:07:20.004Z</time></trkpt><trkpt lat="44.9503617" lon="8.3714833"><ele>149.0</ele><time>2026-03-29T16:07:21.008Z</time></trkpt><trkpt lat="44.9502083" lon="8.371475"><ele>149.0</ele><time>2026-03-29T16:07:22.005Z</time></trkpt><trkpt lat="44.9500617" lon="8.3714683"><ele>148.75</ele><time>2026-03-29T16:07:23.009Z</time></trkpt><trkpt lat="44.9499217" lon="8.3714583"><ele>148.5</ele><time>2026-03-29T16:07:24.007Z</time></trkpt><trkpt lat="44.9497883" lon="8.37145"><ele>148.25</ele><time>2026-03-29T16:07:25.004Z</time></trkpt><trkpt lat="44.9496583" lon="8.371435"><ele>148.0</ele><time>2026-03-29T16:07:26.004Z</time></trkpt><trkpt lat="44.9495317" lon="8.371415"><ele>148.0</ele><time>2026-03-29T16:07:27.009Z</time></trkpt><trkpt lat="44.9494017" lon="8.3713933"><ele>148.0</ele><time>2026-03-29T16:07:28.001Z</time></trkpt><trkpt lat="44.94927" lon="8.3713833"><ele>148.0</ele><time>2026-03-29T16:07:29.003Z</time></trkpt><trkpt lat="44.9491317" lon="8.371365"><ele>148.0</ele><time>2026-03-29T16:07:30.001Z</time></trkpt><trkpt lat="44.94899" lon="8.3713467"><ele>146.75</ele><time>2026-03-29T16:07:31.007Z</time></trkpt><trkpt lat="44.9488433" lon="8.3713267"><ele>145.5</ele><time>2026-03-29T16:07:32.007Z</time></trkpt><trkpt lat="44.9486967" lon="8.371305"><ele>144.25</ele><time>2026-03-29T16:07:33.007Z</time></trkpt><trkpt lat="44.9485533" lon="8.37128"><ele>143.0</ele><time>2026-03-29T16:07:34.006Z</time></trkpt><trkpt lat="44.9484083" lon="8.371255"><ele>143.0</ele><time>2026-03-29T16:07:35.006Z</time></trkpt><trkpt lat="44.9482617" lon="8.3712317"><ele>143.0</ele><time>2026-03-29T16:07:36.005Z</time></trkpt><trkpt lat="44.948115" lon="8.371225"><ele>143.0</ele><time>2026-03-29T16:07:37.007Z</time></trkpt><trkpt lat="44.9479633" lon="8.371215"><ele>143.0</ele><time>2026-03-29T16:07:38.005Z</time></trkpt><trkpt lat="44.9478117" lon="8.3711967"><ele>143.0</ele><time>2026-03-29T16:07:39.009Z</time></trkpt><trkpt lat="44.94766" lon="8.3711717"><ele>143.0</ele><time>2026-03-29T16:07:40.005Z</time></trkpt><trkpt lat="44.9475067" lon="8.37115"><ele>143.0</ele><time>2026-03-29T16:07:41.003Z</time></trkpt><trkpt lat="44.9473483" lon="8.3711283"><ele>143.0</ele><time>2026-03-29T16:07:42.005Z</time></trkpt><trkpt lat="44.9471967" lon="8.3711067"><ele>143.0</ele><time>2026-03-29T16:07:43.006Z</time></trkpt><trkpt lat="44.9470483" lon="8.3710833"><ele>143.0</ele><time>2026-03-29T16:07:44.002Z</time></trkpt><trkpt lat="44.9468967" lon="8.3710567"><ele>143.0</ele><time>2026-03-29T16:07:45.002Z</time></trkpt><trkpt lat="44.9467417" lon="8.3710383"><ele>143.0</ele><time>2026-03-29T16:07:46.008Z</time></trkpt><trkpt lat="44.94659" lon="8.3710117"><ele>143.0</ele><time>2026-03-29T16:07:47.009Z</time></trkpt><trkpt lat="44.9464417" lon="8.3709917"><ele>143.33333333333331</ele><time>2026-03-29T16:07:48.001Z</time></trkpt><trkpt lat="44.94629" lon="8.3709683"><ele>143.66666666666666</ele><time>2026-03-29T16:07:49.007Z</time></trkpt><trkpt lat="44.946135" lon="8.3709467"><ele>144.0</ele><time>2026-03-29T16:07:50.005Z</time></trkpt><trkpt lat="44.9459867" lon="8.37093"><ele>143.33333333333334</ele><time>2026-03-29T16:07:51.006Z</time></trkpt><trkpt lat="44.9458383" lon="8.3708983"><ele>142.66666666666669</ele><time>2026-03-29T16:07:52.005Z</time></trkpt><trkpt lat="44.9456833" lon="8.3708767"><ele>142.0</ele><time>2026-03-29T16:07:53.008Z</time></trkpt><trkpt lat="44.9455333" lon="8.370855"><ele>142.0</ele><time>2026-03-29T16:07:54.005Z</time></trkpt><trkpt lat="44.945385" lon="8.37084"><ele>142.0</ele><time>2026-03-29T16:07:55.008Z</time></trkpt><trkpt lat="44.9452467" lon="8.37082"><ele>142.0</ele><time>2026-03-29T16:07:56.004Z</time></trkpt><trkpt lat="44.9451033" lon="8.3708017"><ele>142.0</ele><time>2026-03-29T16:07:57.003Z</time></trkpt><trkpt lat="44.94496" lon="8.37079"><ele>141.66666666666669</ele><time>2026-03-29T16:07:58.004Z</time></trkpt><trkpt lat="44.9448083" lon="8.3707867"><ele>141.33333333333334</ele><time>2026-03-29T16:07:59.006Z</time></trkpt><trkpt lat="44.9446533" lon="8.3708"><ele>141.0</ele><time>2026-03-29T16:08:00.008Z</time></trkpt><trkpt lat="44.944495" lon="8.3708333"><ele>141.0</ele><time>2026-03-29T16:08:01.002Z</time></trkpt><trkpt lat="44.94434" lon="8.3708883"><ele>141.0</ele><time>2026-03-29T16:08:02.003Z</time></trkpt><trkpt lat="44.9441817" lon="8.37096"><ele>141.0</ele><time>2026-03-29T16:08:03.004Z</time></trkpt><trkpt lat="44.94402" lon="8.3710467"><ele>141.66666666666666</ele><time>2026-03-29T16:08:04.005Z</time></trkpt><trkpt lat="44.9438667" lon="8.3711583"><ele>142.33333333333331</ele><time>2026-03-29T16:08:05.004Z</time></trkpt><trkpt lat="44.94372" lon="8.3712883"><ele>143.0</ele><time>2026-03-29T16:08:06.005Z</time></trkpt><trkpt lat="44.94358" lon="8.3714383"><ele>143.0</ele><time>2026-03-29T16:08:07.006Z</time></trkpt><trkpt lat="44.9434433" lon="8.371595"><ele>143.0</ele><time>2026-03-29T16:08:08.003Z</time></trkpt><trkpt lat="44.9433083" lon="8.371755"><ele>143.0</ele><time>2026-03-29T16:08:09.002Z</time></trkpt><trkpt lat="44.9431767" lon="8.371915"><ele>142.66666666666666</ele><time>2026-03-29T16:08:10.004Z</time></trkpt><trkpt lat="44.94304" lon="8.372085"><ele>142.33333333333334</ele><time>2026-03-29T16:08:11.003Z</time></trkpt><trkpt lat="44.9429017" lon="8.37225"><ele>142.0</ele><time>2026-03-29T16:08:12.003Z</time></trkpt><trkpt lat="44.9427633" lon="8.3724133"><ele>142.0</ele><time>2026-03-29T16:08:13.004Z</time></trkpt><trkpt lat="44.9426217" lon="8.3725783"><ele>142.0</ele><time>2026-03-29T16:08:14.007Z</time></trkpt><trkpt lat="44.9424767" lon="8.372745"><ele>142.0</ele><time>2026-03-29T16:08:15.005Z</time></trkpt><trkpt lat="44.94233" lon="8.3729133"><ele>143.0</ele><time>2026-03-29T16:08:16.003Z</time></trkpt><trkpt lat="44.9421817" lon="8.3730967"><ele>144.0</ele><time>2026-03-29T16:08:17.006Z</time></trkpt><trkpt lat="44.9420317" lon="8.3732733"><ele>145.0</ele><time>2026-03-29T16:08:18.006Z</time></trkpt><trkpt lat="44.9418833" lon="8.3734517"><ele>145.0</ele><time>2026-03-29T16:08:19.005Z</time></trkpt><trkpt lat="44.9417317" lon="8.3736383"><ele>145.0</ele><time>2026-03-29T16:08:20.004Z</time></trkpt><trkpt lat="44.9415767" lon="8.3738233"><ele>145.0</ele><time>2026-03-29T16:08:21.004Z</time></trkpt><trkpt lat="44.9414233" lon="8.373995"><ele>143.66666666666669</ele><time>2026-03-29T16:08:22.008Z</time></trkpt><trkpt lat="44.9412683" lon="8.374145"><ele>142.33333333333334</ele><time>2026-03-29T16:08:23.004Z</time></trkpt><trkpt lat="44.9411067" lon="8.3742767"><ele>141.0</ele><time>2026-03-29T16:08:24.007Z</time></trkpt><trkpt lat="44.94093" lon="8.3743817"><ele>141.66666666666666</ele><time>2026-03-29T16:08:25.005Z</time></trkpt><trkpt lat="44.9407383" lon="8.3744617"><ele>142.33333333333331</ele><time>2026-03-29T16:08:26.013Z</time></trkpt><trkpt lat="44.940535" lon="8.3745317"><ele>143.0</ele><time>2026-03-29T16:08:27.005Z</time></trkpt><trkpt lat="44.94033" lon="8.3746033"><ele>143.0</ele><time>2026-03-29T16:08:28.003Z</time></trkpt><trkpt lat="44.9401267" lon="8.37467"><ele>143.0</ele><time>2026-03-29T16:08:29.006Z</time></trkpt><trkpt lat="44.9399267" lon="8.3747383"><ele>143.0</ele><time>2026-03-29T16:08:30Z</time></trkpt><trkpt lat="44.9397367" lon="8.3748083"><ele>143.33333333333331</ele><time>2026-03-29T16:08:31.006Z</time></trkpt><trkpt lat="44.9395533" lon="8.3748783"><ele>143.66666666666666</ele><time>2026-03-29T16:08:32.005Z</time></trkpt><trkpt lat="44.9393683" lon="8.3749517"><ele>144.0</ele><time>2026-03-29T16:08:33.004Z</time></trkpt><trkpt lat="44.93919" lon="8.3750367"><ele>143.0</ele><time>2026-03-29T16:08:34.001Z</time></trkpt><trkpt lat="44.9390017" lon="8.3751333"><ele>142.0</ele><time>2026-03-29T16:08:35.003Z</time></trkpt><trkpt lat="44.9387983" lon="8.3752533"><ele>141.0</ele><time>2026-03-29T16:08:36.003Z</time></trkpt><trkpt lat="44.9385917" lon="8.3754"><ele>141.0</ele><time>2026-03-29T16:08:37.011Z</time></trkpt><trkpt lat="44.9383917" lon="8.3755533"><ele>141.0</ele><time>2026-03-29T16:08:38.003Z</time></trkpt><trkpt lat="44.938205" lon="8.3756967"><ele>141.0</ele><time>2026-03-29T16:08:39.001Z</time></trkpt><trkpt lat="44.9380233" lon="8.3758267"><ele>141.0</ele><time>2026-03-29T16:08:40.007Z</time></trkpt><trkpt lat="44.937855" lon="8.375955"><ele>141.0</ele><time>2026-03-29T16:08:41.006Z</time></trkpt><trkpt lat="44.93769" lon="8.3760783"><ele>141.0</ele><time>2026-03-29T16:08:42.005Z</time></trkpt><trkpt lat="44.9375283" lon="8.3761967"><ele>140.66666666666666</ele><time>2026-03-29T16:08:43.004Z</time></trkpt><trkpt lat="44.93737" lon="8.37631"><ele>140.33333333333331</ele><time>2026-03-29T16:08:44.009Z</time></trkpt><trkpt lat="44.937215" lon="8.3764183"><ele>140.0</ele><time>2026-03-29T16:08:45.008Z</time></trkpt><trkpt lat="44.93707" lon="8.3765383"><ele>140.0</ele><time>2026-03-29T16:08:46.004Z</time></trkpt><trkpt lat="44.9369183" lon="8.3766417"><ele>140.0</ele><time>2026-03-29T16:08:47.007Z</time></trkpt><trkpt lat="44.936775" lon="8.376745"><ele>140.0</ele><time>2026-03-29T16:08:48.002Z</time></trkpt><trkpt lat="44.9366283" lon="8.3768517"><ele>140.0</ele><time>2026-03-29T16:08:49.004Z</time></trkpt><trkpt lat="44.9364833" lon="8.3769617"><ele>140.0</ele><time>2026-03-29T16:08:50.005Z</time></trkpt><trkpt lat="44.936335" lon="8.377075"><ele>140.0</ele><time>2026-03-29T16:08:51.002Z</time></trkpt><trkpt lat="44.9361817" lon="8.3771917"><ele>140.0</ele><time>2026-03-29T16:08:52.002Z</time></trkpt><trkpt lat="44.9360283" lon="8.3773067"><ele>140.0</ele><time>2026-03-29T16:08:53.003Z</time></trkpt><trkpt lat="44.935875" lon="8.3774233"><ele>140.0</ele><time>2026-03-29T16:08:54.004Z</time></trkpt><trkpt lat="44.9357167" lon="8.377535"><ele>139.0</ele><time>2026-03-29T16:08:55.004Z</time></trkpt><trkpt lat="44.93555" lon="8.377635"><ele>138.0</ele><time>2026-03-29T16:08:56.004Z</time></trkpt><trkpt lat="44.93538" lon="8.3777217"><ele>137.0</ele><time>2026-03-29T16:08:57.008Z</time></trkpt><trkpt lat="44.9352083" lon="8.37779"><ele>135.66666666666666</ele><time>2026-03-29T16:08:58.004Z</time></trkpt><trkpt lat="44.9350367" lon="8.37785"><ele>134.33333333333334</ele><time>2026-03-29T16:08:59.006Z</time></trkpt><trkpt lat="44.9348617" lon="8.37791"><ele>133.0</ele><time>2026-03-29T16:09:00.013Z</time></trkpt><trkpt lat="44.9346917" lon="8.377965"><ele>133.0</ele><time>2026-03-29T16:09:01.008Z</time></trkpt><trkpt lat="44.9345283" lon="8.3780183"><ele>133.0</ele><time>2026-03-29T16:09:02.007Z</time></trkpt><trkpt lat="44.9343717" lon="8.37807"><ele>133.0</ele><time>2026-03-29T16:09:03.006Z</time></trkpt><trkpt lat="44.93422" lon="8.37812"><ele>135.0</ele><time>2026-03-29T16:09:04.008Z</time></trkpt><trkpt lat="44.9340683" lon="8.378155"><ele>137.0</ele><time>2026-03-29T16:09:05.007Z</time></trkpt><trkpt lat="44.9339183" lon="8.37819"><ele>139.0</ele><time>2026-03-29T16:09:06.001Z</time></trkpt><trkpt lat="44.9337783" lon="8.3782217"><ele>141.0</ele><time>2026-03-29T16:09:07.006Z</time></trkpt><trkpt lat="44.9336433" lon="8.3782533"><ele>141.0</ele><time>2026-03-29T16:09:08.008Z</time></trkpt><trkpt lat="44.9335117" lon="8.3782833"><ele>141.0</ele><time>2026-03-29T16:09:09.007Z</time></trkpt><trkpt lat="44.9333883" lon="8.3783133"><ele>141.0</ele><time>2026-03-29T16:09:10.004Z</time></trkpt><trkpt lat="44.933275" lon="8.378345"><ele>141.0</ele><time>2026-03-29T16:09:11.005Z</time></trkpt><trkpt lat="44.933165" lon="8.37837"><ele>140.0</ele><time>2026-03-29T16:09:12.004Z</time></trkpt><trkpt lat="44.9330733" lon="8.37839"><ele>139.0</ele><time>2026-03-29T16:09:13.005Z</time></trkpt><trkpt lat="44.9329933" lon="8.37841"><ele>138.0</ele><time>2026-03-29T16:09:14.006Z</time></trkpt><trkpt lat="44.93293" lon="8.3784167"><ele>137.0</ele><time>2026-03-29T16:09:15.002Z</time></trkpt><trkpt lat="44.9329067" lon="8.378295"><ele>136.0</ele><time>2026-03-29T16:09:17.002Z</time></trkpt><trkpt lat="44.932905" lon="8.3781817"><ele>135.0</ele><time>2026-03-29T16:09:18.005Z</time></trkpt><trkpt lat="44.9329083" lon="8.3779783"><ele>133.66666666666666</ele><time>2026-03-29T16:09:19.006Z</time></trkpt><trkpt lat="44.9329183" lon="8.3777533"><ele>132.33333333333331</ele><time>2026-03-29T16:09:20.004Z</time></trkpt><trkpt lat="44.9329183" lon="8.3775233"><ele>131.0</ele><time>2026-03-29T16:09:21.005Z</time></trkpt><trkpt lat="44.93292" lon="8.3772767"><ele>131.33333333333331</ele><time>2026-03-29T16:09:22.008Z</time></trkpt><trkpt lat="44.932925" lon="8.3770117"><ele>131.66666666666666</ele><time>2026-03-29T16:09:23.003Z</time></trkpt><trkpt lat="44.9329283" lon="8.3767583"><ele>132.0</ele><time>2026-03-29T16:09:24.005Z</time></trkpt><trkpt lat="44.9329283" lon="8.3764983"><ele>132.66666666666666</ele><time>2026-03-29T16:09:25.005Z</time></trkpt><trkpt lat="44.9329267" lon="8.3762483"><ele>133.33333333333331</ele><time>2026-03-29T16:09:26.007Z</time></trkpt><trkpt lat="44.9329267" lon="8.3760133"><ele>134.0</ele><time>2026-03-29T16:09:27.006Z</time></trkpt><trkpt lat="44.932925" lon="8.375795"><ele>134.0</ele><time>2026-03-29T16:09:28.007Z</time></trkpt><trkpt lat="44.932925" lon="8.375595"><ele>134.0</ele><time>2026-03-29T16:09:29.011Z</time></trkpt><trkpt lat="44.9329283" lon="8.3754"><ele>134.0</ele><time>2026-03-29T16:09:30.006Z</time></trkpt><trkpt lat="44.93293" lon="8.37522"><ele>134.0</ele><time>2026-03-29T16:09:31.003Z</time></trkpt><trkpt lat="44.9329367" lon="8.37505"><ele>134.2</ele><time>2026-03-29T16:09:32.009Z</time></trkpt><trkpt lat="44.9329383" lon="8.37489"><ele>134.4</ele><time>2026-03-29T16:09:33.005Z</time></trkpt><trkpt lat="44.9329333" lon="8.3747383"><ele>134.6</ele><time>2026-03-29T16:09:34.005Z</time></trkpt><trkpt lat="44.9329117" lon="8.37459"><ele>134.8</ele><time>2026-03-29T16:09:35.006Z</time></trkpt><trkpt lat="44.9328683" lon="8.3744467"><ele>135.0</ele><time>2026-03-29T16:09:36.007Z</time></trkpt><trkpt lat="44.9327983" lon="8.374315"><ele>135.75</ele><time>2026-03-29T16:09:37Z</time></trkpt><trkpt lat="44.932715" lon="8.3741967"><ele>136.5</ele><time>2026-03-29T16:09:38.002Z</time></trkpt><trkpt lat="44.9326333" lon="8.3740817"><ele>137.25</ele><time>2026-03-29T16:09:39.009Z</time></trkpt><trkpt lat="44.9325467" lon="8.3739783"><ele>138.0</ele><time>2026-03-29T16:09:40.003Z</time></trkpt><trkpt lat="44.9324617" lon="8.3738833"><ele>138.6</ele><time>2026-03-29T16:09:41.006Z</time></trkpt><trkpt lat="44.93239" lon="8.3737933"><ele>139.20000000000002</ele><time>2026-03-29T16:09:42.006Z</time></trkpt><trkpt lat="44.9323517" lon="8.3736817"><ele>139.8</ele><time>2026-03-29T16:09:43.006Z</time></trkpt><trkpt lat="44.9323283" lon="8.3735617"><ele>140.4</ele><time>2026-03-29T16:09:44.005Z</time></trkpt><trkpt lat="44.93232" lon="8.3734283"><ele>141.0</ele><time>2026-03-29T16:09:45.007Z</time></trkpt><trkpt lat="44.9323633" lon="8.373235"><ele>141.0</ele><time>2026-03-29T16:09:46.004Z</time></trkpt><trkpt lat="44.9323983" lon="8.3730267"><ele>141.0</ele><time>2026-03-29T16:09:47.005Z</time></trkpt><trkpt lat="44.9324317" lon="8.372815"><ele>141.0</ele><time>2026-03-29T16:09:48.005Z</time></trkpt><trkpt lat="44.9324667" lon="8.3726033"><ele>141.33333333333334</ele><time>2026-03-29T16:09:49.007Z</time></trkpt><trkpt lat="44.9325" lon="8.3723767"><ele>141.66666666666669</ele><time>2026-03-29T16:09:50.005Z</time></trkpt><trkpt lat="44.932535" lon="8.3721317"><ele>142.0</ele><time>2026-03-29T16:09:51.007Z</time></trkpt><trkpt lat="44.93257" lon="8.37188"><ele>143.0</ele><time>2026-03-29T16:09:52.009Z</time></trkpt><trkpt lat="44.9326067" lon="8.3716417"><ele>144.0</ele><time>2026-03-29T16:09:53.007Z</time></trkpt><trkpt lat="44.9326417" lon="8.3714083"><ele>145.0</ele><time>2026-03-29T16:09:54.004Z</time></trkpt><trkpt lat="44.9326767" lon="8.3711767"><ele>148.0</ele><time>2026-03-29T16:09:55.007Z</time></trkpt><trkpt lat="44.9327083" lon="8.37094"><ele>151.0</ele><time>2026-03-29T16:09:56.004Z</time></trkpt><trkpt lat="44.9327417" lon="8.3707067"><ele>154.0</ele><time>2026-03-29T16:09:57.007Z</time></trkpt><trkpt lat="44.932775" lon="8.37048"><ele>154.66666666666669</ele><time>2026-03-29T16:09:58.011Z</time></trkpt><trkpt lat="44.932805" lon="8.3702583"><ele>155.33333333333334</ele><time>2026-03-29T16:09:59.005Z</time></trkpt><trkpt lat="44.93284" lon="8.3700467"><ele>156.0</ele><time>2026-03-29T16:10:00.013Z</time></trkpt><trkpt lat="44.93287" lon="8.3698383"><ele>157.66666666666666</ele><time>2026-03-29T16:10:01.006Z</time></trkpt><trkpt lat="44.932905" lon="8.3696267"><ele>159.33333333333331</ele><time>2026-03-29T16:10:02.003Z</time></trkpt><trkpt lat="44.9329517" lon="8.3694167"><ele>161.0</ele><time>2026-03-29T16:10:03.007Z</time></trkpt><trkpt lat="44.9330117" lon="8.3692117"><ele>161.0</ele><time>2026-03-29T16:10:04.005Z</time></trkpt><trkpt lat="44.9330933" lon="8.369015"><ele>161.0</ele><time>2026-03-29T16:10:05.002Z</time></trkpt><trkpt lat="44.9331883" lon="8.3688217"><ele>161.0</ele><time>2026-03-29T16:10:06.006Z</time></trkpt><trkpt lat="44.933295" lon="8.3686317"><ele>160.0</ele><time>2026-03-29T16:10:07.004Z</time></trkpt><trkpt lat="44.9334017" lon="8.3684433"><ele>159.0</ele><time>2026-03-29T16:10:08.007Z</time></trkpt><trkpt lat="44.9335033" lon="8.3682533"><ele>158.0</ele><time>2026-03-29T16:10:09.003Z</time></trkpt><trkpt lat="44.9335933" lon="8.3680567"><ele>159.66666666666666</ele><time>2026-03-29T16:10:10.005Z</time></trkpt><trkpt lat="44.9336583" lon="8.36785"><ele>161.33333333333334</ele><time>2026-03-29T16:10:11.001Z</time></trkpt><trkpt lat="44.9336983" lon="8.36763"><ele>163.0</ele><time>2026-03-29T16:10:12.01Z</time></trkpt><trkpt lat="44.93372" lon="8.3673933"><ele>163.33333333333334</ele><time>2026-03-29T16:10:13.01Z</time></trkpt><trkpt lat="44.933725" lon="8.3671517"><ele>163.66666666666666</ele><time>2026-03-29T16:10:14.004Z</time></trkpt><trkpt lat="44.9337217" lon="8.3669083"><ele>164.0</ele><time>2026-03-29T16:10:15.005Z</time></trkpt><trkpt lat="44.9337083" lon="8.3666633"><ele>164.0</ele><time>2026-03-29T16:10:16.011Z</time></trkpt><trkpt lat="44.93369" lon="8.366415"><ele>164.0</ele><time>2026-03-29T16:10:17.006Z</time></trkpt><trkpt lat="44.9336717" lon="8.366165"><ele>164.0</ele><time>2026-03-29T16:10:18.004Z</time></trkpt><trkpt lat="44.9336533" lon="8.3659117"><ele>164.33333333333331</ele><time>2026-03-29T16:10:19.005Z</time></trkpt><trkpt lat="44.933635" lon="8.3656583"><ele>164.66666666666666</ele><time>2026-03-29T16:10:20.007Z</time></trkpt><trkpt lat="44.93362" lon="8.3654117"><ele>165.0</ele><time>2026-03-29T16:10:21.005Z</time></trkpt><trkpt lat="44.933605" lon="8.365165"><ele>165.0</ele><time>2026-03-29T16:10:22.001Z</time></trkpt><trkpt lat="44.93359" lon="8.3649233"><ele>165.0</ele><time>2026-03-29T16:10:23.001Z</time></trkpt><trkpt lat="44.9335733" lon="8.364695"><ele>165.0</ele><time>2026-03-29T16:10:24.009Z</time></trkpt><trkpt lat="44.9335583" lon="8.3644717"><ele>165.0</ele><time>2026-03-29T16:10:25.009Z</time></trkpt><trkpt lat="44.9335467" lon="8.3642533"><ele>165.0</ele><time>2026-03-29T16:10:26.004Z</time></trkpt><trkpt lat="44.9335317" lon="8.364055"><ele>165.0</ele><time>2026-03-29T16:10:27.003Z</time></trkpt><trkpt lat="44.9335233" lon="8.3638833"><ele>165.0</ele><time>2026-03-29T16:10:28.004Z</time></trkpt><trkpt lat="44.9335067" lon="8.3637167"><ele>165.75</ele><time>2026-03-29T16:10:29Z</time></trkpt><trkpt lat="44.9334683" lon="8.3635533"><ele>166.5</ele><time>2026-03-29T16:10:30.002Z</time></trkpt><trkpt lat="44.933405" lon="8.3633833"><ele>167.25</ele><time>2026-03-29T16:10:31.003Z</time></trkpt><trkpt lat="44.9333267" lon="8.36321"><ele>168.0</ele><time>2026-03-29T16:10:32.006Z</time></trkpt><trkpt lat="44.9332383" lon="8.3630317"><ele>170.66666666666666</ele><time>2026-03-29T16:10:33.006Z</time></trkpt><trkpt lat="44.93314" lon="8.3628533"><ele>173.33333333333331</ele><time>2026-03-29T16:10:34.01Z</time></trkpt><trkpt lat="44.9330333" lon="8.3626783"><ele>176.0</ele><time>2026-03-29T16:10:35.001Z</time></trkpt><trkpt lat="44.932915" lon="8.3624967"><ele>176.0</ele><time>2026-03-29T16:10:36.005Z</time></trkpt><trkpt lat="44.932805" lon="8.362305"><ele>176.0</ele><time>2026-03-29T16:10:37.006Z</time></trkpt><trkpt lat="44.93269" lon="8.3621133"><ele>176.0</ele><time>2026-03-29T16:10:38.005Z</time></trkpt><trkpt lat="44.93258" lon="8.3619283"><ele>175.0</ele><time>2026-03-29T16:10:39.006Z</time></trkpt><trkpt lat="44.9324733" lon="8.3617417"><ele>174.0</ele><time>2026-03-29T16:10:40.003Z</time></trkpt><trkpt lat="44.9323733" lon="8.3615333"><ele>173.0</ele><time>2026-03-29T16:10:41.002Z</time></trkpt><trkpt lat="44.93227" lon="8.36133"><ele>170.33333333333331</ele><time>2026-03-29T16:10:42.006Z</time></trkpt><trkpt lat="44.9321817" lon="8.3611167"><ele>167.66666666666666</ele><time>2026-03-29T16:10:43.005Z</time></trkpt><trkpt lat="44.9321133" lon="8.3608883"><ele>165.0</ele><time>2026-03-29T16:10:44.005Z</time></trkpt><trkpt lat="44.9320583" lon="8.3606517"><ele>165.33333333333334</ele><time>2026-03-29T16:10:45.009Z</time></trkpt><trkpt lat="44.9320133" lon="8.360425"><ele>165.66666666666669</ele><time>2026-03-29T16:10:46.004Z</time></trkpt><trkpt lat="44.931965" lon="8.3601883"><ele>166.0</ele><time>2026-03-29T16:10:47.002Z</time></trkpt><trkpt lat="44.93191" lon="8.3599433"><ele>165.66666666666669</ele><time>2026-03-29T16:10:48.007Z</time></trkpt><trkpt lat="44.9318567" lon="8.3597"><ele>165.33333333333334</ele><time>2026-03-29T16:10:49.005Z</time></trkpt><trkpt lat="44.9318033" lon="8.3594617"><ele>165.0</ele><time>2026-03-29T16:10:50.006Z</time></trkpt><trkpt lat="44.9317533" lon="8.3592317"><ele>162.66666666666666</ele><time>2026-03-29T16:10:51.007Z</time></trkpt><trkpt lat="44.9317167" lon="8.3590167"><ele>160.33333333333331</ele><time>2026-03-29T16:10:52.005Z</time></trkpt><trkpt lat="44.9316883" lon="8.3587967"><ele>158.0</ele><time>2026-03-29T16:10:53.006Z</time></trkpt><trkpt lat="44.9316617" lon="8.3585633"><ele>156.66666666666666</ele><time>2026-03-29T16:10:54.005Z</time></trkpt><trkpt lat="44.9316533" lon="8.35834"><ele>155.33333333333334</ele><time>2026-03-29T16:10:55.005Z</time></trkpt><trkpt lat="44.93166" lon="8.3581183"><ele>154.0</ele><time>2026-03-29T16:10:56.007Z</time></trkpt><trkpt lat="44.9316767" lon="8.3579067"><ele>154.0</ele><time>2026-03-29T16:10:57.004Z</time></trkpt><trkpt lat="44.9316917" lon="8.357695"><ele>154.0</ele><time>2026-03-29T16:10:58.003Z</time></trkpt><trkpt lat="44.9316933" lon="8.35748"><ele>154.0</ele><time>2026-03-29T16:10:59.006Z</time></trkpt><trkpt lat="44.9316883" lon="8.3572633"><ele>153.0</ele><time>2026-03-29T16:11:00.005Z</time></trkpt><trkpt lat="44.931675" lon="8.35703"><ele>152.0</ele><time>2026-03-29T16:11:01.012Z</time></trkpt><trkpt lat="44.93165" lon="8.3567933"><ele>151.0</ele><time>2026-03-29T16:11:02.006Z</time></trkpt><trkpt lat="44.9316217" lon="8.356545"><ele>149.33333333333334</ele><time>2026-03-29T16:11:03.007Z</time></trkpt><trkpt lat="44.9316" lon="8.3562967"><ele>147.66666666666666</ele><time>2026-03-29T16:11:04.009Z</time></trkpt><trkpt lat="44.9315717" lon="8.3560517"><ele>146.0</ele><time>2026-03-29T16:11:05.008Z</time></trkpt><trkpt lat="44.9315367" lon="8.355815"><ele>146.0</ele><time>2026-03-29T16:11:06.001Z</time></trkpt><trkpt lat="44.9314733" lon="8.3555867"><ele>146.0</ele><time>2026-03-29T16:11:07.008Z</time></trkpt><trkpt lat="44.9313933" lon="8.3553483"><ele>146.0</ele><time>2026-03-29T16:11:08.006Z</time></trkpt><trkpt lat="44.9313033" lon="8.3551183"><ele>145.0</ele><time>2026-03-29T16:11:09.01Z</time></trkpt><trkpt lat="44.9312083" lon="8.3548883"><ele>144.0</ele><time>2026-03-29T16:11:10.003Z</time></trkpt><trkpt lat="44.9311133" lon="8.3546583"><ele>143.0</ele><time>2026-03-29T16:11:11.005Z</time></trkpt><trkpt lat="44.931015" lon="8.3544317"><ele>141.0</ele><time>2026-03-29T16:11:12.005Z</time></trkpt><trkpt lat="44.93092" lon="8.3542033"><ele>139.0</ele><time>2026-03-29T16:11:13.004Z</time></trkpt><trkpt lat="44.93084" lon="8.353965"><ele>137.0</ele><time>2026-03-29T16:11:14.004Z</time></trkpt><trkpt lat="44.9307633" lon="8.3537133"><ele>136.33333333333331</ele><time>2026-03-29T16:11:15.006Z</time></trkpt><trkpt lat="44.930705" lon="8.3534533"><ele>135.66666666666666</ele><time>2026-03-29T16:11:16.006Z</time></trkpt><trkpt lat="44.9306533" lon="8.3531833"><ele>135.0</ele><time>2026-03-29T16:11:17.004Z</time></trkpt><trkpt lat="44.9306067" lon="8.3529083"><ele>135.0</ele><time>2026-03-29T16:11:18.002Z</time></trkpt><trkpt lat="44.9305617" lon="8.352625"><ele>135.0</ele><time>2026-03-29T16:11:19.014Z</time></trkpt><trkpt lat="44.9305133" lon="8.3523417"><ele>135.0</ele><time>2026-03-29T16:11:20.007Z</time></trkpt><trkpt lat="44.9304633" lon="8.3520583"><ele>135.33333333333334</ele><time>2026-03-29T16:11:21.01Z</time></trkpt><trkpt lat="44.930415" lon="8.3517717"><ele>135.66666666666669</ele><time>2026-03-29T16:11:22.006Z</time></trkpt><trkpt lat="44.930365" lon="8.3514833"><ele>136.0</ele><time>2026-03-29T16:11:23.007Z</time></trkpt><trkpt lat="44.9303183" lon="8.3512017"><ele>135.66666666666669</ele><time>2026-03-29T16:11:24.007Z</time></trkpt><trkpt lat="44.9302717" lon="8.3509233"><ele>135.33333333333334</ele><time>2026-03-29T16:11:25.006Z</time></trkpt><trkpt lat="44.93023" lon="8.3506517"><ele>135.0</ele><time>2026-03-29T16:11:26.003Z</time></trkpt><trkpt lat="44.9301833" lon="8.3503917"><ele>135.0</ele><time>2026-03-29T16:11:27.008Z</time></trkpt><trkpt lat="44.9301383" lon="8.350135"><ele>135.0</ele><time>2026-03-29T16:11:28.001Z</time></trkpt><trkpt lat="44.930095" lon="8.3498783"><ele>135.0</ele><time>2026-03-29T16:11:29.004Z</time></trkpt><trkpt lat="44.93005" lon="8.3496233"><ele>136.33333333333334</ele><time>2026-03-29T16:11:30.007Z</time></trkpt><trkpt lat="44.9300067" lon="8.3493767"><ele>137.66666666666669</ele><time>2026-03-29T16:11:31.005Z</time></trkpt><trkpt lat="44.9299667" lon="8.3491417"><ele>139.0</ele><time>2026-03-29T16:11:32.005Z</time></trkpt><trkpt lat="44.9299317" lon="8.348925"><ele>139.2</ele><time>2026-03-29T16:11:33.004Z</time></trkpt><trkpt lat="44.9299117" lon="8.3487383"><ele>139.4</ele><time>2026-03-29T16:11:34.006Z</time></trkpt><trkpt lat="44.92991" lon="8.348585"><ele>139.6</ele><time>2026-03-29T16:11:35.011Z</time></trkpt><trkpt lat="44.9299233" lon="8.348465"><ele>139.8</ele><time>2026-03-29T16:11:36.002Z</time></trkpt><trkpt lat="44.9299483" lon="8.348365"><ele>140.0</ele><time>2026-03-29T16:11:37.005Z</time></trkpt><trkpt lat="44.9299617" lon="8.3482"><ele>140.0</ele><time>2026-03-29T16:11:39.009Z</time></trkpt><trkpt lat="44.929915" lon="8.3480867"><ele>140.0</ele><time>2026-03-29T16:11:41.004Z</time></trkpt><trkpt lat="44.9298317" lon="8.3481383"><ele>140.0</ele><time>2026-03-29T16:11:42.007Z</time></trkpt><trkpt lat="44.92976" lon="8.348175"><ele>140.0</ele><time>2026-03-29T16:11:43.006Z</time></trkpt><trkpt lat="44.9296467" lon="8.348275"><ele>140.0</ele><time>2026-03-29T16:11:44.007Z</time></trkpt><trkpt lat="44.9295283" lon="8.3483683"><ele>140.0</ele><time>2026-03-29T16:11:45.012Z</time></trkpt><trkpt lat="44.9294067" lon="8.3484667"><ele>140.0</ele><time>2026-03-29T16:11:46.008Z</time></trkpt><trkpt lat="44.92928" lon="8.3485633"><ele>140.0</ele><time>2026-03-29T16:11:47.009Z</time></trkpt><trkpt lat="44.9291567" lon="8.348655"><ele>140.0</ele><time>2026-03-29T16:11:48.003Z</time></trkpt><trkpt lat="44.9290283" lon="8.348745"><ele>139.66666666666666</ele><time>2026-03-29T16:11:49.009Z</time></trkpt><trkpt lat="44.9288917" lon="8.348825"><ele>139.33333333333334</ele><time>2026-03-29T16:11:50.006Z</time></trkpt><trkpt lat="44.9287483" lon="8.3488917"><ele>139.0</ele><time>2026-03-29T16:11:51.005Z</time></trkpt><trkpt lat="44.92858" lon="8.3489433"><ele>139.0</ele><time>2026-03-29T16:11:52.009Z</time></trkpt><trkpt lat="44.928395" lon="8.3489883"><ele>139.0</ele><time>2026-03-29T16:11:53.005Z</time></trkpt><trkpt lat="44.9282033" lon="8.3490283"><ele>139.0</ele><time>2026-03-29T16:11:54.003Z</time></trkpt><trkpt lat="44.9280183" lon="8.3490667"><ele>139.33333333333334</ele><time>2026-03-29T16:11:55.005Z</time></trkpt><trkpt lat="44.9278467" lon="8.3491083"><ele>139.66666666666666</ele><time>2026-03-29T16:11:56.013Z</time></trkpt><trkpt lat="44.9276867" lon="8.3491533"><ele>140.0</ele><time>2026-03-29T16:11:57.004Z</time></trkpt><trkpt lat="44.9275383" lon="8.3492033"><ele>141.0</ele><time>2026-03-29T16:11:58.004Z</time></trkpt><trkpt lat="44.9274017" lon="8.34927"><ele>142.0</ele><time>2026-03-29T16:11:59.007Z</time></trkpt><trkpt lat="44.927285" lon="8.3493483"><ele>143.0</ele><time>2026-03-29T16:12:00.009Z</time></trkpt><trkpt lat="44.927185" lon="8.3494417"><ele>144.0</ele><time>2026-03-29T16:12:01.003Z</time></trkpt><trkpt lat="44.927095" lon="8.3495567"><ele>144.0</ele><time>2026-03-29T16:12:02.003Z</time></trkpt><trkpt lat="44.9270083" lon="8.3497"><ele>144.0</ele><time>2026-03-29T16:12:03.006Z</time></trkpt><trkpt lat="44.9269333" lon="8.34987"><ele>144.0</ele><time>2026-03-29T16:12:04.005Z</time></trkpt><trkpt lat="44.9268667" lon="8.3500533"><ele>144.0</ele><time>2026-03-29T16:12:05.002Z</time></trkpt><trkpt lat="44.92681" lon="8.350225"><ele>143.6</ele><time>2026-03-29T16:12:06.007Z</time></trkpt><trkpt lat="44.9267617" lon="8.350375"><ele>143.2</ele><time>2026-03-29T16:12:07.011Z</time></trkpt><trkpt lat="44.9267117" lon="8.3505067"><ele>142.79999999999998</ele><time>2026-03-29T16:12:08.006Z</time></trkpt><trkpt lat="44.9266533" lon="8.3506233"><ele>142.4</ele><time>2026-03-29T16:12:09.007Z</time></trkpt><trkpt lat="44.926575" lon="8.3507217"><ele>142.0</ele><time>2026-03-29T16:12:10.008Z</time></trkpt><trkpt lat="44.926485" lon="8.3508067"><ele>142.0</ele><time>2026-03-29T16:12:11.004Z</time></trkpt><trkpt lat="44.92637" lon="8.3508633"><ele>142.0</ele><time>2026-03-29T16:12:12.006Z</time></trkpt><trkpt lat="44.9262533" lon="8.3509333"><ele>142.0</ele><time>2026-03-29T16:12:13.011Z</time></trkpt><trkpt lat="44.9261367" lon="8.35102"><ele>142.0</ele><time>2026-03-29T16:12:14.001Z</time></trkpt><trkpt lat="44.926025" lon="8.3511433"><ele>142.0</ele><time>2026-03-29T16:12:15.004Z</time></trkpt><trkpt lat="44.9259083" lon="8.35129"><ele>142.0</ele><time>2026-03-29T16:12:16.005Z</time></trkpt><trkpt lat="44.9258233" lon="8.351475"><ele>142.0</ele><time>2026-03-29T16:12:17.007Z</time></trkpt><trkpt lat="44.9257567" lon="8.351675"><ele>142.5</ele><time>2026-03-29T16:12:18.011Z</time></trkpt><trkpt lat="44.9256983" lon="8.3518567"><ele>143.0</ele><time>2026-03-29T16:12:19.003Z</time></trkpt><trkpt lat="44.9256383" lon="8.3520217"><ele>143.5</ele><time>2026-03-29T16:12:20.005Z</time></trkpt><trkpt lat="44.92557" lon="8.3521717"><ele>144.0</ele><time>2026-03-29T16:12:21.007Z</time></trkpt><trkpt lat="44.9254917" lon="8.352335"><ele>141.0</ele><time>2026-03-29T16:12:22.007Z</time></trkpt><trkpt lat="44.9254017" lon="8.3524933"><ele>138.0</ele><time>2026-03-29T16:12:23.007Z</time></trkpt><trkpt lat="44.9253117" lon="8.3526783"><ele>135.0</ele><time>2026-03-29T16:12:24.004Z</time></trkpt><trkpt lat="44.9252183" lon="8.3528783"><ele>134.66666666666666</ele><time>2026-03-29T16:12:25.007Z</time></trkpt><trkpt lat="44.9251333" lon="8.3530883"><ele>134.33333333333331</ele><time>2026-03-29T16:12:26.004Z</time></trkpt><trkpt lat="44.9250417" lon="8.3532833"><ele>134.0</ele><time>2026-03-29T16:12:27.006Z</time></trkpt><trkpt lat="44.9249483" lon="8.3534733"><ele>134.0</ele><time>2026-03-29T16:12:28.009Z</time></trkpt><trkpt lat="44.9248617" lon="8.3536683"><ele>134.0</ele><time>2026-03-29T16:12:29.01Z</time></trkpt><trkpt lat="44.924775" lon="8.3538583"><ele>134.0</ele><time>2026-03-29T16:12:30.007Z</time></trkpt><trkpt lat="44.9246867" lon="8.3540433"><ele>132.75</ele><time>2026-03-29T16:12:31.005Z</time></trkpt><trkpt lat="44.924595" lon="8.354215"><ele>131.5</ele><time>2026-03-29T16:12:32.003Z</time></trkpt><trkpt lat="44.9244983" lon="8.3543733"><ele>130.25</ele><time>2026-03-29T16:12:33.008Z</time></trkpt><trkpt lat="44.9243967" lon="8.3545167"><ele>129.0</ele><time>2026-03-29T16:12:34.005Z</time></trkpt><trkpt lat="44.9242917" lon="8.35466"><ele>130.33333333333334</ele><time>2026-03-29T16:12:35.003Z</time></trkpt><trkpt lat="44.9241767" lon="8.3547917"><ele>131.66666666666669</ele><time>2026-03-29T16:12:36.005Z</time></trkpt><trkpt lat="44.9240533" lon="8.3549183"><ele>133.0</ele><time>2026-03-29T16:12:37.008Z</time></trkpt><trkpt lat="44.9239283" lon="8.3550367"><ele>133.0</ele><time>2026-03-29T16:12:38.008Z</time></trkpt><trkpt lat="44.9237967" lon="8.3551383"><ele>133.0</ele><time>2026-03-29T16:12:39.012Z</time></trkpt><trkpt lat="44.9236567" lon="8.3552083"><ele>133.0</ele><time>2026-03-29T16:12:40.01Z</time></trkpt><trkpt lat="44.92351" lon="8.3552483"><ele>133.0</ele><time>2026-03-29T16:12:41.003Z</time></trkpt><trkpt lat="44.923355" lon="8.35526"><ele>132.66666666666669</ele><time>2026-03-29T16:12:42.006Z</time></trkpt><trkpt lat="44.9231933" lon="8.355255"><ele>132.33333333333334</ele><time>2026-03-29T16:12:43.01Z</time></trkpt><trkpt lat="44.9230267" lon="8.3552367"><ele>132.0</ele><time>2026-03-29T16:12:44.004Z</time></trkpt><trkpt lat="44.922855" lon="8.3552217"><ele>132.0</ele><time>2026-03-29T16:12:45.001Z</time></trkpt><trkpt lat="44.9226817" lon="8.355225"><ele>132.0</ele><time>2026-03-29T16:12:46.006Z</time></trkpt><trkpt lat="44.9225017" lon="8.35526"><ele>132.0</ele><time>2026-03-29T16:12:47.003Z</time></trkpt><trkpt lat="44.9223233" lon="8.35532"><ele>131.66666666666666</ele><time>2026-03-29T16:12:48.007Z</time></trkpt><trkpt lat="44.9221467" lon="8.3553933"><ele>131.33333333333331</ele><time>2026-03-29T16:12:49.007Z</time></trkpt><trkpt lat="44.92197" lon="8.3554733"><ele>131.0</ele><time>2026-03-29T16:12:50.003Z</time></trkpt><trkpt lat="44.921795" lon="8.3555583"><ele>129.66666666666666</ele><time>2026-03-29T16:12:51.005Z</time></trkpt><trkpt lat="44.9216183" lon="8.3556417"><ele>128.33333333333334</ele><time>2026-03-29T16:12:52.005Z</time></trkpt><trkpt lat="44.92144" lon="8.3557217"><ele>127.0</ele><time>2026-03-29T16:12:53.003Z</time></trkpt><trkpt lat="44.9212617" lon="8.355795"><ele>127.0</ele><time>2026-03-29T16:12:54.012Z</time></trkpt><trkpt lat="44.9210817" lon="8.3558633"><ele>127.0</ele><time>2026-03-29T16:12:55.008Z</time></trkpt><trkpt lat="44.92091" lon="8.35593"><ele>127.0</ele><time>2026-03-29T16:12:56.004Z</time></trkpt><trkpt lat="44.9207433" lon="8.356005"><ele>127.33333333333334</ele><time>2026-03-29T16:12:57.005Z</time></trkpt><trkpt lat="44.9205833" lon="8.3560967"><ele>127.66666666666666</ele><time>2026-03-29T16:12:58.004Z</time></trkpt><trkpt lat="44.92043" lon="8.35621"><ele>128.0</ele><time>2026-03-29T16:12:59.007Z</time></trkpt><trkpt lat="44.9202817" lon="8.3563417"><ele>127.66666666666666</ele><time>2026-03-29T16:13:00.008Z</time></trkpt><trkpt lat="44.9201417" lon="8.3564767"><ele>127.33333333333334</ele><time>2026-03-29T16:13:01.004Z</time></trkpt><trkpt lat="44.9200017" lon="8.3566117"><ele>127.0</ele><time>2026-03-29T16:13:02.004Z</time></trkpt><trkpt lat="44.919865" lon="8.3567383"><ele>128.33333333333334</ele><time>2026-03-29T16:13:03.009Z</time></trkpt><trkpt lat="44.91973" lon="8.3568667"><ele>129.66666666666666</ele><time>2026-03-29T16:13:04.005Z</time></trkpt><trkpt lat="44.9195933" lon="8.3569967"><ele>131.0</ele><time>2026-03-29T16:13:05.004Z</time></trkpt><trkpt lat="44.919455" lon="8.357125"><ele>131.0</ele><time>2026-03-29T16:13:06.003Z</time></trkpt><trkpt lat="44.9193133" lon="8.3572483"><ele>131.0</ele><time>2026-03-29T16:13:07.003Z</time></trkpt><trkpt lat="44.9191717" lon="8.357365"><ele>131.0</ele><time>2026-03-29T16:13:08.005Z</time></trkpt><trkpt lat="44.91903" lon="8.357475"><ele>131.0</ele><time>2026-03-29T16:13:09.007Z</time></trkpt><trkpt lat="44.9188867" lon="8.357575"><ele>131.0</ele><time>2026-03-29T16:13:10.004Z</time></trkpt><trkpt lat="44.9187383" lon="8.3576633"><ele>131.0</ele><time>2026-03-29T16:13:11.005Z</time></trkpt><trkpt lat="44.9185833" lon="8.3577383"><ele>131.0</ele><time>2026-03-29T16:13:12.006Z</time></trkpt><trkpt lat="44.9184267" lon="8.3578017"><ele>131.0</ele><time>2026-03-29T16:13:13.007Z</time></trkpt><trkpt lat="44.9182767" lon="8.357855"><ele>131.0</ele><time>2026-03-29T16:13:14.004Z</time></trkpt><trkpt lat="44.918125" lon="8.3578817"><ele>130.0</ele><time>2026-03-29T16:13:15.01Z</time></trkpt><trkpt lat="44.9179683" lon="8.3578867"><ele>129.0</ele><time>2026-03-29T16:13:16.003Z</time></trkpt><trkpt lat="44.9178083" lon="8.357885"><ele>128.0</ele><time>2026-03-29T16:13:17.004Z</time></trkpt><trkpt lat="44.9176467" lon="8.3578817"><ele>129.0</ele><time>2026-03-29T16:13:18.003Z</time></trkpt><trkpt lat="44.9174833" lon="8.3578833"><ele>130.0</ele><time>2026-03-29T16:13:19.005Z</time></trkpt><trkpt lat="44.9173217" lon="8.3578817"><ele>131.0</ele><time>2026-03-29T16:13:20.005Z</time></trkpt><trkpt lat="44.9171567" lon="8.3578783"><ele>131.0</ele><time>2026-03-29T16:13:21.008Z</time></trkpt><trkpt lat="44.9169917" lon="8.3578767"><ele>131.0</ele><time>2026-03-29T16:13:22.005Z</time></trkpt><trkpt lat="44.9168267" lon="8.3578767"><ele>131.0</ele><time>2026-03-29T16:13:23.003Z</time></trkpt><trkpt lat="44.91666" lon="8.3578783"><ele>130.33333333333331</ele><time>2026-03-29T16:13:24.008Z</time></trkpt><trkpt lat="44.916495" lon="8.357875"><ele>129.66666666666666</ele><time>2026-03-29T16:13:25.007Z</time></trkpt><trkpt lat="44.9163317" lon="8.3578717"><ele>129.0</ele><time>2026-03-29T16:13:26.004Z</time></trkpt><trkpt lat="44.9161683" lon="8.3578717"><ele>129.0</ele><time>2026-03-29T16:13:27.008Z</time></trkpt><trkpt lat="44.916005" lon="8.35789"><ele>129.0</ele><time>2026-03-29T16:13:28.006Z</time></trkpt><trkpt lat="44.9158433" lon="8.3579233"><ele>129.0</ele><time>2026-03-29T16:13:29.004Z</time></trkpt><trkpt lat="44.9156867" lon="8.35796"><ele>129.25</ele><time>2026-03-29T16:13:30.005Z</time></trkpt><trkpt lat="44.91554" lon="8.3579917"><ele>129.5</ele><time>2026-03-29T16:13:31.004Z</time></trkpt><trkpt lat="44.9154067" lon="8.358025"><ele>129.75</ele><time>2026-03-29T16:13:32.008Z</time></trkpt><trkpt lat="44.9152833" lon="8.3580617"><ele>130.0</ele><time>2026-03-29T16:13:33.003Z</time></trkpt><trkpt lat="44.91516" lon="8.3581067"><ele>129.66666666666669</ele><time>2026-03-29T16:13:34.007Z</time></trkpt><trkpt lat="44.9150283" lon="8.3581617"><ele>129.33333333333334</ele><time>2026-03-29T16:13:35.005Z</time></trkpt><trkpt lat="44.91488" lon="8.3582367"><ele>129.0</ele><time>2026-03-29T16:13:36.005Z</time></trkpt><trkpt lat="44.9147283" lon="8.3583317"><ele>129.0</ele><time>2026-03-29T16:13:37.008Z</time></trkpt><trkpt lat="44.9145817" lon="8.3584433"><ele>129.0</ele><time>2026-03-29T16:13:38.009Z</time></trkpt><trkpt lat="44.9144317" lon="8.358565"><ele>129.0</ele><time>2026-03-29T16:13:39.003Z</time></trkpt><trkpt lat="44.9142767" lon="8.3587033"><ele>129.66666666666666</ele><time>2026-03-29T16:13:40.003Z</time></trkpt><trkpt lat="44.914125" lon="8.3588483"><ele>130.33333333333331</ele><time>2026-03-29T16:13:41.005Z</time></trkpt><trkpt lat="44.9139767" lon="8.3590033"><ele>131.0</ele><time>2026-03-29T16:13:42.005Z</time></trkpt><trkpt lat="44.9138333" lon="8.3591583"><ele>131.0</ele><time>2026-03-29T16:13:43.007Z</time></trkpt><trkpt lat="44.91369" lon="8.3593083"><ele>131.0</ele><time>2026-03-29T16:13:44.003Z</time></trkpt><trkpt lat="44.9135367" lon="8.3594383"><ele>131.0</ele><time>2026-03-29T16:13:45.006Z</time></trkpt><trkpt lat="44.9133867" lon="8.3595483"><ele>131.0</ele><time>2026-03-29T16:13:46.007Z</time></trkpt><trkpt lat="44.913235" lon="8.3596317"><ele>131.0</ele><time>2026-03-29T16:13:47.003Z</time></trkpt><trkpt lat="44.91308" lon="8.3597033"><ele>131.0</ele><time>2026-03-29T16:13:48.006Z</time></trkpt><trkpt lat="44.91292" lon="8.35977"><ele>131.0</ele><time>2026-03-29T16:13:49.005Z</time></trkpt><trkpt lat="44.9127633" lon="8.3598517"><ele>131.0</ele><time>2026-03-29T16:13:50.01Z</time></trkpt><trkpt lat="44.912605" lon="8.359955"><ele>131.0</ele><time>2026-03-29T16:13:51.006Z</time></trkpt><trkpt lat="44.912455" lon="8.3600783"><ele>131.33333333333331</ele><time>2026-03-29T16:13:52.001Z</time></trkpt><trkpt lat="44.9123067" lon="8.3602067"><ele>131.66666666666666</ele><time>2026-03-29T16:13:53.003Z</time></trkpt><trkpt lat="44.9121533" lon="8.3603383"><ele>132.0</ele><time>2026-03-29T16:13:54.006Z</time></trkpt><trkpt lat="44.9120017" lon="8.3604733"><ele>131.0</ele><time>2026-03-29T16:13:55.006Z</time></trkpt><trkpt lat="44.9118517" lon="8.36061"><ele>130.0</ele><time>2026-03-29T16:13:56.002Z</time></trkpt><trkpt lat="44.91171" lon="8.36074"><ele>129.0</ele><time>2026-03-29T16:13:57.006Z</time></trkpt><trkpt lat="44.9115767" lon="8.3608617"><ele>128.33333333333334</ele><time>2026-03-29T16:13:58.009Z</time></trkpt><trkpt lat="44.9114467" lon="8.3609767"><ele>127.66666666666667</ele><time>2026-03-29T16:13:59.005Z</time></trkpt><trkpt lat="44.9113167" lon="8.3610817"><ele>127.0</ele><time>2026-03-29T16:14:00.009Z</time></trkpt><trkpt lat="44.911185" lon="8.36119"><ele>127.0</ele><time>2026-03-29T16:14:01.009Z</time></trkpt><trkpt lat="44.91105" lon="8.361315"><ele>127.0</ele><time>2026-03-29T16:14:02.008Z</time></trkpt><trkpt lat="44.91091" lon="8.361445"><ele>127.0</ele><time>2026-03-29T16:14:03.003Z</time></trkpt><trkpt lat="44.9107633" lon="8.36158"><ele>126.66666666666667</ele><time>2026-03-29T16:14:04.004Z</time></trkpt><trkpt lat="44.9106117" lon="8.36172"><ele>126.33333333333334</ele><time>2026-03-29T16:14:05.004Z</time></trkpt><trkpt lat="44.910455" lon="8.3618617"><ele>126.0</ele><time>2026-03-29T16:14:06.004Z</time></trkpt><trkpt lat="44.9103" lon="8.362005"><ele>126.0</ele><time>2026-03-29T16:14:07.001Z</time></trkpt><trkpt lat="44.9101417" lon="8.3621433"><ele>126.0</ele><time>2026-03-29T16:14:08.008Z</time></trkpt><trkpt lat="44.909985" lon="8.3622667"><ele>126.0</ele><time>2026-03-29T16:14:09.007Z</time></trkpt><trkpt lat="44.9098233" lon="8.3623767"><ele>125.66666666666666</ele><time>2026-03-29T16:14:10.005Z</time></trkpt><trkpt lat="44.9096567" lon="8.3624733"><ele>125.33333333333333</ele><time>2026-03-29T16:14:11.004Z</time></trkpt><trkpt lat="44.9094933" lon="8.3625617"><ele>125.0</ele><time>2026-03-29T16:14:12.001Z</time></trkpt><trkpt lat="44.9093267" lon="8.3626517"><ele>127.0</ele><time>2026-03-29T16:14:13.005Z</time></trkpt><trkpt lat="44.9091567" lon="8.3627417"><ele>129.0</ele><time>2026-03-29T16:14:14.004Z</time></trkpt><trkpt lat="44.9089833" lon="8.3628283"><ele>131.0</ele><time>2026-03-29T16:14:15.008Z</time></trkpt><trkpt lat="44.9088133" lon="8.3629167"><ele>131.0</ele><time>2026-03-29T16:14:16.002Z</time></trkpt><trkpt lat="44.90864" lon="8.3630067"><ele>131.0</ele><time>2026-03-29T16:14:17.001Z</time></trkpt><trkpt lat="44.9084667" lon="8.3630933"><ele>131.0</ele><time>2026-03-29T16:14:18.004Z</time></trkpt><trkpt lat="44.9082967" lon="8.3631767"><ele>130.33333333333331</ele><time>2026-03-29T16:14:19.007Z</time></trkpt><trkpt lat="44.9081233" lon="8.3632617"><ele>129.66666666666666</ele><time>2026-03-29T16:14:20.006Z</time></trkpt><trkpt lat="44.9079433" lon="8.36335"><ele>129.0</ele><time>2026-03-29T16:14:21.006Z</time></trkpt><trkpt lat="44.9077733" lon="8.3634617"><ele>129.0</ele><time>2026-03-29T16:14:22.003Z</time></trkpt><trkpt lat="44.907615" lon="8.3635983"><ele>129.0</ele><time>2026-03-29T16:14:23.004Z</time></trkpt><trkpt lat="44.907465" lon="8.3637583"><ele>129.0</ele><time>2026-03-29T16:14:24.006Z</time></trkpt><trkpt lat="44.907335" lon="8.3639367"><ele>129.33333333333334</ele><time>2026-03-29T16:14:25.006Z</time></trkpt><trkpt lat="44.907215" lon="8.36412"><ele>129.66666666666669</ele><time>2026-03-29T16:14:26.005Z</time></trkpt><trkpt lat="44.9071017" lon="8.3643017"><ele>130.0</ele><time>2026-03-29T16:14:27.005Z</time></trkpt><trkpt lat="44.9069917" lon="8.3644733"><ele>130.0</ele><time>2026-03-29T16:14:28.007Z</time></trkpt><trkpt lat="44.9068867" lon="8.364645"><ele>130.0</ele><time>2026-03-29T16:14:29.006Z</time></trkpt><trkpt lat="44.9067783" lon="8.3648133"><ele>130.0</ele><time>2026-03-29T16:14:30.004Z</time></trkpt><trkpt lat="44.906675" lon="8.3649717"><ele>128.75</ele><time>2026-03-29T16:14:31.004Z</time></trkpt><trkpt lat="44.9065767" lon="8.365125"><ele>127.5</ele><time>2026-03-29T16:14:32.004Z</time></trkpt><trkpt lat="44.9064817" lon="8.3652683"><ele>126.25</ele><time>2026-03-29T16:14:33.006Z</time></trkpt><trkpt lat="44.906395" lon="8.3654083"><ele>125.0</ele><time>2026-03-29T16:14:34.005Z</time></trkpt><trkpt lat="44.906315" lon="8.3655433"><ele>125.0</ele><time>2026-03-29T16:14:35.001Z</time></trkpt><trkpt lat="44.9062333" lon="8.3656683"><ele>125.0</ele><time>2026-03-29T16:14:36.006Z</time></trkpt><trkpt lat="44.9061433" lon="8.3657617"><ele>125.0</ele><time>2026-03-29T16:14:37.005Z</time></trkpt><trkpt lat="44.9060483" lon="8.3658417"><ele>125.0</ele><time>2026-03-29T16:14:38.006Z</time></trkpt><trkpt lat="44.9059533" lon="8.3659267"><ele>124.5</ele><time>2026-03-29T16:14:39.008Z</time></trkpt><trkpt lat="44.9058583" lon="8.3660167"><ele>124.0</ele><time>2026-03-29T16:14:40.003Z</time></trkpt><trkpt lat="44.9057583" lon="8.3661033"><ele>123.5</ele><time>2026-03-29T16:14:41.006Z</time></trkpt><trkpt lat="44.9056583" lon="8.3661883"><ele>123.0</ele><time>2026-03-29T16:14:42.006Z</time></trkpt><trkpt lat="44.9055583" lon="8.36627"><ele>123.0</ele><time>2026-03-29T16:14:43.003Z</time></trkpt><trkpt lat="44.9054567" lon="8.36635"><ele>123.0</ele><time>2026-03-29T16:14:44.012Z</time></trkpt><trkpt lat="44.9053533" lon="8.36643"><ele>123.0</ele><time>2026-03-29T16:14:45.005Z</time></trkpt><trkpt lat="44.9052533" lon="8.3665067"><ele>123.0</ele><time>2026-03-29T16:14:46.009Z</time></trkpt><trkpt lat="44.9051567" lon="8.3665833"><ele>122.60000000000001</ele><time>2026-03-29T16:14:47.01Z</time></trkpt><trkpt lat="44.9050617" lon="8.3666533"><ele>122.20000000000002</ele><time>2026-03-29T16:14:48.003Z</time></trkpt><trkpt lat="44.90497" lon="8.3667183"><ele>121.8</ele><time>2026-03-29T16:14:49.002Z</time></trkpt><trkpt lat="44.9048833" lon="8.36678"><ele>121.4</ele><time>2026-03-29T16:14:50.005Z</time></trkpt><trkpt lat="44.904795" lon="8.36684"><ele>121.0</ele><time>2026-03-29T16:14:51.006Z</time></trkpt><trkpt lat="44.9047033" lon="8.3668867"><ele>121.0</ele><time>2026-03-29T16:14:52Z</time></trkpt><trkpt lat="44.9046033" lon="8.366915"><ele>121.0</ele><time>2026-03-29T16:14:53.011Z</time></trkpt><trkpt lat="44.9045" lon="8.366925"><ele>121.0</ele><time>2026-03-29T16:14:54.002Z</time></trkpt><trkpt lat="44.904395" lon="8.366905"><ele>121.0</ele><time>2026-03-29T16:14:55.006Z</time></trkpt><trkpt lat="44.904295" lon="8.366885"><ele>121.0</ele><time>2026-03-29T16:14:56.002Z</time></trkpt><trkpt lat="44.904185" lon="8.366865"><ele>121.0</ele><time>2026-03-29T16:14:57.004Z</time></trkpt><trkpt lat="44.9040633" lon="8.3668617"><ele>121.0</ele><time>2026-03-29T16:14:58.004Z</time></trkpt><trkpt lat="44.903945" lon="8.3668667"><ele>121.0</ele><time>2026-03-29T16:14:59.001Z</time></trkpt><trkpt lat="44.9038367" lon="8.3668817"><ele>121.0</ele><time>2026-03-29T16:15:00.005Z</time></trkpt><trkpt lat="44.9037217" lon="8.3669383"><ele>121.0</ele><time>2026-03-29T16:15:01.007Z</time></trkpt><trkpt lat="44.903595" lon="8.3669533"><ele>121.0</ele><time>2026-03-29T16:15:02.008Z</time></trkpt><trkpt lat="44.90347" lon="8.3669767"><ele>121.0</ele><time>2026-03-29T16:15:03.004Z</time></trkpt><trkpt lat="44.9033383" lon="8.3669983"><ele>121.0</ele><time>2026-03-29T16:15:04.007Z</time></trkpt><trkpt lat="44.9032017" lon="8.3670183"><ele>120.5</ele><time>2026-03-29T16:15:05.004Z</time></trkpt><trkpt lat="44.9030633" lon="8.367045"><ele>120.0</ele><time>2026-03-29T16:15:06.005Z</time></trkpt><trkpt lat="44.9029233" lon="8.3670633"><ele>119.5</ele><time>2026-03-29T16:15:07.006Z</time></trkpt><trkpt lat="44.9027867" lon="8.36708"><ele>119.0</ele><time>2026-03-29T16:15:08.008Z</time></trkpt><trkpt lat="44.9026517" lon="8.3670917"><ele>119.0</ele><time>2026-03-29T16:15:09.008Z</time></trkpt><trkpt lat="44.90252" lon="8.3671033"><ele>119.0</ele><time>2026-03-29T16:15:10.008Z</time></trkpt><trkpt lat="44.9023933" lon="8.367125"><ele>119.0</ele><time>2026-03-29T16:15:11.004Z</time></trkpt><trkpt lat="44.9022583" lon="8.36713"><ele>119.0</ele><time>2026-03-29T16:15:12.004Z</time></trkpt><trkpt lat="44.90212" lon="8.3671383"><ele>119.0</ele><time>2026-03-29T16:15:13.007Z</time></trkpt><trkpt lat="44.90198" lon="8.367145"><ele>119.0</ele><time>2026-03-29T16:15:14.004Z</time></trkpt><trkpt lat="44.9018383" lon="8.3671483"><ele>119.0</ele><time>2026-03-29T16:15:15.003Z</time></trkpt><trkpt lat="44.9017017" lon="8.3671533"><ele>119.0</ele><time>2026-03-29T16:15:16Z</time></trkpt><trkpt lat="44.9015683" lon="8.3671617"><ele>119.66666666666666</ele><time>2026-03-29T16:15:17.004Z</time></trkpt><trkpt lat="44.90145" lon="8.36717"><ele>120.33333333333333</ele><time>2026-03-29T16:15:18.003Z</time></trkpt><trkpt lat="44.9013567" lon="8.3671817"><ele>121.0</ele><time>2026-03-29T16:15:19.005Z</time></trkpt><trkpt lat="44.901285" lon="8.3671833"><ele>121.66666666666666</ele><time>2026-03-29T16:15:20.005Z</time></trkpt><trkpt lat="44.9011933" lon="8.36715"><ele>122.33333333333333</ele><time>2026-03-29T16:15:22.002Z</time></trkpt><trkpt lat="44.9011717" lon="8.3670583"><ele>123.0</ele><time>2026-03-29T16:15:24.005Z</time></trkpt><trkpt lat="44.9011983" lon="8.3669467"><ele>123.0</ele><time>2026-03-29T16:15:25.007Z</time></trkpt><trkpt lat="44.9012267" lon="8.3668283"><ele>123.0</ele><time>2026-03-29T16:15:26.01Z</time></trkpt><trkpt lat="44.901275" lon="8.3666833"><ele>123.0</ele><time>2026-03-29T16:15:27.008Z</time></trkpt><trkpt lat="44.9013383" lon="8.3665133"><ele>123.0</ele><time>2026-03-29T16:15:28.003Z</time></trkpt><trkpt lat="44.901405" lon="8.3663467"><ele>123.0</ele><time>2026-03-29T16:15:29.007Z</time></trkpt><trkpt lat="44.90148" lon="8.3661767"><ele>123.0</ele><time>2026-03-29T16:15:30.006Z</time></trkpt><trkpt lat="44.9015583" lon="8.3659983"><ele>123.0</ele><time>2026-03-29T16:15:31.006Z</time></trkpt><trkpt lat="44.9016433" lon="8.3658117"><ele>123.0</ele><time>2026-03-29T16:15:32.007Z</time></trkpt><trkpt lat="44.9017367" lon="8.36562"><ele>122.66666666666666</ele><time>2026-03-29T16:15:33.002Z</time></trkpt><trkpt lat="44.90182" lon="8.3654317"><ele>122.33333333333333</ele><time>2026-03-29T16:15:34.007Z</time></trkpt><trkpt lat="44.901905" lon="8.365245"><ele>122.0</ele><time>2026-03-29T16:15:35.004Z</time></trkpt><trkpt lat="44.90199" lon="8.365055"><ele>122.0</ele><time>2026-03-29T16:15:36.004Z</time></trkpt><trkpt lat="44.902075" lon="8.3648667"><ele>122.0</ele><time>2026-03-29T16:15:37.005Z</time></trkpt><trkpt lat="44.90216" lon="8.36468"><ele>122.0</ele><time>2026-03-29T16:15:38.006Z</time></trkpt><trkpt lat="44.9022433" lon="8.3644967"><ele>122.5</ele><time>2026-03-29T16:15:39.004Z</time></trkpt><trkpt lat="44.90232" lon="8.3643183"><ele>123.0</ele><time>2026-03-29T16:15:40.001Z</time></trkpt><trkpt lat="44.9023983" lon="8.364145"><ele>123.5</ele><time>2026-03-29T16:15:41.003Z</time></trkpt><trkpt lat="44.9024633" lon="8.36397"><ele>124.0</ele><time>2026-03-29T16:15:42.008Z</time></trkpt><trkpt lat="44.9025167" lon="8.3637933"><ele>125.0</ele><time>2026-03-29T16:15:43.003Z</time></trkpt><trkpt lat="44.9025517" lon="8.3636133"><ele>126.0</ele><time>2026-03-29T16:15:44.002Z</time></trkpt><trkpt lat="44.9025617" lon="8.3634283"><ele>127.0</ele><time>2026-03-29T16:15:45.002Z</time></trkpt><trkpt lat="44.9025517" lon="8.3632433"><ele>128.0</ele><time>2026-03-29T16:15:46.007Z</time></trkpt><trkpt lat="44.9025267" lon="8.36307"><ele>128.25</ele><time>2026-03-29T16:15:47.008Z</time></trkpt><trkpt lat="44.90249" lon="8.3628967"><ele>128.5</ele><time>2026-03-29T16:15:48.005Z</time></trkpt><trkpt lat="44.90245" lon="8.3627367"><ele>128.75</ele><time>2026-03-29T16:15:49.005Z</time></trkpt><trkpt lat="44.9024167" lon="8.36259"><ele>129.0</ele><time>2026-03-29T16:15:50.008Z</time></trkpt><trkpt lat="44.9024" lon="8.3624467"><ele>129.0</ele><time>2026-03-29T16:15:51.006Z</time></trkpt><trkpt lat="44.9024033" lon="8.3623133"><ele>129.0</ele><time>2026-03-29T16:15:52.008Z</time></trkpt><trkpt lat="44.902425" lon="8.3621767"><ele>129.0</ele><time>2026-03-29T16:15:53.007Z</time></trkpt><trkpt lat="44.9024733" lon="8.362035"><ele>129.0</ele><time>2026-03-29T16:15:54.008Z</time></trkpt><trkpt lat="44.9025333" lon="8.361875"><ele>129.0</ele><time>2026-03-29T16:15:55.011Z</time></trkpt><trkpt lat="44.9026017" lon="8.3616983"><ele>128.66666666666666</ele><time>2026-03-29T16:15:56.007Z</time></trkpt><trkpt lat="44.902675" lon="8.3615083"><ele>128.33333333333331</ele><time>2026-03-29T16:15:57.004Z</time></trkpt><trkpt lat="44.902735" lon="8.3612983"><ele>128.0</ele><time>2026-03-29T16:15:58.012Z</time></trkpt><trkpt lat="44.9028017" lon="8.3611033"><ele>127.33333333333333</ele><time>2026-03-29T16:15:59.005Z</time></trkpt><trkpt lat="44.9028433" lon="8.360895"><ele>126.66666666666666</ele><time>2026-03-29T16:16:00.006Z</time></trkpt><trkpt lat="44.9028717" lon="8.36068"><ele>126.0</ele><time>2026-03-29T16:16:01.006Z</time></trkpt><trkpt lat="44.902895" lon="8.3604667"><ele>126.0</ele><time>2026-03-29T16:16:02Z</time></trkpt><trkpt lat="44.9029167" lon="8.3602633"><ele>126.0</ele><time>2026-03-29T16:16:03.007Z</time></trkpt><trkpt lat="44.9029283" lon="8.360065"><ele>126.0</ele><time>2026-03-29T16:16:04.002Z</time></trkpt><trkpt lat="44.90293" lon="8.35986"><ele>126.0</ele><time>2026-03-29T16:16:05.002Z</time></trkpt><trkpt lat="44.9029233" lon="8.35964"><ele>126.25</ele><time>2026-03-29T16:16:06.004Z</time></trkpt><trkpt lat="44.9029017" lon="8.3594317"><ele>126.5</ele><time>2026-03-29T16:16:07.002Z</time></trkpt><trkpt lat="44.9028767" lon="8.3592233"><ele>126.75</ele><time>2026-03-29T16:16:08.006Z</time></trkpt><trkpt lat="44.90285" lon="8.35903"><ele>127.0</ele><time>2026-03-29T16:16:09.003Z</time></trkpt><trkpt lat="44.902825" lon="8.3588367"><ele>128.0</ele><time>2026-03-29T16:16:10.006Z</time></trkpt><trkpt lat="44.9027983" lon="8.35866"><ele>129.0</ele><time>2026-03-29T16:16:11.004Z</time></trkpt><trkpt lat="44.902775" lon="8.3584967"><ele>130.0</ele><time>2026-03-29T16:16:12.004Z</time></trkpt><trkpt lat="44.9027533" lon="8.3583417"><ele>131.0</ele><time>2026-03-29T16:16:13.004Z</time></trkpt><trkpt lat="44.902735" lon="8.3582"><ele>131.0</ele><time>2026-03-29T16:16:14.004Z</time></trkpt><trkpt lat="44.9027167" lon="8.358065"><ele>131.0</ele><time>2026-03-29T16:16:15.007Z</time></trkpt><trkpt lat="44.9027033" lon="8.35793"><ele>131.0</ele><time>2026-03-29T16:16:16.007Z</time></trkpt><trkpt lat="44.9026917" lon="8.3577967"><ele>131.0</ele><time>2026-03-29T16:16:17.005Z</time></trkpt><trkpt lat="44.9026867" lon="8.3576667"><ele>131.0</ele><time>2026-03-29T16:16:18.004Z</time></trkpt><trkpt lat="44.90268" lon="8.357545"><ele>131.0</ele><time>2026-03-29T16:16:19.006Z</time></trkpt><trkpt lat="44.9026867" lon="8.357425"><ele>131.0</ele><time>2026-03-29T16:16:20.006Z</time></trkpt><trkpt lat="44.9026883" lon="8.3573117"><ele>131.0</ele><time>2026-03-29T16:16:21.008Z</time></trkpt><trkpt lat="44.9026883" lon="8.3572017"><ele>131.0</ele><time>2026-03-29T16:16:22.006Z</time></trkpt><trkpt lat="44.902685" lon="8.357105"><ele>131.0</ele><time>2026-03-29T16:16:23.005Z</time></trkpt><trkpt lat="44.9027033" lon="8.3569817"><ele>131.0</ele><time>2026-03-29T16:16:25.008Z</time></trkpt><trkpt lat="44.9027033" lon="8.3568717"><ele>131.0</ele><time>2026-03-29T16:16:27.009Z</time></trkpt><trkpt lat="44.902605" lon="8.3568067"><ele>131.0</ele><time>2026-03-29T16:16:30.005Z</time></trkpt><trkpt lat="44.9025017" lon="8.3567683"><ele>131.0</ele><time>2026-03-29T16:16:32.008Z</time></trkpt><trkpt lat="44.9024233" lon="8.3567533"><ele>131.0</ele><time>2026-03-29T16:16:33.003Z</time></trkpt><trkpt lat="44.902335" lon="8.3567833"><ele>131.0</ele><time>2026-03-29T16:16:34.007Z</time></trkpt><trkpt lat="44.90224" lon="8.3567967"><ele>131.2</ele><time>2026-03-29T16:16:35.009Z</time></trkpt><trkpt lat="44.902135" lon="8.3568133"><ele>131.39999999999998</ele><time>2026-03-29T16:16:36.006Z</time></trkpt><trkpt lat="44.9020383" lon="8.3568483"><ele>131.6</ele><time>2026-03-29T16:16:37.005Z</time></trkpt><trkpt lat="44.90194" lon="8.35688"><ele>131.79999999999998</ele><time>2026-03-29T16:16:38.006Z</time></trkpt><trkpt lat="44.9018383" lon="8.3569167"><ele>132.0</ele><time>2026-03-29T16:16:39.01Z</time></trkpt><trkpt lat="44.9017283" lon="8.3569483"><ele>131.16666666666666</ele><time>2026-03-29T16:16:40.01Z</time></trkpt><trkpt lat="44.901625" lon="8.35697"><ele>130.33333333333334</ele><time>2026-03-29T16:16:41.008Z</time></trkpt><trkpt lat="44.9015417" lon="8.3570117"><ele>129.5</ele><time>2026-03-29T16:16:42.003Z</time></trkpt><trkpt lat="44.9014633" lon="8.3570417"><ele>128.66666666666669</ele><time>2026-03-29T16:16:43.003Z</time></trkpt><trkpt lat="44.9013917" lon="8.3570683"><ele>127.83333333333334</ele><time>2026-03-29T16:16:44.004Z</time></trkpt><trkpt lat="44.9013083" lon="8.3571067"><ele>127.0</ele><time>2026-03-29T16:16:45.006Z</time></trkpt><trkpt lat="44.9012167" lon="8.3571533"><ele>126.8</ele><time>2026-03-29T16:16:46.006Z</time></trkpt><trkpt lat="44.9011183" lon="8.3572117"><ele>126.6</ele><time>2026-03-29T16:16:47.003Z</time></trkpt><trkpt lat="44.9010183" lon="8.3572633"><ele>126.39999999999999</ele><time>2026-03-29T16:16:48.004Z</time></trkpt><trkpt lat="44.900915" lon="8.3573067"><ele>126.19999999999999</ele><time>2026-03-29T16:16:49.008Z</time></trkpt><trkpt lat="44.9008117" lon="8.3573383"><ele>126.0</ele><time>2026-03-29T16:16:50.007Z</time></trkpt><trkpt lat="44.9007033" lon="8.3573567"><ele>126.75</ele><time>2026-03-29T16:16:51.003Z</time></trkpt><trkpt lat="44.9005917" lon="8.35736"><ele>127.5</ele><time>2026-03-29T16:16:52.004Z</time></trkpt><trkpt lat="44.9004717" lon="8.35736"><ele>128.25</ele><time>2026-03-29T16:16:53.004Z</time></trkpt><trkpt lat="44.9003483" lon="8.3573533"><ele>129.0</ele><time>2026-03-29T16:16:54.015Z</time></trkpt><trkpt lat="44.9002283" lon="8.35735"><ele>129.0</ele><time>2026-03-29T16:16:55.004Z</time></trkpt><trkpt lat="44.90011" lon="8.3573683"><ele>129.0</ele><time>2026-03-29T16:16:56.004Z</time></trkpt><trkpt lat="44.900005" lon="8.357425"><ele>129.0</ele><time>2026-03-29T16:16:57.006Z</time></trkpt><trkpt lat="44.899915" lon="8.357495"><ele>129.0</ele><time>2026-03-29T16:16:58.005Z</time></trkpt><trkpt lat="44.8998383" lon="8.3575467"><ele>129.0</ele><time>2026-03-29T16:16:59.006Z</time></trkpt><trkpt lat="44.8997667" lon="8.3575667"><ele>131.8</ele><time>2026-03-29T16:17:00.008Z</time></trkpt><trkpt lat="44.8996933" lon="8.3575917"><ele>134.60000000000002</ele><time>2026-03-29T16:17:01.007Z</time></trkpt><trkpt lat="44.89961" lon="8.35756"><ele>137.4</ele><time>2026-03-29T16:17:02.009Z</time></trkpt><trkpt lat="44.8995467" lon="8.35748"><ele>140.20000000000002</ele><time>2026-03-29T16:17:03.007Z</time></trkpt><trkpt lat="44.8994783" lon="8.3573817"><ele>143.0</ele><time>2026-03-29T16:17:04.002Z</time></trkpt><trkpt lat="44.8994267" lon="8.3572483"><ele>144.25</ele><time>2026-03-29T16:17:05.006Z</time></trkpt><trkpt lat="44.899355" lon="8.35715"><ele>145.5</ele><time>2026-03-29T16:17:06.004Z</time></trkpt><trkpt lat="44.8992717" lon="8.3570083"><ele>146.75</ele><time>2026-03-29T16:17:07.005Z</time></trkpt><trkpt lat="44.8991817" lon="8.3568767"><ele>148.0</ele><time>2026-03-29T16:17:08.003Z</time></trkpt><trkpt lat="44.8990933" lon="8.3567183"><ele>148.0</ele><time>2026-03-29T16:17:09.005Z</time></trkpt><trkpt lat="44.8989933" lon="8.356605"><ele>148.0</ele><time>2026-03-29T16:17:10.006Z</time></trkpt><trkpt lat="44.898895" lon="8.35649"><ele>148.0</ele><time>2026-03-29T16:17:11.003Z</time></trkpt><trkpt lat="44.89879" lon="8.3563983"><ele>148.0</ele><time>2026-03-29T16:17:12.004Z</time></trkpt><trkpt lat="44.898685" lon="8.3563067"><ele>150.25</ele><time>2026-03-29T16:17:13.005Z</time></trkpt><trkpt lat="44.8985783" lon="8.3562283"><ele>152.5</ele><time>2026-03-29T16:17:14.003Z</time></trkpt><trkpt lat="44.898465" lon="8.35615"><ele>154.75</ele><time>2026-03-29T16:17:15.005Z</time></trkpt><trkpt lat="44.898345" lon="8.356085"><ele>157.0</ele><time>2026-03-29T16:17:16.004Z</time></trkpt><trkpt lat="44.898225" lon="8.3560267"><ele>157.75</ele><time>2026-03-29T16:17:17.006Z</time></trkpt><trkpt lat="44.8981067" lon="8.3559633"><ele>158.5</ele><time>2026-03-29T16:17:18.003Z</time></trkpt><trkpt lat="44.897995" lon="8.3558933"><ele>159.25</ele><time>2026-03-29T16:17:19.006Z</time></trkpt><trkpt lat="44.8978867" lon="8.3558233"><ele>160.0</ele><time>2026-03-29T16:17:20.002Z</time></trkpt><trkpt lat="44.897775" lon="8.3557667"><ele>160.0</ele><time>2026-03-29T16:17:21.007Z</time></trkpt><trkpt lat="44.8976533" lon="8.35573"><ele>160.0</ele><time>2026-03-29T16:17:22.005Z</time></trkpt><trkpt lat="44.89753" lon="8.3557133"><ele>160.0</ele><time>2026-03-29T16:17:23.011Z</time></trkpt><trkpt lat="44.8974383" lon="8.3557"><ele>160.0</ele><time>2026-03-29T16:17:24.008Z</time></trkpt><trkpt lat="44.897375" lon="8.3556833"><ele>160.0</ele><time>2026-03-29T16:17:25.005Z</time></trkpt><trkpt lat="44.8972967" lon="8.3556117"><ele>161.4</ele><time>2026-03-29T16:17:27.009Z</time></trkpt><trkpt lat="44.8972317" lon="8.3554783"><ele>162.8</ele><time>2026-03-29T16:17:29.003Z</time></trkpt><trkpt lat="44.8971967" lon="8.355375"><ele>164.2</ele><time>2026-03-29T16:17:30.004Z</time></trkpt><trkpt lat="44.89717" lon="8.3552417"><ele>165.6</ele><time>2026-03-29T16:17:31.005Z</time></trkpt><trkpt lat="44.897155" lon="8.3551017"><ele>167.0</ele><time>2026-03-29T16:17:32.003Z</time></trkpt><trkpt lat="44.89713" lon="8.35497"><ele>167.0</ele><time>2026-03-29T16:17:33.006Z</time></trkpt><trkpt lat="44.8971" lon="8.3548483"><ele>167.0</ele><time>2026-03-29T16:17:34.006Z</time></trkpt><trkpt lat="44.89707" lon="8.3547317"><ele>167.0</ele><time>2026-03-29T16:17:35.003Z</time></trkpt><trkpt lat="44.8970283" lon="8.3546083"><ele>167.0</ele><time>2026-03-29T16:17:36.008Z</time></trkpt><trkpt lat="44.8969783" lon="8.3544833"><ele>167.0</ele><time>2026-03-29T16:17:37.004Z</time></trkpt><trkpt lat="44.89691" lon="8.3543467"><ele>166.75</ele><time>2026-03-29T16:17:38.005Z</time></trkpt><trkpt lat="44.896835" lon="8.3541933"><ele>166.5</ele><time>2026-03-29T16:17:39.002Z</time></trkpt><trkpt lat="44.8967583" lon="8.3540317"><ele>166.25</ele><time>2026-03-29T16:17:40.004Z</time></trkpt><trkpt lat="44.8966817" lon="8.3538717"><ele>166.0</ele><time>2026-03-29T16:17:41.004Z</time></trkpt><trkpt lat="44.8966" lon="8.3537067"><ele>166.0</ele><time>2026-03-29T16:17:42.003Z</time></trkpt><trkpt lat="44.8965167" lon="8.3535367"><ele>166.0</ele><time>2026-03-29T16:17:43.008Z</time></trkpt><trkpt lat="44.8964317" lon="8.35336"><ele>166.0</ele><time>2026-03-29T16:17:44.005Z</time></trkpt><trkpt lat="44.8963433" lon="8.353185"><ele>166.33333333333334</ele><time>2026-03-29T16:17:45.005Z</time></trkpt><trkpt lat="44.8962483" lon="8.3530067"><ele>166.66666666666666</ele><time>2026-03-29T16:17:46.005Z</time></trkpt><trkpt lat="44.8961667" lon="8.3528317"><ele>167.0</ele><time>2026-03-29T16:17:47.008Z</time></trkpt><trkpt lat="44.8960983" lon="8.35265"><ele>167.0</ele><time>2026-03-29T16:17:48.008Z</time></trkpt><trkpt lat="44.8960583" lon="8.3524733"><ele>167.0</ele><time>2026-03-29T16:17:49.003Z</time></trkpt><trkpt lat="44.8960433" lon="8.3522867"><ele>167.0</ele><time>2026-03-29T16:17:50.005Z</time></trkpt><trkpt lat="44.8960233" lon="8.35209"><ele>167.0</ele><time>2026-03-29T16:17:51.005Z</time></trkpt><trkpt lat="44.89599" lon="8.3518883"><ele>166.33333333333331</ele><time>2026-03-29T16:17:52.006Z</time></trkpt><trkpt lat="44.8959333" lon="8.3516917"><ele>165.66666666666666</ele><time>2026-03-29T16:17:53.003Z</time></trkpt><trkpt lat="44.8958483" lon="8.3515017"><ele>165.0</ele><time>2026-03-29T16:17:54.006Z</time></trkpt><trkpt lat="44.8957367" lon="8.3513333"><ele>163.0</ele><time>2026-03-29T16:17:55.005Z</time></trkpt><trkpt lat="44.895615" lon="8.35118"><ele>161.0</ele><time>2026-03-29T16:17:56.006Z</time></trkpt><trkpt lat="44.8954933" lon="8.351025"><ele>159.0</ele><time>2026-03-29T16:17:57.002Z</time></trkpt><trkpt lat="44.89538" lon="8.35087"><ele>159.0</ele><time>2026-03-29T16:17:58.005Z</time></trkpt><trkpt lat="44.89527" lon="8.3507083"><ele>159.0</ele><time>2026-03-29T16:17:59.005Z</time></trkpt><trkpt lat="44.89517" lon="8.3505417"><ele>159.0</ele><time>2026-03-29T16:18:00.006Z</time></trkpt><trkpt lat="44.8950633" lon="8.350375"><ele>158.75</ele><time>2026-03-29T16:18:01.006Z</time></trkpt><trkpt lat="44.8949617" lon="8.3502033"><ele>158.5</ele><time>2026-03-29T16:18:02.005Z</time></trkpt><trkpt lat="44.89487" lon="8.3500383"><ele>158.25</ele><time>2026-03-29T16:18:03.008Z</time></trkpt><trkpt lat="44.89479" lon="8.349885"><ele>158.0</ele><time>2026-03-29T16:18:04.004Z</time></trkpt><trkpt lat="44.89473" lon="8.3497517"><ele>158.0</ele><time>2026-03-29T16:18:05.003Z</time></trkpt><trkpt lat="44.8946717" lon="8.34963"><ele>158.0</ele><time>2026-03-29T16:18:06.008Z</time></trkpt><trkpt lat="44.89463" lon="8.3495183"><ele>158.0</ele><time>2026-03-29T16:18:07.008Z</time></trkpt><trkpt lat="44.8945833" lon="8.3494133"><ele>158.0</ele><time>2026-03-29T16:18:08.005Z</time></trkpt><trkpt lat="44.8945383" lon="8.3493117"><ele>158.0</ele><time>2026-03-29T16:18:09.014Z</time></trkpt><trkpt lat="44.8944967" lon="8.3491983"><ele>158.0</ele><time>2026-03-29T16:18:10.001Z</time></trkpt><trkpt lat="44.8944467" lon="8.3490767"><ele>158.0</ele><time>2026-03-29T16:18:11.004Z</time></trkpt><trkpt lat="44.8943967" lon="8.34894"><ele>158.0</ele><time>2026-03-29T16:18:12.003Z</time></trkpt><trkpt lat="44.8943367" lon="8.348785"><ele>158.0</ele><time>2026-03-29T16:18:13.008Z</time></trkpt><trkpt lat="44.8942683" lon="8.348625"><ele>160.5</ele><time>2026-03-29T16:18:14.005Z</time></trkpt><trkpt lat="44.8941917" lon="8.3484567"><ele>163.0</ele><time>2026-03-29T16:18:15.002Z</time></trkpt><trkpt lat="44.8941083" lon="8.3482967"><ele>165.5</ele><time>2026-03-29T16:18:16.006Z</time></trkpt><trkpt lat="44.8940183" lon="8.3481483"><ele>168.0</ele><time>2026-03-29T16:18:17.005Z</time></trkpt><trkpt lat="44.8939317" lon="8.34801"><ele>168.5</ele><time>2026-03-29T16:18:18.005Z</time></trkpt><trkpt lat="44.8938467" lon="8.3478817"><ele>169.0</ele><time>2026-03-29T16:18:19.004Z</time></trkpt><trkpt lat="44.8937667" lon="8.3477633"><ele>169.5</ele><time>2026-03-29T16:18:20.004Z</time></trkpt><trkpt lat="44.8936867" lon="8.3476583"><ele>170.0</ele><time>2026-03-29T16:18:21.002Z</time></trkpt><trkpt lat="44.8936117" lon="8.3475617"><ele>170.0</ele><time>2026-03-29T16:18:22.003Z</time></trkpt><trkpt lat="44.89354" lon="8.34747"><ele>170.0</ele><time>2026-03-29T16:18:23.004Z</time></trkpt><trkpt lat="44.8934717" lon="8.3473783"><ele>170.0</ele><time>2026-03-29T16:18:24.003Z</time></trkpt><trkpt lat="44.8933967" lon="8.34729"><ele>170.0</ele><time>2026-03-29T16:18:25.005Z</time></trkpt><trkpt lat="44.8933383" lon="8.3472033"><ele>170.0</ele><time>2026-03-29T16:18:26.006Z</time></trkpt><trkpt lat="44.8932867" lon="8.3471083"><ele>170.66666666666666</ele><time>2026-03-29T16:18:27.003Z</time></trkpt><trkpt lat="44.89325" lon="8.3470133"><ele>171.33333333333331</ele><time>2026-03-29T16:18:28.005Z</time></trkpt><trkpt lat="44.8932167" lon="8.3469217"><ele>172.0</ele><time>2026-03-29T16:18:29.002Z</time></trkpt><trkpt lat="44.8931683" lon="8.3468383"><ele>172.66666666666666</ele><time>2026-03-29T16:18:30.005Z</time></trkpt><trkpt lat="44.89313" lon="8.3467333"><ele>173.33333333333334</ele><time>2026-03-29T16:18:31.005Z</time></trkpt><trkpt lat="44.8930933" lon="8.34661"><ele>174.0</ele><time>2026-03-29T16:18:32.007Z</time></trkpt><trkpt lat="44.8930617" lon="8.346475"><ele>174.25</ele><time>2026-03-29T16:18:33.005Z</time></trkpt><trkpt lat="44.8930367" lon="8.34633"><ele>174.5</ele><time>2026-03-29T16:18:34.008Z</time></trkpt><trkpt lat="44.8930083" lon="8.3461783"><ele>174.75</ele><time>2026-03-29T16:18:35.007Z</time></trkpt><trkpt lat="44.89298" lon="8.3460183"><ele>175.0</ele><time>2026-03-29T16:18:36.004Z</time></trkpt><trkpt lat="44.89295" lon="8.3458583"><ele>175.0</ele><time>2026-03-29T16:18:37.004Z</time></trkpt><trkpt lat="44.8929183" lon="8.3456983"><ele>175.0</ele><time>2026-03-29T16:18:38.003Z</time></trkpt><trkpt lat="44.8928833" lon="8.345545"><ele>175.0</ele><time>2026-03-29T16:18:39.002Z</time></trkpt><trkpt lat="44.8928567" lon="8.3453867"><ele>175.0</ele><time>2026-03-29T16:18:40.006Z</time></trkpt><trkpt lat="44.8928283" lon="8.345235"><ele>175.0</ele><time>2026-03-29T16:18:41.009Z</time></trkpt><trkpt lat="44.8928033" lon="8.3450867"><ele>175.0</ele><time>2026-03-29T16:18:42.005Z</time></trkpt><trkpt lat="44.89279" lon="8.3449483"><ele>175.0</ele><time>2026-03-29T16:18:43.007Z</time></trkpt><trkpt lat="44.8927767" lon="8.3448367"><ele>175.0</ele><time>2026-03-29T16:18:44.007Z</time></trkpt><trkpt lat="44.8927533" lon="8.3447433"><ele>175.0</ele><time>2026-03-29T16:18:45.006Z</time></trkpt><trkpt lat="44.892745" lon="8.3445833"><ele>175.0</ele><time>2026-03-29T16:18:47.005Z</time></trkpt><trkpt lat="44.89274" lon="8.344475"><ele>175.0</ele><time>2026-03-29T16:18:48.008Z</time></trkpt><trkpt lat="44.892725" lon="8.3443417"><ele>175.0</ele><time>2026-03-29T16:18:49.007Z</time></trkpt><trkpt lat="44.8927" lon="8.3441867"><ele>175.0</ele><time>2026-03-29T16:18:50.008Z</time></trkpt><trkpt lat="44.8926717" lon="8.34402"><ele>175.0</ele><time>2026-03-29T16:18:51.004Z</time></trkpt><trkpt lat="44.8926417" lon="8.34385"><ele>175.0</ele><time>2026-03-29T16:18:52.003Z</time></trkpt><trkpt lat="44.8926117" lon="8.3436817"><ele>175.0</ele><time>2026-03-29T16:18:53.005Z</time></trkpt><trkpt lat="44.8925783" lon="8.3435117"><ele>175.0</ele><time>2026-03-29T16:18:54.01Z</time></trkpt><trkpt lat="44.8925567" lon="8.3433483"><ele>175.0</ele><time>2026-03-29T16:18:55.007Z</time></trkpt><trkpt lat="44.8925367" lon="8.34319"><ele>175.8</ele><time>2026-03-29T16:18:56.009Z</time></trkpt><trkpt lat="44.892515" lon="8.3430383"><ele>176.6</ele><time>2026-03-29T16:18:57.006Z</time></trkpt><trkpt lat="44.8924967" lon="8.34289"><ele>177.39999999999998</ele><time>2026-03-29T16:18:58.008Z</time></trkpt><trkpt lat="44.892475" lon="8.3427483"><ele>178.2</ele><time>2026-03-29T16:18:59.006Z</time></trkpt><trkpt lat="44.8924567" lon="8.342595"><ele>179.0</ele><time>2026-03-29T16:19:00.007Z</time></trkpt><trkpt lat="44.892435" lon="8.3424483"><ele>179.0</ele><time>2026-03-29T16:19:01.007Z</time></trkpt><trkpt lat="44.892405" lon="8.3423067"><ele>179.0</ele><time>2026-03-29T16:19:02.005Z</time></trkpt><trkpt lat="44.892375" lon="8.3421617"><ele>179.0</ele><time>2026-03-29T16:19:03.006Z</time></trkpt><trkpt lat="44.8923533" lon="8.3420067"><ele>179.0</ele><time>2026-03-29T16:19:04.004Z</time></trkpt><trkpt lat="44.8923317" lon="8.3418483"><ele>179.0</ele><time>2026-03-29T16:19:05.007Z</time></trkpt><trkpt lat="44.892315" lon="8.3416833"><ele>179.25</ele><time>2026-03-29T16:19:06.007Z</time></trkpt><trkpt lat="44.8923267" lon="8.3415"><ele>179.5</ele><time>2026-03-29T16:19:07.011Z</time></trkpt><trkpt lat="44.8923233" lon="8.3413067"><ele>179.75</ele><time>2026-03-29T16:19:08.006Z</time></trkpt><trkpt lat="44.8923117" lon="8.3411133"><ele>180.0</ele><time>2026-03-29T16:19:09.001Z</time></trkpt><trkpt lat="44.892305" lon="8.3409317"><ele>179.75</ele><time>2026-03-29T16:19:10.003Z</time></trkpt><trkpt lat="44.89229" lon="8.34075"><ele>179.5</ele><time>2026-03-29T16:19:11.003Z</time></trkpt><trkpt lat="44.892285" lon="8.3405767"><ele>179.25</ele><time>2026-03-29T16:19:12.007Z</time></trkpt><trkpt lat="44.8922917" lon="8.3404117"><ele>179.0</ele><time>2026-03-29T16:19:13.001Z</time></trkpt><trkpt lat="44.892315" lon="8.3402383"><ele>179.0</ele><time>2026-03-29T16:19:14.004Z</time></trkpt><trkpt lat="44.89235" lon="8.340065"><ele>179.0</ele><time>2026-03-29T16:19:15.005Z</time></trkpt><trkpt lat="44.8923883" lon="8.3398717"><ele>179.0</ele><time>2026-03-29T16:19:16.008Z</time></trkpt><trkpt lat="44.8924267" lon="8.339675"><ele>179.0</ele><time>2026-03-29T16:19:17.003Z</time></trkpt><trkpt lat="44.8924733" lon="8.3394733"><ele>179.0</ele><time>2026-03-29T16:19:18.003Z</time></trkpt><trkpt lat="44.89254" lon="8.3392817"><ele>179.0</ele><time>2026-03-29T16:19:19.009Z</time></trkpt><trkpt lat="44.892605" lon="8.3390917"><ele>179.0</ele><time>2026-03-29T16:19:20.003Z</time></trkpt><trkpt lat="44.8926817" lon="8.3389133"><ele>179.0</ele><time>2026-03-29T16:19:21.006Z</time></trkpt><trkpt lat="44.89277" lon="8.3387517"><ele>179.0</ele><time>2026-03-29T16:19:22.005Z</time></trkpt><trkpt lat="44.892845" lon="8.338605"><ele>179.0</ele><time>2026-03-29T16:19:23.003Z</time></trkpt><trkpt lat="44.8928983" lon="8.3384667"><ele>179.0</ele><time>2026-03-29T16:19:24.01Z</time></trkpt><trkpt lat="44.8929183" lon="8.33833"><ele>179.0</ele><time>2026-03-29T16:19:25.003Z</time></trkpt><trkpt lat="44.89291" lon="8.3381717"><ele>179.25</ele><time>2026-03-29T16:19:26.002Z</time></trkpt><trkpt lat="44.89288" lon="8.33801"><ele>179.5</ele><time>2026-03-29T16:19:27.003Z</time></trkpt><trkpt lat="44.8928433" lon="8.337835"><ele>179.75</ele><time>2026-03-29T16:19:28.004Z</time></trkpt><trkpt lat="44.8928083" lon="8.3376583"><ele>180.0</ele><time>2026-03-29T16:19:29.004Z</time></trkpt><trkpt lat="44.8927733" lon="8.337485"><ele>180.0</ele><time>2026-03-29T16:19:30.002Z</time></trkpt><trkpt lat="44.8927433" lon="8.33732"><ele>180.0</ele><time>2026-03-29T16:19:31.005Z</time></trkpt><trkpt lat="44.8927133" lon="8.33716"><ele>180.0</ele><time>2026-03-29T16:19:32.005Z</time></trkpt><trkpt lat="44.8926883" lon="8.3370233"><ele>180.0</ele><time>2026-03-29T16:19:33.01Z</time></trkpt><trkpt lat="44.892675" lon="8.336915"><ele>180.0</ele><time>2026-03-29T16:19:34.008Z</time></trkpt><trkpt lat="44.8926633" lon="8.3367733"><ele>179.8</ele><time>2026-03-29T16:19:36.006Z</time></trkpt><trkpt lat="44.8927483" lon="8.3367233"><ele>179.6</ele><time>2026-03-29T16:19:38.008Z</time></trkpt><trkpt lat="44.8928317" lon="8.3367417"><ele>179.39999999999998</ele><time>2026-03-29T16:19:39.008Z</time></trkpt><trkpt lat="44.8929233" lon="8.33676"><ele>179.2</ele><time>2026-03-29T16:19:40.009Z</time></trkpt><trkpt lat="44.8930417" lon="8.3367883"><ele>179.0</ele><time>2026-03-29T16:19:41.007Z</time></trkpt><trkpt lat="44.8931917" lon="8.3367867"><ele>179.0</ele><time>2026-03-29T16:19:42.007Z</time></trkpt><trkpt lat="44.893355" lon="8.336755"><ele>179.0</ele><time>2026-03-29T16:19:43.004Z</time></trkpt><trkpt lat="44.8935183" lon="8.33674"><ele>179.0</ele><time>2026-03-29T16:19:44.007Z</time></trkpt><trkpt lat="44.8936817" lon="8.336755"><ele>178.33333333333331</ele><time>2026-03-29T16:19:45.003Z</time></trkpt><trkpt lat="44.8938417" lon="8.3367967"><ele>177.66666666666666</ele><time>2026-03-29T16:19:46.012Z</time></trkpt><trkpt lat="44.8939983" lon="8.3368417"><ele>177.0</ele><time>2026-03-29T16:19:47.005Z</time></trkpt><trkpt lat="44.89415" lon="8.33687"><ele>177.5</ele><time>2026-03-29T16:19:48.006Z</time></trkpt><trkpt lat="44.8942983" lon="8.3368767"><ele>178.0</ele><time>2026-03-29T16:19:49.006Z</time></trkpt><trkpt lat="44.8944417" lon="8.33686"><ele>178.5</ele><time>2026-03-29T16:19:50.009Z</time></trkpt><trkpt lat="44.89458" lon="8.3368"><ele>179.0</ele><time>2026-03-29T16:19:51.004Z</time></trkpt><trkpt lat="44.89471" lon="8.33671"><ele>179.0</ele><time>2026-03-29T16:19:52.007Z</time></trkpt><trkpt lat="44.8948367" lon="8.3365867"><ele>179.0</ele><time>2026-03-29T16:19:53.012Z</time></trkpt><trkpt lat="44.894955" lon="8.33643"><ele>179.0</ele><time>2026-03-29T16:19:54.006Z</time></trkpt><trkpt lat="44.8950633" lon="8.336235"><ele>178.66666666666666</ele><time>2026-03-29T16:19:55.007Z</time></trkpt><trkpt lat="44.8951633" lon="8.33601"><ele>178.33333333333334</ele><time>2026-03-29T16:19:56.006Z</time></trkpt><trkpt lat="44.89526" lon="8.335775"><ele>178.0</ele><time>2026-03-29T16:19:57.006Z</time></trkpt><trkpt lat="44.89536" lon="8.3355317"><ele>178.0</ele><time>2026-03-29T16:19:58.004Z</time></trkpt><trkpt lat="44.8954667" lon="8.3352867"><ele>178.0</ele><time>2026-03-29T16:19:59.009Z</time></trkpt><trkpt lat="44.895575" lon="8.335045"><ele>178.0</ele><time>2026-03-29T16:20:00.009Z</time></trkpt><trkpt lat="44.8956867" lon="8.33481"><ele>178.66666666666669</ele><time>2026-03-29T16:20:01.006Z</time></trkpt><trkpt lat="44.895805" lon="8.3345867"><ele>179.33333333333334</ele><time>2026-03-29T16:20:02.004Z</time></trkpt><trkpt lat="44.8959367" lon="8.3343833"><ele>180.0</ele><time>2026-03-29T16:20:03.01Z</time></trkpt><trkpt lat="44.8960783" lon="8.3341983"><ele>180.0</ele><time>2026-03-29T16:20:04.005Z</time></trkpt><trkpt lat="44.8962317" lon="8.3340233"><ele>180.0</ele><time>2026-03-29T16:20:05.006Z</time></trkpt><trkpt lat="44.89638" lon="8.33385"><ele>180.0</ele><time>2026-03-29T16:20:06.007Z</time></trkpt><trkpt lat="44.8965117" lon="8.33368"><ele>180.0</ele><time>2026-03-29T16:20:07.009Z</time></trkpt><trkpt lat="44.896625" lon="8.333495"><ele>180.0</ele><time>2026-03-29T16:20:08.005Z</time></trkpt><trkpt lat="44.8967167" lon="8.3332833"><ele>180.0</ele><time>2026-03-29T16:20:09.01Z</time></trkpt><trkpt lat="44.896795" lon="8.33305"><ele>178.66666666666666</ele><time>2026-03-29T16:20:10.006Z</time></trkpt><trkpt lat="44.8968817" lon="8.3328167"><ele>177.33333333333331</ele><time>2026-03-29T16:20:11.008Z</time></trkpt><trkpt lat="44.8969817" lon="8.3325917"><ele>176.0</ele><time>2026-03-29T16:20:12.004Z</time></trkpt><trkpt lat="44.8970917" lon="8.3323733"><ele>177.0</ele><time>2026-03-29T16:20:13.007Z</time></trkpt><trkpt lat="44.8972183" lon="8.3321683"><ele>178.0</ele><time>2026-03-29T16:20:14.009Z</time></trkpt><trkpt lat="44.8973467" lon="8.3319733"><ele>179.0</ele><time>2026-03-29T16:20:15.008Z</time></trkpt><trkpt lat="44.89747" lon="8.33179"><ele>178.0</ele><time>2026-03-29T16:20:16.001Z</time></trkpt><trkpt lat="44.8975917" lon="8.3316167"><ele>177.0</ele><time>2026-03-29T16:20:17.007Z</time></trkpt><trkpt lat="44.89771" lon="8.3314517"><ele>176.0</ele><time>2026-03-29T16:20:18.006Z</time></trkpt><trkpt lat="44.8978267" lon="8.331305"><ele>176.0</ele><time>2026-03-29T16:20:19.005Z</time></trkpt><trkpt lat="44.89794" lon="8.3311717"><ele>176.0</ele><time>2026-03-29T16:20:20.008Z</time></trkpt><trkpt lat="44.8980567" lon="8.33105"><ele>176.0</ele><time>2026-03-29T16:20:21.006Z</time></trkpt><trkpt lat="44.898175" lon="8.3309483"><ele>176.0</ele><time>2026-03-29T16:20:22.01Z</time></trkpt><trkpt lat="44.8982933" lon="8.3308583"><ele>176.0</ele><time>2026-03-29T16:20:23.004Z</time></trkpt><trkpt lat="44.8984117" lon="8.3307667"><ele>176.0</ele><time>2026-03-29T16:20:24.005Z</time></trkpt><trkpt lat="44.8985283" lon="8.33069"><ele>176.0</ele><time>2026-03-29T16:20:25.008Z</time></trkpt><trkpt lat="44.8986467" lon="8.3306167"><ele>176.0</ele><time>2026-03-29T16:20:26.009Z</time></trkpt><trkpt lat="44.8987633" lon="8.3305583"><ele>177.5</ele><time>2026-03-29T16:20:27.005Z</time></trkpt><trkpt lat="44.8988817" lon="8.3305083"><ele>179.0</ele><time>2026-03-29T16:20:28.009Z</time></trkpt><trkpt lat="44.8990033" lon="8.3304617"><ele>180.5</ele><time>2026-03-29T16:20:29.007Z</time></trkpt><trkpt lat="44.8991217" lon="8.3304233"><ele>182.0</ele><time>2026-03-29T16:20:30.005Z</time></trkpt><trkpt lat="44.89924" lon="8.3303883"><ele>182.5</ele><time>2026-03-29T16:20:31.009Z</time></trkpt><trkpt lat="44.8993617" lon="8.3303583"><ele>183.0</ele><time>2026-03-29T16:20:32.002Z</time></trkpt><trkpt lat="44.8994783" lon="8.33033"><ele>183.5</ele><time>2026-03-29T16:20:33.002Z</time></trkpt><trkpt lat="44.8995883" lon="8.330295"><ele>184.0</ele><time>2026-03-29T16:20:34.005Z</time></trkpt><trkpt lat="44.8996933" lon="8.3302583"><ele>184.0</ele><time>2026-03-29T16:20:34.999Z</time></trkpt><trkpt lat="44.8997933" lon="8.3302233"><ele>184.0</ele><time>2026-03-29T16:20:36.011Z</time></trkpt><trkpt lat="44.899885" lon="8.3301917"><ele>184.0</ele><time>2026-03-29T16:20:37.004Z</time></trkpt><trkpt lat="44.899975" lon="8.3301533"><ele>184.0</ele><time>2026-03-29T16:20:38.004Z</time></trkpt><trkpt lat="44.90007" lon="8.33009"><ele>184.0</ele><time>2026-03-29T16:20:39.005Z</time></trkpt><trkpt lat="44.9001767" lon="8.3299933"><ele>183.66666666666669</ele><time>2026-03-29T16:20:40.003Z</time></trkpt><trkpt lat="44.900295" lon="8.329865"><ele>183.33333333333334</ele><time>2026-03-29T16:20:41.003Z</time></trkpt><trkpt lat="44.90042" lon="8.329735"><ele>183.0</ele><time>2026-03-29T16:20:42.002Z</time></trkpt><trkpt lat="44.9005433" lon="8.3296067"><ele>182.75</ele><time>2026-03-29T16:20:43.005Z</time></trkpt><trkpt lat="44.9006517" lon="8.3294867"><ele>182.5</ele><time>2026-03-29T16:20:44.002Z</time></trkpt><trkpt lat="44.9007483" lon="8.32937"><ele>182.25</ele><time>2026-03-29T16:20:45.006Z</time></trkpt><trkpt lat="44.9008283" lon="8.3292417"><ele>182.0</ele><time>2026-03-29T16:20:46.007Z</time></trkpt><trkpt lat="44.9008867" lon="8.3290867"><ele>181.0</ele><time>2026-03-29T16:20:47.007Z</time></trkpt><trkpt lat="44.9009267" lon="8.328895"><ele>180.0</ele><time>2026-03-29T16:20:48.008Z</time></trkpt><trkpt lat="44.9009567" lon="8.32867"><ele>179.0</ele><time>2026-03-29T16:20:49.008Z</time></trkpt><trkpt lat="44.9009883" lon="8.3284383"><ele>178.66666666666666</ele><time>2026-03-29T16:20:50.006Z</time></trkpt><trkpt lat="44.90103" lon="8.3282083"><ele>178.33333333333334</ele><time>2026-03-29T16:20:51.01Z</time></trkpt><trkpt lat="44.9010833" lon="8.3279833"><ele>178.0</ele><time>2026-03-29T16:20:52.007Z</time></trkpt><trkpt lat="44.90114" lon="8.3277717"><ele>178.0</ele><time>2026-03-29T16:20:53.003Z</time></trkpt><trkpt lat="44.9012133" lon="8.327565"><ele>178.0</ele><time>2026-03-29T16:20:54.004Z</time></trkpt><trkpt lat="44.9013117" lon="8.3273633"><ele>178.0</ele><time>2026-03-29T16:20:55.005Z</time></trkpt><trkpt lat="44.9014467" lon="8.32717"><ele>178.66666666666669</ele><time>2026-03-29T16:20:56.01Z</time></trkpt><trkpt lat="44.9015883" lon="8.326985"><ele>179.33333333333334</ele><time>2026-03-29T16:20:57.006Z</time></trkpt><trkpt lat="44.901745" lon="8.3268167"><ele>180.0</ele><time>2026-03-29T16:20:58.006Z</time></trkpt><trkpt lat="44.9019017" lon="8.3266483"><ele>180.33333333333334</ele><time>2026-03-29T16:20:59.005Z</time></trkpt><trkpt lat="44.902055" lon="8.3264867"><ele>180.66666666666669</ele><time>2026-03-29T16:21:00.009Z</time></trkpt><trkpt lat="44.9021983" lon="8.3263283"><ele>181.0</ele><time>2026-03-29T16:21:01.004Z</time></trkpt><trkpt lat="44.9023383" lon="8.3261817"><ele>181.0</ele><time>2026-03-29T16:21:02.002Z</time></trkpt><trkpt lat="44.902475" lon="8.3260433"><ele>181.0</ele><time>2026-03-29T16:21:03.005Z</time></trkpt><trkpt lat="44.9026067" lon="8.3259083"><ele>181.0</ele><time>2026-03-29T16:21:04.007Z</time></trkpt><trkpt lat="44.9027317" lon="8.32578"><ele>180.5</ele><time>2026-03-29T16:21:05.004Z</time></trkpt><trkpt lat="44.9028517" lon="8.3256583"><ele>180.0</ele><time>2026-03-29T16:21:06.008Z</time></trkpt><trkpt lat="44.9029667" lon="8.3255483"><ele>179.5</ele><time>2026-03-29T16:21:07.007Z</time></trkpt><trkpt lat="44.9030867" lon="8.3254483"><ele>179.0</ele><time>2026-03-29T16:21:08.004Z</time></trkpt><trkpt lat="44.9032117" lon="8.3253617"><ele>180.25</ele><time>2026-03-29T16:21:09.007Z</time></trkpt><trkpt lat="44.9033367" lon="8.3252833"><ele>181.5</ele><time>2026-03-29T16:21:10.006Z</time></trkpt><trkpt lat="44.9034617" lon="8.3252083"><ele>182.75</ele><time>2026-03-29T16:21:11.009Z</time></trkpt><trkpt lat="44.903585" lon="8.32513"><ele>184.0</ele><time>2026-03-29T16:21:12.005Z</time></trkpt><trkpt lat="44.9037083" lon="8.3250467"><ele>184.0</ele><time>2026-03-29T16:21:13.008Z</time></trkpt><trkpt lat="44.9038333" lon="8.324955"><ele>184.0</ele><time>2026-03-29T16:21:14Z</time></trkpt><trkpt lat="44.90396" lon="8.3248817"><ele>184.0</ele><time>2026-03-29T16:21:15.007Z</time></trkpt><trkpt lat="44.9040867" lon="8.3248017"><ele>184.0</ele><time>2026-03-29T16:21:16.004Z</time></trkpt><trkpt lat="44.9042083" lon="8.32473"><ele>182.0</ele><time>2026-03-29T16:21:17.006Z</time></trkpt><trkpt lat="44.9043117" lon="8.3246617"><ele>180.0</ele><time>2026-03-29T16:21:18.004Z</time></trkpt><trkpt lat="44.9044" lon="8.3245883"><ele>178.0</ele><time>2026-03-29T16:21:19.006Z</time></trkpt><trkpt lat="44.9044767" lon="8.3244867"><ele>176.0</ele><time>2026-03-29T16:21:20.01Z</time></trkpt><trkpt lat="44.9045483" lon="8.324365"><ele>174.0</ele><time>2026-03-29T16:21:21.007Z</time></trkpt><trkpt lat="44.9046167" lon="8.3242083"><ele>174.0</ele><time>2026-03-29T16:21:22.008Z</time></trkpt><trkpt lat="44.9046683" lon="8.32402"><ele>174.0</ele><time>2026-03-29T16:21:23.001Z</time></trkpt><trkpt lat="44.9047067" lon="8.3238217"><ele>174.0</ele><time>2026-03-29T16:21:24.005Z</time></trkpt><trkpt lat="44.9047433" lon="8.3236333"><ele>174.0</ele><time>2026-03-29T16:21:25.005Z</time></trkpt><trkpt lat="44.90478" lon="8.3234517"><ele>175.75</ele><time>2026-03-29T16:21:26.004Z</time></trkpt><trkpt lat="44.904815" lon="8.3232817"><ele>177.5</ele><time>2026-03-29T16:21:27.006Z</time></trkpt><trkpt lat="44.90485" lon="8.3231167"><ele>179.25</ele><time>2026-03-29T16:21:28.005Z</time></trkpt><trkpt lat="44.904885" lon="8.3229717"><ele>181.0</ele><time>2026-03-29T16:21:29.009Z</time></trkpt><trkpt lat="44.904915" lon="8.3228367"><ele>181.83333333333334</ele><time>2026-03-29T16:21:30.004Z</time></trkpt><trkpt lat="44.9049417" lon="8.3227183"><ele>182.66666666666669</ele><time>2026-03-29T16:21:31.007Z</time></trkpt><trkpt lat="44.9049633" lon="8.3226083"><ele>183.5</ele><time>2026-03-29T16:21:32.01Z</time></trkpt><trkpt lat="44.90498" lon="8.322505"><ele>184.33333333333334</ele><time>2026-03-29T16:21:33.006Z</time></trkpt><trkpt lat="44.9049983" lon="8.32241"><ele>185.16666666666666</ele><time>2026-03-29T16:21:34.007Z</time></trkpt><trkpt lat="44.905025" lon="8.32225"><ele>186.0</ele><time>2026-03-29T16:21:36.002Z</time></trkpt><trkpt lat="44.9050217" lon="8.3220867"><ele>186.25</ele><time>2026-03-29T16:21:38.004Z</time></trkpt><trkpt lat="44.90497" lon="8.3219117"><ele>186.5</ele><time>2026-03-29T16:21:40.007Z</time></trkpt><trkpt lat="44.9049117" lon="8.3217883"><ele>186.75</ele><time>2026-03-29T16:21:41.007Z</time></trkpt><trkpt lat="44.9048317" lon="8.3216467"><ele>187.0</ele><time>2026-03-29T16:21:42.006Z</time></trkpt><trkpt lat="44.904765" lon="8.3215183"><ele>186.8</ele><time>2026-03-29T16:21:43.006Z</time></trkpt><trkpt lat="44.9046967" lon="8.3213933"><ele>186.6</ele><time>2026-03-29T16:21:44.004Z</time></trkpt><trkpt lat="44.9046317" lon="8.3212717"><ele>186.4</ele><time>2026-03-29T16:21:45.007Z</time></trkpt><trkpt lat="44.90456" lon="8.32116"><ele>186.20000000000002</ele><time>2026-03-29T16:21:46.003Z</time></trkpt><trkpt lat="44.90449" lon="8.3210683"><ele>186.0</ele><time>2026-03-29T16:21:47.002Z</time></trkpt><trkpt lat="44.9044217" lon="8.3209967"><ele>186.0</ele><time>2026-03-29T16:21:48.004Z</time></trkpt><trkpt lat="44.90436" lon="8.32094"><ele>186.0</ele><time>2026-03-29T16:21:49.007Z</time></trkpt><trkpt lat="44.90431" lon="8.3208817"><ele>186.0</ele><time>2026-03-29T16:21:50.003Z</time></trkpt><trkpt lat="44.90425" lon="8.32077"><ele>186.0</ele><time>2026-03-29T16:21:52.003Z</time></trkpt><trkpt lat="44.9043167" lon="8.32066"><ele>186.0</ele><time>2026-03-29T16:21:54.01Z</time></trkpt><trkpt lat="44.9044083" lon="8.3206117"><ele>186.0</ele><time>2026-03-29T16:21:55.006Z</time></trkpt><trkpt lat="44.9044917" lon="8.3205583"><ele>186.60000000000002</ele><time>2026-03-29T16:21:56.006Z</time></trkpt><trkpt lat="44.9045267" lon="8.3204783"><ele>187.2</ele><time>2026-03-29T16:21:57.007Z</time></trkpt><trkpt lat="44.9045533" lon="8.3203767"><ele>187.8</ele><time>2026-03-29T16:21:58.011Z</time></trkpt><trkpt lat="44.90456" lon="8.3202317"><ele>188.39999999999998</ele><time>2026-03-29T16:21:59.006Z</time></trkpt><trkpt lat="44.90455" lon="8.3200767"><ele>189.0</ele><time>2026-03-29T16:22:00.008Z</time></trkpt><trkpt lat="44.9045317" lon="8.3199"><ele>189.0</ele><time>2026-03-29T16:22:01.003Z</time></trkpt><trkpt lat="44.9045183" lon="8.3197367"><ele>189.0</ele><time>2026-03-29T16:22:02.007Z</time></trkpt><trkpt lat="44.9045167" lon="8.3195667"><ele>189.0</ele><time>2026-03-29T16:22:03.003Z</time></trkpt><trkpt lat="44.9045317" lon="8.3194067"><ele>189.0</ele><time>2026-03-29T16:22:04.005Z</time></trkpt><trkpt lat="44.9045633" lon="8.3192567"><ele>189.25</ele><time>2026-03-29T16:22:05.006Z</time></trkpt><trkpt lat="44.9046083" lon="8.319115"><ele>189.5</ele><time>2026-03-29T16:22:06.005Z</time></trkpt><trkpt lat="44.90467" lon="8.3189783"><ele>189.75</ele><time>2026-03-29T16:22:07.007Z</time></trkpt><trkpt lat="44.9047433" lon="8.3188567"><ele>190.0</ele><time>2026-03-29T16:22:08.003Z</time></trkpt><trkpt lat="44.904825" lon="8.3187433"><ele>190.25</ele><time>2026-03-29T16:22:09.006Z</time></trkpt><trkpt lat="44.9049233" lon="8.3186333"><ele>190.5</ele><time>2026-03-29T16:22:10.005Z</time></trkpt><trkpt lat="44.9050183" lon="8.3185283"><ele>190.75</ele><time>2026-03-29T16:22:11.005Z</time></trkpt><trkpt lat="44.9051233" lon="8.3184267"><ele>191.0</ele><time>2026-03-29T16:22:12.001Z</time></trkpt><trkpt lat="44.9052183" lon="8.3183233"><ele>190.75</ele><time>2026-03-29T16:22:13.003Z</time></trkpt><trkpt lat="44.9053167" lon="8.3182283"><ele>190.5</ele><time>2026-03-29T16:22:14.006Z</time></trkpt><trkpt lat="44.90541" lon="8.3181333"><ele>190.25</ele><time>2026-03-29T16:22:15.007Z</time></trkpt><trkpt lat="44.9054983" lon="8.3180367"><ele>190.0</ele><time>2026-03-29T16:22:16.003Z</time></trkpt><trkpt lat="44.9055933" lon="8.3179367"><ele>190.0</ele><time>2026-03-29T16:22:17.01Z</time></trkpt><trkpt lat="44.90569" lon="8.317835"><ele>190.0</ele><time>2026-03-29T16:22:18.007Z</time></trkpt><trkpt lat="44.90579" lon="8.3177333"><ele>190.0</ele><time>2026-03-29T16:22:19.005Z</time></trkpt><trkpt lat="44.90589" lon="8.3176217"><ele>190.0</ele><time>2026-03-29T16:22:20.007Z</time></trkpt><trkpt lat="44.90599" lon="8.31751"><ele>189.5</ele><time>2026-03-29T16:22:21.008Z</time></trkpt><trkpt lat="44.9060883" lon="8.317395"><ele>189.0</ele><time>2026-03-29T16:22:22.009Z</time></trkpt><trkpt lat="44.9061883" lon="8.3172783"><ele>188.5</ele><time>2026-03-29T16:22:23.006Z</time></trkpt><trkpt lat="44.9062867" lon="8.31716"><ele>188.0</ele><time>2026-03-29T16:22:24.004Z</time></trkpt><trkpt lat="44.906385" lon="8.3170433"><ele>188.0</ele><time>2026-03-29T16:22:25.004Z</time></trkpt><trkpt lat="44.9064833" lon="8.3169267"><ele>188.0</ele><time>2026-03-29T16:22:26.005Z</time></trkpt><trkpt lat="44.906585" lon="8.31681"><ele>188.0</ele><time>2026-03-29T16:22:27.003Z</time></trkpt><trkpt lat="44.906695" lon="8.3166967"><ele>188.0</ele><time>2026-03-29T16:22:28.003Z</time></trkpt><trkpt lat="44.9067967" lon="8.316575"><ele>188.0</ele><time>2026-03-29T16:22:29.004Z</time></trkpt><trkpt lat="44.9069017" lon="8.3164533"><ele>188.0</ele><time>2026-03-29T16:22:30.002Z</time></trkpt><trkpt lat="44.907005" lon="8.3163317"><ele>188.0</ele><time>2026-03-29T16:22:31.005Z</time></trkpt><trkpt lat="44.907105" lon="8.3162133"><ele>188.0</ele><time>2026-03-29T16:22:32.009Z</time></trkpt><trkpt lat="44.90719" lon="8.3161033"><ele>188.4</ele><time>2026-03-29T16:22:33.004Z</time></trkpt><trkpt lat="44.9072583" lon="8.316025"><ele>188.8</ele><time>2026-03-29T16:22:34.008Z</time></trkpt><trkpt lat="44.90731" lon="8.3159617"><ele>189.2</ele><time>2026-03-29T16:22:35.005Z</time></trkpt><trkpt lat="44.9073717" lon="8.3159017"><ele>189.6</ele><time>2026-03-29T16:22:37.006Z</time></trkpt><trkpt lat="44.9073383" lon="8.31581"><ele>190.0</ele><time>2026-03-29T16:22:40.005Z</time></trkpt><trkpt lat="44.907195" lon="8.31575"><ele>190.0</ele><time>2026-03-29T16:22:42.009Z</time></trkpt><trkpt lat="44.9071" lon="8.3157183"><ele>190.0</ele><time>2026-03-29T16:22:43.005Z</time></trkpt><trkpt lat="44.9070017" lon="8.315675"><ele>190.0</ele><time>2026-03-29T16:22:44.007Z</time></trkpt><trkpt lat="44.9068883" lon="8.3156233"><ele>190.0</ele><time>2026-03-29T16:22:45.006Z</time></trkpt><trkpt lat="44.906785" lon="8.3155617"><ele>190.0</ele><time>2026-03-29T16:22:46.006Z</time></trkpt><trkpt lat="44.9066817" lon="8.315485"><ele>188.75</ele><time>2026-03-29T16:22:47.002Z</time></trkpt><trkpt lat="44.9065767" lon="8.3153917"><ele>187.5</ele><time>2026-03-29T16:22:48.007Z</time></trkpt><trkpt lat="44.9064733" lon="8.3152833"><ele>186.25</ele><time>2026-03-29T16:22:49.006Z</time></trkpt><trkpt lat="44.90637" lon="8.3151683"><ele>185.0</ele><time>2026-03-29T16:22:50.007Z</time></trkpt><trkpt lat="44.90627" lon="8.3150533"><ele>185.0</ele><time>2026-03-29T16:22:51.004Z</time></trkpt><trkpt lat="44.9061667" lon="8.31494"><ele>185.0</ele><time>2026-03-29T16:22:52.006Z</time></trkpt><trkpt lat="44.9060617" lon="8.31483"><ele>185.0</ele><time>2026-03-29T16:22:53.003Z</time></trkpt><trkpt lat="44.9059583" lon="8.31472"><ele>185.0</ele><time>2026-03-29T16:22:54.005Z</time></trkpt><trkpt lat="44.9058567" lon="8.3146117"><ele>185.25</ele><time>2026-03-29T16:22:55.005Z</time></trkpt><trkpt lat="44.9057583" lon="8.314505"><ele>185.5</ele><time>2026-03-29T16:22:56.006Z</time></trkpt><trkpt lat="44.90568" lon="8.31439"><ele>185.75</ele><time>2026-03-29T16:22:57.007Z</time></trkpt><trkpt lat="44.905625" lon="8.3142533"><ele>186.0</ele><time>2026-03-29T16:22:58.003Z</time></trkpt><trkpt lat="44.9055833" lon="8.3140983"><ele>186.0</ele><time>2026-03-29T16:22:59.004Z</time></trkpt><trkpt lat="44.90554" lon="8.3139417"><ele>186.0</ele><time>2026-03-29T16:23:00.007Z</time></trkpt><trkpt lat="44.9054867" lon="8.313785"><ele>186.0</ele><time>2026-03-29T16:23:01.007Z</time></trkpt><trkpt lat="44.9054233" lon="8.31363"><ele>186.0</ele><time>2026-03-29T16:23:02.009Z</time></trkpt><trkpt lat="44.9053633" lon="8.3134783"><ele>184.75</ele><time>2026-03-29T16:23:03.005Z</time></trkpt><trkpt lat="44.90531" lon="8.3133183"><ele>183.5</ele><time>2026-03-29T16:23:04.009Z</time></trkpt><trkpt lat="44.905265" lon="8.313145"><ele>182.25</ele><time>2026-03-29T16:23:05.005Z</time></trkpt><trkpt lat="44.9052183" lon="8.3129633"><ele>181.0</ele><time>2026-03-29T16:23:06.003Z</time></trkpt><trkpt lat="44.90517" lon="8.3127767"><ele>181.25</ele><time>2026-03-29T16:23:07.007Z</time></trkpt><trkpt lat="44.9051117" lon="8.3125933"><ele>181.5</ele><time>2026-03-29T16:23:08.004Z</time></trkpt><trkpt lat="44.9050417" lon="8.3124067"><ele>181.75</ele><time>2026-03-29T16:23:09.002Z</time></trkpt><trkpt lat="44.9049617" lon="8.31222"><ele>182.0</ele><time>2026-03-29T16:23:10.006Z</time></trkpt><trkpt lat="44.904875" lon="8.3120333"><ele>181.33333333333331</ele><time>2026-03-29T16:23:11.004Z</time></trkpt><trkpt lat="44.90478" lon="8.31185"><ele>180.66666666666666</ele><time>2026-03-29T16:23:12.003Z</time></trkpt><trkpt lat="44.904675" lon="8.311675"><ele>180.0</ele><time>2026-03-29T16:23:13.006Z</time></trkpt><trkpt lat="44.90457" lon="8.3115"><ele>178.66666666666666</ele><time>2026-03-29T16:23:14.007Z</time></trkpt><trkpt lat="44.90446" lon="8.3113267"><ele>177.33333333333331</ele><time>2026-03-29T16:23:15.005Z</time></trkpt><trkpt lat="44.9043483" lon="8.31116"><ele>176.0</ele><time>2026-03-29T16:23:16.004Z</time></trkpt><trkpt lat="44.904245" lon="8.310995"><ele>176.0</ele><time>2026-03-29T16:23:17.005Z</time></trkpt><trkpt lat="44.9041433" lon="8.3108317"><ele>176.0</ele><time>2026-03-29T16:23:18.004Z</time></trkpt><trkpt lat="44.9040517" lon="8.3106667"><ele>176.0</ele><time>2026-03-29T16:23:19.004Z</time></trkpt><trkpt lat="44.9039733" lon="8.31049"><ele>176.33333333333331</ele><time>2026-03-29T16:23:20.004Z</time></trkpt><trkpt lat="44.9039067" lon="8.310305"><ele>176.66666666666666</ele><time>2026-03-29T16:23:21.005Z</time></trkpt><trkpt lat="44.903835" lon="8.31011"><ele>177.0</ele><time>2026-03-29T16:23:22.004Z</time></trkpt><trkpt lat="44.9037633" lon="8.3099167"><ele>176.33333333333334</ele><time>2026-03-29T16:23:23Z</time></trkpt><trkpt lat="44.903685" lon="8.3097167"><ele>175.66666666666669</ele><time>2026-03-29T16:23:24.004Z</time></trkpt><trkpt lat="44.9036017" lon="8.3095183"><ele>175.0</ele><time>2026-03-29T16:23:25.005Z</time></trkpt><trkpt lat="44.9035183" lon="8.30931"><ele>175.0</ele><time>2026-03-29T16:23:26.007Z</time></trkpt><trkpt lat="44.9034367" lon="8.3090967"><ele>175.0</ele><time>2026-03-29T16:23:27.011Z</time></trkpt><trkpt lat="44.903355" lon="8.30888"><ele>175.0</ele><time>2026-03-29T16:23:28.003Z</time></trkpt><trkpt lat="44.9032767" lon="8.3086567"><ele>174.33333333333334</ele><time>2026-03-29T16:23:29.002Z</time></trkpt><trkpt lat="44.9032067" lon="8.3084267"><ele>173.66666666666666</ele><time>2026-03-29T16:23:30.004Z</time></trkpt><trkpt lat="44.9031483" lon="8.3081917"><ele>173.0</ele><time>2026-03-29T16:23:31.003Z</time></trkpt><trkpt lat="44.9031067" lon="8.307955"><ele>172.33333333333331</ele><time>2026-03-29T16:23:32.004Z</time></trkpt><trkpt lat="44.9030583" lon="8.307725"><ele>171.66666666666666</ele><time>2026-03-29T16:23:33.005Z</time></trkpt><trkpt lat="44.903" lon="8.3075067"><ele>171.0</ele><time>2026-03-29T16:23:34.001Z</time></trkpt><trkpt lat="44.9029367" lon="8.3073017"><ele>171.66666666666666</ele><time>2026-03-29T16:23:35.003Z</time></trkpt><trkpt lat="44.9028633" lon="8.307105"><ele>172.33333333333331</ele><time>2026-03-29T16:23:36.005Z</time></trkpt><trkpt lat="44.9027817" lon="8.3069167"><ele>173.0</ele><time>2026-03-29T16:23:37.005Z</time></trkpt><trkpt lat="44.9027" lon="8.3067333"><ele>173.0</ele><time>2026-03-29T16:23:38.004Z</time></trkpt><trkpt lat="44.902625" lon="8.3065583"><ele>173.0</ele><time>2026-03-29T16:23:39.004Z</time></trkpt><trkpt lat="44.9025533" lon="8.3064"><ele>173.0</ele><time>2026-03-29T16:23:40.003Z</time></trkpt><trkpt lat="44.9024867" lon="8.306255"><ele>173.0</ele><time>2026-03-29T16:23:41.003Z</time></trkpt><trkpt lat="44.9024267" lon="8.3061183"><ele>172.75</ele><time>2026-03-29T16:23:42.004Z</time></trkpt><trkpt lat="44.9023683" lon="8.305975"><ele>172.5</ele><time>2026-03-29T16:23:43.002Z</time></trkpt><trkpt lat="44.9023217" lon="8.30583"><ele>172.25</ele><time>2026-03-29T16:23:44.003Z</time></trkpt><trkpt lat="44.9022933" lon="8.3056733"><ele>172.0</ele><time>2026-03-29T16:23:45.006Z</time></trkpt><trkpt lat="44.9022717" lon="8.3055"><ele>172.0</ele><time>2026-03-29T16:23:46.005Z</time></trkpt><trkpt lat="44.9022533" lon="8.30533"><ele>172.0</ele><time>2026-03-29T16:23:47.006Z</time></trkpt><trkpt lat="44.90223" lon="8.3051633"><ele>172.0</ele><time>2026-03-29T16:23:48.006Z</time></trkpt><trkpt lat="44.9021917" lon="8.3049983"><ele>172.0</ele><time>2026-03-29T16:23:49.006Z</time></trkpt><trkpt lat="44.902145" lon="8.3048317"><ele>170.75</ele><time>2026-03-29T16:23:50.004Z</time></trkpt><trkpt lat="44.902095" lon="8.304665"><ele>169.5</ele><time>2026-03-29T16:23:51.004Z</time></trkpt><trkpt lat="44.9020433" lon="8.3044967"><ele>168.25</ele><time>2026-03-29T16:23:52.008Z</time></trkpt><trkpt lat="44.9019917" lon="8.304345"><ele>167.0</ele><time>2026-03-29T16:23:53.004Z</time></trkpt><trkpt lat="44.90195" lon="8.3042117"><ele>167.0</ele><time>2026-03-29T16:23:54.002Z</time></trkpt><trkpt lat="44.9019267" lon="8.3040917"><ele>167.0</ele><time>2026-03-29T16:23:55.005Z</time></trkpt><trkpt lat="44.9019167" lon="8.3039883"><ele>167.0</ele><time>2026-03-29T16:23:56.004Z</time></trkpt><trkpt lat="44.90193" lon="8.3038967"><ele>167.0</ele><time>2026-03-29T16:23:57.01Z</time></trkpt><trkpt lat="44.9019683" lon="8.3038117"><ele>167.0</ele><time>2026-03-29T16:23:58.001Z</time></trkpt><trkpt lat="44.902" lon="8.3037117"><ele>167.0</ele><time>2026-03-29T16:23:59.002Z</time></trkpt><trkpt lat="44.9020117" lon="8.3036017"><ele>165.83333333333331</ele><time>2026-03-29T16:24:00.009Z</time></trkpt><trkpt lat="44.9020083" lon="8.3034833"><ele>164.66666666666666</ele><time>2026-03-29T16:24:01Z</time></trkpt><trkpt lat="44.90199" lon="8.303365"><ele>163.5</ele><time>2026-03-29T16:24:02.004Z</time></trkpt><trkpt lat="44.9019633" lon="8.3032583"><ele>162.33333333333334</ele><time>2026-03-29T16:24:03.006Z</time></trkpt><trkpt lat="44.9019483" lon="8.3031667"><ele>161.16666666666669</ele><time>2026-03-29T16:24:04.002Z</time></trkpt><trkpt lat="44.9020117" lon="8.30307"><ele>160.0</ele><time>2026-03-29T16:24:06.009Z</time></trkpt><trkpt lat="44.902115" lon="8.3031017"><ele>160.0</ele><time>2026-03-29T16:24:08.005Z</time></trkpt><trkpt lat="44.9021517" lon="8.303195"><ele>160.0</ele><time>2026-03-29T16:24:09.01Z</time></trkpt><trkpt lat="44.9021983" lon="8.3032683"><ele>160.0</ele><time>2026-03-29T16:24:10.005Z</time></trkpt><trkpt lat="44.902245" lon="8.30333"><ele>160.0</ele><time>2026-03-29T16:24:11.007Z</time></trkpt><trkpt lat="44.902345" lon="8.3033717"><ele>160.0</ele><time>2026-03-29T16:24:13.008Z</time></trkpt><trkpt lat="44.9023983" lon="8.303275"><ele>160.0</ele><time>2026-03-29T16:24:15.004Z</time></trkpt><trkpt lat="44.90236" lon="8.3031083"><ele>158.0</ele><time>2026-03-29T16:24:17.004Z</time></trkpt><trkpt lat="44.9023117" lon="8.302995"><ele>156.0</ele><time>2026-03-29T16:24:18.007Z</time></trkpt><trkpt lat="44.9022717" lon="8.3028867"><ele>154.0</ele><time>2026-03-29T16:24:19.007Z</time></trkpt><trkpt lat="44.9022467" lon="8.3027333"><ele>152.0</ele><time>2026-03-29T16:24:20.003Z</time></trkpt><trkpt lat="44.9022483" lon="8.3026067"><ele>150.0</ele><time>2026-03-29T16:24:21.006Z</time></trkpt><trkpt lat="44.90224" lon="8.3024883"><ele>150.0</ele><time>2026-03-29T16:24:22.003Z</time></trkpt><trkpt lat="44.9022517" lon="8.3023817"><ele>150.0</ele><time>2026-03-29T16:24:23.002Z</time></trkpt><trkpt lat="44.9022567" lon="8.3022733"><ele>150.0</ele><time>2026-03-29T16:24:24.001Z</time></trkpt><trkpt lat="44.9022283" lon="8.30213"><ele>150.0</ele><time>2026-03-29T16:24:26.004Z</time></trkpt><trkpt lat="44.9021133" lon="8.3020167"><ele>150.0</ele><time>2026-03-29T16:24:28.005Z</time></trkpt><trkpt lat="44.9020433" lon="8.3019317"><ele>151.25</ele><time>2026-03-29T16:24:29.003Z</time></trkpt><trkpt lat="44.901955" lon="8.3018333"><ele>152.5</ele><time>2026-03-29T16:24:30.004Z</time></trkpt><trkpt lat="44.9018417" lon="8.30171"><ele>153.75</ele><time>2026-03-29T16:24:31.003Z</time></trkpt><trkpt lat="44.9017433" lon="8.3015817"><ele>155.0</ele><time>2026-03-29T16:24:32.009Z</time></trkpt><trkpt lat="44.9016483" lon="8.3014417"><ele>152.0</ele><time>2026-03-29T16:24:33.006Z</time></trkpt><trkpt lat="44.9015367" lon="8.3012883"><ele>149.0</ele><time>2026-03-29T16:24:34.004Z</time></trkpt><trkpt lat="44.9014417" lon="8.30112"><ele>146.0</ele><time>2026-03-29T16:24:35.01Z</time></trkpt><trkpt lat="44.9013367" lon="8.3009433"><ele>146.0</ele><time>2026-03-29T16:24:36.004Z</time></trkpt><trkpt lat="44.9012333" lon="8.30076"><ele>146.0</ele><time>2026-03-29T16:24:37.007Z</time></trkpt><trkpt lat="44.9011317" lon="8.3005717"><ele>146.0</ele><time>2026-03-29T16:24:38.004Z</time></trkpt><trkpt lat="44.90103" lon="8.3003867"><ele>145.75</ele><time>2026-03-29T16:24:39.007Z</time></trkpt><trkpt lat="44.90093" lon="8.300205"><ele>145.5</ele><time>2026-03-29T16:24:40.002Z</time></trkpt><trkpt lat="44.9008433" lon="8.3000367"><ele>145.25</ele><time>2026-03-29T16:24:41.005Z</time></trkpt><trkpt lat="44.9007833" lon="8.2998717"><ele>145.0</ele><time>2026-03-29T16:24:42.006Z</time></trkpt><trkpt lat="44.9007283" lon="8.2997133"><ele>147.4</ele><time>2026-03-29T16:24:43.001Z</time></trkpt><trkpt lat="44.9006933" lon="8.2995533"><ele>149.8</ele><time>2026-03-29T16:24:44.006Z</time></trkpt><trkpt lat="44.9006533" lon="8.2994233"><ele>152.2</ele><time>2026-03-29T16:24:45.002Z</time></trkpt><trkpt lat="44.9006033" lon="8.2993083"><ele>154.6</ele><time>2026-03-29T16:24:46.002Z</time></trkpt><trkpt lat="44.9005467" lon="8.299215"><ele>157.0</ele><time>2026-03-29T16:24:47.009Z</time></trkpt><trkpt lat="44.9004767" lon="8.2991533"><ele>157.0</ele><time>2026-03-29T16:24:48.005Z</time></trkpt><trkpt lat="44.900405" lon="8.2990917"><ele>157.0</ele><time>2026-03-29T16:24:49.006Z</time></trkpt><trkpt lat="44.9003267" lon="8.2990567"><ele>157.0</ele><time>2026-03-29T16:24:50.002Z</time></trkpt><trkpt lat="44.90024" lon="8.29903"><ele>157.0</ele><time>2026-03-29T16:24:51.003Z</time></trkpt><trkpt lat="44.90016" lon="8.2989967"><ele>157.0</ele><time>2026-03-29T16:24:52.005Z</time></trkpt><trkpt lat="44.9000817" lon="8.29893"><ele>157.0</ele><time>2026-03-29T16:24:53.004Z</time></trkpt><trkpt lat="44.8999933" lon="8.2988283"><ele>156.75</ele><time>2026-03-29T16:24:54.005Z</time></trkpt><trkpt lat="44.8998883" lon="8.2987467"><ele>156.5</ele><time>2026-03-29T16:24:55.005Z</time></trkpt><trkpt lat="44.8997717" lon="8.2986583"><ele>156.25</ele><time>2026-03-29T16:24:56.006Z</time></trkpt><trkpt lat="44.8996367" lon="8.2985767"><ele>156.0</ele><time>2026-03-29T16:24:57.007Z</time></trkpt><trkpt lat="44.8994917" lon="8.2985"><ele>156.0</ele><time>2026-03-29T16:24:58.004Z</time></trkpt><trkpt lat="44.89934" lon="8.2984283"><ele>156.0</ele><time>2026-03-29T16:24:59.005Z</time></trkpt><trkpt lat="44.8991917" lon="8.2983583"><ele>156.0</ele><time>2026-03-29T16:25:00.009Z</time></trkpt><trkpt lat="44.89905" lon="8.2982783"><ele>153.25</ele><time>2026-03-29T16:25:01.006Z</time></trkpt><trkpt lat="44.8989133" lon="8.2982017"><ele>150.5</ele><time>2026-03-29T16:25:02.004Z</time></trkpt><trkpt lat="44.89878" lon="8.2981283"><ele>147.75</ele><time>2026-03-29T16:25:03.004Z</time></trkpt><trkpt lat="44.8986517" lon="8.2980367"><ele>145.0</ele><time>2026-03-29T16:25:04.004Z</time></trkpt><trkpt lat="44.8985267" lon="8.2979183"><ele>141.25</ele><time>2026-03-29T16:25:05.003Z</time></trkpt><trkpt lat="44.898405" lon="8.2978033"><ele>137.5</ele><time>2026-03-29T16:25:06.003Z</time></trkpt><trkpt lat="44.8982917" lon="8.297695"><ele>133.75</ele><time>2026-03-29T16:25:07.003Z</time></trkpt><trkpt lat="44.8981833" lon="8.2975817"><ele>130.0</ele><time>2026-03-29T16:25:08.006Z</time></trkpt><trkpt lat="44.8980767" lon="8.2974583"><ele>130.0</ele><time>2026-03-29T16:25:09.003Z</time></trkpt><trkpt lat="44.8979767" lon="8.2973117"><ele>130.0</ele><time>2026-03-29T16:25:10.008Z</time></trkpt><trkpt lat="44.8978833" lon="8.2971217"><ele>130.0</ele><time>2026-03-29T16:25:11.002Z</time></trkpt><trkpt lat="44.897795" lon="8.296935"><ele>128.25</ele><time>2026-03-29T16:25:12.004Z</time></trkpt><trkpt lat="44.8977117" lon="8.296755"><ele>126.5</ele><time>2026-03-29T16:25:13.003Z</time></trkpt><trkpt lat="44.89763" lon="8.2965817"><ele>124.75</ele><time>2026-03-29T16:25:14.002Z</time></trkpt><trkpt lat="44.89755" lon="8.296405"><ele>123.0</ele><time>2026-03-29T16:25:15.003Z</time></trkpt><trkpt lat="44.8974767" lon="8.296235"><ele>121.80000000000001</ele><time>2026-03-29T16:25:16.003Z</time></trkpt><trkpt lat="44.89741" lon="8.2960883"><ele>120.60000000000001</ele><time>2026-03-29T16:25:17.007Z</time></trkpt><trkpt lat="44.8973533" lon="8.2959567"><ele>119.39999999999999</ele><time>2026-03-29T16:25:18.002Z</time></trkpt><trkpt lat="44.897315" lon="8.2958633"><ele>118.19999999999999</ele><time>2026-03-29T16:25:19.006Z</time></trkpt><trkpt lat="44.8972817" lon="8.295775"><ele>117.0</ele><time>2026-03-29T16:25:20.007Z</time></trkpt><trkpt lat="44.8972717" lon="8.2956233"><ele>117.0</ele><time>2026-03-29T16:25:22.004Z</time></trkpt><trkpt lat="44.89733" lon="8.295565"><ele>116.99999999999999</ele><time>2026-03-29T16:25:23.003Z</time></trkpt><trkpt lat="44.8973867" lon="8.2954933"><ele>116.99999999999999</ele><time>2026-03-29T16:25:24.004Z</time></trkpt><trkpt lat="44.8974917" lon="8.2953633"><ele>117.0</ele><time>2026-03-29T16:25:25.004Z</time></trkpt><trkpt lat="44.897605" lon="8.2952083"><ele>117.0</ele><time>2026-03-29T16:25:26.003Z</time></trkpt><trkpt lat="44.89775" lon="8.2950367"><ele>117.0</ele><time>2026-03-29T16:25:27.002Z</time></trkpt><trkpt lat="44.8979067" lon="8.2948533"><ele>117.0</ele><time>2026-03-29T16:25:28.006Z</time></trkpt><trkpt lat="44.8980717" lon="8.294655"><ele>117.0</ele><time>2026-03-29T16:25:29.001Z</time></trkpt><trkpt lat="44.8982517" lon="8.2944433"><ele>117.0</ele><time>2026-03-29T16:25:30.005Z</time></trkpt><trkpt lat="44.8984383" lon="8.2942283"><ele>117.0</ele><time>2026-03-29T16:25:31.005Z</time></trkpt><trkpt lat="44.89863" lon="8.29401"><ele>116.5</ele><time>2026-03-29T16:25:32.004Z</time></trkpt><trkpt lat="44.8988233" lon="8.293785"><ele>116.0</ele><time>2026-03-29T16:25:33.003Z</time></trkpt><trkpt lat="44.8990267" lon="8.2935533"><ele>116.0</ele><time>2026-03-29T16:25:34.005Z</time></trkpt><trkpt lat="44.899225" lon="8.29332"><ele>116.0</ele><time>2026-03-29T16:25:35.005Z</time></trkpt><trkpt lat="44.8994133" lon="8.2930967"><ele>115.5</ele><time>2026-03-29T16:25:36.006Z</time></trkpt><trkpt lat="44.8995917" lon="8.292885"><ele>115.0</ele><time>2026-03-29T16:25:37.002Z</time></trkpt><trkpt lat="44.8997617" lon="8.2926833"><ele>115.0</ele><time>2026-03-29T16:25:38.004Z</time></trkpt><trkpt lat="44.8999217" lon="8.2924917"><ele>115.0</ele><time>2026-03-29T16:25:39.005Z</time></trkpt><trkpt lat="44.9000717" lon="8.29231"><ele>115.0</ele><time>2026-03-29T16:25:40.004Z</time></trkpt><trkpt lat="44.9002133" lon="8.292145"><ele>115.5</ele><time>2026-03-29T16:25:41.005Z</time></trkpt><trkpt lat="44.900345" lon="8.291995"><ele>116.0</ele><time>2026-03-29T16:25:42.005Z</time></trkpt><trkpt lat="44.90046" lon="8.2918617"><ele>116.5</ele><time>2026-03-29T16:25:43.007Z</time></trkpt><trkpt lat="44.9005517" lon="8.291755"><ele>117.0</ele><time>2026-03-29T16:25:44.009Z</time></trkpt><trkpt lat="44.9006233" lon="8.291685"><ele>117.0</ele><time>2026-03-29T16:25:45.003Z</time></trkpt><trkpt lat="44.9006917" lon="8.2916233"><ele>117.0</ele><time>2026-03-29T16:25:46.006Z</time></trkpt><trkpt lat="44.90076" lon="8.2915867"><ele>117.0</ele><time>2026-03-29T16:25:47.005Z</time></trkpt><trkpt lat="44.9008333" lon="8.2915867"><ele>117.0</ele><time>2026-03-29T16:25:48.007Z</time></trkpt><trkpt lat="44.90092" lon="8.29162"><ele>117.0</ele><time>2026-03-29T16:25:49.003Z</time></trkpt><trkpt lat="44.901015" lon="8.2916383"><ele>117.0</ele><time>2026-03-29T16:25:50.006Z</time></trkpt><trkpt lat="44.9011033" lon="8.291645"><ele>117.66666666666667</ele><time>2026-03-29T16:25:51.006Z</time></trkpt><trkpt lat="44.901185" lon="8.2916583"><ele>118.33333333333334</ele><time>2026-03-29T16:25:52.005Z</time></trkpt><trkpt lat="44.9012633" lon="8.2916617"><ele>119.0</ele><time>2026-03-29T16:25:53.001Z</time></trkpt><trkpt lat="44.9013417" lon="8.2916617"><ele>119.66666666666667</ele><time>2026-03-29T16:25:54.002Z</time></trkpt><trkpt lat="44.9014167" lon="8.2916517"><ele>120.33333333333334</ele><time>2026-03-29T16:25:55.005Z</time></trkpt><trkpt lat="44.9015" lon="8.29164"><ele>121.0</ele><time>2026-03-29T16:25:56.003Z</time></trkpt><trkpt lat="44.9015817" lon="8.2916133"><ele>121.0</ele><time>2026-03-29T16:25:57.003Z</time></trkpt><trkpt lat="44.901665" lon="8.2915517"><ele>121.0</ele><time>2026-03-29T16:25:58.002Z</time></trkpt><trkpt lat="44.9017483" lon="8.2914867"><ele>121.0</ele><time>2026-03-29T16:25:59.002Z</time></trkpt><trkpt lat="44.9018317" lon="8.2914167"><ele>121.0</ele><time>2026-03-29T16:26:00.007Z</time></trkpt><trkpt lat="44.901915" lon="8.2913433"><ele>121.0</ele><time>2026-03-29T16:26:01.006Z</time></trkpt><trkpt lat="44.9020017" lon="8.2912667"><ele>120.4</ele><time>2026-03-29T16:26:02.009Z</time></trkpt><trkpt lat="44.9020883" lon="8.2911833"><ele>119.8</ele><time>2026-03-29T16:26:03.004Z</time></trkpt><trkpt lat="44.9021817" lon="8.2910967"><ele>119.20000000000002</ele><time>2026-03-29T16:26:04.006Z</time></trkpt><trkpt lat="44.902265" lon="8.2910083"><ele>118.60000000000001</ele><time>2026-03-29T16:26:05.009Z</time></trkpt><trkpt lat="44.9023383" lon="8.2909217"><ele>118.0</ele><time>2026-03-29T16:26:06.003Z</time></trkpt><trkpt lat="44.902405" lon="8.2908417"><ele>118.00000000000001</ele><time>2026-03-29T16:26:07.008Z</time></trkpt><trkpt lat="44.9024717" lon="8.2907717"><ele>118.0</ele><time>2026-03-29T16:26:08.004Z</time></trkpt><trkpt lat="44.9025333" lon="8.2907033"><ele>118.0</ele><time>2026-03-29T16:26:09.004Z</time></trkpt><trkpt lat="44.9025967" lon="8.2906367"><ele>118.0</ele><time>2026-03-29T16:26:10.004Z</time></trkpt><trkpt lat="44.9026667" lon="8.2905783"><ele>118.00000000000001</ele><time>2026-03-29T16:26:11.004Z</time></trkpt><trkpt lat="44.90273" lon="8.2905133"><ele>118.0</ele><time>2026-03-29T16:26:12.006Z</time></trkpt><trkpt lat="44.9028" lon="8.290445"><ele>118.0</ele><time>2026-03-29T16:26:13.004Z</time></trkpt><trkpt lat="44.9028733" lon="8.2903717"><ele>118.00000000000001</ele><time>2026-03-29T16:26:14.003Z</time></trkpt><trkpt lat="44.902945" lon="8.2902967"><ele>118.00000000000001</ele><time>2026-03-29T16:26:15.002Z</time></trkpt><trkpt lat="44.903025" lon="8.290225"><ele>118.0</ele><time>2026-03-29T16:26:16.004Z</time></trkpt><trkpt lat="44.9031033" lon="8.2901517"><ele>118.0</ele><time>2026-03-29T16:26:17.004Z</time></trkpt><trkpt lat="44.9031867" lon="8.2900717"><ele>118.0</ele><time>2026-03-29T16:26:18.003Z</time></trkpt><trkpt lat="44.9032733" lon="8.2899883"><ele>118.00000000000001</ele><time>2026-03-29T16:26:19.005Z</time></trkpt><trkpt lat="44.9033567" lon="8.28991"><ele>118.00000000000001</ele><time>2026-03-29T16:26:20.005Z</time></trkpt><trkpt lat="44.9034417" lon="8.2898317"><ele>118.0</ele><time>2026-03-29T16:26:21.005Z</time></trkpt><trkpt lat="44.903525" lon="8.28975"><ele>118.0</ele><time>2026-03-29T16:26:22.003Z</time></trkpt><trkpt lat="44.903605" lon="8.2896683"><ele>118.0</ele><time>2026-03-29T16:26:23.002Z</time></trkpt><trkpt lat="44.9036867" lon="8.2895933"><ele>118.00000000000001</ele><time>2026-03-29T16:26:24.005Z</time></trkpt><trkpt lat="44.9037717" lon="8.28952"><ele>118.00000000000001</ele><time>2026-03-29T16:26:25.002Z</time></trkpt><trkpt lat="44.903855" lon="8.28945"><ele>118.0</ele><time>2026-03-29T16:26:26.003Z</time></trkpt><trkpt lat="44.90394" lon="8.28939"><ele>118.0</ele><time>2026-03-29T16:26:27.006Z</time></trkpt><trkpt lat="44.9040267" lon="8.2893367"><ele>118.0</ele><time>2026-03-29T16:26:28.005Z</time></trkpt><trkpt lat="44.904115" lon="8.289295"><ele>118.00000000000001</ele><time>2026-03-29T16:26:29.007Z</time></trkpt><trkpt lat="44.9042117" lon="8.2892667"><ele>118.00000000000001</ele><time>2026-03-29T16:26:30.014Z</time></trkpt><trkpt lat="44.90431" lon="8.2892283"><ele>118.0</ele><time>2026-03-29T16:26:31.006Z</time></trkpt><trkpt lat="44.9044117" lon="8.2891833"><ele>118.0</ele><time>2026-03-29T16:26:32.005Z</time></trkpt><trkpt lat="44.904515" lon="8.2891267"><ele>118.5</ele><time>2026-03-29T16:26:33.004Z</time></trkpt><trkpt lat="44.9046217" lon="8.2890567"><ele>119.0</ele><time>2026-03-29T16:26:34Z</time></trkpt><trkpt lat="44.904725" lon="8.2889733"><ele>119.5</ele><time>2026-03-29T16:26:35.007Z</time></trkpt><trkpt lat="44.90483" lon="8.2888983"><ele>120.0</ele><time>2026-03-29T16:26:36.005Z</time></trkpt><trkpt lat="44.9049283" lon="8.2888083"><ele>120.0</ele><time>2026-03-29T16:26:37.002Z</time></trkpt><trkpt lat="44.90503" lon="8.28872"><ele>120.0</ele><time>2026-03-29T16:26:38.004Z</time></trkpt><trkpt lat="44.905125" lon="8.288635"><ele>120.0</ele><time>2026-03-29T16:26:39.004Z</time></trkpt><trkpt lat="44.9052233" lon="8.2885633"><ele>120.0</ele><time>2026-03-29T16:26:40Z</time></trkpt><trkpt lat="44.9053267" lon="8.2884967"><ele>121.0</ele><time>2026-03-29T16:26:41.004Z</time></trkpt><trkpt lat="44.9054233" lon="8.2884333"><ele>122.0</ele><time>2026-03-29T16:26:42.006Z</time></trkpt><trkpt lat="44.9055183" lon="8.2883933"><ele>123.0</ele><time>2026-03-29T16:26:43.003Z</time></trkpt><trkpt lat="44.905605" lon="8.28836"><ele>124.0</ele><time>2026-03-29T16:26:44.002Z</time></trkpt><trkpt lat="44.9056833" lon="8.2883367"><ele>125.0</ele><time>2026-03-29T16:26:45.005Z</time></trkpt><trkpt lat="44.90576" lon="8.288315"><ele>124.99999999999999</ele><time>2026-03-29T16:26:46.003Z</time></trkpt><trkpt lat="44.9058317" lon="8.2882917"><ele>125.0</ele><time>2026-03-29T16:26:47.003Z</time></trkpt><trkpt lat="44.9058967" lon="8.288265"><ele>125.0</ele><time>2026-03-29T16:26:48.007Z</time></trkpt><trkpt lat="44.9059933" lon="8.2882217"><ele>125.0</ele><time>2026-03-29T16:26:50.006Z</time></trkpt><trkpt lat="44.9060633" lon="8.2881717"><ele>124.99999999999999</ele><time>2026-03-29T16:26:52.004Z</time></trkpt><trkpt lat="44.9061783" lon="8.2881017"><ele>125.0</ele><time>2026-03-29T16:26:54.005Z</time></trkpt><trkpt lat="44.9062517" lon="8.2880617"><ele>124.83333333333333</ele><time>2026-03-29T16:26:55.01Z</time></trkpt><trkpt lat="44.906325" lon="8.28802"><ele>124.66666666666666</ele><time>2026-03-29T16:26:56.004Z</time></trkpt><trkpt lat="44.9063917" lon="8.2879833"><ele>124.5</ele><time>2026-03-29T16:26:57.005Z</time></trkpt><trkpt lat="44.90645" lon="8.2879417"><ele>124.33333333333334</ele><time>2026-03-29T16:26:58.005Z</time></trkpt><trkpt lat="44.9065333" lon="8.2878783"><ele>124.16666666666667</ele><time>2026-03-29T16:27:00.01Z</time></trkpt><trkpt lat="44.9065917" lon="8.2878233"><ele>124.0</ele><time>2026-03-29T16:27:02.008Z</time></trkpt><trkpt lat="44.9066583" lon="8.2877583"><ele>124.0</ele><time>2026-03-29T16:27:05.008Z</time></trkpt><trkpt lat="44.906735" lon="8.28767"><ele>124.0</ele><time>2026-03-29T16:27:08.003Z</time></trkpt><trkpt lat="44.90683" lon="8.2875417"><ele>124.0</ele><time>2026-03-29T16:27:10.004Z</time></trkpt><trkpt lat="44.9068867" lon="8.2874667"><ele>124.0</ele><time>2026-03-29T16:27:11.006Z</time></trkpt><trkpt lat="44.9069483" lon="8.287385"><ele>124.0</ele><time>2026-03-29T16:27:12.005Z</time></trkpt><trkpt lat="44.90702" lon="8.287305"><ele>123.66666666666667</ele><time>2026-03-29T16:27:13.005Z</time></trkpt><trkpt lat="44.907095" lon="8.287225"><ele>123.33333333333334</ele><time>2026-03-29T16:27:14.005Z</time></trkpt><trkpt lat="44.9071633" lon="8.2871433"><ele>123.0</ele><time>2026-03-29T16:27:15.008Z</time></trkpt><trkpt lat="44.9072317" lon="8.2870567"><ele>122.66666666666666</ele><time>2026-03-29T16:27:16.003Z</time></trkpt><trkpt lat="44.90729" lon="8.28697"><ele>122.33333333333333</ele><time>2026-03-29T16:27:17.003Z</time></trkpt><trkpt lat="44.9073483" lon="8.28689"><ele>122.0</ele><time>2026-03-29T16:27:18.008Z</time></trkpt><trkpt lat="44.907415" lon="8.2868167"><ele>122.0</ele><time>2026-03-29T16:27:19.002Z</time></trkpt><trkpt lat="44.9074867" lon="8.2867433"><ele>121.99999999999999</ele><time>2026-03-29T16:27:20.004Z</time></trkpt><trkpt lat="44.90756" lon="8.2866567"><ele>121.99999999999999</ele><time>2026-03-29T16:27:21.005Z</time></trkpt><trkpt lat="44.907625" lon="8.28656"><ele>122.0</ele><time>2026-03-29T16:27:22.005Z</time></trkpt><trkpt lat="44.9076917" lon="8.2864567"><ele>122.0</ele><time>2026-03-29T16:27:23.004Z</time></trkpt><trkpt lat="44.9077567" lon="8.286365"><ele>122.19999999999999</ele><time>2026-03-29T16:27:24.004Z</time></trkpt><trkpt lat="44.9078267" lon="8.2862683"><ele>122.39999999999999</ele><time>2026-03-29T16:27:25.003Z</time></trkpt><trkpt lat="44.9078933" lon="8.28618"><ele>122.60000000000001</ele><time>2026-03-29T16:27:26.006Z</time></trkpt><trkpt lat="44.9079633" lon="8.2860983"><ele>122.80000000000001</ele><time>2026-03-29T16:27:27.005Z</time></trkpt><trkpt lat="44.9080317" lon="8.28602"><ele>123.0</ele><time>2026-03-29T16:27:28.004Z</time></trkpt><trkpt lat="44.9080983" lon="8.2859417"><ele>123.0</ele><time>2026-03-29T16:27:29.003Z</time></trkpt><trkpt lat="44.9081667" lon="8.2858667"><ele>123.0</ele><time>2026-03-29T16:27:30.004Z</time></trkpt><trkpt lat="44.9082317" lon="8.2857883"><ele>123.0</ele><time>2026-03-29T16:27:31.007Z</time></trkpt><trkpt lat="44.9082833" lon="8.2857033"><ele>123.0</ele><time>2026-03-29T16:27:32.007Z</time></trkpt><trkpt lat="44.9083333" lon="8.2856367"><ele>123.0</ele><time>2026-03-29T16:27:33.009Z</time></trkpt><trkpt lat="44.908405" lon="8.2855467"><ele>123.0</ele><time>2026-03-29T16:27:35.003Z</time></trkpt><trkpt lat="44.9084967" lon="8.2855917"><ele>123.4</ele><time>2026-03-29T16:27:41.004Z</time></trkpt><trkpt lat="44.9085483" lon="8.2856667"><ele>123.80000000000001</ele><time>2026-03-29T16:27:42.005Z</time></trkpt><trkpt lat="44.9086067" lon="8.2857333"><ele>124.2</ele><time>2026-03-29T16:27:43.007Z</time></trkpt><trkpt lat="44.90867" lon="8.2858383"><ele>124.6</ele><time>2026-03-29T16:27:44.004Z</time></trkpt><trkpt lat="44.9087317" lon="8.2859433"><ele>125.0</ele><time>2026-03-29T16:27:45.004Z</time></trkpt><trkpt lat="44.9088033" lon="8.2860833"><ele>125.0</ele><time>2026-03-29T16:27:46.005Z</time></trkpt><trkpt lat="44.908885" lon="8.2862183"><ele>125.0</ele><time>2026-03-29T16:27:47.006Z</time></trkpt><trkpt lat="44.9089683" lon="8.2863783"><ele>125.0</ele><time>2026-03-29T16:27:48.001Z</time></trkpt><trkpt lat="44.9090533" lon="8.286545"><ele>125.0</ele><time>2026-03-29T16:27:49.007Z</time></trkpt><trkpt lat="44.9091483" lon="8.2867217"><ele>126.66666666666666</ele><time>2026-03-29T16:27:50.006Z</time></trkpt><trkpt lat="44.90925" lon="8.2869067"><ele>128.33333333333334</ele><time>2026-03-29T16:27:51.007Z</time></trkpt><trkpt lat="44.9093483" lon="8.2870933"><ele>130.0</ele><time>2026-03-29T16:27:52.003Z</time></trkpt><trkpt lat="44.9094467" lon="8.2872667"><ele>130.0</ele><time>2026-03-29T16:27:53.003Z</time></trkpt><trkpt lat="44.9095517" lon="8.2874383"><ele>130.0</ele><time>2026-03-29T16:27:54.006Z</time></trkpt><trkpt lat="44.9096633" lon="8.2876017"><ele>130.0</ele><time>2026-03-29T16:27:55.005Z</time></trkpt><trkpt lat="44.9097683" lon="8.2877733"><ele>130.0</ele><time>2026-03-29T16:27:56.005Z</time></trkpt><trkpt lat="44.90987" lon="8.2879467"><ele>130.0</ele><time>2026-03-29T16:27:57.007Z</time></trkpt><trkpt lat="44.909975" lon="8.28812"><ele>130.0</ele><time>2026-03-29T16:27:58.005Z</time></trkpt><trkpt lat="44.91008" lon="8.2882917"><ele>130.0</ele><time>2026-03-29T16:27:59.005Z</time></trkpt><trkpt lat="44.910185" lon="8.2884767"><ele>130.0</ele><time>2026-03-29T16:28:00.007Z</time></trkpt><trkpt lat="44.91029" lon="8.2886467"><ele>130.0</ele><time>2026-03-29T16:28:01.008Z</time></trkpt><trkpt lat="44.91039" lon="8.288815"><ele>130.0</ele><time>2026-03-29T16:28:02.005Z</time></trkpt><trkpt lat="44.910485" lon="8.288995"><ele>130.0</ele><time>2026-03-29T16:28:03.004Z</time></trkpt><trkpt lat="44.9105883" lon="8.2891817"><ele>130.0</ele><time>2026-03-29T16:28:04.002Z</time></trkpt><trkpt lat="44.9106917" lon="8.2893617"><ele>130.0</ele><time>2026-03-29T16:28:05Z</time></trkpt><trkpt lat="44.9107967" lon="8.2895333"><ele>130.0</ele><time>2026-03-29T16:28:06.004Z</time></trkpt><trkpt lat="44.9108967" lon="8.2897083"><ele>130.0</ele><time>2026-03-29T16:28:07.006Z</time></trkpt><trkpt lat="44.9109967" lon="8.2898783"><ele>130.33333333333334</ele><time>2026-03-29T16:28:08.002Z</time></trkpt><trkpt lat="44.9110967" lon="8.2900417"><ele>130.66666666666666</ele><time>2026-03-29T16:28:09.001Z</time></trkpt><trkpt lat="44.9112033" lon="8.2902133"><ele>131.0</ele><time>2026-03-29T16:28:10.002Z</time></trkpt><trkpt lat="44.9113067" lon="8.2903817"><ele>131.0</ele><time>2026-03-29T16:28:11.003Z</time></trkpt><trkpt lat="44.9114083" lon="8.2905567"><ele>131.0</ele><time>2026-03-29T16:28:12.006Z</time></trkpt><trkpt lat="44.91151" lon="8.2907383"><ele>131.0</ele><time>2026-03-29T16:28:13.004Z</time></trkpt><trkpt lat="44.9116067" lon="8.2909217"><ele>131.0</ele><time>2026-03-29T16:28:14.006Z</time></trkpt><trkpt lat="44.9117067" lon="8.291085"><ele>131.0</ele><time>2026-03-29T16:28:15.006Z</time></trkpt><trkpt lat="44.9118067" lon="8.2912533"><ele>131.0</ele><time>2026-03-29T16:28:16.008Z</time></trkpt><trkpt lat="44.9119133" lon="8.2914283"><ele>129.66666666666666</ele><time>2026-03-29T16:28:17.004Z</time></trkpt><trkpt lat="44.9120267" lon="8.2916233"><ele>128.33333333333334</ele><time>2026-03-29T16:28:18.005Z</time></trkpt><trkpt lat="44.912155" lon="8.2918417"><ele>127.0</ele><time>2026-03-29T16:28:19.007Z</time></trkpt><trkpt lat="44.91229" lon="8.2920667"><ele>127.5</ele><time>2026-03-29T16:28:20.007Z</time></trkpt><trkpt lat="44.91243" lon="8.2923083"><ele>128.0</ele><time>2026-03-29T16:28:21.005Z</time></trkpt><trkpt lat="44.9125767" lon="8.2925683"><ele>128.0</ele><time>2026-03-29T16:28:22.003Z</time></trkpt><trkpt lat="44.9127267" lon="8.292825"><ele>128.0</ele><time>2026-03-29T16:28:23.004Z</time></trkpt><trkpt lat="44.9128767" lon="8.2930767"><ele>128.33333333333331</ele><time>2026-03-29T16:28:24.006Z</time></trkpt><trkpt lat="44.9130183" lon="8.2933133"><ele>128.66666666666666</ele><time>2026-03-29T16:28:25.009Z</time></trkpt><trkpt lat="44.9131583" lon="8.2935417"><ele>129.0</ele><time>2026-03-29T16:28:26.004Z</time></trkpt><trkpt lat="44.913295" lon="8.2937667"><ele>130.66666666666666</ele><time>2026-03-29T16:28:27.006Z</time></trkpt><trkpt lat="44.9134317" lon="8.2939917"><ele>132.33333333333331</ele><time>2026-03-29T16:28:28.003Z</time></trkpt><trkpt lat="44.913565" lon="8.29422"><ele>134.0</ele><time>2026-03-29T16:28:29.003Z</time></trkpt><trkpt lat="44.9136967" lon="8.2944467"><ele>134.0</ele><time>2026-03-29T16:28:30.008Z</time></trkpt><trkpt lat="44.9138283" lon="8.29467"><ele>134.0</ele><time>2026-03-29T16:28:31.007Z</time></trkpt><trkpt lat="44.91396" lon="8.29489"><ele>134.0</ele><time>2026-03-29T16:28:32.007Z</time></trkpt><trkpt lat="44.9140883" lon="8.2951083"><ele>133.33333333333331</ele><time>2026-03-29T16:28:33.004Z</time></trkpt><trkpt lat="44.9142167" lon="8.2953217"><ele>132.66666666666666</ele><time>2026-03-29T16:28:34.003Z</time></trkpt><trkpt lat="44.91434" lon="8.2955267"><ele>132.0</ele><time>2026-03-29T16:28:35.005Z</time></trkpt><trkpt lat="44.9144583" lon="8.2957217"><ele>134.0</ele><time>2026-03-29T16:28:36.005Z</time></trkpt><trkpt lat="44.9145717" lon="8.2959067"><ele>136.0</ele><time>2026-03-29T16:28:37.008Z</time></trkpt><trkpt lat="44.91468" lon="8.2960917"><ele>138.0</ele><time>2026-03-29T16:28:38.002Z</time></trkpt><trkpt lat="44.91479" lon="8.2962717"><ele>137.0</ele><time>2026-03-29T16:28:39.002Z</time></trkpt><trkpt lat="44.9149" lon="8.2964467"><ele>136.0</ele><time>2026-03-29T16:28:40.008Z</time></trkpt><trkpt lat="44.9150067" lon="8.2966183"><ele>135.0</ele><time>2026-03-29T16:28:41.009Z</time></trkpt><trkpt lat="44.9151117" lon="8.296785"><ele>136.33333333333334</ele><time>2026-03-29T16:28:42.011Z</time></trkpt><trkpt lat="44.91521" lon="8.296955"><ele>137.66666666666669</ele><time>2026-03-29T16:28:43.006Z</time></trkpt><trkpt lat="44.91532" lon="8.2971133"><ele>139.0</ele><time>2026-03-29T16:28:44.007Z</time></trkpt><trkpt lat="44.9154317" lon="8.2972633"><ele>139.0</ele><time>2026-03-29T16:28:45.005Z</time></trkpt><trkpt lat="44.9155517" lon="8.2974"><ele>139.0</ele><time>2026-03-29T16:28:46.005Z</time></trkpt><trkpt lat="44.9156817" lon="8.2975133"><ele>139.0</ele><time>2026-03-29T16:28:47.005Z</time></trkpt><trkpt lat="44.915815" lon="8.2976133"><ele>139.5</ele><time>2026-03-29T16:28:48.004Z</time></trkpt><trkpt lat="44.9159517" lon="8.2976917"><ele>140.0</ele><time>2026-03-29T16:28:49.007Z</time></trkpt><trkpt lat="44.9160917" lon="8.29776"><ele>140.5</ele><time>2026-03-29T16:28:50.005Z</time></trkpt><trkpt lat="44.916235" lon="8.297805"><ele>141.0</ele><time>2026-03-29T16:28:51.009Z</time></trkpt><trkpt lat="44.9163717" lon="8.2978567"><ele>141.0</ele><time>2026-03-29T16:28:52.005Z</time></trkpt><trkpt lat="44.9165033" lon="8.2979117"><ele>141.0</ele><time>2026-03-29T16:28:53.005Z</time></trkpt><trkpt lat="44.9166217" lon="8.297985"><ele>141.0</ele><time>2026-03-29T16:28:54.007Z</time></trkpt><trkpt lat="44.9167467" lon="8.2980283"><ele>141.0</ele><time>2026-03-29T16:28:55.003Z</time></trkpt><trkpt lat="44.9168667" lon="8.2980683"><ele>140.0</ele><time>2026-03-29T16:28:56.004Z</time></trkpt><trkpt lat="44.9169867" lon="8.2981117"><ele>139.0</ele><time>2026-03-29T16:28:57.005Z</time></trkpt><trkpt lat="44.917105" lon="8.2981517"><ele>138.0</ele><time>2026-03-29T16:28:58.003Z</time></trkpt><trkpt lat="44.917225" lon="8.2981783"><ele>137.0</ele><time>2026-03-29T16:28:59.006Z</time></trkpt><trkpt lat="44.9173433" lon="8.29821"><ele>137.0</ele><time>2026-03-29T16:29:00.009Z</time></trkpt><trkpt lat="44.917455" lon="8.2982467"><ele>137.0</ele><time>2026-03-29T16:29:01.005Z</time></trkpt><trkpt lat="44.91757" lon="8.298295"><ele>137.0</ele><time>2026-03-29T16:29:02.006Z</time></trkpt><trkpt lat="44.9176917" lon="8.2983633"><ele>137.0</ele><time>2026-03-29T16:29:03.004Z</time></trkpt><trkpt lat="44.9178133" lon="8.2984333"><ele>138.0</ele><time>2026-03-29T16:29:04.005Z</time></trkpt><trkpt lat="44.91794" lon="8.2984833"><ele>139.0</ele><time>2026-03-29T16:29:05.005Z</time></trkpt><trkpt lat="44.9180667" lon="8.2985317"><ele>140.0</ele><time>2026-03-29T16:29:06.006Z</time></trkpt><trkpt lat="44.9181933" lon="8.29858"><ele>141.0</ele><time>2026-03-29T16:29:07.003Z</time></trkpt><trkpt lat="44.91833" lon="8.2986317"><ele>143.0</ele><time>2026-03-29T16:29:08.004Z</time></trkpt><trkpt lat="44.918455" lon="8.2986833"><ele>145.0</ele><time>2026-03-29T16:29:09.002Z</time></trkpt><trkpt lat="44.91858" lon="8.29873"><ele>147.0</ele><time>2026-03-29T16:29:10.005Z</time></trkpt><trkpt lat="44.9187" lon="8.2987883"><ele>149.0</ele><time>2026-03-29T16:29:11.003Z</time></trkpt><trkpt lat="44.9188217" lon="8.2988317"><ele>149.0</ele><time>2026-03-29T16:29:12.003Z</time></trkpt><trkpt lat="44.9189383" lon="8.298875"><ele>149.0</ele><time>2026-03-29T16:29:13.005Z</time></trkpt><trkpt lat="44.9190517" lon="8.2989167"><ele>149.0</ele><time>2026-03-29T16:29:14.005Z</time></trkpt><trkpt lat="44.91917" lon="8.2989533"><ele>149.0</ele><time>2026-03-29T16:29:15.002Z</time></trkpt><trkpt lat="44.9192883" lon="8.2989917"><ele>146.5</ele><time>2026-03-29T16:29:16.005Z</time></trkpt><trkpt lat="44.9194067" lon="8.2990317"><ele>144.0</ele><time>2026-03-29T16:29:17.003Z</time></trkpt><trkpt lat="44.9195217" lon="8.2990783"><ele>141.5</ele><time>2026-03-29T16:29:18.007Z</time></trkpt><trkpt lat="44.919635" lon="8.2991267"><ele>139.0</ele><time>2026-03-29T16:29:19.005Z</time></trkpt><trkpt lat="44.9197517" lon="8.299165"><ele>139.0</ele><time>2026-03-29T16:29:20.003Z</time></trkpt><trkpt lat="44.9198683" lon="8.2992067"><ele>139.0</ele><time>2026-03-29T16:29:21.003Z</time></trkpt><trkpt lat="44.9199817" lon="8.2992433"><ele>139.0</ele><time>2026-03-29T16:29:22.006Z</time></trkpt><trkpt lat="44.92009" lon="8.2992767"><ele>139.0</ele><time>2026-03-29T16:29:23.005Z</time></trkpt><trkpt lat="44.920195" lon="8.2993233"><ele>139.0</ele><time>2026-03-29T16:29:24.004Z</time></trkpt><trkpt lat="44.9203" lon="8.2993517"><ele>139.0</ele><time>2026-03-29T16:29:25.004Z</time></trkpt><trkpt lat="44.9204167" lon="8.2993583"><ele>139.0</ele><time>2026-03-29T16:29:26.006Z</time></trkpt><trkpt lat="44.9205383" lon="8.2993417"><ele>139.0</ele><time>2026-03-29T16:29:27.007Z</time></trkpt><trkpt lat="44.9206617" lon="8.299315"><ele>139.0</ele><time>2026-03-29T16:29:28.006Z</time></trkpt><trkpt lat="44.920785" lon="8.2992983"><ele>139.0</ele><time>2026-03-29T16:29:29.006Z</time></trkpt><trkpt lat="44.92091" lon="8.29926"><ele>139.0</ele><time>2026-03-29T16:29:30.008Z</time></trkpt><trkpt lat="44.9210417" lon="8.29923"><ele>139.0</ele><time>2026-03-29T16:29:31.005Z</time></trkpt><trkpt lat="44.9211733" lon="8.2992"><ele>138.0</ele><time>2026-03-29T16:29:32.004Z</time></trkpt><trkpt lat="44.9213033" lon="8.29917"><ele>137.0</ele><time>2026-03-29T16:29:33.006Z</time></trkpt><trkpt lat="44.921435" lon="8.29914"><ele>136.0</ele><time>2026-03-29T16:29:34.007Z</time></trkpt><trkpt lat="44.9215683" lon="8.2991117"><ele>135.0</ele><time>2026-03-29T16:29:35.004Z</time></trkpt><trkpt lat="44.9217017" lon="8.2990783"><ele>135.75</ele><time>2026-03-29T16:29:36.006Z</time></trkpt><trkpt lat="44.9218367" lon="8.2990467"><ele>136.5</ele><time>2026-03-29T16:29:37.005Z</time></trkpt><trkpt lat="44.92197" lon="8.2990133"><ele>137.25</ele><time>2026-03-29T16:29:38.003Z</time></trkpt><trkpt lat="44.9221017" lon="8.2989667"><ele>138.0</ele><time>2026-03-29T16:29:39.004Z</time></trkpt><trkpt lat="44.922235" lon="8.2989217"><ele>138.75</ele><time>2026-03-29T16:29:40.008Z</time></trkpt><trkpt lat="44.92236" lon="8.2988717"><ele>139.5</ele><time>2026-03-29T16:29:41.002Z</time></trkpt><trkpt lat="44.9224917" lon="8.29884"><ele>140.25</ele><time>2026-03-29T16:29:42.004Z</time></trkpt><trkpt lat="44.92262" lon="8.298825"><ele>141.0</ele><time>2026-03-29T16:29:43.007Z</time></trkpt><trkpt lat="44.9227467" lon="8.2987983"><ele>141.0</ele><time>2026-03-29T16:29:44.007Z</time></trkpt><trkpt lat="44.9228717" lon="8.2987767"><ele>141.0</ele><time>2026-03-29T16:29:45.003Z</time></trkpt><trkpt lat="44.9229933" lon="8.2987533"><ele>141.0</ele><time>2026-03-29T16:29:46.007Z</time></trkpt><trkpt lat="44.9231133" lon="8.2987267"><ele>141.0</ele><time>2026-03-29T16:29:47.007Z</time></trkpt><trkpt lat="44.9232433" lon="8.2986983"><ele>141.0</ele><time>2026-03-29T16:29:48.008Z</time></trkpt><trkpt lat="44.92338" lon="8.2986667"><ele>141.0</ele><time>2026-03-29T16:29:49.006Z</time></trkpt><trkpt lat="44.92352" lon="8.298635"><ele>141.0</ele><time>2026-03-29T16:29:50.01Z</time></trkpt><trkpt lat="44.9236667" lon="8.2985983"><ele>141.0</ele><time>2026-03-29T16:29:51.007Z</time></trkpt><trkpt lat="44.9238117" lon="8.29857"><ele>141.0</ele><time>2026-03-29T16:29:52.007Z</time></trkpt><trkpt lat="44.9239633" lon="8.29854"><ele>141.0</ele><time>2026-03-29T16:29:53.006Z</time></trkpt><trkpt lat="44.9241183" lon="8.2985083"><ele>141.0</ele><time>2026-03-29T16:29:54.007Z</time></trkpt><trkpt lat="44.9242717" lon="8.2984683"><ele>141.33333333333334</ele><time>2026-03-29T16:29:55.006Z</time></trkpt><trkpt lat="44.9244233" lon="8.298425"><ele>141.66666666666669</ele><time>2026-03-29T16:29:56.003Z</time></trkpt><trkpt lat="44.9245767" lon="8.2983867"><ele>142.0</ele><time>2026-03-29T16:29:57.005Z</time></trkpt><trkpt lat="44.92473" lon="8.2983533"><ele>142.0</ele><time>2026-03-29T16:29:58.001Z</time></trkpt><trkpt lat="44.92488" lon="8.2983183"><ele>142.0</ele><time>2026-03-29T16:29:59.001Z</time></trkpt><trkpt lat="44.92503" lon="8.2982817"><ele>142.0</ele><time>2026-03-29T16:30:00.004Z</time></trkpt><trkpt lat="44.92519" lon="8.298245"><ele>141.66666666666669</ele><time>2026-03-29T16:30:01.003Z</time></trkpt><trkpt lat="44.9253567" lon="8.2982017"><ele>141.33333333333334</ele><time>2026-03-29T16:30:02.007Z</time></trkpt><trkpt lat="44.92554" lon="8.2981483"><ele>141.0</ele><time>2026-03-29T16:30:03.005Z</time></trkpt><trkpt lat="44.9257433" lon="8.298065"><ele>143.5</ele><time>2026-03-29T16:30:04.005Z</time></trkpt><trkpt lat="44.9259683" lon="8.2979633"><ele>146.0</ele><time>2026-03-29T16:30:05.005Z</time></trkpt><trkpt lat="44.9262117" lon="8.2978183"><ele>146.0</ele><time>2026-03-29T16:30:06.004Z</time></trkpt><trkpt lat="44.9264683" lon="8.2976633"><ele>146.0</ele><time>2026-03-29T16:30:07.003Z</time></trkpt><trkpt lat="44.926725" lon="8.2975133"><ele>144.5</ele><time>2026-03-29T16:30:08.002Z</time></trkpt><trkpt lat="44.9269733" lon="8.29737"><ele>143.0</ele><time>2026-03-29T16:30:09.008Z</time></trkpt><trkpt lat="44.927205" lon="8.297225"><ele>143.0</ele><time>2026-03-29T16:30:10.006Z</time></trkpt><trkpt lat="44.9274233" lon="8.2970933"><ele>143.0</ele><time>2026-03-29T16:30:11.005Z</time></trkpt><trkpt lat="44.92763" lon="8.2969767"><ele>143.0</ele><time>2026-03-29T16:30:12.005Z</time></trkpt><trkpt lat="44.9278267" lon="8.29686"><ele>143.0</ele><time>2026-03-29T16:30:13.003Z</time></trkpt><trkpt lat="44.9280167" lon="8.2967483"><ele>143.0</ele><time>2026-03-29T16:30:14.008Z</time></trkpt><trkpt lat="44.9282" lon="8.2966417"><ele>143.0</ele><time>2026-03-29T16:30:15.008Z</time></trkpt><trkpt lat="44.9283817" lon="8.296525"><ele>143.0</ele><time>2026-03-29T16:30:16.008Z</time></trkpt><trkpt lat="44.9285533" lon="8.2964333"><ele>143.0</ele><time>2026-03-29T16:30:17.004Z</time></trkpt><trkpt lat="44.92873" lon="8.2963283"><ele>143.33333333333331</ele><time>2026-03-29T16:30:18.008Z</time></trkpt><trkpt lat="44.9288983" lon="8.2962217"><ele>143.66666666666666</ele><time>2026-03-29T16:30:19.004Z</time></trkpt><trkpt lat="44.9290717" lon="8.2961233"><ele>144.0</ele><time>2026-03-29T16:30:20.004Z</time></trkpt><trkpt lat="44.92924" lon="8.2960217"><ele>144.0</ele><time>2026-03-29T16:30:21.008Z</time></trkpt><trkpt lat="44.9294133" lon="8.2959267"><ele>144.0</ele><time>2026-03-29T16:30:22.003Z</time></trkpt><trkpt lat="44.9295817" lon="8.2958333"><ele>144.0</ele><time>2026-03-29T16:30:23.008Z</time></trkpt><trkpt lat="44.929755" lon="8.2957333"><ele>144.0</ele><time>2026-03-29T16:30:24.008Z</time></trkpt><trkpt lat="44.929925" lon="8.295635"><ele>144.0</ele><time>2026-03-29T16:30:25.008Z</time></trkpt><trkpt lat="44.9300917" lon="8.2955333"><ele>144.0</ele><time>2026-03-29T16:30:26.008Z</time></trkpt><trkpt lat="44.9302617" lon="8.29543"><ele>145.33333333333334</ele><time>2026-03-29T16:30:27.006Z</time></trkpt><trkpt lat="44.9304333" lon="8.2953283"><ele>146.66666666666669</ele><time>2026-03-29T16:30:28.004Z</time></trkpt><trkpt lat="44.930605" lon="8.2952317"><ele>148.0</ele><time>2026-03-29T16:30:29.006Z</time></trkpt><trkpt lat="44.9307767" lon="8.2951267"><ele>148.0</ele><time>2026-03-29T16:30:30.003Z</time></trkpt><trkpt lat="44.9309517" lon="8.2950217"><ele>148.0</ele><time>2026-03-29T16:30:31.004Z</time></trkpt><trkpt lat="44.9311233" lon="8.29492"><ele>148.0</ele><time>2026-03-29T16:30:32.005Z</time></trkpt><trkpt lat="44.9312883" lon="8.2948217"><ele>147.66666666666669</ele><time>2026-03-29T16:30:33.002Z</time></trkpt><trkpt lat="44.931455" lon="8.294725"><ele>147.33333333333334</ele><time>2026-03-29T16:30:34.009Z</time></trkpt><trkpt lat="44.9316217" lon="8.2946183"><ele>147.0</ele><time>2026-03-29T16:30:35.002Z</time></trkpt><trkpt lat="44.9317867" lon="8.2945167"><ele>148.0</ele><time>2026-03-29T16:30:36.006Z</time></trkpt><trkpt lat="44.93195" lon="8.2944217"><ele>149.0</ele><time>2026-03-29T16:30:37.009Z</time></trkpt><trkpt lat="44.93211" lon="8.2943167"><ele>150.0</ele><time>2026-03-29T16:30:38.007Z</time></trkpt><trkpt lat="44.9322717" lon="8.2942133"><ele>150.0</ele><time>2026-03-29T16:30:39.004Z</time></trkpt><trkpt lat="44.93244" lon="8.29411"><ele>150.0</ele><time>2026-03-29T16:30:40.006Z</time></trkpt><trkpt lat="44.932605" lon="8.2940067"><ele>150.0</ele><time>2026-03-29T16:30:41.005Z</time></trkpt><trkpt lat="44.9327783" lon="8.2939083"><ele>149.66666666666666</ele><time>2026-03-29T16:30:42.005Z</time></trkpt><trkpt lat="44.9329467" lon="8.29381"><ele>149.33333333333331</ele><time>2026-03-29T16:30:43.003Z</time></trkpt><trkpt lat="44.9331167" lon="8.293705"><ele>149.0</ele><time>2026-03-29T16:30:44.005Z</time></trkpt><trkpt lat="44.9332867" lon="8.2936017"><ele>152.0</ele><time>2026-03-29T16:30:45.002Z</time></trkpt><trkpt lat="44.9334567" lon="8.2934983"><ele>155.0</ele><time>2026-03-29T16:30:46.006Z</time></trkpt><trkpt lat="44.9336267" lon="8.2933967"><ele>158.0</ele><time>2026-03-29T16:30:47.004Z</time></trkpt><trkpt lat="44.9338" lon="8.2932933"><ele>158.0</ele><time>2026-03-29T16:30:48.006Z</time></trkpt><trkpt lat="44.93397" lon="8.293195"><ele>158.0</ele><time>2026-03-29T16:30:49.002Z</time></trkpt><trkpt lat="44.934135" lon="8.293095"><ele>158.0</ele><time>2026-03-29T16:30:50.005Z</time></trkpt><trkpt lat="44.934305" lon="8.2930067"><ele>155.33333333333331</ele><time>2026-03-29T16:30:51.005Z</time></trkpt><trkpt lat="44.9344733" lon="8.2929267"><ele>152.66666666666666</ele><time>2026-03-29T16:30:52.006Z</time></trkpt><trkpt lat="44.9346483" lon="8.2928567"><ele>150.0</ele><time>2026-03-29T16:30:53.006Z</time></trkpt><trkpt lat="44.9348217" lon="8.2927883"><ele>150.0</ele><time>2026-03-29T16:30:54.005Z</time></trkpt><trkpt lat="44.9349933" lon="8.2927167"><ele>150.0</ele><time>2026-03-29T16:30:55.006Z</time></trkpt><trkpt lat="44.9351667" lon="8.2926583"><ele>150.0</ele><time>2026-03-29T16:30:56.01Z</time></trkpt><trkpt lat="44.93534" lon="8.292595"><ele>151.33333333333334</ele><time>2026-03-29T16:30:57.004Z</time></trkpt><trkpt lat="44.9355133" lon="8.2925317"><ele>152.66666666666669</ele><time>2026-03-29T16:30:58.005Z</time></trkpt><trkpt lat="44.935685" lon="8.29247"><ele>154.0</ele><time>2026-03-29T16:30:59.005Z</time></trkpt><trkpt lat="44.9358583" lon="8.29241"><ele>153.33333333333334</ele><time>2026-03-29T16:31:00.007Z</time></trkpt><trkpt lat="44.936035" lon="8.2923417"><ele>152.66666666666666</ele><time>2026-03-29T16:31:01.008Z</time></trkpt><trkpt lat="44.9362233" lon="8.2922683"><ele>152.0</ele><time>2026-03-29T16:31:02.006Z</time></trkpt><trkpt lat="44.9364233" lon="8.2921817"><ele>152.0</ele><time>2026-03-29T16:31:03.011Z</time></trkpt><trkpt lat="44.9366433" lon="8.2920833"><ele>152.0</ele><time>2026-03-29T16:31:04.004Z</time></trkpt><trkpt lat="44.936885" lon="8.2919817"><ele>153.0</ele><time>2026-03-29T16:31:05.005Z</time></trkpt><trkpt lat="44.93715" lon="8.2918833"><ele>154.0</ele><time>2026-03-29T16:31:06.007Z</time></trkpt><trkpt lat="44.9374333" lon="8.29178"><ele>154.5</ele><time>2026-03-29T16:31:07.004Z</time></trkpt><trkpt lat="44.9377217" lon="8.2916783"><ele>155.0</ele><time>2026-03-29T16:31:08.007Z</time></trkpt><trkpt lat="44.9380017" lon="8.2915833"><ele>155.0</ele><time>2026-03-29T16:31:09.004Z</time></trkpt><trkpt lat="44.9382667" lon="8.291485"><ele>155.0</ele><time>2026-03-29T16:31:10.006Z</time></trkpt><trkpt lat="44.93852" lon="8.291385"><ele>155.5</ele><time>2026-03-29T16:31:11.008Z</time></trkpt><trkpt lat="44.9387633" lon="8.2912883"><ele>156.0</ele><time>2026-03-29T16:31:12.009Z</time></trkpt><trkpt lat="44.9389917" lon="8.2911917"><ele>156.0</ele><time>2026-03-29T16:31:13.002Z</time></trkpt><trkpt lat="44.9392067" lon="8.2911033"><ele>156.0</ele><time>2026-03-29T16:31:14.002Z</time></trkpt><trkpt lat="44.9394167" lon="8.2910183"><ele>156.0</ele><time>2026-03-29T16:31:15.007Z</time></trkpt><trkpt lat="44.939625" lon="8.290935"><ele>157.33333333333334</ele><time>2026-03-29T16:31:16.005Z</time></trkpt><trkpt lat="44.93983" lon="8.2908583"><ele>158.66666666666669</ele><time>2026-03-29T16:31:17.005Z</time></trkpt><trkpt lat="44.9400333" lon="8.2907817"><ele>160.0</ele><time>2026-03-29T16:31:18.006Z</time></trkpt><trkpt lat="44.940235" lon="8.290695"><ele>159.0</ele><time>2026-03-29T16:31:19.003Z</time></trkpt><trkpt lat="44.9404167" lon="8.2905917"><ele>158.0</ele><time>2026-03-29T16:31:20.006Z</time></trkpt><trkpt lat="44.9406067" lon="8.2905117"><ele>157.0</ele><time>2026-03-29T16:31:21.007Z</time></trkpt><trkpt lat="44.9408017" lon="8.2904483"><ele>157.0</ele><time>2026-03-29T16:31:22.008Z</time></trkpt><trkpt lat="44.94099" lon="8.2903867"><ele>157.0</ele><time>2026-03-29T16:31:23.005Z</time></trkpt><trkpt lat="44.9411817" lon="8.290335"><ele>157.0</ele><time>2026-03-29T16:31:24.011Z</time></trkpt><trkpt lat="44.9413733" lon="8.2903"><ele>157.0</ele><time>2026-03-29T16:31:25.005Z</time></trkpt><trkpt lat="44.9415683" lon="8.2902883"><ele>157.0</ele><time>2026-03-29T16:31:26.007Z</time></trkpt><trkpt lat="44.941765" lon="8.2903017"><ele>157.0</ele><time>2026-03-29T16:31:27.005Z</time></trkpt><trkpt lat="44.94196" lon="8.29033"><ele>157.66666666666669</ele><time>2026-03-29T16:31:28.006Z</time></trkpt><trkpt lat="44.94214" lon="8.2903633"><ele>158.33333333333334</ele><time>2026-03-29T16:31:29.004Z</time></trkpt><trkpt lat="44.94233" lon="8.2903883"><ele>159.0</ele><time>2026-03-29T16:31:30.003Z</time></trkpt><trkpt lat="44.94253" lon="8.2904417"><ele>159.33333333333334</ele><time>2026-03-29T16:31:31.005Z</time></trkpt><trkpt lat="44.9427283" lon="8.2904917"><ele>159.66666666666669</ele><time>2026-03-29T16:31:32.003Z</time></trkpt><trkpt lat="44.94293" lon="8.29054"><ele>160.0</ele><time>2026-03-29T16:31:33.007Z</time></trkpt><trkpt lat="44.94314" lon="8.29059"><ele>161.0</ele><time>2026-03-29T16:31:34.007Z</time></trkpt><trkpt lat="44.94335" lon="8.2906517"><ele>162.0</ele><time>2026-03-29T16:31:35.004Z</time></trkpt><trkpt lat="44.94355" lon="8.2906917"><ele>163.0</ele><time>2026-03-29T16:31:36.004Z</time></trkpt><trkpt lat="44.9437533" lon="8.2907167"><ele>163.0</ele><time>2026-03-29T16:31:37.004Z</time></trkpt><trkpt lat="44.9439533" lon="8.2907417"><ele>163.0</ele><time>2026-03-29T16:31:38.004Z</time></trkpt><trkpt lat="44.94415" lon="8.2907717"><ele>163.0</ele><time>2026-03-29T16:31:39.006Z</time></trkpt><trkpt lat="44.944355" lon="8.2907917"><ele>162.0</ele><time>2026-03-29T16:31:40.005Z</time></trkpt><trkpt lat="44.944555" lon="8.2908317"><ele>161.0</ele><time>2026-03-29T16:31:41.001Z</time></trkpt><trkpt lat="44.944755" lon="8.2908817"><ele>160.0</ele><time>2026-03-29T16:31:42.002Z</time></trkpt><trkpt lat="44.944945" lon="8.290915"><ele>161.33333333333334</ele><time>2026-03-29T16:31:43.004Z</time></trkpt><trkpt lat="44.945135" lon="8.2909433"><ele>162.66666666666666</ele><time>2026-03-29T16:31:44.003Z</time></trkpt><trkpt lat="44.9453233" lon="8.2909917"><ele>164.0</ele><time>2026-03-29T16:31:45.009Z</time></trkpt><trkpt lat="44.945515" lon="8.2910217"><ele>164.0</ele><time>2026-03-29T16:31:46.007Z</time></trkpt><trkpt lat="44.9457067" lon="8.2910417"><ele>164.0</ele><time>2026-03-29T16:31:47.007Z</time></trkpt><trkpt lat="44.94591" lon="8.2910683"><ele>164.0</ele><time>2026-03-29T16:31:48.014Z</time></trkpt><trkpt lat="44.946125" lon="8.2911017"><ele>164.5</ele><time>2026-03-29T16:31:49.003Z</time></trkpt><trkpt lat="44.9463483" lon="8.2911383"><ele>165.0</ele><time>2026-03-29T16:31:50.007Z</time></trkpt><trkpt lat="44.9465733" lon="8.2911733"><ele>165.0</ele><time>2026-03-29T16:31:51.006Z</time></trkpt><trkpt lat="44.9467917" lon="8.29121"><ele>165.0</ele><time>2026-03-29T16:31:52.008Z</time></trkpt><trkpt lat="44.947015" lon="8.2912417"><ele>165.0</ele><time>2026-03-29T16:31:53.003Z</time></trkpt><trkpt lat="44.9472183" lon="8.29128"><ele>165.0</ele><time>2026-03-29T16:31:54.003Z</time></trkpt><trkpt lat="44.94741" lon="8.291315"><ele>165.0</ele><time>2026-03-29T16:31:55.004Z</time></trkpt><trkpt lat="44.9475883" lon="8.2913533"><ele>165.0</ele><time>2026-03-29T16:31:56.005Z</time></trkpt><trkpt lat="44.9477583" lon="8.29139"><ele>165.0</ele><time>2026-03-29T16:31:57.004Z</time></trkpt><trkpt lat="44.947925" lon="8.29143"><ele>165.0</ele><time>2026-03-29T16:31:58.006Z</time></trkpt><trkpt lat="44.9480767" lon="8.2914683"><ele>165.0</ele><time>2026-03-29T16:31:59.008Z</time></trkpt><trkpt lat="44.9482167" lon="8.2914983"><ele>165.0</ele><time>2026-03-29T16:32:00.012Z</time></trkpt><trkpt lat="44.948345" lon="8.2915317"><ele>165.0</ele><time>2026-03-29T16:32:01.004Z</time></trkpt><trkpt lat="44.9484583" lon="8.2915683"><ele>165.0</ele><time>2026-03-29T16:32:02.012Z</time></trkpt><trkpt lat="44.9485533" lon="8.2916083"><ele>165.0</ele><time>2026-03-29T16:32:03.003Z</time></trkpt><trkpt lat="44.948635" lon="8.2916517"><ele>165.0</ele><time>2026-03-29T16:32:04.006Z</time></trkpt><trkpt lat="44.9487017" lon="8.29169"><ele>165.2</ele><time>2026-03-29T16:32:05.006Z</time></trkpt><trkpt lat="44.9487983" lon="8.2916867"><ele>165.4</ele><time>2026-03-29T16:32:07.007Z</time></trkpt><trkpt lat="44.9489117" lon="8.291605"><ele>165.60000000000002</ele><time>2026-03-29T16:32:09.008Z</time></trkpt><trkpt lat="44.9489783" lon="8.2915017"><ele>165.8</ele><time>2026-03-29T16:32:10.01Z</time></trkpt><trkpt lat="44.9490567" lon="8.2914133"><ele>166.0</ele><time>2026-03-29T16:32:11.008Z</time></trkpt><trkpt lat="44.9491383" lon="8.291325"><ele>166.33333333333334</ele><time>2026-03-29T16:32:12.004Z</time></trkpt><trkpt lat="44.949215" lon="8.2912567"><ele>166.66666666666669</ele><time>2026-03-29T16:32:13.009Z</time></trkpt><trkpt lat="44.9492833" lon="8.2911883"><ele>167.0</ele><time>2026-03-29T16:32:14.005Z</time></trkpt><trkpt lat="44.9493383" lon="8.29111"><ele>167.33333333333334</ele><time>2026-03-29T16:32:15.003Z</time></trkpt><trkpt lat="44.9493817" lon="8.29101"><ele>167.66666666666666</ele><time>2026-03-29T16:32:16.005Z</time></trkpt><trkpt lat="44.949405" lon="8.2909"><ele>168.0</ele><time>2026-03-29T16:32:17.008Z</time></trkpt><trkpt lat="44.9494133" lon="8.29078"><ele>168.0</ele><time>2026-03-29T16:32:18.007Z</time></trkpt><trkpt lat="44.9494133" lon="8.290645"><ele>168.0</ele><time>2026-03-29T16:32:19.001Z</time></trkpt><trkpt lat="44.9494" lon="8.2904917"><ele>168.0</ele><time>2026-03-29T16:32:20.005Z</time></trkpt><trkpt lat="44.9493833" lon="8.2903467"><ele>168.0</ele><time>2026-03-29T16:32:21.005Z</time></trkpt><trkpt lat="44.9493817" lon="8.2902"><ele>168.0</ele><time>2026-03-29T16:32:22.004Z</time></trkpt><trkpt lat="44.9494033" lon="8.2900683"><ele>168.0</ele><time>2026-03-29T16:32:23.001Z</time></trkpt><trkpt lat="44.9494267" lon="8.2899583"><ele>168.0</ele><time>2026-03-29T16:32:24.005Z</time></trkpt><trkpt lat="44.9495" lon="8.28988"><ele>168.0</ele><time>2026-03-29T16:32:25.007Z</time></trkpt><trkpt lat="44.9496033" lon="8.289815"><ele>168.0</ele><time>2026-03-29T16:32:26.008Z</time></trkpt><trkpt lat="44.94973" lon="8.289745"><ele>168.0</ele><time>2026-03-29T16:32:27.006Z</time></trkpt><trkpt lat="44.949875" lon="8.2896617"><ele>170.66666666666666</ele><time>2026-03-29T16:32:28.007Z</time></trkpt><trkpt lat="44.9500367" lon="8.2895683"><ele>173.33333333333331</ele><time>2026-03-29T16:32:29.007Z</time></trkpt><trkpt lat="44.95022" lon="8.289465"><ele>176.0</ele><time>2026-03-29T16:32:30.008Z</time></trkpt><trkpt lat="44.95041" lon="8.28936"><ele>176.0</ele><time>2026-03-29T16:32:31.006Z</time></trkpt><trkpt lat="44.9505983" lon="8.289245"><ele>176.0</ele><time>2026-03-29T16:32:32.009Z</time></trkpt><trkpt lat="44.9507817" lon="8.289135"><ele>176.0</ele><time>2026-03-29T16:32:33.008Z</time></trkpt><trkpt lat="44.95095" lon="8.2890433"><ele>174.75</ele><time>2026-03-29T16:32:34.012Z</time></trkpt><trkpt lat="44.9511" lon="8.288965"><ele>173.5</ele><time>2026-03-29T16:32:35.002Z</time></trkpt><trkpt lat="44.9512383" lon="8.2888883"><ele>172.25</ele><time>2026-03-29T16:32:36.005Z</time></trkpt><trkpt lat="44.951365" lon="8.2888133"><ele>171.0</ele><time>2026-03-29T16:32:37.006Z</time></trkpt><trkpt lat="44.95147" lon="8.2887417"><ele>173.4</ele><time>2026-03-29T16:32:38.006Z</time></trkpt><trkpt lat="44.9515617" lon="8.2886667"><ele>175.8</ele><time>2026-03-29T16:32:39.011Z</time></trkpt><trkpt lat="44.9516367" lon="8.288555"><ele>178.20000000000002</ele><time>2026-03-29T16:32:40.006Z</time></trkpt><trkpt lat="44.9516917" lon="8.288425"><ele>180.60000000000002</ele><time>2026-03-29T16:32:41Z</time></trkpt><trkpt lat="44.9517333" lon="8.2882767"><ele>183.0</ele><time>2026-03-29T16:32:42.007Z</time></trkpt><trkpt lat="44.951745" lon="8.2881067"><ele>186.0</ele><time>2026-03-29T16:32:43.004Z</time></trkpt><trkpt lat="44.9517333" lon="8.2879283"><ele>189.0</ele><time>2026-03-29T16:32:44.003Z</time></trkpt><trkpt lat="44.9516983" lon="8.2877667"><ele>192.0</ele><time>2026-03-29T16:32:45.003Z</time></trkpt><trkpt lat="44.951645" lon="8.28761"><ele>195.0</ele><time>2026-03-29T16:32:46.007Z</time></trkpt><trkpt lat="44.9515817" lon="8.2874617"><ele>195.16666666666666</ele><time>2026-03-29T16:32:47.005Z</time></trkpt><trkpt lat="44.9515283" lon="8.2873267"><ele>195.33333333333331</ele><time>2026-03-29T16:32:48.003Z</time></trkpt><trkpt lat="44.9515033" lon="8.287215"><ele>195.5</ele><time>2026-03-29T16:32:49.006Z</time></trkpt><trkpt lat="44.9515067" lon="8.287115"><ele>195.66666666666666</ele><time>2026-03-29T16:32:50.003Z</time></trkpt><trkpt lat="44.951525" lon="8.28702"><ele>195.83333333333331</ele><time>2026-03-29T16:32:51.008Z</time></trkpt><trkpt lat="44.95157" lon="8.2869433"><ele>196.0</ele><time>2026-03-29T16:32:52.006Z</time></trkpt><trkpt lat="44.9516333" lon="8.28689"><ele>195.25</ele><time>2026-03-29T16:32:53.007Z</time></trkpt><trkpt lat="44.9517167" lon="8.2868767"><ele>194.5</ele><time>2026-03-29T16:32:54.006Z</time></trkpt><trkpt lat="44.9518133" lon="8.2868967"><ele>193.75</ele><time>2026-03-29T16:32:55.008Z</time></trkpt><trkpt lat="44.95196" lon="8.2870083"><ele>193.0</ele><time>2026-03-29T16:32:56.002Z</time></trkpt><trkpt lat="44.9520967" lon="8.2870567"><ele>193.0</ele><time>2026-03-29T16:32:57.005Z</time></trkpt><trkpt lat="44.95223" lon="8.2870733"><ele>193.0</ele><time>2026-03-29T16:32:58.009Z</time></trkpt><trkpt lat="44.952365" lon="8.2870967"><ele>193.0</ele><time>2026-03-29T16:32:59.004Z</time></trkpt><trkpt lat="44.9525" lon="8.2871183"><ele>193.0</ele><time>2026-03-29T16:33:00.01Z</time></trkpt><trkpt lat="44.9526367" lon="8.2871317"><ele>193.0</ele><time>2026-03-29T16:33:01.012Z</time></trkpt><trkpt lat="44.9527767" lon="8.2871417"><ele>193.0</ele><time>2026-03-29T16:33:02.005Z</time></trkpt><trkpt lat="44.952905" lon="8.2871417"><ele>193.0</ele><time>2026-03-29T16:33:03.007Z</time></trkpt><trkpt lat="44.9530317" lon="8.28715"><ele>193.0</ele><time>2026-03-29T16:33:04.001Z</time></trkpt><trkpt lat="44.9531517" lon="8.287155"><ele>193.0</ele><time>2026-03-29T16:33:05.001Z</time></trkpt><trkpt lat="44.9532633" lon="8.28716"><ele>193.0</ele><time>2026-03-29T16:33:06.008Z</time></trkpt><trkpt lat="44.953355" lon="8.2871517"><ele>193.0</ele><time>2026-03-29T16:33:07.004Z</time></trkpt><trkpt lat="44.9534233" lon="8.2871133"><ele>193.0</ele><time>2026-03-29T16:33:08.005Z</time></trkpt><trkpt lat="44.953485" lon="8.28696"><ele>193.0</ele><time>2026-03-29T16:33:10.005Z</time></trkpt><trkpt lat="44.9534933" lon="8.2868017"><ele>193.0</ele><time>2026-03-29T16:33:12.007Z</time></trkpt><trkpt lat="44.9533133" lon="8.2866317"><ele>193.0</ele><time>2026-03-29T16:33:14.009Z</time></trkpt><trkpt lat="44.9531917" lon="8.2864983"><ele>193.0</ele><time>2026-03-29T16:33:15.01Z</time></trkpt><trkpt lat="44.95313" lon="8.2863633"><ele>191.60000000000002</ele><time>2026-03-29T16:33:16.006Z</time></trkpt><trkpt lat="44.9530717" lon="8.28622"><ele>190.20000000000002</ele><time>2026-03-29T16:33:17.006Z</time></trkpt><trkpt lat="44.9530217" lon="8.2860717"><ele>188.8</ele><time>2026-03-29T16:33:18.006Z</time></trkpt><trkpt lat="44.9530683" lon="8.2859417"><ele>187.4</ele><time>2026-03-29T16:33:19.006Z</time></trkpt><trkpt lat="44.95309" lon="8.2858017"><ele>186.0</ele><time>2026-03-29T16:33:20.006Z</time></trkpt><trkpt lat="44.9531417" lon="8.2856833"><ele>184.0</ele><time>2026-03-29T16:33:21.004Z</time></trkpt><trkpt lat="44.9532033" lon="8.2855883"><ele>182.0</ele><time>2026-03-29T16:33:22.006Z</time></trkpt><trkpt lat="44.953285" lon="8.2855317"><ele>180.0</ele><time>2026-03-29T16:33:23.004Z</time></trkpt><trkpt lat="44.9533783" lon="8.2854967"><ele>178.0</ele><time>2026-03-29T16:33:24.009Z</time></trkpt><trkpt lat="44.9534767" lon="8.285485"><ele>176.0</ele><time>2026-03-29T16:33:25.001Z</time></trkpt><trkpt lat="44.9535667" lon="8.2854633"><ele>179.5</ele><time>2026-03-29T16:33:26.006Z</time></trkpt><trkpt lat="44.9536383" lon="8.2853933"><ele>183.0</ele><time>2026-03-29T16:33:27.002Z</time></trkpt><trkpt lat="44.9536417" lon="8.2852833"><ele>186.5</ele><time>2026-03-29T16:33:28.01Z</time></trkpt><trkpt lat="44.9536467" lon="8.2851817"><ele>190.0</ele><time>2026-03-29T16:33:29.002Z</time></trkpt><trkpt lat="44.9536033" lon="8.2850933"><ele>193.50000000000003</ele><time>2026-03-29T16:33:30.009Z</time></trkpt><trkpt lat="44.9535483" lon="8.284975"><ele>197.0</ele><time>2026-03-29T16:33:31.01Z</time></trkpt><trkpt lat="44.95345" lon="8.28488"><ele>197.0</ele><time>2026-03-29T16:33:32.005Z</time></trkpt><trkpt lat="44.9533833" lon="8.2847683"><ele>197.0</ele><time>2026-03-29T16:33:33.005Z</time></trkpt><trkpt lat="44.9533417" lon="8.2846433"><ele>197.0</ele><time>2026-03-29T16:33:34.005Z</time></trkpt><trkpt lat="44.9533033" lon="8.2845267"><ele>197.0</ele><time>2026-03-29T16:33:35.004Z</time></trkpt><trkpt lat="44.9533033" lon="8.28441"><ele>197.0</ele><time>2026-03-29T16:33:36.006Z</time></trkpt><trkpt lat="44.953325" lon="8.2842917"><ele>194.0</ele><time>2026-03-29T16:33:37.007Z</time></trkpt><trkpt lat="44.9534017" lon="8.2841717"><ele>191.0</ele><time>2026-03-29T16:33:38.007Z</time></trkpt><trkpt lat="44.9534983" lon="8.28404"><ele>188.0</ele><time>2026-03-29T16:33:39.007Z</time></trkpt><trkpt lat="44.953595" lon="8.2838883"><ele>185.0</ele><time>2026-03-29T16:33:40.008Z</time></trkpt><trkpt lat="44.9536767" lon="8.2837233"><ele>178.66666666666666</ele><time>2026-03-29T16:33:41.006Z</time></trkpt><trkpt lat="44.9537417" lon="8.283535"><ele>172.33333333333334</ele><time>2026-03-29T16:33:42.003Z</time></trkpt><trkpt lat="44.9537983" lon="8.28332"><ele>166.0</ele><time>2026-03-29T16:33:43.009Z</time></trkpt><trkpt lat="44.9538467" lon="8.28309"><ele>164.33333333333334</ele><time>2026-03-29T16:33:44.006Z</time></trkpt><trkpt lat="44.9538767" lon="8.2828583"><ele>162.66666666666666</ele><time>2026-03-29T16:33:45.005Z</time></trkpt><trkpt lat="44.9539083" lon="8.2826383"><ele>161.0</ele><time>2026-03-29T16:33:46.002Z</time></trkpt><trkpt lat="44.9539383" lon="8.282435"><ele>160.4</ele><time>2026-03-29T16:33:47.003Z</time></trkpt><trkpt lat="44.95397" lon="8.2822517"><ele>159.8</ele><time>2026-03-29T16:33:48.01Z</time></trkpt><trkpt lat="44.9539883" lon="8.2821033"><ele>159.20000000000002</ele><time>2026-03-29T16:33:49.005Z</time></trkpt><trkpt lat="44.95401" lon="8.2819817"><ele>158.60000000000002</ele><time>2026-03-29T16:33:50.005Z</time></trkpt><trkpt lat="44.9540367" lon="8.2818683"><ele>158.0</ele><time>2026-03-29T16:33:51.001Z</time></trkpt><trkpt lat="44.9540717" lon="8.2817683"><ele>158.0</ele><time>2026-03-29T16:33:52.005Z</time></trkpt><trkpt lat="44.9541183" lon="8.2816567"><ele>158.0</ele><time>2026-03-29T16:33:53.003Z</time></trkpt><trkpt lat="44.9541917" lon="8.2815333"><ele>158.0</ele><time>2026-03-29T16:33:54.003Z</time></trkpt><trkpt lat="44.954305" lon="8.2813783"><ele>158.0</ele><time>2026-03-29T16:33:55.009Z</time></trkpt><trkpt lat="44.9544367" lon="8.2812133"><ele>157.0</ele><time>2026-03-29T16:33:56.002Z</time></trkpt><trkpt lat="44.95458" lon="8.2810433"><ele>156.0</ele><time>2026-03-29T16:33:57.005Z</time></trkpt><trkpt lat="44.95473" lon="8.2808667"><ele>155.0</ele><time>2026-03-29T16:33:58.009Z</time></trkpt><trkpt lat="44.95491" lon="8.2806867"><ele>159.0</ele><time>2026-03-29T16:33:59.004Z</time></trkpt><trkpt lat="44.9551" lon="8.2805167"><ele>163.0</ele><time>2026-03-29T16:34:00.01Z</time></trkpt><trkpt lat="44.9553033" lon="8.28036"><ele>163.0</ele><time>2026-03-29T16:34:01.005Z</time></trkpt><trkpt lat="44.9555067" lon="8.2802067"><ele>163.0</ele><time>2026-03-29T16:34:02.008Z</time></trkpt><trkpt lat="44.9557" lon="8.2800633"><ele>163.0</ele><time>2026-03-29T16:34:03.008Z</time></trkpt><trkpt lat="44.95588" lon="8.27993"><ele>169.0</ele><time>2026-03-29T16:34:04.004Z</time></trkpt><trkpt lat="44.9560433" lon="8.279805"><ele>175.0</ele><time>2026-03-29T16:34:05.006Z</time></trkpt><trkpt lat="44.9561883" lon="8.2796733"><ele>181.0</ele><time>2026-03-29T16:34:06.005Z</time></trkpt><trkpt lat="44.95631" lon="8.2795317"><ele>181.33333333333334</ele><time>2026-03-29T16:34:07.005Z</time></trkpt><trkpt lat="44.956405" lon="8.279365"><ele>181.66666666666666</ele><time>2026-03-29T16:34:08.003Z</time></trkpt><trkpt lat="44.9564733" lon="8.279175"><ele>182.0</ele><time>2026-03-29T16:34:09.006Z</time></trkpt><trkpt lat="44.9565233" lon="8.278975"><ele>183.5</ele><time>2026-03-29T16:34:10.003Z</time></trkpt><trkpt lat="44.9565667" lon="8.2787883"><ele>185.0</ele><time>2026-03-29T16:34:11.004Z</time></trkpt><trkpt lat="44.9566217" lon="8.27863"><ele>186.5</ele><time>2026-03-29T16:34:12.004Z</time></trkpt><trkpt lat="44.9566883" lon="8.2784917"><ele>188.0</ele><time>2026-03-29T16:34:13.003Z</time></trkpt><trkpt lat="44.9567617" lon="8.2783867"><ele>188.0</ele><time>2026-03-29T16:34:14.003Z</time></trkpt><trkpt lat="44.956825" lon="8.278315"><ele>188.0</ele><time>2026-03-29T16:34:15.004Z</time></trkpt><trkpt lat="44.956885" lon="8.2782533"><ele>188.0</ele><time>2026-03-29T16:34:16.005Z</time></trkpt><trkpt lat="44.9569933" lon="8.278235"><ele>188.0</ele><time>2026-03-29T16:34:18.003Z</time></trkpt><trkpt lat="44.95696" lon="8.2783917"><ele>188.0</ele><time>2026-03-29T16:34:19.004Z</time></trkpt><trkpt lat="44.9569417" lon="8.278485"><ele>188.0</ele><time>2026-03-29T16:34:20.004Z</time></trkpt><trkpt lat="44.9569067" lon="8.278575"><ele>188.0</ele><time>2026-03-29T16:34:21.006Z</time></trkpt><trkpt lat="44.9568733" lon="8.2786817"><ele>188.0</ele><time>2026-03-29T16:34:22.011Z</time></trkpt><trkpt lat="44.956835" lon="8.27883"><ele>188.0</ele><time>2026-03-29T16:34:23.004Z</time></trkpt><trkpt lat="44.95681" lon="8.2790133"><ele>188.0</ele><time>2026-03-29T16:34:24.004Z</time></trkpt><trkpt lat="44.9567967" lon="8.2792217"><ele>191.25</ele><time>2026-03-29T16:34:25.008Z</time></trkpt><trkpt lat="44.95679" lon="8.2793967"><ele>194.5</ele><time>2026-03-29T16:34:26.007Z</time></trkpt><trkpt lat="44.95679" lon="8.2795733"><ele>197.75</ele><time>2026-03-29T16:34:27.004Z</time></trkpt><trkpt lat="44.956785" lon="8.2797367"><ele>201.0</ele><time>2026-03-29T16:34:28.008Z</time></trkpt><trkpt lat="44.9567933" lon="8.2798817"><ele>201.0</ele><time>2026-03-29T16:34:29.004Z</time></trkpt><trkpt lat="44.9568217" lon="8.28001"><ele>201.0</ele><time>2026-03-29T16:34:30.005Z</time></trkpt><trkpt lat="44.9568767" lon="8.2801267"><ele>201.0</ele><time>2026-03-29T16:34:31.004Z</time></trkpt><trkpt lat="44.9569467" lon="8.280215"><ele>201.0</ele><time>2026-03-29T16:34:32.005Z</time></trkpt><trkpt lat="44.957055" lon="8.2802633"><ele>201.0</ele><time>2026-03-29T16:34:33.001Z</time></trkpt><trkpt lat="44.9571917" lon="8.2802967"><ele>201.0</ele><time>2026-03-29T16:34:34.004Z</time></trkpt><trkpt lat="44.9573417" lon="8.2803333"><ele>201.0</ele><time>2026-03-29T16:34:35.003Z</time></trkpt><trkpt lat="44.9574933" lon="8.28037"><ele>201.0</ele><time>2026-03-29T16:34:36.006Z</time></trkpt><trkpt lat="44.957645" lon="8.28041"><ele>202.25</ele><time>2026-03-29T16:34:37.004Z</time></trkpt><trkpt lat="44.9577967" lon="8.28045"><ele>203.5</ele><time>2026-03-29T16:34:38.005Z</time></trkpt><trkpt lat="44.9579333" lon="8.2804783"><ele>204.75</ele><time>2026-03-29T16:34:39.002Z</time></trkpt><trkpt lat="44.9580283" lon="8.2805083"><ele>206.0</ele><time>2026-03-29T16:34:40.004Z</time></trkpt><trkpt lat="44.9581067" lon="8.2805233"><ele>206.0</ele><time>2026-03-29T16:34:41.007Z</time></trkpt><trkpt lat="44.958175" lon="8.28053"><ele>206.0</ele><time>2026-03-29T16:34:42.005Z</time></trkpt><trkpt lat="44.95823" lon="8.2804317"><ele>206.0</ele><time>2026-03-29T16:34:44.003Z</time></trkpt><trkpt lat="44.9582133" lon="8.2803"><ele>206.0</ele><time>2026-03-29T16:34:46.005Z</time></trkpt><trkpt lat="44.9581517" lon="8.2802533"><ele>206.0</ele><time>2026-03-29T16:34:47.006Z</time></trkpt><trkpt lat="44.9579667" lon="8.2801883"><ele>206.0</ele><time>2026-03-29T16:34:48.005Z</time></trkpt><trkpt lat="44.9578317" lon="8.2801117"><ele>206.0</ele><time>2026-03-29T16:34:49.007Z</time></trkpt><trkpt lat="44.957715" lon="8.280065"><ele>206.0</ele><time>2026-03-29T16:34:50.008Z</time></trkpt><trkpt lat="44.9575967" lon="8.2800183"><ele>206.0</ele><time>2026-03-29T16:34:51.006Z</time></trkpt><trkpt lat="44.9575067" lon="8.2799583"><ele>205.66666666666669</ele><time>2026-03-29T16:34:52.005Z</time></trkpt><trkpt lat="44.9574333" lon="8.2798917"><ele>205.33333333333334</ele><time>2026-03-29T16:34:53.004Z</time></trkpt><trkpt lat="44.95737" lon="8.2798167"><ele>205.0</ele><time>2026-03-29T16:34:54.004Z</time></trkpt><trkpt lat="44.9573283" lon="8.27972"><ele>204.66666666666669</ele><time>2026-03-29T16:34:55.004Z</time></trkpt><trkpt lat="44.9573233" lon="8.2795867"><ele>204.33333333333334</ele><time>2026-03-29T16:34:56.005Z</time></trkpt><trkpt lat="44.9573183" lon="8.2794783"><ele>204.0</ele><time>2026-03-29T16:34:57.002Z</time></trkpt><trkpt lat="44.9573383" lon="8.2793567"><ele>204.0</ele><time>2026-03-29T16:34:58.004Z</time></trkpt><trkpt lat="44.9574217" lon="8.2792633"><ele>204.0</ele><time>2026-03-29T16:34:59.005Z</time></trkpt><trkpt lat="44.957485" lon="8.27917"><ele>204.0</ele><time>2026-03-29T16:35:00.012Z</time></trkpt><trkpt lat="44.9575933" lon="8.2791383"><ele>204.0</ele><time>2026-03-29T16:35:01.003Z</time></trkpt><trkpt lat="44.957695" lon="8.2791083"><ele>204.0</ele><time>2026-03-29T16:35:02.004Z</time></trkpt><trkpt lat="44.9578017" lon="8.2791067"><ele>206.16666666666666</ele><time>2026-03-29T16:35:03.005Z</time></trkpt><trkpt lat="44.9578967" lon="8.2790983"><ele>208.33333333333331</ele><time>2026-03-29T16:35:04.006Z</time></trkpt><trkpt lat="44.9579833" lon="8.2790783"><ele>210.5</ele><time>2026-03-29T16:35:05.002Z</time></trkpt><trkpt lat="44.9580567" lon="8.27908"><ele>212.66666666666666</ele><time>2026-03-29T16:35:06.009Z</time></trkpt><trkpt lat="44.9581317" lon="8.2790817"><ele>214.83333333333331</ele><time>2026-03-29T16:35:07.006Z</time></trkpt><trkpt lat="44.9582" lon="8.2790867"><ele>217.0</ele><time>2026-03-29T16:35:08.008Z</time></trkpt><trkpt lat="44.958265" lon="8.2791567"><ele>217.0</ele><time>2026-03-29T16:35:10.005Z</time></trkpt><trkpt lat="44.9581767" lon="8.2792517"><ele>217.0</ele><time>2026-03-29T16:35:11.01Z</time></trkpt><trkpt lat="44.9580983" lon="8.2792983"><ele>217.0</ele><time>2026-03-29T16:35:12.004Z</time></trkpt><trkpt lat="44.9580217" lon="8.279335"><ele>217.0</ele><time>2026-03-29T16:35:13.01Z</time></trkpt><trkpt lat="44.9579283" lon="8.2793717"><ele>217.0</ele><time>2026-03-29T16:35:14.005Z</time></trkpt><trkpt lat="44.9578467" lon="8.27941"><ele>216.99999999999997</ele><time>2026-03-29T16:35:15.005Z</time></trkpt><trkpt lat="44.9577783" lon="8.2794567"><ele>217.0</ele><time>2026-03-29T16:35:16.004Z</time></trkpt><trkpt lat="44.9577267" lon="8.2795133"><ele>217.0</ele><time>2026-03-29T16:35:17.004Z</time></trkpt><trkpt lat="44.95773" lon="8.2796083"><ele>217.0</ele><time>2026-03-29T16:35:18.006Z</time></trkpt><trkpt lat="44.9577683" lon="8.2797633"><ele>216.99999999999997</ele><time>2026-03-29T16:35:20.003Z</time></trkpt><trkpt lat="44.957865" lon="8.2797967"><ele>217.0</ele><time>2026-03-29T16:35:21.002Z</time></trkpt><trkpt lat="44.9579483" lon="8.2798333"><ele>217.0</ele><time>2026-03-29T16:35:22.008Z</time></trkpt><trkpt lat="44.958045" lon="8.279855"><ele>217.0</ele><time>2026-03-29T16:35:23.004Z</time></trkpt><trkpt lat="44.9581583" lon="8.279815"><ele>217.0</ele><time>2026-03-29T16:35:24.005Z</time></trkpt><trkpt lat="44.9582583" lon="8.2797617"><ele>217.0</ele><time>2026-03-29T16:35:25.006Z</time></trkpt><trkpt lat="44.95835" lon="8.2796783"><ele>217.0</ele><time>2026-03-29T16:35:26.006Z</time></trkpt><trkpt lat="44.95844" lon="8.279595"><ele>218.6</ele><time>2026-03-29T16:35:27.003Z</time></trkpt><trkpt lat="44.95853" lon="8.279505"><ele>220.2</ele><time>2026-03-29T16:35:28.008Z</time></trkpt><trkpt lat="44.9586167" lon="8.2794217"><ele>221.8</ele><time>2026-03-29T16:35:29.005Z</time></trkpt><trkpt lat="44.9587033" lon="8.2793567"><ele>223.4</ele><time>2026-03-29T16:35:30.007Z</time></trkpt><trkpt lat="44.958795" lon="8.2793083"><ele>225.0</ele><time>2026-03-29T16:35:31.004Z</time></trkpt><trkpt lat="44.9588833" lon="8.2792733"><ele>225.0</ele><time>2026-03-29T16:35:32.004Z</time></trkpt><trkpt lat="44.9589833" lon="8.2792483"><ele>225.0</ele><time>2026-03-29T16:35:33.002Z</time></trkpt><trkpt lat="44.9590833" lon="8.2792283"><ele>225.0</ele><time>2026-03-29T16:35:34.005Z</time></trkpt><trkpt lat="44.9591833" lon="8.2792117"><ele>225.0</ele><time>2026-03-29T16:35:35.004Z</time></trkpt><trkpt lat="44.9592833" lon="8.2791983"><ele>225.0</ele><time>2026-03-29T16:35:36.005Z</time></trkpt><trkpt lat="44.9593833" lon="8.2791817"><ele>226.0</ele><time>2026-03-29T16:35:37.006Z</time></trkpt><trkpt lat="44.959495" lon="8.2791883"><ele>227.0</ele><time>2026-03-29T16:35:38.004Z</time></trkpt><trkpt lat="44.9595933" lon="8.2791833"><ele>228.0</ele><time>2026-03-29T16:35:39.003Z</time></trkpt><trkpt lat="44.9596933" lon="8.2791683"><ele>229.0</ele><time>2026-03-29T16:35:40.007Z</time></trkpt><trkpt lat="44.9597917" lon="8.279145"><ele>230.0</ele><time>2026-03-29T16:35:41.008Z</time></trkpt><trkpt lat="44.9598917" lon="8.2791117"><ele>230.00000000000003</ele><time>2026-03-29T16:35:42.003Z</time></trkpt><trkpt lat="44.9599817" lon="8.2790817"><ele>230.0</ele><time>2026-03-29T16:35:43.009Z</time></trkpt><trkpt lat="44.9600733" lon="8.2790617"><ele>230.0</ele><time>2026-03-29T16:35:44.006Z</time></trkpt><trkpt lat="44.9601567" lon="8.2790417"><ele>230.0</ele><time>2026-03-29T16:35:45.003Z</time></trkpt><trkpt lat="44.960235" lon="8.2790217"><ele>230.00000000000003</ele><time>2026-03-29T16:35:46.004Z</time></trkpt><trkpt lat="44.96031" lon="8.2790067"><ele>230.0</ele><time>2026-03-29T16:35:47.002Z</time></trkpt><trkpt lat="44.96038" lon="8.2789917"><ele>229.83333333333334</ele><time>2026-03-29T16:35:48.003Z</time></trkpt><trkpt lat="44.9604583" lon="8.2789917"><ele>229.66666666666669</ele><time>2026-03-29T16:35:49.006Z</time></trkpt><trkpt lat="44.9605317" lon="8.27897"><ele>229.5</ele><time>2026-03-29T16:35:50.003Z</time></trkpt><trkpt lat="44.96062" lon="8.2789717"><ele>229.33333333333331</ele><time>2026-03-29T16:35:51.005Z</time></trkpt><trkpt lat="44.96071" lon="8.278975"><ele>229.16666666666666</ele><time>2026-03-29T16:35:52Z</time></trkpt><trkpt lat="44.9608083" lon="8.2789733"><ele>229.0</ele><time>2026-03-29T16:35:53.005Z</time></trkpt><trkpt lat="44.9609067" lon="8.27897"><ele>230.0</ele><time>2026-03-29T16:35:54.005Z</time></trkpt><trkpt lat="44.9610067" lon="8.2789617"><ele>230.99999999999997</ele><time>2026-03-29T16:35:55.005Z</time></trkpt><trkpt lat="44.9611117" lon="8.27896"><ele>231.99999999999997</ele><time>2026-03-29T16:35:56.005Z</time></trkpt><trkpt lat="44.9612233" lon="8.2789383"><ele>233.0</ele><time>2026-03-29T16:35:57.008Z</time></trkpt><trkpt lat="44.96134" lon="8.278935"><ele>234.0</ele><time>2026-03-29T16:35:58.005Z</time></trkpt><trkpt lat="44.9614567" lon="8.2789583"><ele>234.0</ele><time>2026-03-29T16:35:59.006Z</time></trkpt><trkpt lat="44.9615667" lon="8.278975"><ele>233.99999999999997</ele><time>2026-03-29T16:36:00.013Z</time></trkpt><trkpt lat="44.96168" lon="8.2789917"><ele>233.99999999999997</ele><time>2026-03-29T16:36:01.004Z</time></trkpt><trkpt lat="44.9617883" lon="8.27901"><ele>234.0</ele><time>2026-03-29T16:36:02.01Z</time></trkpt><trkpt lat="44.9619017" lon="8.2790083"><ele>234.0</ele><time>2026-03-29T16:36:03.004Z</time></trkpt><trkpt lat="44.9620067" lon="8.2789883"><ele>233.39999999999998</ele><time>2026-03-29T16:36:04.005Z</time></trkpt><trkpt lat="44.9621133" lon="8.278955"><ele>232.79999999999998</ele><time>2026-03-29T16:36:05.005Z</time></trkpt><trkpt lat="44.9622183" lon="8.2789133"><ele>232.20000000000002</ele><time>2026-03-29T16:36:06.004Z</time></trkpt><trkpt lat="44.9623283" lon="8.27889"><ele>231.60000000000002</ele><time>2026-03-29T16:36:07.004Z</time></trkpt><trkpt lat="44.9624467" lon="8.27888"><ele>231.0</ele><time>2026-03-29T16:36:08.008Z</time></trkpt><trkpt lat="44.962565" lon="8.2788767"><ele>231.75</ele><time>2026-03-29T16:36:09.005Z</time></trkpt><trkpt lat="44.9626783" lon="8.2788767"><ele>232.5</ele><time>2026-03-29T16:36:10.006Z</time></trkpt><trkpt lat="44.962795" lon="8.27889"><ele>233.25</ele><time>2026-03-29T16:36:11.002Z</time></trkpt><trkpt lat="44.9629067" lon="8.2789333"><ele>234.0</ele><time>2026-03-29T16:36:12.006Z</time></trkpt><trkpt lat="44.963025" lon="8.2789833"><ele>234.0</ele><time>2026-03-29T16:36:13.004Z</time></trkpt><trkpt lat="44.9631467" lon="8.279035"><ele>234.0</ele><time>2026-03-29T16:36:14.008Z</time></trkpt><trkpt lat="44.963265" lon="8.2791033"><ele>234.0</ele><time>2026-03-29T16:36:15.007Z</time></trkpt><trkpt lat="44.9633867" lon="8.279175"><ele>234.0</ele><time>2026-03-29T16:36:16.006Z</time></trkpt><trkpt lat="44.9635133" lon="8.2792267"><ele>234.0</ele><time>2026-03-29T16:36:17.009Z</time></trkpt><trkpt lat="44.9636483" lon="8.2792683"><ele>234.0</ele><time>2026-03-29T16:36:18.007Z</time></trkpt><trkpt lat="44.963775" lon="8.2793133"><ele>234.0</ele><time>2026-03-29T16:36:19.005Z</time></trkpt><trkpt lat="44.9639" lon="8.2793617"><ele>234.0</ele><time>2026-03-29T16:36:20.007Z</time></trkpt><trkpt lat="44.9640183" lon="8.27941"><ele>234.0</ele><time>2026-03-29T16:36:21.004Z</time></trkpt><trkpt lat="44.9641233" lon="8.2794517"><ele>233.99999999999997</ele><time>2026-03-29T16:36:22.004Z</time></trkpt><trkpt lat="44.9642217" lon="8.2794717"><ele>233.99999999999997</ele><time>2026-03-29T16:36:23.008Z</time></trkpt><trkpt lat="44.9643017" lon="8.279505"><ele>234.0</ele><time>2026-03-29T16:36:24.007Z</time></trkpt><trkpt lat="44.9643867" lon="8.2795167"><ele>234.0</ele><time>2026-03-29T16:36:25.004Z</time></trkpt><trkpt lat="44.9644683" lon="8.2795217"><ele>233.79999999999998</ele><time>2026-03-29T16:36:26.003Z</time></trkpt><trkpt lat="44.964555" lon="8.2795117"><ele>233.59999999999997</ele><time>2026-03-29T16:36:27.005Z</time></trkpt><trkpt lat="44.9646417" lon="8.2794983"><ele>233.4</ele><time>2026-03-29T16:36:28.002Z</time></trkpt><trkpt lat="44.964745" lon="8.2795033"><ele>233.2</ele><time>2026-03-29T16:36:29.003Z</time></trkpt><trkpt lat="44.9648583" lon="8.2794633"><ele>233.0</ele><time>2026-03-29T16:36:30.004Z</time></trkpt><trkpt lat="44.9649567" lon="8.2794283"><ele>232.4</ele><time>2026-03-29T16:36:31.008Z</time></trkpt><trkpt lat="44.9650417" lon="8.279405"><ele>231.8</ele><time>2026-03-29T16:36:32.003Z</time></trkpt><trkpt lat="44.9651367" lon="8.279355"><ele>231.2</ele><time>2026-03-29T16:36:33.002Z</time></trkpt><trkpt lat="44.9652283" lon="8.2793233"><ele>230.6</ele><time>2026-03-29T16:36:34.001Z</time></trkpt><trkpt lat="44.96531" lon="8.279285"><ele>230.0</ele><time>2026-03-29T16:36:35.006Z</time></trkpt><trkpt lat="44.9653933" lon="8.2792067"><ele>230.00000000000003</ele><time>2026-03-29T16:36:36.002Z</time></trkpt><trkpt lat="44.9654783" lon="8.2791433"><ele>230.0</ele><time>2026-03-29T16:36:37.009Z</time></trkpt><trkpt lat="44.96555" lon="8.279075"><ele>230.0</ele><time>2026-03-29T16:36:38.006Z</time></trkpt><trkpt lat="44.9656217" lon="8.2789967"><ele>230.0</ele><time>2026-03-29T16:36:39.01Z</time></trkpt><trkpt lat="44.9656917" lon="8.2789233"><ele>230.00000000000003</ele><time>2026-03-29T16:36:40.004Z</time></trkpt><trkpt lat="44.9657483" lon="8.2788333"><ele>230.0</ele><time>2026-03-29T16:36:41.003Z</time></trkpt><trkpt lat="44.96581" lon="8.2787667"><ele>231.66666666666669</ele><time>2026-03-29T16:36:42.005Z</time></trkpt><trkpt lat="44.9658833" lon="8.2786983"><ele>233.33333333333334</ele><time>2026-03-29T16:36:43.007Z</time></trkpt><trkpt lat="44.9659567" lon="8.278635"><ele>235.0</ele><time>2026-03-29T16:36:44.002Z</time></trkpt><trkpt lat="44.9660283" lon="8.2785717"><ele>236.66666666666669</ele><time>2026-03-29T16:36:45.003Z</time></trkpt><trkpt lat="44.9661083" lon="8.2784983"><ele>238.33333333333334</ele><time>2026-03-29T16:36:46.006Z</time></trkpt><trkpt lat="44.9661783" lon="8.2784183"><ele>240.0</ele><time>2026-03-29T16:36:47.001Z</time></trkpt><trkpt lat="44.9662483" lon="8.2783467"><ele>240.0</ele><time>2026-03-29T16:36:48.003Z</time></trkpt><trkpt lat="44.966325" lon="8.2782633"><ele>240.0</ele><time>2026-03-29T16:36:49.006Z</time></trkpt><trkpt lat="44.9664" lon="8.2781983"><ele>240.0</ele><time>2026-03-29T16:36:50.001Z</time></trkpt><trkpt lat="44.9664833" lon="8.2781467"><ele>240.0</ele><time>2026-03-29T16:36:51.005Z</time></trkpt><trkpt lat="44.9665583" lon="8.2780817"><ele>240.0</ele><time>2026-03-29T16:36:52.004Z</time></trkpt><trkpt lat="44.966635" lon="8.2780267"><ele>241.0</ele><time>2026-03-29T16:36:53.004Z</time></trkpt><trkpt lat="44.9667133" lon="8.2779633"><ele>242.0</ele><time>2026-03-29T16:36:54.007Z</time></trkpt><trkpt lat="44.9667933" lon="8.2779"><ele>243.0</ele><time>2026-03-29T16:36:55.004Z</time></trkpt><trkpt lat="44.966875" lon="8.2778417"><ele>244.0</ele><time>2026-03-29T16:36:56.001Z</time></trkpt><trkpt lat="44.9669567" lon="8.2777717"><ele>245.0</ele><time>2026-03-29T16:36:57.007Z</time></trkpt><trkpt lat="44.967035" lon="8.2776967"><ele>245.0</ele><time>2026-03-29T16:36:58.003Z</time></trkpt><trkpt lat="44.9671183" lon="8.2776283"><ele>245.0</ele><time>2026-03-29T16:36:59.005Z</time></trkpt><trkpt lat="44.9672033" lon="8.2775683"><ele>245.0</ele><time>2026-03-29T16:37:00.008Z</time></trkpt><trkpt lat="44.9672867" lon="8.2775"><ele>245.0</ele><time>2026-03-29T16:37:01.007Z</time></trkpt><trkpt lat="44.967375" lon="8.2774417"><ele>245.0</ele><time>2026-03-29T16:37:02.01Z</time></trkpt><trkpt lat="44.967455" lon="8.2774"><ele>244.83333333333334</ele><time>2026-03-29T16:37:03.004Z</time></trkpt><trkpt lat="44.9675317" lon="8.2773717"><ele>244.66666666666669</ele><time>2026-03-29T16:37:04.006Z</time></trkpt><trkpt lat="44.96761" lon="8.27734"><ele>244.5</ele><time>2026-03-29T16:37:05.005Z</time></trkpt><trkpt lat="44.9676933" lon="8.27732"><ele>244.33333333333331</ele><time>2026-03-29T16:37:06.005Z</time></trkpt><trkpt lat="44.9677817" lon="8.27731"><ele>244.16666666666666</ele><time>2026-03-29T16:37:07.005Z</time></trkpt><trkpt lat="44.9678783" lon="8.2773017"><ele>244.0</ele><time>2026-03-29T16:37:08.007Z</time></trkpt><trkpt lat="44.9679817" lon="8.27732"><ele>244.0</ele><time>2026-03-29T16:37:09.005Z</time></trkpt><trkpt lat="44.968095" lon="8.2773417"><ele>244.0</ele><time>2026-03-29T16:37:10.005Z</time></trkpt><trkpt lat="44.9682033" lon="8.2773633"><ele>244.0</ele><time>2026-03-29T16:37:11.007Z</time></trkpt><trkpt lat="44.9683217" lon="8.2774183"><ele>244.0</ele><time>2026-03-29T16:37:12.006Z</time></trkpt><trkpt lat="44.9684483" lon="8.2774867"><ele>243.5</ele><time>2026-03-29T16:37:13.003Z</time></trkpt><trkpt lat="44.9685883" lon="8.2775317"><ele>243.0</ele><time>2026-03-29T16:37:14.006Z</time></trkpt><trkpt lat="44.9687267" lon="8.2775717"><ele>242.5</ele><time>2026-03-29T16:37:15.006Z</time></trkpt><trkpt lat="44.9688617" lon="8.277615"><ele>242.0</ele><time>2026-03-29T16:37:16.004Z</time></trkpt><trkpt lat="44.968995" lon="8.2776583"><ele>242.0</ele><time>2026-03-29T16:37:17.004Z</time></trkpt><trkpt lat="44.969125" lon="8.2776983"><ele>242.0</ele><time>2026-03-29T16:37:18.005Z</time></trkpt><trkpt lat="44.9692517" lon="8.27773"><ele>242.0</ele><time>2026-03-29T16:37:19.008Z</time></trkpt><trkpt lat="44.9693717" lon="8.2777633"><ele>242.0</ele><time>2026-03-29T16:37:20.006Z</time></trkpt><trkpt lat="44.9694867" lon="8.2777967"><ele>239.0</ele><time>2026-03-29T16:37:21.006Z</time></trkpt><trkpt lat="44.9695983" lon="8.27783"><ele>236.0</ele><time>2026-03-29T16:37:22.007Z</time></trkpt><trkpt lat="44.9697033" lon="8.2778717"><ele>233.0</ele><time>2026-03-29T16:37:23.008Z</time></trkpt><trkpt lat="44.969805" lon="8.2779317"><ele>230.0</ele><time>2026-03-29T16:37:24.01Z</time></trkpt><trkpt lat="44.96991" lon="8.27803"><ele>230.25</ele><time>2026-03-29T16:37:25.009Z</time></trkpt><trkpt lat="44.97001" lon="8.2781283"><ele>230.5</ele><time>2026-03-29T16:37:26.008Z</time></trkpt><trkpt lat="44.9701067" lon="8.2782467"><ele>230.75</ele><time>2026-03-29T16:37:27.005Z</time></trkpt><trkpt lat="44.9702017" lon="8.2783583"><ele>231.0</ele><time>2026-03-29T16:37:28.004Z</time></trkpt><trkpt lat="44.9702933" lon="8.2784833"><ele>231.0</ele><time>2026-03-29T16:37:29.001Z</time></trkpt><trkpt lat="44.970385" lon="8.2786133"><ele>231.0</ele><time>2026-03-29T16:37:30.003Z</time></trkpt><trkpt lat="44.97048" lon="8.2787417"><ele>231.0</ele><time>2026-03-29T16:37:31.006Z</time></trkpt><trkpt lat="44.9705717" lon="8.2788717"><ele>231.0</ele><time>2026-03-29T16:37:32.004Z</time></trkpt><trkpt lat="44.970665" lon="8.2789783"><ele>234.25</ele><time>2026-03-29T16:37:33.003Z</time></trkpt><trkpt lat="44.9707567" lon="8.2790767"><ele>237.5</ele><time>2026-03-29T16:37:34.006Z</time></trkpt><trkpt lat="44.9708567" lon="8.2791767"><ele>240.75</ele><time>2026-03-29T16:37:35.012Z</time></trkpt><trkpt lat="44.9709633" lon="8.2792717"><ele>244.0</ele><time>2026-03-29T16:37:36.006Z</time></trkpt><trkpt lat="44.9710767" lon="8.279365"><ele>244.0</ele><time>2026-03-29T16:37:37.008Z</time></trkpt><trkpt lat="44.9711883" lon="8.2794583"><ele>244.0</ele><time>2026-03-29T16:37:38.007Z</time></trkpt><trkpt lat="44.9713083" lon="8.2795467"><ele>244.0</ele><time>2026-03-29T16:37:39.004Z</time></trkpt><trkpt lat="44.9714267" lon="8.279635"><ele>244.0</ele><time>2026-03-29T16:37:40.005Z</time></trkpt><trkpt lat="44.971545" lon="8.27972"><ele>244.25</ele><time>2026-03-29T16:37:41.004Z</time></trkpt><trkpt lat="44.9716683" lon="8.2798083"><ele>244.5</ele><time>2026-03-29T16:37:42.005Z</time></trkpt><trkpt lat="44.9717967" lon="8.2798967"><ele>244.75</ele><time>2026-03-29T16:37:43.006Z</time></trkpt><trkpt lat="44.9719283" lon="8.2799767"><ele>245.0</ele><time>2026-03-29T16:37:44.007Z</time></trkpt><trkpt lat="44.972065" lon="8.2800517"><ele>245.66666666666669</ele><time>2026-03-29T16:37:45.005Z</time></trkpt><trkpt lat="44.9722083" lon="8.2801283"><ele>246.33333333333331</ele><time>2026-03-29T16:37:46.01Z</time></trkpt><trkpt lat="44.9723533" lon="8.2802033"><ele>247.0</ele><time>2026-03-29T16:37:47.006Z</time></trkpt><trkpt lat="44.9725067" lon="8.2802583"><ele>243.33333333333331</ele><time>2026-03-29T16:37:48.008Z</time></trkpt><trkpt lat="44.9726583" lon="8.2803133"><ele>239.66666666666669</ele><time>2026-03-29T16:37:49.009Z</time></trkpt><trkpt lat="44.9728083" lon="8.28035"><ele>236.0</ele><time>2026-03-29T16:37:50.008Z</time></trkpt><trkpt lat="44.9729483" lon="8.28038"><ele>236.0</ele><time>2026-03-29T16:37:51.005Z</time></trkpt><trkpt lat="44.9730717" lon="8.280395"><ele>236.00000000000003</ele><time>2026-03-29T16:37:52.003Z</time></trkpt><trkpt lat="44.9731933" lon="8.280355"><ele>236.00000000000003</ele><time>2026-03-29T16:37:53.004Z</time></trkpt><trkpt lat="44.973295" lon="8.2803367"><ele>236.0</ele><time>2026-03-29T16:37:54.004Z</time></trkpt><trkpt lat="44.9733817" lon="8.2803217"><ele>236.0</ele><time>2026-03-29T16:37:55.002Z</time></trkpt><trkpt lat="44.9734533" lon="8.2802983"><ele>234.00000000000003</ele><time>2026-03-29T16:37:56.005Z</time></trkpt><trkpt lat="44.9735217" lon="8.2802967"><ele>232.0</ele><time>2026-03-29T16:37:57.006Z</time></trkpt><trkpt lat="44.9736283" lon="8.28032"><ele>230.0</ele><time>2026-03-29T16:37:59.007Z</time></trkpt><trkpt lat="44.9737367" lon="8.280375"><ele>228.0</ele><time>2026-03-29T16:38:01.006Z</time></trkpt><trkpt lat="44.9738017" lon="8.2804267"><ele>226.00000000000003</ele><time>2026-03-29T16:38:02.003Z</time></trkpt><trkpt lat="44.97387" lon="8.28049"><ele>224.0</ele><time>2026-03-29T16:38:03.001Z</time></trkpt><trkpt lat="44.97394" lon="8.280575"><ele>224.75</ele><time>2026-03-29T16:38:04.004Z</time></trkpt><trkpt lat="44.97402" lon="8.2806833"><ele>225.5</ele><time>2026-03-29T16:38:05.004Z</time></trkpt><trkpt lat="44.9740933" lon="8.2808"><ele>226.25</ele><time>2026-03-29T16:38:06.006Z</time></trkpt><trkpt lat="44.9741733" lon="8.28092"><ele>227.0</ele><time>2026-03-29T16:38:07.006Z</time></trkpt><trkpt lat="44.9742517" lon="8.2810433"><ele>226.5</ele><time>2026-03-29T16:38:08.003Z</time></trkpt><trkpt lat="44.9743333" lon="8.2811683"><ele>226.0</ele><time>2026-03-29T16:38:09.009Z</time></trkpt><trkpt lat="44.97442" lon="8.2812933"><ele>225.5</ele><time>2026-03-29T16:38:10.005Z</time></trkpt><trkpt lat="44.9745083" lon="8.2814217"><ele>225.0</ele><time>2026-03-29T16:38:11.009Z</time></trkpt><trkpt lat="44.9746017" lon="8.281545"><ele>225.0</ele><time>2026-03-29T16:38:12.009Z</time></trkpt><trkpt lat="44.9747" lon="8.2816617"><ele>225.0</ele><time>2026-03-29T16:38:13.011Z</time></trkpt><trkpt lat="44.9748067" lon="8.2817533"><ele>225.0</ele><time>2026-03-29T16:38:14.005Z</time></trkpt><trkpt lat="44.9749217" lon="8.2818233"><ele>225.0</ele><time>2026-03-29T16:38:15.006Z</time></trkpt><trkpt lat="44.975045" lon="8.281875"><ele>224.25</ele><time>2026-03-29T16:38:16.006Z</time></trkpt><trkpt lat="44.9751733" lon="8.2819367"><ele>223.5</ele><time>2026-03-29T16:38:17.003Z</time></trkpt><trkpt lat="44.9753033" lon="8.2819933"><ele>222.75</ele><time>2026-03-29T16:38:18.007Z</time></trkpt><trkpt lat="44.97544" lon="8.2820467"><ele>222.0</ele><time>2026-03-29T16:38:19.006Z</time></trkpt><trkpt lat="44.9755767" lon="8.2820883"><ele>222.0</ele><time>2026-03-29T16:38:20.006Z</time></trkpt><trkpt lat="44.975725" lon="8.2821183"><ele>222.0</ele><time>2026-03-29T16:38:21.005Z</time></trkpt><trkpt lat="44.9758817" lon="8.28214"><ele>222.0</ele><time>2026-03-29T16:38:22.005Z</time></trkpt><trkpt lat="44.976045" lon="8.2821483"><ele>222.0</ele><time>2026-03-29T16:38:23.005Z</time></trkpt><trkpt lat="44.9762167" lon="8.2821483"><ele>222.0</ele><time>2026-03-29T16:38:24.004Z</time></trkpt><trkpt lat="44.9764" lon="8.28215"><ele>222.0</ele><time>2026-03-29T16:38:25.005Z</time></trkpt><trkpt lat="44.9765883" lon="8.2821517"><ele>223.0</ele><time>2026-03-29T16:38:26.004Z</time></trkpt><trkpt lat="44.9767783" lon="8.28215"><ele>224.0</ele><time>2026-03-29T16:38:27.004Z</time></trkpt><trkpt lat="44.9769733" lon="8.2821433"><ele>225.0</ele><time>2026-03-29T16:38:28.004Z</time></trkpt><trkpt lat="44.977175" lon="8.2821433"><ele>225.0</ele><time>2026-03-29T16:38:29.011Z</time></trkpt><trkpt lat="44.97737" lon="8.28215"><ele>225.0</ele><time>2026-03-29T16:38:30.005Z</time></trkpt><trkpt lat="44.977555" lon="8.2821533"><ele>225.0</ele><time>2026-03-29T16:38:31.006Z</time></trkpt><trkpt lat="44.977725" lon="8.2821617"><ele>227.0</ele><time>2026-03-29T16:38:32.006Z</time></trkpt><trkpt lat="44.9778833" lon="8.2822183"><ele>229.0</ele><time>2026-03-29T16:38:33.008Z</time></trkpt><trkpt lat="44.9780367" lon="8.2822983"><ele>231.0</ele><time>2026-03-29T16:38:34.007Z</time></trkpt><trkpt lat="44.9781833" lon="8.2824117"><ele>231.0</ele><time>2026-03-29T16:38:35.002Z</time></trkpt><trkpt lat="44.9783333" lon="8.2825483"><ele>231.0</ele><time>2026-03-29T16:38:36.003Z</time></trkpt><trkpt lat="44.9784917" lon="8.28271"><ele>231.0</ele><time>2026-03-29T16:38:37.007Z</time></trkpt><trkpt lat="44.9786567" lon="8.2828733"><ele>233.33333333333331</ele><time>2026-03-29T16:38:38.006Z</time></trkpt><trkpt lat="44.9788217" lon="8.283035"><ele>235.66666666666666</ele><time>2026-03-29T16:38:39.004Z</time></trkpt><trkpt lat="44.9789833" lon="8.2832017"><ele>238.0</ele><time>2026-03-29T16:38:40.005Z</time></trkpt><trkpt lat="44.9791467" lon="8.2833567"><ele>240.66666666666666</ele><time>2026-03-29T16:38:41.001Z</time></trkpt><trkpt lat="44.9793167" lon="8.28349"><ele>243.33333333333331</ele><time>2026-03-29T16:38:42Z</time></trkpt><trkpt lat="44.9794867" lon="8.2835867"><ele>246.0</ele><time>2026-03-29T16:38:43.007Z</time></trkpt><trkpt lat="44.9796567" lon="8.2836483"><ele>246.0</ele><time>2026-03-29T16:38:44.002Z</time></trkpt><trkpt lat="44.97983" lon="8.2836767"><ele>246.0</ele><time>2026-03-29T16:38:45.008Z</time></trkpt><trkpt lat="44.9800083" lon="8.2836733"><ele>246.0</ele><time>2026-03-29T16:38:46.004Z</time></trkpt><trkpt lat="44.9801967" lon="8.283645"><ele>246.66666666666669</ele><time>2026-03-29T16:38:47.002Z</time></trkpt><trkpt lat="44.980385" lon="8.2836083"><ele>247.33333333333334</ele><time>2026-03-29T16:38:48.003Z</time></trkpt><trkpt lat="44.98058" lon="8.28358"><ele>248.0</ele><time>2026-03-29T16:38:49.004Z</time></trkpt><trkpt lat="44.9807667" lon="8.2835583"><ele>248.75</ele><time>2026-03-29T16:38:50.003Z</time></trkpt><trkpt lat="44.9809383" lon="8.2835383"><ele>249.5</ele><time>2026-03-29T16:38:51.008Z</time></trkpt><trkpt lat="44.9810883" lon="8.2835267"><ele>250.25</ele><time>2026-03-29T16:38:52.005Z</time></trkpt><trkpt lat="44.9812117" lon="8.2835283"><ele>251.0</ele><time>2026-03-29T16:38:53.002Z</time></trkpt><trkpt lat="44.9813217" lon="8.28355"><ele>251.0</ele><time>2026-03-29T16:38:54.008Z</time></trkpt><trkpt lat="44.98142" lon="8.283595"><ele>251.00000000000003</ele><time>2026-03-29T16:38:55.005Z</time></trkpt><trkpt lat="44.981515" lon="8.2836683"><ele>251.00000000000003</ele><time>2026-03-29T16:38:56.008Z</time></trkpt><trkpt lat="44.9816017" lon="8.283765"><ele>251.0</ele><time>2026-03-29T16:38:57.006Z</time></trkpt><trkpt lat="44.9816817" lon="8.2838783"><ele>251.0</ele><time>2026-03-29T16:38:58.005Z</time></trkpt><trkpt lat="44.98176" lon="8.2840283"><ele>254.66666666666669</ele><time>2026-03-29T16:38:59.003Z</time></trkpt><trkpt lat="44.9818467" lon="8.2842117"><ele>258.3333333333333</ele><time>2026-03-29T16:39:00.011Z</time></trkpt><trkpt lat="44.9819417" lon="8.2844167"><ele>262.0</ele><time>2026-03-29T16:39:01.007Z</time></trkpt><trkpt lat="44.9820417" lon="8.28463"><ele>261.0</ele><time>2026-03-29T16:39:02.007Z</time></trkpt><trkpt lat="44.982145" lon="8.2848433"><ele>260.0</ele><time>2026-03-29T16:39:03.004Z</time></trkpt><trkpt lat="44.9822467" lon="8.2850483"><ele>259.0</ele><time>2026-03-29T16:39:04.005Z</time></trkpt><trkpt lat="44.9823433" lon="8.2852467"><ele>259.0</ele><time>2026-03-29T16:39:05.012Z</time></trkpt><trkpt lat="44.9824367" lon="8.2854217"><ele>259.0</ele><time>2026-03-29T16:39:06.006Z</time></trkpt><trkpt lat="44.9825283" lon="8.2855867"><ele>259.0</ele><time>2026-03-29T16:39:07.004Z</time></trkpt><trkpt lat="44.9826317" lon="8.285715"><ele>259.0</ele><time>2026-03-29T16:39:08.002Z</time></trkpt><trkpt lat="44.9827433" lon="8.2858117"><ele>259.25</ele><time>2026-03-29T16:39:09.005Z</time></trkpt><trkpt lat="44.9828717" lon="8.28586"><ele>259.5</ele><time>2026-03-29T16:39:10.003Z</time></trkpt><trkpt lat="44.9830117" lon="8.2858783"><ele>259.75</ele><time>2026-03-29T16:39:11.005Z</time></trkpt><trkpt lat="44.98316" lon="8.2858683"><ele>260.0</ele><time>2026-03-29T16:39:12.007Z</time></trkpt><trkpt lat="44.9833083" lon="8.285845"><ele>258.6666666666667</ele><time>2026-03-29T16:39:13.005Z</time></trkpt><trkpt lat="44.9834533" lon="8.2857917"><ele>257.3333333333333</ele><time>2026-03-29T16:39:14.006Z</time></trkpt><trkpt lat="44.983595" lon="8.2856967"><ele>256.0</ele><time>2026-03-29T16:39:15.006Z</time></trkpt><trkpt lat="44.9837333" lon="8.2855633"><ele>256.0</ele><time>2026-03-29T16:39:16.007Z</time></trkpt><trkpt lat="44.9838617" lon="8.2853967"><ele>256.0</ele><time>2026-03-29T16:39:17.003Z</time></trkpt><trkpt lat="44.9839883" lon="8.285225"><ele>256.0</ele><time>2026-03-29T16:39:18.007Z</time></trkpt><trkpt lat="44.98412" lon="8.2850617"><ele>256.66666666666663</ele><time>2026-03-29T16:39:19.009Z</time></trkpt><trkpt lat="44.984265" lon="8.2849233"><ele>257.3333333333333</ele><time>2026-03-29T16:39:20.005Z</time></trkpt><trkpt lat="44.98443" lon="8.2848217"><ele>258.0</ele><time>2026-03-29T16:39:21.006Z</time></trkpt><trkpt lat="44.984615" lon="8.28475"><ele>258.0</ele><time>2026-03-29T16:39:22.006Z</time></trkpt><trkpt lat="44.9848033" lon="8.284695"><ele>258.0</ele><time>2026-03-29T16:39:23.005Z</time></trkpt><trkpt lat="44.984995" lon="8.2846433"><ele>258.0</ele><time>2026-03-29T16:39:24.005Z</time></trkpt><trkpt lat="44.9851867" lon="8.2845883"><ele>259.6666666666667</ele><time>2026-03-29T16:39:25.006Z</time></trkpt><trkpt lat="44.9853767" lon="8.284535"><ele>261.33333333333337</ele><time>2026-03-29T16:39:26.008Z</time></trkpt><trkpt lat="44.985565" lon="8.2844883"><ele>263.0</ele><time>2026-03-29T16:39:27.003Z</time></trkpt><trkpt lat="44.98575" lon="8.284455"><ele>261.6666666666667</ele><time>2026-03-29T16:39:28Z</time></trkpt><trkpt lat="44.9859367" lon="8.284445"><ele>260.3333333333333</ele><time>2026-03-29T16:39:29.004Z</time></trkpt><trkpt lat="44.9861233" lon="8.2844633"><ele>259.0</ele><time>2026-03-29T16:39:30.01Z</time></trkpt><trkpt lat="44.9863017" lon="8.2845067"><ele>259.0</ele><time>2026-03-29T16:39:31.004Z</time></trkpt><trkpt lat="44.9864683" lon="8.284575"><ele>259.0</ele><time>2026-03-29T16:39:32.005Z</time></trkpt><trkpt lat="44.986625" lon="8.28466"><ele>259.0</ele><time>2026-03-29T16:39:33.004Z</time></trkpt><trkpt lat="44.986775" lon="8.2847467"><ele>259.3333333333333</ele><time>2026-03-29T16:39:34.005Z</time></trkpt><trkpt lat="44.9869267" lon="8.2848383"><ele>259.6666666666667</ele><time>2026-03-29T16:39:35.003Z</time></trkpt><trkpt lat="44.9870783" lon="8.28492"><ele>260.0</ele><time>2026-03-29T16:39:36.004Z</time></trkpt><trkpt lat="44.9872317" lon="8.2849983"><ele>260.0</ele><time>2026-03-29T16:39:37.005Z</time></trkpt><trkpt lat="44.987385" lon="8.2850783"><ele>260.0</ele><time>2026-03-29T16:39:38.008Z</time></trkpt><trkpt lat="44.9875433" lon="8.285145"><ele>260.0</ele><time>2026-03-29T16:39:39.006Z</time></trkpt><trkpt lat="44.9877033" lon="8.2851883"><ele>261.0</ele><time>2026-03-29T16:39:40.007Z</time></trkpt><trkpt lat="44.9878633" lon="8.2852083"><ele>262.0</ele><time>2026-03-29T16:39:41.004Z</time></trkpt><trkpt lat="44.9880217" lon="8.2852133"><ele>263.0</ele><time>2026-03-29T16:39:42.01Z</time></trkpt><trkpt lat="44.9881767" lon="8.285215"><ele>263.0</ele><time>2026-03-29T16:39:43.005Z</time></trkpt><trkpt lat="44.988325" lon="8.2852167"><ele>263.0</ele><time>2026-03-29T16:39:44.007Z</time></trkpt><trkpt lat="44.9884683" lon="8.285225"><ele>263.0</ele><time>2026-03-29T16:39:45.006Z</time></trkpt><trkpt lat="44.9885983" lon="8.28523"><ele>263.0</ele><time>2026-03-29T16:39:46.007Z</time></trkpt><trkpt lat="44.9887233" lon="8.2852317"><ele>264.0</ele><time>2026-03-29T16:39:47.004Z</time></trkpt><trkpt lat="44.9888433" lon="8.28523"><ele>265.0</ele><time>2026-03-29T16:39:48.006Z</time></trkpt><trkpt lat="44.988955" lon="8.28522"><ele>266.0</ele><time>2026-03-29T16:39:49.004Z</time></trkpt><trkpt lat="44.9890683" lon="8.2852067"><ele>267.0</ele><time>2026-03-29T16:39:50.007Z</time></trkpt><trkpt lat="44.9891717" lon="8.2851817"><ele>268.5</ele><time>2026-03-29T16:39:51.006Z</time></trkpt><trkpt lat="44.98929" lon="8.28516"><ele>270.0</ele><time>2026-03-29T16:39:52.009Z</time></trkpt><trkpt lat="44.98941" lon="8.285125"><ele>271.5</ele><time>2026-03-29T16:39:53.008Z</time></trkpt><trkpt lat="44.9895283" lon="8.285085"><ele>273.0</ele><time>2026-03-29T16:39:54.013Z</time></trkpt><trkpt lat="44.9896433" lon="8.285045"><ele>273.0</ele><time>2026-03-29T16:39:55.006Z</time></trkpt><trkpt lat="44.9897583" lon="8.2850083"><ele>273.0</ele><time>2026-03-29T16:39:56.006Z</time></trkpt><trkpt lat="44.9898733" lon="8.2849667"><ele>273.0</ele><time>2026-03-29T16:39:57.004Z</time></trkpt><trkpt lat="44.9899867" lon="8.2849283"><ele>273.0</ele><time>2026-03-29T16:39:58.004Z</time></trkpt><trkpt lat="44.9900917" lon="8.2848717"><ele>273.75</ele><time>2026-03-29T16:39:59.002Z</time></trkpt><trkpt lat="44.99019" lon="8.2847917"><ele>274.5</ele><time>2026-03-29T16:40:00.018Z</time></trkpt><trkpt lat="44.9902917" lon="8.2847067"><ele>275.25</ele><time>2026-03-29T16:40:01.005Z</time></trkpt><trkpt lat="44.9903933" lon="8.2846133"><ele>276.0</ele><time>2026-03-29T16:40:02.008Z</time></trkpt><trkpt lat="44.9904967" lon="8.2845233"><ele>275.25</ele><time>2026-03-29T16:40:03.004Z</time></trkpt><trkpt lat="44.9906033" lon="8.2844317"><ele>274.5</ele><time>2026-03-29T16:40:04.003Z</time></trkpt><trkpt lat="44.9907133" lon="8.2843367"><ele>273.75</ele><time>2026-03-29T16:40:05.004Z</time></trkpt><trkpt lat="44.9908217" lon="8.2842417"><ele>273.0</ele><time>2026-03-29T16:40:06.005Z</time></trkpt><trkpt lat="44.9909333" lon="8.28415"><ele>273.0</ele><time>2026-03-29T16:40:07.005Z</time></trkpt><trkpt lat="44.99104" lon="8.2840567"><ele>273.0</ele><time>2026-03-29T16:40:08.011Z</time></trkpt><trkpt lat="44.99114" lon="8.2839567"><ele>273.0</ele><time>2026-03-29T16:40:09.007Z</time></trkpt><trkpt lat="44.9912217" lon="8.2838417"><ele>273.0</ele><time>2026-03-29T16:40:10.007Z</time></trkpt><trkpt lat="44.99129" lon="8.2837167"><ele>273.6</ele><time>2026-03-29T16:40:11.004Z</time></trkpt><trkpt lat="44.9913317" lon="8.2835783"><ele>274.20000000000005</ele><time>2026-03-29T16:40:12.006Z</time></trkpt><trkpt lat="44.9913583" lon="8.2834367"><ele>274.8</ele><time>2026-03-29T16:40:13.01Z</time></trkpt><trkpt lat="44.99137" lon="8.2833017"><ele>275.40000000000003</ele><time>2026-03-29T16:40:14.004Z</time></trkpt><trkpt lat="44.9913667" lon="8.2831683"><ele>276.0</ele><time>2026-03-29T16:40:15.006Z</time></trkpt><trkpt lat="44.9913583" lon="8.2830433"><ele>276.3333333333333</ele><time>2026-03-29T16:40:16.003Z</time></trkpt><trkpt lat="44.9913383" lon="8.2829317"><ele>276.6666666666667</ele><time>2026-03-29T16:40:17.006Z</time></trkpt><trkpt lat="44.9913167" lon="8.2828233"><ele>277.0</ele><time>2026-03-29T16:40:18.004Z</time></trkpt><trkpt lat="44.99129" lon="8.2827083"><ele>277.33333333333337</ele><time>2026-03-29T16:40:19.006Z</time></trkpt><trkpt lat="44.9912683" lon="8.2825867"><ele>277.6666666666667</ele><time>2026-03-29T16:40:20.005Z</time></trkpt><trkpt lat="44.9912533" lon="8.282455"><ele>278.0</ele><time>2026-03-29T16:40:21.004Z</time></trkpt><trkpt lat="44.991245" lon="8.2823183"><ele>279.2</ele><time>2026-03-29T16:40:22.004Z</time></trkpt><trkpt lat="44.991245" lon="8.28218"><ele>280.4</ele><time>2026-03-29T16:40:23.003Z</time></trkpt><trkpt lat="44.9912567" lon="8.28205"><ele>281.59999999999997</ele><time>2026-03-29T16:40:24.005Z</time></trkpt><trkpt lat="44.991275" lon="8.281925"><ele>282.8</ele><time>2026-03-29T16:40:25.006Z</time></trkpt><trkpt lat="44.991305" lon="8.2817983"><ele>284.0</ele><time>2026-03-29T16:40:26.006Z</time></trkpt><trkpt lat="44.991345" lon="8.28168"><ele>284.0</ele><time>2026-03-29T16:40:27.007Z</time></trkpt><trkpt lat="44.991395" lon="8.2815617"><ele>284.0</ele><time>2026-03-29T16:40:28.008Z</time></trkpt><trkpt lat="44.9914483" lon="8.2814433"><ele>284.0</ele><time>2026-03-29T16:40:29.006Z</time></trkpt><trkpt lat="44.9915067" lon="8.2813183"><ele>284.0</ele><time>2026-03-29T16:40:30.01Z</time></trkpt><trkpt lat="44.9915667" lon="8.281205"><ele>284.0</ele><time>2026-03-29T16:40:31.007Z</time></trkpt><trkpt lat="44.991635" lon="8.2810917"><ele>284.0</ele><time>2026-03-29T16:40:32.008Z</time></trkpt><trkpt lat="44.9917033" lon="8.280995"><ele>284.0</ele><time>2026-03-29T16:40:33.005Z</time></trkpt><trkpt lat="44.991785" lon="8.2809133"><ele>284.0</ele><time>2026-03-29T16:40:34.009Z</time></trkpt><trkpt lat="44.9918783" lon="8.2808433"><ele>284.0</ele><time>2026-03-29T16:40:35.009Z</time></trkpt><trkpt lat="44.99198" lon="8.2807883"><ele>284.0</ele><time>2026-03-29T16:40:36.009Z</time></trkpt><trkpt lat="44.992085" lon="8.2807467"><ele>284.0</ele><time>2026-03-29T16:40:37.008Z</time></trkpt><trkpt lat="44.9921883" lon="8.280715"><ele>284.0</ele><time>2026-03-29T16:40:38.01Z</time></trkpt><trkpt lat="44.9922833" lon="8.2806983"><ele>284.0</ele><time>2026-03-29T16:40:39.008Z</time></trkpt><trkpt lat="44.9923917" lon="8.2806783"><ele>284.0</ele><time>2026-03-29T16:40:40.007Z</time></trkpt><trkpt lat="44.9924933" lon="8.28066"><ele>284.0</ele><time>2026-03-29T16:40:41.003Z</time></trkpt><trkpt lat="44.9925817" lon="8.2806517"><ele>283.5</ele><time>2026-03-29T16:40:42.003Z</time></trkpt><trkpt lat="44.9926617" lon="8.2806517"><ele>283.0</ele><time>2026-03-29T16:40:43.007Z</time></trkpt><trkpt lat="44.9927333" lon="8.28065"><ele>282.5</ele><time>2026-03-29T16:40:44.008Z</time></trkpt><trkpt lat="44.9928267" lon="8.2806067"><ele>282.0</ele><time>2026-03-29T16:40:46.004Z</time></trkpt><trkpt lat="44.9928517" lon="8.2805083"><ele>281.5</ele><time>2026-03-29T16:40:48.004Z</time></trkpt><trkpt lat="44.992785" lon="8.2804383"><ele>281.0</ele><time>2026-03-29T16:40:49.005Z</time></trkpt><trkpt lat="44.9927333" lon="8.2803867"><ele>280.8</ele><time>2026-03-29T16:40:50.009Z</time></trkpt><trkpt lat="44.9926567" lon="8.2803233"><ele>280.6</ele><time>2026-03-29T16:40:51.003Z</time></trkpt><trkpt lat="44.9925717" lon="8.2802483"><ele>280.4</ele><time>2026-03-29T16:40:52.008Z</time></trkpt><trkpt lat="44.9924733" lon="8.2801683"><ele>280.2</ele><time>2026-03-29T16:40:53.002Z</time></trkpt><trkpt lat="44.9923783" lon="8.28009"><ele>280.0</ele><time>2026-03-29T16:40:54.005Z</time></trkpt><trkpt lat="44.9922867" lon="8.2800167"><ele>280.0</ele><time>2026-03-29T16:40:55.005Z</time></trkpt><trkpt lat="44.9921933" lon="8.2799433"><ele>280.0</ele><time>2026-03-29T16:40:56.005Z</time></trkpt><trkpt lat="44.9920933" lon="8.27987"><ele>280.0</ele><time>2026-03-29T16:40:57.005Z</time></trkpt><trkpt lat="44.9919933" lon="8.279785"><ele>280.0</ele><time>2026-03-29T16:40:58.006Z</time></trkpt><trkpt lat="44.9918967" lon="8.2796967"><ele>278.0</ele><time>2026-03-29T16:40:59.005Z</time></trkpt><trkpt lat="44.9918067" lon="8.2795833"><ele>276.0</ele><time>2026-03-29T16:41:00.002Z</time></trkpt><trkpt lat="44.9917217" lon="8.27945"><ele>274.0</ele><time>2026-03-29T16:41:01.003Z</time></trkpt><trkpt lat="44.9916433" lon="8.2793167"><ele>272.0</ele><time>2026-03-29T16:41:02.003Z</time></trkpt><trkpt lat="44.991575" lon="8.2791867"><ele>272.0</ele><time>2026-03-29T16:41:03.006Z</time></trkpt><trkpt lat="44.99151" lon="8.279095"><ele>272.0</ele><time>2026-03-29T16:41:04.005Z</time></trkpt><trkpt lat="44.99146" lon="8.2790083"><ele>272.0</ele><time>2026-03-29T16:41:05.007Z</time></trkpt><trkpt lat="44.991415" lon="8.278915"><ele>272.0</ele><time>2026-03-29T16:41:06.003Z</time></trkpt><trkpt lat="44.9913767" lon="8.2788117"><ele>272.0</ele><time>2026-03-29T16:41:07.006Z</time></trkpt><trkpt lat="44.9913533" lon="8.2787083"><ele>272.0</ele><time>2026-03-29T16:41:08Z</time></trkpt><trkpt lat="44.9913317" lon="8.2785767"><ele>270.4</ele><time>2026-03-29T16:41:09.004Z</time></trkpt><trkpt lat="44.9913217" lon="8.278445"><ele>268.79999999999995</ele><time>2026-03-29T16:41:10.003Z</time></trkpt><trkpt lat="44.9913067" lon="8.2783183"><ele>267.2</ele><time>2026-03-29T16:41:11.01Z</time></trkpt><trkpt lat="44.9913117" lon="8.2781967"><ele>265.59999999999997</ele><time>2026-03-29T16:41:12.007Z</time></trkpt><trkpt lat="44.9912883" lon="8.2780683"><ele>264.0</ele><time>2026-03-29T16:41:13.004Z</time></trkpt><trkpt lat="44.99128" lon="8.2779367"><ele>262.4</ele><time>2026-03-29T16:41:14.008Z</time></trkpt><trkpt lat="44.9912683" lon="8.2778067"><ele>260.79999999999995</ele><time>2026-03-29T16:41:15.003Z</time></trkpt><trkpt lat="44.9912633" lon="8.2776717"><ele>259.20000000000005</ele><time>2026-03-29T16:41:16.004Z</time></trkpt><trkpt lat="44.9912583" lon="8.27754"><ele>257.6</ele><time>2026-03-29T16:41:17.009Z</time></trkpt><trkpt lat="44.9912567" lon="8.27741"><ele>256.0</ele><time>2026-03-29T16:41:18.006Z</time></trkpt><trkpt lat="44.991255" lon="8.2772783"><ele>255.4</ele><time>2026-03-29T16:41:19.011Z</time></trkpt><trkpt lat="44.9912483" lon="8.2771467"><ele>254.8</ele><time>2026-03-29T16:41:20.005Z</time></trkpt><trkpt lat="44.991245" lon="8.2770183"><ele>254.20000000000002</ele><time>2026-03-29T16:41:21.008Z</time></trkpt><trkpt lat="44.9912483" lon="8.27689"><ele>253.60000000000002</ele><time>2026-03-29T16:41:22.004Z</time></trkpt><trkpt lat="44.9912583" lon="8.276755"><ele>253.0</ele><time>2026-03-29T16:41:23.005Z</time></trkpt><trkpt lat="44.9912583" lon="8.2766367"><ele>252.99999999999997</ele><time>2026-03-29T16:41:24.002Z</time></trkpt><trkpt lat="44.991265" lon="8.2765183"><ele>253.0</ele><time>2026-03-29T16:41:25.01Z</time></trkpt><trkpt lat="44.9912617" lon="8.2763983"><ele>253.0</ele><time>2026-03-29T16:41:26.006Z</time></trkpt><trkpt lat="44.9912483" lon="8.2762783"><ele>253.0</ele><time>2026-03-29T16:41:27.004Z</time></trkpt><trkpt lat="44.99123" lon="8.2761567"><ele>252.99999999999997</ele><time>2026-03-29T16:41:28.005Z</time></trkpt><trkpt lat="44.9912033" lon="8.2760317"><ele>253.0</ele><time>2026-03-29T16:41:29.005Z</time></trkpt><trkpt lat="44.991175" lon="8.2759083"><ele>252.16666666666666</ele><time>2026-03-29T16:41:30.004Z</time></trkpt><trkpt lat="44.9911267" lon="8.2757917"><ele>251.33333333333331</ele><time>2026-03-29T16:41:31.004Z</time></trkpt><trkpt lat="44.99108" lon="8.2756767"><ele>250.5</ele><time>2026-03-29T16:41:32.008Z</time></trkpt><trkpt lat="44.9910283" lon="8.2755867"><ele>249.66666666666669</ele><time>2026-03-29T16:41:33.005Z</time></trkpt><trkpt lat="44.9909683" lon="8.2755117"><ele>248.83333333333334</ele><time>2026-03-29T16:41:34.006Z</time></trkpt><trkpt lat="44.99091" lon="8.2754483"><ele>248.0</ele><time>2026-03-29T16:41:35.006Z</time></trkpt><trkpt lat="44.9908367" lon="8.2753783"><ele>251.0</ele><time>2026-03-29T16:41:36.006Z</time></trkpt><trkpt lat="44.990755" lon="8.2752983"><ele>254.0</ele><time>2026-03-29T16:41:37.009Z</time></trkpt><trkpt lat="44.9906617" lon="8.2752017"><ele>257.0</ele><time>2026-03-29T16:41:38.01Z</time></trkpt><trkpt lat="44.99057" lon="8.275085"><ele>260.0</ele><time>2026-03-29T16:41:39.006Z</time></trkpt><trkpt lat="44.9904617" lon="8.2749617"><ele>260.0</ele><time>2026-03-29T16:41:40.005Z</time></trkpt><trkpt lat="44.9903517" lon="8.2748367"><ele>260.0</ele><time>2026-03-29T16:41:41.011Z</time></trkpt><trkpt lat="44.99024" lon="8.2747083"><ele>260.0</ele><time>2026-03-29T16:41:42.008Z</time></trkpt><trkpt lat="44.990135" lon="8.2745783"><ele>260.0</ele><time>2026-03-29T16:41:43.005Z</time></trkpt><trkpt lat="44.990025" lon="8.2744467"><ele>258.25</ele><time>2026-03-29T16:41:44.006Z</time></trkpt><trkpt lat="44.9899083" lon="8.2743133"><ele>256.5</ele><time>2026-03-29T16:41:45.01Z</time></trkpt><trkpt lat="44.9897983" lon="8.2741783"><ele>254.75</ele><time>2026-03-29T16:41:46.007Z</time></trkpt><trkpt lat="44.989685" lon="8.27405"><ele>253.0</ele><time>2026-03-29T16:41:47.004Z</time></trkpt><trkpt lat="44.98957" lon="8.2739267"><ele>252.75</ele><time>2026-03-29T16:41:48.005Z</time></trkpt><trkpt lat="44.9894583" lon="8.2738233"><ele>252.5</ele><time>2026-03-29T16:41:49.01Z</time></trkpt><trkpt lat="44.9893383" lon="8.2737167"><ele>252.25</ele><time>2026-03-29T16:41:50.003Z</time></trkpt><trkpt lat="44.9892233" lon="8.2735817"><ele>252.0</ele><time>2026-03-29T16:41:51.001Z</time></trkpt><trkpt lat="44.9891" lon="8.273485"><ele>250.5</ele><time>2026-03-29T16:41:52.005Z</time></trkpt><trkpt lat="44.9889767" lon="8.273385"><ele>249.0</ele><time>2026-03-29T16:41:53.007Z</time></trkpt><trkpt lat="44.9888517" lon="8.2732867"><ele>247.5</ele><time>2026-03-29T16:41:54.001Z</time></trkpt><trkpt lat="44.9887283" lon="8.2731867"><ele>246.0</ele><time>2026-03-29T16:41:55.009Z</time></trkpt><trkpt lat="44.9886083" lon="8.2730867"><ele>244.25</ele><time>2026-03-29T16:41:56.005Z</time></trkpt><trkpt lat="44.9884917" lon="8.2729833"><ele>242.5</ele><time>2026-03-29T16:41:57.009Z</time></trkpt><trkpt lat="44.9883783" lon="8.2728867"><ele>240.75</ele><time>2026-03-29T16:41:58.009Z</time></trkpt><trkpt lat="44.9882683" lon="8.2727983"><ele>239.0</ele><time>2026-03-29T16:41:59.003Z</time></trkpt><trkpt lat="44.9881633" lon="8.2727167"><ele>238.25</ele><time>2026-03-29T16:42:00.01Z</time></trkpt><trkpt lat="44.9880617" lon="8.27263"><ele>237.5</ele><time>2026-03-29T16:42:01.006Z</time></trkpt><trkpt lat="44.9879683" lon="8.272515"><ele>236.75</ele><time>2026-03-29T16:42:02.01Z</time></trkpt><trkpt lat="44.9878717" lon="8.272415"><ele>236.0</ele><time>2026-03-29T16:42:03.012Z</time></trkpt><trkpt lat="44.9877717" lon="8.272325"><ele>234.0</ele><time>2026-03-29T16:42:04.006Z</time></trkpt><trkpt lat="44.9876683" lon="8.2722283"><ele>232.0</ele><time>2026-03-29T16:42:05.008Z</time></trkpt><trkpt lat="44.9875667" lon="8.2721333"><ele>230.0</ele><time>2026-03-29T16:42:06.007Z</time></trkpt><trkpt lat="44.9874617" lon="8.2720467"><ele>228.0</ele><time>2026-03-29T16:42:07.014Z</time></trkpt><trkpt lat="44.9873583" lon="8.2719667"><ele>228.0</ele><time>2026-03-29T16:42:08.004Z</time></trkpt><trkpt lat="44.9872533" lon="8.2718917"><ele>228.0</ele><time>2026-03-29T16:42:09.009Z</time></trkpt><trkpt lat="44.98715" lon="8.2718167"><ele>228.0</ele><time>2026-03-29T16:42:10.006Z</time></trkpt><trkpt lat="44.9870433" lon="8.2717333"><ele>228.0</ele><time>2026-03-29T16:42:11.005Z</time></trkpt><trkpt lat="44.986925" lon="8.2716517"><ele>228.0</ele><time>2026-03-29T16:42:12.006Z</time></trkpt><trkpt lat="44.98681" lon="8.2715633"><ele>228.0</ele><time>2026-03-29T16:42:13.01Z</time></trkpt><trkpt lat="44.9866833" lon="8.2714917"><ele>228.0</ele><time>2026-03-29T16:42:14.007Z</time></trkpt><trkpt lat="44.98655" lon="8.2714317"><ele>228.0</ele><time>2026-03-29T16:42:15.01Z</time></trkpt><trkpt lat="44.9864233" lon="8.2713767"><ele>225.33333333333331</ele><time>2026-03-29T16:42:16.005Z</time></trkpt><trkpt lat="44.9862867" lon="8.2713017"><ele>222.66666666666666</ele><time>2026-03-29T16:42:17.006Z</time></trkpt><trkpt lat="44.9861433" lon="8.2712267"><ele>220.0</ele><time>2026-03-29T16:42:18.005Z</time></trkpt><trkpt lat="44.986" lon="8.271145"><ele>220.0</ele><time>2026-03-29T16:42:19.005Z</time></trkpt><trkpt lat="44.98586" lon="8.2710517"><ele>220.0</ele><time>2026-03-29T16:42:20.005Z</time></trkpt><trkpt lat="44.9857233" lon="8.27095"><ele>220.0</ele><time>2026-03-29T16:42:21.007Z</time></trkpt><trkpt lat="44.9855917" lon="8.2708467"><ele>219.75</ele><time>2026-03-29T16:42:22.008Z</time></trkpt><trkpt lat="44.9854617" lon="8.2707467"><ele>219.5</ele><time>2026-03-29T16:42:23.004Z</time></trkpt><trkpt lat="44.9853417" lon="8.2706517"><ele>219.25</ele><time>2026-03-29T16:42:24.007Z</time></trkpt><trkpt lat="44.985235" lon="8.2705683"><ele>219.0</ele><time>2026-03-29T16:42:25.007Z</time></trkpt><trkpt lat="44.9851417" lon="8.2704917"><ele>218.6</ele><time>2026-03-29T16:42:26.009Z</time></trkpt><trkpt lat="44.9850583" lon="8.2704183"><ele>218.2</ele><time>2026-03-29T16:42:27.009Z</time></trkpt><trkpt lat="44.9849733" lon="8.2703383"><ele>217.79999999999998</ele><time>2026-03-29T16:42:28.006Z</time></trkpt><trkpt lat="44.98488" lon="8.2702517"><ele>217.39999999999998</ele><time>2026-03-29T16:42:29.008Z</time></trkpt><trkpt lat="44.98479" lon="8.2701417"><ele>217.0</ele><time>2026-03-29T16:42:30.007Z</time></trkpt><trkpt lat="44.9846983" lon="8.2700117"><ele>217.0</ele><time>2026-03-29T16:42:31.007Z</time></trkpt><trkpt lat="44.98461" lon="8.2698667"><ele>217.0</ele><time>2026-03-29T16:42:32.005Z</time></trkpt><trkpt lat="44.9845317" lon="8.2697017"><ele>217.0</ele><time>2026-03-29T16:42:33.008Z</time></trkpt><trkpt lat="44.9844617" lon="8.2695133"><ele>217.0</ele><time>2026-03-29T16:42:34.007Z</time></trkpt><trkpt lat="44.9844" lon="8.269315"><ele>213.0</ele><time>2026-03-29T16:42:35.004Z</time></trkpt><trkpt lat="44.9843333" lon="8.2691233"><ele>209.0</ele><time>2026-03-29T16:42:36.01Z</time></trkpt><trkpt lat="44.9842683" lon="8.26893"><ele>205.0</ele><time>2026-03-29T16:42:37.006Z</time></trkpt><trkpt lat="44.984195" lon="8.2687417"><ele>208.66666666666666</ele><time>2026-03-29T16:42:38.007Z</time></trkpt><trkpt lat="44.9841183" lon="8.2685533"><ele>212.33333333333331</ele><time>2026-03-29T16:42:39.006Z</time></trkpt><trkpt lat="44.9840333" lon="8.2683717"><ele>216.0</ele><time>2026-03-29T16:42:40.006Z</time></trkpt><trkpt lat="44.9839483" lon="8.2681867"><ele>212.0</ele><time>2026-03-29T16:42:41.009Z</time></trkpt><trkpt lat="44.98386" lon="8.2679867"><ele>208.0</ele><time>2026-03-29T16:42:42.004Z</time></trkpt><trkpt lat="44.9837733" lon="8.2677767"><ele>204.0</ele><time>2026-03-29T16:42:43.008Z</time></trkpt><trkpt lat="44.983695" lon="8.2675583"><ele>204.0</ele><time>2026-03-29T16:42:44.01Z</time></trkpt><trkpt lat="44.9836117" lon="8.2673283"><ele>204.0</ele><time>2026-03-29T16:42:45.005Z</time></trkpt><trkpt lat="44.98353" lon="8.2670933"><ele>204.0</ele><time>2026-03-29T16:42:46.005Z</time></trkpt><trkpt lat="44.9834533" lon="8.2668517"><ele>200.66666666666669</ele><time>2026-03-29T16:42:47.008Z</time></trkpt><trkpt lat="44.9833867" lon="8.2666117"><ele>197.33333333333334</ele><time>2026-03-29T16:42:48.008Z</time></trkpt><trkpt lat="44.9833217" lon="8.2663633"><ele>194.0</ele><time>2026-03-29T16:42:49.004Z</time></trkpt><trkpt lat="44.9832583" lon="8.2661167"><ele>194.0</ele><time>2026-03-29T16:42:50.008Z</time></trkpt><trkpt lat="44.983205" lon="8.2658833"><ele>194.0</ele><time>2026-03-29T16:42:51.01Z</time></trkpt><trkpt lat="44.983155" lon="8.2656517"><ele>194.0</ele><time>2026-03-29T16:42:52.006Z</time></trkpt><trkpt lat="44.9831183" lon="8.2654233"><ele>193.66666666666669</ele><time>2026-03-29T16:42:53.009Z</time></trkpt><trkpt lat="44.98309" lon="8.2651983"><ele>193.33333333333331</ele><time>2026-03-29T16:42:54.008Z</time></trkpt><trkpt lat="44.9830667" lon="8.26497"><ele>193.0</ele><time>2026-03-29T16:42:55.007Z</time></trkpt><trkpt lat="44.9830467" lon="8.2647417"><ele>193.0</ele><time>2026-03-29T16:42:56.009Z</time></trkpt><trkpt lat="44.983015" lon="8.26451"><ele>193.0</ele><time>2026-03-29T16:42:57.005Z</time></trkpt><trkpt lat="44.9829667" lon="8.26428"><ele>193.0</ele><time>2026-03-29T16:42:58.01Z</time></trkpt><trkpt lat="44.9829083" lon="8.2640517"><ele>189.0</ele><time>2026-03-29T16:42:59.006Z</time></trkpt><trkpt lat="44.9828433" lon="8.2638183"><ele>185.0</ele><time>2026-03-29T16:43:00.011Z</time></trkpt><trkpt lat="44.9827733" lon="8.2635833"><ele>181.0</ele><time>2026-03-29T16:43:01.004Z</time></trkpt><trkpt lat="44.9827133" lon="8.26335"><ele>181.0</ele><time>2026-03-29T16:43:02.007Z</time></trkpt><trkpt lat="44.9826617" lon="8.2631183"><ele>181.0</ele><time>2026-03-29T16:43:03.009Z</time></trkpt><trkpt lat="44.9826233" lon="8.2628833"><ele>181.0</ele><time>2026-03-29T16:43:04.006Z</time></trkpt><trkpt lat="44.9825833" lon="8.2626583"><ele>179.33333333333334</ele><time>2026-03-29T16:43:05.008Z</time></trkpt><trkpt lat="44.9825433" lon="8.262435"><ele>177.66666666666666</ele><time>2026-03-29T16:43:06.008Z</time></trkpt><trkpt lat="44.9825017" lon="8.2622167"><ele>176.0</ele><time>2026-03-29T16:43:07.006Z</time></trkpt><trkpt lat="44.9824667" lon="8.2620183"><ele>175.25</ele><time>2026-03-29T16:43:08.005Z</time></trkpt><trkpt lat="44.9824367" lon="8.26183"><ele>174.5</ele><time>2026-03-29T16:43:09.008Z</time></trkpt><trkpt lat="44.9824017" lon="8.2616467"><ele>173.75</ele><time>2026-03-29T16:43:10.009Z</time></trkpt><trkpt lat="44.9823717" lon="8.2614567"><ele>173.0</ele><time>2026-03-29T16:43:11.007Z</time></trkpt><trkpt lat="44.98234" lon="8.2612633"><ele>170.0</ele><time>2026-03-29T16:43:12.004Z</time></trkpt><trkpt lat="44.982315" lon="8.2610717"><ele>167.0</ele><time>2026-03-29T16:43:13.002Z</time></trkpt><trkpt lat="44.982295" lon="8.2608867"><ele>164.0</ele><time>2026-03-29T16:43:14.003Z</time></trkpt><trkpt lat="44.9822783" lon="8.2607217"><ele>161.0</ele><time>2026-03-29T16:43:15.007Z</time></trkpt><trkpt lat="44.98224" lon="8.2605883"><ele>160.20000000000002</ele><time>2026-03-29T16:43:16.005Z</time></trkpt><trkpt lat="44.9821817" lon="8.2604883"><ele>159.4</ele><time>2026-03-29T16:43:17.01Z</time></trkpt><trkpt lat="44.9821067" lon="8.2604167"><ele>158.6</ele><time>2026-03-29T16:43:18.003Z</time></trkpt><trkpt lat="44.9820133" lon="8.2603917"><ele>157.8</ele><time>2026-03-29T16:43:19.002Z</time></trkpt><trkpt lat="44.9819" lon="8.2604067"><ele>157.0</ele><time>2026-03-29T16:43:20.005Z</time></trkpt><trkpt lat="44.9817833" lon="8.260455"><ele>156.79999999999998</ele><time>2026-03-29T16:43:21.01Z</time></trkpt><trkpt lat="44.9816717" lon="8.2605283"><ele>156.6</ele><time>2026-03-29T16:43:22.005Z</time></trkpt><trkpt lat="44.9815767" lon="8.2606183"><ele>156.39999999999998</ele><time>2026-03-29T16:43:23.008Z</time></trkpt><trkpt lat="44.981495" lon="8.2607067"><ele>156.2</ele><time>2026-03-29T16:43:24.003Z</time></trkpt><trkpt lat="44.9813983" lon="8.2607517"><ele>156.0</ele><time>2026-03-29T16:43:25.006Z</time></trkpt><trkpt lat="44.9812933" lon="8.260755"><ele>156.75</ele><time>2026-03-29T16:43:26.002Z</time></trkpt><trkpt lat="44.9811883" lon="8.26074"><ele>157.5</ele><time>2026-03-29T16:43:27.005Z</time></trkpt><trkpt lat="44.9810683" lon="8.2606867"><ele>158.25</ele><time>2026-03-29T16:43:28.006Z</time></trkpt><trkpt lat="44.9809333" lon="8.2606167"><ele>159.0</ele><time>2026-03-29T16:43:29.006Z</time></trkpt><trkpt lat="44.9807867" lon="8.26053"><ele>156.0</ele><time>2026-03-29T16:43:30.002Z</time></trkpt><trkpt lat="44.980635" lon="8.2604383"><ele>153.0</ele><time>2026-03-29T16:43:31.008Z</time></trkpt><trkpt lat="44.9804783" lon="8.2603433"><ele>150.0</ele><time>2026-03-29T16:43:32.002Z</time></trkpt><trkpt lat="44.9803267" lon="8.26024"><ele>150.0</ele><time>2026-03-29T16:43:33.004Z</time></trkpt><trkpt lat="44.9801817" lon="8.2601133"><ele>150.0</ele><time>2026-03-29T16:43:34.004Z</time></trkpt><trkpt lat="44.98005" lon="8.259955"><ele>150.0</ele><time>2026-03-29T16:43:35.005Z</time></trkpt><trkpt lat="44.979925" lon="8.2597933"><ele>150.33333333333334</ele><time>2026-03-29T16:43:36.001Z</time></trkpt><trkpt lat="44.979805" lon="8.2596367"><ele>150.66666666666669</ele><time>2026-03-29T16:43:37.006Z</time></trkpt><trkpt lat="44.9796883" lon="8.2594867"><ele>151.0</ele><time>2026-03-29T16:43:38.003Z</time></trkpt><trkpt lat="44.9795833" lon="8.2593267"><ele>151.0</ele><time>2026-03-29T16:43:39.004Z</time></trkpt><trkpt lat="44.9794933" lon="8.2591517"><ele>151.0</ele><time>2026-03-29T16:43:40.007Z</time></trkpt><trkpt lat="44.9794033" lon="8.2589783"><ele>151.0</ele><time>2026-03-29T16:43:41.004Z</time></trkpt><trkpt lat="44.979305" lon="8.2588183"><ele>151.0</ele><time>2026-03-29T16:43:42.004Z</time></trkpt><trkpt lat="44.9791833" lon="8.2586817"><ele>151.0</ele><time>2026-03-29T16:43:43.004Z</time></trkpt><trkpt lat="44.97904" lon="8.2585533"><ele>151.0</ele><time>2026-03-29T16:43:44.003Z</time></trkpt><trkpt lat="44.9788783" lon="8.2584383"><ele>151.0</ele><time>2026-03-29T16:43:45.007Z</time></trkpt><trkpt lat="44.9787017" lon="8.25833"><ele>151.0</ele><time>2026-03-29T16:43:46.01Z</time></trkpt><trkpt lat="44.978525" lon="8.2582267"><ele>151.0</ele><time>2026-03-29T16:43:47.002Z</time></trkpt><trkpt lat="44.9783533" lon="8.258135"><ele>150.25</ele><time>2026-03-29T16:43:48.008Z</time></trkpt><trkpt lat="44.9782033" lon="8.2580583"><ele>149.5</ele><time>2026-03-29T16:43:49.007Z</time></trkpt><trkpt lat="44.9780767" lon="8.257965"><ele>148.75</ele><time>2026-03-29T16:43:50.006Z</time></trkpt><trkpt lat="44.9779683" lon="8.25785"><ele>148.0</ele><time>2026-03-29T16:43:51.005Z</time></trkpt><trkpt lat="44.9778767" lon="8.2577"><ele>148.0</ele><time>2026-03-29T16:43:52.003Z</time></trkpt><trkpt lat="44.9777983" lon="8.2575117"><ele>148.0</ele><time>2026-03-29T16:43:53.005Z</time></trkpt><trkpt lat="44.977715" lon="8.2573083"><ele>148.0</ele><time>2026-03-29T16:43:54.007Z</time></trkpt><trkpt lat="44.9776233" lon="8.257095"><ele>147.66666666666669</ele><time>2026-03-29T16:43:55.005Z</time></trkpt><trkpt lat="44.9775233" lon="8.25688"><ele>147.33333333333334</ele><time>2026-03-29T16:43:56.005Z</time></trkpt><trkpt lat="44.9774333" lon="8.25666"><ele>147.0</ele><time>2026-03-29T16:43:57.01Z</time></trkpt><trkpt lat="44.9773583" lon="8.2564267"><ele>148.0</ele><time>2026-03-29T16:43:58.008Z</time></trkpt><trkpt lat="44.9772917" lon="8.2561933"><ele>149.0</ele><time>2026-03-29T16:43:59.006Z</time></trkpt><trkpt lat="44.9772267" lon="8.25596"><ele>150.0</ele><time>2026-03-29T16:44:00.008Z</time></trkpt><trkpt lat="44.97715" lon="8.2557433"><ele>149.33333333333334</ele><time>2026-03-29T16:44:01.006Z</time></trkpt><trkpt lat="44.9770533" lon="8.2555433"><ele>148.66666666666669</ele><time>2026-03-29T16:44:02.004Z</time></trkpt><trkpt lat="44.9769433" lon="8.2553717"><ele>148.0</ele><time>2026-03-29T16:44:03.002Z</time></trkpt><trkpt lat="44.97683" lon="8.25521"><ele>148.0</ele><time>2026-03-29T16:44:04.004Z</time></trkpt><trkpt lat="44.976735" lon="8.25505"><ele>148.0</ele><time>2026-03-29T16:44:05.004Z</time></trkpt><trkpt lat="44.9766633" lon="8.25488"><ele>148.0</ele><time>2026-03-29T16:44:06.006Z</time></trkpt><trkpt lat="44.9766167" lon="8.25469"><ele>148.0</ele><time>2026-03-29T16:44:07.007Z</time></trkpt><trkpt lat="44.97658" lon="8.2544817"><ele>147.75</ele><time>2026-03-29T16:44:08Z</time></trkpt><trkpt lat="44.9765583" lon="8.2542783"><ele>147.5</ele><time>2026-03-29T16:44:09.002Z</time></trkpt><trkpt lat="44.9765333" lon="8.2540817"><ele>147.25</ele><time>2026-03-29T16:44:10.008Z</time></trkpt><trkpt lat="44.9765117" lon="8.2538867"><ele>147.0</ele><time>2026-03-29T16:44:11.002Z</time></trkpt><trkpt lat="44.9764883" lon="8.2536933"><ele>146.75</ele><time>2026-03-29T16:44:12.002Z</time></trkpt><trkpt lat="44.9764683" lon="8.2535017"><ele>146.5</ele><time>2026-03-29T16:44:13.008Z</time></trkpt><trkpt lat="44.9764467" lon="8.2533083"><ele>146.25</ele><time>2026-03-29T16:44:14.007Z</time></trkpt><trkpt lat="44.976425" lon="8.2531133"><ele>146.0</ele><time>2026-03-29T16:44:15.005Z</time></trkpt><trkpt lat="44.9764" lon="8.2529233"><ele>146.0</ele><time>2026-03-29T16:44:16.007Z</time></trkpt><trkpt lat="44.9763633" lon="8.2527317"><ele>146.0</ele><time>2026-03-29T16:44:17.007Z</time></trkpt><trkpt lat="44.9763233" lon="8.2525417"><ele>146.0</ele><time>2026-03-29T16:44:18.003Z</time></trkpt><trkpt lat="44.9762717" lon="8.2523483"><ele>146.0</ele><time>2026-03-29T16:44:19.006Z</time></trkpt><trkpt lat="44.9762083" lon="8.2521533"><ele>146.0</ele><time>2026-03-29T16:44:20.008Z</time></trkpt><trkpt lat="44.9761517" lon="8.2519633"><ele>146.0</ele><time>2026-03-29T16:44:21.004Z</time></trkpt><trkpt lat="44.976105" lon="8.2517717"><ele>146.0</ele><time>2026-03-29T16:44:22.002Z</time></trkpt><trkpt lat="44.976075" lon="8.25158"><ele>146.0</ele><time>2026-03-29T16:44:23.004Z</time></trkpt><trkpt lat="44.9760667" lon="8.251385"><ele>146.0</ele><time>2026-03-29T16:44:24.002Z</time></trkpt><trkpt lat="44.9760683" lon="8.2511883"><ele>146.0</ele><time>2026-03-29T16:44:25.005Z</time></trkpt><trkpt lat="44.9760733" lon="8.250995"><ele>146.0</ele><time>2026-03-29T16:44:26.006Z</time></trkpt><trkpt lat="44.976075" lon="8.2508"><ele>146.0</ele><time>2026-03-29T16:44:27.004Z</time></trkpt><trkpt lat="44.97607" lon="8.2506033"><ele>146.25</ele><time>2026-03-29T16:44:28.007Z</time></trkpt><trkpt lat="44.976055" lon="8.2504067"><ele>146.5</ele><time>2026-03-29T16:44:29.003Z</time></trkpt><trkpt lat="44.9760183" lon="8.2502083"><ele>146.75</ele><time>2026-03-29T16:44:30.004Z</time></trkpt><trkpt lat="44.9759667" lon="8.2500233"><ele>147.0</ele><time>2026-03-29T16:44:31.006Z</time></trkpt><trkpt lat="44.9758933" lon="8.24985"><ele>146.25</ele><time>2026-03-29T16:44:32.001Z</time></trkpt><trkpt lat="44.9758167" lon="8.2496883"><ele>145.5</ele><time>2026-03-29T16:44:33.005Z</time></trkpt><trkpt lat="44.9757233" lon="8.2495367"><ele>144.75</ele><time>2026-03-29T16:44:34.004Z</time></trkpt><trkpt lat="44.9756217" lon="8.2494067"><ele>144.0</ele><time>2026-03-29T16:44:35.006Z</time></trkpt><trkpt lat="44.9755183" lon="8.2493017"><ele>144.0</ele><time>2026-03-29T16:44:36.004Z</time></trkpt><trkpt lat="44.9754133" lon="8.2492117"><ele>144.0</ele><time>2026-03-29T16:44:37.001Z</time></trkpt><trkpt lat="44.97531" lon="8.2491267"><ele>144.0</ele><time>2026-03-29T16:44:38.009Z</time></trkpt><trkpt lat="44.97521" lon="8.2490267"><ele>144.0</ele><time>2026-03-29T16:44:39.01Z</time></trkpt><trkpt lat="44.97512" lon="8.2489233"><ele>144.0</ele><time>2026-03-29T16:44:40.005Z</time></trkpt><trkpt lat="44.975035" lon="8.24881"><ele>144.0</ele><time>2026-03-29T16:44:41.012Z</time></trkpt><trkpt lat="44.9749433" lon="8.2486967"><ele>144.0</ele><time>2026-03-29T16:44:42.004Z</time></trkpt><trkpt lat="44.974855" lon="8.2485683"><ele>144.0</ele><time>2026-03-29T16:44:43.004Z</time></trkpt><trkpt lat="44.9747667" lon="8.24844"><ele>144.25</ele><time>2026-03-29T16:44:44.006Z</time></trkpt><trkpt lat="44.9746767" lon="8.24831"><ele>144.5</ele><time>2026-03-29T16:44:45.008Z</time></trkpt><trkpt lat="44.974585" lon="8.2481717"><ele>144.75</ele><time>2026-03-29T16:44:46.006Z</time></trkpt><trkpt lat="44.9744917" lon="8.2480317"><ele>145.0</ele><time>2026-03-29T16:44:47.006Z</time></trkpt><trkpt lat="44.9743967" lon="8.24789"><ele>145.25</ele><time>2026-03-29T16:44:48.003Z</time></trkpt><trkpt lat="44.9743" lon="8.2477483"><ele>145.5</ele><time>2026-03-29T16:44:49.005Z</time></trkpt><trkpt lat="44.9742" lon="8.2476033"><ele>145.75</ele><time>2026-03-29T16:44:50.007Z</time></trkpt><trkpt lat="44.974095" lon="8.247455"><ele>146.0</ele><time>2026-03-29T16:44:51.004Z</time></trkpt><trkpt lat="44.9739883" lon="8.2473117"><ele>145.33333333333331</ele><time>2026-03-29T16:44:52.002Z</time></trkpt><trkpt lat="44.9738767" lon="8.2471633"><ele>144.66666666666666</ele><time>2026-03-29T16:44:53.004Z</time></trkpt><trkpt lat="44.9737567" lon="8.247005"><ele>144.0</ele><time>2026-03-29T16:44:54.005Z</time></trkpt><trkpt lat="44.973635" lon="8.2468433"><ele>144.0</ele><time>2026-03-29T16:44:55.004Z</time></trkpt><trkpt lat="44.973515" lon="8.24668"><ele>144.0</ele><time>2026-03-29T16:44:56.008Z</time></trkpt><trkpt lat="44.9733967" lon="8.2465083"><ele>144.0</ele><time>2026-03-29T16:44:57.001Z</time></trkpt><trkpt lat="44.9732767" lon="8.246335"><ele>143.66666666666666</ele><time>2026-03-29T16:44:58.006Z</time></trkpt><trkpt lat="44.9731617" lon="8.2461517"><ele>143.33333333333331</ele><time>2026-03-29T16:44:59.004Z</time></trkpt><trkpt lat="44.9730517" lon="8.2459583"><ele>143.0</ele><time>2026-03-29T16:45:00.006Z</time></trkpt><trkpt lat="44.9729417" lon="8.245765"><ele>143.33333333333331</ele><time>2026-03-29T16:45:01.005Z</time></trkpt><trkpt lat="44.9728383" lon="8.2455767"><ele>143.66666666666666</ele><time>2026-03-29T16:45:02.002Z</time></trkpt><trkpt lat="44.9727383" lon="8.2453933"><ele>144.0</ele><time>2026-03-29T16:45:03.007Z</time></trkpt><trkpt lat="44.9726367" lon="8.245215"><ele>144.0</ele><time>2026-03-29T16:45:04.003Z</time></trkpt><trkpt lat="44.9725333" lon="8.2450417"><ele>144.0</ele><time>2026-03-29T16:45:05.007Z</time></trkpt><trkpt lat="44.9724317" lon="8.2448717"><ele>144.0</ele><time>2026-03-29T16:45:06.006Z</time></trkpt><trkpt lat="44.97233" lon="8.2446983"><ele>142.66666666666666</ele><time>2026-03-29T16:45:07.006Z</time></trkpt><trkpt lat="44.97223" lon="8.2445183"><ele>141.33333333333331</ele><time>2026-03-29T16:45:08.002Z</time></trkpt><trkpt lat="44.9721283" lon="8.2443367"><ele>140.0</ele><time>2026-03-29T16:45:09.001Z</time></trkpt><trkpt lat="44.9720283" lon="8.2441517"><ele>139.33333333333331</ele><time>2026-03-29T16:45:10.002Z</time></trkpt><trkpt lat="44.97193" lon="8.2439617"><ele>138.66666666666666</ele><time>2026-03-29T16:45:11.002Z</time></trkpt><trkpt lat="44.9718367" lon="8.2437667"><ele>138.0</ele><time>2026-03-29T16:45:12.003Z</time></trkpt><trkpt lat="44.9717433" lon="8.2435667"><ele>139.0</ele><time>2026-03-29T16:45:13.009Z</time></trkpt><trkpt lat="44.971645" lon="8.2433617"><ele>140.0</ele><time>2026-03-29T16:45:14.006Z</time></trkpt><trkpt lat="44.9715483" lon="8.243155"><ele>141.0</ele><time>2026-03-29T16:45:15.006Z</time></trkpt><trkpt lat="44.9714583" lon="8.2429483"><ele>141.0</ele><time>2026-03-29T16:45:16.002Z</time></trkpt><trkpt lat="44.9713667" lon="8.2427467"><ele>141.0</ele><time>2026-03-29T16:45:17.004Z</time></trkpt><trkpt lat="44.97127" lon="8.24254"><ele>141.0</ele><time>2026-03-29T16:45:18.004Z</time></trkpt><trkpt lat="44.9711783" lon="8.2423333"><ele>140.0</ele><time>2026-03-29T16:45:19.004Z</time></trkpt><trkpt lat="44.9710833" lon="8.2421267"><ele>139.0</ele><time>2026-03-29T16:45:20.002Z</time></trkpt><trkpt lat="44.9709933" lon="8.241925"><ele>138.0</ele><time>2026-03-29T16:45:21.005Z</time></trkpt><trkpt lat="44.9709" lon="8.241725"><ele>138.33333333333334</ele><time>2026-03-29T16:45:22.003Z</time></trkpt><trkpt lat="44.9708033" lon="8.2415283"><ele>138.66666666666669</ele><time>2026-03-29T16:45:23.007Z</time></trkpt><trkpt lat="44.9706983" lon="8.2413383"><ele>139.0</ele><time>2026-03-29T16:45:24.007Z</time></trkpt><trkpt lat="44.970595" lon="8.2411567"><ele>138.0</ele><time>2026-03-29T16:45:25.007Z</time></trkpt><trkpt lat="44.97048" lon="8.2409817"><ele>137.0</ele><time>2026-03-29T16:45:26.005Z</time></trkpt><trkpt lat="44.9703617" lon="8.2408067"><ele>136.0</ele><time>2026-03-29T16:45:27.005Z</time></trkpt><trkpt lat="44.9702383" lon="8.24064"><ele>135.66666666666669</ele><time>2026-03-29T16:45:28.009Z</time></trkpt><trkpt lat="44.9701067" lon="8.2404883"><ele>135.33333333333334</ele><time>2026-03-29T16:45:29.007Z</time></trkpt><trkpt lat="44.969965" lon="8.24036"><ele>135.0</ele><time>2026-03-29T16:45:30.002Z</time></trkpt><trkpt lat="44.9698117" lon="8.2402567"><ele>135.66666666666666</ele><time>2026-03-29T16:45:31.006Z</time></trkpt><trkpt lat="44.9696533" lon="8.240175"><ele>136.33333333333331</ele><time>2026-03-29T16:45:32.004Z</time></trkpt><trkpt lat="44.9694967" lon="8.2401117"><ele>137.0</ele><time>2026-03-29T16:45:33.003Z</time></trkpt><trkpt lat="44.9693367" lon="8.2400567"><ele>139.33333333333331</ele><time>2026-03-29T16:45:34.007Z</time></trkpt><trkpt lat="44.9691817" lon="8.2400067"><ele>141.66666666666666</ele><time>2026-03-29T16:45:35.002Z</time></trkpt><trkpt lat="44.96903" lon="8.239945"><ele>144.0</ele><time>2026-03-29T16:45:36.004Z</time></trkpt><trkpt lat="44.96888" lon="8.23988"><ele>144.0</ele><time>2026-03-29T16:45:37.005Z</time></trkpt><trkpt lat="44.9687433" lon="8.2398017"><ele>144.0</ele><time>2026-03-29T16:45:38.005Z</time></trkpt><trkpt lat="44.9686133" lon="8.23972"><ele>144.0</ele><time>2026-03-29T16:45:39.003Z</time></trkpt><trkpt lat="44.96849" lon="8.2396367"><ele>144.0</ele><time>2026-03-29T16:45:40.002Z</time></trkpt><trkpt lat="44.9683717" lon="8.2395567"><ele>143.75</ele><time>2026-03-29T16:45:41.001Z</time></trkpt><trkpt lat="44.968255" lon="8.2394767"><ele>143.5</ele><time>2026-03-29T16:45:42.006Z</time></trkpt><trkpt lat="44.968135" lon="8.239395"><ele>143.25</ele><time>2026-03-29T16:45:43.009Z</time></trkpt><trkpt lat="44.9680183" lon="8.2393183"><ele>143.0</ele><time>2026-03-29T16:45:44.004Z</time></trkpt><trkpt lat="44.9679" lon="8.2392383"><ele>143.0</ele><time>2026-03-29T16:45:45.003Z</time></trkpt><trkpt lat="44.9677783" lon="8.2391633"><ele>143.0</ele><time>2026-03-29T16:45:46.005Z</time></trkpt><trkpt lat="44.9676567" lon="8.239095"><ele>143.0</ele><time>2026-03-29T16:45:47.008Z</time></trkpt><trkpt lat="44.967535" lon="8.239025"><ele>143.0</ele><time>2026-03-29T16:45:48.005Z</time></trkpt><trkpt lat="44.9674083" lon="8.2389567"><ele>141.5</ele><time>2026-03-29T16:45:49.005Z</time></trkpt><trkpt lat="44.9672817" lon="8.238875"><ele>140.0</ele><time>2026-03-29T16:45:50.004Z</time></trkpt><trkpt lat="44.9671633" lon="8.238785"><ele>138.5</ele><time>2026-03-29T16:45:51.011Z</time></trkpt><trkpt lat="44.9670533" lon="8.2386883"><ele>137.0</ele><time>2026-03-29T16:45:52.007Z</time></trkpt><trkpt lat="44.966955" lon="8.2385883"><ele>137.0</ele><time>2026-03-29T16:45:53.002Z</time></trkpt><trkpt lat="44.9668683" lon="8.238475"><ele>137.0</ele><time>2026-03-29T16:45:54.001Z</time></trkpt><trkpt lat="44.966795" lon="8.2383317"><ele>137.0</ele><time>2026-03-29T16:45:55.009Z</time></trkpt><trkpt lat="44.9667267" lon="8.23818"><ele>137.0</ele><time>2026-03-29T16:45:56.007Z</time></trkpt><trkpt lat="44.966645" lon="8.23802"><ele>137.5</ele><time>2026-03-29T16:45:57.009Z</time></trkpt><trkpt lat="44.9665717" lon="8.2378517"><ele>138.0</ele><time>2026-03-29T16:45:58.007Z</time></trkpt><trkpt lat="44.9664933" lon="8.237685"><ele>138.5</ele><time>2026-03-29T16:45:59.005Z</time></trkpt><trkpt lat="44.9664183" lon="8.2375267"><ele>139.0</ele><time>2026-03-29T16:46:00.008Z</time></trkpt><trkpt lat="44.9663533" lon="8.2373833"><ele>138.0</ele><time>2026-03-29T16:46:01.005Z</time></trkpt><trkpt lat="44.9662933" lon="8.237255"><ele>137.0</ele><time>2026-03-29T16:46:02.004Z</time></trkpt><trkpt lat="44.966225" lon="8.237135"><ele>136.0</ele><time>2026-03-29T16:46:03.005Z</time></trkpt><trkpt lat="44.966125" lon="8.2370283"><ele>135.0</ele><time>2026-03-29T16:46:04.006Z</time></trkpt><trkpt lat="44.966" lon="8.2369367"><ele>135.0</ele><time>2026-03-29T16:46:05.006Z</time></trkpt><trkpt lat="44.965845" lon="8.2368667"><ele>135.0</ele><time>2026-03-29T16:46:06.004Z</time></trkpt><trkpt lat="44.965695" lon="8.2368067"><ele>135.0</ele><time>2026-03-29T16:46:07.009Z</time></trkpt><trkpt lat="44.96555" lon="8.236735"><ele>135.0</ele><time>2026-03-29T16:46:08.005Z</time></trkpt><trkpt lat="44.9654183" lon="8.2366583"><ele>135.0</ele><time>2026-03-29T16:46:09.009Z</time></trkpt><trkpt lat="44.96529" lon="8.2365867"><ele>135.0</ele><time>2026-03-29T16:46:10.008Z</time></trkpt><trkpt lat="44.9651633" lon="8.236515"><ele>135.0</ele><time>2026-03-29T16:46:11.004Z</time></trkpt><trkpt lat="44.96504" lon="8.2364383"><ele>135.75</ele><time>2026-03-29T16:46:12.006Z</time></trkpt><trkpt lat="44.9649217" lon="8.23635"><ele>136.5</ele><time>2026-03-29T16:46:13.001Z</time></trkpt><trkpt lat="44.9648033" lon="8.2362533"><ele>137.25</ele><time>2026-03-29T16:46:14.004Z</time></trkpt><trkpt lat="44.9646967" lon="8.23615"><ele>138.0</ele><time>2026-03-29T16:46:15.003Z</time></trkpt><trkpt lat="44.9645817" lon="8.2360583"><ele>138.0</ele><time>2026-03-29T16:46:16.009Z</time></trkpt><trkpt lat="44.964455" lon="8.2359933"><ele>138.0</ele><time>2026-03-29T16:46:17.002Z</time></trkpt><trkpt lat="44.9643317" lon="8.2359417"><ele>138.0</ele><time>2026-03-29T16:46:18.003Z</time></trkpt><trkpt lat="44.9642233" lon="8.2359"><ele>138.0</ele><time>2026-03-29T16:46:19.002Z</time></trkpt><trkpt lat="44.96412" lon="8.2358583"><ele>139.0</ele><time>2026-03-29T16:46:20.002Z</time></trkpt><trkpt lat="44.9640217" lon="8.2358067"><ele>140.0</ele><time>2026-03-29T16:46:21.01Z</time></trkpt><trkpt lat="44.9639233" lon="8.2357483"><ele>141.0</ele><time>2026-03-29T16:46:22.003Z</time></trkpt><trkpt lat="44.9638267" lon="8.2356717"><ele>142.0</ele><time>2026-03-29T16:46:23.002Z</time></trkpt><trkpt lat="44.9637333" lon="8.235595"><ele>143.0</ele><time>2026-03-29T16:46:24.006Z</time></trkpt><trkpt lat="44.963635" lon="8.2355217"><ele>143.0</ele><time>2026-03-29T16:46:25.004Z</time></trkpt><trkpt lat="44.9635383" lon="8.2354367"><ele>143.0</ele><time>2026-03-29T16:46:26.006Z</time></trkpt><trkpt lat="44.9634383" lon="8.2353517"><ele>143.0</ele><time>2026-03-29T16:46:27.009Z</time></trkpt><trkpt lat="44.9633383" lon="8.23527"><ele>143.0</ele><time>2026-03-29T16:46:28.003Z</time></trkpt><trkpt lat="44.963235" lon="8.23519"><ele>144.0</ele><time>2026-03-29T16:46:29.006Z</time></trkpt><trkpt lat="44.96313" lon="8.2351083"><ele>145.0</ele><time>2026-03-29T16:46:30.008Z</time></trkpt><trkpt lat="44.9630267" lon="8.23503"><ele>146.0</ele><time>2026-03-29T16:46:31.009Z</time></trkpt><trkpt lat="44.9629217" lon="8.2349517"><ele>147.0</ele><time>2026-03-29T16:46:32.006Z</time></trkpt><trkpt lat="44.9628083" lon="8.2348633"><ele>146.75</ele><time>2026-03-29T16:46:33.004Z</time></trkpt><trkpt lat="44.9626983" lon="8.23478"><ele>146.5</ele><time>2026-03-29T16:46:34.009Z</time></trkpt><trkpt lat="44.9625867" lon="8.2346967"><ele>146.25</ele><time>2026-03-29T16:46:35.007Z</time></trkpt><trkpt lat="44.962475" lon="8.234615"><ele>146.0</ele><time>2026-03-29T16:46:36.006Z</time></trkpt><trkpt lat="44.962365" lon="8.234525"><ele>147.5</ele><time>2026-03-29T16:46:37.004Z</time></trkpt><trkpt lat="44.9622617" lon="8.23444"><ele>149.0</ele><time>2026-03-29T16:46:38.009Z</time></trkpt><trkpt lat="44.9621533" lon="8.2343483"><ele>150.5</ele><time>2026-03-29T16:46:39.009Z</time></trkpt><trkpt lat="44.9620483" lon="8.2342567"><ele>152.0</ele><time>2026-03-29T16:46:40.007Z</time></trkpt><trkpt lat="44.9619317" lon="8.2341717"><ele>152.0</ele><time>2026-03-29T16:46:41.01Z</time></trkpt><trkpt lat="44.9618167" lon="8.2340783"><ele>152.0</ele><time>2026-03-29T16:46:42.006Z</time></trkpt><trkpt lat="44.9616983" lon="8.233965"><ele>152.0</ele><time>2026-03-29T16:46:43.005Z</time></trkpt><trkpt lat="44.9615867" lon="8.2338417"><ele>152.0</ele><time>2026-03-29T16:46:44.003Z</time></trkpt><trkpt lat="44.9614767" lon="8.2337117"><ele>150.0</ele><time>2026-03-29T16:46:45.004Z</time></trkpt><trkpt lat="44.961375" lon="8.2335733"><ele>148.0</ele><time>2026-03-29T16:46:46.006Z</time></trkpt><trkpt lat="44.9612717" lon="8.23344"><ele>146.0</ele><time>2026-03-29T16:46:47.004Z</time></trkpt><trkpt lat="44.9611567" lon="8.2333317"><ele>144.0</ele><time>2026-03-29T16:46:48.004Z</time></trkpt><trkpt lat="44.9610267" lon="8.2332317"><ele>144.0</ele><time>2026-03-29T16:46:49.005Z</time></trkpt><trkpt lat="44.9608867" lon="8.2331433"><ele>144.0</ele><time>2026-03-29T16:46:50.006Z</time></trkpt><trkpt lat="44.9607367" lon="8.23307"><ele>144.0</ele><time>2026-03-29T16:46:51.003Z</time></trkpt><trkpt lat="44.9605883" lon="8.233005"><ele>141.0</ele><time>2026-03-29T16:46:52.008Z</time></trkpt><trkpt lat="44.9604383" lon="8.2329433"><ele>138.0</ele><time>2026-03-29T16:46:53.002Z</time></trkpt><trkpt lat="44.9602917" lon="8.2328783"><ele>135.0</ele><time>2026-03-29T16:46:54.006Z</time></trkpt><trkpt lat="44.96015" lon="8.2328217"><ele>135.75</ele><time>2026-03-29T16:46:55.009Z</time></trkpt><trkpt lat="44.9600083" lon="8.2327567"><ele>136.5</ele><time>2026-03-29T16:46:56.005Z</time></trkpt><trkpt lat="44.9598683" lon="8.2326983"><ele>137.25</ele><time>2026-03-29T16:46:57.005Z</time></trkpt><trkpt lat="44.959735" lon="8.2326383"><ele>138.0</ele><time>2026-03-29T16:46:58.008Z</time></trkpt><trkpt lat="44.9596" lon="8.2325767"><ele>138.0</ele><time>2026-03-29T16:46:59.004Z</time></trkpt><trkpt lat="44.9594667" lon="8.2325167"><ele>138.0</ele><time>2026-03-29T16:47:00.008Z</time></trkpt><trkpt lat="44.9593383" lon="8.2324617"><ele>138.0</ele><time>2026-03-29T16:47:01.005Z</time></trkpt><trkpt lat="44.9592133" lon="8.232405"><ele>138.0</ele><time>2026-03-29T16:47:02.005Z</time></trkpt><trkpt lat="44.9591" lon="8.23235"><ele>137.0</ele><time>2026-03-29T16:47:03.006Z</time></trkpt><trkpt lat="44.9590067" lon="8.2322917"><ele>136.0</ele><time>2026-03-29T16:47:04.003Z</time></trkpt><trkpt lat="44.9589267" lon="8.2322367"><ele>135.0</ele><time>2026-03-29T16:47:05.005Z</time></trkpt><trkpt lat="44.9588683" lon="8.2321883"><ele>134.0</ele><time>2026-03-29T16:47:06.002Z</time></trkpt><trkpt lat="44.9587967" lon="8.2321117"><ele>133.0</ele><time>2026-03-29T16:47:08.004Z</time></trkpt><trkpt lat="44.9587333" lon="8.2320317"><ele>132.0</ele><time>2026-03-29T16:47:10.003Z</time></trkpt><trkpt lat="44.9586383" lon="8.2319883"><ele>132.0</ele><time>2026-03-29T16:47:12.004Z</time></trkpt><trkpt lat="44.9585333" lon="8.232015"><ele>132.0</ele><time>2026-03-29T16:47:14.006Z</time></trkpt><trkpt lat="44.9584733" lon="8.2320433"><ele>132.0</ele><time>2026-03-29T16:47:15.013Z</time></trkpt><trkpt lat="44.9583933" lon="8.232075"><ele>132.0</ele><time>2026-03-29T16:47:16.004Z</time></trkpt><trkpt lat="44.9582883" lon="8.2321267"><ele>132.0</ele><time>2026-03-29T16:47:17.005Z</time></trkpt><trkpt lat="44.9581817" lon="8.23218"><ele>132.0</ele><time>2026-03-29T16:47:18.01Z</time></trkpt><trkpt lat="44.958075" lon="8.2322233"><ele>132.0</ele><time>2026-03-29T16:47:19.01Z</time></trkpt><trkpt lat="44.9579617" lon="8.2322933"><ele>132.0</ele><time>2026-03-29T16:47:20.006Z</time></trkpt><trkpt lat="44.9578433" lon="8.2323583"><ele>132.0</ele><time>2026-03-29T16:47:21.005Z</time></trkpt><trkpt lat="44.9577267" lon="8.2324267"><ele>132.0</ele><time>2026-03-29T16:47:22.008Z</time></trkpt><trkpt lat="44.95761" lon="8.2324933"><ele>132.0</ele><time>2026-03-29T16:47:23.007Z</time></trkpt><trkpt lat="44.957495" lon="8.2325633"><ele>132.0</ele><time>2026-03-29T16:47:24.001Z</time></trkpt><trkpt lat="44.9573767" lon="8.2326333"><ele>132.0</ele><time>2026-03-29T16:47:25.007Z</time></trkpt><trkpt lat="44.95725" lon="8.2326967"><ele>132.0</ele><time>2026-03-29T16:47:26.003Z</time></trkpt><trkpt lat="44.9571217" lon="8.2327517"><ele>132.0</ele><time>2026-03-29T16:47:27.003Z</time></trkpt><trkpt lat="44.95699" lon="8.232785"><ele>132.0</ele><time>2026-03-29T16:47:28.007Z</time></trkpt><trkpt lat="44.9568483" lon="8.2327917"><ele>132.0</ele><time>2026-03-29T16:47:29.003Z</time></trkpt><trkpt lat="44.9567133" lon="8.2327733"><ele>132.25</ele><time>2026-03-29T16:47:30.008Z</time></trkpt><trkpt lat="44.95658" lon="8.232735"><ele>132.5</ele><time>2026-03-29T16:47:31.004Z</time></trkpt><trkpt lat="44.9564467" lon="8.23269"><ele>132.75</ele><time>2026-03-29T16:47:32.005Z</time></trkpt><trkpt lat="44.95631" lon="8.23264"><ele>133.0</ele><time>2026-03-29T16:47:33.006Z</time></trkpt><trkpt lat="44.956185" lon="8.2325883"><ele>133.0</ele><time>2026-03-29T16:47:34.005Z</time></trkpt><trkpt lat="44.956055" lon="8.2325333"><ele>133.0</ele><time>2026-03-29T16:47:35.001Z</time></trkpt><trkpt lat="44.9559267" lon="8.2324717"><ele>133.0</ele><time>2026-03-29T16:47:36.005Z</time></trkpt><trkpt lat="44.9557983" lon="8.23241"><ele>133.0</ele><time>2026-03-29T16:47:37.011Z</time></trkpt><trkpt lat="44.955665" lon="8.2323467"><ele>132.75</ele><time>2026-03-29T16:47:38.007Z</time></trkpt><trkpt lat="44.9555267" lon="8.2322883"><ele>132.5</ele><time>2026-03-29T16:47:39.005Z</time></trkpt><trkpt lat="44.9553833" lon="8.2322333"><ele>132.25</ele><time>2026-03-29T16:47:40.002Z</time></trkpt><trkpt lat="44.955245" lon="8.2321817"><ele>132.0</ele><time>2026-03-29T16:47:41.006Z</time></trkpt><trkpt lat="44.9551083" lon="8.23213"><ele>132.75</ele><time>2026-03-29T16:47:42.008Z</time></trkpt><trkpt lat="44.954975" lon="8.2320767"><ele>133.5</ele><time>2026-03-29T16:47:43.006Z</time></trkpt><trkpt lat="44.9548433" lon="8.232025"><ele>134.25</ele><time>2026-03-29T16:47:44.005Z</time></trkpt><trkpt lat="44.9547167" lon="8.23196"><ele>135.0</ele><time>2026-03-29T16:47:45Z</time></trkpt><trkpt lat="44.9545983" lon="8.2318783"><ele>135.0</ele><time>2026-03-29T16:47:46.001Z</time></trkpt><trkpt lat="44.9544867" lon="8.23177"><ele>135.0</ele><time>2026-03-29T16:47:47.004Z</time></trkpt><trkpt lat="44.9543717" lon="8.2316467"><ele>135.0</ele><time>2026-03-29T16:47:48.007Z</time></trkpt><trkpt lat="44.9542483" lon="8.23152"><ele>135.0</ele><time>2026-03-29T16:47:49.005Z</time></trkpt><trkpt lat="44.9541233" lon="8.2313883"><ele>134.5</ele><time>2026-03-29T16:47:50.005Z</time></trkpt><trkpt lat="44.954" lon="8.231255"><ele>134.0</ele><time>2026-03-29T16:47:51.003Z</time></trkpt><trkpt lat="44.9538867" lon="8.2311233"><ele>133.5</ele><time>2026-03-29T16:47:52.006Z</time></trkpt><trkpt lat="44.9537917" lon="8.230985"><ele>133.0</ele><time>2026-03-29T16:47:53.003Z</time></trkpt><trkpt lat="44.9537133" lon="8.2308383"><ele>133.0</ele><time>2026-03-29T16:47:54Z</time></trkpt><trkpt lat="44.9536483" lon="8.2306917"><ele>133.0</ele><time>2026-03-29T16:47:55.008Z</time></trkpt><trkpt lat="44.9535833" lon="8.230555"><ele>133.0</ele><time>2026-03-29T16:47:56.005Z</time></trkpt><trkpt lat="44.95352" lon="8.23043"><ele>133.0</ele><time>2026-03-29T16:47:57.004Z</time></trkpt><trkpt lat="44.9534383" lon="8.2303317"><ele>133.0</ele><time>2026-03-29T16:47:58.003Z</time></trkpt><trkpt lat="44.9533517" lon="8.2302417"><ele>133.0</ele><time>2026-03-29T16:47:59.009Z</time></trkpt><trkpt lat="44.9532583" lon="8.23018"><ele>133.0</ele><time>2026-03-29T16:48:00.007Z</time></trkpt><trkpt lat="44.95316" lon="8.230145"><ele>133.0</ele><time>2026-03-29T16:48:01.004Z</time></trkpt><trkpt lat="44.9530633" lon="8.2301317"><ele>133.0</ele><time>2026-03-29T16:48:02.014Z</time></trkpt><trkpt lat="44.9529717" lon="8.23013"><ele>133.0</ele><time>2026-03-29T16:48:03.004Z</time></trkpt><trkpt lat="44.9528917" lon="8.2301333"><ele>133.0</ele><time>2026-03-29T16:48:04.01Z</time></trkpt><trkpt lat="44.9528167" lon="8.230155"><ele>133.0</ele><time>2026-03-29T16:48:05.004Z</time></trkpt><trkpt lat="44.9527317" lon="8.2301817"><ele>133.0</ele><time>2026-03-29T16:48:06.006Z</time></trkpt><trkpt lat="44.9526367" lon="8.2301967"><ele>133.0</ele><time>2026-03-29T16:48:07Z</time></trkpt><trkpt lat="44.9525367" lon="8.2301983"><ele>133.0</ele><time>2026-03-29T16:48:08.006Z</time></trkpt><trkpt lat="44.9524367" lon="8.230195"><ele>133.4</ele><time>2026-03-29T16:48:09.003Z</time></trkpt><trkpt lat="44.9523433" lon="8.230185"><ele>133.8</ele><time>2026-03-29T16:48:10.004Z</time></trkpt><trkpt lat="44.952245" lon="8.2301767"><ele>134.2</ele><time>2026-03-29T16:48:11.004Z</time></trkpt><trkpt lat="44.9521483" lon="8.2301783"><ele>134.6</ele><time>2026-03-29T16:48:12.004Z</time></trkpt><trkpt lat="44.9520467" lon="8.2301867"><ele>135.0</ele><time>2026-03-29T16:48:13.004Z</time></trkpt><trkpt lat="44.95194" lon="8.23021"><ele>135.0</ele><time>2026-03-29T16:48:14.005Z</time></trkpt><trkpt lat="44.95183" lon="8.23024"><ele>135.0</ele><time>2026-03-29T16:48:15.002Z</time></trkpt><trkpt lat="44.95172" lon="8.2302767"><ele>135.0</ele><time>2026-03-29T16:48:16.003Z</time></trkpt><trkpt lat="44.951605" lon="8.2303183"><ele>135.0</ele><time>2026-03-29T16:48:17.004Z</time></trkpt><trkpt lat="44.951495" lon="8.2303733"><ele>134.25</ele><time>2026-03-29T16:48:18.006Z</time></trkpt><trkpt lat="44.95138" lon="8.2304283"><ele>133.5</ele><time>2026-03-29T16:48:19.002Z</time></trkpt><trkpt lat="44.9512667" lon="8.2304833"><ele>132.75</ele><time>2026-03-29T16:48:20.003Z</time></trkpt><trkpt lat="44.9511617" lon="8.2305667"><ele>132.0</ele><time>2026-03-29T16:48:21.004Z</time></trkpt><trkpt lat="44.9510567" lon="8.2306417"><ele>133.2</ele><time>2026-03-29T16:48:22.005Z</time></trkpt><trkpt lat="44.9509533" lon="8.2307133"><ele>134.39999999999998</ele><time>2026-03-29T16:48:23.003Z</time></trkpt><trkpt lat="44.950855" lon="8.2307783"><ele>135.60000000000002</ele><time>2026-03-29T16:48:24.003Z</time></trkpt><trkpt lat="44.9507533" lon="8.23083"><ele>136.8</ele><time>2026-03-29T16:48:25.005Z</time></trkpt><trkpt lat="44.9506483" lon="8.2308683"><ele>138.0</ele><time>2026-03-29T16:48:26.004Z</time></trkpt><trkpt lat="44.950545" lon="8.2308967"><ele>138.0</ele><time>2026-03-29T16:48:27.005Z</time></trkpt><trkpt lat="44.9504417" lon="8.23092"><ele>138.0</ele><time>2026-03-29T16:48:28.006Z</time></trkpt><trkpt lat="44.9503383" lon="8.2309317"><ele>138.0</ele><time>2026-03-29T16:48:29.002Z</time></trkpt><trkpt lat="44.9502383" lon="8.2309367"><ele>138.0</ele><time>2026-03-29T16:48:30.003Z</time></trkpt><trkpt lat="44.9501383" lon="8.23094"><ele>138.0</ele><time>2026-03-29T16:48:31.002Z</time></trkpt><trkpt lat="44.9500367" lon="8.2309533"><ele>137.4</ele><time>2026-03-29T16:48:32.005Z</time></trkpt><trkpt lat="44.9499417" lon="8.2309783"><ele>136.8</ele><time>2026-03-29T16:48:33.003Z</time></trkpt><trkpt lat="44.949845" lon="8.2310133"><ele>136.2</ele><time>2026-03-29T16:48:34.002Z</time></trkpt><trkpt lat="44.9497517" lon="8.2310617"><ele>135.6</ele><time>2026-03-29T16:48:35.003Z</time></trkpt><trkpt lat="44.949655" lon="8.2311067"><ele>135.0</ele><time>2026-03-29T16:48:36.01Z</time></trkpt><trkpt lat="44.9495583" lon="8.2311583"><ele>135.0</ele><time>2026-03-29T16:48:37.005Z</time></trkpt><trkpt lat="44.9494633" lon="8.2312133"><ele>135.0</ele><time>2026-03-29T16:48:38.007Z</time></trkpt><trkpt lat="44.949365" lon="8.2312667"><ele>135.0</ele><time>2026-03-29T16:48:39.005Z</time></trkpt><trkpt lat="44.94927" lon="8.23132"><ele>135.0</ele><time>2026-03-29T16:48:40.006Z</time></trkpt><trkpt lat="44.949175" lon="8.231375"><ele>135.0</ele><time>2026-03-29T16:48:41.008Z</time></trkpt><trkpt lat="44.9490833" lon="8.2314267"><ele>135.8</ele><time>2026-03-29T16:48:42.007Z</time></trkpt><trkpt lat="44.9489917" lon="8.2314817"><ele>136.6</ele><time>2026-03-29T16:48:43.006Z</time></trkpt><trkpt lat="44.9488983" lon="8.2315417"><ele>137.4</ele><time>2026-03-29T16:48:44.006Z</time></trkpt><trkpt lat="44.9488017" lon="8.2316"><ele>138.2</ele><time>2026-03-29T16:48:45.007Z</time></trkpt><trkpt lat="44.9487083" lon="8.2316533"><ele>139.0</ele><time>2026-03-29T16:48:46.012Z</time></trkpt><trkpt lat="44.94861" lon="8.231695"><ele>139.0</ele><time>2026-03-29T16:48:47.006Z</time></trkpt><trkpt lat="44.9485117" lon="8.231735"><ele>139.0</ele><time>2026-03-29T16:48:48.008Z</time></trkpt><trkpt lat="44.948415" lon="8.2317783"><ele>139.0</ele><time>2026-03-29T16:48:49.006Z</time></trkpt><trkpt lat="44.9483183" lon="8.23182"><ele>139.0</ele><time>2026-03-29T16:48:50.007Z</time></trkpt><trkpt lat="44.9482233" lon="8.2318617"><ele>139.0</ele><time>2026-03-29T16:48:51.007Z</time></trkpt><trkpt lat="44.948125" lon="8.2318983"><ele>138.25</ele><time>2026-03-29T16:48:52.008Z</time></trkpt><trkpt lat="44.9480183" lon="8.2319267"><ele>137.5</ele><time>2026-03-29T16:48:53.01Z</time></trkpt><trkpt lat="44.9479083" lon="8.231955"><ele>136.75</ele><time>2026-03-29T16:48:54.01Z</time></trkpt><trkpt lat="44.94779" lon="8.2319583"><ele>136.0</ele><time>2026-03-29T16:48:55.006Z</time></trkpt><trkpt lat="44.9476717" lon="8.23195"><ele>136.0</ele><time>2026-03-29T16:48:56.011Z</time></trkpt><trkpt lat="44.9475567" lon="8.2319433"><ele>136.0</ele><time>2026-03-29T16:48:57.004Z</time></trkpt><trkpt lat="44.9474333" lon="8.2319167"><ele>136.0</ele><time>2026-03-29T16:48:58.004Z</time></trkpt><trkpt lat="44.9473117" lon="8.23189"><ele>136.0</ele><time>2026-03-29T16:48:59.006Z</time></trkpt><trkpt lat="44.9471867" lon="8.2318683"><ele>136.0</ele><time>2026-03-29T16:49:00.01Z</time></trkpt><trkpt lat="44.9470567" lon="8.2318417"><ele>136.0</ele><time>2026-03-29T16:49:01.004Z</time></trkpt><trkpt lat="44.94693" lon="8.2318083"><ele>136.0</ele><time>2026-03-29T16:49:02.007Z</time></trkpt><trkpt lat="44.9468033" lon="8.23176"><ele>136.0</ele><time>2026-03-29T16:49:03.006Z</time></trkpt><trkpt lat="44.94668" lon="8.2316967"><ele>136.0</ele><time>2026-03-29T16:49:04.004Z</time></trkpt><trkpt lat="44.946555" lon="8.231635"><ele>136.0</ele><time>2026-03-29T16:49:05.005Z</time></trkpt><trkpt lat="44.9464333" lon="8.23157"><ele>136.0</ele><time>2026-03-29T16:49:06.005Z</time></trkpt><trkpt lat="44.94631" lon="8.2315"><ele>136.0</ele><time>2026-03-29T16:49:07.006Z</time></trkpt><trkpt lat="44.946195" lon="8.23144"><ele>135.2</ele><time>2026-03-29T16:49:08.007Z</time></trkpt><trkpt lat="44.946085" lon="8.2313733"><ele>134.39999999999998</ele><time>2026-03-29T16:49:09.008Z</time></trkpt><trkpt lat="44.9459867" lon="8.2313217"><ele>133.6</ele><time>2026-03-29T16:49:10.006Z</time></trkpt><trkpt lat="44.9458983" lon="8.2312917"><ele>132.79999999999998</ele><time>2026-03-29T16:49:11.006Z</time></trkpt><trkpt lat="44.94581" lon="8.2312817"><ele>132.0</ele><time>2026-03-29T16:49:12.005Z</time></trkpt><trkpt lat="44.9457167" lon="8.2312833"><ele>132.0</ele><time>2026-03-29T16:49:13.011Z</time></trkpt><trkpt lat="44.945615" lon="8.2313"><ele>132.0</ele><time>2026-03-29T16:49:14.006Z</time></trkpt><trkpt lat="44.945505" lon="8.2313133"><ele>132.0</ele><time>2026-03-29T16:49:15.007Z</time></trkpt><trkpt lat="44.945395" lon="8.2313083"><ele>132.0</ele><time>2026-03-29T16:49:16.005Z</time></trkpt><trkpt lat="44.9452833" lon="8.2312983"><ele>132.0</ele><time>2026-03-29T16:49:17.01Z</time></trkpt><trkpt lat="44.94517" lon="8.231265"><ele>132.0</ele><time>2026-03-29T16:49:18.004Z</time></trkpt><trkpt lat="44.9450567" lon="8.2312267"><ele>132.0</ele><time>2026-03-29T16:49:19.01Z</time></trkpt><trkpt lat="44.9449317" lon="8.2311967"><ele>132.0</ele><time>2026-03-29T16:49:20.008Z</time></trkpt><trkpt lat="44.9448033" lon="8.2311733"><ele>132.0</ele><time>2026-03-29T16:49:21.007Z</time></trkpt><trkpt lat="44.9446667" lon="8.2311583"><ele>131.5</ele><time>2026-03-29T16:49:22.003Z</time></trkpt><trkpt lat="44.94453" lon="8.231155"><ele>131.0</ele><time>2026-03-29T16:49:23.003Z</time></trkpt><trkpt lat="44.94439" lon="8.2311517"><ele>130.5</ele><time>2026-03-29T16:49:24.006Z</time></trkpt><trkpt lat="44.944255" lon="8.2311467"><ele>130.0</ele><time>2026-03-29T16:49:25.003Z</time></trkpt><trkpt lat="44.9441233" lon="8.2311333"><ele>130.0</ele><time>2026-03-29T16:49:26.003Z</time></trkpt><trkpt lat="44.9439933" lon="8.231115"><ele>130.0</ele><time>2026-03-29T16:49:27.007Z</time></trkpt><trkpt lat="44.9438633" lon="8.231095"><ele>130.0</ele><time>2026-03-29T16:49:28.002Z</time></trkpt><trkpt lat="44.9437367" lon="8.2310783"><ele>130.0</ele><time>2026-03-29T16:49:29.004Z</time></trkpt><trkpt lat="44.9436117" lon="8.23106"><ele>130.0</ele><time>2026-03-29T16:49:30.006Z</time></trkpt><trkpt lat="44.9434883" lon="8.2310483"><ele>130.0</ele><time>2026-03-29T16:49:31.007Z</time></trkpt><trkpt lat="44.94336" lon="8.2310467"><ele>130.0</ele><time>2026-03-29T16:49:32.004Z</time></trkpt><trkpt lat="44.9432333" lon="8.2310433"><ele>130.0</ele><time>2026-03-29T16:49:33.005Z</time></trkpt><trkpt lat="44.9431033" lon="8.2310433"><ele>130.0</ele><time>2026-03-29T16:49:34.004Z</time></trkpt><trkpt lat="44.9429717" lon="8.2310433"><ele>130.0</ele><time>2026-03-29T16:49:35.006Z</time></trkpt><trkpt lat="44.9428433" lon="8.23104"><ele>130.0</ele><time>2026-03-29T16:49:36.008Z</time></trkpt><trkpt lat="44.942715" lon="8.231045"><ele>130.0</ele><time>2026-03-29T16:49:37.002Z</time></trkpt><trkpt lat="44.9425867" lon="8.231065"><ele>130.0</ele><time>2026-03-29T16:49:38.006Z</time></trkpt><trkpt lat="44.9424583" lon="8.2311067"><ele>130.0</ele><time>2026-03-29T16:49:39Z</time></trkpt><trkpt lat="44.9423333" lon="8.231155"><ele>130.0</ele><time>2026-03-29T16:49:40.002Z</time></trkpt><trkpt lat="44.9422083" lon="8.2312067"><ele>130.0</ele><time>2026-03-29T16:49:41.007Z</time></trkpt><trkpt lat="44.9420867" lon="8.23126"><ele>130.0</ele><time>2026-03-29T16:49:42.002Z</time></trkpt><trkpt lat="44.9419667" lon="8.23131"><ele>130.0</ele><time>2026-03-29T16:49:43.004Z</time></trkpt><trkpt lat="44.9418517" lon="8.231365"><ele>130.0</ele><time>2026-03-29T16:49:44.006Z</time></trkpt><trkpt lat="44.94174" lon="8.2314217"><ele>130.0</ele><time>2026-03-29T16:49:45.01Z</time></trkpt><trkpt lat="44.94163" lon="8.2314767"><ele>130.5</ele><time>2026-03-29T16:49:46.003Z</time></trkpt><trkpt lat="44.9415183" lon="8.23154"><ele>131.0</ele><time>2026-03-29T16:49:47.004Z</time></trkpt><trkpt lat="44.941405" lon="8.231605"><ele>131.5</ele><time>2026-03-29T16:49:48.006Z</time></trkpt><trkpt lat="44.941295" lon="8.2316767"><ele>132.0</ele><time>2026-03-29T16:49:49.006Z</time></trkpt><trkpt lat="44.9411883" lon="8.2317633"><ele>132.0</ele><time>2026-03-29T16:49:50.005Z</time></trkpt><trkpt lat="44.94108" lon="8.2318467"><ele>132.0</ele><time>2026-03-29T16:49:51.007Z</time></trkpt><trkpt lat="44.9409733" lon="8.23194"><ele>132.0</ele><time>2026-03-29T16:49:52.005Z</time></trkpt><trkpt lat="44.940865" lon="8.23205"><ele>132.0</ele><time>2026-03-29T16:49:53.002Z</time></trkpt><trkpt lat="44.9407617" lon="8.2321583"><ele>131.5</ele><time>2026-03-29T16:49:54.003Z</time></trkpt><trkpt lat="44.9406617" lon="8.2322617"><ele>131.0</ele><time>2026-03-29T16:49:55.01Z</time></trkpt><trkpt lat="44.940555" lon="8.2323533"><ele>130.5</ele><time>2026-03-29T16:49:56.004Z</time></trkpt><trkpt lat="44.9404633" lon="8.2324183"><ele>130.0</ele><time>2026-03-29T16:49:57.005Z</time></trkpt><trkpt lat="44.9403567" lon="8.2324833"><ele>130.75</ele><time>2026-03-29T16:49:58.004Z</time></trkpt><trkpt lat="44.940235" lon="8.2325317"><ele>131.5</ele><time>2026-03-29T16:49:59.007Z</time></trkpt><trkpt lat="44.9401017" lon="8.2325583"><ele>132.25</ele><time>2026-03-29T16:50:00.006Z</time></trkpt><trkpt lat="44.93996" lon="8.23256"><ele>133.0</ele><time>2026-03-29T16:50:01.007Z</time></trkpt><trkpt lat="44.9398217" lon="8.2325383"><ele>133.0</ele><time>2026-03-29T16:50:02.007Z</time></trkpt><trkpt lat="44.9396783" lon="8.2325"><ele>133.0</ele><time>2026-03-29T16:50:03.008Z</time></trkpt><trkpt lat="44.9395417" lon="8.2324383"><ele>133.0</ele><time>2026-03-29T16:50:04.002Z</time></trkpt><trkpt lat="44.9394133" lon="8.2323783"><ele>133.0</ele><time>2026-03-29T16:50:05.003Z</time></trkpt><trkpt lat="44.9392817" lon="8.2323233"><ele>131.5</ele><time>2026-03-29T16:50:06.002Z</time></trkpt><trkpt lat="44.9391417" lon="8.232285"><ele>130.0</ele><time>2026-03-29T16:50:07.01Z</time></trkpt><trkpt lat="44.9389983" lon="8.232265"><ele>128.5</ele><time>2026-03-29T16:50:08.001Z</time></trkpt><trkpt lat="44.938855" lon="8.2322583"><ele>127.0</ele><time>2026-03-29T16:50:09.007Z</time></trkpt><trkpt lat="44.9387117" lon="8.23225"><ele>127.0</ele><time>2026-03-29T16:50:10.005Z</time></trkpt><trkpt lat="44.93858" lon="8.23224"><ele>127.0</ele><time>2026-03-29T16:50:11.005Z</time></trkpt><trkpt lat="44.9384483" lon="8.2322183"><ele>127.0</ele><time>2026-03-29T16:50:12.006Z</time></trkpt><trkpt lat="44.93831" lon="8.2321933"><ele>127.0</ele><time>2026-03-29T16:50:13.005Z</time></trkpt><trkpt lat="44.9381717" lon="8.2321533"><ele>127.66666666666667</ele><time>2026-03-29T16:50:14.004Z</time></trkpt><trkpt lat="44.9380267" lon="8.2320967"><ele>128.33333333333334</ele><time>2026-03-29T16:50:15.008Z</time></trkpt><trkpt lat="44.9378783" lon="8.232035"><ele>129.0</ele><time>2026-03-29T16:50:16.003Z</time></trkpt><trkpt lat="44.9377267" lon="8.23197"><ele>129.0</ele><time>2026-03-29T16:50:17.007Z</time></trkpt><trkpt lat="44.93757" lon="8.231905"><ele>129.0</ele><time>2026-03-29T16:50:18.005Z</time></trkpt><trkpt lat="44.937415" lon="8.231845"><ele>129.0</ele><time>2026-03-29T16:50:19.011Z</time></trkpt><trkpt lat="44.937255" lon="8.2317883"><ele>129.66666666666666</ele><time>2026-03-29T16:50:20.005Z</time></trkpt><trkpt lat="44.9371" lon="8.2317333"><ele>130.33333333333331</ele><time>2026-03-29T16:50:21.006Z</time></trkpt><trkpt lat="44.9369417" lon="8.23168"><ele>131.0</ele><time>2026-03-29T16:50:22.004Z</time></trkpt><trkpt lat="44.9367867" lon="8.2316117"><ele>131.0</ele><time>2026-03-29T16:50:23.011Z</time></trkpt><trkpt lat="44.9366317" lon="8.23152"><ele>131.0</ele><time>2026-03-29T16:50:24.007Z</time></trkpt><trkpt lat="44.9364817" lon="8.2314133"><ele>131.0</ele><time>2026-03-29T16:50:25.008Z</time></trkpt><trkpt lat="44.93633" lon="8.2312967"><ele>130.33333333333331</ele><time>2026-03-29T16:50:26.003Z</time></trkpt><trkpt lat="44.9361817" lon="8.2311767"><ele>129.66666666666666</ele><time>2026-03-29T16:50:27.008Z</time></trkpt><trkpt lat="44.9360367" lon="8.23106"><ele>129.0</ele><time>2026-03-29T16:50:28.007Z</time></trkpt><trkpt lat="44.9358833" lon="8.2309533"><ele>131.0</ele><time>2026-03-29T16:50:29.001Z</time></trkpt><trkpt lat="44.935725" lon="8.23085"><ele>133.0</ele><time>2026-03-29T16:50:30.004Z</time></trkpt><trkpt lat="44.9355667" lon="8.2307517"><ele>135.0</ele><time>2026-03-29T16:50:31.004Z</time></trkpt><trkpt lat="44.935415" lon="8.230655"><ele>132.0</ele><time>2026-03-29T16:50:32.003Z</time></trkpt><trkpt lat="44.935265" lon="8.23056"><ele>129.0</ele><time>2026-03-29T16:50:33.003Z</time></trkpt><trkpt lat="44.9351217" lon="8.2304617"><ele>126.0</ele><time>2026-03-29T16:50:34.008Z</time></trkpt><trkpt lat="44.9349867" lon="8.2303667"><ele>126.0</ele><time>2026-03-29T16:50:35.004Z</time></trkpt><trkpt lat="44.9348517" lon="8.2302767"><ele>126.0</ele><time>2026-03-29T16:50:36.006Z</time></trkpt><trkpt lat="44.9347083" lon="8.230205"><ele>126.0</ele><time>2026-03-29T16:50:37.004Z</time></trkpt><trkpt lat="44.9345483" lon="8.2301533"><ele>126.0</ele><time>2026-03-29T16:50:38.006Z</time></trkpt><trkpt lat="44.9343767" lon="8.23012"><ele>126.0</ele><time>2026-03-29T16:50:39.005Z</time></trkpt><trkpt lat="44.9341983" lon="8.2301033"><ele>126.0</ele><time>2026-03-29T16:50:40.003Z</time></trkpt><trkpt lat="44.9340233" lon="8.2300933"><ele>126.66666666666666</ele><time>2026-03-29T16:50:41.007Z</time></trkpt><trkpt lat="44.9338533" lon="8.2300917"><ele>127.33333333333333</ele><time>2026-03-29T16:50:42.003Z</time></trkpt><trkpt lat="44.9336883" lon="8.2301"><ele>128.0</ele><time>2026-03-29T16:50:43.008Z</time></trkpt><trkpt lat="44.9335283" lon="8.2301183"><ele>128.0</ele><time>2026-03-29T16:50:44.003Z</time></trkpt><trkpt lat="44.9333733" lon="8.230145"><ele>128.0</ele><time>2026-03-29T16:50:45.009Z</time></trkpt><trkpt lat="44.9332267" lon="8.23017"><ele>128.0</ele><time>2026-03-29T16:50:46Z</time></trkpt><trkpt lat="44.9330933" lon="8.2301883"><ele>128.0</ele><time>2026-03-29T16:50:47.005Z</time></trkpt><trkpt lat="44.9329817" lon="8.2302017"><ele>127.99999999999999</ele><time>2026-03-29T16:50:48.002Z</time></trkpt><trkpt lat="44.932885" lon="8.2302133"><ele>128.0</ele><time>2026-03-29T16:50:49.008Z</time></trkpt><trkpt lat="44.9327967" lon="8.230225"><ele>128.0</ele><time>2026-03-29T16:50:50.003Z</time></trkpt><trkpt lat="44.93271" lon="8.23023"><ele>128.0</ele><time>2026-03-29T16:50:51.004Z</time></trkpt><trkpt lat="44.93263" lon="8.2302383"><ele>127.99999999999999</ele><time>2026-03-29T16:50:52.003Z</time></trkpt><trkpt lat="44.932545" lon="8.2302367"><ele>128.0</ele><time>2026-03-29T16:50:53.007Z</time></trkpt><trkpt lat="44.93246" lon="8.2302317"><ele>126.99999999999999</ele><time>2026-03-29T16:50:54.005Z</time></trkpt><trkpt lat="44.9323733" lon="8.2302333"><ele>126.0</ele><time>2026-03-29T16:50:55.005Z</time></trkpt><trkpt lat="44.9322867" lon="8.2302333"><ele>125.0</ele><time>2026-03-29T16:50:56.004Z</time></trkpt><trkpt lat="44.9322017" lon="8.230235"><ele>124.0</ele><time>2026-03-29T16:50:57.003Z</time></trkpt><trkpt lat="44.9321167" lon="8.2302383"><ele>122.99999999999999</ele><time>2026-03-29T16:50:58.002Z</time></trkpt><trkpt lat="44.93203" lon="8.230235"><ele>122.0</ele><time>2026-03-29T16:50:59.005Z</time></trkpt><trkpt lat="44.9319467" lon="8.2302367"><ele>122.0</ele><time>2026-03-29T16:51:00.007Z</time></trkpt><trkpt lat="44.9318617" lon="8.230235"><ele>121.99999999999999</ele><time>2026-03-29T16:51:01.004Z</time></trkpt><trkpt lat="44.9317783" lon="8.2302367"><ele>121.99999999999999</ele><time>2026-03-29T16:51:02.006Z</time></trkpt><trkpt lat="44.9316917" lon="8.2302533"><ele>122.0</ele><time>2026-03-29T16:51:03.007Z</time></trkpt><trkpt lat="44.931595" lon="8.23029"><ele>122.0</ele><time>2026-03-29T16:51:04.005Z</time></trkpt><trkpt lat="44.9314833" lon="8.2303517"><ele>122.25</ele><time>2026-03-29T16:51:05.005Z</time></trkpt><trkpt lat="44.9313567" lon="8.2304267"><ele>122.5</ele><time>2026-03-29T16:51:06.01Z</time></trkpt><trkpt lat="44.9312183" lon="8.2305117"><ele>122.75</ele><time>2026-03-29T16:51:07.006Z</time></trkpt><trkpt lat="44.9310833" lon="8.2306067"><ele>123.0</ele><time>2026-03-29T16:51:08.006Z</time></trkpt><trkpt lat="44.930945" lon="8.2306983"><ele>122.66666666666666</ele><time>2026-03-29T16:51:09.01Z</time></trkpt><trkpt lat="44.9308017" lon="8.2307883"><ele>122.33333333333333</ele><time>2026-03-29T16:51:10.002Z</time></trkpt><trkpt lat="44.9306567" lon="8.23088"><ele>122.0</ele><time>2026-03-29T16:51:11.002Z</time></trkpt><trkpt lat="44.9305083" lon="8.230975"><ele>122.0</ele><time>2026-03-29T16:51:12.003Z</time></trkpt><trkpt lat="44.93036" lon="8.23107"><ele>122.0</ele><time>2026-03-29T16:51:13.008Z</time></trkpt><trkpt lat="44.9302133" lon="8.2311667"><ele>122.0</ele><time>2026-03-29T16:51:14.005Z</time></trkpt><trkpt lat="44.93007" lon="8.2312617"><ele>121.66666666666666</ele><time>2026-03-29T16:51:15.004Z</time></trkpt><trkpt lat="44.9299267" lon="8.2313567"><ele>121.33333333333334</ele><time>2026-03-29T16:51:16.003Z</time></trkpt><trkpt lat="44.9297833" lon="8.231455"><ele>121.0</ele><time>2026-03-29T16:51:17.003Z</time></trkpt><trkpt lat="44.9296417" lon="8.2315533"><ele>121.0</ele><time>2026-03-29T16:51:18.006Z</time></trkpt><trkpt lat="44.9294983" lon="8.231645"><ele>121.0</ele><time>2026-03-29T16:51:19.005Z</time></trkpt><trkpt lat="44.9293617" lon="8.231725"><ele>121.0</ele><time>2026-03-29T16:51:20.005Z</time></trkpt><trkpt lat="44.92922" lon="8.231795"><ele>121.0</ele><time>2026-03-29T16:51:21.007Z</time></trkpt><trkpt lat="44.9290717" lon="8.23184"><ele>121.0</ele><time>2026-03-29T16:51:22.005Z</time></trkpt><trkpt lat="44.9289067" lon="8.2318667"><ele>121.0</ele><time>2026-03-29T16:51:23.005Z</time></trkpt><trkpt lat="44.92873" lon="8.231895"><ele>121.0</ele><time>2026-03-29T16:51:24.006Z</time></trkpt><trkpt lat="44.92854" lon="8.2319167"><ele>121.0</ele><time>2026-03-29T16:51:25.005Z</time></trkpt><trkpt lat="44.9283383" lon="8.2319333"><ele>121.0</ele><time>2026-03-29T16:51:26.004Z</time></trkpt><trkpt lat="44.92814" lon="8.2319517"><ele>120.33333333333334</ele><time>2026-03-29T16:51:27.003Z</time></trkpt><trkpt lat="44.9279483" lon="8.2319683"><ele>119.66666666666666</ele><time>2026-03-29T16:51:28.007Z</time></trkpt><trkpt lat="44.927765" lon="8.23199"><ele>119.0</ele><time>2026-03-29T16:51:29.008Z</time></trkpt><trkpt lat="44.9275833" lon="8.23201"><ele>118.33333333333333</ele><time>2026-03-29T16:51:30.006Z</time></trkpt><trkpt lat="44.927405" lon="8.2320533"><ele>117.66666666666666</ele><time>2026-03-29T16:51:31.008Z</time></trkpt><trkpt lat="44.92722" lon="8.2321267"><ele>117.0</ele><time>2026-03-29T16:51:32.004Z</time></trkpt><trkpt lat="44.9270333" lon="8.2322217"><ele>117.0</ele><time>2026-03-29T16:51:33.008Z</time></trkpt><trkpt lat="44.9268567" lon="8.2323233"><ele>117.0</ele><time>2026-03-29T16:51:34.008Z</time></trkpt><trkpt lat="44.92669" lon="8.2324233"><ele>117.0</ele><time>2026-03-29T16:51:35.008Z</time></trkpt><trkpt lat="44.9265283" lon="8.2325167"><ele>117.0</ele><time>2026-03-29T16:51:36.005Z</time></trkpt><trkpt lat="44.9263717" lon="8.2326"><ele>117.0</ele><time>2026-03-29T16:51:37.007Z</time></trkpt><trkpt lat="44.9262183" lon="8.2326717"><ele>117.0</ele><time>2026-03-29T16:51:38.007Z</time></trkpt><trkpt lat="44.92606" lon="8.232735"><ele>117.0</ele><time>2026-03-29T16:51:39.005Z</time></trkpt><trkpt lat="44.9259033" lon="8.2327933"><ele>117.0</ele><time>2026-03-29T16:51:40.004Z</time></trkpt><trkpt lat="44.925745" lon="8.2328433"><ele>117.0</ele><time>2026-03-29T16:51:41.004Z</time></trkpt><trkpt lat="44.9255833" lon="8.23288"><ele>117.33333333333334</ele><time>2026-03-29T16:51:42.006Z</time></trkpt><trkpt lat="44.9254233" lon="8.23292"><ele>117.66666666666667</ele><time>2026-03-29T16:51:43.007Z</time></trkpt><trkpt lat="44.9252583" lon="8.2329633"><ele>118.0</ele><time>2026-03-29T16:51:44.004Z</time></trkpt><trkpt lat="44.9250967" lon="8.23301"><ele>118.66666666666667</ele><time>2026-03-29T16:51:45.004Z</time></trkpt><trkpt lat="44.9249383" lon="8.233065"><ele>119.33333333333334</ele><time>2026-03-29T16:51:46.007Z</time></trkpt><trkpt lat="44.9247933" lon="8.233125"><ele>120.0</ele><time>2026-03-29T16:51:47.003Z</time></trkpt><trkpt lat="44.9246633" lon="8.2331833"><ele>120.0</ele><time>2026-03-29T16:51:48.006Z</time></trkpt><trkpt lat="44.9245467" lon="8.2332317"><ele>120.0</ele><time>2026-03-29T16:51:49.005Z</time></trkpt><trkpt lat="44.9244433" lon="8.2332717"><ele>120.0</ele><time>2026-03-29T16:51:50.009Z</time></trkpt><trkpt lat="44.9243617" lon="8.233315"><ele>120.0</ele><time>2026-03-29T16:51:51.006Z</time></trkpt><trkpt lat="44.924295" lon="8.2333333"><ele>120.0</ele><time>2026-03-29T16:51:52.007Z</time></trkpt><trkpt lat="44.9242117" lon="8.233345"><ele>119.8</ele><time>2026-03-29T16:51:54.004Z</time></trkpt><trkpt lat="44.9241367" lon="8.23339"><ele>119.6</ele><time>2026-03-29T16:51:57.003Z</time></trkpt><trkpt lat="44.92403" lon="8.2334967"><ele>119.4</ele><time>2026-03-29T16:51:59.006Z</time></trkpt><trkpt lat="44.92395" lon="8.23356"><ele>119.2</ele><time>2026-03-29T16:52:00.007Z</time></trkpt><trkpt lat="44.92387" lon="8.2336283"><ele>119.0</ele><time>2026-03-29T16:52:01.004Z</time></trkpt><trkpt lat="44.923795" lon="8.2337117"><ele>118.99999999999999</ele><time>2026-03-29T16:52:02.004Z</time></trkpt><trkpt lat="44.9237283" lon="8.233775"><ele>119.0</ele><time>2026-03-29T16:52:03.006Z</time></trkpt><trkpt lat="44.9236583" lon="8.233845"><ele>119.0</ele><time>2026-03-29T16:52:04.003Z</time></trkpt><trkpt lat="44.923595" lon="8.233915"><ele>119.0</ele><time>2026-03-29T16:52:05.007Z</time></trkpt><trkpt lat="44.9235283" lon="8.2339883"><ele>118.99999999999999</ele><time>2026-03-29T16:52:06.005Z</time></trkpt><trkpt lat="44.92346" lon="8.2340567"><ele>119.0</ele><time>2026-03-29T16:52:07.01Z</time></trkpt><trkpt lat="44.9233983" lon="8.2341267"><ele>119.66666666666666</ele><time>2026-03-29T16:52:08.009Z</time></trkpt><trkpt lat="44.9233367" lon="8.2341917"><ele>120.33333333333333</ele><time>2026-03-29T16:52:09.009Z</time></trkpt><trkpt lat="44.9232733" lon="8.23426"><ele>121.0</ele><time>2026-03-29T16:52:10.012Z</time></trkpt><trkpt lat="44.9232133" lon="8.234325"><ele>121.66666666666666</ele><time>2026-03-29T16:52:11.01Z</time></trkpt><trkpt lat="44.9231433" lon="8.2343983"><ele>122.33333333333333</ele><time>2026-03-29T16:52:12.008Z</time></trkpt><trkpt lat="44.9230567" lon="8.2344683"><ele>123.0</ele><time>2026-03-29T16:52:13.004Z</time></trkpt><trkpt lat="44.9229633" lon="8.2345417"><ele>123.0</ele><time>2026-03-29T16:52:14.008Z</time></trkpt><trkpt lat="44.9228683" lon="8.2346117"><ele>123.00000000000001</ele><time>2026-03-29T16:52:15.002Z</time></trkpt><trkpt lat="44.922775" lon="8.234685"><ele>123.00000000000001</ele><time>2026-03-29T16:52:16.005Z</time></trkpt><trkpt lat="44.9226833" lon="8.2347533"><ele>123.0</ele><time>2026-03-29T16:52:17.011Z</time></trkpt><trkpt lat="44.9225917" lon="8.234825"><ele>123.0</ele><time>2026-03-29T16:52:18.006Z</time></trkpt><trkpt lat="44.922495" lon="8.2348933"><ele>123.0</ele><time>2026-03-29T16:52:19.006Z</time></trkpt><trkpt lat="44.92239" lon="8.23497"><ele>123.0</ele><time>2026-03-29T16:52:20.003Z</time></trkpt><trkpt lat="44.9222817" lon="8.23505"><ele>123.0</ele><time>2026-03-29T16:52:21.007Z</time></trkpt><trkpt lat="44.9221717" lon="8.2351333"><ele>123.0</ele><time>2026-03-29T16:52:22.005Z</time></trkpt><trkpt lat="44.9220617" lon="8.2352083"><ele>123.0</ele><time>2026-03-29T16:52:23.004Z</time></trkpt><trkpt lat="44.9219633" lon="8.23527"><ele>123.0</ele><time>2026-03-29T16:52:24.003Z</time></trkpt><trkpt lat="44.92187" lon="8.2353333"><ele>123.0</ele><time>2026-03-29T16:52:25.005Z</time></trkpt><trkpt lat="44.9217667" lon="8.2353967"><ele>123.0</ele><time>2026-03-29T16:52:26.004Z</time></trkpt><trkpt lat="44.9216533" lon="8.2354783"><ele>122.33333333333334</ele><time>2026-03-29T16:52:27.003Z</time></trkpt><trkpt lat="44.92153" lon="8.2355767"><ele>121.66666666666667</ele><time>2026-03-29T16:52:28.008Z</time></trkpt><trkpt lat="44.9214017" lon="8.2356983"><ele>121.0</ele><time>2026-03-29T16:52:29.002Z</time></trkpt><trkpt lat="44.921265" lon="8.2358217"><ele>121.0</ele><time>2026-03-29T16:52:30.003Z</time></trkpt><trkpt lat="44.921115" lon="8.23596"><ele>121.0</ele><time>2026-03-29T16:52:31.009Z</time></trkpt><trkpt lat="44.92094" lon="8.2361033"><ele>121.0</ele><time>2026-03-29T16:52:32.008Z</time></trkpt><trkpt lat="44.9207467" lon="8.23624"><ele>121.0</ele><time>2026-03-29T16:52:33.006Z</time></trkpt><trkpt lat="44.9205467" lon="8.2363617"><ele>121.0</ele><time>2026-03-29T16:52:34.004Z</time></trkpt><trkpt lat="44.9203533" lon="8.23647"><ele>121.0</ele><time>2026-03-29T16:52:35.002Z</time></trkpt><trkpt lat="44.9201667" lon="8.2365733"><ele>121.66666666666667</ele><time>2026-03-29T16:52:36.003Z</time></trkpt><trkpt lat="44.91999" lon="8.23667"><ele>122.33333333333334</ele><time>2026-03-29T16:52:37.007Z</time></trkpt><trkpt lat="44.91981" lon="8.2367617"><ele>123.0</ele><time>2026-03-29T16:52:38.006Z</time></trkpt><trkpt lat="44.91963" lon="8.2368533"><ele>123.0</ele><time>2026-03-29T16:52:39.007Z</time></trkpt><trkpt lat="44.9194517" lon="8.236945"><ele>123.0</ele><time>2026-03-29T16:52:40.006Z</time></trkpt><trkpt lat="44.9192767" lon="8.2370417"><ele>123.0</ele><time>2026-03-29T16:52:41.004Z</time></trkpt><trkpt lat="44.9191117" lon="8.23715"><ele>123.33333333333334</ele><time>2026-03-29T16:52:42.007Z</time></trkpt><trkpt lat="44.91895" lon="8.2372733"><ele>123.66666666666667</ele><time>2026-03-29T16:52:43.011Z</time></trkpt><trkpt lat="44.9188" lon="8.2374283"><ele>124.0</ele><time>2026-03-29T16:52:44.003Z</time></trkpt><trkpt lat="44.9186617" lon="8.2375917"><ele>124.0</ele><time>2026-03-29T16:52:45.005Z</time></trkpt><trkpt lat="44.9185417" lon="8.2377417"><ele>124.0</ele><time>2026-03-29T16:52:46.002Z</time></trkpt><trkpt lat="44.918425" lon="8.23787"><ele>124.0</ele><time>2026-03-29T16:52:47.006Z</time></trkpt><trkpt lat="44.9183033" lon="8.2379583"><ele>124.0</ele><time>2026-03-29T16:52:48.005Z</time></trkpt><trkpt lat="44.91818" lon="8.2380017"><ele>123.0</ele><time>2026-03-29T16:52:49.005Z</time></trkpt><trkpt lat="44.918055" lon="8.238"><ele>122.0</ele><time>2026-03-29T16:52:50.006Z</time></trkpt><trkpt lat="44.9179233" lon="8.23797"><ele>121.0</ele><time>2026-03-29T16:52:51.004Z</time></trkpt><trkpt lat="44.91779" lon="8.2379083"><ele>120.0</ele><time>2026-03-29T16:52:52.006Z</time></trkpt><trkpt lat="44.9176533" lon="8.2378367"><ele>120.0</ele><time>2026-03-29T16:52:53.001Z</time></trkpt><trkpt lat="44.9175117" lon="8.2377633"><ele>120.0</ele><time>2026-03-29T16:52:54.007Z</time></trkpt><trkpt lat="44.9173683" lon="8.2377033"><ele>120.0</ele><time>2026-03-29T16:52:55.004Z</time></trkpt><trkpt lat="44.91723" lon="8.23768"><ele>120.0</ele><time>2026-03-29T16:52:56.003Z</time></trkpt><trkpt lat="44.9170883" lon="8.23769"><ele>120.0</ele><time>2026-03-29T16:52:57.004Z</time></trkpt><trkpt lat="44.916945" lon="8.237745"><ele>120.0</ele><time>2026-03-29T16:52:58.006Z</time></trkpt><trkpt lat="44.9168083" lon="8.2378483"><ele>120.0</ele><time>2026-03-29T16:52:59.011Z</time></trkpt><trkpt lat="44.916685" lon="8.2379883"><ele>119.66666666666666</ele><time>2026-03-29T16:53:00.006Z</time></trkpt><trkpt lat="44.9165683" lon="8.2381483"><ele>119.33333333333333</ele><time>2026-03-29T16:53:01.004Z</time></trkpt><trkpt lat="44.9164483" lon="8.2383133"><ele>119.0</ele><time>2026-03-29T16:53:02.008Z</time></trkpt><trkpt lat="44.9163117" lon="8.2384617"><ele>119.0</ele><time>2026-03-29T16:53:03.002Z</time></trkpt><trkpt lat="44.9161683" lon="8.23859"><ele>119.0</ele><time>2026-03-29T16:53:04.002Z</time></trkpt><trkpt lat="44.9160217" lon="8.2387033"><ele>119.0</ele><time>2026-03-29T16:53:05.014Z</time></trkpt><trkpt lat="44.91586" lon="8.2387833"><ele>119.0</ele><time>2026-03-29T16:53:06.002Z</time></trkpt><trkpt lat="44.9157067" lon="8.23885"><ele>119.0</ele><time>2026-03-29T16:53:07.004Z</time></trkpt><trkpt lat="44.9155567" lon="8.2389067"><ele>119.0</ele><time>2026-03-29T16:53:08.004Z</time></trkpt><trkpt lat="44.9153917" lon="8.2389367"><ele>119.0</ele><time>2026-03-29T16:53:09.008Z</time></trkpt><trkpt lat="44.9152317" lon="8.238965"><ele>119.0</ele><time>2026-03-29T16:53:10.005Z</time></trkpt><trkpt lat="44.9150767" lon="8.2389933"><ele>119.0</ele><time>2026-03-29T16:53:11.004Z</time></trkpt><trkpt lat="44.914925" lon="8.2390167"><ele>119.0</ele><time>2026-03-29T16:53:12.001Z</time></trkpt><trkpt lat="44.91477" lon="8.2390567"><ele>119.0</ele><time>2026-03-29T16:53:13.004Z</time></trkpt><trkpt lat="44.91461" lon="8.2391"><ele>119.0</ele><time>2026-03-29T16:53:14.005Z</time></trkpt><trkpt lat="44.9144517" lon="8.239155"><ele>119.0</ele><time>2026-03-29T16:53:15.003Z</time></trkpt><trkpt lat="44.9142967" lon="8.2392083"><ele>119.0</ele><time>2026-03-29T16:53:16.007Z</time></trkpt><trkpt lat="44.91414" lon="8.2392617"><ele>119.0</ele><time>2026-03-29T16:53:17.002Z</time></trkpt><trkpt lat="44.9139883" lon="8.2393133"><ele>118.5</ele><time>2026-03-29T16:53:18.006Z</time></trkpt><trkpt lat="44.9138433" lon="8.2393667"><ele>118.0</ele><time>2026-03-29T16:53:19.008Z</time></trkpt><trkpt lat="44.9137017" lon="8.2394217"><ele>117.5</ele><time>2026-03-29T16:53:20.008Z</time></trkpt><trkpt lat="44.9135633" lon="8.2394733"><ele>117.0</ele><time>2026-03-29T16:53:21.009Z</time></trkpt><trkpt lat="44.913425" lon="8.2395217"><ele>116.75</ele><time>2026-03-29T16:53:22.006Z</time></trkpt><trkpt lat="44.9132917" lon="8.2395667"><ele>116.5</ele><time>2026-03-29T16:53:23.005Z</time></trkpt><trkpt lat="44.9131633" lon="8.2396117"><ele>116.25</ele><time>2026-03-29T16:53:24.002Z</time></trkpt><trkpt lat="44.9130367" lon="8.2396517"><ele>116.0</ele><time>2026-03-29T16:53:25.009Z</time></trkpt><trkpt lat="44.9129067" lon="8.2396883"><ele>116.0</ele><time>2026-03-29T16:53:26.006Z</time></trkpt><trkpt lat="44.9127783" lon="8.23972"><ele>116.0</ele><time>2026-03-29T16:53:27.005Z</time></trkpt><trkpt lat="44.9126467" lon="8.2397517"><ele>116.0</ele><time>2026-03-29T16:53:28.002Z</time></trkpt><trkpt lat="44.9125167" lon="8.2397767"><ele>116.0</ele><time>2026-03-29T16:53:29.004Z</time></trkpt><trkpt lat="44.912385" lon="8.2397983"><ele>116.75</ele><time>2026-03-29T16:53:30.004Z</time></trkpt><trkpt lat="44.9122533" lon="8.23983"><ele>117.5</ele><time>2026-03-29T16:53:31.003Z</time></trkpt><trkpt lat="44.9121217" lon="8.2398717"><ele>118.25</ele><time>2026-03-29T16:53:32.005Z</time></trkpt><trkpt lat="44.9119917" lon="8.2399233"><ele>119.0</ele><time>2026-03-29T16:53:33.003Z</time></trkpt><trkpt lat="44.911865" lon="8.239975"><ele>119.0</ele><time>2026-03-29T16:53:34.008Z</time></trkpt><trkpt lat="44.9117433" lon="8.24002"><ele>119.0</ele><time>2026-03-29T16:53:35.004Z</time></trkpt><trkpt lat="44.9116233" lon="8.2400633"><ele>119.0</ele><time>2026-03-29T16:53:35.999Z</time></trkpt><trkpt lat="44.9115033" lon="8.2401083"><ele>119.0</ele><time>2026-03-29T16:53:37.006Z</time></trkpt><trkpt lat="44.91139" lon="8.2401533"><ele>118.80000000000001</ele><time>2026-03-29T16:53:38.006Z</time></trkpt><trkpt lat="44.911285" lon="8.240205"><ele>118.60000000000001</ele><time>2026-03-29T16:53:39.003Z</time></trkpt><trkpt lat="44.9112017" lon="8.2402783"><ele>118.4</ele><time>2026-03-29T16:53:40.006Z</time></trkpt><trkpt lat="44.911125" lon="8.2403533"><ele>118.2</ele><time>2026-03-29T16:53:41.004Z</time></trkpt><trkpt lat="44.911065" lon="8.2404517"><ele>118.0</ele><time>2026-03-29T16:53:42.008Z</time></trkpt><trkpt lat="44.9110183" lon="8.2405683"><ele>118.0</ele><time>2026-03-29T16:53:43.006Z</time></trkpt><trkpt lat="44.9109833" lon="8.24069"><ele>118.00000000000001</ele><time>2026-03-29T16:53:44.007Z</time></trkpt><trkpt lat="44.9109533" lon="8.2408217"><ele>118.00000000000001</ele><time>2026-03-29T16:53:45.003Z</time></trkpt><trkpt lat="44.910925" lon="8.24095"><ele>118.0</ele><time>2026-03-29T16:53:46.009Z</time></trkpt><trkpt lat="44.9109017" lon="8.2410767"><ele>118.0</ele><time>2026-03-29T16:53:47.006Z</time></trkpt><trkpt lat="44.91088" lon="8.2412033"><ele>118.0</ele><time>2026-03-29T16:53:48.005Z</time></trkpt><trkpt lat="44.9108583" lon="8.241335"><ele>118.00000000000001</ele><time>2026-03-29T16:53:49.006Z</time></trkpt><trkpt lat="44.910835" lon="8.2414683"><ele>118.00000000000001</ele><time>2026-03-29T16:53:50.004Z</time></trkpt><trkpt lat="44.9108133" lon="8.2416067"><ele>118.0</ele><time>2026-03-29T16:53:51.008Z</time></trkpt><trkpt lat="44.9107983" lon="8.24176"><ele>118.0</ele><time>2026-03-29T16:53:52.005Z</time></trkpt><trkpt lat="44.910805" lon="8.2419167"><ele>118.0</ele><time>2026-03-29T16:53:53.006Z</time></trkpt><trkpt lat="44.910835" lon="8.2420717"><ele>118.00000000000001</ele><time>2026-03-29T16:53:54.005Z</time></trkpt><trkpt lat="44.9108833" lon="8.24222"><ele>118.00000000000001</ele><time>2026-03-29T16:53:55.008Z</time></trkpt><trkpt lat="44.910935" lon="8.2423567"><ele>118.0</ele><time>2026-03-29T16:53:56.002Z</time></trkpt><trkpt lat="44.9109883" lon="8.2424717"><ele>118.0</ele><time>2026-03-29T16:53:57.006Z</time></trkpt><trkpt lat="44.9110367" lon="8.24257"><ele>119.00000000000001</ele><time>2026-03-29T16:53:58.002Z</time></trkpt><trkpt lat="44.9110817" lon="8.242655"><ele>120.0</ele><time>2026-03-29T16:53:59.006Z</time></trkpt><trkpt lat="44.9111317" lon="8.2427383"><ele>121.0</ele><time>2026-03-29T16:54:00.006Z</time></trkpt><trkpt lat="44.9111817" lon="8.242815"><ele>122.0</ele><time>2026-03-29T16:54:01.005Z</time></trkpt><trkpt lat="44.91124" lon="8.242895"><ele>123.00000000000001</ele><time>2026-03-29T16:54:02.007Z</time></trkpt><trkpt lat="44.9113017" lon="8.2429733"><ele>124.0</ele><time>2026-03-29T16:54:03.008Z</time></trkpt><trkpt lat="44.9113633" lon="8.2430483"><ele>124.00000000000001</ele><time>2026-03-29T16:54:04.005Z</time></trkpt><trkpt lat="44.9114167" lon="8.2431233"><ele>124.0</ele><time>2026-03-29T16:54:05.003Z</time></trkpt><trkpt lat="44.9114967" lon="8.24324"><ele>124.0</ele><time>2026-03-29T16:54:07.009Z</time></trkpt><trkpt lat="44.9115583" lon="8.24332"><ele>124.0</ele><time>2026-03-29T16:54:09.003Z</time></trkpt><trkpt lat="44.9116167" lon="8.24341"><ele>124.00000000000001</ele><time>2026-03-29T16:54:18.002Z</time></trkpt><trkpt lat="44.9116883" lon="8.2434767"><ele>124.0</ele><time>2026-03-29T16:54:20.004Z</time></trkpt><trkpt lat="44.91185" lon="8.2436133"><ele>124.33333333333334</ele><time>2026-03-29T16:54:21.008Z</time></trkpt><trkpt lat="44.9119483" lon="8.2437"><ele>124.66666666666666</ele><time>2026-03-29T16:54:22.006Z</time></trkpt><trkpt lat="44.9120717" lon="8.2438417"><ele>125.0</ele><time>2026-03-29T16:54:23.004Z</time></trkpt><trkpt lat="44.9121867" lon="8.2440683"><ele>125.0</ele><time>2026-03-29T16:54:24.005Z</time></trkpt><trkpt lat="44.91227" lon="8.24431"><ele>125.0</ele><time>2026-03-29T16:54:25.006Z</time></trkpt><trkpt lat="44.9123433" lon="8.2444717"><ele>125.0</ele><time>2026-03-29T16:54:26.003Z</time></trkpt><trkpt lat="44.9124217" lon="8.2446117"><ele>125.0</ele><time>2026-03-29T16:54:27.01Z</time></trkpt><trkpt lat="44.9125133" lon="8.24474"><ele>125.0</ele><time>2026-03-29T16:54:28.003Z</time></trkpt><trkpt lat="44.9126067" lon="8.2448433"><ele>125.0</ele><time>2026-03-29T16:54:29.004Z</time></trkpt><trkpt lat="44.91272" lon="8.2448867"><ele>125.0</ele><time>2026-03-29T16:54:30.006Z</time></trkpt><trkpt lat="44.9128433" lon="8.2449183"><ele>125.33333333333333</ele><time>2026-03-29T16:54:31.005Z</time></trkpt><trkpt lat="44.91298" lon="8.2449433"><ele>125.66666666666666</ele><time>2026-03-29T16:54:32.002Z</time></trkpt><trkpt lat="44.9131333" lon="8.2449433"><ele>126.0</ele><time>2026-03-29T16:54:33.012Z</time></trkpt><trkpt lat="44.9133117" lon="8.244925"><ele>126.33333333333334</ele><time>2026-03-29T16:54:34.001Z</time></trkpt><trkpt lat="44.9135" lon="8.2449083"><ele>126.66666666666667</ele><time>2026-03-29T16:54:35.005Z</time></trkpt><trkpt lat="44.913685" lon="8.2448883"><ele>127.0</ele><time>2026-03-29T16:54:36.002Z</time></trkpt><trkpt lat="44.9138667" lon="8.2448733"><ele>127.0</ele><time>2026-03-29T16:54:37.007Z</time></trkpt><trkpt lat="44.914045" lon="8.2448567"><ele>127.0</ele><time>2026-03-29T16:54:38.003Z</time></trkpt><trkpt lat="44.9142283" lon="8.244835"><ele>127.0</ele><time>2026-03-29T16:54:39.004Z</time></trkpt><trkpt lat="44.9144133" lon="8.2448067"><ele>128.33333333333334</ele><time>2026-03-29T16:54:40.004Z</time></trkpt><trkpt lat="44.9145983" lon="8.2447767"><ele>129.66666666666666</ele><time>2026-03-29T16:54:41.003Z</time></trkpt><trkpt lat="44.91478" lon="8.2447483"><ele>131.0</ele><time>2026-03-29T16:54:42.004Z</time></trkpt><trkpt lat="44.9149583" lon="8.24472"><ele>130.33333333333331</ele><time>2026-03-29T16:54:43.013Z</time></trkpt><trkpt lat="44.9151383" lon="8.2446933"><ele>129.66666666666666</ele><time>2026-03-29T16:54:44.004Z</time></trkpt><trkpt lat="44.91532" lon="8.2446683"><ele>129.0</ele><time>2026-03-29T16:54:45.004Z</time></trkpt><trkpt lat="44.9155017" lon="8.2446467"><ele>129.0</ele><time>2026-03-29T16:54:46.004Z</time></trkpt><trkpt lat="44.9156717" lon="8.2446317"><ele>129.0</ele><time>2026-03-29T16:54:47.004Z</time></trkpt><trkpt lat="44.9158283" lon="8.2446333"><ele>129.0</ele><time>2026-03-29T16:54:48.004Z</time></trkpt><trkpt lat="44.9159817" lon="8.2446317"><ele>129.5</ele><time>2026-03-29T16:54:49.005Z</time></trkpt><trkpt lat="44.9161183" lon="8.2446367"><ele>130.0</ele><time>2026-03-29T16:54:50.008Z</time></trkpt><trkpt lat="44.9162383" lon="8.24466"><ele>130.5</ele><time>2026-03-29T16:54:51.003Z</time></trkpt><trkpt lat="44.91633" lon="8.2447167"><ele>131.0</ele><time>2026-03-29T16:54:52.003Z</time></trkpt><trkpt lat="44.916405" lon="8.2448167"><ele>131.25</ele><time>2026-03-29T16:54:53.007Z</time></trkpt><trkpt lat="44.91646" lon="8.24496"><ele>131.5</ele><time>2026-03-29T16:54:54.004Z</time></trkpt><trkpt lat="44.91652" lon="8.2451017"><ele>131.75</ele><time>2026-03-29T16:54:55.001Z</time></trkpt><trkpt lat="44.916585" lon="8.245245"><ele>132.0</ele><time>2026-03-29T16:54:56.004Z</time></trkpt><trkpt lat="44.916665" lon="8.24538"><ele>131.75</ele><time>2026-03-29T16:54:57.005Z</time></trkpt><trkpt lat="44.916755" lon="8.2455017"><ele>131.5</ele><time>2026-03-29T16:54:58.002Z</time></trkpt><trkpt lat="44.9168517" lon="8.2456033"><ele>131.25</ele><time>2026-03-29T16:54:59.003Z</time></trkpt><trkpt lat="44.9169567" lon="8.245695"><ele>131.0</ele><time>2026-03-29T16:55:00.007Z</time></trkpt><trkpt lat="44.917065" lon="8.245785"><ele>131.0</ele><time>2026-03-29T16:55:01.003Z</time></trkpt><trkpt lat="44.9171717" lon="8.2458667"><ele>131.0</ele><time>2026-03-29T16:55:02.005Z</time></trkpt><trkpt lat="44.9172767" lon="8.245945"><ele>131.0</ele><time>2026-03-29T16:55:03.004Z</time></trkpt><trkpt lat="44.9173817" lon="8.2460183"><ele>131.0</ele><time>2026-03-29T16:55:04.007Z</time></trkpt><trkpt lat="44.91749" lon="8.2460917"><ele>131.0</ele><time>2026-03-29T16:55:05.004Z</time></trkpt><trkpt lat="44.917605" lon="8.2461417"><ele>131.0</ele><time>2026-03-29T16:55:06.005Z</time></trkpt><trkpt lat="44.9177283" lon="8.2461767"><ele>131.0</ele><time>2026-03-29T16:55:07.008Z</time></trkpt><trkpt lat="44.9178533" lon="8.246195"><ele>131.0</ele><time>2026-03-29T16:55:08.002Z</time></trkpt><trkpt lat="44.9179733" lon="8.2462067"><ele>131.0</ele><time>2026-03-29T16:55:09.004Z</time></trkpt><trkpt lat="44.91808" lon="8.246215"><ele>131.0</ele><time>2026-03-29T16:55:10.005Z</time></trkpt><trkpt lat="44.91817" lon="8.2462167"><ele>131.0</ele><time>2026-03-29T16:55:11.004Z</time></trkpt><trkpt lat="44.9182533" lon="8.2462267"><ele>131.0</ele><time>2026-03-29T16:55:12.003Z</time></trkpt><trkpt lat="44.9183317" lon="8.2462433"><ele>131.0</ele><time>2026-03-29T16:55:13.008Z</time></trkpt><trkpt lat="44.9183983" lon="8.24625"><ele>131.0</ele><time>2026-03-29T16:55:14.006Z</time></trkpt><trkpt lat="44.9185017" lon="8.2462683"><ele>131.4</ele><time>2026-03-29T16:55:16.005Z</time></trkpt><trkpt lat="44.918565" lon="8.2462633"><ele>131.8</ele><time>2026-03-29T16:55:18.007Z</time></trkpt><trkpt lat="44.9186283" lon="8.2462733"><ele>132.20000000000002</ele><time>2026-03-29T16:55:20.005Z</time></trkpt><trkpt lat="44.9187133" lon="8.2462767"><ele>132.6</ele><time>2026-03-29T16:55:22.004Z</time></trkpt><trkpt lat="44.918825" lon="8.246265"><ele>133.0</ele><time>2026-03-29T16:55:24.004Z</time></trkpt><trkpt lat="44.9189517" lon="8.2462617"><ele>133.0</ele><time>2026-03-29T16:55:26.005Z</time></trkpt><trkpt lat="44.919015" lon="8.246255"><ele>133.0</ele><time>2026-03-29T16:55:27.006Z</time></trkpt><trkpt lat="44.9190833" lon="8.24625"><ele>133.0</ele><time>2026-03-29T16:55:28.005Z</time></trkpt><trkpt lat="44.919155" lon="8.2462367"><ele>133.0</ele><time>2026-03-29T16:55:29.005Z</time></trkpt><trkpt lat="44.919235" lon="8.2462167"><ele>133.0</ele><time>2026-03-29T16:55:30.006Z</time></trkpt><trkpt lat="44.919325" lon="8.2461967"><ele>133.0</ele><time>2026-03-29T16:55:31.005Z</time></trkpt><trkpt lat="44.9194317" lon="8.2461583"><ele>133.25</ele><time>2026-03-29T16:55:32.003Z</time></trkpt><trkpt lat="44.9195483" lon="8.2461033"><ele>133.5</ele><time>2026-03-29T16:55:33.005Z</time></trkpt><trkpt lat="44.9196667" lon="8.246035"><ele>133.75</ele><time>2026-03-29T16:55:34.004Z</time></trkpt><trkpt lat="44.919785" lon="8.2459667"><ele>134.0</ele><time>2026-03-29T16:55:35.008Z</time></trkpt><trkpt lat="44.9199033" lon="8.2459083"><ele>134.0</ele><time>2026-03-29T16:55:36.003Z</time></trkpt><trkpt lat="44.920025" lon="8.2458583"><ele>134.0</ele><time>2026-03-29T16:55:37.006Z</time></trkpt><trkpt lat="44.9201467" lon="8.245815"><ele>134.0</ele><time>2026-03-29T16:55:38.004Z</time></trkpt><trkpt lat="44.9202617" lon="8.2458"><ele>134.0</ele><time>2026-03-29T16:55:39.01Z</time></trkpt><trkpt lat="44.9203733" lon="8.2457883"><ele>134.2</ele><time>2026-03-29T16:55:40.006Z</time></trkpt><trkpt lat="44.9204733" lon="8.2457883"><ele>134.4</ele><time>2026-03-29T16:55:41.004Z</time></trkpt><trkpt lat="44.92057" lon="8.245795"><ele>134.6</ele><time>2026-03-29T16:55:42.013Z</time></trkpt><trkpt lat="44.9206717" lon="8.2457817"><ele>134.8</ele><time>2026-03-29T16:55:43.006Z</time></trkpt><trkpt lat="44.9207717" lon="8.24575"><ele>135.0</ele><time>2026-03-29T16:55:44.005Z</time></trkpt><trkpt lat="44.920865" lon="8.2457117"><ele>134.8</ele><time>2026-03-29T16:55:45.004Z</time></trkpt><trkpt lat="44.9209667" lon="8.245675"><ele>134.6</ele><time>2026-03-29T16:55:46.004Z</time></trkpt><trkpt lat="44.92106" lon="8.2456383"><ele>134.4</ele><time>2026-03-29T16:55:47.004Z</time></trkpt><trkpt lat="44.9211483" lon="8.245595"><ele>134.2</ele><time>2026-03-29T16:55:48.005Z</time></trkpt><trkpt lat="44.9212433" lon="8.2455383"><ele>134.0</ele><time>2026-03-29T16:55:49.005Z</time></trkpt><trkpt lat="44.921345" lon="8.24547"><ele>134.0</ele><time>2026-03-29T16:55:50.002Z</time></trkpt><trkpt lat="44.9214433" lon="8.245405"><ele>134.0</ele><time>2026-03-29T16:55:51.004Z</time></trkpt><trkpt lat="44.9215417" lon="8.2453317"><ele>134.0</ele><time>2026-03-29T16:55:52.004Z</time></trkpt><trkpt lat="44.921645" lon="8.2452583"><ele>134.0</ele><time>2026-03-29T16:55:53.008Z</time></trkpt><trkpt lat="44.9217617" lon="8.2451767"><ele>136.5</ele><time>2026-03-29T16:55:54.006Z</time></trkpt><trkpt lat="44.9218767" lon="8.2451067"><ele>139.0</ele><time>2026-03-29T16:55:55.006Z</time></trkpt><trkpt lat="44.9219967" lon="8.24504"><ele>141.5</ele><time>2026-03-29T16:55:56.008Z</time></trkpt><trkpt lat="44.9221267" lon="8.2449833"><ele>144.0</ele><time>2026-03-29T16:55:57.006Z</time></trkpt><trkpt lat="44.922265" lon="8.24494"><ele>144.0</ele><time>2026-03-29T16:55:58.004Z</time></trkpt><trkpt lat="44.9224117" lon="8.244905"><ele>144.0</ele><time>2026-03-29T16:55:59.002Z</time></trkpt><trkpt lat="44.9225633" lon="8.2448817"><ele>144.0</ele><time>2026-03-29T16:56:00.012Z</time></trkpt><trkpt lat="44.9227217" lon="8.2448567"><ele>144.33333333333334</ele><time>2026-03-29T16:56:01.005Z</time></trkpt><trkpt lat="44.9228783" lon="8.2448417"><ele>144.66666666666669</ele><time>2026-03-29T16:56:02.005Z</time></trkpt><trkpt lat="44.9230283" lon="8.2448183"><ele>145.0</ele><time>2026-03-29T16:56:03.005Z</time></trkpt><trkpt lat="44.9231867" lon="8.2448033"><ele>143.66666666666669</ele><time>2026-03-29T16:56:04.01Z</time></trkpt><trkpt lat="44.9233467" lon="8.24477"><ele>142.33333333333334</ele><time>2026-03-29T16:56:05.005Z</time></trkpt><trkpt lat="44.92351" lon="8.244725"><ele>141.0</ele><time>2026-03-29T16:56:06.005Z</time></trkpt><trkpt lat="44.92367" lon="8.2446883"><ele>141.0</ele><time>2026-03-29T16:56:07.002Z</time></trkpt><trkpt lat="44.923845" lon="8.244675"><ele>141.0</ele><time>2026-03-29T16:56:08.004Z</time></trkpt><trkpt lat="44.924025" lon="8.2446833"><ele>141.0</ele><time>2026-03-29T16:56:09.007Z</time></trkpt><trkpt lat="44.9242067" lon="8.2447117"><ele>140.66666666666666</ele><time>2026-03-29T16:56:10.004Z</time></trkpt><trkpt lat="44.9243917" lon="8.2447283"><ele>140.33333333333331</ele><time>2026-03-29T16:56:11.004Z</time></trkpt><trkpt lat="44.9245817" lon="8.24475"><ele>140.0</ele><time>2026-03-29T16:56:12.004Z</time></trkpt><trkpt lat="44.9247717" lon="8.2447683"><ele>140.0</ele><time>2026-03-29T16:56:13.008Z</time></trkpt><trkpt lat="44.9249667" lon="8.2447917"><ele>140.0</ele><time>2026-03-29T16:56:14.003Z</time></trkpt><trkpt lat="44.9251667" lon="8.24481"><ele>140.0</ele><time>2026-03-29T16:56:15.004Z</time></trkpt><trkpt lat="44.9253667" lon="8.24485"><ele>141.0</ele><time>2026-03-29T16:56:16.006Z</time></trkpt><trkpt lat="44.925565" lon="8.2448867"><ele>142.0</ele><time>2026-03-29T16:56:17.005Z</time></trkpt><trkpt lat="44.9257683" lon="8.244915"><ele>143.0</ele><time>2026-03-29T16:56:18.005Z</time></trkpt><trkpt lat="44.9259683" lon="8.244935"><ele>143.0</ele><time>2026-03-29T16:56:19.004Z</time></trkpt><trkpt lat="44.926165" lon="8.2449467"><ele>143.0</ele><time>2026-03-29T16:56:20.004Z</time></trkpt><trkpt lat="44.9263567" lon="8.2449583"><ele>143.0</ele><time>2026-03-29T16:56:21.006Z</time></trkpt><trkpt lat="44.92654" lon="8.2449583"><ele>143.0</ele><time>2026-03-29T16:56:22.007Z</time></trkpt><trkpt lat="44.9267083" lon="8.24494"><ele>143.0</ele><time>2026-03-29T16:56:23.005Z</time></trkpt><trkpt lat="44.9268683" lon="8.2449133"><ele>143.0</ele><time>2026-03-29T16:56:24.006Z</time></trkpt><trkpt lat="44.9270267" lon="8.244885"><ele>144.0</ele><time>2026-03-29T16:56:25.007Z</time></trkpt><trkpt lat="44.9271833" lon="8.24486"><ele>145.0</ele><time>2026-03-29T16:56:26.008Z</time></trkpt><trkpt lat="44.9273367" lon="8.2448567"><ele>146.0</ele><time>2026-03-29T16:56:27.008Z</time></trkpt><trkpt lat="44.9274883" lon="8.2448667"><ele>146.66666666666666</ele><time>2026-03-29T16:56:28.005Z</time></trkpt><trkpt lat="44.9276383" lon="8.2449133"><ele>147.33333333333334</ele><time>2026-03-29T16:56:29.007Z</time></trkpt><trkpt lat="44.92778" lon="8.2450067"><ele>148.0</ele><time>2026-03-29T16:56:30.007Z</time></trkpt><trkpt lat="44.92792" lon="8.2451183"><ele>148.0</ele><time>2026-03-29T16:56:31.005Z</time></trkpt><trkpt lat="44.9280483" lon="8.2452517"><ele>148.0</ele><time>2026-03-29T16:56:32.007Z</time></trkpt><trkpt lat="44.928175" lon="8.2454067"><ele>148.0</ele><time>2026-03-29T16:56:33.003Z</time></trkpt><trkpt lat="44.9283067" lon="8.245575"><ele>155.0</ele><time>2026-03-29T16:56:34.002Z</time></trkpt><trkpt lat="44.9284433" lon="8.2457533"><ele>162.0</ele><time>2026-03-29T16:56:35.002Z</time></trkpt><trkpt lat="44.928585" lon="8.2459317"><ele>169.0</ele><time>2026-03-29T16:56:35.998Z</time></trkpt><trkpt lat="44.9287283" lon="8.246105"><ele>169.0</ele><time>2026-03-29T16:56:37.004Z</time></trkpt><trkpt lat="44.9288817" lon="8.24627"><ele>169.0</ele><time>2026-03-29T16:56:38.004Z</time></trkpt><trkpt lat="44.9290433" lon="8.246425"><ele>169.0</ele><time>2026-03-29T16:56:39.007Z</time></trkpt><trkpt lat="44.929195" lon="8.2465783"><ele>178.0</ele><time>2026-03-29T16:56:40.006Z</time></trkpt><trkpt lat="44.92934" lon="8.2467317"><ele>187.0</ele><time>2026-03-29T16:56:41.005Z</time></trkpt><trkpt lat="44.9294817" lon="8.2468967"><ele>196.0</ele><time>2026-03-29T16:56:42.005Z</time></trkpt><trkpt lat="44.9296233" lon="8.2470617"><ele>196.0</ele><time>2026-03-29T16:56:43.005Z</time></trkpt><trkpt lat="44.92976" lon="8.2472183"><ele>196.0</ele><time>2026-03-29T16:56:44.007Z</time></trkpt><trkpt lat="44.9298933" lon="8.2473683"><ele>196.0</ele><time>2026-03-29T16:56:45.003Z</time></trkpt><trkpt lat="44.9299983" lon="8.247505"><ele>196.5</ele><time>2026-03-29T16:56:46.003Z</time></trkpt><trkpt lat="44.930115" lon="8.247625"><ele>197.0</ele><time>2026-03-29T16:56:47.009Z</time></trkpt><trkpt lat="44.9301983" lon="8.2477667"><ele>197.5</ele><time>2026-03-29T16:56:48.003Z</time></trkpt><trkpt lat="44.9302333" lon="8.2479417"><ele>198.0</ele><time>2026-03-29T16:56:49.007Z</time></trkpt><trkpt lat="44.9302833" lon="8.248105"><ele>198.75</ele><time>2026-03-29T16:56:50.003Z</time></trkpt><trkpt lat="44.9303283" lon="8.2483033"><ele>199.5</ele><time>2026-03-29T16:56:51.008Z</time></trkpt><trkpt lat="44.9303767" lon="8.248495"><ele>200.25</ele><time>2026-03-29T16:56:52.003Z</time></trkpt><trkpt lat="44.9304333" lon="8.2486733"><ele>201.0</ele><time>2026-03-29T16:56:53.006Z</time></trkpt><trkpt lat="44.9305" lon="8.2488467"><ele>198.75</ele><time>2026-03-29T16:56:54.004Z</time></trkpt><trkpt lat="44.9305783" lon="8.24901"><ele>196.5</ele><time>2026-03-29T16:56:55.007Z</time></trkpt><trkpt lat="44.9306533" lon="8.2491667"><ele>194.25</ele><time>2026-03-29T16:56:56.004Z</time></trkpt><trkpt lat="44.9307283" lon="8.2492967"><ele>192.0</ele><time>2026-03-29T16:56:57.004Z</time></trkpt><trkpt lat="44.9307717" lon="8.24942"><ele>192.0</ele><time>2026-03-29T16:56:58.004Z</time></trkpt><trkpt lat="44.930795" lon="8.24954"><ele>192.0</ele><time>2026-03-29T16:56:59.007Z</time></trkpt><trkpt lat="44.93081" lon="8.2496433"><ele>192.0</ele><time>2026-03-29T16:57:00.007Z</time></trkpt><trkpt lat="44.9308117" lon="8.2497583"><ele>192.0</ele><time>2026-03-29T16:57:01.005Z</time></trkpt><trkpt lat="44.9308067" lon="8.24986"><ele>192.0</ele><time>2026-03-29T16:57:02.003Z</time></trkpt><trkpt lat="44.9308083" lon="8.249955"><ele>192.0</ele><time>2026-03-29T16:57:03.005Z</time></trkpt><trkpt lat="44.9308517" lon="8.2501133"><ele>193.5</ele><time>2026-03-29T16:57:05.002Z</time></trkpt><trkpt lat="44.9309217" lon="8.250225"><ele>195.0</ele><time>2026-03-29T16:57:07.004Z</time></trkpt><trkpt lat="44.930975" lon="8.2501683"><ele>196.5</ele><time>2026-03-29T16:57:09.008Z</time></trkpt><trkpt lat="44.930975" lon="8.2500783"><ele>198.0</ele><time>2026-03-29T16:57:10.005Z</time></trkpt><trkpt lat="44.9309483" lon="8.24994"><ele>199.5</ele><time>2026-03-29T16:57:11.007Z</time></trkpt><trkpt lat="44.9309367" lon="8.2498283"><ele>201.0</ele><time>2026-03-29T16:57:12.006Z</time></trkpt><trkpt lat="44.9309167" lon="8.2497"><ele>201.0</ele><time>2026-03-29T16:57:13.002Z</time></trkpt><trkpt lat="44.93095" lon="8.2496033"><ele>201.0</ele><time>2026-03-29T16:57:15.004Z</time></trkpt><trkpt lat="44.93102" lon="8.2496183"><ele>201.0</ele><time>2026-03-29T16:57:17.003Z</time></trkpt><trkpt lat="44.9310283" lon="8.2497917"><ele>201.0</ele><time>2026-03-29T16:57:19.003Z</time></trkpt><trkpt lat="44.931005" lon="8.2498767"><ele>201.0</ele><time>2026-03-29T16:57:20.004Z</time></trkpt><trkpt lat="44.9309717" lon="8.249985"><ele>201.0</ele><time>2026-03-29T16:57:21.003Z</time></trkpt><trkpt lat="44.9309483" lon="8.2501033"><ele>201.0</ele><time>2026-03-29T16:57:22.004Z</time></trkpt><trkpt lat="44.9310083" lon="8.2502283"><ele>201.0</ele><time>2026-03-29T16:57:24.006Z</time></trkpt><trkpt lat="44.9310917" lon="8.25016"><ele>201.0</ele><time>2026-03-29T16:57:26.005Z</time></trkpt><trkpt lat="44.9311533" lon="8.2500333"><ele>201.0</ele><time>2026-03-29T16:57:28.002Z</time></trkpt><trkpt lat="44.931165" lon="8.2499267"><ele>201.0</ele><time>2026-03-29T16:57:29.005Z</time></trkpt><trkpt lat="44.9311717" lon="8.2498183"><ele>201.0</ele><time>2026-03-29T16:57:30.006Z</time></trkpt><trkpt lat="44.9311967" lon="8.24973"><ele>201.0</ele><time>2026-03-29T16:57:31.006Z</time></trkpt><trkpt lat="44.9312367" lon="8.2496467"><ele>201.0</ele><time>2026-03-29T16:57:32.008Z</time></trkpt><trkpt lat="44.9313517" lon="8.2496033"><ele>201.0</ele><time>2026-03-29T16:57:34.004Z</time></trkpt><trkpt lat="44.9314117" lon="8.24968"><ele>201.0</ele><time>2026-03-29T16:57:36.004Z</time></trkpt><trkpt lat="44.9314133" lon="8.2497883"><ele>201.0</ele><time>2026-03-29T16:57:37.003Z</time></trkpt><trkpt lat="44.9314" lon="8.2499067"><ele>201.0</ele><time>2026-03-29T16:57:38.004Z</time></trkpt><trkpt lat="44.93137" lon="8.2500117"><ele>201.0</ele><time>2026-03-29T16:57:39.003Z</time></trkpt><trkpt lat="44.9313183" lon="8.2501667"><ele>201.0</ele><time>2026-03-29T16:57:40.005Z</time></trkpt><trkpt lat="44.9312283" lon="8.2503517"><ele>201.0</ele><time>2026-03-29T16:57:41.004Z</time></trkpt><trkpt lat="44.9310617" lon="8.2506767"><ele>202.75</ele><time>2026-03-29T16:57:42.002Z</time></trkpt><trkpt lat="44.9309817" lon="8.2508317"><ele>204.5</ele><time>2026-03-29T16:57:43.003Z</time></trkpt><trkpt lat="44.9308883" lon="8.2509317"><ele>206.25</ele><time>2026-03-29T16:57:44.004Z</time></trkpt><trkpt lat="44.9308" lon="8.2510233"><ele>208.0</ele><time>2026-03-29T16:57:45.005Z</time></trkpt><trkpt lat="44.9307283" lon="8.2511117"><ele>208.5</ele><time>2026-03-29T16:57:46.005Z</time></trkpt><trkpt lat="44.9306733" lon="8.2512083"><ele>209.0</ele><time>2026-03-29T16:57:47.004Z</time></trkpt><trkpt lat="44.93065" lon="8.2513"><ele>209.5</ele><time>2026-03-29T16:57:48.006Z</time></trkpt><trkpt lat="44.9306783" lon="8.2514483"><ele>210.0</ele><time>2026-03-29T16:57:50.004Z</time></trkpt><trkpt lat="44.9308617" lon="8.2515033"><ele>211.0</ele><time>2026-03-29T16:57:51.002Z</time></trkpt><trkpt lat="44.9309733" lon="8.251575"><ele>212.0</ele><time>2026-03-29T16:57:52.01Z</time></trkpt><trkpt lat="44.9310883" lon="8.2516583"><ele>213.0</ele><time>2026-03-29T16:57:53.003Z</time></trkpt><trkpt lat="44.9311883" lon="8.2517467"><ele>214.0</ele><time>2026-03-29T16:57:54.004Z</time></trkpt><trkpt lat="44.9312783" lon="8.2518583"><ele>214.0</ele><time>2026-03-29T16:57:55.006Z</time></trkpt><trkpt lat="44.9313517" lon="8.2519917"><ele>214.0</ele><time>2026-03-29T16:57:56.011Z</time></trkpt><trkpt lat="44.9314183" lon="8.2521267"><ele>214.0</ele><time>2026-03-29T16:57:57.011Z</time></trkpt><trkpt lat="44.9314533" lon="8.25231"><ele>214.0</ele><time>2026-03-29T16:57:58.005Z</time></trkpt><trkpt lat="44.931495" lon="8.2524917"><ele>213.75</ele><time>2026-03-29T16:57:59.003Z</time></trkpt><trkpt lat="44.9315367" lon="8.2526767"><ele>213.5</ele><time>2026-03-29T16:58:00.011Z</time></trkpt><trkpt lat="44.93159" lon="8.2528667"><ele>213.25</ele><time>2026-03-29T16:58:01.005Z</time></trkpt><trkpt lat="44.931645" lon="8.2530483"><ele>213.0</ele><time>2026-03-29T16:58:02.004Z</time></trkpt><trkpt lat="44.931705" lon="8.2532283"><ele>210.75</ele><time>2026-03-29T16:58:03.007Z</time></trkpt><trkpt lat="44.931775" lon="8.25341"><ele>208.5</ele><time>2026-03-29T16:58:04.006Z</time></trkpt><trkpt lat="44.9318583" lon="8.25358"><ele>206.25</ele><time>2026-03-29T16:58:05.003Z</time></trkpt><trkpt lat="44.9319433" lon="8.2537417"><ele>204.0</ele><time>2026-03-29T16:58:06.005Z</time></trkpt><trkpt lat="44.9320483" lon="8.2538733"><ele>205.75</ele><time>2026-03-29T16:58:07.008Z</time></trkpt><trkpt lat="44.9321667" lon="8.2539833"><ele>207.5</ele><time>2026-03-29T16:58:08.004Z</time></trkpt><trkpt lat="44.9322767" lon="8.2540833"><ele>209.25</ele><time>2026-03-29T16:58:09.006Z</time></trkpt><trkpt lat="44.9323833" lon="8.25416"><ele>211.0</ele><time>2026-03-29T16:58:10.005Z</time></trkpt><trkpt lat="44.9324767" lon="8.254225"><ele>210.8</ele><time>2026-03-29T16:58:11.005Z</time></trkpt><trkpt lat="44.93256" lon="8.2542967"><ele>210.60000000000002</ele><time>2026-03-29T16:58:12.008Z</time></trkpt><trkpt lat="44.9326217" lon="8.25439"><ele>210.4</ele><time>2026-03-29T16:58:13.005Z</time></trkpt><trkpt lat="44.9326633" lon="8.2544983"><ele>210.2</ele><time>2026-03-29T16:58:14.007Z</time></trkpt><trkpt lat="44.9326933" lon="8.2546183"><ele>210.0</ele><time>2026-03-29T16:58:15.002Z</time></trkpt><trkpt lat="44.9327133" lon="8.2547383"><ele>209.83333333333334</ele><time>2026-03-29T16:58:16.007Z</time></trkpt><trkpt lat="44.9327317" lon="8.2548533"><ele>209.66666666666669</ele><time>2026-03-29T16:58:17.005Z</time></trkpt><trkpt lat="44.9327533" lon="8.2549483"><ele>209.5</ele><time>2026-03-29T16:58:18.003Z</time></trkpt><trkpt lat="44.932775" lon="8.2550367"><ele>209.33333333333334</ele><time>2026-03-29T16:58:19.008Z</time></trkpt><trkpt lat="44.93281" lon="8.2551183"><ele>209.16666666666669</ele><time>2026-03-29T16:58:20.001Z</time></trkpt><trkpt lat="44.9329183" lon="8.2551367"><ele>209.0</ele><time>2026-03-29T16:58:22.006Z</time></trkpt><trkpt lat="44.9329783" lon="8.2551067"><ele>209.0</ele><time>2026-03-29T16:58:23.006Z</time></trkpt><trkpt lat="44.9330467" lon="8.254995"><ele>209.0</ele><time>2026-03-29T16:58:24.003Z</time></trkpt><trkpt lat="44.9331367" lon="8.25487"><ele>209.0</ele><time>2026-03-29T16:58:25.007Z</time></trkpt><trkpt lat="44.9332317" lon="8.254745"><ele>209.0</ele><time>2026-03-29T16:58:26.001Z</time></trkpt><trkpt lat="44.9333467" lon="8.2546617"><ele>210.25</ele><time>2026-03-29T16:58:27.001Z</time></trkpt><trkpt lat="44.9334733" lon="8.2546067"><ele>211.5</ele><time>2026-03-29T16:58:28.007Z</time></trkpt><trkpt lat="44.9336117" lon="8.2545483"><ele>212.75</ele><time>2026-03-29T16:58:29.004Z</time></trkpt><trkpt lat="44.9337483" lon="8.2544967"><ele>214.0</ele><time>2026-03-29T16:58:30Z</time></trkpt><trkpt lat="44.9338883" lon="8.2544483"><ele>214.0</ele><time>2026-03-29T16:58:31.007Z</time></trkpt><trkpt lat="44.93402" lon="8.2543933"><ele>214.0</ele><time>2026-03-29T16:58:32.004Z</time></trkpt><trkpt lat="44.9341467" lon="8.25432"><ele>214.0</ele><time>2026-03-29T16:58:33.006Z</time></trkpt><trkpt lat="44.9342633" lon="8.2542133"><ele>214.0</ele><time>2026-03-29T16:58:34.008Z</time></trkpt><trkpt lat="44.9343617" lon="8.25408"><ele>214.5</ele><time>2026-03-29T16:58:35.006Z</time></trkpt><trkpt lat="44.9344583" lon="8.25394"><ele>215.0</ele><time>2026-03-29T16:58:36.005Z</time></trkpt><trkpt lat="44.9345617" lon="8.25381"><ele>215.5</ele><time>2026-03-29T16:58:37.006Z</time></trkpt><trkpt lat="44.9346683" lon="8.2536883"><ele>216.0</ele><time>2026-03-29T16:58:38.007Z</time></trkpt><trkpt lat="44.9347867" lon="8.25359"><ele>216.0</ele><time>2026-03-29T16:58:39.003Z</time></trkpt><trkpt lat="44.9349117" lon="8.25351"><ele>216.0</ele><time>2026-03-29T16:58:40.003Z</time></trkpt><trkpt lat="44.9350433" lon="8.2534483"><ele>216.0</ele><time>2026-03-29T16:58:41.006Z</time></trkpt><trkpt lat="44.93518" lon="8.253405"><ele>216.0</ele><time>2026-03-29T16:58:42.003Z</time></trkpt><trkpt lat="44.9353133" lon="8.2533733"><ele>214.5</ele><time>2026-03-29T16:58:43.01Z</time></trkpt><trkpt lat="44.9354517" lon="8.25335"><ele>213.0</ele><time>2026-03-29T16:58:44.003Z</time></trkpt><trkpt lat="44.9355967" lon="8.253355"><ele>211.5</ele><time>2026-03-29T16:58:45.007Z</time></trkpt><trkpt lat="44.9357433" lon="8.253355"><ele>210.0</ele><time>2026-03-29T16:58:46.002Z</time></trkpt><trkpt lat="44.9358833" lon="8.2533383"><ele>210.5</ele><time>2026-03-29T16:58:47.006Z</time></trkpt><trkpt lat="44.9360183" lon="8.2532983"><ele>211.0</ele><time>2026-03-29T16:58:48.007Z</time></trkpt><trkpt lat="44.9361467" lon="8.2532233"><ele>211.5</ele><time>2026-03-29T16:58:49.004Z</time></trkpt><trkpt lat="44.9362683" lon="8.2531083"><ele>212.0</ele><time>2026-03-29T16:58:50.008Z</time></trkpt><trkpt lat="44.9363817" lon="8.2529817"><ele>212.0</ele><time>2026-03-29T16:58:51.006Z</time></trkpt><trkpt lat="44.9365" lon="8.2528483"><ele>212.0</ele><time>2026-03-29T16:58:52.006Z</time></trkpt><trkpt lat="44.9366267" lon="8.25273"><ele>212.0</ele><time>2026-03-29T16:58:53.003Z</time></trkpt><trkpt lat="44.9367717" lon="8.252655"><ele>213.33333333333334</ele><time>2026-03-29T16:58:54.003Z</time></trkpt><trkpt lat="44.93693" lon="8.2526167"><ele>214.66666666666669</ele><time>2026-03-29T16:58:55.007Z</time></trkpt><trkpt lat="44.9370883" lon="8.2525867"><ele>216.0</ele><time>2026-03-29T16:58:56Z</time></trkpt><trkpt lat="44.937255" lon="8.2525833"><ele>216.0</ele><time>2026-03-29T16:58:57.005Z</time></trkpt><trkpt lat="44.9374183" lon="8.2525933"><ele>216.0</ele><time>2026-03-29T16:58:58.004Z</time></trkpt><trkpt lat="44.9375783" lon="8.2525983"><ele>216.0</ele><time>2026-03-29T16:58:59.005Z</time></trkpt><trkpt lat="44.9377383" lon="8.252595"><ele>215.0</ele><time>2026-03-29T16:59:00.006Z</time></trkpt><trkpt lat="44.93788" lon="8.2526017"><ele>214.0</ele><time>2026-03-29T16:59:01.002Z</time></trkpt><trkpt lat="44.9380033" lon="8.2526267"><ele>213.0</ele><time>2026-03-29T16:59:02.003Z</time></trkpt><trkpt lat="44.9381217" lon="8.2526833"><ele>212.0</ele><time>2026-03-29T16:59:03.004Z</time></trkpt><trkpt lat="44.9382267" lon="8.25278"><ele>212.0</ele><time>2026-03-29T16:59:04.011Z</time></trkpt><trkpt lat="44.9383417" lon="8.25287"><ele>212.0</ele><time>2026-03-29T16:59:05.005Z</time></trkpt><trkpt lat="44.9384633" lon="8.2529283"><ele>212.0</ele><time>2026-03-29T16:59:06.004Z</time></trkpt><trkpt lat="44.9385867" lon="8.25295"><ele>212.0</ele><time>2026-03-29T16:59:07.003Z</time></trkpt><trkpt lat="44.9387033" lon="8.2529183"><ele>212.0</ele><time>2026-03-29T16:59:08.004Z</time></trkpt><trkpt lat="44.9388083" lon="8.252835"><ele>212.0</ele><time>2026-03-29T16:59:09.01Z</time></trkpt><trkpt lat="44.93891" lon="8.25273"><ele>212.0</ele><time>2026-03-29T16:59:10.003Z</time></trkpt><trkpt lat="44.9390217" lon="8.2526083"><ele>212.0</ele><time>2026-03-29T16:59:11.002Z</time></trkpt><trkpt lat="44.9391367" lon="8.2524767"><ele>212.5</ele><time>2026-03-29T16:59:12.001Z</time></trkpt><trkpt lat="44.9392533" lon="8.2523483"><ele>213.0</ele><time>2026-03-29T16:59:13.005Z</time></trkpt><trkpt lat="44.939375" lon="8.2522267"><ele>213.5</ele><time>2026-03-29T16:59:14.006Z</time></trkpt><trkpt lat="44.9394983" lon="8.25212"><ele>214.0</ele><time>2026-03-29T16:59:15.003Z</time></trkpt><trkpt lat="44.9396217" lon="8.25203"><ele>215.0</ele><time>2026-03-29T16:59:16.007Z</time></trkpt><trkpt lat="44.9397383" lon="8.2519533"><ele>216.0</ele><time>2026-03-29T16:59:17.007Z</time></trkpt><trkpt lat="44.9398433" lon="8.25188"><ele>217.0</ele><time>2026-03-29T16:59:18.003Z</time></trkpt><trkpt lat="44.939955" lon="8.2517767"><ele>218.0</ele><time>2026-03-29T16:59:19.005Z</time></trkpt><trkpt lat="44.94006" lon="8.2516733"><ele>216.5</ele><time>2026-03-29T16:59:20.008Z</time></trkpt><trkpt lat="44.9401617" lon="8.25155"><ele>215.0</ele><time>2026-03-29T16:59:21.006Z</time></trkpt><trkpt lat="44.940255" lon="8.25141"><ele>213.5</ele><time>2026-03-29T16:59:22.006Z</time></trkpt><trkpt lat="44.940355" lon="8.2512717"><ele>212.0</ele><time>2026-03-29T16:59:23.01Z</time></trkpt><trkpt lat="44.94046" lon="8.2511517"><ele>212.0</ele><time>2026-03-29T16:59:24.008Z</time></trkpt><trkpt lat="44.9405717" lon="8.251045"><ele>212.0</ele><time>2026-03-29T16:59:25.006Z</time></trkpt><trkpt lat="44.9406933" lon="8.2509467"><ele>212.0</ele><time>2026-03-29T16:59:26.002Z</time></trkpt><trkpt lat="44.94083" lon="8.2508917"><ele>212.0</ele><time>2026-03-29T16:59:27.007Z</time></trkpt><trkpt lat="44.9409517" lon="8.250855"><ele>212.5</ele><time>2026-03-29T16:59:28.007Z</time></trkpt><trkpt lat="44.9410683" lon="8.2508283"><ele>213.0</ele><time>2026-03-29T16:59:29.006Z</time></trkpt><trkpt lat="44.9411867" lon="8.2508117"><ele>213.5</ele><time>2026-03-29T16:59:30.001Z</time></trkpt><trkpt lat="44.941315" lon="8.2507783"><ele>214.0</ele><time>2026-03-29T16:59:31.005Z</time></trkpt><trkpt lat="44.9414467" lon="8.2507317"><ele>214.0</ele><time>2026-03-29T16:59:32.004Z</time></trkpt><trkpt lat="44.94159" lon="8.25067"><ele>214.0</ele><time>2026-03-29T16:59:33.012Z</time></trkpt><trkpt lat="44.9417317" lon="8.2506033"><ele>214.0</ele><time>2026-03-29T16:59:34.006Z</time></trkpt><trkpt lat="44.9418683" lon="8.25053"><ele>214.0</ele><time>2026-03-29T16:59:35.003Z</time></trkpt><trkpt lat="44.94199" lon="8.25045"><ele>214.39999999999998</ele><time>2026-03-29T16:59:36.004Z</time></trkpt><trkpt lat="44.9420983" lon="8.2503733"><ele>214.79999999999998</ele><time>2026-03-29T16:59:37.006Z</time></trkpt><trkpt lat="44.9421917" lon="8.2502983"><ele>215.20000000000002</ele><time>2026-03-29T16:59:38.007Z</time></trkpt><trkpt lat="44.9422733" lon="8.2502217"><ele>215.60000000000002</ele><time>2026-03-29T16:59:39.004Z</time></trkpt><trkpt lat="44.9423467" lon="8.2501517"><ele>216.0</ele><time>2026-03-29T16:59:40.003Z</time></trkpt><trkpt lat="44.9424067" lon="8.2500833"><ele>216.0</ele><time>2026-03-29T16:59:41.006Z</time></trkpt><trkpt lat="44.9424633" lon="8.250015"><ele>216.00000000000003</ele><time>2026-03-29T16:59:42.008Z</time></trkpt><trkpt lat="44.9425217" lon="8.2499367"><ele>216.00000000000003</ele><time>2026-03-29T16:59:43.008Z</time></trkpt><trkpt lat="44.9425833" lon="8.2498367"><ele>216.0</ele><time>2026-03-29T16:59:44.003Z</time></trkpt><trkpt lat="44.94265" lon="8.2497117"><ele>216.0</ele><time>2026-03-29T16:59:45.008Z</time></trkpt><trkpt lat="44.9427083" lon="8.2495667"><ele>213.0</ele><time>2026-03-29T16:59:46.006Z</time></trkpt><trkpt lat="44.9427567" lon="8.249405"><ele>210.0</ele><time>2026-03-29T16:59:47.008Z</time></trkpt><trkpt lat="44.942795" lon="8.2492317"><ele>207.0</ele><time>2026-03-29T16:59:48.006Z</time></trkpt><trkpt lat="44.942815" lon="8.24905"><ele>204.0</ele><time>2026-03-29T16:59:49.006Z</time></trkpt><trkpt lat="44.9428317" lon="8.2488683"><ele>204.0</ele><time>2026-03-29T16:59:50.005Z</time></trkpt><trkpt lat="44.942845" lon="8.24869"><ele>204.0</ele><time>2026-03-29T16:59:51.008Z</time></trkpt><trkpt lat="44.9428583" lon="8.248515"><ele>204.0</ele><time>2026-03-29T16:59:52.003Z</time></trkpt><trkpt lat="44.9428717" lon="8.24835"><ele>204.0</ele><time>2026-03-29T16:59:53.002Z</time></trkpt><trkpt lat="44.94291" lon="8.248175"><ele>206.0</ele><time>2026-03-29T16:59:54.007Z</time></trkpt><trkpt lat="44.9429717" lon="8.2480033"><ele>208.0</ele><time>2026-03-29T16:59:55.004Z</time></trkpt><trkpt lat="44.9430517" lon="8.2478467"><ele>210.0</ele><time>2026-03-29T16:59:56.004Z</time></trkpt><trkpt lat="44.9431417" lon="8.247705"><ele>212.0</ele><time>2026-03-29T16:59:57.004Z</time></trkpt><trkpt lat="44.94323" lon="8.2475767"><ele>212.0</ele><time>2026-03-29T16:59:58.006Z</time></trkpt><trkpt lat="44.94332" lon="8.2474683"><ele>212.0</ele><time>2026-03-29T16:59:59.004Z</time></trkpt><trkpt lat="44.9433983" lon="8.2473917"><ele>212.0</ele><time>2026-03-29T17:00:00.011Z</time></trkpt><trkpt lat="44.94349" lon="8.2473433"><ele>212.0</ele><time>2026-03-29T17:00:01.008Z</time></trkpt><trkpt lat="44.9435967" lon="8.2473283"><ele>212.0</ele><time>2026-03-29T17:00:02.005Z</time></trkpt><trkpt lat="44.943715" lon="8.2473417"><ele>212.25</ele><time>2026-03-29T17:00:03.003Z</time></trkpt><trkpt lat="44.9438417" lon="8.247385"><ele>212.5</ele><time>2026-03-29T17:00:04.006Z</time></trkpt><trkpt lat="44.94398" lon="8.2474333"><ele>212.75</ele><time>2026-03-29T17:00:05.004Z</time></trkpt><trkpt lat="44.9441233" lon="8.24749"><ele>213.0</ele><time>2026-03-29T17:00:06.007Z</time></trkpt><trkpt lat="44.9442783" lon="8.2475383"><ele>213.0</ele><time>2026-03-29T17:00:07.005Z</time></trkpt><trkpt lat="44.9444383" lon="8.2475783"><ele>213.0</ele><time>2026-03-29T17:00:08.004Z</time></trkpt><trkpt lat="44.9445967" lon="8.2476083"><ele>213.0</ele><time>2026-03-29T17:00:09.004Z</time></trkpt><trkpt lat="44.94475" lon="8.2476567"><ele>213.0</ele><time>2026-03-29T17:00:10.005Z</time></trkpt><trkpt lat="44.9448983" lon="8.2477"><ele>213.0</ele><time>2026-03-29T17:00:11.004Z</time></trkpt><trkpt lat="44.94505" lon="8.24775"><ele>213.0</ele><time>2026-03-29T17:00:12.004Z</time></trkpt><trkpt lat="44.945195" lon="8.2478033"><ele>208.0</ele><time>2026-03-29T17:00:13.007Z</time></trkpt><trkpt lat="44.9453283" lon="8.2478617"><ele>203.0</ele><time>2026-03-29T17:00:14.004Z</time></trkpt><trkpt lat="44.9454867" lon="8.2479433"><ele>198.0</ele><time>2026-03-29T17:00:15.007Z</time></trkpt><trkpt lat="44.9456517" lon="8.24801"><ele>198.0</ele><time>2026-03-29T17:00:16.002Z</time></trkpt><trkpt lat="44.94582" lon="8.2480367"><ele>198.0</ele><time>2026-03-29T17:00:17.005Z</time></trkpt><trkpt lat="44.9460033" lon="8.2480683"><ele>198.0</ele><time>2026-03-29T17:00:18.003Z</time></trkpt><trkpt lat="44.9461967" lon="8.248095"><ele>198.66666666666669</ele><time>2026-03-29T17:00:19.002Z</time></trkpt><trkpt lat="44.9463833" lon="8.24811"><ele>199.33333333333334</ele><time>2026-03-29T17:00:20.004Z</time></trkpt><trkpt lat="44.9465683" lon="8.2481283"><ele>200.0</ele><time>2026-03-29T17:00:21.003Z</time></trkpt><trkpt lat="44.9467533" lon="8.2481433"><ele>202.0</ele><time>2026-03-29T17:00:22.006Z</time></trkpt><trkpt lat="44.9469467" lon="8.248155"><ele>204.0</ele><time>2026-03-29T17:00:23.005Z</time></trkpt><trkpt lat="44.94713" lon="8.24816"><ele>206.0</ele><time>2026-03-29T17:00:24.004Z</time></trkpt><trkpt lat="44.9473067" lon="8.2481667"><ele>206.0</ele><time>2026-03-29T17:00:25.003Z</time></trkpt><trkpt lat="44.9474833" lon="8.248165"><ele>206.0</ele><time>2026-03-29T17:00:26.004Z</time></trkpt><trkpt lat="44.9476583" lon="8.2481433"><ele>206.0</ele><time>2026-03-29T17:00:27.004Z</time></trkpt><trkpt lat="44.9478317" lon="8.248105"><ele>207.0</ele><time>2026-03-29T17:00:28.007Z</time></trkpt><trkpt lat="44.9480083" lon="8.2480617"><ele>208.0</ele><time>2026-03-29T17:00:29.012Z</time></trkpt><trkpt lat="44.9481767" lon="8.2480133"><ele>209.0</ele><time>2026-03-29T17:00:30.005Z</time></trkpt><trkpt lat="44.9483433" lon="8.2479583"><ele>211.33333333333334</ele><time>2026-03-29T17:00:31.004Z</time></trkpt><trkpt lat="44.9485067" lon="8.2479183"><ele>213.66666666666669</ele><time>2026-03-29T17:00:32.007Z</time></trkpt><trkpt lat="44.948665" lon="8.2479"><ele>216.0</ele><time>2026-03-29T17:00:33.011Z</time></trkpt><trkpt lat="44.9488217" lon="8.2478683"><ele>216.0</ele><time>2026-03-29T17:00:34.004Z</time></trkpt><trkpt lat="44.9489817" lon="8.2478233"><ele>216.0</ele><time>2026-03-29T17:00:35.004Z</time></trkpt><trkpt lat="44.949135" lon="8.247755"><ele>216.0</ele><time>2026-03-29T17:00:36.008Z</time></trkpt><trkpt lat="44.949275" lon="8.24768"><ele>217.0</ele><time>2026-03-29T17:00:37.003Z</time></trkpt><trkpt lat="44.9494" lon="8.2476017"><ele>218.0</ele><time>2026-03-29T17:00:38.009Z</time></trkpt><trkpt lat="44.9495183" lon="8.2475233"><ele>219.0</ele><time>2026-03-29T17:00:39.004Z</time></trkpt><trkpt lat="44.9496233" lon="8.2474433"><ele>220.0</ele><time>2026-03-29T17:00:40.004Z</time></trkpt><trkpt lat="44.9497233" lon="8.2473583"><ele>220.0</ele><time>2026-03-29T17:00:41.003Z</time></trkpt><trkpt lat="44.9498217" lon="8.2473017"><ele>220.0</ele><time>2026-03-29T17:00:42.011Z</time></trkpt><trkpt lat="44.949915" lon="8.24727"><ele>220.0</ele><time>2026-03-29T17:00:43.004Z</time></trkpt><trkpt lat="44.9500183" lon="8.2472567"><ele>220.0</ele><time>2026-03-29T17:00:44.002Z</time></trkpt><trkpt lat="44.9501233" lon="8.2472683"><ele>220.0</ele><time>2026-03-29T17:00:45.003Z</time></trkpt><trkpt lat="44.9502333" lon="8.2473067"><ele>219.5</ele><time>2026-03-29T17:00:46.003Z</time></trkpt><trkpt lat="44.9503517" lon="8.2473467"><ele>219.0</ele><time>2026-03-29T17:00:47.001Z</time></trkpt><trkpt lat="44.9504633" lon="8.247395"><ele>218.5</ele><time>2026-03-29T17:00:48.008Z</time></trkpt><trkpt lat="44.9505733" lon="8.2474467"><ele>218.0</ele><time>2026-03-29T17:00:49.006Z</time></trkpt><trkpt lat="44.9506733" lon="8.24752"><ele>218.0</ele><time>2026-03-29T17:00:50.004Z</time></trkpt><trkpt lat="44.9507633" lon="8.2476133"><ele>218.0</ele><time>2026-03-29T17:00:51.006Z</time></trkpt><trkpt lat="44.9508483" lon="8.2477267"><ele>218.0</ele><time>2026-03-29T17:00:52.005Z</time></trkpt><trkpt lat="44.9509417" lon="8.247855"><ele>218.0</ele><time>2026-03-29T17:00:53.007Z</time></trkpt><trkpt lat="44.9510267" lon="8.248"><ele>215.0</ele><time>2026-03-29T17:00:54.004Z</time></trkpt><trkpt lat="44.9511083" lon="8.2481467"><ele>212.0</ele><time>2026-03-29T17:00:55.003Z</time></trkpt><trkpt lat="44.9511767" lon="8.2482817"><ele>209.0</ele><time>2026-03-29T17:00:56.003Z</time></trkpt><trkpt lat="44.9512333" lon="8.2484467"><ele>206.0</ele><time>2026-03-29T17:00:57.006Z</time></trkpt><trkpt lat="44.9512767" lon="8.2486283"><ele>206.0</ele><time>2026-03-29T17:00:58.005Z</time></trkpt><trkpt lat="44.951305" lon="8.2488367"><ele>206.0</ele><time>2026-03-29T17:00:59.006Z</time></trkpt><trkpt lat="44.9513433" lon="8.249055"><ele>206.0</ele><time>2026-03-29T17:01:00.007Z</time></trkpt><trkpt lat="44.9513917" lon="8.2492683"><ele>206.5</ele><time>2026-03-29T17:01:01.009Z</time></trkpt><trkpt lat="44.9514567" lon="8.2494617"><ele>207.0</ele><time>2026-03-29T17:01:02.003Z</time></trkpt><trkpt lat="44.951525" lon="8.2496367"><ele>207.5</ele><time>2026-03-29T17:01:03.004Z</time></trkpt><trkpt lat="44.95157" lon="8.2497967"><ele>208.0</ele><time>2026-03-29T17:01:04.003Z</time></trkpt><trkpt lat="44.95161" lon="8.249945"><ele>210.75</ele><time>2026-03-29T17:01:05.006Z</time></trkpt><trkpt lat="44.951645" lon="8.2500967"><ele>213.5</ele><time>2026-03-29T17:01:06.005Z</time></trkpt><trkpt lat="44.9516617" lon="8.2502533"><ele>216.25</ele><time>2026-03-29T17:01:07.003Z</time></trkpt><trkpt lat="44.9516767" lon="8.2504217"><ele>219.0</ele><time>2026-03-29T17:01:08.006Z</time></trkpt><trkpt lat="44.95169" lon="8.2506"><ele>217.75</ele><time>2026-03-29T17:01:09.004Z</time></trkpt><trkpt lat="44.9517017" lon="8.2507817"><ele>216.5</ele><time>2026-03-29T17:01:10.005Z</time></trkpt><trkpt lat="44.9517" lon="8.2509617"><ele>215.25</ele><time>2026-03-29T17:01:11.004Z</time></trkpt><trkpt lat="44.9516733" lon="8.2511517"><ele>214.0</ele><time>2026-03-29T17:01:12.009Z</time></trkpt><trkpt lat="44.9516283" lon="8.251345"><ele>212.0</ele><time>2026-03-29T17:01:13.005Z</time></trkpt><trkpt lat="44.9515867" lon="8.25155"><ele>210.0</ele><time>2026-03-29T17:01:14.01Z</time></trkpt><trkpt lat="44.9515617" lon="8.2517517"><ele>208.0</ele><time>2026-03-29T17:01:15.006Z</time></trkpt><trkpt lat="44.9515567" lon="8.2519633"><ele>206.0</ele><time>2026-03-29T17:01:16.005Z</time></trkpt><trkpt lat="44.951565" lon="8.2521817"><ele>206.33333333333334</ele><time>2026-03-29T17:01:17.003Z</time></trkpt><trkpt lat="44.9515983" lon="8.2523917"><ele>206.66666666666669</ele><time>2026-03-29T17:01:18.006Z</time></trkpt><trkpt lat="44.9516633" lon="8.25259"><ele>207.0</ele><time>2026-03-29T17:01:19.007Z</time></trkpt><trkpt lat="44.9517333" lon="8.2527983"><ele>203.66666666666669</ele><time>2026-03-29T17:01:20.005Z</time></trkpt><trkpt lat="44.9518017" lon="8.25302"><ele>200.33333333333334</ele><time>2026-03-29T17:01:21.003Z</time></trkpt><trkpt lat="44.9518683" lon="8.2532483"><ele>197.0</ele><time>2026-03-29T17:01:22.005Z</time></trkpt><trkpt lat="44.95193" lon="8.2534733"><ele>197.0</ele><time>2026-03-29T17:01:23.004Z</time></trkpt><trkpt lat="44.951985" lon="8.2536867"><ele>197.0</ele><time>2026-03-29T17:01:24.005Z</time></trkpt><trkpt lat="44.9520567" lon="8.2538833"><ele>197.0</ele><time>2026-03-29T17:01:25.005Z</time></trkpt><trkpt lat="44.95214" lon="8.2540717"><ele>197.75</ele><time>2026-03-29T17:01:26.004Z</time></trkpt><trkpt lat="44.952235" lon="8.254235"><ele>198.5</ele><time>2026-03-29T17:01:27.005Z</time></trkpt><trkpt lat="44.9523417" lon="8.2543783"><ele>199.25</ele><time>2026-03-29T17:01:28.006Z</time></trkpt><trkpt lat="44.9524517" lon="8.2545033"><ele>200.0</ele><time>2026-03-29T17:01:29.003Z</time></trkpt><trkpt lat="44.95256" lon="8.2546083"><ele>200.0</ele><time>2026-03-29T17:01:30.005Z</time></trkpt><trkpt lat="44.9526717" lon="8.2546933"><ele>200.0</ele><time>2026-03-29T17:01:31.004Z</time></trkpt><trkpt lat="44.9527783" lon="8.25478"><ele>200.0</ele><time>2026-03-29T17:01:32.004Z</time></trkpt><trkpt lat="44.9528767" lon="8.2548617"><ele>200.0</ele><time>2026-03-29T17:01:33.006Z</time></trkpt><trkpt lat="44.9529717" lon="8.2549533"><ele>203.75</ele><time>2026-03-29T17:01:34.008Z</time></trkpt><trkpt lat="44.95307" lon="8.2550533"><ele>207.5</ele><time>2026-03-29T17:01:35.006Z</time></trkpt><trkpt lat="44.9531667" lon="8.2551417"><ele>211.25</ele><time>2026-03-29T17:01:36.004Z</time></trkpt><trkpt lat="44.9532617" lon="8.2552317"><ele>215.0</ele><time>2026-03-29T17:01:37.002Z</time></trkpt><trkpt lat="44.953355" lon="8.25532"><ele>213.2</ele><time>2026-03-29T17:01:38.005Z</time></trkpt><trkpt lat="44.9534483" lon="8.25541"><ele>211.4</ele><time>2026-03-29T17:01:39.003Z</time></trkpt><trkpt lat="44.9535367" lon="8.2555"><ele>209.60000000000002</ele><time>2026-03-29T17:01:40.008Z</time></trkpt><trkpt lat="44.9536233" lon="8.2555917"><ele>207.8</ele><time>2026-03-29T17:01:41.005Z</time></trkpt><trkpt lat="44.953715" lon="8.2556883"><ele>206.0</ele><time>2026-03-29T17:01:42.002Z</time></trkpt><trkpt lat="44.9538017" lon="8.2557817"><ele>205.60000000000002</ele><time>2026-03-29T17:01:43.007Z</time></trkpt><trkpt lat="44.953895" lon="8.2558667"><ele>205.2</ele><time>2026-03-29T17:01:44.005Z</time></trkpt><trkpt lat="44.9539867" lon="8.25595"><ele>204.8</ele><time>2026-03-29T17:01:45.007Z</time></trkpt><trkpt lat="44.95408" lon="8.2560317"><ele>204.39999999999998</ele><time>2026-03-29T17:01:46.004Z</time></trkpt><trkpt lat="44.9541633" lon="8.2561117"><ele>204.0</ele><time>2026-03-29T17:01:47.002Z</time></trkpt><trkpt lat="44.9542567" lon="8.2561733"><ele>203.5</ele><time>2026-03-29T17:01:48.005Z</time></trkpt><trkpt lat="44.9543267" lon="8.25624"><ele>203.0</ele><time>2026-03-29T17:01:49.005Z</time></trkpt><trkpt lat="44.9543883" lon="8.2562967"><ele>202.5</ele><time>2026-03-29T17:01:50.007Z</time></trkpt><trkpt lat="44.9544633" lon="8.25635"><ele>202.0</ele><time>2026-03-29T17:01:52.006Z</time></trkpt><trkpt lat="44.9545517" lon="8.25643"><ele>201.5</ele><time>2026-03-29T17:01:55.007Z</time></trkpt><trkpt lat="44.9546233" lon="8.2564917"><ele>201.0</ele><time>2026-03-29T17:01:57.004Z</time></trkpt><trkpt lat="44.9546367" lon="8.2566067"><ele>201.0</ele><time>2026-03-29T17:01:59.005Z</time></trkpt><trkpt lat="44.9545883" lon="8.2566867"><ele>201.0</ele><time>2026-03-29T17:02:00.011Z</time></trkpt><trkpt lat="44.9545533" lon="8.2567617"><ele>201.0</ele><time>2026-03-29T17:02:01.005Z</time></trkpt><trkpt lat="44.95446" lon="8.256845"><ele>201.0</ele><time>2026-03-29T17:02:02.004Z</time></trkpt><trkpt lat="44.9543833" lon="8.2569467"><ele>201.0</ele><time>2026-03-29T17:02:03.004Z</time></trkpt><trkpt lat="44.9543017" lon="8.2570167"><ele>201.0</ele><time>2026-03-29T17:02:04.003Z</time></trkpt><trkpt lat="44.95421" lon="8.2570883"><ele>200.75</ele><time>2026-03-29T17:02:05.005Z</time></trkpt><trkpt lat="44.9540967" lon="8.2571533"><ele>200.5</ele><time>2026-03-29T17:02:06.008Z</time></trkpt><trkpt lat="44.953965" lon="8.2572267"><ele>200.25</ele><time>2026-03-29T17:02:07.007Z</time></trkpt><trkpt lat="44.95384" lon="8.2572917"><ele>200.0</ele><time>2026-03-29T17:02:08.006Z</time></trkpt><trkpt lat="44.9536983" lon="8.2573633"><ele>198.25</ele><time>2026-03-29T17:02:09.003Z</time></trkpt><trkpt lat="44.95357" lon="8.2574567"><ele>196.5</ele><time>2026-03-29T17:02:10.004Z</time></trkpt><trkpt lat="44.95346" lon="8.257575"><ele>194.75</ele><time>2026-03-29T17:02:11.005Z</time></trkpt><trkpt lat="44.9533567" lon="8.2577133"><ele>193.0</ele><time>2026-03-29T17:02:12.006Z</time></trkpt><trkpt lat="44.9532767" lon="8.257875"><ele>193.0</ele><time>2026-03-29T17:02:13.006Z</time></trkpt><trkpt lat="44.953215" lon="8.2580583"><ele>193.0</ele><time>2026-03-29T17:02:14.004Z</time></trkpt><trkpt lat="44.9531733" lon="8.2582617"><ele>193.0</ele><time>2026-03-29T17:02:15.004Z</time></trkpt><trkpt lat="44.953155" lon="8.2584683"><ele>193.0</ele><time>2026-03-29T17:02:16.001Z</time></trkpt><trkpt lat="44.953145" lon="8.2586967"><ele>190.33333333333331</ele><time>2026-03-29T17:02:17.005Z</time></trkpt><trkpt lat="44.9531417" lon="8.2589367"><ele>187.66666666666666</ele><time>2026-03-29T17:02:18.004Z</time></trkpt><trkpt lat="44.9531383" lon="8.25919"><ele>185.0</ele><time>2026-03-29T17:02:19.004Z</time></trkpt><trkpt lat="44.9531367" lon="8.259445"><ele>184.66666666666666</ele><time>2026-03-29T17:02:20.007Z</time></trkpt><trkpt lat="44.9531383" lon="8.259705"><ele>184.33333333333334</ele><time>2026-03-29T17:02:21.005Z</time></trkpt><trkpt lat="44.95314" lon="8.25997"><ele>184.0</ele><time>2026-03-29T17:02:22.006Z</time></trkpt><trkpt lat="44.95314" lon="8.260245"><ele>183.33333333333334</ele><time>2026-03-29T17:02:23.005Z</time></trkpt><trkpt lat="44.9531367" lon="8.260525"><ele>182.66666666666666</ele><time>2026-03-29T17:02:24.006Z</time></trkpt><trkpt lat="44.9531317" lon="8.2608017"><ele>182.0</ele><time>2026-03-29T17:02:25.006Z</time></trkpt><trkpt lat="44.9531267" lon="8.2610817"><ele>180.0</ele><time>2026-03-29T17:02:26.005Z</time></trkpt><trkpt lat="44.9531183" lon="8.2613567"><ele>178.0</ele><time>2026-03-29T17:02:27.008Z</time></trkpt><trkpt lat="44.9531117" lon="8.2616333"><ele>176.0</ele><time>2026-03-29T17:02:28.007Z</time></trkpt><trkpt lat="44.9531067" lon="8.2619067"><ele>173.66666666666666</ele><time>2026-03-29T17:02:29.006Z</time></trkpt><trkpt lat="44.9531033" lon="8.2621783"><ele>171.33333333333334</ele><time>2026-03-29T17:02:30.001Z</time></trkpt><trkpt lat="44.9531" lon="8.2624483"><ele>169.0</ele><time>2026-03-29T17:02:31.008Z</time></trkpt><trkpt lat="44.9530967" lon="8.262715"><ele>168.0</ele><time>2026-03-29T17:02:32.003Z</time></trkpt><trkpt lat="44.9530917" lon="8.26298"><ele>167.0</ele><time>2026-03-29T17:02:33.005Z</time></trkpt><trkpt lat="44.9530867" lon="8.26324"><ele>166.0</ele><time>2026-03-29T17:02:34.004Z</time></trkpt><trkpt lat="44.9530783" lon="8.26349"><ele>166.0</ele><time>2026-03-29T17:02:35.002Z</time></trkpt><trkpt lat="44.9530667" lon="8.2637283"><ele>166.0</ele><time>2026-03-29T17:02:36.004Z</time></trkpt><trkpt lat="44.9530667" lon="8.263965"><ele>166.0</ele><time>2026-03-29T17:02:37.006Z</time></trkpt><trkpt lat="44.9530617" lon="8.2642017"><ele>165.66666666666669</ele><time>2026-03-29T17:02:38.005Z</time></trkpt><trkpt lat="44.9530717" lon="8.2644383"><ele>165.33333333333334</ele><time>2026-03-29T17:02:39.005Z</time></trkpt><trkpt lat="44.9531017" lon="8.2646717"><ele>165.0</ele><time>2026-03-29T17:02:40.005Z</time></trkpt><trkpt lat="44.9531533" lon="8.2649017"><ele>164.33333333333334</ele><time>2026-03-29T17:02:41.007Z</time></trkpt><trkpt lat="44.9532317" lon="8.2651333"><ele>163.66666666666669</ele><time>2026-03-29T17:02:42.002Z</time></trkpt><trkpt lat="44.9533333" lon="8.2653717"><ele>163.0</ele><time>2026-03-29T17:02:43.006Z</time></trkpt><trkpt lat="44.9534467" lon="8.265625"><ele>167.5</ele><time>2026-03-29T17:02:44.011Z</time></trkpt><trkpt lat="44.9535633" lon="8.26589"><ele>172.0</ele><time>2026-03-29T17:02:45.006Z</time></trkpt><trkpt lat="44.9536883" lon="8.266165"><ele>167.5</ele><time>2026-03-29T17:02:46.003Z</time></trkpt><trkpt lat="44.95381" lon="8.26645"><ele>163.0</ele><time>2026-03-29T17:02:47.005Z</time></trkpt><trkpt lat="44.95393" lon="8.2667233"><ele>163.0</ele><time>2026-03-29T17:02:48.007Z</time></trkpt><trkpt lat="44.9540383" lon="8.266975"><ele>163.0</ele><time>2026-03-29T17:02:49.004Z</time></trkpt><trkpt lat="44.9541367" lon="8.26719"><ele>163.0</ele><time>2026-03-29T17:02:50.004Z</time></trkpt><trkpt lat="44.954225" lon="8.2673783"><ele>163.0</ele><time>2026-03-29T17:02:51.002Z</time></trkpt><trkpt lat="44.9543033" lon="8.2675533"><ele>163.0</ele><time>2026-03-29T17:02:52.004Z</time></trkpt><trkpt lat="44.954375" lon="8.2677233"><ele>163.0</ele><time>2026-03-29T17:02:53.002Z</time></trkpt><trkpt lat="44.9544433" lon="8.2678983"><ele>163.0</ele><time>2026-03-29T17:02:54.001Z</time></trkpt><trkpt lat="44.9545" lon="8.2680783"><ele>161.33333333333334</ele><time>2026-03-29T17:02:55.007Z</time></trkpt><trkpt lat="44.9545433" lon="8.2682733"><ele>159.66666666666666</ele><time>2026-03-29T17:02:56.004Z</time></trkpt><trkpt lat="44.954575" lon="8.2684883"><ele>158.0</ele><time>2026-03-29T17:02:57.006Z</time></trkpt><trkpt lat="44.9545883" lon="8.268715"><ele>158.0</ele><time>2026-03-29T17:02:58.005Z</time></trkpt><trkpt lat="44.95458" lon="8.2689417"><ele>158.0</ele><time>2026-03-29T17:02:59.006Z</time></trkpt><trkpt lat="44.9545583" lon="8.2691733"><ele>158.0</ele><time>2026-03-29T17:03:00.011Z</time></trkpt><trkpt lat="44.954505" lon="8.2693883"><ele>157.33333333333331</ele><time>2026-03-29T17:03:01.004Z</time></trkpt><trkpt lat="44.9544267" lon="8.269595"><ele>156.66666666666666</ele><time>2026-03-29T17:03:02.004Z</time></trkpt><trkpt lat="44.9543283" lon="8.2697967"><ele>156.0</ele><time>2026-03-29T17:03:03.006Z</time></trkpt><trkpt lat="44.95422" lon="8.2699967"><ele>156.33333333333334</ele><time>2026-03-29T17:03:04.006Z</time></trkpt><trkpt lat="44.95411" lon="8.2702067"><ele>156.66666666666669</ele><time>2026-03-29T17:03:05.006Z</time></trkpt><trkpt lat="44.954" lon="8.2704283"><ele>157.0</ele><time>2026-03-29T17:03:06.004Z</time></trkpt><trkpt lat="44.95389" lon="8.2706617"><ele>159.66666666666669</ele><time>2026-03-29T17:03:07.004Z</time></trkpt><trkpt lat="44.953775" lon="8.270905"><ele>162.33333333333334</ele><time>2026-03-29T17:03:08.003Z</time></trkpt><trkpt lat="44.9536583" lon="8.2711483"><ele>165.0</ele><time>2026-03-29T17:03:09.005Z</time></trkpt><trkpt lat="44.9535383" lon="8.271395"><ele>166.66666666666666</ele><time>2026-03-29T17:03:10.004Z</time></trkpt><trkpt lat="44.9534167" lon="8.2716483"><ele>168.33333333333331</ele><time>2026-03-29T17:03:11.005Z</time></trkpt><trkpt lat="44.9532967" lon="8.2719117"><ele>170.0</ele><time>2026-03-29T17:03:12.002Z</time></trkpt><trkpt lat="44.9531733" lon="8.27218"><ele>165.5</ele><time>2026-03-29T17:03:13.01Z</time></trkpt><trkpt lat="44.9530467" lon="8.272445"><ele>161.0</ele><time>2026-03-29T17:03:14.007Z</time></trkpt><trkpt lat="44.95292" lon="8.2727233"><ele>161.0</ele><time>2026-03-29T17:03:15.007Z</time></trkpt><trkpt lat="44.9527917" lon="8.273"><ele>161.0</ele><time>2026-03-29T17:03:16.011Z</time></trkpt><trkpt lat="44.952665" lon="8.273275"><ele>157.5</ele><time>2026-03-29T17:03:17.009Z</time></trkpt><trkpt lat="44.9525383" lon="8.27355"><ele>154.0</ele><time>2026-03-29T17:03:18Z</time></trkpt><trkpt lat="44.9524133" lon="8.2738217"><ele>155.66666666666669</ele><time>2026-03-29T17:03:19.01Z</time></trkpt><trkpt lat="44.952295" lon="8.2740933"><ele>157.33333333333334</ele><time>2026-03-29T17:03:20.006Z</time></trkpt><trkpt lat="44.9521817" lon="8.2743583"><ele>159.0</ele><time>2026-03-29T17:03:21.003Z</time></trkpt><trkpt lat="44.95207" lon="8.2746317"><ele>159.33333333333334</ele><time>2026-03-29T17:03:22.007Z</time></trkpt><trkpt lat="44.95197" lon="8.2748967"><ele>159.66666666666669</ele><time>2026-03-29T17:03:23.002Z</time></trkpt><trkpt lat="44.9518667" lon="8.2751567"><ele>160.0</ele><time>2026-03-29T17:03:24.002Z</time></trkpt><trkpt lat="44.951765" lon="8.2754233"><ele>157.66666666666669</ele><time>2026-03-29T17:03:25.003Z</time></trkpt><trkpt lat="44.95167" lon="8.2757033"><ele>155.33333333333334</ele><time>2026-03-29T17:03:26.006Z</time></trkpt><trkpt lat="44.9515833" lon="8.27599"><ele>153.0</ele><time>2026-03-29T17:03:27.003Z</time></trkpt><trkpt lat="44.9515017" lon="8.2762817"><ele>154.33333333333334</ele><time>2026-03-29T17:03:28Z</time></trkpt><trkpt lat="44.9514233" lon="8.2765783"><ele>155.66666666666669</ele><time>2026-03-29T17:03:29.002Z</time></trkpt><trkpt lat="44.95135" lon="8.276865"><ele>157.0</ele><time>2026-03-29T17:03:30.011Z</time></trkpt><trkpt lat="44.951285" lon="8.2771417"><ele>157.33333333333334</ele><time>2026-03-29T17:03:31.005Z</time></trkpt><trkpt lat="44.951225" lon="8.2774017"><ele>157.66666666666666</ele><time>2026-03-29T17:03:32.009Z</time></trkpt><trkpt lat="44.9511667" lon="8.277645"><ele>158.0</ele><time>2026-03-29T17:03:33.006Z</time></trkpt><trkpt lat="44.9511117" lon="8.2778833"><ele>157.66666666666666</ele><time>2026-03-29T17:03:34.004Z</time></trkpt><trkpt lat="44.9510583" lon="8.2781167"><ele>157.33333333333334</ele><time>2026-03-29T17:03:35.007Z</time></trkpt><trkpt lat="44.95101" lon="8.2783483"><ele>157.0</ele><time>2026-03-29T17:03:36.007Z</time></trkpt><trkpt lat="44.9509617" lon="8.2785817"><ele>157.0</ele><time>2026-03-29T17:03:37.012Z</time></trkpt><trkpt lat="44.95091" lon="8.278815"><ele>157.0</ele><time>2026-03-29T17:03:38.003Z</time></trkpt><trkpt lat="44.9508633" lon="8.2790567"><ele>157.0</ele><time>2026-03-29T17:03:39.008Z</time></trkpt><trkpt lat="44.9508167" lon="8.279285"><ele>155.0</ele><time>2026-03-29T17:03:40.007Z</time></trkpt><trkpt lat="44.9507733" lon="8.2795033"><ele>153.0</ele><time>2026-03-29T17:03:41.006Z</time></trkpt><trkpt lat="44.9507333" lon="8.27971"><ele>151.0</ele><time>2026-03-29T17:03:42.005Z</time></trkpt><trkpt lat="44.9506967" lon="8.279905"><ele>151.0</ele><time>2026-03-29T17:03:43.005Z</time></trkpt><trkpt lat="44.950675" lon="8.2800817"><ele>151.0</ele><time>2026-03-29T17:03:44.004Z</time></trkpt><trkpt lat="44.9506717" lon="8.2802433"><ele>151.0</ele><time>2026-03-29T17:03:45.004Z</time></trkpt><trkpt lat="44.9506783" lon="8.28038"><ele>151.0</ele><time>2026-03-29T17:03:46.004Z</time></trkpt><trkpt lat="44.9506817" lon="8.2804883"><ele>151.0</ele><time>2026-03-29T17:03:47Z</time></trkpt><trkpt lat="44.9506717" lon="8.2805817"><ele>151.8</ele><time>2026-03-29T17:03:48.001Z</time></trkpt><trkpt lat="44.9505967" lon="8.2806933"><ele>152.6</ele><time>2026-03-29T17:03:50.005Z</time></trkpt><trkpt lat="44.95053" lon="8.2807083"><ele>153.4</ele><time>2026-03-29T17:03:51.005Z</time></trkpt><trkpt lat="44.9504533" lon="8.2807083"><ele>154.2</ele><time>2026-03-29T17:03:52.008Z</time></trkpt><trkpt lat="44.950355" lon="8.280695"><ele>155.0</ele><time>2026-03-29T17:03:53.001Z</time></trkpt><trkpt lat="44.9502433" lon="8.280675"><ele>155.0</ele><time>2026-03-29T17:03:54.001Z</time></trkpt><trkpt lat="44.9500817" lon="8.2806467"><ele>155.0</ele><time>2026-03-29T17:03:55.005Z</time></trkpt><trkpt lat="44.9499267" lon="8.2806567"><ele>155.0</ele><time>2026-03-29T17:03:56.005Z</time></trkpt><trkpt lat="44.949765" lon="8.2807133"><ele>153.66666666666666</ele><time>2026-03-29T17:03:57.008Z</time></trkpt><trkpt lat="44.9495883" lon="8.2807983"><ele>152.33333333333334</ele><time>2026-03-29T17:03:58.006Z</time></trkpt><trkpt lat="44.94941" lon="8.28091"><ele>151.0</ele><time>2026-03-29T17:03:59.005Z</time></trkpt><trkpt lat="44.9492133" lon="8.281045"><ele>149.5</ele><time>2026-03-29T17:04:00.008Z</time></trkpt><trkpt lat="44.9490133" lon="8.2811883"><ele>148.0</ele><time>2026-03-29T17:04:01.002Z</time></trkpt><trkpt lat="44.9488117" lon="8.281335"><ele>148.0</ele><time>2026-03-29T17:04:02.003Z</time></trkpt><trkpt lat="44.948615" lon="8.2814767"><ele>148.0</ele><time>2026-03-29T17:04:03.004Z</time></trkpt><trkpt lat="44.9484217" lon="8.2816133"><ele>148.0</ele><time>2026-03-29T17:04:04.007Z</time></trkpt><trkpt lat="44.94825" lon="8.2817433"><ele>148.0</ele><time>2026-03-29T17:04:05.004Z</time></trkpt><trkpt lat="44.9480733" lon="8.28187"><ele>148.0</ele><time>2026-03-29T17:04:06.004Z</time></trkpt><trkpt lat="44.9479017" lon="8.281995"><ele>148.0</ele><time>2026-03-29T17:04:07.004Z</time></trkpt><trkpt lat="44.9477333" lon="8.2821133"><ele>148.0</ele><time>2026-03-29T17:04:08.005Z</time></trkpt><trkpt lat="44.9475667" lon="8.2822317"><ele>148.0</ele><time>2026-03-29T17:04:09.005Z</time></trkpt><trkpt lat="44.9474" lon="8.28235"><ele>148.0</ele><time>2026-03-29T17:04:10.005Z</time></trkpt><trkpt lat="44.9472317" lon="8.2824633"><ele>150.33333333333334</ele><time>2026-03-29T17:04:11.004Z</time></trkpt><trkpt lat="44.9470633" lon="8.28258"><ele>152.66666666666666</ele><time>2026-03-29T17:04:12.009Z</time></trkpt><trkpt lat="44.9468917" lon="8.2826933"><ele>155.0</ele><time>2026-03-29T17:04:13.002Z</time></trkpt><trkpt lat="44.9467233" lon="8.282815"><ele>153.33333333333331</ele><time>2026-03-29T17:04:14.005Z</time></trkpt><trkpt lat="44.946565" lon="8.282935"><ele>151.66666666666666</ele><time>2026-03-29T17:04:15.003Z</time></trkpt><trkpt lat="44.9464183" lon="8.2830383"><ele>150.0</ele><time>2026-03-29T17:04:16.006Z</time></trkpt><trkpt lat="44.9462783" lon="8.2831317"><ele>150.0</ele><time>2026-03-29T17:04:17.004Z</time></trkpt><trkpt lat="44.9461483" lon="8.2831767"><ele>150.0</ele><time>2026-03-29T17:04:18.007Z</time></trkpt><trkpt lat="44.9460217" lon="8.283185"><ele>150.0</ele><time>2026-03-29T17:04:19.003Z</time></trkpt><trkpt lat="44.9458967" lon="8.28317"><ele>150.0</ele><time>2026-03-29T17:04:20.008Z</time></trkpt><trkpt lat="44.9457667" lon="8.2831167"><ele>149.25</ele><time>2026-03-29T17:04:21.006Z</time></trkpt><trkpt lat="44.94564" lon="8.2830317"><ele>148.5</ele><time>2026-03-29T17:04:22.004Z</time></trkpt><trkpt lat="44.9455183" lon="8.2829117"><ele>147.75</ele><time>2026-03-29T17:04:23.005Z</time></trkpt><trkpt lat="44.9454017" lon="8.2827833"><ele>147.0</ele><time>2026-03-29T17:04:24.006Z</time></trkpt><trkpt lat="44.9452933" lon="8.28265"><ele>147.0</ele><time>2026-03-29T17:04:25.004Z</time></trkpt><trkpt lat="44.94518" lon="8.2825267"><ele>147.0</ele><time>2026-03-29T17:04:26.005Z</time></trkpt><trkpt lat="44.945055" lon="8.2824433"><ele>147.0</ele><time>2026-03-29T17:04:27.005Z</time></trkpt><trkpt lat="44.94492" lon="8.2824017"><ele>147.0</ele><time>2026-03-29T17:04:28.006Z</time></trkpt><trkpt lat="44.94477" lon="8.282385"><ele>147.0</ele><time>2026-03-29T17:04:29.002Z</time></trkpt><trkpt lat="44.9446117" lon="8.2823767"><ele>147.0</ele><time>2026-03-29T17:04:30.002Z</time></trkpt><trkpt lat="44.9444417" lon="8.282365"><ele>147.0</ele><time>2026-03-29T17:04:31.007Z</time></trkpt><trkpt lat="44.94427" lon="8.282315"><ele>146.33333333333334</ele><time>2026-03-29T17:04:32.011Z</time></trkpt><trkpt lat="44.944095" lon="8.2822333"><ele>145.66666666666669</ele><time>2026-03-29T17:04:33.003Z</time></trkpt><trkpt lat="44.9439167" lon="8.2821317"><ele>145.0</ele><time>2026-03-29T17:04:34.005Z</time></trkpt><trkpt lat="44.9437317" lon="8.2820283"><ele>145.0</ele><time>2026-03-29T17:04:35.004Z</time></trkpt><trkpt lat="44.9435383" lon="8.2819233"><ele>145.0</ele><time>2026-03-29T17:04:36.002Z</time></trkpt><trkpt lat="44.943345" lon="8.2818133"><ele>145.0</ele><time>2026-03-29T17:04:37.007Z</time></trkpt><trkpt lat="44.943155" lon="8.2817067"><ele>145.0</ele><time>2026-03-29T17:04:38.005Z</time></trkpt><trkpt lat="44.9429683" lon="8.2816133"><ele>145.0</ele><time>2026-03-29T17:04:39.009Z</time></trkpt><trkpt lat="44.9427883" lon="8.2815233"><ele>145.0</ele><time>2026-03-29T17:04:40.005Z</time></trkpt><trkpt lat="44.9426067" lon="8.281455"><ele>144.0</ele><time>2026-03-29T17:04:41.005Z</time></trkpt><trkpt lat="44.9424267" lon="8.28141"><ele>143.0</ele><time>2026-03-29T17:04:42.007Z</time></trkpt><trkpt lat="44.9422383" lon="8.281375"><ele>142.0</ele><time>2026-03-29T17:04:43.008Z</time></trkpt><trkpt lat="44.9420517" lon="8.2813383"><ele>142.0</ele><time>2026-03-29T17:04:44.003Z</time></trkpt><trkpt lat="44.94186" lon="8.2813033"><ele>142.0</ele><time>2026-03-29T17:04:45.007Z</time></trkpt><trkpt lat="44.941665" lon="8.281275"><ele>142.0</ele><time>2026-03-29T17:04:46.005Z</time></trkpt><trkpt lat="44.9414683" lon="8.281245"><ele>142.0</ele><time>2026-03-29T17:04:47.001Z</time></trkpt><trkpt lat="44.94127" lon="8.2812117"><ele>142.0</ele><time>2026-03-29T17:04:48.008Z</time></trkpt><trkpt lat="44.9410667" lon="8.2811783"><ele>142.0</ele><time>2026-03-29T17:04:49.003Z</time></trkpt><trkpt lat="44.9408583" lon="8.2811317"><ele>142.33333333333334</ele><time>2026-03-29T17:04:50.011Z</time></trkpt><trkpt lat="44.9406483" lon="8.2810733"><ele>142.66666666666666</ele><time>2026-03-29T17:04:51.004Z</time></trkpt><trkpt lat="44.9404383" lon="8.2809983"><ele>143.0</ele><time>2026-03-29T17:04:52.002Z</time></trkpt><trkpt lat="44.9402283" lon="8.2809133"><ele>143.0</ele><time>2026-03-29T17:04:53.005Z</time></trkpt><trkpt lat="44.9400183" lon="8.2808167"><ele>143.0</ele><time>2026-03-29T17:04:54.012Z</time></trkpt><trkpt lat="44.9398017" lon="8.2807267"><ele>143.0</ele><time>2026-03-29T17:04:55.006Z</time></trkpt><trkpt lat="44.9395883" lon="8.2806433"><ele>142.33333333333331</ele><time>2026-03-29T17:04:56.003Z</time></trkpt><trkpt lat="44.939375" lon="8.2805683"><ele>141.66666666666666</ele><time>2026-03-29T17:04:57.004Z</time></trkpt><trkpt lat="44.939165" lon="8.2805183"><ele>141.0</ele><time>2026-03-29T17:04:58.006Z</time></trkpt><trkpt lat="44.938955" lon="8.2804967"><ele>141.0</ele><time>2026-03-29T17:04:59.016Z</time></trkpt><trkpt lat="44.9387433" lon="8.2804783"><ele>141.0</ele><time>2026-03-29T17:05:00.011Z</time></trkpt><trkpt lat="44.9385283" lon="8.2804383"><ele>141.0</ele><time>2026-03-29T17:05:01.009Z</time></trkpt><trkpt lat="44.9383183" lon="8.2803667"><ele>141.0</ele><time>2026-03-29T17:05:02.006Z</time></trkpt><trkpt lat="44.9381067" lon="8.2802733"><ele>141.0</ele><time>2026-03-29T17:05:03.005Z</time></trkpt><trkpt lat="44.9378967" lon="8.2801683"><ele>141.0</ele><time>2026-03-29T17:05:04.009Z</time></trkpt><trkpt lat="44.9376917" lon="8.280045"><ele>141.0</ele><time>2026-03-29T17:05:05.005Z</time></trkpt><trkpt lat="44.9374917" lon="8.2799017"><ele>141.0</ele><time>2026-03-29T17:05:06.004Z</time></trkpt><trkpt lat="44.9372917" lon="8.27975"><ele>140.0</ele><time>2026-03-29T17:05:07.006Z</time></trkpt><trkpt lat="44.9370967" lon="8.2796"><ele>139.0</ele><time>2026-03-29T17:05:08.002Z</time></trkpt><trkpt lat="44.9369167" lon="8.27946"><ele>138.0</ele><time>2026-03-29T17:05:09.006Z</time></trkpt><trkpt lat="44.93676" lon="8.2793"><ele>139.0</ele><time>2026-03-29T17:05:10.001Z</time></trkpt><trkpt lat="44.9366217" lon="8.279125"><ele>140.0</ele><time>2026-03-29T17:05:11.005Z</time></trkpt><trkpt lat="44.9364933" lon="8.2789333"><ele>141.0</ele><time>2026-03-29T17:05:12.004Z</time></trkpt><trkpt lat="44.936355" lon="8.2787483"><ele>141.0</ele><time>2026-03-29T17:05:13.003Z</time></trkpt><trkpt lat="44.9361983" lon="8.2785717"><ele>141.0</ele><time>2026-03-29T17:05:14.002Z</time></trkpt><trkpt lat="44.9360283" lon="8.2784167"><ele>141.0</ele><time>2026-03-29T17:05:15.002Z</time></trkpt><trkpt lat="44.9358467" lon="8.27828"><ele>141.0</ele><time>2026-03-29T17:05:16.003Z</time></trkpt><trkpt lat="44.9356617" lon="8.2781433"><ele>141.0</ele><time>2026-03-29T17:05:17.002Z</time></trkpt><trkpt lat="44.9354783" lon="8.278005"><ele>141.0</ele><time>2026-03-29T17:05:18.005Z</time></trkpt><trkpt lat="44.9353" lon="8.27785"><ele>141.0</ele><time>2026-03-29T17:05:19.006Z</time></trkpt><trkpt lat="44.9351333" lon="8.2776833"><ele>141.0</ele><time>2026-03-29T17:05:20.004Z</time></trkpt><trkpt lat="44.9349667" lon="8.2775033"><ele>141.0</ele><time>2026-03-29T17:05:21.004Z</time></trkpt><trkpt lat="44.9348017" lon="8.2773167"><ele>139.0</ele><time>2026-03-29T17:05:22.006Z</time></trkpt><trkpt lat="44.9346383" lon="8.2771183"><ele>137.0</ele><time>2026-03-29T17:05:23.004Z</time></trkpt><trkpt lat="44.9344933" lon="8.2769217"><ele>135.0</ele><time>2026-03-29T17:05:24.004Z</time></trkpt><trkpt lat="44.9343483" lon="8.2767233"><ele>136.66666666666666</ele><time>2026-03-29T17:05:25.004Z</time></trkpt><trkpt lat="44.9342133" lon="8.27654"><ele>138.33333333333331</ele><time>2026-03-29T17:05:26.003Z</time></trkpt><trkpt lat="44.9340883" lon="8.2763567"><ele>140.0</ele><time>2026-03-29T17:05:27.005Z</time></trkpt><trkpt lat="44.9339833" lon="8.2761483"><ele>140.0</ele><time>2026-03-29T17:05:28.013Z</time></trkpt><trkpt lat="44.9338967" lon="8.2759383"><ele>140.0</ele><time>2026-03-29T17:05:29.003Z</time></trkpt><trkpt lat="44.9338083" lon="8.275725"><ele>140.0</ele><time>2026-03-29T17:05:30.005Z</time></trkpt><trkpt lat="44.9337083" lon="8.2755317"><ele>139.33333333333331</ele><time>2026-03-29T17:05:31.006Z</time></trkpt><trkpt lat="44.9335883" lon="8.2753617"><ele>138.66666666666666</ele><time>2026-03-29T17:05:32.004Z</time></trkpt><trkpt lat="44.93346" lon="8.2752317"><ele>138.0</ele><time>2026-03-29T17:05:33.005Z</time></trkpt><trkpt lat="44.93331" lon="8.275125"><ele>138.0</ele><time>2026-03-29T17:05:34.003Z</time></trkpt><trkpt lat="44.9331483" lon="8.2750333"><ele>138.0</ele><time>2026-03-29T17:05:35.012Z</time></trkpt><trkpt lat="44.9329867" lon="8.2749633"><ele>138.0</ele><time>2026-03-29T17:05:36.005Z</time></trkpt><trkpt lat="44.93282" lon="8.274895"><ele>138.0</ele><time>2026-03-29T17:05:37.003Z</time></trkpt><trkpt lat="44.9326633" lon="8.2748233"><ele>138.0</ele><time>2026-03-29T17:05:38.002Z</time></trkpt><trkpt lat="44.932515" lon="8.2747467"><ele>138.0</ele><time>2026-03-29T17:05:39.004Z</time></trkpt><trkpt lat="44.9323933" lon="8.27467"><ele>137.25</ele><time>2026-03-29T17:05:40.002Z</time></trkpt><trkpt lat="44.93226" lon="8.2745983"><ele>136.5</ele><time>2026-03-29T17:05:41.003Z</time></trkpt><trkpt lat="44.932135" lon="8.2745467"><ele>135.75</ele><time>2026-03-29T17:05:42.002Z</time></trkpt><trkpt lat="44.93201" lon="8.2745133"><ele>135.0</ele><time>2026-03-29T17:05:43.004Z</time></trkpt><trkpt lat="44.93188" lon="8.27451"><ele>135.0</ele><time>2026-03-29T17:05:44.003Z</time></trkpt><trkpt lat="44.9317517" lon="8.2745267"><ele>135.0</ele><time>2026-03-29T17:05:45.003Z</time></trkpt><trkpt lat="44.9316183" lon="8.2745583"><ele>135.0</ele><time>2026-03-29T17:05:46.007Z</time></trkpt><trkpt lat="44.931485" lon="8.2745833"><ele>135.0</ele><time>2026-03-29T17:05:47Z</time></trkpt><trkpt lat="44.9313533" lon="8.2745933"><ele>134.5</ele><time>2026-03-29T17:05:48.008Z</time></trkpt><trkpt lat="44.93122" lon="8.2745917"><ele>134.0</ele><time>2026-03-29T17:05:49.005Z</time></trkpt><trkpt lat="44.9310917" lon="8.2745983"><ele>133.5</ele><time>2026-03-29T17:05:50.01Z</time></trkpt><trkpt lat="44.9309567" lon="8.2745817"><ele>133.0</ele><time>2026-03-29T17:05:51.002Z</time></trkpt><trkpt lat="44.930825" lon="8.274555"><ele>133.0</ele><time>2026-03-29T17:05:52.003Z</time></trkpt><trkpt lat="44.9306983" lon="8.274535"><ele>133.0</ele><time>2026-03-29T17:05:53.002Z</time></trkpt><trkpt lat="44.930575" lon="8.2745067"><ele>133.0</ele><time>2026-03-29T17:05:54.003Z</time></trkpt><trkpt lat="44.9304567" lon="8.2744917"><ele>133.0</ele><time>2026-03-29T17:05:55.007Z</time></trkpt><trkpt lat="44.93034" lon="8.274485"><ele>133.0</ele><time>2026-03-29T17:05:56.006Z</time></trkpt><trkpt lat="44.93022" lon="8.2745"><ele>133.0</ele><time>2026-03-29T17:05:57.003Z</time></trkpt><trkpt lat="44.9300983" lon="8.2745283"><ele>133.0</ele><time>2026-03-29T17:05:58.002Z</time></trkpt><trkpt lat="44.9299717" lon="8.2745683"><ele>133.0</ele><time>2026-03-29T17:05:59.007Z</time></trkpt><trkpt lat="44.9298417" lon="8.2746233"><ele>133.0</ele><time>2026-03-29T17:06:00.01Z</time></trkpt><trkpt lat="44.9296967" lon="8.2746717"><ele>133.0</ele><time>2026-03-29T17:06:01.002Z</time></trkpt><trkpt lat="44.9295533" lon="8.2747117"><ele>133.0</ele><time>2026-03-29T17:06:02.001Z</time></trkpt><trkpt lat="44.929405" lon="8.2747233"><ele>133.0</ele><time>2026-03-29T17:06:03.005Z</time></trkpt><trkpt lat="44.9292567" lon="8.2746967"><ele>132.66666666666669</ele><time>2026-03-29T17:06:04.004Z</time></trkpt><trkpt lat="44.9291117" lon="8.2746417"><ele>132.33333333333334</ele><time>2026-03-29T17:06:05.004Z</time></trkpt><trkpt lat="44.9289567" lon="8.2745583"><ele>132.0</ele><time>2026-03-29T17:06:06.004Z</time></trkpt><trkpt lat="44.9288" lon="8.2744617"><ele>132.0</ele><time>2026-03-29T17:06:07.006Z</time></trkpt><trkpt lat="44.92864" lon="8.2743583"><ele>132.0</ele><time>2026-03-29T17:06:08.004Z</time></trkpt><trkpt lat="44.9284833" lon="8.2742483"><ele>132.0</ele><time>2026-03-29T17:06:09.008Z</time></trkpt><trkpt lat="44.92833" lon="8.2741517"><ele>134.33333333333334</ele><time>2026-03-29T17:06:10.005Z</time></trkpt><trkpt lat="44.9281667" lon="8.274065"><ele>136.66666666666669</ele><time>2026-03-29T17:06:11.004Z</time></trkpt><trkpt lat="44.9279983" lon="8.2740017"><ele>139.0</ele><time>2026-03-29T17:06:12.007Z</time></trkpt><trkpt lat="44.9278233" lon="8.273965"><ele>139.0</ele><time>2026-03-29T17:06:13.007Z</time></trkpt><trkpt lat="44.9276433" lon="8.27394"><ele>139.0</ele><time>2026-03-29T17:06:14.006Z</time></trkpt><trkpt lat="44.9274633" lon="8.2739183"><ele>139.0</ele><time>2026-03-29T17:06:15.005Z</time></trkpt><trkpt lat="44.9272867" lon="8.2739017"><ele>137.0</ele><time>2026-03-29T17:06:16.005Z</time></trkpt><trkpt lat="44.92711" lon="8.273885"><ele>135.0</ele><time>2026-03-29T17:06:17.001Z</time></trkpt><trkpt lat="44.9269317" lon="8.2738617"><ele>133.0</ele><time>2026-03-29T17:06:18.006Z</time></trkpt><trkpt lat="44.9267433" lon="8.27383"><ele>132.0</ele><time>2026-03-29T17:06:19.003Z</time></trkpt><trkpt lat="44.9265633" lon="8.27379"><ele>131.0</ele><time>2026-03-29T17:06:20.005Z</time></trkpt><trkpt lat="44.9263817" lon="8.2737433"><ele>130.0</ele><time>2026-03-29T17:06:21.004Z</time></trkpt><trkpt lat="44.9262017" lon="8.273685"><ele>130.0</ele><time>2026-03-29T17:06:22.002Z</time></trkpt><trkpt lat="44.926015" lon="8.2736233"><ele>130.0</ele><time>2026-03-29T17:06:23.005Z</time></trkpt><trkpt lat="44.925825" lon="8.2735517"><ele>130.0</ele><time>2026-03-29T17:06:24.001Z</time></trkpt><trkpt lat="44.92564" lon="8.2734833"><ele>130.0</ele><time>2026-03-29T17:06:25.004Z</time></trkpt><trkpt lat="44.92546" lon="8.2734233"><ele>130.0</ele><time>2026-03-29T17:06:26.007Z</time></trkpt><trkpt lat="44.9252817" lon="8.2733833"><ele>130.0</ele><time>2026-03-29T17:06:27.004Z</time></trkpt><trkpt lat="44.9251" lon="8.2733517"><ele>130.0</ele><time>2026-03-29T17:06:28.002Z</time></trkpt><trkpt lat="44.9249133" lon="8.2733283"><ele>130.0</ele><time>2026-03-29T17:06:29.002Z</time></trkpt><trkpt lat="44.9247267" lon="8.2733067"><ele>130.0</ele><time>2026-03-29T17:06:30.004Z</time></trkpt><trkpt lat="44.9245417" lon="8.273295"><ele>130.0</ele><time>2026-03-29T17:06:31.004Z</time></trkpt><trkpt lat="44.9243533" lon="8.2732983"><ele>130.0</ele><time>2026-03-29T17:06:32.004Z</time></trkpt><trkpt lat="44.9241633" lon="8.27332"><ele>130.0</ele><time>2026-03-29T17:06:33.006Z</time></trkpt><trkpt lat="44.9239717" lon="8.2733567"><ele>130.33333333333334</ele><time>2026-03-29T17:06:34.005Z</time></trkpt><trkpt lat="44.9237783" lon="8.2733983"><ele>130.66666666666666</ele><time>2026-03-29T17:06:35.004Z</time></trkpt><trkpt lat="44.923585" lon="8.2734467"><ele>131.0</ele><time>2026-03-29T17:06:36.004Z</time></trkpt><trkpt lat="44.9233917" lon="8.2735033"><ele>130.33333333333331</ele><time>2026-03-29T17:06:37.007Z</time></trkpt><trkpt lat="44.9231983" lon="8.27358"><ele>129.66666666666666</ele><time>2026-03-29T17:06:38.004Z</time></trkpt><trkpt lat="44.9230067" lon="8.2736667"><ele>129.0</ele><time>2026-03-29T17:06:39.006Z</time></trkpt><trkpt lat="44.92282" lon="8.2737767"><ele>129.0</ele><time>2026-03-29T17:06:40.004Z</time></trkpt><trkpt lat="44.9226283" lon="8.2738817"><ele>129.0</ele><time>2026-03-29T17:06:41.003Z</time></trkpt><trkpt lat="44.922435" lon="8.2739883"><ele>129.0</ele><time>2026-03-29T17:06:42.002Z</time></trkpt><trkpt lat="44.92224" lon="8.2740833"><ele>128.66666666666666</ele><time>2026-03-29T17:06:43.003Z</time></trkpt><trkpt lat="44.92205" lon="8.2741733"><ele>128.33333333333331</ele><time>2026-03-29T17:06:44.002Z</time></trkpt><trkpt lat="44.9218667" lon="8.27425"><ele>128.0</ele><time>2026-03-29T17:06:45.002Z</time></trkpt><trkpt lat="44.9216917" lon="8.2743167"><ele>128.0</ele><time>2026-03-29T17:06:46.003Z</time></trkpt><trkpt lat="44.9215183" lon="8.274375"><ele>128.0</ele><time>2026-03-29T17:06:47.003Z</time></trkpt><trkpt lat="44.9213483" lon="8.2744217"><ele>128.0</ele><time>2026-03-29T17:06:48.003Z</time></trkpt><trkpt lat="44.9211817" lon="8.2744667"><ele>128.0</ele><time>2026-03-29T17:06:49.001Z</time></trkpt><trkpt lat="44.921015" lon="8.27451"><ele>128.0</ele><time>2026-03-29T17:06:50.003Z</time></trkpt><trkpt lat="44.9208483" lon="8.2745517"><ele>128.0</ele><time>2026-03-29T17:06:51.005Z</time></trkpt><trkpt lat="44.92068" lon="8.27459"><ele>127.0</ele><time>2026-03-29T17:06:52.001Z</time></trkpt><trkpt lat="44.9205083" lon="8.2746317"><ele>126.0</ele><time>2026-03-29T17:06:53.003Z</time></trkpt><trkpt lat="44.9203417" lon="8.2746717"><ele>125.0</ele><time>2026-03-29T17:06:54.005Z</time></trkpt><trkpt lat="44.92018" lon="8.274715"><ele>125.33333333333333</ele><time>2026-03-29T17:06:55.003Z</time></trkpt><trkpt lat="44.9200267" lon="8.2747617"><ele>125.66666666666666</ele><time>2026-03-29T17:06:56.004Z</time></trkpt><trkpt lat="44.919875" lon="8.2748067"><ele>126.0</ele><time>2026-03-29T17:06:57.009Z</time></trkpt><trkpt lat="44.91972" lon="8.27485"><ele>126.0</ele><time>2026-03-29T17:06:58.002Z</time></trkpt><trkpt lat="44.9195617" lon="8.274885"><ele>126.0</ele><time>2026-03-29T17:06:59.004Z</time></trkpt><trkpt lat="44.9193917" lon="8.2749083"><ele>126.0</ele><time>2026-03-29T17:07:00.01Z</time></trkpt><trkpt lat="44.9192233" lon="8.2748967"><ele>125.33333333333334</ele><time>2026-03-29T17:07:01.01Z</time></trkpt><trkpt lat="44.9190433" lon="8.274885"><ele>124.66666666666667</ele><time>2026-03-29T17:07:02.006Z</time></trkpt><trkpt lat="44.91886" lon="8.2748767"><ele>124.0</ele><time>2026-03-29T17:07:03.004Z</time></trkpt><trkpt lat="44.918675" lon="8.2748717"><ele>124.0</ele><time>2026-03-29T17:07:04.005Z</time></trkpt><trkpt lat="44.918485" lon="8.2748683"><ele>124.0</ele><time>2026-03-29T17:07:05.003Z</time></trkpt><trkpt lat="44.91831" lon="8.2748633"><ele>124.0</ele><time>2026-03-29T17:07:06.002Z</time></trkpt><trkpt lat="44.9181467" lon="8.274835"><ele>124.66666666666667</ele><time>2026-03-29T17:07:07.012Z</time></trkpt><trkpt lat="44.917995" lon="8.27479"><ele>125.33333333333334</ele><time>2026-03-29T17:07:08.005Z</time></trkpt><trkpt lat="44.91785" lon="8.2747133"><ele>126.0</ele><time>2026-03-29T17:07:09.004Z</time></trkpt><trkpt lat="44.9176933" lon="8.2746317"><ele>126.66666666666666</ele><time>2026-03-29T17:07:10.003Z</time></trkpt><trkpt lat="44.9175233" lon="8.2745533"><ele>127.33333333333333</ele><time>2026-03-29T17:07:11.006Z</time></trkpt><trkpt lat="44.9173383" lon="8.2744883"><ele>128.0</ele><time>2026-03-29T17:07:12.003Z</time></trkpt><trkpt lat="44.917145" lon="8.2744417"><ele>128.0</ele><time>2026-03-29T17:07:13.006Z</time></trkpt><trkpt lat="44.916945" lon="8.2744117"><ele>128.0</ele><time>2026-03-29T17:07:14.004Z</time></trkpt><trkpt lat="44.916745" lon="8.2743833"><ele>128.0</ele><time>2026-03-29T17:07:15.003Z</time></trkpt><trkpt lat="44.9165433" lon="8.2743567"><ele>126.33333333333333</ele><time>2026-03-29T17:07:16.006Z</time></trkpt><trkpt lat="44.9163417" lon="8.2743283"><ele>124.66666666666666</ele><time>2026-03-29T17:07:17.004Z</time></trkpt><trkpt lat="44.9161367" lon="8.27429"><ele>123.0</ele><time>2026-03-29T17:07:18.004Z</time></trkpt><trkpt lat="44.9159317" lon="8.2742483"><ele>123.33333333333334</ele><time>2026-03-29T17:07:19.004Z</time></trkpt><trkpt lat="44.9157333" lon="8.2742067"><ele>123.66666666666667</ele><time>2026-03-29T17:07:20.005Z</time></trkpt><trkpt lat="44.9155417" lon="8.2741717"><ele>124.0</ele><time>2026-03-29T17:07:21.005Z</time></trkpt><trkpt lat="44.9153567" lon="8.2741483"><ele>124.0</ele><time>2026-03-29T17:07:22.006Z</time></trkpt><trkpt lat="44.9151617" lon="8.2741517"><ele>124.0</ele><time>2026-03-29T17:07:23.008Z</time></trkpt><trkpt lat="44.9149633" lon="8.2741767"><ele>124.0</ele><time>2026-03-29T17:07:24.002Z</time></trkpt><trkpt lat="44.91476" lon="8.2742233"><ele>123.66666666666667</ele><time>2026-03-29T17:07:25.007Z</time></trkpt><trkpt lat="44.9145583" lon="8.2742733"><ele>123.33333333333334</ele><time>2026-03-29T17:07:26.007Z</time></trkpt><trkpt lat="44.9143683" lon="8.2743283"><ele>123.0</ele><time>2026-03-29T17:07:27.007Z</time></trkpt><trkpt lat="44.91419" lon="8.2743833"><ele>122.66666666666666</ele><time>2026-03-29T17:07:28.004Z</time></trkpt><trkpt lat="44.9140183" lon="8.27445"><ele>122.33333333333333</ele><time>2026-03-29T17:07:29.003Z</time></trkpt><trkpt lat="44.9138633" lon="8.2745367"><ele>122.0</ele><time>2026-03-29T17:07:30.004Z</time></trkpt><trkpt lat="44.9137217" lon="8.2746433"><ele>122.0</ele><time>2026-03-29T17:07:31.003Z</time></trkpt><trkpt lat="44.9135833" lon="8.27474"><ele>122.0</ele><time>2026-03-29T17:07:32.003Z</time></trkpt><trkpt lat="44.913445" lon="8.2748283"><ele>122.0</ele><time>2026-03-29T17:07:33.004Z</time></trkpt><trkpt lat="44.913315" lon="8.2749"><ele>122.0</ele><time>2026-03-29T17:07:34.004Z</time></trkpt><trkpt lat="44.9131817" lon="8.2749633"><ele>122.0</ele><time>2026-03-29T17:07:35.004Z</time></trkpt><trkpt lat="44.9130483" lon="8.2750117"><ele>122.0</ele><time>2026-03-29T17:07:36.001Z</time></trkpt><trkpt lat="44.9129133" lon="8.2750483"><ele>122.0</ele><time>2026-03-29T17:07:37.003Z</time></trkpt><trkpt lat="44.912775" lon="8.2750817"><ele>122.0</ele><time>2026-03-29T17:07:38.007Z</time></trkpt><trkpt lat="44.91264" lon="8.275105"><ele>121.75</ele><time>2026-03-29T17:07:39.006Z</time></trkpt><trkpt lat="44.9125117" lon="8.2751167"><ele>121.5</ele><time>2026-03-29T17:07:40.006Z</time></trkpt><trkpt lat="44.9123867" lon="8.27511"><ele>121.25</ele><time>2026-03-29T17:07:41.008Z</time></trkpt><trkpt lat="44.9122683" lon="8.275085"><ele>121.0</ele><time>2026-03-29T17:07:42.003Z</time></trkpt><trkpt lat="44.9121467" lon="8.2750483"><ele>121.0</ele><time>2026-03-29T17:07:43.005Z</time></trkpt><trkpt lat="44.9120233" lon="8.2750033"><ele>121.0</ele><time>2026-03-29T17:07:44.008Z</time></trkpt><trkpt lat="44.9119133" lon="8.2749667"><ele>121.0</ele><time>2026-03-29T17:07:45.005Z</time></trkpt><trkpt lat="44.9118083" lon="8.27493"><ele>121.0</ele><time>2026-03-29T17:07:46.008Z</time></trkpt><trkpt lat="44.911715" lon="8.2748817"><ele>121.0</ele><time>2026-03-29T17:07:47.003Z</time></trkpt><trkpt lat="44.9116317" lon="8.2748183"><ele>121.50000000000001</ele><time>2026-03-29T17:07:48.004Z</time></trkpt><trkpt lat="44.9115583" lon="8.2747483"><ele>122.0</ele><time>2026-03-29T17:07:49.008Z</time></trkpt><trkpt lat="44.9114983" lon="8.274655"><ele>122.5</ele><time>2026-03-29T17:07:50.003Z</time></trkpt><trkpt lat="44.9114383" lon="8.2745733"><ele>123.0</ele><time>2026-03-29T17:07:51.006Z</time></trkpt><trkpt lat="44.9113817" lon="8.2745017"><ele>123.50000000000001</ele><time>2026-03-29T17:07:52.004Z</time></trkpt><trkpt lat="44.9113367" lon="8.274425"><ele>124.0</ele><time>2026-03-29T17:07:54.005Z</time></trkpt><trkpt lat="44.9113983" lon="8.2743867"><ele>124.0</ele><time>2026-03-29T17:07:56.004Z</time></trkpt><trkpt lat="44.9114983" lon="8.27433"><ele>124.0</ele><time>2026-03-29T17:07:58.003Z</time></trkpt><trkpt lat="44.911565" lon="8.2742883"><ele>124.0</ele><time>2026-03-29T17:07:59.004Z</time></trkpt><trkpt lat="44.9116517" lon="8.2742417"><ele>124.0</ele><time>2026-03-29T17:08:00.009Z</time></trkpt><trkpt lat="44.91174" lon="8.27421"><ele>124.0</ele><time>2026-03-29T17:08:01.006Z</time></trkpt><trkpt lat="44.9118367" lon="8.2741867"><ele>124.0</ele><time>2026-03-29T17:08:02.004Z</time></trkpt><trkpt lat="44.9119333" lon="8.2741683"><ele>124.0</ele><time>2026-03-29T17:08:03.005Z</time></trkpt><trkpt lat="44.9120367" lon="8.274145"><ele>124.0</ele><time>2026-03-29T17:08:04.004Z</time></trkpt><trkpt lat="44.912145" lon="8.27414"><ele>124.0</ele><time>2026-03-29T17:08:05.01Z</time></trkpt><trkpt lat="44.9122467" lon="8.27414"><ele>124.0</ele><time>2026-03-29T17:08:06.006Z</time></trkpt><trkpt lat="44.9123617" lon="8.2741367"><ele>124.0</ele><time>2026-03-29T17:08:07.005Z</time></trkpt><trkpt lat="44.9124717" lon="8.27415"><ele>124.0</ele><time>2026-03-29T17:08:08.007Z</time></trkpt><trkpt lat="44.9125817" lon="8.274175"><ele>124.0</ele><time>2026-03-29T17:08:09.006Z</time></trkpt><trkpt lat="44.9126933" lon="8.2741883"><ele>124.0</ele><time>2026-03-29T17:08:10.008Z</time></trkpt><trkpt lat="44.9128" lon="8.2742117"><ele>124.0</ele><time>2026-03-29T17:08:11.009Z</time></trkpt><trkpt lat="44.9129017" lon="8.274205"><ele>123.80000000000001</ele><time>2026-03-29T17:08:12.011Z</time></trkpt><trkpt lat="44.9129983" lon="8.2741883"><ele>123.60000000000001</ele><time>2026-03-29T17:08:13.005Z</time></trkpt><trkpt lat="44.91309" lon="8.2741483"><ele>123.4</ele><time>2026-03-29T17:08:14.007Z</time></trkpt><trkpt lat="44.9131717" lon="8.27407"><ele>123.2</ele><time>2026-03-29T17:08:15.006Z</time></trkpt><trkpt lat="44.9132617" lon="8.2739767"><ele>123.0</ele><time>2026-03-29T17:08:16.005Z</time></trkpt><trkpt lat="44.9133467" lon="8.2738667"><ele>123.25</ele><time>2026-03-29T17:08:17.007Z</time></trkpt><trkpt lat="44.9134383" lon="8.27375"><ele>123.5</ele><time>2026-03-29T17:08:18.003Z</time></trkpt><trkpt lat="44.91354" lon="8.2736333"><ele>123.75</ele><time>2026-03-29T17:08:19.003Z</time></trkpt><trkpt lat="44.9136333" lon="8.2735183"><ele>124.0</ele><time>2026-03-29T17:08:20.005Z</time></trkpt><trkpt lat="44.9137367" lon="8.273405"><ele>124.0</ele><time>2026-03-29T17:08:21.006Z</time></trkpt><trkpt lat="44.9138383" lon="8.2733017"><ele>124.0</ele><time>2026-03-29T17:08:22.005Z</time></trkpt><trkpt lat="44.9139333" lon="8.2731983"><ele>124.0</ele><time>2026-03-29T17:08:23.004Z</time></trkpt><trkpt lat="44.91403" lon="8.2731133"><ele>124.0</ele><time>2026-03-29T17:08:24.008Z</time></trkpt><trkpt lat="44.9141217" lon="8.2730283"><ele>124.75</ele><time>2026-03-29T17:08:25.004Z</time></trkpt><trkpt lat="44.9142217" lon="8.2729583"><ele>125.5</ele><time>2026-03-29T17:08:26.005Z</time></trkpt><trkpt lat="44.91433" lon="8.272895"><ele>126.25</ele><time>2026-03-29T17:08:27.005Z</time></trkpt><trkpt lat="44.9144417" lon="8.2728367"><ele>127.0</ele><time>2026-03-29T17:08:28.004Z</time></trkpt><trkpt lat="44.9145633" lon="8.2727767"><ele>127.5</ele><time>2026-03-29T17:08:29.004Z</time></trkpt><trkpt lat="44.9146917" lon="8.272715"><ele>128.0</ele><time>2026-03-29T17:08:30.01Z</time></trkpt><trkpt lat="44.9148183" lon="8.2726683"><ele>128.5</ele><time>2026-03-29T17:08:31.007Z</time></trkpt><trkpt lat="44.914945" lon="8.2726283"><ele>129.0</ele><time>2026-03-29T17:08:32.005Z</time></trkpt><trkpt lat="44.9150667" lon="8.2725933"><ele>128.75</ele><time>2026-03-29T17:08:33.011Z</time></trkpt><trkpt lat="44.9151883" lon="8.2725517"><ele>128.5</ele><time>2026-03-29T17:08:34.007Z</time></trkpt><trkpt lat="44.915315" lon="8.272505"><ele>128.25</ele><time>2026-03-29T17:08:35.004Z</time></trkpt><trkpt lat="44.9154417" lon="8.27246"><ele>128.0</ele><time>2026-03-29T17:08:36.004Z</time></trkpt><trkpt lat="44.91557" lon="8.2724017"><ele>128.0</ele><time>2026-03-29T17:08:37.003Z</time></trkpt><trkpt lat="44.9156983" lon="8.272335"><ele>128.0</ele><time>2026-03-29T17:08:38.006Z</time></trkpt><trkpt lat="44.915835" lon="8.27227"><ele>128.0</ele><time>2026-03-29T17:08:39.005Z</time></trkpt><trkpt lat="44.9159783" lon="8.2722083"><ele>128.0</ele><time>2026-03-29T17:08:40.003Z</time></trkpt><trkpt lat="44.9161217" lon="8.272175"><ele>129.5</ele><time>2026-03-29T17:08:41.004Z</time></trkpt><trkpt lat="44.9162717" lon="8.2721533"><ele>131.0</ele><time>2026-03-29T17:08:42.005Z</time></trkpt><trkpt lat="44.916415" lon="8.272145"><ele>132.5</ele><time>2026-03-29T17:08:43.004Z</time></trkpt><trkpt lat="44.916545" lon="8.272165"><ele>134.0</ele><time>2026-03-29T17:08:44.004Z</time></trkpt><trkpt lat="44.91667" lon="8.2722167"><ele>132.25</ele><time>2026-03-29T17:08:45.002Z</time></trkpt><trkpt lat="44.9167867" lon="8.2722883"><ele>130.5</ele><time>2026-03-29T17:08:46.005Z</time></trkpt><trkpt lat="44.9169" lon="8.2723617"><ele>128.75</ele><time>2026-03-29T17:08:47.007Z</time></trkpt><trkpt lat="44.9170133" lon="8.2724383"><ele>127.0</ele><time>2026-03-29T17:08:48.003Z</time></trkpt><trkpt lat="44.9171283" lon="8.27252"><ele>127.0</ele><time>2026-03-29T17:08:49.005Z</time></trkpt><trkpt lat="44.9172433" lon="8.272595"><ele>127.0</ele><time>2026-03-29T17:08:50.004Z</time></trkpt><trkpt lat="44.9173617" lon="8.2726617"><ele>127.0</ele><time>2026-03-29T17:08:51.005Z</time></trkpt><trkpt lat="44.9174767" lon="8.2727267"><ele>127.0</ele><time>2026-03-29T17:08:52.005Z</time></trkpt><trkpt lat="44.917595" lon="8.2727833"><ele>127.25</ele><time>2026-03-29T17:08:53.009Z</time></trkpt><trkpt lat="44.9177117" lon="8.2728317"><ele>127.5</ele><time>2026-03-29T17:08:54.006Z</time></trkpt><trkpt lat="44.9178267" lon="8.272865"><ele>127.75</ele><time>2026-03-29T17:08:55.005Z</time></trkpt><trkpt lat="44.9179383" lon="8.2729017"><ele>128.0</ele><time>2026-03-29T17:08:56.005Z</time></trkpt><trkpt lat="44.9180433" lon="8.2729167"><ele>127.99999999999999</ele><time>2026-03-29T17:08:57.008Z</time></trkpt><trkpt lat="44.9181433" lon="8.27292"><ele>128.0</ele><time>2026-03-29T17:08:58.008Z</time></trkpt><trkpt lat="44.91824" lon="8.2729217"><ele>128.0</ele><time>2026-03-29T17:08:59.002Z</time></trkpt><trkpt lat="44.9183267" lon="8.2729167"><ele>128.0</ele><time>2026-03-29T17:09:00.009Z</time></trkpt><trkpt lat="44.918395" lon="8.2729167"><ele>127.99999999999999</ele><time>2026-03-29T17:09:01.011Z</time></trkpt><trkpt lat="44.9184733" lon="8.2728767"><ele>128.0</ele><time>2026-03-29T17:09:03.005Z</time></trkpt><trkpt lat="44.9184933" lon="8.2727883"><ele>128.6</ele><time>2026-03-29T17:09:05.002Z</time></trkpt><trkpt lat="44.9185017" lon="8.2726767"><ele>129.20000000000002</ele><time>2026-03-29T17:09:08.003Z</time></trkpt><trkpt lat="44.91849" lon="8.2725717"><ele>129.8</ele><time>2026-03-29T17:09:10.005Z</time></trkpt><trkpt lat="44.9184883" lon="8.272465"><ele>130.4</ele><time>2026-03-29T17:09:12.004Z</time></trkpt><trkpt lat="44.9185167" lon="8.2723817"><ele>131.0</ele><time>2026-03-29T17:09:16.006Z</time></trkpt><trkpt lat="44.91874" lon="8.2724417"><ele>131.0</ele><time>2026-03-29T17:09:39.248Z</time></trkpt><trkpt lat="44.9186533" lon="8.2723867"><ele>131.0</ele><time>2026-03-29T17:09:41.502Z</time></trkpt><trkpt lat="44.918675" lon="8.2722817"><ele>131.0</ele><time>2026-03-29T17:09:52.007Z</time></trkpt><trkpt lat="44.9187333" lon="8.272225"><ele>140.0</ele><time>2026-03-29T17:09:56.006Z</time></trkpt></trkseg></trk></gpx>